<?xml version="1.0" encoding="UTF-8" standalone="no" ?>
<gpx xmlns="http://www.topografix.com/GPX/1/1" xmlns:xsi="http://www.w3.org/2001/XMLSchema-instance" xsi:schemaLocation="http://www.topografix.com/GPX/1/1 http://www.topografix.com/GPX/1/1/gpx.xsd" version="1.1" creator="VisuGPX - https://www.visugpx.com">
  <metadata>
    <name>coeur et santé pour amiens métropole en ville</name>
    <desc><![CDATA[parcours 10km
ou 5km proposé au choix]]></desc>
  </metadata>
  <trk>
    <name><![CDATA[coeur et santé pour amiens métropole en ville_1]]></name>
    <trkseg>
      <trkpt lat="49.87871" lon="2.31017">
        <ele>60.2</ele>
        <time>2023-06-03T11:38:54Z</time>
      </trkpt>
      <trkpt lat="49.87875" lon="2.31011">
        <ele>60.2</ele>
        <time>2023-06-03T11:38:55Z</time>
      </trkpt>
      <trkpt lat="49.8788" lon="2.31003">
        <ele>60.1</ele>
        <time>2023-06-03T11:38:56Z</time>
      </trkpt>
      <trkpt lat="49.87881" lon="2.31001">
        <ele>60.1</ele>
        <time>2023-06-03T11:38:57Z</time>
      </trkpt>
      <trkpt lat="49.87881" lon="2.31001">
        <ele>60.1</ele>
        <time>2023-06-03T11:38:58Z</time>
      </trkpt>
      <trkpt lat="49.87881" lon="2.31">
        <ele>60.1</ele>
        <time>2023-06-03T11:38:59Z</time>
      </trkpt>
      <trkpt lat="49.87881" lon="2.31001">
        <ele>60.1</ele>
        <time>2023-06-03T11:39:00Z</time>
      </trkpt>
      <trkpt lat="49.8788" lon="2.31002">
        <ele>60.1</ele>
        <time>2023-06-03T11:39:01Z</time>
      </trkpt>
      <trkpt lat="49.87878" lon="2.30998">
        <ele>60.1</ele>
        <time>2023-06-03T11:39:03Z</time>
      </trkpt>
      <trkpt lat="49.87878" lon="2.30997">
        <ele>60.1</ele>
        <time>2023-06-03T11:39:04Z</time>
      </trkpt>
      <trkpt lat="49.87879" lon="2.30996">
        <ele>60.1</ele>
        <time>2023-06-03T11:39:05Z</time>
      </trkpt>
      <trkpt lat="49.87878" lon="2.30995">
        <ele>60.1</ele>
        <time>2023-06-03T11:39:06Z</time>
      </trkpt>
      <trkpt lat="49.87878" lon="2.30994">
        <ele>60.1</ele>
        <time>2023-06-03T11:39:07Z</time>
      </trkpt>
      <trkpt lat="49.87878" lon="2.30993">
        <ele>60.1</ele>
        <time>2023-06-03T11:39:08Z</time>
      </trkpt>
      <trkpt lat="49.87877" lon="2.30991">
        <ele>60.1</ele>
        <time>2023-06-03T11:39:09Z</time>
      </trkpt>
      <trkpt lat="49.87878" lon="2.30994">
        <ele>60.1</ele>
        <time>2023-06-03T11:39:10Z</time>
      </trkpt>
      <trkpt lat="49.8788" lon="2.30997">
        <ele>60</ele>
        <time>2023-06-03T11:39:12Z</time>
      </trkpt>
      <trkpt lat="49.87883" lon="2.30997">
        <ele>60</ele>
        <time>2023-06-03T11:39:13Z</time>
      </trkpt>
      <trkpt lat="49.87884" lon="2.30997">
        <ele>60</ele>
        <time>2023-06-03T11:39:14Z</time>
      </trkpt>
      <trkpt lat="49.87886" lon="2.30997">
        <ele>60</ele>
        <time>2023-06-03T11:39:15Z</time>
      </trkpt>
      <trkpt lat="49.87889" lon="2.30996">
        <ele>60</ele>
        <time>2023-06-03T11:39:16Z</time>
      </trkpt>
      <trkpt lat="49.8789" lon="2.30995">
        <ele>60</ele>
        <time>2023-06-03T11:39:17Z</time>
      </trkpt>
      <trkpt lat="49.87891" lon="2.30995">
        <ele>60</ele>
        <time>2023-06-03T11:39:18Z</time>
      </trkpt>
      <trkpt lat="49.87892" lon="2.30995">
        <ele>60</ele>
        <time>2023-06-03T11:39:19Z</time>
      </trkpt>
      <trkpt lat="49.87894" lon="2.30994">
        <ele>60</ele>
        <time>2023-06-03T11:39:21Z</time>
      </trkpt>
      <trkpt lat="49.87895" lon="2.30992">
        <ele>60</ele>
        <time>2023-06-03T11:39:22Z</time>
      </trkpt>
      <trkpt lat="49.87896" lon="2.30992">
        <ele>60</ele>
        <time>2023-06-03T11:39:23Z</time>
      </trkpt>
      <trkpt lat="49.87897" lon="2.30991">
        <ele>60</ele>
        <time>2023-06-03T11:39:24Z</time>
      </trkpt>
      <trkpt lat="49.87897" lon="2.3099">
        <ele>60</ele>
        <time>2023-06-03T11:39:25Z</time>
      </trkpt>
      <trkpt lat="49.87898" lon="2.3099">
        <ele>60</ele>
        <time>2023-06-03T11:39:26Z</time>
      </trkpt>
      <trkpt lat="49.87901" lon="2.30987">
        <ele>59.9</ele>
        <time>2023-06-03T11:39:28Z</time>
      </trkpt>
      <trkpt lat="49.87903" lon="2.30986">
        <ele>59.9</ele>
        <time>2023-06-03T11:39:29Z</time>
      </trkpt>
      <trkpt lat="49.87904" lon="2.30985">
        <ele>59.9</ele>
        <time>2023-06-03T11:39:30Z</time>
      </trkpt>
      <trkpt lat="49.87906" lon="2.30983">
        <ele>59.9</ele>
        <time>2023-06-03T11:39:31Z</time>
      </trkpt>
      <trkpt lat="49.87906" lon="2.30983">
        <ele>59.9</ele>
        <time>2023-06-03T11:39:32Z</time>
      </trkpt>
      <trkpt lat="49.87907" lon="2.30982">
        <ele>59.9</ele>
        <time>2023-06-03T11:39:33Z</time>
      </trkpt>
      <trkpt lat="49.8791" lon="2.30981">
        <ele>59.9</ele>
        <time>2023-06-03T11:39:34Z</time>
      </trkpt>
      <trkpt lat="49.87911" lon="2.3098">
        <ele>59.9</ele>
        <time>2023-06-03T11:39:35Z</time>
      </trkpt>
      <trkpt lat="49.87912" lon="2.30979">
        <ele>59.9</ele>
        <time>2023-06-03T11:39:36Z</time>
      </trkpt>
      <trkpt lat="49.87914" lon="2.30978">
        <ele>59.9</ele>
        <time>2023-06-03T11:39:38Z</time>
      </trkpt>
      <trkpt lat="49.87915" lon="2.30978">
        <ele>59.9</ele>
        <time>2023-06-03T11:39:39Z</time>
      </trkpt>
      <trkpt lat="49.87916" lon="2.30978">
        <ele>59.9</ele>
        <time>2023-06-03T11:39:40Z</time>
      </trkpt>
      <trkpt lat="49.87917" lon="2.30978">
        <ele>59.9</ele>
        <time>2023-06-03T11:39:41Z</time>
      </trkpt>
      <trkpt lat="49.87918" lon="2.30979">
        <ele>59.9</ele>
        <time>2023-06-03T11:39:42Z</time>
      </trkpt>
      <trkpt lat="49.87919" lon="2.30979">
        <ele>59.9</ele>
        <time>2023-06-03T11:39:43Z</time>
      </trkpt>
      <trkpt lat="49.8792" lon="2.30979">
        <ele>59.9</ele>
        <time>2023-06-03T11:39:44Z</time>
      </trkpt>
      <trkpt lat="49.87921" lon="2.30979">
        <ele>59.9</ele>
        <time>2023-06-03T11:39:45Z</time>
      </trkpt>
      <trkpt lat="49.87922" lon="2.3098">
        <ele>59.9</ele>
        <time>2023-06-03T11:39:46Z</time>
      </trkpt>
      <trkpt lat="49.87923" lon="2.30982">
        <ele>59.9</ele>
        <time>2023-06-03T11:39:47Z</time>
      </trkpt>
      <trkpt lat="49.87925" lon="2.30985">
        <ele>59.9</ele>
        <time>2023-06-03T11:39:49Z</time>
      </trkpt>
      <trkpt lat="49.87925" lon="2.30986">
        <ele>59.9</ele>
        <time>2023-06-03T11:39:50Z</time>
      </trkpt>
      <trkpt lat="49.87926" lon="2.30987">
        <ele>59.9</ele>
        <time>2023-06-03T11:39:51Z</time>
      </trkpt>
      <trkpt lat="49.87926" lon="2.30988">
        <ele>59.9</ele>
        <time>2023-06-03T11:39:52Z</time>
      </trkpt>
      <trkpt lat="49.87927" lon="2.30989">
        <ele>59.9</ele>
        <time>2023-06-03T11:39:53Z</time>
      </trkpt>
      <trkpt lat="49.87927" lon="2.3099">
        <ele>59.9</ele>
        <time>2023-06-03T11:39:54Z</time>
      </trkpt>
      <trkpt lat="49.87928" lon="2.30992">
        <ele>59.9</ele>
        <time>2023-06-03T11:39:55Z</time>
      </trkpt>
      <trkpt lat="49.87928" lon="2.30995">
        <ele>59.9</ele>
        <time>2023-06-03T11:39:56Z</time>
      </trkpt>
      <trkpt lat="49.87928" lon="2.30997">
        <ele>59.9</ele>
        <time>2023-06-03T11:39:58Z</time>
      </trkpt>
      <trkpt lat="49.87929" lon="2.31">
        <ele>59.9</ele>
        <time>2023-06-03T11:39:59Z</time>
      </trkpt>
      <trkpt lat="49.87929" lon="2.31001">
        <ele>59.9</ele>
        <time>2023-06-03T11:40:00Z</time>
      </trkpt>
      <trkpt lat="49.8793" lon="2.31002">
        <ele>59.9</ele>
        <time>2023-06-03T11:40:01Z</time>
      </trkpt>
      <trkpt lat="49.87932" lon="2.31003">
        <ele>60.1</ele>
        <time>2023-06-03T11:40:02Z</time>
      </trkpt>
      <trkpt lat="49.87932" lon="2.31004">
        <ele>60.1</ele>
        <time>2023-06-03T11:40:03Z</time>
      </trkpt>
      <trkpt lat="49.87933" lon="2.31005">
        <ele>60.1</ele>
        <time>2023-06-03T11:40:04Z</time>
      </trkpt>
      <trkpt lat="49.87934" lon="2.31005">
        <ele>60.2</ele>
        <time>2023-06-03T11:40:06Z</time>
      </trkpt>
      <trkpt lat="49.87935" lon="2.31006">
        <ele>60.2</ele>
        <time>2023-06-03T11:40:07Z</time>
      </trkpt>
      <trkpt lat="49.87936" lon="2.31007">
        <ele>60.2</ele>
        <time>2023-06-03T11:40:08Z</time>
      </trkpt>
      <trkpt lat="49.87937" lon="2.31007">
        <ele>60.2</ele>
        <time>2023-06-03T11:40:09Z</time>
      </trkpt>
      <trkpt lat="49.87939" lon="2.31006">
        <ele>60.3</ele>
        <time>2023-06-03T11:40:10Z</time>
      </trkpt>
      <trkpt lat="49.87941" lon="2.31004">
        <ele>60.3</ele>
        <time>2023-06-03T11:40:11Z</time>
      </trkpt>
      <trkpt lat="49.87944" lon="2.30999">
        <ele>60.4</ele>
        <time>2023-06-03T11:40:13Z</time>
      </trkpt>
      <trkpt lat="49.87944" lon="2.31">
        <ele>60.4</ele>
        <time>2023-06-03T11:40:14Z</time>
      </trkpt>
      <trkpt lat="49.87944" lon="2.31004">
        <ele>60.4</ele>
        <time>2023-06-03T11:40:15Z</time>
      </trkpt>
      <trkpt lat="49.87945" lon="2.31004">
        <ele>60.4</ele>
        <time>2023-06-03T11:40:16Z</time>
      </trkpt>
      <trkpt lat="49.87946" lon="2.31004">
        <ele>60.4</ele>
        <time>2023-06-03T11:40:18Z</time>
      </trkpt>
      <trkpt lat="49.87947" lon="2.31003">
        <ele>60.4</ele>
        <time>2023-06-03T11:40:19Z</time>
      </trkpt>
      <trkpt lat="49.87948" lon="2.31003">
        <ele>60.5</ele>
        <time>2023-06-03T11:40:20Z</time>
      </trkpt>
      <trkpt lat="49.8795" lon="2.31002">
        <ele>60.5</ele>
        <time>2023-06-03T11:40:21Z</time>
      </trkpt>
      <trkpt lat="49.87951" lon="2.31002">
        <ele>60.5</ele>
        <time>2023-06-03T11:40:22Z</time>
      </trkpt>
      <trkpt lat="49.87951" lon="2.31001">
        <ele>60.5</ele>
        <time>2023-06-03T11:40:23Z</time>
      </trkpt>
      <trkpt lat="49.87953" lon="2.31">
        <ele>60.5</ele>
        <time>2023-06-03T11:40:25Z</time>
      </trkpt>
      <trkpt lat="49.87954" lon="2.30999">
        <ele>60.5</ele>
        <time>2023-06-03T11:40:26Z</time>
      </trkpt>
      <trkpt lat="49.87955" lon="2.30998">
        <ele>60.5</ele>
        <time>2023-06-03T11:40:27Z</time>
      </trkpt>
      <trkpt lat="49.87957" lon="2.30998">
        <ele>60.5</ele>
        <time>2023-06-03T11:40:28Z</time>
      </trkpt>
      <trkpt lat="49.8796" lon="2.30996">
        <ele>60.6</ele>
        <time>2023-06-03T11:40:29Z</time>
      </trkpt>
      <trkpt lat="49.87961" lon="2.30996">
        <ele>60.6</ele>
        <time>2023-06-03T11:40:30Z</time>
      </trkpt>
      <trkpt lat="49.87963" lon="2.30996">
        <ele>60.6</ele>
        <time>2023-06-03T11:40:31Z</time>
      </trkpt>
      <trkpt lat="49.87965" lon="2.30995">
        <ele>60.6</ele>
        <time>2023-06-03T11:40:33Z</time>
      </trkpt>
      <trkpt lat="49.87967" lon="2.30994">
        <ele>60.6</ele>
        <time>2023-06-03T11:40:34Z</time>
      </trkpt>
      <trkpt lat="49.87968" lon="2.30994">
        <ele>60.6</ele>
        <time>2023-06-03T11:40:35Z</time>
      </trkpt>
      <trkpt lat="49.8797" lon="2.30994">
        <ele>60.6</ele>
        <time>2023-06-03T11:40:36Z</time>
      </trkpt>
      <trkpt lat="49.87972" lon="2.30993">
        <ele>60.6</ele>
        <time>2023-06-03T11:40:37Z</time>
      </trkpt>
      <trkpt lat="49.87973" lon="2.30993">
        <ele>60.6</ele>
        <time>2023-06-03T11:40:38Z</time>
      </trkpt>
      <trkpt lat="49.87975" lon="2.30993">
        <ele>60.6</ele>
        <time>2023-06-03T11:40:39Z</time>
      </trkpt>
      <trkpt lat="49.87978" lon="2.30992">
        <ele>60.7</ele>
        <time>2023-06-03T11:40:41Z</time>
      </trkpt>
      <trkpt lat="49.87979" lon="2.30991">
        <ele>60.7</ele>
        <time>2023-06-03T11:40:42Z</time>
      </trkpt>
      <trkpt lat="49.87981" lon="2.3099">
        <ele>60.7</ele>
        <time>2023-06-03T11:40:43Z</time>
      </trkpt>
      <trkpt lat="49.87982" lon="2.3099">
        <ele>60.7</ele>
        <time>2023-06-03T11:40:44Z</time>
      </trkpt>
      <trkpt lat="49.87983" lon="2.30989">
        <ele>60.7</ele>
        <time>2023-06-03T11:40:46Z</time>
      </trkpt>
      <trkpt lat="49.87984" lon="2.30988">
        <ele>60.7</ele>
        <time>2023-06-03T11:40:47Z</time>
      </trkpt>
      <trkpt lat="49.87985" lon="2.30986">
        <ele>60.7</ele>
        <time>2023-06-03T11:40:48Z</time>
      </trkpt>
      <trkpt lat="49.87986" lon="2.30983">
        <ele>60.7</ele>
        <time>2023-06-03T11:40:49Z</time>
      </trkpt>
      <trkpt lat="49.87987" lon="2.30982">
        <ele>60.7</ele>
        <time>2023-06-03T11:40:50Z</time>
      </trkpt>
      <trkpt lat="49.87987" lon="2.3098">
        <ele>60.7</ele>
        <time>2023-06-03T11:40:51Z</time>
      </trkpt>
      <trkpt lat="49.87987" lon="2.30978">
        <ele>60.8</ele>
        <time>2023-06-03T11:40:52Z</time>
      </trkpt>
      <trkpt lat="49.87987" lon="2.30974">
        <ele>60.8</ele>
        <time>2023-06-03T11:40:54Z</time>
      </trkpt>
      <trkpt lat="49.87985" lon="2.3097">
        <ele>60.9</ele>
        <time>2023-06-03T11:40:55Z</time>
      </trkpt>
      <trkpt lat="49.87984" lon="2.30967">
        <ele>60.9</ele>
        <time>2023-06-03T11:40:56Z</time>
      </trkpt>
      <trkpt lat="49.87984" lon="2.30965">
        <ele>60.9</ele>
        <time>2023-06-03T11:40:57Z</time>
      </trkpt>
      <trkpt lat="49.87983" lon="2.30963">
        <ele>61</ele>
        <time>2023-06-03T11:40:58Z</time>
      </trkpt>
      <trkpt lat="49.87983" lon="2.3096">
        <ele>61</ele>
        <time>2023-06-03T11:40:59Z</time>
      </trkpt>
      <trkpt lat="49.87982" lon="2.30958">
        <ele>61</ele>
        <time>2023-06-03T11:41:00Z</time>
      </trkpt>
      <trkpt lat="49.87982" lon="2.30955">
        <ele>61</ele>
        <time>2023-06-03T11:41:02Z</time>
      </trkpt>
      <trkpt lat="49.87981" lon="2.30953">
        <ele>61.1</ele>
        <time>2023-06-03T11:41:03Z</time>
      </trkpt>
      <trkpt lat="49.87981" lon="2.3095">
        <ele>61.1</ele>
        <time>2023-06-03T11:41:04Z</time>
      </trkpt>
      <trkpt lat="49.87979" lon="2.30946">
        <ele>61.1</ele>
        <time>2023-06-03T11:41:05Z</time>
      </trkpt>
      <trkpt lat="49.87979" lon="2.30945">
        <ele>61.2</ele>
        <time>2023-06-03T11:41:06Z</time>
      </trkpt>
      <trkpt lat="49.87978" lon="2.30942">
        <ele>61.2</ele>
        <time>2023-06-03T11:41:07Z</time>
      </trkpt>
      <trkpt lat="49.87978" lon="2.30941">
        <ele>61.2</ele>
        <time>2023-06-03T11:41:08Z</time>
      </trkpt>
      <trkpt lat="49.87977" lon="2.30937">
        <ele>61.2</ele>
        <time>2023-06-03T11:41:09Z</time>
      </trkpt>
      <trkpt lat="49.87976" lon="2.30936">
        <ele>61.3</ele>
        <time>2023-06-03T11:41:11Z</time>
      </trkpt>
      <trkpt lat="49.87975" lon="2.30934">
        <ele>61.3</ele>
        <time>2023-06-03T11:41:12Z</time>
      </trkpt>
      <trkpt lat="49.87975" lon="2.30932">
        <ele>61.3</ele>
        <time>2023-06-03T11:41:13Z</time>
      </trkpt>
      <trkpt lat="49.87974" lon="2.30931">
        <ele>61.3</ele>
        <time>2023-06-03T11:41:14Z</time>
      </trkpt>
      <trkpt lat="49.87974" lon="2.30929">
        <ele>61.3</ele>
        <time>2023-06-03T11:41:15Z</time>
      </trkpt>
      <trkpt lat="49.87975" lon="2.30927">
        <ele>61.4</ele>
        <time>2023-06-03T11:41:16Z</time>
      </trkpt>
      <trkpt lat="49.87975" lon="2.30926">
        <ele>61.4</ele>
        <time>2023-06-03T11:41:17Z</time>
      </trkpt>
      <trkpt lat="49.87975" lon="2.30923">
        <ele>61.4</ele>
        <time>2023-06-03T11:41:18Z</time>
      </trkpt>
      <trkpt lat="49.87975" lon="2.3092">
        <ele>61.4</ele>
        <time>2023-06-03T11:41:20Z</time>
      </trkpt>
      <trkpt lat="49.87975" lon="2.30918">
        <ele>61.5</ele>
        <time>2023-06-03T11:41:21Z</time>
      </trkpt>
      <trkpt lat="49.87977" lon="2.30917">
        <ele>61.5</ele>
        <time>2023-06-03T11:41:22Z</time>
      </trkpt>
      <trkpt lat="49.87978" lon="2.30916">
        <ele>61.5</ele>
        <time>2023-06-03T11:41:24Z</time>
      </trkpt>
      <trkpt lat="49.87978" lon="2.30914">
        <ele>61.5</ele>
        <time>2023-06-03T11:41:25Z</time>
      </trkpt>
      <trkpt lat="49.87979" lon="2.30912">
        <ele>61.5</ele>
        <time>2023-06-03T11:41:26Z</time>
      </trkpt>
      <trkpt lat="49.8798" lon="2.30911">
        <ele>61.5</ele>
        <time>2023-06-03T11:41:27Z</time>
      </trkpt>
      <trkpt lat="49.8798" lon="2.30909">
        <ele>61.6</ele>
        <time>2023-06-03T11:41:28Z</time>
      </trkpt>
      <trkpt lat="49.87981" lon="2.30907">
        <ele>61.6</ele>
        <time>2023-06-03T11:41:29Z</time>
      </trkpt>
      <trkpt lat="49.87982" lon="2.30905">
        <ele>61.6</ele>
        <time>2023-06-03T11:41:30Z</time>
      </trkpt>
      <trkpt lat="49.87983" lon="2.30903">
        <ele>61.6</ele>
        <time>2023-06-03T11:41:32Z</time>
      </trkpt>
      <trkpt lat="49.87985" lon="2.30902">
        <ele>61.7</ele>
        <time>2023-06-03T11:41:33Z</time>
      </trkpt>
      <trkpt lat="49.87986" lon="2.30901">
        <ele>61.7</ele>
        <time>2023-06-03T11:41:34Z</time>
      </trkpt>
      <trkpt lat="49.87987" lon="2.309">
        <ele>61.6</ele>
        <time>2023-06-03T11:41:35Z</time>
      </trkpt>
      <trkpt lat="49.87989" lon="2.30898">
        <ele>61.6</ele>
        <time>2023-06-03T11:41:36Z</time>
      </trkpt>
      <trkpt lat="49.8799" lon="2.30897">
        <ele>61.7</ele>
        <time>2023-06-03T11:41:37Z</time>
      </trkpt>
      <trkpt lat="49.8799" lon="2.30894">
        <ele>61.6</ele>
        <time>2023-06-03T11:41:38Z</time>
      </trkpt>
      <trkpt lat="49.87991" lon="2.30892">
        <ele>61.7</ele>
        <time>2023-06-03T11:41:39Z</time>
      </trkpt>
      <trkpt lat="49.87991" lon="2.30887">
        <ele>61.8</ele>
        <time>2023-06-03T11:41:41Z</time>
      </trkpt>
      <trkpt lat="49.87991" lon="2.30885">
        <ele>61.8</ele>
        <time>2023-06-03T11:41:42Z</time>
      </trkpt>
      <trkpt lat="49.8799" lon="2.30883">
        <ele>61.8</ele>
        <time>2023-06-03T11:41:43Z</time>
      </trkpt>
      <trkpt lat="49.8799" lon="2.30879">
        <ele>61.9</ele>
        <time>2023-06-03T11:41:45Z</time>
      </trkpt>
      <trkpt lat="49.8799" lon="2.30877">
        <ele>61.9</ele>
        <time>2023-06-03T11:41:46Z</time>
      </trkpt>
      <trkpt lat="49.8799" lon="2.30875">
        <ele>61.9</ele>
        <time>2023-06-03T11:41:47Z</time>
      </trkpt>
      <trkpt lat="49.87989" lon="2.30873">
        <ele>61.9</ele>
        <time>2023-06-03T11:41:49Z</time>
      </trkpt>
      <trkpt lat="49.87989" lon="2.30871">
        <ele>62</ele>
        <time>2023-06-03T11:41:50Z</time>
      </trkpt>
      <trkpt lat="49.87988" lon="2.30868">
        <ele>62</ele>
        <time>2023-06-03T11:41:51Z</time>
      </trkpt>
      <trkpt lat="49.87987" lon="2.30866">
        <ele>62</ele>
        <time>2023-06-03T11:41:52Z</time>
      </trkpt>
      <trkpt lat="49.87987" lon="2.30864">
        <ele>62</ele>
        <time>2023-06-03T11:41:54Z</time>
      </trkpt>
      <trkpt lat="49.87986" lon="2.30862">
        <ele>62</ele>
        <time>2023-06-03T11:41:55Z</time>
      </trkpt>
      <trkpt lat="49.87986" lon="2.3086">
        <ele>62.1</ele>
        <time>2023-06-03T11:41:56Z</time>
      </trkpt>
      <trkpt lat="49.87985" lon="2.30858">
        <ele>62.1</ele>
        <time>2023-06-03T11:41:57Z</time>
      </trkpt>
      <trkpt lat="49.87984" lon="2.30856">
        <ele>62.1</ele>
        <time>2023-06-03T11:41:58Z</time>
      </trkpt>
      <trkpt lat="49.87984" lon="2.30854">
        <ele>62.1</ele>
        <time>2023-06-03T11:41:59Z</time>
      </trkpt>
      <trkpt lat="49.87983" lon="2.30852">
        <ele>62.1</ele>
        <time>2023-06-03T11:42:00Z</time>
      </trkpt>
      <trkpt lat="49.87983" lon="2.30849">
        <ele>62.2</ele>
        <time>2023-06-03T11:42:02Z</time>
      </trkpt>
      <trkpt lat="49.87982" lon="2.30847">
        <ele>62.2</ele>
        <time>2023-06-03T11:42:03Z</time>
      </trkpt>
      <trkpt lat="49.87981" lon="2.30844">
        <ele>62.2</ele>
        <time>2023-06-03T11:42:04Z</time>
      </trkpt>
      <trkpt lat="49.87981" lon="2.30842">
        <ele>62.2</ele>
        <time>2023-06-03T11:42:05Z</time>
      </trkpt>
      <trkpt lat="49.8798" lon="2.30838">
        <ele>62.3</ele>
        <time>2023-06-03T11:42:06Z</time>
      </trkpt>
      <trkpt lat="49.87979" lon="2.30837">
        <ele>62.3</ele>
        <time>2023-06-03T11:42:07Z</time>
      </trkpt>
      <trkpt lat="49.87978" lon="2.30836">
        <ele>62.3</ele>
        <time>2023-06-03T11:42:08Z</time>
      </trkpt>
      <trkpt lat="49.87976" lon="2.30834">
        <ele>62.3</ele>
        <time>2023-06-03T11:42:10Z</time>
      </trkpt>
      <trkpt lat="49.87975" lon="2.30832">
        <ele>62.3</ele>
        <time>2023-06-03T11:42:11Z</time>
      </trkpt>
      <trkpt lat="49.87974" lon="2.3083">
        <ele>62.4</ele>
        <time>2023-06-03T11:42:12Z</time>
      </trkpt>
      <trkpt lat="49.87974" lon="2.30828">
        <ele>62.4</ele>
        <time>2023-06-03T11:42:13Z</time>
      </trkpt>
      <trkpt lat="49.87973" lon="2.30825">
        <ele>62.4</ele>
        <time>2023-06-03T11:42:14Z</time>
      </trkpt>
      <trkpt lat="49.87972" lon="2.30821">
        <ele>62.4</ele>
        <time>2023-06-03T11:42:16Z</time>
      </trkpt>
      <trkpt lat="49.87971" lon="2.30818">
        <ele>62.5</ele>
        <time>2023-06-03T11:42:17Z</time>
      </trkpt>
      <trkpt lat="49.8797" lon="2.30816">
        <ele>62.5</ele>
        <time>2023-06-03T11:42:18Z</time>
      </trkpt>
      <trkpt lat="49.87969" lon="2.30813">
        <ele>62.5</ele>
        <time>2023-06-03T11:42:20Z</time>
      </trkpt>
      <trkpt lat="49.87969" lon="2.30811">
        <ele>62.5</ele>
        <time>2023-06-03T11:42:21Z</time>
      </trkpt>
      <trkpt lat="49.87968" lon="2.30808">
        <ele>62.6</ele>
        <time>2023-06-03T11:42:22Z</time>
      </trkpt>
      <trkpt lat="49.87967" lon="2.30807">
        <ele>62.6</ele>
        <time>2023-06-03T11:42:24Z</time>
      </trkpt>
      <trkpt lat="49.87967" lon="2.30805">
        <ele>62.6</ele>
        <time>2023-06-03T11:42:25Z</time>
      </trkpt>
      <trkpt lat="49.87966" lon="2.30804">
        <ele>62.6</ele>
        <time>2023-06-03T11:42:26Z</time>
      </trkpt>
      <trkpt lat="49.87965" lon="2.30802">
        <ele>62.6</ele>
        <time>2023-06-03T11:42:27Z</time>
      </trkpt>
      <trkpt lat="49.87964" lon="2.30799">
        <ele>62.7</ele>
        <time>2023-06-03T11:42:28Z</time>
      </trkpt>
      <trkpt lat="49.87964" lon="2.30798">
        <ele>62.7</ele>
        <time>2023-06-03T11:42:30Z</time>
      </trkpt>
      <trkpt lat="49.87963" lon="2.30795">
        <ele>62.7</ele>
        <time>2023-06-03T11:42:31Z</time>
      </trkpt>
      <trkpt lat="49.87962" lon="2.30793">
        <ele>62.7</ele>
        <time>2023-06-03T11:42:32Z</time>
      </trkpt>
      <trkpt lat="49.87962" lon="2.30791">
        <ele>62.7</ele>
        <time>2023-06-03T11:42:33Z</time>
      </trkpt>
      <trkpt lat="49.87961" lon="2.30789">
        <ele>62.8</ele>
        <time>2023-06-03T11:42:34Z</time>
      </trkpt>
      <trkpt lat="49.87961" lon="2.30787">
        <ele>62.8</ele>
        <time>2023-06-03T11:42:35Z</time>
      </trkpt>
      <trkpt lat="49.8796" lon="2.30785">
        <ele>62.8</ele>
        <time>2023-06-03T11:42:36Z</time>
      </trkpt>
      <trkpt lat="49.8796" lon="2.30783">
        <ele>62.8</ele>
        <time>2023-06-03T11:42:37Z</time>
      </trkpt>
      <trkpt lat="49.87959" lon="2.30781">
        <ele>62.9</ele>
        <time>2023-06-03T11:42:39Z</time>
      </trkpt>
      <trkpt lat="49.87959" lon="2.30779">
        <ele>62.9</ele>
        <time>2023-06-03T11:42:40Z</time>
      </trkpt>
      <trkpt lat="49.87958" lon="2.30776">
        <ele>62.9</ele>
        <time>2023-06-03T11:42:41Z</time>
      </trkpt>
      <trkpt lat="49.87957" lon="2.30774">
        <ele>62.9</ele>
        <time>2023-06-03T11:42:42Z</time>
      </trkpt>
      <trkpt lat="49.87957" lon="2.30772">
        <ele>63</ele>
        <time>2023-06-03T11:42:43Z</time>
      </trkpt>
      <trkpt lat="49.87956" lon="2.30768">
        <ele>63</ele>
        <time>2023-06-03T11:42:44Z</time>
      </trkpt>
      <trkpt lat="49.87955" lon="2.30766">
        <ele>63</ele>
        <time>2023-06-03T11:42:46Z</time>
      </trkpt>
      <trkpt lat="49.87955" lon="2.30765">
        <ele>63</ele>
        <time>2023-06-03T11:42:47Z</time>
      </trkpt>
      <trkpt lat="49.87954" lon="2.30762">
        <ele>63.1</ele>
        <time>2023-06-03T11:42:48Z</time>
      </trkpt>
      <trkpt lat="49.87953" lon="2.30758">
        <ele>63.1</ele>
        <time>2023-06-03T11:42:50Z</time>
      </trkpt>
      <trkpt lat="49.87953" lon="2.30756">
        <ele>63.1</ele>
        <time>2023-06-03T11:42:51Z</time>
      </trkpt>
      <trkpt lat="49.87952" lon="2.30754">
        <ele>63.1</ele>
        <time>2023-06-03T11:42:53Z</time>
      </trkpt>
      <trkpt lat="49.87952" lon="2.30752">
        <ele>63.2</ele>
        <time>2023-06-03T11:42:54Z</time>
      </trkpt>
      <trkpt lat="49.87951" lon="2.30749">
        <ele>63.2</ele>
        <time>2023-06-03T11:42:55Z</time>
      </trkpt>
      <trkpt lat="49.87951" lon="2.30747">
        <ele>63.2</ele>
        <time>2023-06-03T11:42:56Z</time>
      </trkpt>
      <trkpt lat="49.8795" lon="2.30745">
        <ele>63.2</ele>
        <time>2023-06-03T11:42:58Z</time>
      </trkpt>
      <trkpt lat="49.8795" lon="2.30743">
        <ele>63.3</ele>
        <time>2023-06-03T11:42:59Z</time>
      </trkpt>
      <trkpt lat="49.87949" lon="2.3074">
        <ele>63.3</ele>
        <time>2023-06-03T11:43:00Z</time>
      </trkpt>
      <trkpt lat="49.87948" lon="2.30738">
        <ele>63.3</ele>
        <time>2023-06-03T11:43:01Z</time>
      </trkpt>
      <trkpt lat="49.87948" lon="2.30736">
        <ele>63.3</ele>
        <time>2023-06-03T11:43:02Z</time>
      </trkpt>
      <trkpt lat="49.87947" lon="2.30733">
        <ele>63.4</ele>
        <time>2023-06-03T11:43:03Z</time>
      </trkpt>
      <trkpt lat="49.87947" lon="2.30731">
        <ele>63.4</ele>
        <time>2023-06-03T11:43:04Z</time>
      </trkpt>
      <trkpt lat="49.87946" lon="2.30728">
        <ele>63.4</ele>
        <time>2023-06-03T11:43:06Z</time>
      </trkpt>
      <trkpt lat="49.87946" lon="2.30726">
        <ele>63.4</ele>
        <time>2023-06-03T11:43:07Z</time>
      </trkpt>
      <trkpt lat="49.87945" lon="2.30724">
        <ele>63.5</ele>
        <time>2023-06-03T11:43:08Z</time>
      </trkpt>
      <trkpt lat="49.87945" lon="2.30723">
        <ele>63.5</ele>
        <time>2023-06-03T11:43:09Z</time>
      </trkpt>
      <trkpt lat="49.87945" lon="2.30721">
        <ele>63.5</ele>
        <time>2023-06-03T11:43:10Z</time>
      </trkpt>
      <trkpt lat="49.87945" lon="2.3072">
        <ele>63.5</ele>
        <time>2023-06-03T11:43:11Z</time>
      </trkpt>
      <trkpt lat="49.87944" lon="2.30717">
        <ele>63.5</ele>
        <time>2023-06-03T11:43:13Z</time>
      </trkpt>
      <trkpt lat="49.87944" lon="2.30716">
        <ele>63.6</ele>
        <time>2023-06-03T11:43:14Z</time>
      </trkpt>
      <trkpt lat="49.87943" lon="2.30714">
        <ele>63.6</ele>
        <time>2023-06-03T11:43:15Z</time>
      </trkpt>
      <trkpt lat="49.87943" lon="2.30712">
        <ele>63.6</ele>
        <time>2023-06-03T11:43:16Z</time>
      </trkpt>
      <trkpt lat="49.87942" lon="2.3071">
        <ele>63.6</ele>
        <time>2023-06-03T11:43:17Z</time>
      </trkpt>
      <trkpt lat="49.87942" lon="2.30708">
        <ele>63.6</ele>
        <time>2023-06-03T11:43:18Z</time>
      </trkpt>
      <trkpt lat="49.87941" lon="2.30706">
        <ele>63.7</ele>
        <time>2023-06-03T11:43:19Z</time>
      </trkpt>
      <trkpt lat="49.87941" lon="2.30703">
        <ele>63.7</ele>
        <time>2023-06-03T11:43:21Z</time>
      </trkpt>
      <trkpt lat="49.8794" lon="2.30702">
        <ele>63.7</ele>
        <time>2023-06-03T11:43:22Z</time>
      </trkpt>
      <trkpt lat="49.8794" lon="2.30701">
        <ele>63.7</ele>
        <time>2023-06-03T11:43:23Z</time>
      </trkpt>
      <trkpt lat="49.8794" lon="2.30699">
        <ele>63.7</ele>
        <time>2023-06-03T11:43:25Z</time>
      </trkpt>
      <trkpt lat="49.8794" lon="2.30697">
        <ele>63.7</ele>
        <time>2023-06-03T11:43:26Z</time>
      </trkpt>
      <trkpt lat="49.87939" lon="2.30694">
        <ele>63.8</ele>
        <time>2023-06-03T11:43:27Z</time>
      </trkpt>
      <trkpt lat="49.87938" lon="2.30691">
        <ele>63.8</ele>
        <time>2023-06-03T11:43:29Z</time>
      </trkpt>
      <trkpt lat="49.87938" lon="2.30689">
        <ele>63.8</ele>
        <time>2023-06-03T11:43:30Z</time>
      </trkpt>
      <trkpt lat="49.87937" lon="2.30687">
        <ele>63.8</ele>
        <time>2023-06-03T11:43:31Z</time>
      </trkpt>
      <trkpt lat="49.87937" lon="2.30686">
        <ele>63.9</ele>
        <time>2023-06-03T11:43:32Z</time>
      </trkpt>
      <trkpt lat="49.87936" lon="2.30683">
        <ele>63.9</ele>
        <time>2023-06-03T11:43:33Z</time>
      </trkpt>
      <trkpt lat="49.87935" lon="2.30679">
        <ele>63.9</ele>
        <time>2023-06-03T11:43:34Z</time>
      </trkpt>
      <trkpt lat="49.87935" lon="2.30678">
        <ele>63.9</ele>
        <time>2023-06-03T11:43:35Z</time>
      </trkpt>
      <trkpt lat="49.87934" lon="2.30673">
        <ele>64</ele>
        <time>2023-06-03T11:43:37Z</time>
      </trkpt>
      <trkpt lat="49.87934" lon="2.30672">
        <ele>64</ele>
        <time>2023-06-03T11:43:38Z</time>
      </trkpt>
      <trkpt lat="49.87933" lon="2.3067">
        <ele>64</ele>
        <time>2023-06-03T11:43:39Z</time>
      </trkpt>
      <trkpt lat="49.87932" lon="2.30667">
        <ele>64</ele>
        <time>2023-06-03T11:43:41Z</time>
      </trkpt>
      <trkpt lat="49.87932" lon="2.30666">
        <ele>64</ele>
        <time>2023-06-03T11:43:42Z</time>
      </trkpt>
      <trkpt lat="49.87932" lon="2.30664">
        <ele>64.1</ele>
        <time>2023-06-03T11:43:43Z</time>
      </trkpt>
      <trkpt lat="49.87932" lon="2.30661">
        <ele>64.1</ele>
        <time>2023-06-03T11:43:45Z</time>
      </trkpt>
      <trkpt lat="49.87932" lon="2.3066">
        <ele>64.1</ele>
        <time>2023-06-03T11:43:46Z</time>
      </trkpt>
      <trkpt lat="49.87931" lon="2.30657">
        <ele>64.1</ele>
        <time>2023-06-03T11:43:47Z</time>
      </trkpt>
      <trkpt lat="49.8793" lon="2.30655">
        <ele>64.1</ele>
        <time>2023-06-03T11:43:49Z</time>
      </trkpt>
      <trkpt lat="49.8793" lon="2.30653">
        <ele>64.2</ele>
        <time>2023-06-03T11:43:50Z</time>
      </trkpt>
      <trkpt lat="49.87929" lon="2.30651">
        <ele>64.2</ele>
        <time>2023-06-03T11:43:51Z</time>
      </trkpt>
      <trkpt lat="49.87928" lon="2.30649">
        <ele>64.2</ele>
        <time>2023-06-03T11:43:52Z</time>
      </trkpt>
      <trkpt lat="49.87928" lon="2.30647">
        <ele>64.2</ele>
        <time>2023-06-03T11:43:54Z</time>
      </trkpt>
      <trkpt lat="49.87927" lon="2.30645">
        <ele>64.3</ele>
        <time>2023-06-03T11:43:55Z</time>
      </trkpt>
      <trkpt lat="49.87927" lon="2.30642">
        <ele>64.3</ele>
        <time>2023-06-03T11:43:56Z</time>
      </trkpt>
      <trkpt lat="49.87926" lon="2.3064">
        <ele>64.3</ele>
        <time>2023-06-03T11:43:57Z</time>
      </trkpt>
      <trkpt lat="49.87926" lon="2.30639">
        <ele>64.3</ele>
        <time>2023-06-03T11:43:58Z</time>
      </trkpt>
      <trkpt lat="49.87926" lon="2.30636">
        <ele>64.4</ele>
        <time>2023-06-03T11:43:59Z</time>
      </trkpt>
      <trkpt lat="49.87927" lon="2.30634">
        <ele>64.4</ele>
        <time>2023-06-03T11:44:01Z</time>
      </trkpt>
      <trkpt lat="49.87928" lon="2.30632">
        <ele>64.5</ele>
        <time>2023-06-03T11:44:02Z</time>
      </trkpt>
      <trkpt lat="49.87929" lon="2.30629">
        <ele>64.5</ele>
        <time>2023-06-03T11:44:03Z</time>
      </trkpt>
      <trkpt lat="49.8793" lon="2.30625">
        <ele>64.5</ele>
        <time>2023-06-03T11:44:04Z</time>
      </trkpt>
      <trkpt lat="49.8793" lon="2.30624">
        <ele>64.5</ele>
        <time>2023-06-03T11:44:05Z</time>
      </trkpt>
      <trkpt lat="49.8793" lon="2.30621">
        <ele>64.5</ele>
        <time>2023-06-03T11:44:06Z</time>
      </trkpt>
      <trkpt lat="49.8793" lon="2.3062">
        <ele>64.5</ele>
        <time>2023-06-03T11:44:07Z</time>
      </trkpt>
      <trkpt lat="49.87929" lon="2.30619">
        <ele>64.5</ele>
        <time>2023-06-03T11:44:09Z</time>
      </trkpt>
      <trkpt lat="49.87929" lon="2.30617">
        <ele>64.5</ele>
        <time>2023-06-03T11:44:10Z</time>
      </trkpt>
      <trkpt lat="49.87928" lon="2.30616">
        <ele>64.5</ele>
        <time>2023-06-03T11:44:11Z</time>
      </trkpt>
      <trkpt lat="49.87928" lon="2.30615">
        <ele>64.5</ele>
        <time>2023-06-03T11:44:12Z</time>
      </trkpt>
      <trkpt lat="49.87927" lon="2.30612">
        <ele>64.6</ele>
        <time>2023-06-03T11:44:13Z</time>
      </trkpt>
      <trkpt lat="49.87926" lon="2.30611">
        <ele>64.6</ele>
        <time>2023-06-03T11:44:14Z</time>
      </trkpt>
      <trkpt lat="49.87926" lon="2.3061">
        <ele>64.6</ele>
        <time>2023-06-03T11:44:15Z</time>
      </trkpt>
      <trkpt lat="49.87926" lon="2.30609">
        <ele>64.6</ele>
        <time>2023-06-03T11:44:16Z</time>
      </trkpt>
      <trkpt lat="49.87925" lon="2.30607">
        <ele>64.6</ele>
        <time>2023-06-03T11:44:17Z</time>
      </trkpt>
      <trkpt lat="49.87924" lon="2.30604">
        <ele>64.7</ele>
        <time>2023-06-03T11:44:19Z</time>
      </trkpt>
      <trkpt lat="49.87924" lon="2.30602">
        <ele>64.7</ele>
        <time>2023-06-03T11:44:20Z</time>
      </trkpt>
      <trkpt lat="49.87923" lon="2.306">
        <ele>64.7</ele>
        <time>2023-06-03T11:44:21Z</time>
      </trkpt>
      <trkpt lat="49.87923" lon="2.30599">
        <ele>64.7</ele>
        <time>2023-06-03T11:44:22Z</time>
      </trkpt>
      <trkpt lat="49.87923" lon="2.30598">
        <ele>64.7</ele>
        <time>2023-06-03T11:44:23Z</time>
      </trkpt>
      <trkpt lat="49.87922" lon="2.30597">
        <ele>64.7</ele>
        <time>2023-06-03T11:44:25Z</time>
      </trkpt>
      <trkpt lat="49.87922" lon="2.30595">
        <ele>64.8</ele>
        <time>2023-06-03T11:44:26Z</time>
      </trkpt>
      <trkpt lat="49.87921" lon="2.30593">
        <ele>64.8</ele>
        <time>2023-06-03T11:44:27Z</time>
      </trkpt>
      <trkpt lat="49.87921" lon="2.30591">
        <ele>64.8</ele>
        <time>2023-06-03T11:44:28Z</time>
      </trkpt>
      <trkpt lat="49.8792" lon="2.30589">
        <ele>64.8</ele>
        <time>2023-06-03T11:44:29Z</time>
      </trkpt>
      <trkpt lat="49.8792" lon="2.30587">
        <ele>64.9</ele>
        <time>2023-06-03T11:44:30Z</time>
      </trkpt>
      <trkpt lat="49.87919" lon="2.30585">
        <ele>64.9</ele>
        <time>2023-06-03T11:44:31Z</time>
      </trkpt>
      <trkpt lat="49.87918" lon="2.30583">
        <ele>64.9</ele>
        <time>2023-06-03T11:44:32Z</time>
      </trkpt>
      <trkpt lat="49.87918" lon="2.3058">
        <ele>64.9</ele>
        <time>2023-06-03T11:44:34Z</time>
      </trkpt>
      <trkpt lat="49.87918" lon="2.30579">
        <ele>64.9</ele>
        <time>2023-06-03T11:44:35Z</time>
      </trkpt>
      <trkpt lat="49.87918" lon="2.30578">
        <ele>65</ele>
        <time>2023-06-03T11:44:36Z</time>
      </trkpt>
      <trkpt lat="49.87918" lon="2.30575">
        <ele>65</ele>
        <time>2023-06-03T11:44:37Z</time>
      </trkpt>
      <trkpt lat="49.87917" lon="2.30574">
        <ele>65</ele>
        <time>2023-06-03T11:44:38Z</time>
      </trkpt>
      <trkpt lat="49.87917" lon="2.30572">
        <ele>65</ele>
        <time>2023-06-03T11:44:39Z</time>
      </trkpt>
      <trkpt lat="49.87917" lon="2.3057">
        <ele>65.1</ele>
        <time>2023-06-03T11:44:40Z</time>
      </trkpt>
      <trkpt lat="49.87916" lon="2.30567">
        <ele>65.1</ele>
        <time>2023-06-03T11:44:42Z</time>
      </trkpt>
      <trkpt lat="49.87915" lon="2.30563">
        <ele>65.2</ele>
        <time>2023-06-03T11:44:43Z</time>
      </trkpt>
      <trkpt lat="49.87914" lon="2.30559">
        <ele>65.2</ele>
        <time>2023-06-03T11:44:45Z</time>
      </trkpt>
      <trkpt lat="49.87914" lon="2.30557">
        <ele>65.2</ele>
        <time>2023-06-03T11:44:46Z</time>
      </trkpt>
      <trkpt lat="49.87914" lon="2.30554">
        <ele>65.3</ele>
        <time>2023-06-03T11:44:47Z</time>
      </trkpt>
      <trkpt lat="49.87914" lon="2.30553">
        <ele>65.3</ele>
        <time>2023-06-03T11:44:49Z</time>
      </trkpt>
      <trkpt lat="49.87914" lon="2.30552">
        <ele>65.3</ele>
        <time>2023-06-03T11:44:50Z</time>
      </trkpt>
      <trkpt lat="49.87914" lon="2.3055">
        <ele>65.3</ele>
        <time>2023-06-03T11:44:51Z</time>
      </trkpt>
      <trkpt lat="49.87913" lon="2.30548">
        <ele>65.4</ele>
        <time>2023-06-03T11:44:52Z</time>
      </trkpt>
      <trkpt lat="49.87912" lon="2.30546">
        <ele>65.4</ele>
        <time>2023-06-03T11:44:53Z</time>
      </trkpt>
      <trkpt lat="49.87912" lon="2.30544">
        <ele>65.4</ele>
        <time>2023-06-03T11:44:54Z</time>
      </trkpt>
      <trkpt lat="49.87911" lon="2.30542">
        <ele>65.5</ele>
        <time>2023-06-03T11:44:55Z</time>
      </trkpt>
      <trkpt lat="49.8791" lon="2.30539">
        <ele>65.5</ele>
        <time>2023-06-03T11:44:57Z</time>
      </trkpt>
      <trkpt lat="49.8791" lon="2.30536">
        <ele>65.5</ele>
        <time>2023-06-03T11:44:58Z</time>
      </trkpt>
      <trkpt lat="49.87909" lon="2.30534">
        <ele>65.6</ele>
        <time>2023-06-03T11:44:59Z</time>
      </trkpt>
      <trkpt lat="49.87909" lon="2.30529">
        <ele>65.6</ele>
        <time>2023-06-03T11:45:00Z</time>
      </trkpt>
      <trkpt lat="49.87909" lon="2.30527">
        <ele>65.6</ele>
        <time>2023-06-03T11:45:02Z</time>
      </trkpt>
      <trkpt lat="49.87908" lon="2.30525">
        <ele>65.7</ele>
        <time>2023-06-03T11:45:03Z</time>
      </trkpt>
      <trkpt lat="49.87908" lon="2.30523">
        <ele>65.7</ele>
        <time>2023-06-03T11:45:04Z</time>
      </trkpt>
      <trkpt lat="49.87909" lon="2.30521">
        <ele>65.8</ele>
        <time>2023-06-03T11:45:06Z</time>
      </trkpt>
      <trkpt lat="49.87911" lon="2.30519">
        <ele>65.8</ele>
        <time>2023-06-03T11:45:07Z</time>
      </trkpt>
      <trkpt lat="49.87913" lon="2.30519">
        <ele>65.8</ele>
        <time>2023-06-03T11:45:08Z</time>
      </trkpt>
      <trkpt lat="49.87914" lon="2.30519">
        <ele>65.8</ele>
        <time>2023-06-03T11:45:10Z</time>
      </trkpt>
      <trkpt lat="49.87915" lon="2.30519">
        <ele>65.8</ele>
        <time>2023-06-03T11:45:11Z</time>
      </trkpt>
      <trkpt lat="49.87916" lon="2.30518">
        <ele>65.8</ele>
        <time>2023-06-03T11:45:12Z</time>
      </trkpt>
      <trkpt lat="49.87917" lon="2.30518">
        <ele>65.8</ele>
        <time>2023-06-03T11:45:13Z</time>
      </trkpt>
      <trkpt lat="49.87919" lon="2.30517">
        <ele>65.8</ele>
        <time>2023-06-03T11:45:14Z</time>
      </trkpt>
      <trkpt lat="49.8792" lon="2.30516">
        <ele>65.8</ele>
        <time>2023-06-03T11:45:15Z</time>
      </trkpt>
      <trkpt lat="49.87922" lon="2.30513">
        <ele>65.8</ele>
        <time>2023-06-03T11:45:17Z</time>
      </trkpt>
      <trkpt lat="49.87923" lon="2.30512">
        <ele>65.8</ele>
        <time>2023-06-03T11:45:18Z</time>
      </trkpt>
      <trkpt lat="49.87925" lon="2.30508">
        <ele>65.8</ele>
        <time>2023-06-03T11:45:19Z</time>
      </trkpt>
      <trkpt lat="49.87926" lon="2.30507">
        <ele>65.8</ele>
        <time>2023-06-03T11:45:20Z</time>
      </trkpt>
      <trkpt lat="49.87929" lon="2.30503">
        <ele>65.8</ele>
        <time>2023-06-03T11:45:22Z</time>
      </trkpt>
      <trkpt lat="49.87931" lon="2.30501">
        <ele>65.7</ele>
        <time>2023-06-03T11:45:23Z</time>
      </trkpt>
      <trkpt lat="49.87932" lon="2.305">
        <ele>65.7</ele>
        <time>2023-06-03T11:45:24Z</time>
      </trkpt>
      <trkpt lat="49.87935" lon="2.30497">
        <ele>65.7</ele>
        <time>2023-06-03T11:45:26Z</time>
      </trkpt>
      <trkpt lat="49.87938" lon="2.30494">
        <ele>65.7</ele>
        <time>2023-06-03T11:45:27Z</time>
      </trkpt>
      <trkpt lat="49.87939" lon="2.30494">
        <ele>65.7</ele>
        <time>2023-06-03T11:45:28Z</time>
      </trkpt>
      <trkpt lat="49.8794" lon="2.30492">
        <ele>65.7</ele>
        <time>2023-06-03T11:45:29Z</time>
      </trkpt>
      <trkpt lat="49.87942" lon="2.30491">
        <ele>65.7</ele>
        <time>2023-06-03T11:45:31Z</time>
      </trkpt>
      <trkpt lat="49.87945" lon="2.30488">
        <ele>65.7</ele>
        <time>2023-06-03T11:45:32Z</time>
      </trkpt>
      <trkpt lat="49.87946" lon="2.30488">
        <ele>65.7</ele>
        <time>2023-06-03T11:45:33Z</time>
      </trkpt>
      <trkpt lat="49.87948" lon="2.30488">
        <ele>65.7</ele>
        <time>2023-06-03T11:45:35Z</time>
      </trkpt>
      <trkpt lat="49.87949" lon="2.30488">
        <ele>65.7</ele>
        <time>2023-06-03T11:45:36Z</time>
      </trkpt>
      <trkpt lat="49.8795" lon="2.30487">
        <ele>65.7</ele>
        <time>2023-06-03T11:45:37Z</time>
      </trkpt>
      <trkpt lat="49.87952" lon="2.30487">
        <ele>65.7</ele>
        <time>2023-06-03T11:45:38Z</time>
      </trkpt>
      <trkpt lat="49.87955" lon="2.30486">
        <ele>65.6</ele>
        <time>2023-06-03T11:45:39Z</time>
      </trkpt>
      <trkpt lat="49.87956" lon="2.30485">
        <ele>65.6</ele>
        <time>2023-06-03T11:45:40Z</time>
      </trkpt>
      <trkpt lat="49.87957" lon="2.30485">
        <ele>65.6</ele>
        <time>2023-06-03T11:45:41Z</time>
      </trkpt>
      <trkpt lat="49.8796" lon="2.30484">
        <ele>65.6</ele>
        <time>2023-06-03T11:45:43Z</time>
      </trkpt>
      <trkpt lat="49.87962" lon="2.30484">
        <ele>65.6</ele>
        <time>2023-06-03T11:45:44Z</time>
      </trkpt>
      <trkpt lat="49.87963" lon="2.30485">
        <ele>65.6</ele>
        <time>2023-06-03T11:45:45Z</time>
      </trkpt>
      <trkpt lat="49.87966" lon="2.30485">
        <ele>65.6</ele>
        <time>2023-06-03T11:45:47Z</time>
      </trkpt>
      <trkpt lat="49.87967" lon="2.30485">
        <ele>65.6</ele>
        <time>2023-06-03T11:45:48Z</time>
      </trkpt>
      <trkpt lat="49.87969" lon="2.30485">
        <ele>65.5</ele>
        <time>2023-06-03T11:45:49Z</time>
      </trkpt>
      <trkpt lat="49.8797" lon="2.30485">
        <ele>65.5</ele>
        <time>2023-06-03T11:45:51Z</time>
      </trkpt>
      <trkpt lat="49.87971" lon="2.30485">
        <ele>65.5</ele>
        <time>2023-06-03T11:45:52Z</time>
      </trkpt>
      <trkpt lat="49.87973" lon="2.30485">
        <ele>65.5</ele>
        <time>2023-06-03T11:45:53Z</time>
      </trkpt>
      <trkpt lat="49.87975" lon="2.30485">
        <ele>65.5</ele>
        <time>2023-06-03T11:45:55Z</time>
      </trkpt>
      <trkpt lat="49.87976" lon="2.30486">
        <ele>65.5</ele>
        <time>2023-06-03T11:45:56Z</time>
      </trkpt>
      <trkpt lat="49.87976" lon="2.30486">
        <ele>65.5</ele>
        <time>2023-06-03T11:45:57Z</time>
      </trkpt>
      <trkpt lat="49.87978" lon="2.30486">
        <ele>65.5</ele>
        <time>2023-06-03T11:45:58Z</time>
      </trkpt>
      <trkpt lat="49.87979" lon="2.30486">
        <ele>65.5</ele>
        <time>2023-06-03T11:45:59Z</time>
      </trkpt>
      <trkpt lat="49.8798" lon="2.30486">
        <ele>65.5</ele>
        <time>2023-06-03T11:46:00Z</time>
      </trkpt>
      <trkpt lat="49.87981" lon="2.30486">
        <ele>65.4</ele>
        <time>2023-06-03T11:46:01Z</time>
      </trkpt>
      <trkpt lat="49.87984" lon="2.30487">
        <ele>65.4</ele>
        <time>2023-06-03T11:46:03Z</time>
      </trkpt>
      <trkpt lat="49.87984" lon="2.30488">
        <ele>65.4</ele>
        <time>2023-06-03T11:46:04Z</time>
      </trkpt>
      <trkpt lat="49.87986" lon="2.30488">
        <ele>65.4</ele>
        <time>2023-06-03T11:46:05Z</time>
      </trkpt>
      <trkpt lat="49.87988" lon="2.30488">
        <ele>65.4</ele>
        <time>2023-06-03T11:46:07Z</time>
      </trkpt>
      <trkpt lat="49.8799" lon="2.30488">
        <ele>65.4</ele>
        <time>2023-06-03T11:46:08Z</time>
      </trkpt>
      <trkpt lat="49.87992" lon="2.30488">
        <ele>65.4</ele>
        <time>2023-06-03T11:46:09Z</time>
      </trkpt>
      <trkpt lat="49.87995" lon="2.30488">
        <ele>65.3</ele>
        <time>2023-06-03T11:46:11Z</time>
      </trkpt>
      <trkpt lat="49.87996" lon="2.30488">
        <ele>65.3</ele>
        <time>2023-06-03T11:46:12Z</time>
      </trkpt>
      <trkpt lat="49.87997" lon="2.30488">
        <ele>65.3</ele>
        <time>2023-06-03T11:46:13Z</time>
      </trkpt>
      <trkpt lat="49.87998" lon="2.30489">
        <ele>65.3</ele>
        <time>2023-06-03T11:46:15Z</time>
      </trkpt>
      <trkpt lat="49.87999" lon="2.30489">
        <ele>65.3</ele>
        <time>2023-06-03T11:46:16Z</time>
      </trkpt>
      <trkpt lat="49.88" lon="2.30489">
        <ele>65.3</ele>
        <time>2023-06-03T11:46:17Z</time>
      </trkpt>
      <trkpt lat="49.88001" lon="2.3049">
        <ele>65.3</ele>
        <time>2023-06-03T11:46:18Z</time>
      </trkpt>
      <trkpt lat="49.88002" lon="2.3049">
        <ele>65.3</ele>
        <time>2023-06-03T11:46:19Z</time>
      </trkpt>
      <trkpt lat="49.88003" lon="2.3049">
        <ele>65.3</ele>
        <time>2023-06-03T11:46:20Z</time>
      </trkpt>
      <trkpt lat="49.88005" lon="2.3049">
        <ele>65.3</ele>
        <time>2023-06-03T11:46:22Z</time>
      </trkpt>
      <trkpt lat="49.88007" lon="2.3049">
        <ele>65.2</ele>
        <time>2023-06-03T11:46:23Z</time>
      </trkpt>
      <trkpt lat="49.88008" lon="2.30491">
        <ele>65.2</ele>
        <time>2023-06-03T11:46:24Z</time>
      </trkpt>
      <trkpt lat="49.8801" lon="2.30491">
        <ele>65.2</ele>
        <time>2023-06-03T11:46:25Z</time>
      </trkpt>
      <trkpt lat="49.88011" lon="2.30491">
        <ele>65.2</ele>
        <time>2023-06-03T11:46:26Z</time>
      </trkpt>
      <trkpt lat="49.88012" lon="2.30491">
        <ele>65.2</ele>
        <time>2023-06-03T11:46:27Z</time>
      </trkpt>
      <trkpt lat="49.88013" lon="2.30491">
        <ele>65.2</ele>
        <time>2023-06-03T11:46:28Z</time>
      </trkpt>
      <trkpt lat="49.88015" lon="2.30491">
        <ele>65.2</ele>
        <time>2023-06-03T11:46:30Z</time>
      </trkpt>
      <trkpt lat="49.88017" lon="2.30491">
        <ele>65.2</ele>
        <time>2023-06-03T11:46:31Z</time>
      </trkpt>
      <trkpt lat="49.88018" lon="2.30491">
        <ele>65.2</ele>
        <time>2023-06-03T11:46:33Z</time>
      </trkpt>
      <trkpt lat="49.88021" lon="2.3049">
        <ele>65.1</ele>
        <time>2023-06-03T11:46:34Z</time>
      </trkpt>
      <trkpt lat="49.88022" lon="2.30489">
        <ele>65.1</ele>
        <time>2023-06-03T11:46:35Z</time>
      </trkpt>
      <trkpt lat="49.88024" lon="2.30488">
        <ele>65.1</ele>
        <time>2023-06-03T11:46:37Z</time>
      </trkpt>
      <trkpt lat="49.88025" lon="2.30488">
        <ele>65.1</ele>
        <time>2023-06-03T11:46:38Z</time>
      </trkpt>
      <trkpt lat="49.88025" lon="2.30487">
        <ele>65.1</ele>
        <time>2023-06-03T11:46:39Z</time>
      </trkpt>
      <trkpt lat="49.88027" lon="2.30487">
        <ele>65.1</ele>
        <time>2023-06-03T11:46:40Z</time>
      </trkpt>
      <trkpt lat="49.88028" lon="2.30486">
        <ele>65.1</ele>
        <time>2023-06-03T11:46:42Z</time>
      </trkpt>
      <trkpt lat="49.8803" lon="2.30486">
        <ele>65.1</ele>
        <time>2023-06-03T11:46:43Z</time>
      </trkpt>
      <trkpt lat="49.88031" lon="2.30486">
        <ele>65.1</ele>
        <time>2023-06-03T11:46:44Z</time>
      </trkpt>
      <trkpt lat="49.88033" lon="2.30485">
        <ele>65</ele>
        <time>2023-06-03T11:46:45Z</time>
      </trkpt>
      <trkpt lat="49.88035" lon="2.30485">
        <ele>65</ele>
        <time>2023-06-03T11:46:46Z</time>
      </trkpt>
      <trkpt lat="49.88038" lon="2.30484">
        <ele>65</ele>
        <time>2023-06-03T11:46:47Z</time>
      </trkpt>
      <trkpt lat="49.88039" lon="2.30483">
        <ele>65</ele>
        <time>2023-06-03T11:46:48Z</time>
      </trkpt>
      <trkpt lat="49.88041" lon="2.30483">
        <ele>65</ele>
        <time>2023-06-03T11:46:50Z</time>
      </trkpt>
      <trkpt lat="49.88042" lon="2.30482">
        <ele>64.9</ele>
        <time>2023-06-03T11:46:51Z</time>
      </trkpt>
      <trkpt lat="49.88044" lon="2.3048">
        <ele>64.9</ele>
        <time>2023-06-03T11:46:52Z</time>
      </trkpt>
      <trkpt lat="49.88046" lon="2.3048">
        <ele>64.9</ele>
        <time>2023-06-03T11:46:54Z</time>
      </trkpt>
      <trkpt lat="49.88047" lon="2.30479">
        <ele>64.9</ele>
        <time>2023-06-03T11:46:55Z</time>
      </trkpt>
      <trkpt lat="49.88048" lon="2.30478">
        <ele>64.9</ele>
        <time>2023-06-03T11:46:56Z</time>
      </trkpt>
      <trkpt lat="49.88052" lon="2.30476">
        <ele>64.8</ele>
        <time>2023-06-03T11:46:58Z</time>
      </trkpt>
      <trkpt lat="49.88052" lon="2.30476">
        <ele>64.8</ele>
        <time>2023-06-03T11:46:59Z</time>
      </trkpt>
      <trkpt lat="49.88055" lon="2.30475">
        <ele>64.8</ele>
        <time>2023-06-03T11:47:00Z</time>
      </trkpt>
      <trkpt lat="49.88058" lon="2.30474">
        <ele>64.8</ele>
        <time>2023-06-03T11:47:01Z</time>
      </trkpt>
      <trkpt lat="49.88059" lon="2.30474">
        <ele>64.8</ele>
        <time>2023-06-03T11:47:02Z</time>
      </trkpt>
      <trkpt lat="49.88061" lon="2.30473">
        <ele>64.7</ele>
        <time>2023-06-03T11:47:03Z</time>
      </trkpt>
      <trkpt lat="49.88063" lon="2.30473">
        <ele>64.7</ele>
        <time>2023-06-03T11:47:05Z</time>
      </trkpt>
      <trkpt lat="49.88066" lon="2.30472">
        <ele>64.7</ele>
        <time>2023-06-03T11:47:06Z</time>
      </trkpt>
      <trkpt lat="49.88067" lon="2.30471">
        <ele>64.7</ele>
        <time>2023-06-03T11:47:07Z</time>
      </trkpt>
      <trkpt lat="49.88069" lon="2.3047">
        <ele>64.7</ele>
        <time>2023-06-03T11:47:08Z</time>
      </trkpt>
      <trkpt lat="49.8807" lon="2.3047">
        <ele>64.7</ele>
        <time>2023-06-03T11:47:09Z</time>
      </trkpt>
      <trkpt lat="49.88072" lon="2.3047">
        <ele>64.6</ele>
        <time>2023-06-03T11:47:10Z</time>
      </trkpt>
      <trkpt lat="49.88073" lon="2.3047">
        <ele>64.6</ele>
        <time>2023-06-03T11:47:11Z</time>
      </trkpt>
      <trkpt lat="49.88074" lon="2.3047">
        <ele>64.6</ele>
        <time>2023-06-03T11:47:12Z</time>
      </trkpt>
      <trkpt lat="49.88077" lon="2.3047">
        <ele>64.6</ele>
        <time>2023-06-03T11:47:14Z</time>
      </trkpt>
      <trkpt lat="49.88079" lon="2.30471">
        <ele>64.6</ele>
        <time>2023-06-03T11:47:15Z</time>
      </trkpt>
      <trkpt lat="49.8808" lon="2.30471">
        <ele>64.6</ele>
        <time>2023-06-03T11:47:17Z</time>
      </trkpt>
      <trkpt lat="49.88081" lon="2.30471">
        <ele>64.6</ele>
        <time>2023-06-03T11:47:18Z</time>
      </trkpt>
      <trkpt lat="49.88083" lon="2.30472">
        <ele>64.5</ele>
        <time>2023-06-03T11:47:19Z</time>
      </trkpt>
      <trkpt lat="49.88084" lon="2.30472">
        <ele>64.5</ele>
        <time>2023-06-03T11:47:21Z</time>
      </trkpt>
      <trkpt lat="49.88086" lon="2.30472">
        <ele>64.5</ele>
        <time>2023-06-03T11:47:22Z</time>
      </trkpt>
      <trkpt lat="49.88086" lon="2.30473">
        <ele>64.5</ele>
        <time>2023-06-03T11:47:23Z</time>
      </trkpt>
      <trkpt lat="49.88087" lon="2.30473">
        <ele>64.5</ele>
        <time>2023-06-03T11:47:25Z</time>
      </trkpt>
      <trkpt lat="49.88088" lon="2.30473">
        <ele>64.5</ele>
        <time>2023-06-03T11:47:26Z</time>
      </trkpt>
      <trkpt lat="49.88089" lon="2.30473">
        <ele>64.5</ele>
        <time>2023-06-03T11:47:27Z</time>
      </trkpt>
      <trkpt lat="49.8809" lon="2.30474">
        <ele>64.5</ele>
        <time>2023-06-03T11:47:28Z</time>
      </trkpt>
      <trkpt lat="49.88092" lon="2.30474">
        <ele>64.5</ele>
        <time>2023-06-03T11:47:29Z</time>
      </trkpt>
      <trkpt lat="49.88094" lon="2.30475">
        <ele>64.4</ele>
        <time>2023-06-03T11:47:30Z</time>
      </trkpt>
      <trkpt lat="49.88095" lon="2.30475">
        <ele>64.4</ele>
        <time>2023-06-03T11:47:31Z</time>
      </trkpt>
      <trkpt lat="49.88095" lon="2.30475">
        <ele>64.4</ele>
        <time>2023-06-03T11:47:32Z</time>
      </trkpt>
      <trkpt lat="49.88097" lon="2.30475">
        <ele>64.4</ele>
        <time>2023-06-03T11:47:34Z</time>
      </trkpt>
      <trkpt lat="49.88098" lon="2.30475">
        <ele>64.4</ele>
        <time>2023-06-03T11:47:35Z</time>
      </trkpt>
      <trkpt lat="49.881" lon="2.30475">
        <ele>64.4</ele>
        <time>2023-06-03T11:47:36Z</time>
      </trkpt>
      <trkpt lat="49.88101" lon="2.30475">
        <ele>64.4</ele>
        <time>2023-06-03T11:47:37Z</time>
      </trkpt>
      <trkpt lat="49.88101" lon="2.30475">
        <ele>64.4</ele>
        <time>2023-06-03T11:47:38Z</time>
      </trkpt>
      <trkpt lat="49.88102" lon="2.30475">
        <ele>64.3</ele>
        <time>2023-06-03T11:47:39Z</time>
      </trkpt>
      <trkpt lat="49.88103" lon="2.30475">
        <ele>64.3</ele>
        <time>2023-06-03T11:47:41Z</time>
      </trkpt>
      <trkpt lat="49.88106" lon="2.30475">
        <ele>64.3</ele>
        <time>2023-06-03T11:47:42Z</time>
      </trkpt>
      <trkpt lat="49.88107" lon="2.30475">
        <ele>64.3</ele>
        <time>2023-06-03T11:47:44Z</time>
      </trkpt>
      <trkpt lat="49.88109" lon="2.30474">
        <ele>64.3</ele>
        <time>2023-06-03T11:47:45Z</time>
      </trkpt>
      <trkpt lat="49.88111" lon="2.30473">
        <ele>64.2</ele>
        <time>2023-06-03T11:47:46Z</time>
      </trkpt>
      <trkpt lat="49.88112" lon="2.30473">
        <ele>64.2</ele>
        <time>2023-06-03T11:47:48Z</time>
      </trkpt>
      <trkpt lat="49.88114" lon="2.30472">
        <ele>64.2</ele>
        <time>2023-06-03T11:47:49Z</time>
      </trkpt>
      <trkpt lat="49.88116" lon="2.30471">
        <ele>64.2</ele>
        <time>2023-06-03T11:47:50Z</time>
      </trkpt>
      <trkpt lat="49.88119" lon="2.30469">
        <ele>64.1</ele>
        <time>2023-06-03T11:47:51Z</time>
      </trkpt>
      <trkpt lat="49.8812" lon="2.30469">
        <ele>64.1</ele>
        <time>2023-06-03T11:47:52Z</time>
      </trkpt>
      <trkpt lat="49.88121" lon="2.30469">
        <ele>64.1</ele>
        <time>2023-06-03T11:47:53Z</time>
      </trkpt>
      <trkpt lat="49.88123" lon="2.30468">
        <ele>64.1</ele>
        <time>2023-06-03T11:47:54Z</time>
      </trkpt>
      <trkpt lat="49.88126" lon="2.30468">
        <ele>64.1</ele>
        <time>2023-06-03T11:47:56Z</time>
      </trkpt>
      <trkpt lat="49.88127" lon="2.30468">
        <ele>64</ele>
        <time>2023-06-03T11:47:57Z</time>
      </trkpt>
      <trkpt lat="49.88128" lon="2.30468">
        <ele>64</ele>
        <time>2023-06-03T11:47:58Z</time>
      </trkpt>
      <trkpt lat="49.8813" lon="2.30468">
        <ele>64</ele>
        <time>2023-06-03T11:47:59Z</time>
      </trkpt>
      <trkpt lat="49.88132" lon="2.30468">
        <ele>64</ele>
        <time>2023-06-03T11:48:00Z</time>
      </trkpt>
      <trkpt lat="49.88133" lon="2.30468">
        <ele>64</ele>
        <time>2023-06-03T11:48:01Z</time>
      </trkpt>
      <trkpt lat="49.88134" lon="2.30468">
        <ele>63.9</ele>
        <time>2023-06-03T11:48:02Z</time>
      </trkpt>
      <trkpt lat="49.88135" lon="2.30468">
        <ele>63.9</ele>
        <time>2023-06-03T11:48:04Z</time>
      </trkpt>
      <trkpt lat="49.88137" lon="2.30467">
        <ele>63.9</ele>
        <time>2023-06-03T11:48:05Z</time>
      </trkpt>
      <trkpt lat="49.88139" lon="2.30467">
        <ele>63.9</ele>
        <time>2023-06-03T11:48:06Z</time>
      </trkpt>
      <trkpt lat="49.8814" lon="2.30467">
        <ele>63.9</ele>
        <time>2023-06-03T11:48:07Z</time>
      </trkpt>
      <trkpt lat="49.88141" lon="2.30467">
        <ele>63.8</ele>
        <time>2023-06-03T11:48:08Z</time>
      </trkpt>
      <trkpt lat="49.88143" lon="2.30467">
        <ele>63.8</ele>
        <time>2023-06-03T11:48:09Z</time>
      </trkpt>
      <trkpt lat="49.88145" lon="2.30467">
        <ele>63.8</ele>
        <time>2023-06-03T11:48:10Z</time>
      </trkpt>
      <trkpt lat="49.88146" lon="2.30467">
        <ele>63.8</ele>
        <time>2023-06-03T11:48:12Z</time>
      </trkpt>
      <trkpt lat="49.88147" lon="2.30467">
        <ele>63.8</ele>
        <time>2023-06-03T11:48:13Z</time>
      </trkpt>
      <trkpt lat="49.88149" lon="2.30467">
        <ele>63.7</ele>
        <time>2023-06-03T11:48:14Z</time>
      </trkpt>
      <trkpt lat="49.8815" lon="2.30467">
        <ele>63.7</ele>
        <time>2023-06-03T11:48:16Z</time>
      </trkpt>
      <trkpt lat="49.88151" lon="2.30466">
        <ele>63.7</ele>
        <time>2023-06-03T11:48:17Z</time>
      </trkpt>
      <trkpt lat="49.88153" lon="2.30465">
        <ele>63.7</ele>
        <time>2023-06-03T11:48:18Z</time>
      </trkpt>
      <trkpt lat="49.88154" lon="2.30465">
        <ele>63.7</ele>
        <time>2023-06-03T11:48:20Z</time>
      </trkpt>
      <trkpt lat="49.88155" lon="2.30464">
        <ele>63.6</ele>
        <time>2023-06-03T11:48:21Z</time>
      </trkpt>
      <trkpt lat="49.88156" lon="2.30464">
        <ele>63.6</ele>
        <time>2023-06-03T11:48:22Z</time>
      </trkpt>
      <trkpt lat="49.88158" lon="2.30463">
        <ele>63.6</ele>
        <time>2023-06-03T11:48:23Z</time>
      </trkpt>
      <trkpt lat="49.8816" lon="2.30462">
        <ele>63.6</ele>
        <time>2023-06-03T11:48:24Z</time>
      </trkpt>
      <trkpt lat="49.88161" lon="2.30462">
        <ele>63.6</ele>
        <time>2023-06-03T11:48:25Z</time>
      </trkpt>
      <trkpt lat="49.88162" lon="2.30461">
        <ele>63.5</ele>
        <time>2023-06-03T11:48:26Z</time>
      </trkpt>
      <trkpt lat="49.88164" lon="2.30461">
        <ele>63.5</ele>
        <time>2023-06-03T11:48:27Z</time>
      </trkpt>
      <trkpt lat="49.88167" lon="2.3046">
        <ele>63.5</ele>
        <time>2023-06-03T11:48:29Z</time>
      </trkpt>
      <trkpt lat="49.88168" lon="2.3046">
        <ele>63.5</ele>
        <time>2023-06-03T11:48:30Z</time>
      </trkpt>
      <trkpt lat="49.88169" lon="2.3046">
        <ele>63.4</ele>
        <time>2023-06-03T11:48:31Z</time>
      </trkpt>
      <trkpt lat="49.88171" lon="2.30459">
        <ele>63.4</ele>
        <time>2023-06-03T11:48:32Z</time>
      </trkpt>
      <trkpt lat="49.88173" lon="2.30459">
        <ele>63.4</ele>
        <time>2023-06-03T11:48:34Z</time>
      </trkpt>
      <trkpt lat="49.88174" lon="2.30458">
        <ele>63.3</ele>
        <time>2023-06-03T11:48:35Z</time>
      </trkpt>
      <trkpt lat="49.88176" lon="2.30458">
        <ele>63.3</ele>
        <time>2023-06-03T11:48:36Z</time>
      </trkpt>
      <trkpt lat="49.88178" lon="2.30457">
        <ele>63.3</ele>
        <time>2023-06-03T11:48:37Z</time>
      </trkpt>
      <trkpt lat="49.88179" lon="2.30455">
        <ele>63.2</ele>
        <time>2023-06-03T11:48:39Z</time>
      </trkpt>
      <trkpt lat="49.8818" lon="2.30455">
        <ele>63.2</ele>
        <time>2023-06-03T11:48:40Z</time>
      </trkpt>
      <trkpt lat="49.88181" lon="2.30453">
        <ele>63.2</ele>
        <time>2023-06-03T11:48:42Z</time>
      </trkpt>
      <trkpt lat="49.88184" lon="2.30452">
        <ele>63.1</ele>
        <time>2023-06-03T11:48:43Z</time>
      </trkpt>
      <trkpt lat="49.88184" lon="2.30451">
        <ele>63.1</ele>
        <time>2023-06-03T11:48:44Z</time>
      </trkpt>
      <trkpt lat="49.88185" lon="2.30451">
        <ele>63.1</ele>
        <time>2023-06-03T11:48:46Z</time>
      </trkpt>
      <trkpt lat="49.88186" lon="2.3045">
        <ele>63.1</ele>
        <time>2023-06-03T11:48:47Z</time>
      </trkpt>
      <trkpt lat="49.88187" lon="2.30449">
        <ele>63.1</ele>
        <time>2023-06-03T11:48:48Z</time>
      </trkpt>
      <trkpt lat="49.88188" lon="2.30449">
        <ele>63</ele>
        <time>2023-06-03T11:48:49Z</time>
      </trkpt>
      <trkpt lat="49.8819" lon="2.30449">
        <ele>63</ele>
        <time>2023-06-03T11:48:51Z</time>
      </trkpt>
      <trkpt lat="49.88191" lon="2.30449">
        <ele>63</ele>
        <time>2023-06-03T11:48:52Z</time>
      </trkpt>
      <trkpt lat="49.88193" lon="2.30449">
        <ele>62.9</ele>
        <time>2023-06-03T11:48:53Z</time>
      </trkpt>
      <trkpt lat="49.88194" lon="2.30449">
        <ele>62.9</ele>
        <time>2023-06-03T11:48:54Z</time>
      </trkpt>
      <trkpt lat="49.88197" lon="2.30449">
        <ele>62.8</ele>
        <time>2023-06-03T11:48:55Z</time>
      </trkpt>
      <trkpt lat="49.88198" lon="2.30449">
        <ele>62.8</ele>
        <time>2023-06-03T11:48:56Z</time>
      </trkpt>
      <trkpt lat="49.882" lon="2.30449">
        <ele>62.8</ele>
        <time>2023-06-03T11:48:57Z</time>
      </trkpt>
      <trkpt lat="49.88203" lon="2.30449">
        <ele>62.7</ele>
        <time>2023-06-03T11:48:59Z</time>
      </trkpt>
      <trkpt lat="49.88206" lon="2.30449">
        <ele>62.7</ele>
        <time>2023-06-03T11:49:00Z</time>
      </trkpt>
      <trkpt lat="49.88206" lon="2.30449">
        <ele>62.6</ele>
        <time>2023-06-03T11:49:01Z</time>
      </trkpt>
      <trkpt lat="49.88209" lon="2.30449">
        <ele>62.6</ele>
        <time>2023-06-03T11:49:03Z</time>
      </trkpt>
      <trkpt lat="49.88211" lon="2.3045">
        <ele>62.6</ele>
        <time>2023-06-03T11:49:04Z</time>
      </trkpt>
      <trkpt lat="49.88212" lon="2.3045">
        <ele>62.5</ele>
        <time>2023-06-03T11:49:05Z</time>
      </trkpt>
      <trkpt lat="49.88214" lon="2.3045">
        <ele>62.5</ele>
        <time>2023-06-03T11:49:07Z</time>
      </trkpt>
      <trkpt lat="49.88216" lon="2.3045">
        <ele>62.4</ele>
        <time>2023-06-03T11:49:08Z</time>
      </trkpt>
      <trkpt lat="49.88218" lon="2.30451">
        <ele>62.4</ele>
        <time>2023-06-03T11:49:09Z</time>
      </trkpt>
      <trkpt lat="49.88219" lon="2.30451">
        <ele>62.4</ele>
        <time>2023-06-03T11:49:10Z</time>
      </trkpt>
      <trkpt lat="49.8822" lon="2.30451">
        <ele>62.4</ele>
        <time>2023-06-03T11:49:11Z</time>
      </trkpt>
      <trkpt lat="49.88222" lon="2.30451">
        <ele>62.3</ele>
        <time>2023-06-03T11:49:12Z</time>
      </trkpt>
      <trkpt lat="49.88224" lon="2.30451">
        <ele>62.3</ele>
        <time>2023-06-03T11:49:14Z</time>
      </trkpt>
      <trkpt lat="49.88225" lon="2.30451">
        <ele>62.2</ele>
        <time>2023-06-03T11:49:15Z</time>
      </trkpt>
      <trkpt lat="49.88227" lon="2.30451">
        <ele>62.2</ele>
        <time>2023-06-03T11:49:16Z</time>
      </trkpt>
      <trkpt lat="49.88229" lon="2.3045">
        <ele>62.2</ele>
        <time>2023-06-03T11:49:18Z</time>
      </trkpt>
      <trkpt lat="49.8823" lon="2.3045">
        <ele>62.1</ele>
        <time>2023-06-03T11:49:19Z</time>
      </trkpt>
      <trkpt lat="49.88232" lon="2.3045">
        <ele>62.1</ele>
        <time>2023-06-03T11:49:20Z</time>
      </trkpt>
      <trkpt lat="49.88235" lon="2.30449">
        <ele>62</ele>
        <time>2023-06-03T11:49:22Z</time>
      </trkpt>
      <trkpt lat="49.88236" lon="2.30448">
        <ele>62</ele>
        <time>2023-06-03T11:49:23Z</time>
      </trkpt>
      <trkpt lat="49.88238" lon="2.30446">
        <ele>62</ele>
        <time>2023-06-03T11:49:25Z</time>
      </trkpt>
      <trkpt lat="49.88239" lon="2.30445">
        <ele>61.9</ele>
        <time>2023-06-03T11:49:26Z</time>
      </trkpt>
      <trkpt lat="49.88241" lon="2.30443">
        <ele>61.9</ele>
        <time>2023-06-03T11:49:27Z</time>
      </trkpt>
      <trkpt lat="49.88242" lon="2.30442">
        <ele>61.8</ele>
        <time>2023-06-03T11:49:29Z</time>
      </trkpt>
      <trkpt lat="49.88243" lon="2.30441">
        <ele>61.8</ele>
        <time>2023-06-03T11:49:30Z</time>
      </trkpt>
      <trkpt lat="49.88244" lon="2.3044">
        <ele>61.8</ele>
        <time>2023-06-03T11:49:31Z</time>
      </trkpt>
      <trkpt lat="49.88245" lon="2.30439">
        <ele>61.8</ele>
        <time>2023-06-03T11:49:32Z</time>
      </trkpt>
      <trkpt lat="49.88246" lon="2.30438">
        <ele>61.7</ele>
        <time>2023-06-03T11:49:33Z</time>
      </trkpt>
      <trkpt lat="49.88247" lon="2.30437">
        <ele>61.7</ele>
        <time>2023-06-03T11:49:34Z</time>
      </trkpt>
      <trkpt lat="49.88248" lon="2.30437">
        <ele>61.7</ele>
        <time>2023-06-03T11:49:35Z</time>
      </trkpt>
      <trkpt lat="49.8825" lon="2.30436">
        <ele>61.7</ele>
        <time>2023-06-03T11:49:37Z</time>
      </trkpt>
      <trkpt lat="49.88251" lon="2.30435">
        <ele>61.6</ele>
        <time>2023-06-03T11:49:38Z</time>
      </trkpt>
      <trkpt lat="49.88252" lon="2.30435">
        <ele>61.6</ele>
        <time>2023-06-03T11:49:39Z</time>
      </trkpt>
      <trkpt lat="49.88255" lon="2.30434">
        <ele>61.5</ele>
        <time>2023-06-03T11:49:41Z</time>
      </trkpt>
      <trkpt lat="49.88257" lon="2.30434">
        <ele>61.5</ele>
        <time>2023-06-03T11:49:42Z</time>
      </trkpt>
      <trkpt lat="49.88257" lon="2.30433">
        <ele>61.5</ele>
        <time>2023-06-03T11:49:43Z</time>
      </trkpt>
      <trkpt lat="49.88259" lon="2.30433">
        <ele>61.4</ele>
        <time>2023-06-03T11:49:45Z</time>
      </trkpt>
      <trkpt lat="49.8826" lon="2.30432">
        <ele>61.4</ele>
        <time>2023-06-03T11:49:46Z</time>
      </trkpt>
      <trkpt lat="49.8826" lon="2.30432">
        <ele>61.4</ele>
        <time>2023-06-03T11:49:48Z</time>
      </trkpt>
      <trkpt lat="49.88261" lon="2.30431">
        <ele>61.4</ele>
        <time>2023-06-03T11:49:49Z</time>
      </trkpt>
      <trkpt lat="49.88262" lon="2.30431">
        <ele>61.4</ele>
        <time>2023-06-03T11:49:50Z</time>
      </trkpt>
      <trkpt lat="49.88264" lon="2.30431">
        <ele>61.3</ele>
        <time>2023-06-03T11:49:51Z</time>
      </trkpt>
      <trkpt lat="49.88266" lon="2.3043">
        <ele>61.3</ele>
        <time>2023-06-03T11:49:52Z</time>
      </trkpt>
      <trkpt lat="49.88267" lon="2.3043">
        <ele>61.2</ele>
        <time>2023-06-03T11:49:53Z</time>
      </trkpt>
      <trkpt lat="49.88268" lon="2.3043">
        <ele>61.2</ele>
        <time>2023-06-03T11:49:54Z</time>
      </trkpt>
      <trkpt lat="49.8827" lon="2.30429">
        <ele>61.2</ele>
        <time>2023-06-03T11:49:56Z</time>
      </trkpt>
      <trkpt lat="49.88271" lon="2.30429">
        <ele>61.1</ele>
        <time>2023-06-03T11:49:57Z</time>
      </trkpt>
      <trkpt lat="49.88273" lon="2.30428">
        <ele>61.1</ele>
        <time>2023-06-03T11:49:58Z</time>
      </trkpt>
      <trkpt lat="49.88274" lon="2.30428">
        <ele>61.1</ele>
        <time>2023-06-03T11:49:59Z</time>
      </trkpt>
      <trkpt lat="49.88275" lon="2.30428">
        <ele>61</ele>
        <time>2023-06-03T11:50:00Z</time>
      </trkpt>
      <trkpt lat="49.88277" lon="2.30427">
        <ele>61</ele>
        <time>2023-06-03T11:50:01Z</time>
      </trkpt>
      <trkpt lat="49.88279" lon="2.30426">
        <ele>60.9</ele>
        <time>2023-06-03T11:50:03Z</time>
      </trkpt>
      <trkpt lat="49.88281" lon="2.30425">
        <ele>60.9</ele>
        <time>2023-06-03T11:50:04Z</time>
      </trkpt>
      <trkpt lat="49.88282" lon="2.30425">
        <ele>60.8</ele>
        <time>2023-06-03T11:50:05Z</time>
      </trkpt>
      <trkpt lat="49.88285" lon="2.30424">
        <ele>60.8</ele>
        <time>2023-06-03T11:50:07Z</time>
      </trkpt>
      <trkpt lat="49.88286" lon="2.30424">
        <ele>60.7</ele>
        <time>2023-06-03T11:50:08Z</time>
      </trkpt>
      <trkpt lat="49.88287" lon="2.30423">
        <ele>60.7</ele>
        <time>2023-06-03T11:50:09Z</time>
      </trkpt>
      <trkpt lat="49.88289" lon="2.30423">
        <ele>60.6</ele>
        <time>2023-06-03T11:50:11Z</time>
      </trkpt>
      <trkpt lat="49.8829" lon="2.30423">
        <ele>60.6</ele>
        <time>2023-06-03T11:50:12Z</time>
      </trkpt>
      <trkpt lat="49.88291" lon="2.30422">
        <ele>60.6</ele>
        <time>2023-06-03T11:50:13Z</time>
      </trkpt>
      <trkpt lat="49.88293" lon="2.30422">
        <ele>60.5</ele>
        <time>2023-06-03T11:50:14Z</time>
      </trkpt>
      <trkpt lat="49.88294" lon="2.30421">
        <ele>60.5</ele>
        <time>2023-06-03T11:50:15Z</time>
      </trkpt>
      <trkpt lat="49.88296" lon="2.30421">
        <ele>60.5</ele>
        <time>2023-06-03T11:50:16Z</time>
      </trkpt>
      <trkpt lat="49.88297" lon="2.30421">
        <ele>60.4</ele>
        <time>2023-06-03T11:50:17Z</time>
      </trkpt>
      <trkpt lat="49.88299" lon="2.3042">
        <ele>60.4</ele>
        <time>2023-06-03T11:50:19Z</time>
      </trkpt>
      <trkpt lat="49.883" lon="2.30419">
        <ele>60.4</ele>
        <time>2023-06-03T11:50:20Z</time>
      </trkpt>
      <trkpt lat="49.88302" lon="2.30419">
        <ele>60.3</ele>
        <time>2023-06-03T11:50:21Z</time>
      </trkpt>
      <trkpt lat="49.88304" lon="2.30419">
        <ele>60.3</ele>
        <time>2023-06-03T11:50:23Z</time>
      </trkpt>
      <trkpt lat="49.88305" lon="2.30419">
        <ele>60.2</ele>
        <time>2023-06-03T11:50:24Z</time>
      </trkpt>
      <trkpt lat="49.88308" lon="2.30419">
        <ele>60.2</ele>
        <time>2023-06-03T11:50:25Z</time>
      </trkpt>
      <trkpt lat="49.88309" lon="2.30419">
        <ele>60.1</ele>
        <time>2023-06-03T11:50:26Z</time>
      </trkpt>
      <trkpt lat="49.88312" lon="2.30418">
        <ele>60.1</ele>
        <time>2023-06-03T11:50:28Z</time>
      </trkpt>
      <trkpt lat="49.88313" lon="2.30418">
        <ele>60</ele>
        <time>2023-06-03T11:50:29Z</time>
      </trkpt>
      <trkpt lat="49.88316" lon="2.30419">
        <ele>60</ele>
        <time>2023-06-03T11:50:31Z</time>
      </trkpt>
      <trkpt lat="49.88317" lon="2.30419">
        <ele>59.9</ele>
        <time>2023-06-03T11:50:32Z</time>
      </trkpt>
      <trkpt lat="49.88319" lon="2.30419">
        <ele>59.9</ele>
        <time>2023-06-03T11:50:33Z</time>
      </trkpt>
      <trkpt lat="49.8832" lon="2.30419">
        <ele>59.9</ele>
        <time>2023-06-03T11:50:34Z</time>
      </trkpt>
      <trkpt lat="49.88321" lon="2.30419">
        <ele>59.8</ele>
        <time>2023-06-03T11:50:35Z</time>
      </trkpt>
      <trkpt lat="49.88323" lon="2.30418">
        <ele>59.8</ele>
        <time>2023-06-03T11:50:36Z</time>
      </trkpt>
      <trkpt lat="49.88324" lon="2.30418">
        <ele>59.8</ele>
        <time>2023-06-03T11:50:37Z</time>
      </trkpt>
      <trkpt lat="49.88325" lon="2.30418">
        <ele>59.7</ele>
        <time>2023-06-03T11:50:38Z</time>
      </trkpt>
      <trkpt lat="49.88327" lon="2.30417">
        <ele>59.7</ele>
        <time>2023-06-03T11:50:40Z</time>
      </trkpt>
      <trkpt lat="49.88328" lon="2.30417">
        <ele>59.6</ele>
        <time>2023-06-03T11:50:41Z</time>
      </trkpt>
      <trkpt lat="49.88329" lon="2.30417">
        <ele>59.6</ele>
        <time>2023-06-03T11:50:42Z</time>
      </trkpt>
      <trkpt lat="49.88332" lon="2.30417">
        <ele>59.5</ele>
        <time>2023-06-03T11:50:44Z</time>
      </trkpt>
      <trkpt lat="49.88334" lon="2.30417">
        <ele>59.5</ele>
        <time>2023-06-03T11:50:45Z</time>
      </trkpt>
      <trkpt lat="49.88335" lon="2.30417">
        <ele>59.4</ele>
        <time>2023-06-03T11:50:46Z</time>
      </trkpt>
      <trkpt lat="49.88336" lon="2.30417">
        <ele>59.4</ele>
        <time>2023-06-03T11:50:47Z</time>
      </trkpt>
      <trkpt lat="49.88337" lon="2.30417">
        <ele>59.4</ele>
        <time>2023-06-03T11:50:49Z</time>
      </trkpt>
      <trkpt lat="49.88338" lon="2.30417">
        <ele>59.3</ele>
        <time>2023-06-03T11:50:50Z</time>
      </trkpt>
      <trkpt lat="49.8834" lon="2.30416">
        <ele>59.3</ele>
        <time>2023-06-03T11:50:51Z</time>
      </trkpt>
      <trkpt lat="49.88341" lon="2.30416">
        <ele>59.2</ele>
        <time>2023-06-03T11:50:53Z</time>
      </trkpt>
      <trkpt lat="49.88342" lon="2.30416">
        <ele>59.2</ele>
        <time>2023-06-03T11:50:54Z</time>
      </trkpt>
      <trkpt lat="49.88344" lon="2.30416">
        <ele>59.2</ele>
        <time>2023-06-03T11:50:55Z</time>
      </trkpt>
      <trkpt lat="49.88345" lon="2.30416">
        <ele>59.1</ele>
        <time>2023-06-03T11:50:56Z</time>
      </trkpt>
      <trkpt lat="49.88346" lon="2.30415">
        <ele>59.1</ele>
        <time>2023-06-03T11:50:57Z</time>
      </trkpt>
      <trkpt lat="49.88347" lon="2.30415">
        <ele>59.1</ele>
        <time>2023-06-03T11:50:58Z</time>
      </trkpt>
      <trkpt lat="49.88348" lon="2.30415">
        <ele>59</ele>
        <time>2023-06-03T11:50:59Z</time>
      </trkpt>
      <trkpt lat="49.8835" lon="2.30415">
        <ele>59</ele>
        <time>2023-06-03T11:51:01Z</time>
      </trkpt>
      <trkpt lat="49.88351" lon="2.30415">
        <ele>58.9</ele>
        <time>2023-06-03T11:51:02Z</time>
      </trkpt>
      <trkpt lat="49.88352" lon="2.30415">
        <ele>58.9</ele>
        <time>2023-06-03T11:51:03Z</time>
      </trkpt>
      <trkpt lat="49.88353" lon="2.30416">
        <ele>58.9</ele>
        <time>2023-06-03T11:51:04Z</time>
      </trkpt>
      <trkpt lat="49.88355" lon="2.30416">
        <ele>58.8</ele>
        <time>2023-06-03T11:51:05Z</time>
      </trkpt>
      <trkpt lat="49.88356" lon="2.30416">
        <ele>58.8</ele>
        <time>2023-06-03T11:51:06Z</time>
      </trkpt>
      <trkpt lat="49.88359" lon="2.30416">
        <ele>58.7</ele>
        <time>2023-06-03T11:51:08Z</time>
      </trkpt>
      <trkpt lat="49.8836" lon="2.30417">
        <ele>58.6</ele>
        <time>2023-06-03T11:51:09Z</time>
      </trkpt>
      <trkpt lat="49.88363" lon="2.30417">
        <ele>58.5</ele>
        <time>2023-06-03T11:51:11Z</time>
      </trkpt>
      <trkpt lat="49.88365" lon="2.30417">
        <ele>58.5</ele>
        <time>2023-06-03T11:51:12Z</time>
      </trkpt>
      <trkpt lat="49.88366" lon="2.30417">
        <ele>58.4</ele>
        <time>2023-06-03T11:51:14Z</time>
      </trkpt>
      <trkpt lat="49.88367" lon="2.30417">
        <ele>58.4</ele>
        <time>2023-06-03T11:51:15Z</time>
      </trkpt>
      <trkpt lat="49.88368" lon="2.30416">
        <ele>58.4</ele>
        <time>2023-06-03T11:51:16Z</time>
      </trkpt>
      <trkpt lat="49.8837" lon="2.30416">
        <ele>58.3</ele>
        <time>2023-06-03T11:51:18Z</time>
      </trkpt>
      <trkpt lat="49.88371" lon="2.30416">
        <ele>58.3</ele>
        <time>2023-06-03T11:51:19Z</time>
      </trkpt>
      <trkpt lat="49.88373" lon="2.30415">
        <ele>58.2</ele>
        <time>2023-06-03T11:51:20Z</time>
      </trkpt>
      <trkpt lat="49.88375" lon="2.30415">
        <ele>58.1</ele>
        <time>2023-06-03T11:51:21Z</time>
      </trkpt>
      <trkpt lat="49.88377" lon="2.30414">
        <ele>58.1</ele>
        <time>2023-06-03T11:51:23Z</time>
      </trkpt>
      <trkpt lat="49.88379" lon="2.30413">
        <ele>58</ele>
        <time>2023-06-03T11:51:24Z</time>
      </trkpt>
      <trkpt lat="49.8838" lon="2.30412">
        <ele>58</ele>
        <time>2023-06-03T11:51:25Z</time>
      </trkpt>
      <trkpt lat="49.88381" lon="2.30412">
        <ele>57.9</ele>
        <time>2023-06-03T11:51:26Z</time>
      </trkpt>
      <trkpt lat="49.88382" lon="2.30411">
        <ele>57.9</ele>
        <time>2023-06-03T11:51:27Z</time>
      </trkpt>
      <trkpt lat="49.88384" lon="2.3041">
        <ele>57.8</ele>
        <time>2023-06-03T11:51:28Z</time>
      </trkpt>
      <trkpt lat="49.88386" lon="2.3041">
        <ele>57.8</ele>
        <time>2023-06-03T11:51:29Z</time>
      </trkpt>
      <trkpt lat="49.88388" lon="2.30409">
        <ele>57.7</ele>
        <time>2023-06-03T11:51:31Z</time>
      </trkpt>
      <trkpt lat="49.8839" lon="2.30408">
        <ele>57.6</ele>
        <time>2023-06-03T11:51:32Z</time>
      </trkpt>
      <trkpt lat="49.88391" lon="2.30408">
        <ele>57.6</ele>
        <time>2023-06-03T11:51:33Z</time>
      </trkpt>
      <trkpt lat="49.88392" lon="2.30408">
        <ele>57.5</ele>
        <time>2023-06-03T11:51:34Z</time>
      </trkpt>
      <trkpt lat="49.88396" lon="2.30408">
        <ele>57.4</ele>
        <time>2023-06-03T11:51:36Z</time>
      </trkpt>
      <trkpt lat="49.88398" lon="2.30408">
        <ele>57.4</ele>
        <time>2023-06-03T11:51:37Z</time>
      </trkpt>
      <trkpt lat="49.88399" lon="2.30408">
        <ele>57.3</ele>
        <time>2023-06-03T11:51:38Z</time>
      </trkpt>
      <trkpt lat="49.88403" lon="2.30407">
        <ele>57.2</ele>
        <time>2023-06-03T11:51:40Z</time>
      </trkpt>
      <trkpt lat="49.88404" lon="2.30407">
        <ele>57.1</ele>
        <time>2023-06-03T11:51:41Z</time>
      </trkpt>
      <trkpt lat="49.88406" lon="2.30408">
        <ele>57.1</ele>
        <time>2023-06-03T11:51:42Z</time>
      </trkpt>
      <trkpt lat="49.88408" lon="2.30407">
        <ele>57</ele>
        <time>2023-06-03T11:51:44Z</time>
      </trkpt>
      <trkpt lat="49.8841" lon="2.30408">
        <ele>56.9</ele>
        <time>2023-06-03T11:51:45Z</time>
      </trkpt>
      <trkpt lat="49.88411" lon="2.30408">
        <ele>56.9</ele>
        <time>2023-06-03T11:51:46Z</time>
      </trkpt>
      <trkpt lat="49.88412" lon="2.30409">
        <ele>56.9</ele>
        <time>2023-06-03T11:51:47Z</time>
      </trkpt>
      <trkpt lat="49.88413" lon="2.3041">
        <ele>56.8</ele>
        <time>2023-06-03T11:51:48Z</time>
      </trkpt>
      <trkpt lat="49.88413" lon="2.30411">
        <ele>56.8</ele>
        <time>2023-06-03T11:51:49Z</time>
      </trkpt>
      <trkpt lat="49.88415" lon="2.3041">
        <ele>56.7</ele>
        <time>2023-06-03T11:51:51Z</time>
      </trkpt>
      <trkpt lat="49.88416" lon="2.30409">
        <ele>56.7</ele>
        <time>2023-06-03T11:51:52Z</time>
      </trkpt>
      <trkpt lat="49.88415" lon="2.30408">
        <ele>56.7</ele>
        <time>2023-06-03T11:51:53Z</time>
      </trkpt>
      <trkpt lat="49.88415" lon="2.30408">
        <ele>56.6</ele>
        <time>2023-06-03T11:51:54Z</time>
      </trkpt>
      <trkpt lat="49.88416" lon="2.30407">
        <ele>56.6</ele>
        <time>2023-06-03T11:51:56Z</time>
      </trkpt>
      <trkpt lat="49.88418" lon="2.30406">
        <ele>56.5</ele>
        <time>2023-06-03T11:51:57Z</time>
      </trkpt>
      <trkpt lat="49.88419" lon="2.30406">
        <ele>56.5</ele>
        <time>2023-06-03T11:51:58Z</time>
      </trkpt>
      <trkpt lat="49.88422" lon="2.30407">
        <ele>56.4</ele>
        <time>2023-06-03T11:52:00Z</time>
      </trkpt>
      <trkpt lat="49.88423" lon="2.30408">
        <ele>56.3</ele>
        <time>2023-06-03T11:52:01Z</time>
      </trkpt>
      <trkpt lat="49.88424" lon="2.30409">
        <ele>56.3</ele>
        <time>2023-06-03T11:52:02Z</time>
      </trkpt>
      <trkpt lat="49.88426" lon="2.30409">
        <ele>56.3</ele>
        <time>2023-06-03T11:52:04Z</time>
      </trkpt>
      <trkpt lat="49.88427" lon="2.30409">
        <ele>56.2</ele>
        <time>2023-06-03T11:52:05Z</time>
      </trkpt>
      <trkpt lat="49.8843" lon="2.30409">
        <ele>56.1</ele>
        <time>2023-06-03T11:52:06Z</time>
      </trkpt>
      <trkpt lat="49.88431" lon="2.30409">
        <ele>56.1</ele>
        <time>2023-06-03T11:52:07Z</time>
      </trkpt>
      <trkpt lat="49.88433" lon="2.30409">
        <ele>56</ele>
        <time>2023-06-03T11:52:08Z</time>
      </trkpt>
      <trkpt lat="49.88434" lon="2.30409">
        <ele>56</ele>
        <time>2023-06-03T11:52:09Z</time>
      </trkpt>
      <trkpt lat="49.88438" lon="2.30409">
        <ele>55.9</ele>
        <time>2023-06-03T11:52:11Z</time>
      </trkpt>
      <trkpt lat="49.88438" lon="2.30408">
        <ele>55.8</ele>
        <time>2023-06-03T11:52:12Z</time>
      </trkpt>
      <trkpt lat="49.88441" lon="2.30408">
        <ele>55.8</ele>
        <time>2023-06-03T11:52:13Z</time>
      </trkpt>
      <trkpt lat="49.88442" lon="2.30408">
        <ele>55.7</ele>
        <time>2023-06-03T11:52:14Z</time>
      </trkpt>
      <trkpt lat="49.88444" lon="2.30408">
        <ele>55.7</ele>
        <time>2023-06-03T11:52:15Z</time>
      </trkpt>
      <trkpt lat="49.88445" lon="2.30407">
        <ele>55.6</ele>
        <time>2023-06-03T11:52:16Z</time>
      </trkpt>
      <trkpt lat="49.88447" lon="2.30406">
        <ele>55.6</ele>
        <time>2023-06-03T11:52:17Z</time>
      </trkpt>
      <trkpt lat="49.88449" lon="2.30405">
        <ele>55.5</ele>
        <time>2023-06-03T11:52:19Z</time>
      </trkpt>
      <trkpt lat="49.8845" lon="2.30405">
        <ele>55.5</ele>
        <time>2023-06-03T11:52:20Z</time>
      </trkpt>
      <trkpt lat="49.88451" lon="2.30404">
        <ele>55.4</ele>
        <time>2023-06-03T11:52:21Z</time>
      </trkpt>
      <trkpt lat="49.88452" lon="2.30403">
        <ele>55.4</ele>
        <time>2023-06-03T11:52:23Z</time>
      </trkpt>
      <trkpt lat="49.88455" lon="2.30401">
        <ele>55.3</ele>
        <time>2023-06-03T11:52:24Z</time>
      </trkpt>
      <trkpt lat="49.88456" lon="2.304">
        <ele>55.3</ele>
        <time>2023-06-03T11:52:25Z</time>
      </trkpt>
      <trkpt lat="49.88457" lon="2.30399">
        <ele>55.2</ele>
        <time>2023-06-03T11:52:27Z</time>
      </trkpt>
      <trkpt lat="49.88458" lon="2.30398">
        <ele>55.2</ele>
        <time>2023-06-03T11:52:28Z</time>
      </trkpt>
      <trkpt lat="49.8846" lon="2.30396">
        <ele>55.1</ele>
        <time>2023-06-03T11:52:29Z</time>
      </trkpt>
      <trkpt lat="49.88461" lon="2.30396">
        <ele>55.1</ele>
        <time>2023-06-03T11:52:30Z</time>
      </trkpt>
      <trkpt lat="49.88462" lon="2.30395">
        <ele>55.1</ele>
        <time>2023-06-03T11:52:31Z</time>
      </trkpt>
      <trkpt lat="49.88462" lon="2.30394">
        <ele>55</ele>
        <time>2023-06-03T11:52:32Z</time>
      </trkpt>
      <trkpt lat="49.88464" lon="2.30394">
        <ele>55</ele>
        <time>2023-06-03T11:52:33Z</time>
      </trkpt>
      <trkpt lat="49.88465" lon="2.30393">
        <ele>54.9</ele>
        <time>2023-06-03T11:52:35Z</time>
      </trkpt>
      <trkpt lat="49.88467" lon="2.30392">
        <ele>54.9</ele>
        <time>2023-06-03T11:52:36Z</time>
      </trkpt>
      <trkpt lat="49.88469" lon="2.30392">
        <ele>54.8</ele>
        <time>2023-06-03T11:52:37Z</time>
      </trkpt>
      <trkpt lat="49.88471" lon="2.30391">
        <ele>54.8</ele>
        <time>2023-06-03T11:52:39Z</time>
      </trkpt>
      <trkpt lat="49.88472" lon="2.3039">
        <ele>54.7</ele>
        <time>2023-06-03T11:52:40Z</time>
      </trkpt>
      <trkpt lat="49.88472" lon="2.3039">
        <ele>54.7</ele>
        <time>2023-06-03T11:52:41Z</time>
      </trkpt>
      <trkpt lat="49.88474" lon="2.30389">
        <ele>54.7</ele>
        <time>2023-06-03T11:52:42Z</time>
      </trkpt>
      <trkpt lat="49.88476" lon="2.30388">
        <ele>54.6</ele>
        <time>2023-06-03T11:52:43Z</time>
      </trkpt>
      <trkpt lat="49.88478" lon="2.30387">
        <ele>54.6</ele>
        <time>2023-06-03T11:52:45Z</time>
      </trkpt>
      <trkpt lat="49.88478" lon="2.30387">
        <ele>54.5</ele>
        <time>2023-06-03T11:52:46Z</time>
      </trkpt>
      <trkpt lat="49.88479" lon="2.30386">
        <ele>54.5</ele>
        <time>2023-06-03T11:52:47Z</time>
      </trkpt>
      <trkpt lat="49.88481" lon="2.30385">
        <ele>54.4</ele>
        <time>2023-06-03T11:52:48Z</time>
      </trkpt>
      <trkpt lat="49.88482" lon="2.30385">
        <ele>54.4</ele>
        <time>2023-06-03T11:52:49Z</time>
      </trkpt>
      <trkpt lat="49.88483" lon="2.30385">
        <ele>54.4</ele>
        <time>2023-06-03T11:52:50Z</time>
      </trkpt>
      <trkpt lat="49.88484" lon="2.30384">
        <ele>54.4</ele>
        <time>2023-06-03T11:52:51Z</time>
      </trkpt>
      <trkpt lat="49.88484" lon="2.30383">
        <ele>54.3</ele>
        <time>2023-06-03T11:52:52Z</time>
      </trkpt>
      <trkpt lat="49.88486" lon="2.30382">
        <ele>54.3</ele>
        <time>2023-06-03T11:52:54Z</time>
      </trkpt>
      <trkpt lat="49.88487" lon="2.30381">
        <ele>54.2</ele>
        <time>2023-06-03T11:52:55Z</time>
      </trkpt>
      <trkpt lat="49.88488" lon="2.3038">
        <ele>54.2</ele>
        <time>2023-06-03T11:52:56Z</time>
      </trkpt>
      <trkpt lat="49.88489" lon="2.30379">
        <ele>54.2</ele>
        <time>2023-06-03T11:52:57Z</time>
      </trkpt>
      <trkpt lat="49.88491" lon="2.30378">
        <ele>54.1</ele>
        <time>2023-06-03T11:52:59Z</time>
      </trkpt>
      <trkpt lat="49.88492" lon="2.30378">
        <ele>54.1</ele>
        <time>2023-06-03T11:53:00Z</time>
      </trkpt>
      <trkpt lat="49.88494" lon="2.30377">
        <ele>54</ele>
        <time>2023-06-03T11:53:01Z</time>
      </trkpt>
      <trkpt lat="49.88495" lon="2.30377">
        <ele>54</ele>
        <time>2023-06-03T11:53:03Z</time>
      </trkpt>
      <trkpt lat="49.88497" lon="2.30376">
        <ele>54</ele>
        <time>2023-06-03T11:53:04Z</time>
      </trkpt>
      <trkpt lat="49.88498" lon="2.30376">
        <ele>53.9</ele>
        <time>2023-06-03T11:53:06Z</time>
      </trkpt>
      <trkpt lat="49.88499" lon="2.30376">
        <ele>53.9</ele>
        <time>2023-06-03T11:53:07Z</time>
      </trkpt>
      <trkpt lat="49.885" lon="2.30376">
        <ele>53.9</ele>
        <time>2023-06-03T11:53:08Z</time>
      </trkpt>
      <trkpt lat="49.88501" lon="2.30377">
        <ele>53.8</ele>
        <time>2023-06-03T11:53:10Z</time>
      </trkpt>
      <trkpt lat="49.88503" lon="2.30377">
        <ele>53.8</ele>
        <time>2023-06-03T11:53:11Z</time>
      </trkpt>
      <trkpt lat="49.88505" lon="2.30377">
        <ele>53.7</ele>
        <time>2023-06-03T11:53:12Z</time>
      </trkpt>
      <trkpt lat="49.88508" lon="2.30378">
        <ele>53.6</ele>
        <time>2023-06-03T11:53:13Z</time>
      </trkpt>
      <trkpt lat="49.88509" lon="2.30378">
        <ele>53.6</ele>
        <time>2023-06-03T11:53:14Z</time>
      </trkpt>
      <trkpt lat="49.8851" lon="2.30378">
        <ele>53.5</ele>
        <time>2023-06-03T11:53:15Z</time>
      </trkpt>
      <trkpt lat="49.88512" lon="2.30378">
        <ele>53.5</ele>
        <time>2023-06-03T11:53:16Z</time>
      </trkpt>
      <trkpt lat="49.88515" lon="2.30378">
        <ele>53.4</ele>
        <time>2023-06-03T11:53:18Z</time>
      </trkpt>
      <trkpt lat="49.88516" lon="2.30378">
        <ele>53.3</ele>
        <time>2023-06-03T11:53:19Z</time>
      </trkpt>
      <trkpt lat="49.88518" lon="2.30378">
        <ele>53.3</ele>
        <time>2023-06-03T11:53:20Z</time>
      </trkpt>
      <trkpt lat="49.8852" lon="2.30378">
        <ele>53.2</ele>
        <time>2023-06-03T11:53:21Z</time>
      </trkpt>
      <trkpt lat="49.88521" lon="2.30378">
        <ele>53.2</ele>
        <time>2023-06-03T11:53:22Z</time>
      </trkpt>
      <trkpt lat="49.88523" lon="2.30378">
        <ele>53.1</ele>
        <time>2023-06-03T11:53:23Z</time>
      </trkpt>
      <trkpt lat="49.88526" lon="2.30378">
        <ele>53</ele>
        <time>2023-06-03T11:53:25Z</time>
      </trkpt>
      <trkpt lat="49.88527" lon="2.30378">
        <ele>53</ele>
        <time>2023-06-03T11:53:26Z</time>
      </trkpt>
      <trkpt lat="49.88529" lon="2.30378">
        <ele>52.9</ele>
        <time>2023-06-03T11:53:27Z</time>
      </trkpt>
      <trkpt lat="49.8853" lon="2.30377">
        <ele>52.9</ele>
        <time>2023-06-03T11:53:29Z</time>
      </trkpt>
      <trkpt lat="49.88531" lon="2.30377">
        <ele>52.9</ele>
        <time>2023-06-03T11:53:30Z</time>
      </trkpt>
      <trkpt lat="49.88532" lon="2.30376">
        <ele>52.9</ele>
        <time>2023-06-03T11:53:32Z</time>
      </trkpt>
      <trkpt lat="49.88533" lon="2.30376">
        <ele>52.8</ele>
        <time>2023-06-03T11:53:33Z</time>
      </trkpt>
      <trkpt lat="49.88534" lon="2.30376">
        <ele>52.8</ele>
        <time>2023-06-03T11:53:34Z</time>
      </trkpt>
      <trkpt lat="49.88535" lon="2.30375">
        <ele>52.8</ele>
        <time>2023-06-03T11:53:36Z</time>
      </trkpt>
      <trkpt lat="49.88537" lon="2.30374">
        <ele>52.7</ele>
        <time>2023-06-03T11:53:37Z</time>
      </trkpt>
      <trkpt lat="49.88538" lon="2.30373">
        <ele>52.7</ele>
        <time>2023-06-03T11:53:38Z</time>
      </trkpt>
      <trkpt lat="49.8854" lon="2.30372">
        <ele>52.6</ele>
        <time>2023-06-03T11:53:39Z</time>
      </trkpt>
      <trkpt lat="49.88542" lon="2.30371">
        <ele>52.6</ele>
        <time>2023-06-03T11:53:40Z</time>
      </trkpt>
      <trkpt lat="49.88543" lon="2.30371">
        <ele>52.5</ele>
        <time>2023-06-03T11:53:41Z</time>
      </trkpt>
      <trkpt lat="49.88546" lon="2.3037">
        <ele>52.4</ele>
        <time>2023-06-03T11:53:43Z</time>
      </trkpt>
      <trkpt lat="49.88548" lon="2.30369">
        <ele>52.4</ele>
        <time>2023-06-03T11:53:44Z</time>
      </trkpt>
      <trkpt lat="49.88549" lon="2.30369">
        <ele>52.3</ele>
        <time>2023-06-03T11:53:45Z</time>
      </trkpt>
      <trkpt lat="49.88552" lon="2.30368">
        <ele>52.3</ele>
        <time>2023-06-03T11:53:47Z</time>
      </trkpt>
      <trkpt lat="49.88553" lon="2.30368">
        <ele>52.2</ele>
        <time>2023-06-03T11:53:48Z</time>
      </trkpt>
      <trkpt lat="49.88554" lon="2.30367">
        <ele>52.2</ele>
        <time>2023-06-03T11:53:49Z</time>
      </trkpt>
      <trkpt lat="49.88556" lon="2.30367">
        <ele>52.1</ele>
        <time>2023-06-03T11:53:51Z</time>
      </trkpt>
      <trkpt lat="49.88557" lon="2.30366">
        <ele>52.1</ele>
        <time>2023-06-03T11:53:52Z</time>
      </trkpt>
      <trkpt lat="49.88559" lon="2.30366">
        <ele>52</ele>
        <time>2023-06-03T11:53:54Z</time>
      </trkpt>
      <trkpt lat="49.88562" lon="2.30365">
        <ele>52</ele>
        <time>2023-06-03T11:53:55Z</time>
      </trkpt>
      <trkpt lat="49.88564" lon="2.30365">
        <ele>51.9</ele>
        <time>2023-06-03T11:53:56Z</time>
      </trkpt>
      <trkpt lat="49.88565" lon="2.30365">
        <ele>51.9</ele>
        <time>2023-06-03T11:53:58Z</time>
      </trkpt>
      <trkpt lat="49.88565" lon="2.30365">
        <ele>51.9</ele>
        <time>2023-06-03T11:53:59Z</time>
      </trkpt>
      <trkpt lat="49.88566" lon="2.30364">
        <ele>51.8</ele>
        <time>2023-06-03T11:54:00Z</time>
      </trkpt>
      <trkpt lat="49.88567" lon="2.30364">
        <ele>51.8</ele>
        <time>2023-06-03T11:54:01Z</time>
      </trkpt>
      <trkpt lat="49.88568" lon="2.30364">
        <ele>51.8</ele>
        <time>2023-06-03T11:54:02Z</time>
      </trkpt>
      <trkpt lat="49.88569" lon="2.30364">
        <ele>51.8</ele>
        <time>2023-06-03T11:54:03Z</time>
      </trkpt>
      <trkpt lat="49.8857" lon="2.30364">
        <ele>51.7</ele>
        <time>2023-06-03T11:54:05Z</time>
      </trkpt>
      <trkpt lat="49.88571" lon="2.30365">
        <ele>51.7</ele>
        <time>2023-06-03T11:54:06Z</time>
      </trkpt>
      <trkpt lat="49.88573" lon="2.30365">
        <ele>51.6</ele>
        <time>2023-06-03T11:54:07Z</time>
      </trkpt>
      <trkpt lat="49.88574" lon="2.30365">
        <ele>51.6</ele>
        <time>2023-06-03T11:54:08Z</time>
      </trkpt>
      <trkpt lat="49.88577" lon="2.30365">
        <ele>51.5</ele>
        <time>2023-06-03T11:54:09Z</time>
      </trkpt>
      <trkpt lat="49.88577" lon="2.30365">
        <ele>51.5</ele>
        <time>2023-06-03T11:54:10Z</time>
      </trkpt>
      <trkpt lat="49.88579" lon="2.30365">
        <ele>51.5</ele>
        <time>2023-06-03T11:54:11Z</time>
      </trkpt>
      <trkpt lat="49.8858" lon="2.30365">
        <ele>51.5</ele>
        <time>2023-06-03T11:54:12Z</time>
      </trkpt>
      <trkpt lat="49.88581" lon="2.30365">
        <ele>51.4</ele>
        <time>2023-06-03T11:54:14Z</time>
      </trkpt>
      <trkpt lat="49.88582" lon="2.30366">
        <ele>51.4</ele>
        <time>2023-06-03T11:54:15Z</time>
      </trkpt>
      <trkpt lat="49.88583" lon="2.30366">
        <ele>51.4</ele>
        <time>2023-06-03T11:54:16Z</time>
      </trkpt>
      <trkpt lat="49.88584" lon="2.30366">
        <ele>51.3</ele>
        <time>2023-06-03T11:54:18Z</time>
      </trkpt>
      <trkpt lat="49.88584" lon="2.30366">
        <ele>51.3</ele>
        <time>2023-06-03T11:54:19Z</time>
      </trkpt>
      <trkpt lat="49.88585" lon="2.30366">
        <ele>51.3</ele>
        <time>2023-06-03T11:54:20Z</time>
      </trkpt>
      <trkpt lat="49.88589" lon="2.30365">
        <ele>51.2</ele>
        <time>2023-06-03T11:54:22Z</time>
      </trkpt>
      <trkpt lat="49.88589" lon="2.30365">
        <ele>51.2</ele>
        <time>2023-06-03T11:54:23Z</time>
      </trkpt>
      <trkpt lat="49.88591" lon="2.30364">
        <ele>51.1</ele>
        <time>2023-06-03T11:54:25Z</time>
      </trkpt>
      <trkpt lat="49.88593" lon="2.30364">
        <ele>51</ele>
        <time>2023-06-03T11:54:26Z</time>
      </trkpt>
      <trkpt lat="49.88594" lon="2.30362">
        <ele>51</ele>
        <time>2023-06-03T11:54:27Z</time>
      </trkpt>
      <trkpt lat="49.88594" lon="2.30361">
        <ele>50.9</ele>
        <time>2023-06-03T11:54:28Z</time>
      </trkpt>
      <trkpt lat="49.88595" lon="2.30359">
        <ele>50.9</ele>
        <time>2023-06-03T11:54:29Z</time>
      </trkpt>
      <trkpt lat="49.88595" lon="2.30357">
        <ele>50.9</ele>
        <time>2023-06-03T11:54:30Z</time>
      </trkpt>
      <trkpt lat="49.88595" lon="2.30355">
        <ele>50.8</ele>
        <time>2023-06-03T11:54:31Z</time>
      </trkpt>
      <trkpt lat="49.88595" lon="2.30353">
        <ele>50.8</ele>
        <time>2023-06-03T11:54:32Z</time>
      </trkpt>
      <trkpt lat="49.88596" lon="2.30351">
        <ele>50.7</ele>
        <time>2023-06-03T11:54:34Z</time>
      </trkpt>
      <trkpt lat="49.88597" lon="2.3035">
        <ele>50.7</ele>
        <time>2023-06-03T11:54:35Z</time>
      </trkpt>
      <trkpt lat="49.88597" lon="2.30349">
        <ele>50.7</ele>
        <time>2023-06-03T11:54:36Z</time>
      </trkpt>
      <trkpt lat="49.88598" lon="2.30349">
        <ele>50.6</ele>
        <time>2023-06-03T11:54:37Z</time>
      </trkpt>
      <trkpt lat="49.886" lon="2.30348">
        <ele>50.6</ele>
        <time>2023-06-03T11:54:38Z</time>
      </trkpt>
      <trkpt lat="49.88602" lon="2.30348">
        <ele>50.5</ele>
        <time>2023-06-03T11:54:39Z</time>
      </trkpt>
      <trkpt lat="49.88603" lon="2.30348">
        <ele>50.5</ele>
        <time>2023-06-03T11:54:40Z</time>
      </trkpt>
      <trkpt lat="49.88604" lon="2.30349">
        <ele>50.4</ele>
        <time>2023-06-03T11:54:41Z</time>
      </trkpt>
      <trkpt lat="49.88607" lon="2.3035">
        <ele>50.3</ele>
        <time>2023-06-03T11:54:43Z</time>
      </trkpt>
      <trkpt lat="49.88607" lon="2.3035">
        <ele>50.3</ele>
        <time>2023-06-03T11:54:44Z</time>
      </trkpt>
      <trkpt lat="49.88609" lon="2.30351">
        <ele>50.2</ele>
        <time>2023-06-03T11:54:45Z</time>
      </trkpt>
      <trkpt lat="49.88611" lon="2.30352">
        <ele>50.2</ele>
        <time>2023-06-03T11:54:47Z</time>
      </trkpt>
      <trkpt lat="49.88613" lon="2.30352">
        <ele>50.1</ele>
        <time>2023-06-03T11:54:48Z</time>
      </trkpt>
      <trkpt lat="49.88614" lon="2.30352">
        <ele>50</ele>
        <time>2023-06-03T11:54:49Z</time>
      </trkpt>
      <trkpt lat="49.88616" lon="2.30355">
        <ele>50</ele>
        <time>2023-06-03T11:54:50Z</time>
      </trkpt>
      <trkpt lat="49.88617" lon="2.30356">
        <ele>49.9</ele>
        <time>2023-06-03T11:54:52Z</time>
      </trkpt>
      <trkpt lat="49.88618" lon="2.30357">
        <ele>49.9</ele>
        <time>2023-06-03T11:54:53Z</time>
      </trkpt>
      <trkpt lat="49.88619" lon="2.30358">
        <ele>49.8</ele>
        <time>2023-06-03T11:54:54Z</time>
      </trkpt>
      <trkpt lat="49.8862" lon="2.30359">
        <ele>49.8</ele>
        <time>2023-06-03T11:54:55Z</time>
      </trkpt>
      <trkpt lat="49.88621" lon="2.30362">
        <ele>49.7</ele>
        <time>2023-06-03T11:54:56Z</time>
      </trkpt>
      <trkpt lat="49.88622" lon="2.30363">
        <ele>49.7</ele>
        <time>2023-06-03T11:54:57Z</time>
      </trkpt>
      <trkpt lat="49.88623" lon="2.30363">
        <ele>49.7</ele>
        <time>2023-06-03T11:54:59Z</time>
      </trkpt>
      <trkpt lat="49.88624" lon="2.30364">
        <ele>49.6</ele>
        <time>2023-06-03T11:55:00Z</time>
      </trkpt>
      <trkpt lat="49.88625" lon="2.30365">
        <ele>49.6</ele>
        <time>2023-06-03T11:55:01Z</time>
      </trkpt>
      <trkpt lat="49.88626" lon="2.30365">
        <ele>49.6</ele>
        <time>2023-06-03T11:55:02Z</time>
      </trkpt>
      <trkpt lat="49.88627" lon="2.30365">
        <ele>49.5</ele>
        <time>2023-06-03T11:55:03Z</time>
      </trkpt>
      <trkpt lat="49.88629" lon="2.30366">
        <ele>49.5</ele>
        <time>2023-06-03T11:55:04Z</time>
      </trkpt>
      <trkpt lat="49.8863" lon="2.30367">
        <ele>49.4</ele>
        <time>2023-06-03T11:55:05Z</time>
      </trkpt>
      <trkpt lat="49.88633" lon="2.30369">
        <ele>49.3</ele>
        <time>2023-06-03T11:55:07Z</time>
      </trkpt>
      <trkpt lat="49.88634" lon="2.3037">
        <ele>49.3</ele>
        <time>2023-06-03T11:55:08Z</time>
      </trkpt>
      <trkpt lat="49.88635" lon="2.30371">
        <ele>49.2</ele>
        <time>2023-06-03T11:55:09Z</time>
      </trkpt>
      <trkpt lat="49.88634" lon="2.30371">
        <ele>49.2</ele>
        <time>2023-06-03T11:55:10Z</time>
      </trkpt>
      <trkpt lat="49.88636" lon="2.30371">
        <ele>49.2</ele>
        <time>2023-06-03T11:55:12Z</time>
      </trkpt>
      <trkpt lat="49.88637" lon="2.30371">
        <ele>49.1</ele>
        <time>2023-06-03T11:55:13Z</time>
      </trkpt>
      <trkpt lat="49.88639" lon="2.30372">
        <ele>49.1</ele>
        <time>2023-06-03T11:55:15Z</time>
      </trkpt>
      <trkpt lat="49.88641" lon="2.30372">
        <ele>49</ele>
        <time>2023-06-03T11:55:16Z</time>
      </trkpt>
      <trkpt lat="49.88642" lon="2.30372">
        <ele>49</ele>
        <time>2023-06-03T11:55:17Z</time>
      </trkpt>
      <trkpt lat="49.88645" lon="2.30369">
        <ele>48.9</ele>
        <time>2023-06-03T11:55:18Z</time>
      </trkpt>
      <trkpt lat="49.88646" lon="2.30369">
        <ele>48.8</ele>
        <time>2023-06-03T11:55:19Z</time>
      </trkpt>
      <trkpt lat="49.88647" lon="2.30369">
        <ele>48.8</ele>
        <time>2023-06-03T11:55:20Z</time>
      </trkpt>
      <trkpt lat="49.88649" lon="2.30369">
        <ele>48.7</ele>
        <time>2023-06-03T11:55:21Z</time>
      </trkpt>
      <trkpt lat="49.88652" lon="2.30368">
        <ele>48.7</ele>
        <time>2023-06-03T11:55:22Z</time>
      </trkpt>
      <trkpt lat="49.88653" lon="2.30368">
        <ele>48.6</ele>
        <time>2023-06-03T11:55:24Z</time>
      </trkpt>
      <trkpt lat="49.88655" lon="2.30368">
        <ele>48.5</ele>
        <time>2023-06-03T11:55:25Z</time>
      </trkpt>
      <trkpt lat="49.88658" lon="2.30367">
        <ele>48.5</ele>
        <time>2023-06-03T11:55:27Z</time>
      </trkpt>
      <trkpt lat="49.8866" lon="2.30365">
        <ele>48.4</ele>
        <time>2023-06-03T11:55:28Z</time>
      </trkpt>
      <trkpt lat="49.88662" lon="2.30364">
        <ele>48.3</ele>
        <time>2023-06-03T11:55:29Z</time>
      </trkpt>
      <trkpt lat="49.88663" lon="2.30364">
        <ele>48.3</ele>
        <time>2023-06-03T11:55:30Z</time>
      </trkpt>
      <trkpt lat="49.88666" lon="2.30362">
        <ele>48.2</ele>
        <time>2023-06-03T11:55:32Z</time>
      </trkpt>
      <trkpt lat="49.88666" lon="2.30361">
        <ele>48.1</ele>
        <time>2023-06-03T11:55:33Z</time>
      </trkpt>
      <trkpt lat="49.88669" lon="2.30359">
        <ele>48.1</ele>
        <time>2023-06-03T11:55:35Z</time>
      </trkpt>
      <trkpt lat="49.88669" lon="2.30359">
        <ele>48</ele>
        <time>2023-06-03T11:55:36Z</time>
      </trkpt>
      <trkpt lat="49.8867" lon="2.30358">
        <ele>48</ele>
        <time>2023-06-03T11:55:37Z</time>
      </trkpt>
      <trkpt lat="49.88672" lon="2.30357">
        <ele>47.9</ele>
        <time>2023-06-03T11:55:38Z</time>
      </trkpt>
      <trkpt lat="49.88673" lon="2.30356">
        <ele>47.9</ele>
        <time>2023-06-03T11:55:39Z</time>
      </trkpt>
      <trkpt lat="49.88674" lon="2.30356">
        <ele>47.9</ele>
        <time>2023-06-03T11:55:40Z</time>
      </trkpt>
      <trkpt lat="49.88676" lon="2.30355">
        <ele>47.8</ele>
        <time>2023-06-03T11:55:42Z</time>
      </trkpt>
      <trkpt lat="49.88678" lon="2.30355">
        <ele>47.7</ele>
        <time>2023-06-03T11:55:43Z</time>
      </trkpt>
      <trkpt lat="49.88679" lon="2.30355">
        <ele>47.6</ele>
        <time>2023-06-03T11:55:44Z</time>
      </trkpt>
      <trkpt lat="49.8868" lon="2.30354">
        <ele>47.6</ele>
        <time>2023-06-03T11:55:45Z</time>
      </trkpt>
      <trkpt lat="49.88683" lon="2.30354">
        <ele>47.5</ele>
        <time>2023-06-03T11:55:46Z</time>
      </trkpt>
      <trkpt lat="49.88684" lon="2.30355">
        <ele>47.4</ele>
        <time>2023-06-03T11:55:47Z</time>
      </trkpt>
      <trkpt lat="49.88685" lon="2.30355">
        <ele>47.3</ele>
        <time>2023-06-03T11:55:48Z</time>
      </trkpt>
      <trkpt lat="49.88687" lon="2.30355">
        <ele>47.2</ele>
        <time>2023-06-03T11:55:50Z</time>
      </trkpt>
      <trkpt lat="49.88686" lon="2.30353">
        <ele>47.1</ele>
        <time>2023-06-03T11:55:51Z</time>
      </trkpt>
      <trkpt lat="49.88687" lon="2.30351">
        <ele>47.1</ele>
        <time>2023-06-03T11:55:53Z</time>
      </trkpt>
      <trkpt lat="49.88688" lon="2.30351">
        <ele>47</ele>
        <time>2023-06-03T11:55:54Z</time>
      </trkpt>
      <trkpt lat="49.8869" lon="2.3035">
        <ele>47</ele>
        <time>2023-06-03T11:55:55Z</time>
      </trkpt>
      <trkpt lat="49.88692" lon="2.3035">
        <ele>46.9</ele>
        <time>2023-06-03T11:55:57Z</time>
      </trkpt>
      <trkpt lat="49.88695" lon="2.30349">
        <ele>46.8</ele>
        <time>2023-06-03T11:55:58Z</time>
      </trkpt>
      <trkpt lat="49.88698" lon="2.30348">
        <ele>46.7</ele>
        <time>2023-06-03T11:56:00Z</time>
      </trkpt>
      <trkpt lat="49.88699" lon="2.30348">
        <ele>46.6</ele>
        <time>2023-06-03T11:56:01Z</time>
      </trkpt>
      <trkpt lat="49.88701" lon="2.30348">
        <ele>46.5</ele>
        <time>2023-06-03T11:56:02Z</time>
      </trkpt>
      <trkpt lat="49.88705" lon="2.30348">
        <ele>46.4</ele>
        <time>2023-06-03T11:56:04Z</time>
      </trkpt>
      <trkpt lat="49.88705" lon="2.30348">
        <ele>46.4</ele>
        <time>2023-06-03T11:56:05Z</time>
      </trkpt>
      <trkpt lat="49.88707" lon="2.30347">
        <ele>46.3</ele>
        <time>2023-06-03T11:56:06Z</time>
      </trkpt>
      <trkpt lat="49.88709" lon="2.30347">
        <ele>46.2</ele>
        <time>2023-06-03T11:56:07Z</time>
      </trkpt>
      <trkpt lat="49.88711" lon="2.30347">
        <ele>46.1</ele>
        <time>2023-06-03T11:56:08Z</time>
      </trkpt>
      <trkpt lat="49.88712" lon="2.30346">
        <ele>46.1</ele>
        <time>2023-06-03T11:56:09Z</time>
      </trkpt>
      <trkpt lat="49.88714" lon="2.30345">
        <ele>46</ele>
        <time>2023-06-03T11:56:10Z</time>
      </trkpt>
      <trkpt lat="49.88716" lon="2.30344">
        <ele>46</ele>
        <time>2023-06-03T11:56:12Z</time>
      </trkpt>
      <trkpt lat="49.88717" lon="2.30343">
        <ele>45.9</ele>
        <time>2023-06-03T11:56:13Z</time>
      </trkpt>
      <trkpt lat="49.88719" lon="2.30342">
        <ele>45.9</ele>
        <time>2023-06-03T11:56:14Z</time>
      </trkpt>
      <trkpt lat="49.8872" lon="2.30341">
        <ele>45.9</ele>
        <time>2023-06-03T11:56:15Z</time>
      </trkpt>
      <trkpt lat="49.88721" lon="2.30339">
        <ele>45.8</ele>
        <time>2023-06-03T11:56:16Z</time>
      </trkpt>
      <trkpt lat="49.88722" lon="2.30336">
        <ele>45.8</ele>
        <time>2023-06-03T11:56:17Z</time>
      </trkpt>
      <trkpt lat="49.88724" lon="2.30333">
        <ele>45.7</ele>
        <time>2023-06-03T11:56:19Z</time>
      </trkpt>
      <trkpt lat="49.88725" lon="2.30331">
        <ele>45.7</ele>
        <time>2023-06-03T11:56:20Z</time>
      </trkpt>
      <trkpt lat="49.88726" lon="2.30328">
        <ele>45.7</ele>
        <time>2023-06-03T11:56:21Z</time>
      </trkpt>
      <trkpt lat="49.88727" lon="2.30322">
        <ele>45.5</ele>
        <time>2023-06-03T11:56:23Z</time>
      </trkpt>
      <trkpt lat="49.88728" lon="2.3032">
        <ele>45.4</ele>
        <time>2023-06-03T11:56:24Z</time>
      </trkpt>
      <trkpt lat="49.88728" lon="2.30318">
        <ele>45.4</ele>
        <time>2023-06-03T11:56:25Z</time>
      </trkpt>
      <trkpt lat="49.88729" lon="2.30315">
        <ele>45.3</ele>
        <time>2023-06-03T11:56:26Z</time>
      </trkpt>
      <trkpt lat="49.8873" lon="2.30311">
        <ele>45.3</ele>
        <time>2023-06-03T11:56:28Z</time>
      </trkpt>
      <trkpt lat="49.8873" lon="2.3031">
        <ele>45.2</ele>
        <time>2023-06-03T11:56:29Z</time>
      </trkpt>
      <trkpt lat="49.88732" lon="2.30308">
        <ele>45.2</ele>
        <time>2023-06-03T11:56:30Z</time>
      </trkpt>
      <trkpt lat="49.88734" lon="2.30303">
        <ele>45.1</ele>
        <time>2023-06-03T11:56:32Z</time>
      </trkpt>
      <trkpt lat="49.88735" lon="2.30301">
        <ele>45</ele>
        <time>2023-06-03T11:56:33Z</time>
      </trkpt>
      <trkpt lat="49.88736" lon="2.30298">
        <ele>45</ele>
        <time>2023-06-03T11:56:34Z</time>
      </trkpt>
      <trkpt lat="49.88737" lon="2.30297">
        <ele>45</ele>
        <time>2023-06-03T11:56:35Z</time>
      </trkpt>
      <trkpt lat="49.88737" lon="2.30296">
        <ele>44.9</ele>
        <time>2023-06-03T11:56:36Z</time>
      </trkpt>
      <trkpt lat="49.88738" lon="2.30294">
        <ele>44.9</ele>
        <time>2023-06-03T11:56:37Z</time>
      </trkpt>
      <trkpt lat="49.8874" lon="2.30292">
        <ele>44.8</ele>
        <time>2023-06-03T11:56:38Z</time>
      </trkpt>
      <trkpt lat="49.88742" lon="2.3029">
        <ele>44.8</ele>
        <time>2023-06-03T11:56:40Z</time>
      </trkpt>
      <trkpt lat="49.88743" lon="2.30289">
        <ele>44.7</ele>
        <time>2023-06-03T11:56:41Z</time>
      </trkpt>
      <trkpt lat="49.88745" lon="2.30288">
        <ele>44.7</ele>
        <time>2023-06-03T11:56:43Z</time>
      </trkpt>
      <trkpt lat="49.88746" lon="2.30287">
        <ele>44.6</ele>
        <time>2023-06-03T11:56:44Z</time>
      </trkpt>
      <trkpt lat="49.88747" lon="2.30287">
        <ele>44.6</ele>
        <time>2023-06-03T11:56:46Z</time>
      </trkpt>
      <trkpt lat="49.88747" lon="2.30287">
        <ele>44.6</ele>
        <time>2023-06-03T11:56:47Z</time>
      </trkpt>
      <trkpt lat="49.88748" lon="2.30287">
        <ele>44.6</ele>
        <time>2023-06-03T11:56:48Z</time>
      </trkpt>
      <trkpt lat="49.8875" lon="2.30287">
        <ele>44.5</ele>
        <time>2023-06-03T11:56:50Z</time>
      </trkpt>
      <trkpt lat="49.88751" lon="2.30285">
        <ele>44.5</ele>
        <time>2023-06-03T11:56:51Z</time>
      </trkpt>
      <trkpt lat="49.88753" lon="2.30284">
        <ele>44.4</ele>
        <time>2023-06-03T11:56:53Z</time>
      </trkpt>
      <trkpt lat="49.88756" lon="2.30282">
        <ele>44.4</ele>
        <time>2023-06-03T11:56:54Z</time>
      </trkpt>
      <trkpt lat="49.88757" lon="2.30281">
        <ele>44.3</ele>
        <time>2023-06-03T11:56:55Z</time>
      </trkpt>
      <trkpt lat="49.88758" lon="2.30281">
        <ele>44.3</ele>
        <time>2023-06-03T11:56:57Z</time>
      </trkpt>
      <trkpt lat="49.8876" lon="2.3028">
        <ele>44.3</ele>
        <time>2023-06-03T11:56:58Z</time>
      </trkpt>
      <trkpt lat="49.88761" lon="2.3028">
        <ele>44.2</ele>
        <time>2023-06-03T11:56:59Z</time>
      </trkpt>
      <trkpt lat="49.88762" lon="2.3028">
        <ele>44.2</ele>
        <time>2023-06-03T11:57:01Z</time>
      </trkpt>
      <trkpt lat="49.88763" lon="2.3028">
        <ele>44.2</ele>
        <time>2023-06-03T11:57:02Z</time>
      </trkpt>
      <trkpt lat="49.88766" lon="2.3028">
        <ele>44.1</ele>
        <time>2023-06-03T11:57:03Z</time>
      </trkpt>
      <trkpt lat="49.88767" lon="2.3028">
        <ele>44.1</ele>
        <time>2023-06-03T11:57:05Z</time>
      </trkpt>
      <trkpt lat="49.88769" lon="2.3028">
        <ele>44.1</ele>
        <time>2023-06-03T11:57:06Z</time>
      </trkpt>
      <trkpt lat="49.8877" lon="2.3028">
        <ele>44</ele>
        <time>2023-06-03T11:57:07Z</time>
      </trkpt>
      <trkpt lat="49.88771" lon="2.3028">
        <ele>44</ele>
        <time>2023-06-03T11:57:08Z</time>
      </trkpt>
      <trkpt lat="49.88773" lon="2.30279">
        <ele>44</ele>
        <time>2023-06-03T11:57:09Z</time>
      </trkpt>
      <trkpt lat="49.88774" lon="2.30279">
        <ele>43.9</ele>
        <time>2023-06-03T11:57:10Z</time>
      </trkpt>
      <trkpt lat="49.88776" lon="2.30279">
        <ele>43.9</ele>
        <time>2023-06-03T11:57:12Z</time>
      </trkpt>
      <trkpt lat="49.88778" lon="2.30279">
        <ele>43.9</ele>
        <time>2023-06-03T11:57:13Z</time>
      </trkpt>
      <trkpt lat="49.88779" lon="2.30278">
        <ele>43.9</ele>
        <time>2023-06-03T11:57:14Z</time>
      </trkpt>
      <trkpt lat="49.88782" lon="2.30278">
        <ele>43.8</ele>
        <time>2023-06-03T11:57:15Z</time>
      </trkpt>
      <trkpt lat="49.88783" lon="2.30278">
        <ele>43.8</ele>
        <time>2023-06-03T11:57:16Z</time>
      </trkpt>
      <trkpt lat="49.88787" lon="2.30278">
        <ele>43.7</ele>
        <time>2023-06-03T11:57:17Z</time>
      </trkpt>
      <trkpt lat="49.88788" lon="2.30278">
        <ele>43.7</ele>
        <time>2023-06-03T11:57:18Z</time>
      </trkpt>
      <trkpt lat="49.88792" lon="2.30277">
        <ele>43.6</ele>
        <time>2023-06-03T11:57:20Z</time>
      </trkpt>
      <trkpt lat="49.88795" lon="2.30277">
        <ele>43.6</ele>
        <time>2023-06-03T11:57:21Z</time>
      </trkpt>
      <trkpt lat="49.88796" lon="2.30278">
        <ele>43.6</ele>
        <time>2023-06-03T11:57:22Z</time>
      </trkpt>
      <trkpt lat="49.88799" lon="2.30278">
        <ele>43.5</ele>
        <time>2023-06-03T11:57:24Z</time>
      </trkpt>
      <trkpt lat="49.88801" lon="2.30279">
        <ele>43.5</ele>
        <time>2023-06-03T11:57:25Z</time>
      </trkpt>
      <trkpt lat="49.88802" lon="2.30279">
        <ele>43.5</ele>
        <time>2023-06-03T11:57:26Z</time>
      </trkpt>
      <trkpt lat="49.88805" lon="2.30279">
        <ele>43.2</ele>
        <time>2023-06-03T11:57:28Z</time>
      </trkpt>
      <trkpt lat="49.88807" lon="2.30279">
        <ele>43.2</ele>
        <time>2023-06-03T11:57:29Z</time>
      </trkpt>
      <trkpt lat="49.88808" lon="2.3028">
        <ele>43.1</ele>
        <time>2023-06-03T11:57:30Z</time>
      </trkpt>
      <trkpt lat="49.8881" lon="2.3028">
        <ele>43.1</ele>
        <time>2023-06-03T11:57:31Z</time>
      </trkpt>
      <trkpt lat="49.88812" lon="2.30279">
        <ele>43.1</ele>
        <time>2023-06-03T11:57:33Z</time>
      </trkpt>
      <trkpt lat="49.88813" lon="2.30279">
        <ele>43</ele>
        <time>2023-06-03T11:57:34Z</time>
      </trkpt>
      <trkpt lat="49.88814" lon="2.30279">
        <ele>43</ele>
        <time>2023-06-03T11:57:35Z</time>
      </trkpt>
      <trkpt lat="49.88815" lon="2.30278">
        <ele>43</ele>
        <time>2023-06-03T11:57:37Z</time>
      </trkpt>
      <trkpt lat="49.88816" lon="2.30278">
        <ele>42.9</ele>
        <time>2023-06-03T11:57:38Z</time>
      </trkpt>
      <trkpt lat="49.88817" lon="2.30277">
        <ele>42.8</ele>
        <time>2023-06-03T11:57:39Z</time>
      </trkpt>
      <trkpt lat="49.88819" lon="2.30277">
        <ele>42.8</ele>
        <time>2023-06-03T11:57:41Z</time>
      </trkpt>
      <trkpt lat="49.8882" lon="2.30277">
        <ele>42.8</ele>
        <time>2023-06-03T11:57:42Z</time>
      </trkpt>
      <trkpt lat="49.88822" lon="2.30276">
        <ele>42.7</ele>
        <time>2023-06-03T11:57:43Z</time>
      </trkpt>
      <trkpt lat="49.88823" lon="2.30276">
        <ele>42.7</ele>
        <time>2023-06-03T11:57:44Z</time>
      </trkpt>
      <trkpt lat="49.88824" lon="2.30277">
        <ele>42.7</ele>
        <time>2023-06-03T11:57:46Z</time>
      </trkpt>
      <trkpt lat="49.88825" lon="2.30277">
        <ele>42.6</ele>
        <time>2023-06-03T11:57:47Z</time>
      </trkpt>
      <trkpt lat="49.88826" lon="2.30278">
        <ele>42.6</ele>
        <time>2023-06-03T11:57:48Z</time>
      </trkpt>
      <trkpt lat="49.88828" lon="2.30278">
        <ele>42.6</ele>
        <time>2023-06-03T11:57:49Z</time>
      </trkpt>
      <trkpt lat="49.8883" lon="2.30278">
        <ele>42.5</ele>
        <time>2023-06-03T11:57:50Z</time>
      </trkpt>
      <trkpt lat="49.88831" lon="2.30278">
        <ele>42.5</ele>
        <time>2023-06-03T11:57:51Z</time>
      </trkpt>
      <trkpt lat="49.88832" lon="2.30278">
        <ele>42.5</ele>
        <time>2023-06-03T11:57:52Z</time>
      </trkpt>
      <trkpt lat="49.88834" lon="2.30278">
        <ele>42.5</ele>
        <time>2023-06-03T11:57:54Z</time>
      </trkpt>
      <trkpt lat="49.88836" lon="2.30278">
        <ele>42.4</ele>
        <time>2023-06-03T11:57:55Z</time>
      </trkpt>
      <trkpt lat="49.88837" lon="2.30279">
        <ele>42.4</ele>
        <time>2023-06-03T11:57:56Z</time>
      </trkpt>
      <trkpt lat="49.88838" lon="2.30279">
        <ele>42.4</ele>
        <time>2023-06-03T11:57:57Z</time>
      </trkpt>
      <trkpt lat="49.8884" lon="2.3028">
        <ele>42.3</ele>
        <time>2023-06-03T11:57:59Z</time>
      </trkpt>
      <trkpt lat="49.88842" lon="2.3028">
        <ele>42.3</ele>
        <time>2023-06-03T11:58:00Z</time>
      </trkpt>
      <trkpt lat="49.88842" lon="2.3028">
        <ele>42.2</ele>
        <time>2023-06-03T11:58:01Z</time>
      </trkpt>
      <trkpt lat="49.88844" lon="2.30279">
        <ele>42.2</ele>
        <time>2023-06-03T11:58:03Z</time>
      </trkpt>
      <trkpt lat="49.88846" lon="2.30279">
        <ele>42.2</ele>
        <time>2023-06-03T11:58:04Z</time>
      </trkpt>
      <trkpt lat="49.88848" lon="2.30278">
        <ele>42.2</ele>
        <time>2023-06-03T11:58:05Z</time>
      </trkpt>
      <trkpt lat="49.88849" lon="2.30277">
        <ele>42.1</ele>
        <time>2023-06-03T11:58:06Z</time>
      </trkpt>
      <trkpt lat="49.88851" lon="2.30277">
        <ele>42.1</ele>
        <time>2023-06-03T11:58:07Z</time>
      </trkpt>
      <trkpt lat="49.88852" lon="2.30277">
        <ele>42.1</ele>
        <time>2023-06-03T11:58:08Z</time>
      </trkpt>
      <trkpt lat="49.88854" lon="2.30277">
        <ele>42.1</ele>
        <time>2023-06-03T11:58:09Z</time>
      </trkpt>
      <trkpt lat="49.88856" lon="2.30277">
        <ele>42.1</ele>
        <time>2023-06-03T11:58:11Z</time>
      </trkpt>
      <trkpt lat="49.88857" lon="2.30277">
        <ele>42.1</ele>
        <time>2023-06-03T11:58:12Z</time>
      </trkpt>
      <trkpt lat="49.88858" lon="2.30277">
        <ele>42.1</ele>
        <time>2023-06-03T11:58:14Z</time>
      </trkpt>
      <trkpt lat="49.88858" lon="2.30277">
        <ele>42.1</ele>
        <time>2023-06-03T11:58:15Z</time>
      </trkpt>
      <trkpt lat="49.88858" lon="2.30277">
        <ele>42.1</ele>
        <time>2023-06-03T11:58:16Z</time>
      </trkpt>
      <trkpt lat="49.88858" lon="2.30277">
        <ele>42.1</ele>
        <time>2023-06-03T11:58:18Z</time>
      </trkpt>
      <trkpt lat="49.88859" lon="2.30277">
        <ele>42.1</ele>
        <time>2023-06-03T11:58:19Z</time>
      </trkpt>
      <trkpt lat="49.88859" lon="2.30277">
        <ele>42.1</ele>
        <time>2023-06-03T11:58:20Z</time>
      </trkpt>
      <trkpt lat="49.88859" lon="2.30277">
        <ele>42.1</ele>
        <time>2023-06-03T11:58:22Z</time>
      </trkpt>
      <trkpt lat="49.8886" lon="2.30278">
        <ele>42.1</ele>
        <time>2023-06-03T11:58:23Z</time>
      </trkpt>
      <trkpt lat="49.8886" lon="2.30278">
        <ele>42.1</ele>
        <time>2023-06-03T11:58:24Z</time>
      </trkpt>
      <trkpt lat="49.8886" lon="2.30278">
        <ele>42.1</ele>
        <time>2023-06-03T11:58:26Z</time>
      </trkpt>
      <trkpt lat="49.8886" lon="2.30278">
        <ele>42.1</ele>
        <time>2023-06-03T11:58:27Z</time>
      </trkpt>
      <trkpt lat="49.88861" lon="2.30278">
        <ele>42.1</ele>
        <time>2023-06-03T11:58:28Z</time>
      </trkpt>
      <trkpt lat="49.88862" lon="2.3028">
        <ele>42.1</ele>
        <time>2023-06-03T11:58:30Z</time>
      </trkpt>
      <trkpt lat="49.88863" lon="2.30281">
        <ele>42.1</ele>
        <time>2023-06-03T11:58:31Z</time>
      </trkpt>
      <trkpt lat="49.88863" lon="2.30282">
        <ele>42.1</ele>
        <time>2023-06-03T11:58:32Z</time>
      </trkpt>
      <trkpt lat="49.88864" lon="2.30284">
        <ele>42.1</ele>
        <time>2023-06-03T11:58:34Z</time>
      </trkpt>
      <trkpt lat="49.88864" lon="2.30285">
        <ele>42.1</ele>
        <time>2023-06-03T11:58:35Z</time>
      </trkpt>
      <trkpt lat="49.88865" lon="2.30285">
        <ele>42.1</ele>
        <time>2023-06-03T11:58:36Z</time>
      </trkpt>
      <trkpt lat="49.88865" lon="2.30285">
        <ele>42.1</ele>
        <time>2023-06-03T11:58:38Z</time>
      </trkpt>
      <trkpt lat="49.88865" lon="2.30285">
        <ele>42.1</ele>
        <time>2023-06-03T11:58:39Z</time>
      </trkpt>
      <trkpt lat="49.88865" lon="2.30285">
        <ele>42.1</ele>
        <time>2023-06-03T11:58:40Z</time>
      </trkpt>
      <trkpt lat="49.88865" lon="2.30285">
        <ele>42.1</ele>
        <time>2023-06-03T11:58:42Z</time>
      </trkpt>
      <trkpt lat="49.88865" lon="2.30285">
        <ele>42.1</ele>
        <time>2023-06-03T11:58:43Z</time>
      </trkpt>
      <trkpt lat="49.88866" lon="2.30284">
        <ele>42.1</ele>
        <time>2023-06-03T11:58:45Z</time>
      </trkpt>
      <trkpt lat="49.88868" lon="2.30284">
        <ele>42</ele>
        <time>2023-06-03T11:58:46Z</time>
      </trkpt>
      <trkpt lat="49.8887" lon="2.30283">
        <ele>42</ele>
        <time>2023-06-03T11:58:47Z</time>
      </trkpt>
      <trkpt lat="49.88873" lon="2.30283">
        <ele>41.8</ele>
        <time>2023-06-03T11:58:49Z</time>
      </trkpt>
      <trkpt lat="49.88877" lon="2.30283">
        <ele>41.8</ele>
        <time>2023-06-03T11:58:50Z</time>
      </trkpt>
      <trkpt lat="49.88878" lon="2.30283">
        <ele>41.7</ele>
        <time>2023-06-03T11:58:51Z</time>
      </trkpt>
      <trkpt lat="49.88879" lon="2.30284">
        <ele>41.7</ele>
        <time>2023-06-03T11:58:52Z</time>
      </trkpt>
      <trkpt lat="49.8888" lon="2.30284">
        <ele>41.7</ele>
        <time>2023-06-03T11:58:54Z</time>
      </trkpt>
      <trkpt lat="49.88881" lon="2.30285">
        <ele>41.7</ele>
        <time>2023-06-03T11:58:55Z</time>
      </trkpt>
      <trkpt lat="49.88882" lon="2.30285">
        <ele>41.7</ele>
        <time>2023-06-03T11:58:56Z</time>
      </trkpt>
      <trkpt lat="49.88883" lon="2.30287">
        <ele>41.6</ele>
        <time>2023-06-03T11:58:57Z</time>
      </trkpt>
      <trkpt lat="49.88884" lon="2.30287">
        <ele>41.6</ele>
        <time>2023-06-03T11:58:58Z</time>
      </trkpt>
      <trkpt lat="49.88886" lon="2.30288">
        <ele>41.6</ele>
        <time>2023-06-03T11:58:59Z</time>
      </trkpt>
      <trkpt lat="49.88887" lon="2.30288">
        <ele>41.6</ele>
        <time>2023-06-03T11:59:01Z</time>
      </trkpt>
      <trkpt lat="49.88888" lon="2.30288">
        <ele>41.5</ele>
        <time>2023-06-03T11:59:02Z</time>
      </trkpt>
      <trkpt lat="49.88889" lon="2.30288">
        <ele>41.5</ele>
        <time>2023-06-03T11:59:03Z</time>
      </trkpt>
      <trkpt lat="49.8889" lon="2.30288">
        <ele>41.5</ele>
        <time>2023-06-03T11:59:04Z</time>
      </trkpt>
      <trkpt lat="49.88892" lon="2.30288">
        <ele>41.4</ele>
        <time>2023-06-03T11:59:05Z</time>
      </trkpt>
      <trkpt lat="49.88893" lon="2.30287">
        <ele>41.4</ele>
        <time>2023-06-03T11:59:06Z</time>
      </trkpt>
      <trkpt lat="49.88894" lon="2.30287">
        <ele>41.4</ele>
        <time>2023-06-03T11:59:07Z</time>
      </trkpt>
      <trkpt lat="49.88895" lon="2.30287">
        <ele>41.4</ele>
        <time>2023-06-03T11:59:08Z</time>
      </trkpt>
      <trkpt lat="49.88896" lon="2.30285">
        <ele>41.4</ele>
        <time>2023-06-03T11:59:10Z</time>
      </trkpt>
      <trkpt lat="49.88895" lon="2.30284">
        <ele>41.3</ele>
        <time>2023-06-03T11:59:11Z</time>
      </trkpt>
      <trkpt lat="49.88895" lon="2.30283">
        <ele>41.3</ele>
        <time>2023-06-03T11:59:12Z</time>
      </trkpt>
      <trkpt lat="49.88896" lon="2.30283">
        <ele>41.3</ele>
        <time>2023-06-03T11:59:13Z</time>
      </trkpt>
      <trkpt lat="49.88897" lon="2.30285">
        <ele>41.3</ele>
        <time>2023-06-03T11:59:15Z</time>
      </trkpt>
      <trkpt lat="49.88898" lon="2.30286">
        <ele>41.3</ele>
        <time>2023-06-03T11:59:16Z</time>
      </trkpt>
      <trkpt lat="49.88899" lon="2.30287">
        <ele>41.2</ele>
        <time>2023-06-03T11:59:17Z</time>
      </trkpt>
      <trkpt lat="49.88901" lon="2.30289">
        <ele>41.2</ele>
        <time>2023-06-03T11:59:18Z</time>
      </trkpt>
      <trkpt lat="49.88901" lon="2.30289">
        <ele>41.2</ele>
        <time>2023-06-03T11:59:19Z</time>
      </trkpt>
      <trkpt lat="49.88902" lon="2.30289">
        <ele>41.2</ele>
        <time>2023-06-03T11:59:20Z</time>
      </trkpt>
      <trkpt lat="49.88903" lon="2.3029">
        <ele>41.1</ele>
        <time>2023-06-03T11:59:21Z</time>
      </trkpt>
      <trkpt lat="49.88905" lon="2.30291">
        <ele>41.1</ele>
        <time>2023-06-03T11:59:23Z</time>
      </trkpt>
      <trkpt lat="49.88907" lon="2.30291">
        <ele>41.1</ele>
        <time>2023-06-03T11:59:24Z</time>
      </trkpt>
      <trkpt lat="49.88908" lon="2.30291">
        <ele>41.1</ele>
        <time>2023-06-03T11:59:25Z</time>
      </trkpt>
      <trkpt lat="49.8891" lon="2.3029">
        <ele>41</ele>
        <time>2023-06-03T11:59:27Z</time>
      </trkpt>
      <trkpt lat="49.88912" lon="2.30289">
        <ele>41</ele>
        <time>2023-06-03T11:59:28Z</time>
      </trkpt>
      <trkpt lat="49.88913" lon="2.30289">
        <ele>41</ele>
        <time>2023-06-03T11:59:29Z</time>
      </trkpt>
      <trkpt lat="49.88915" lon="2.30288">
        <ele>40.9</ele>
        <time>2023-06-03T11:59:31Z</time>
      </trkpt>
      <trkpt lat="49.88916" lon="2.30287">
        <ele>40.9</ele>
        <time>2023-06-03T11:59:32Z</time>
      </trkpt>
      <trkpt lat="49.88918" lon="2.30286">
        <ele>40.9</ele>
        <time>2023-06-03T11:59:33Z</time>
      </trkpt>
      <trkpt lat="49.88919" lon="2.30286">
        <ele>40.9</ele>
        <time>2023-06-03T11:59:34Z</time>
      </trkpt>
      <trkpt lat="49.88922" lon="2.30284">
        <ele>40.8</ele>
        <time>2023-06-03T11:59:36Z</time>
      </trkpt>
      <trkpt lat="49.88923" lon="2.30284">
        <ele>40.8</ele>
        <time>2023-06-03T11:59:37Z</time>
      </trkpt>
      <trkpt lat="49.88925" lon="2.30283">
        <ele>40.8</ele>
        <time>2023-06-03T11:59:38Z</time>
      </trkpt>
      <trkpt lat="49.88928" lon="2.30283">
        <ele>40.7</ele>
        <time>2023-06-03T11:59:40Z</time>
      </trkpt>
      <trkpt lat="49.8893" lon="2.30282">
        <ele>40.7</ele>
        <time>2023-06-03T11:59:41Z</time>
      </trkpt>
      <trkpt lat="49.88932" lon="2.30282">
        <ele>40.7</ele>
        <time>2023-06-03T11:59:43Z</time>
      </trkpt>
      <trkpt lat="49.88935" lon="2.30282">
        <ele>40.6</ele>
        <time>2023-06-03T11:59:44Z</time>
      </trkpt>
      <trkpt lat="49.88936" lon="2.30282">
        <ele>40.6</ele>
        <time>2023-06-03T11:59:45Z</time>
      </trkpt>
      <trkpt lat="49.88938" lon="2.30283">
        <ele>40.6</ele>
        <time>2023-06-03T11:59:47Z</time>
      </trkpt>
      <trkpt lat="49.88939" lon="2.30283">
        <ele>40.6</ele>
        <time>2023-06-03T11:59:48Z</time>
      </trkpt>
      <trkpt lat="49.88942" lon="2.30282">
        <ele>40.5</ele>
        <time>2023-06-03T11:59:50Z</time>
      </trkpt>
      <trkpt lat="49.88943" lon="2.30282">
        <ele>40.5</ele>
        <time>2023-06-03T11:59:51Z</time>
      </trkpt>
      <trkpt lat="49.88944" lon="2.30282">
        <ele>40.5</ele>
        <time>2023-06-03T11:59:52Z</time>
      </trkpt>
      <trkpt lat="49.88947" lon="2.30282">
        <ele>40.5</ele>
        <time>2023-06-03T11:59:54Z</time>
      </trkpt>
      <trkpt lat="49.88948" lon="2.30282">
        <ele>40.4</ele>
        <time>2023-06-03T11:59:55Z</time>
      </trkpt>
      <trkpt lat="49.88949" lon="2.30283">
        <ele>40.4</ele>
        <time>2023-06-03T11:59:56Z</time>
      </trkpt>
      <trkpt lat="49.88951" lon="2.30282">
        <ele>40.4</ele>
        <time>2023-06-03T11:59:58Z</time>
      </trkpt>
      <trkpt lat="49.88953" lon="2.30282">
        <ele>40.4</ele>
        <time>2023-06-03T11:59:59Z</time>
      </trkpt>
      <trkpt lat="49.88954" lon="2.30282">
        <ele>40.4</ele>
        <time>2023-06-03T12:00:01Z</time>
      </trkpt>
      <trkpt lat="49.88956" lon="2.30282">
        <ele>40.3</ele>
        <time>2023-06-03T12:00:02Z</time>
      </trkpt>
      <trkpt lat="49.88958" lon="2.3028">
        <ele>40.3</ele>
        <time>2023-06-03T12:00:03Z</time>
      </trkpt>
      <trkpt lat="49.8896" lon="2.30279">
        <ele>40.3</ele>
        <time>2023-06-03T12:00:05Z</time>
      </trkpt>
      <trkpt lat="49.88961" lon="2.30279">
        <ele>40.3</ele>
        <time>2023-06-03T12:00:06Z</time>
      </trkpt>
      <trkpt lat="49.88962" lon="2.30278">
        <ele>40.3</ele>
        <time>2023-06-03T12:00:07Z</time>
      </trkpt>
      <trkpt lat="49.88964" lon="2.30277">
        <ele>40.3</ele>
        <time>2023-06-03T12:00:09Z</time>
      </trkpt>
      <trkpt lat="49.88965" lon="2.30276">
        <ele>40.3</ele>
        <time>2023-06-03T12:00:11Z</time>
      </trkpt>
      <trkpt lat="49.88968" lon="2.30274">
        <ele>40.2</ele>
        <time>2023-06-03T12:00:13Z</time>
      </trkpt>
      <trkpt lat="49.88969" lon="2.30273">
        <ele>40.2</ele>
        <time>2023-06-03T12:00:14Z</time>
      </trkpt>
      <trkpt lat="49.8897" lon="2.30273">
        <ele>40.2</ele>
        <time>2023-06-03T12:00:15Z</time>
      </trkpt>
      <trkpt lat="49.88972" lon="2.30274">
        <ele>40.2</ele>
        <time>2023-06-03T12:00:16Z</time>
      </trkpt>
      <trkpt lat="49.88973" lon="2.30274">
        <ele>40.2</ele>
        <time>2023-06-03T12:00:17Z</time>
      </trkpt>
      <trkpt lat="49.88973" lon="2.30275">
        <ele>40.2</ele>
        <time>2023-06-03T12:00:18Z</time>
      </trkpt>
      <trkpt lat="49.88973" lon="2.30276">
        <ele>40.2</ele>
        <time>2023-06-03T12:00:19Z</time>
      </trkpt>
      <trkpt lat="49.88972" lon="2.30277">
        <ele>40.1</ele>
        <time>2023-06-03T12:00:20Z</time>
      </trkpt>
      <trkpt lat="49.88972" lon="2.30276">
        <ele>40.1</ele>
        <time>2023-06-03T12:00:21Z</time>
      </trkpt>
      <trkpt lat="49.88973" lon="2.30276">
        <ele>40.1</ele>
        <time>2023-06-03T12:00:23Z</time>
      </trkpt>
      <trkpt lat="49.88975" lon="2.30276">
        <ele>40.1</ele>
        <time>2023-06-03T12:00:24Z</time>
      </trkpt>
      <trkpt lat="49.88976" lon="2.30276">
        <ele>40.1</ele>
        <time>2023-06-03T12:00:25Z</time>
      </trkpt>
      <trkpt lat="49.88978" lon="2.30277">
        <ele>40.1</ele>
        <time>2023-06-03T12:00:27Z</time>
      </trkpt>
      <trkpt lat="49.88979" lon="2.30277">
        <ele>40.1</ele>
        <time>2023-06-03T12:00:28Z</time>
      </trkpt>
      <trkpt lat="49.88981" lon="2.30278">
        <ele>40.1</ele>
        <time>2023-06-03T12:00:29Z</time>
      </trkpt>
      <trkpt lat="49.88984" lon="2.30278">
        <ele>40</ele>
        <time>2023-06-03T12:00:31Z</time>
      </trkpt>
      <trkpt lat="49.88985" lon="2.30278">
        <ele>40</ele>
        <time>2023-06-03T12:00:32Z</time>
      </trkpt>
      <trkpt lat="49.88986" lon="2.30277">
        <ele>40</ele>
        <time>2023-06-03T12:00:33Z</time>
      </trkpt>
      <trkpt lat="49.88988" lon="2.30276">
        <ele>40</ele>
        <time>2023-06-03T12:00:35Z</time>
      </trkpt>
      <trkpt lat="49.8899" lon="2.30275">
        <ele>40</ele>
        <time>2023-06-03T12:00:36Z</time>
      </trkpt>
      <trkpt lat="49.88993" lon="2.30274">
        <ele>39.9</ele>
        <time>2023-06-03T12:00:38Z</time>
      </trkpt>
      <trkpt lat="49.88994" lon="2.30273">
        <ele>39.9</ele>
        <time>2023-06-03T12:00:39Z</time>
      </trkpt>
      <trkpt lat="49.88997" lon="2.30272">
        <ele>39.9</ele>
        <time>2023-06-03T12:00:40Z</time>
      </trkpt>
      <trkpt lat="49.88998" lon="2.30272">
        <ele>39.9</ele>
        <time>2023-06-03T12:00:41Z</time>
      </trkpt>
      <trkpt lat="49.89002" lon="2.30271">
        <ele>39.8</ele>
        <time>2023-06-03T12:00:42Z</time>
      </trkpt>
      <trkpt lat="49.89003" lon="2.3027">
        <ele>39.8</ele>
        <time>2023-06-03T12:00:43Z</time>
      </trkpt>
      <trkpt lat="49.89006" lon="2.30269">
        <ele>39.8</ele>
        <time>2023-06-03T12:00:44Z</time>
      </trkpt>
      <trkpt lat="49.89007" lon="2.30268">
        <ele>39.8</ele>
        <time>2023-06-03T12:00:45Z</time>
      </trkpt>
      <trkpt lat="49.8901" lon="2.30267">
        <ele>39.8</ele>
        <time>2023-06-03T12:00:46Z</time>
      </trkpt>
      <trkpt lat="49.89013" lon="2.30265">
        <ele>39.7</ele>
        <time>2023-06-03T12:00:48Z</time>
      </trkpt>
      <trkpt lat="49.89014" lon="2.30265">
        <ele>39.7</ele>
        <time>2023-06-03T12:00:49Z</time>
      </trkpt>
      <trkpt lat="49.89016" lon="2.30264">
        <ele>39.7</ele>
        <time>2023-06-03T12:00:50Z</time>
      </trkpt>
      <trkpt lat="49.89017" lon="2.30263">
        <ele>39.7</ele>
        <time>2023-06-03T12:00:51Z</time>
      </trkpt>
      <trkpt lat="49.89019" lon="2.30263">
        <ele>39.7</ele>
        <time>2023-06-03T12:00:52Z</time>
      </trkpt>
      <trkpt lat="49.89021" lon="2.30262">
        <ele>39.6</ele>
        <time>2023-06-03T12:00:53Z</time>
      </trkpt>
      <trkpt lat="49.89024" lon="2.30262">
        <ele>39.6</ele>
        <time>2023-06-03T12:00:54Z</time>
      </trkpt>
      <trkpt lat="49.89025" lon="2.30261">
        <ele>39.6</ele>
        <time>2023-06-03T12:00:56Z</time>
      </trkpt>
      <trkpt lat="49.89027" lon="2.30261">
        <ele>39.6</ele>
        <time>2023-06-03T12:00:57Z</time>
      </trkpt>
      <trkpt lat="49.89028" lon="2.3026">
        <ele>39.5</ele>
        <time>2023-06-03T12:00:58Z</time>
      </trkpt>
      <trkpt lat="49.89031" lon="2.30259">
        <ele>39.5</ele>
        <time>2023-06-03T12:00:59Z</time>
      </trkpt>
      <trkpt lat="49.89032" lon="2.30259">
        <ele>39.5</ele>
        <time>2023-06-03T12:01:00Z</time>
      </trkpt>
      <trkpt lat="49.89035" lon="2.30257">
        <ele>39.4</ele>
        <time>2023-06-03T12:01:01Z</time>
      </trkpt>
      <trkpt lat="49.89035" lon="2.30257">
        <ele>39.4</ele>
        <time>2023-06-03T12:01:02Z</time>
      </trkpt>
      <trkpt lat="49.8904" lon="2.30255">
        <ele>39.3</ele>
        <time>2023-06-03T12:01:04Z</time>
      </trkpt>
      <trkpt lat="49.89042" lon="2.30255">
        <ele>39.2</ele>
        <time>2023-06-03T12:01:05Z</time>
      </trkpt>
      <trkpt lat="49.89043" lon="2.30255">
        <ele>39.2</ele>
        <time>2023-06-03T12:01:06Z</time>
      </trkpt>
      <trkpt lat="49.89046" lon="2.30253">
        <ele>39.1</ele>
        <time>2023-06-03T12:01:08Z</time>
      </trkpt>
      <trkpt lat="49.89047" lon="2.30253">
        <ele>39.1</ele>
        <time>2023-06-03T12:01:09Z</time>
      </trkpt>
      <trkpt lat="49.89049" lon="2.30252">
        <ele>39.1</ele>
        <time>2023-06-03T12:01:10Z</time>
      </trkpt>
      <trkpt lat="49.8905" lon="2.30252">
        <ele>39.1</ele>
        <time>2023-06-03T12:01:11Z</time>
      </trkpt>
      <trkpt lat="49.89051" lon="2.30252">
        <ele>39.1</ele>
        <time>2023-06-03T12:01:12Z</time>
      </trkpt>
      <trkpt lat="49.8905" lon="2.30252">
        <ele>39.1</ele>
        <time>2023-06-03T12:01:13Z</time>
      </trkpt>
      <trkpt lat="49.8905" lon="2.30252">
        <ele>39.1</ele>
        <time>2023-06-03T12:01:14Z</time>
      </trkpt>
      <trkpt lat="49.89052" lon="2.30251">
        <ele>39.1</ele>
        <time>2023-06-03T12:01:16Z</time>
      </trkpt>
      <trkpt lat="49.89053" lon="2.30251">
        <ele>39</ele>
        <time>2023-06-03T12:01:17Z</time>
      </trkpt>
      <trkpt lat="49.89054" lon="2.30251">
        <ele>39</ele>
        <time>2023-06-03T12:01:19Z</time>
      </trkpt>
      <trkpt lat="49.89056" lon="2.3025">
        <ele>39</ele>
        <time>2023-06-03T12:01:20Z</time>
      </trkpt>
      <trkpt lat="49.89057" lon="2.3025">
        <ele>39</ele>
        <time>2023-06-03T12:01:22Z</time>
      </trkpt>
      <trkpt lat="49.89058" lon="2.30249">
        <ele>39</ele>
        <time>2023-06-03T12:01:23Z</time>
      </trkpt>
      <trkpt lat="49.8906" lon="2.30249">
        <ele>39</ele>
        <time>2023-06-03T12:01:24Z</time>
      </trkpt>
      <trkpt lat="49.89062" lon="2.30247">
        <ele>39</ele>
        <time>2023-06-03T12:01:25Z</time>
      </trkpt>
      <trkpt lat="49.89063" lon="2.30247">
        <ele>39</ele>
        <time>2023-06-03T12:01:27Z</time>
      </trkpt>
      <trkpt lat="49.89064" lon="2.30246">
        <ele>38.9</ele>
        <time>2023-06-03T12:01:28Z</time>
      </trkpt>
      <trkpt lat="49.89065" lon="2.30246">
        <ele>38.9</ele>
        <time>2023-06-03T12:01:29Z</time>
      </trkpt>
      <trkpt lat="49.89066" lon="2.30245">
        <ele>38.9</ele>
        <time>2023-06-03T12:01:30Z</time>
      </trkpt>
      <trkpt lat="49.89069" lon="2.30243">
        <ele>38.9</ele>
        <time>2023-06-03T12:01:31Z</time>
      </trkpt>
      <trkpt lat="49.8907" lon="2.30243">
        <ele>38.9</ele>
        <time>2023-06-03T12:01:32Z</time>
      </trkpt>
      <trkpt lat="49.89071" lon="2.30242">
        <ele>38.9</ele>
        <time>2023-06-03T12:01:34Z</time>
      </trkpt>
      <trkpt lat="49.89072" lon="2.30242">
        <ele>38.9</ele>
        <time>2023-06-03T12:01:35Z</time>
      </trkpt>
      <trkpt lat="49.89073" lon="2.30241">
        <ele>38.9</ele>
        <time>2023-06-03T12:01:36Z</time>
      </trkpt>
      <trkpt lat="49.89074" lon="2.30241">
        <ele>38.8</ele>
        <time>2023-06-03T12:01:37Z</time>
      </trkpt>
      <trkpt lat="49.89075" lon="2.30241">
        <ele>38.8</ele>
        <time>2023-06-03T12:01:38Z</time>
      </trkpt>
      <trkpt lat="49.89077" lon="2.3024">
        <ele>38.8</ele>
        <time>2023-06-03T12:01:40Z</time>
      </trkpt>
      <trkpt lat="49.89078" lon="2.3024">
        <ele>38.8</ele>
        <time>2023-06-03T12:01:41Z</time>
      </trkpt>
      <trkpt lat="49.89079" lon="2.3024">
        <ele>38.8</ele>
        <time>2023-06-03T12:01:42Z</time>
      </trkpt>
      <trkpt lat="49.89081" lon="2.30239">
        <ele>38.8</ele>
        <time>2023-06-03T12:01:44Z</time>
      </trkpt>
      <trkpt lat="49.89083" lon="2.30238">
        <ele>38.8</ele>
        <time>2023-06-03T12:01:45Z</time>
      </trkpt>
      <trkpt lat="49.89084" lon="2.30238">
        <ele>38.8</ele>
        <time>2023-06-03T12:01:46Z</time>
      </trkpt>
      <trkpt lat="49.89084" lon="2.30238">
        <ele>38.7</ele>
        <time>2023-06-03T12:01:48Z</time>
      </trkpt>
      <trkpt lat="49.89086" lon="2.30237">
        <ele>38.7</ele>
        <time>2023-06-03T12:01:49Z</time>
      </trkpt>
      <trkpt lat="49.89087" lon="2.30237">
        <ele>38.7</ele>
        <time>2023-06-03T12:01:50Z</time>
      </trkpt>
      <trkpt lat="49.89088" lon="2.30237">
        <ele>38.7</ele>
        <time>2023-06-03T12:01:51Z</time>
      </trkpt>
      <trkpt lat="49.89089" lon="2.30237">
        <ele>38.7</ele>
        <time>2023-06-03T12:01:52Z</time>
      </trkpt>
      <trkpt lat="49.8909" lon="2.30237">
        <ele>38.7</ele>
        <time>2023-06-03T12:01:53Z</time>
      </trkpt>
      <trkpt lat="49.89091" lon="2.30237">
        <ele>38.7</ele>
        <time>2023-06-03T12:01:54Z</time>
      </trkpt>
      <trkpt lat="49.89092" lon="2.30237">
        <ele>38.7</ele>
        <time>2023-06-03T12:01:55Z</time>
      </trkpt>
      <trkpt lat="49.89093" lon="2.30237">
        <ele>38.6</ele>
        <time>2023-06-03T12:01:57Z</time>
      </trkpt>
      <trkpt lat="49.89094" lon="2.30236">
        <ele>38.6</ele>
        <time>2023-06-03T12:01:58Z</time>
      </trkpt>
      <trkpt lat="49.89096" lon="2.30236">
        <ele>38.6</ele>
        <time>2023-06-03T12:01:59Z</time>
      </trkpt>
      <trkpt lat="49.89097" lon="2.30235">
        <ele>38.6</ele>
        <time>2023-06-03T12:02:00Z</time>
      </trkpt>
      <trkpt lat="49.89099" lon="2.30235">
        <ele>38.6</ele>
        <time>2023-06-03T12:02:01Z</time>
      </trkpt>
      <trkpt lat="49.891" lon="2.30235">
        <ele>38.6</ele>
        <time>2023-06-03T12:02:02Z</time>
      </trkpt>
      <trkpt lat="49.89102" lon="2.30235">
        <ele>38.5</ele>
        <time>2023-06-03T12:02:03Z</time>
      </trkpt>
      <trkpt lat="49.89103" lon="2.30235">
        <ele>38.5</ele>
        <time>2023-06-03T12:02:04Z</time>
      </trkpt>
      <trkpt lat="49.89106" lon="2.30236">
        <ele>38.5</ele>
        <time>2023-06-03T12:02:06Z</time>
      </trkpt>
      <trkpt lat="49.89107" lon="2.30237">
        <ele>38.5</ele>
        <time>2023-06-03T12:02:07Z</time>
      </trkpt>
      <trkpt lat="49.89108" lon="2.30238">
        <ele>38.5</ele>
        <time>2023-06-03T12:02:08Z</time>
      </trkpt>
      <trkpt lat="49.8911" lon="2.30239">
        <ele>38.5</ele>
        <time>2023-06-03T12:02:09Z</time>
      </trkpt>
      <trkpt lat="49.89115" lon="2.30239">
        <ele>38.4</ele>
        <time>2023-06-03T12:02:11Z</time>
      </trkpt>
      <trkpt lat="49.89116" lon="2.30239">
        <ele>38.4</ele>
        <time>2023-06-03T12:02:12Z</time>
      </trkpt>
      <trkpt lat="49.89117" lon="2.30239">
        <ele>38.4</ele>
        <time>2023-06-03T12:02:13Z</time>
      </trkpt>
      <trkpt lat="49.89122" lon="2.30238">
        <ele>38.4</ele>
        <time>2023-06-03T12:02:15Z</time>
      </trkpt>
      <trkpt lat="49.89123" lon="2.30238">
        <ele>38.4</ele>
        <time>2023-06-03T12:02:16Z</time>
      </trkpt>
      <trkpt lat="49.89124" lon="2.30238">
        <ele>38.4</ele>
        <time>2023-06-03T12:02:17Z</time>
      </trkpt>
      <trkpt lat="49.89126" lon="2.30237">
        <ele>38.4</ele>
        <time>2023-06-03T12:02:18Z</time>
      </trkpt>
      <trkpt lat="49.89128" lon="2.30236">
        <ele>38.4</ele>
        <time>2023-06-03T12:02:20Z</time>
      </trkpt>
      <trkpt lat="49.89132" lon="2.30235">
        <ele>38.3</ele>
        <time>2023-06-03T12:02:21Z</time>
      </trkpt>
      <trkpt lat="49.89133" lon="2.30235">
        <ele>38.3</ele>
        <time>2023-06-03T12:02:22Z</time>
      </trkpt>
      <trkpt lat="49.89136" lon="2.30233">
        <ele>38.3</ele>
        <time>2023-06-03T12:02:24Z</time>
      </trkpt>
      <trkpt lat="49.89138" lon="2.30233">
        <ele>38.3</ele>
        <time>2023-06-03T12:02:25Z</time>
      </trkpt>
      <trkpt lat="49.89141" lon="2.30232">
        <ele>38.3</ele>
        <time>2023-06-03T12:02:26Z</time>
      </trkpt>
      <trkpt lat="49.89142" lon="2.30231">
        <ele>38.3</ele>
        <time>2023-06-03T12:02:28Z</time>
      </trkpt>
      <trkpt lat="49.89144" lon="2.30231">
        <ele>38.3</ele>
        <time>2023-06-03T12:02:29Z</time>
      </trkpt>
      <trkpt lat="49.89146" lon="2.3023">
        <ele>38.3</ele>
        <time>2023-06-03T12:02:30Z</time>
      </trkpt>
      <trkpt lat="49.89147" lon="2.30229">
        <ele>38.3</ele>
        <time>2023-06-03T12:02:32Z</time>
      </trkpt>
      <trkpt lat="49.89148" lon="2.30228">
        <ele>38.3</ele>
        <time>2023-06-03T12:02:33Z</time>
      </trkpt>
      <trkpt lat="49.8915" lon="2.30226">
        <ele>38.3</ele>
        <time>2023-06-03T12:02:34Z</time>
      </trkpt>
      <trkpt lat="49.89151" lon="2.30225">
        <ele>38.3</ele>
        <time>2023-06-03T12:02:35Z</time>
      </trkpt>
      <trkpt lat="49.89152" lon="2.30224">
        <ele>38.3</ele>
        <time>2023-06-03T12:02:36Z</time>
      </trkpt>
      <trkpt lat="49.89153" lon="2.30222">
        <ele>38.3</ele>
        <time>2023-06-03T12:02:37Z</time>
      </trkpt>
      <trkpt lat="49.89155" lon="2.3022">
        <ele>38.3</ele>
        <time>2023-06-03T12:02:39Z</time>
      </trkpt>
      <trkpt lat="49.89156" lon="2.30219">
        <ele>38.3</ele>
        <time>2023-06-03T12:02:40Z</time>
      </trkpt>
      <trkpt lat="49.89157" lon="2.30218">
        <ele>38.3</ele>
        <time>2023-06-03T12:02:41Z</time>
      </trkpt>
      <trkpt lat="49.89159" lon="2.30216">
        <ele>38.4</ele>
        <time>2023-06-03T12:02:42Z</time>
      </trkpt>
      <trkpt lat="49.8916" lon="2.30214">
        <ele>38.4</ele>
        <time>2023-06-03T12:02:43Z</time>
      </trkpt>
      <trkpt lat="49.89161" lon="2.30212">
        <ele>38.4</ele>
        <time>2023-06-03T12:02:44Z</time>
      </trkpt>
      <trkpt lat="49.89162" lon="2.30211">
        <ele>38.4</ele>
        <time>2023-06-03T12:02:45Z</time>
      </trkpt>
      <trkpt lat="49.89163" lon="2.30208">
        <ele>38.4</ele>
        <time>2023-06-03T12:02:47Z</time>
      </trkpt>
      <trkpt lat="49.89165" lon="2.30206">
        <ele>38.4</ele>
        <time>2023-06-03T12:02:48Z</time>
      </trkpt>
      <trkpt lat="49.89166" lon="2.30203">
        <ele>38.4</ele>
        <time>2023-06-03T12:02:49Z</time>
      </trkpt>
      <trkpt lat="49.89168" lon="2.30199">
        <ele>38.4</ele>
        <time>2023-06-03T12:02:51Z</time>
      </trkpt>
      <trkpt lat="49.89168" lon="2.30198">
        <ele>38.4</ele>
        <time>2023-06-03T12:02:52Z</time>
      </trkpt>
      <trkpt lat="49.89168" lon="2.30197">
        <ele>38.4</ele>
        <time>2023-06-03T12:02:53Z</time>
      </trkpt>
      <trkpt lat="49.89168" lon="2.30196">
        <ele>38.4</ele>
        <time>2023-06-03T12:02:55Z</time>
      </trkpt>
      <trkpt lat="49.8917" lon="2.30194">
        <ele>38.4</ele>
        <time>2023-06-03T12:02:56Z</time>
      </trkpt>
      <trkpt lat="49.89171" lon="2.30192">
        <ele>38.4</ele>
        <time>2023-06-03T12:02:57Z</time>
      </trkpt>
      <trkpt lat="49.89172" lon="2.3019">
        <ele>38.4</ele>
        <time>2023-06-03T12:02:58Z</time>
      </trkpt>
      <trkpt lat="49.89174" lon="2.30187">
        <ele>38.4</ele>
        <time>2023-06-03T12:02:59Z</time>
      </trkpt>
      <trkpt lat="49.89174" lon="2.30186">
        <ele>38.4</ele>
        <time>2023-06-03T12:03:00Z</time>
      </trkpt>
      <trkpt lat="49.89175" lon="2.30184">
        <ele>38.4</ele>
        <time>2023-06-03T12:03:01Z</time>
      </trkpt>
      <trkpt lat="49.89177" lon="2.30182">
        <ele>38.4</ele>
        <time>2023-06-03T12:03:03Z</time>
      </trkpt>
      <trkpt lat="49.89178" lon="2.30181">
        <ele>38.4</ele>
        <time>2023-06-03T12:03:04Z</time>
      </trkpt>
      <trkpt lat="49.89178" lon="2.30179">
        <ele>38.4</ele>
        <time>2023-06-03T12:03:05Z</time>
      </trkpt>
      <trkpt lat="49.8918" lon="2.30175">
        <ele>38.4</ele>
        <time>2023-06-03T12:03:06Z</time>
      </trkpt>
      <trkpt lat="49.8918" lon="2.30174">
        <ele>38.4</ele>
        <time>2023-06-03T12:03:07Z</time>
      </trkpt>
      <trkpt lat="49.89181" lon="2.30172">
        <ele>38.4</ele>
        <time>2023-06-03T12:03:08Z</time>
      </trkpt>
      <trkpt lat="49.89181" lon="2.30169">
        <ele>38.4</ele>
        <time>2023-06-03T12:03:10Z</time>
      </trkpt>
      <trkpt lat="49.89182" lon="2.30167">
        <ele>38.4</ele>
        <time>2023-06-03T12:03:11Z</time>
      </trkpt>
      <trkpt lat="49.89182" lon="2.30165">
        <ele>38.4</ele>
        <time>2023-06-03T12:03:12Z</time>
      </trkpt>
      <trkpt lat="49.89183" lon="2.30163">
        <ele>38.4</ele>
        <time>2023-06-03T12:03:13Z</time>
      </trkpt>
      <trkpt lat="49.89184" lon="2.30161">
        <ele>38.4</ele>
        <time>2023-06-03T12:03:14Z</time>
      </trkpt>
      <trkpt lat="49.89186" lon="2.30157">
        <ele>38.4</ele>
        <time>2023-06-03T12:03:15Z</time>
      </trkpt>
      <trkpt lat="49.89187" lon="2.30155">
        <ele>38.4</ele>
        <time>2023-06-03T12:03:16Z</time>
      </trkpt>
      <trkpt lat="49.89187" lon="2.30153">
        <ele>38.4</ele>
        <time>2023-06-03T12:03:17Z</time>
      </trkpt>
      <trkpt lat="49.89188" lon="2.3015">
        <ele>38.4</ele>
        <time>2023-06-03T12:03:18Z</time>
      </trkpt>
      <trkpt lat="49.89188" lon="2.30146">
        <ele>38.4</ele>
        <time>2023-06-03T12:03:20Z</time>
      </trkpt>
      <trkpt lat="49.89189" lon="2.30144">
        <ele>38.4</ele>
        <time>2023-06-03T12:03:21Z</time>
      </trkpt>
      <trkpt lat="49.89189" lon="2.30142">
        <ele>38.4</ele>
        <time>2023-06-03T12:03:22Z</time>
      </trkpt>
      <trkpt lat="49.89189" lon="2.30139">
        <ele>38.4</ele>
        <time>2023-06-03T12:03:23Z</time>
      </trkpt>
      <trkpt lat="49.89189" lon="2.30135">
        <ele>38.4</ele>
        <time>2023-06-03T12:03:24Z</time>
      </trkpt>
      <trkpt lat="49.8919" lon="2.30133">
        <ele>38.4</ele>
        <time>2023-06-03T12:03:25Z</time>
      </trkpt>
      <trkpt lat="49.8919" lon="2.30131">
        <ele>38.4</ele>
        <time>2023-06-03T12:03:26Z</time>
      </trkpt>
      <trkpt lat="49.8919" lon="2.30128">
        <ele>38.4</ele>
        <time>2023-06-03T12:03:27Z</time>
      </trkpt>
      <trkpt lat="49.89191" lon="2.30125">
        <ele>38.4</ele>
        <time>2023-06-03T12:03:28Z</time>
      </trkpt>
      <trkpt lat="49.89191" lon="2.3012">
        <ele>38.4</ele>
        <time>2023-06-03T12:03:30Z</time>
      </trkpt>
      <trkpt lat="49.89192" lon="2.30116">
        <ele>38.3</ele>
        <time>2023-06-03T12:03:31Z</time>
      </trkpt>
      <trkpt lat="49.89192" lon="2.30115">
        <ele>38.3</ele>
        <time>2023-06-03T12:03:32Z</time>
      </trkpt>
      <trkpt lat="49.89193" lon="2.30112">
        <ele>38.3</ele>
        <time>2023-06-03T12:03:34Z</time>
      </trkpt>
      <trkpt lat="49.89193" lon="2.3011">
        <ele>38.3</ele>
        <time>2023-06-03T12:03:35Z</time>
      </trkpt>
      <trkpt lat="49.89194" lon="2.30105">
        <ele>38.3</ele>
        <time>2023-06-03T12:03:36Z</time>
      </trkpt>
      <trkpt lat="49.89195" lon="2.30101">
        <ele>38.3</ele>
        <time>2023-06-03T12:03:37Z</time>
      </trkpt>
      <trkpt lat="49.89195" lon="2.30099">
        <ele>38.3</ele>
        <time>2023-06-03T12:03:39Z</time>
      </trkpt>
      <trkpt lat="49.89196" lon="2.30097">
        <ele>38.3</ele>
        <time>2023-06-03T12:03:40Z</time>
      </trkpt>
      <trkpt lat="49.89197" lon="2.30095">
        <ele>38.3</ele>
        <time>2023-06-03T12:03:41Z</time>
      </trkpt>
      <trkpt lat="49.89198" lon="2.30093">
        <ele>38.3</ele>
        <time>2023-06-03T12:03:42Z</time>
      </trkpt>
      <trkpt lat="49.89198" lon="2.30091">
        <ele>38.3</ele>
        <time>2023-06-03T12:03:44Z</time>
      </trkpt>
      <trkpt lat="49.89199" lon="2.3009">
        <ele>38.3</ele>
        <time>2023-06-03T12:03:45Z</time>
      </trkpt>
      <trkpt lat="49.892" lon="2.30089">
        <ele>38.3</ele>
        <time>2023-06-03T12:03:46Z</time>
      </trkpt>
      <trkpt lat="49.892" lon="2.30087">
        <ele>38.3</ele>
        <time>2023-06-03T12:03:47Z</time>
      </trkpt>
      <trkpt lat="49.89201" lon="2.30085">
        <ele>38.3</ele>
        <time>2023-06-03T12:03:48Z</time>
      </trkpt>
      <trkpt lat="49.89201" lon="2.30084">
        <ele>38.3</ele>
        <time>2023-06-03T12:03:49Z</time>
      </trkpt>
      <trkpt lat="49.89201" lon="2.30083">
        <ele>38.3</ele>
        <time>2023-06-03T12:03:50Z</time>
      </trkpt>
      <trkpt lat="49.89201" lon="2.30082">
        <ele>38.3</ele>
        <time>2023-06-03T12:03:52Z</time>
      </trkpt>
      <trkpt lat="49.89201" lon="2.3008">
        <ele>38.2</ele>
        <time>2023-06-03T12:03:53Z</time>
      </trkpt>
      <trkpt lat="49.89202" lon="2.30078">
        <ele>38.2</ele>
        <time>2023-06-03T12:03:54Z</time>
      </trkpt>
      <trkpt lat="49.89203" lon="2.30075">
        <ele>38.2</ele>
        <time>2023-06-03T12:03:55Z</time>
      </trkpt>
      <trkpt lat="49.89203" lon="2.30074">
        <ele>38.2</ele>
        <time>2023-06-03T12:03:56Z</time>
      </trkpt>
      <trkpt lat="49.89203" lon="2.30072">
        <ele>38.2</ele>
        <time>2023-06-03T12:03:57Z</time>
      </trkpt>
      <trkpt lat="49.89204" lon="2.30069">
        <ele>38.2</ele>
        <time>2023-06-03T12:03:58Z</time>
      </trkpt>
      <trkpt lat="49.89204" lon="2.30067">
        <ele>38.2</ele>
        <time>2023-06-03T12:04:00Z</time>
      </trkpt>
      <trkpt lat="49.89204" lon="2.30065">
        <ele>38.2</ele>
        <time>2023-06-03T12:04:01Z</time>
      </trkpt>
      <trkpt lat="49.89204" lon="2.30063">
        <ele>38.2</ele>
        <time>2023-06-03T12:04:02Z</time>
      </trkpt>
      <trkpt lat="49.89204" lon="2.30062">
        <ele>38.2</ele>
        <time>2023-06-03T12:04:03Z</time>
      </trkpt>
      <trkpt lat="49.89203" lon="2.30059">
        <ele>38.2</ele>
        <time>2023-06-03T12:04:04Z</time>
      </trkpt>
      <trkpt lat="49.89203" lon="2.30057">
        <ele>38.2</ele>
        <time>2023-06-03T12:04:05Z</time>
      </trkpt>
      <trkpt lat="49.89204" lon="2.30055">
        <ele>38.2</ele>
        <time>2023-06-03T12:04:06Z</time>
      </trkpt>
      <trkpt lat="49.89204" lon="2.30052">
        <ele>38.2</ele>
        <time>2023-06-03T12:04:07Z</time>
      </trkpt>
      <trkpt lat="49.89205" lon="2.30048">
        <ele>38.2</ele>
        <time>2023-06-03T12:04:09Z</time>
      </trkpt>
      <trkpt lat="49.89206" lon="2.30047">
        <ele>38.2</ele>
        <time>2023-06-03T12:04:10Z</time>
      </trkpt>
      <trkpt lat="49.89206" lon="2.30045">
        <ele>38.2</ele>
        <time>2023-06-03T12:04:11Z</time>
      </trkpt>
      <trkpt lat="49.89207" lon="2.30043">
        <ele>38.2</ele>
        <time>2023-06-03T12:04:12Z</time>
      </trkpt>
      <trkpt lat="49.89208" lon="2.30041">
        <ele>38.1</ele>
        <time>2023-06-03T12:04:13Z</time>
      </trkpt>
      <trkpt lat="49.89209" lon="2.30039">
        <ele>38.1</ele>
        <time>2023-06-03T12:04:14Z</time>
      </trkpt>
      <trkpt lat="49.89209" lon="2.30037">
        <ele>38.1</ele>
        <time>2023-06-03T12:04:15Z</time>
      </trkpt>
      <trkpt lat="49.8921" lon="2.30035">
        <ele>38.1</ele>
        <time>2023-06-03T12:04:16Z</time>
      </trkpt>
      <trkpt lat="49.89211" lon="2.30033">
        <ele>38.1</ele>
        <time>2023-06-03T12:04:18Z</time>
      </trkpt>
      <trkpt lat="49.89212" lon="2.30031">
        <ele>38.1</ele>
        <time>2023-06-03T12:04:19Z</time>
      </trkpt>
      <trkpt lat="49.89213" lon="2.30029">
        <ele>38.1</ele>
        <time>2023-06-03T12:04:20Z</time>
      </trkpt>
      <trkpt lat="49.89213" lon="2.30027">
        <ele>38.1</ele>
        <time>2023-06-03T12:04:21Z</time>
      </trkpt>
      <trkpt lat="49.89214" lon="2.30025">
        <ele>38.1</ele>
        <time>2023-06-03T12:04:22Z</time>
      </trkpt>
      <trkpt lat="49.89215" lon="2.30024">
        <ele>38.1</ele>
        <time>2023-06-03T12:04:23Z</time>
      </trkpt>
      <trkpt lat="49.89216" lon="2.30022">
        <ele>38.1</ele>
        <time>2023-06-03T12:04:24Z</time>
      </trkpt>
      <trkpt lat="49.89217" lon="2.30018">
        <ele>38.1</ele>
        <time>2023-06-03T12:04:26Z</time>
      </trkpt>
      <trkpt lat="49.89218" lon="2.30016">
        <ele>38</ele>
        <time>2023-06-03T12:04:27Z</time>
      </trkpt>
      <trkpt lat="49.89219" lon="2.30014">
        <ele>38</ele>
        <time>2023-06-03T12:04:28Z</time>
      </trkpt>
      <trkpt lat="49.8922" lon="2.30012">
        <ele>38</ele>
        <time>2023-06-03T12:04:29Z</time>
      </trkpt>
      <trkpt lat="49.89221" lon="2.3001">
        <ele>38</ele>
        <time>2023-06-03T12:04:30Z</time>
      </trkpt>
      <trkpt lat="49.89222" lon="2.30009">
        <ele>38</ele>
        <time>2023-06-03T12:04:31Z</time>
      </trkpt>
      <trkpt lat="49.89224" lon="2.30007">
        <ele>38</ele>
        <time>2023-06-03T12:04:33Z</time>
      </trkpt>
      <trkpt lat="49.89225" lon="2.30006">
        <ele>38</ele>
        <time>2023-06-03T12:04:34Z</time>
      </trkpt>
      <trkpt lat="49.89226" lon="2.30004">
        <ele>38</ele>
        <time>2023-06-03T12:04:36Z</time>
      </trkpt>
      <trkpt lat="49.89227" lon="2.30003">
        <ele>37.9</ele>
        <time>2023-06-03T12:04:37Z</time>
      </trkpt>
      <trkpt lat="49.89228" lon="2.30002">
        <ele>37.9</ele>
        <time>2023-06-03T12:04:38Z</time>
      </trkpt>
      <trkpt lat="49.89229" lon="2.29999">
        <ele>37.9</ele>
        <time>2023-06-03T12:04:40Z</time>
      </trkpt>
      <trkpt lat="49.8923" lon="2.29997">
        <ele>37.9</ele>
        <time>2023-06-03T12:04:41Z</time>
      </trkpt>
      <trkpt lat="49.8923" lon="2.29996">
        <ele>37.9</ele>
        <time>2023-06-03T12:04:42Z</time>
      </trkpt>
      <trkpt lat="49.89231" lon="2.29992">
        <ele>37.9</ele>
        <time>2023-06-03T12:04:44Z</time>
      </trkpt>
      <trkpt lat="49.89232" lon="2.2999">
        <ele>37.9</ele>
        <time>2023-06-03T12:04:45Z</time>
      </trkpt>
      <trkpt lat="49.89231" lon="2.29989">
        <ele>37.9</ele>
        <time>2023-06-03T12:04:46Z</time>
      </trkpt>
      <trkpt lat="49.89231" lon="2.29987">
        <ele>37.8</ele>
        <time>2023-06-03T12:04:48Z</time>
      </trkpt>
      <trkpt lat="49.89231" lon="2.29985">
        <ele>37.8</ele>
        <time>2023-06-03T12:04:49Z</time>
      </trkpt>
      <trkpt lat="49.89231" lon="2.29984">
        <ele>37.8</ele>
        <time>2023-06-03T12:04:50Z</time>
      </trkpt>
      <trkpt lat="49.89231" lon="2.29982">
        <ele>37.8</ele>
        <time>2023-06-03T12:04:51Z</time>
      </trkpt>
      <trkpt lat="49.89231" lon="2.29981">
        <ele>37.8</ele>
        <time>2023-06-03T12:04:52Z</time>
      </trkpt>
      <trkpt lat="49.8923" lon="2.29981">
        <ele>37.8</ele>
        <time>2023-06-03T12:04:53Z</time>
      </trkpt>
      <trkpt lat="49.89229" lon="2.2998">
        <ele>37.8</ele>
        <time>2023-06-03T12:04:54Z</time>
      </trkpt>
      <trkpt lat="49.89229" lon="2.2998">
        <ele>37.8</ele>
        <time>2023-06-03T12:04:56Z</time>
      </trkpt>
      <trkpt lat="49.89229" lon="2.29981">
        <ele>37.8</ele>
        <time>2023-06-03T12:04:57Z</time>
      </trkpt>
      <trkpt lat="49.89229" lon="2.29981">
        <ele>37.8</ele>
        <time>2023-06-03T12:04:58Z</time>
      </trkpt>
      <trkpt lat="49.89229" lon="2.29982">
        <ele>37.8</ele>
        <time>2023-06-03T12:05:00Z</time>
      </trkpt>
      <trkpt lat="49.89229" lon="2.29982">
        <ele>37.8</ele>
        <time>2023-06-03T12:05:01Z</time>
      </trkpt>
      <trkpt lat="49.89229" lon="2.29982">
        <ele>37.8</ele>
        <time>2023-06-03T12:05:02Z</time>
      </trkpt>
      <trkpt lat="49.89228" lon="2.29982">
        <ele>37.8</ele>
        <time>2023-06-03T12:05:04Z</time>
      </trkpt>
      <trkpt lat="49.89228" lon="2.29982">
        <ele>37.8</ele>
        <time>2023-06-03T12:05:05Z</time>
      </trkpt>
      <trkpt lat="49.89228" lon="2.29982">
        <ele>37.8</ele>
        <time>2023-06-03T12:05:07Z</time>
      </trkpt>
      <trkpt lat="49.89228" lon="2.29982">
        <ele>37.8</ele>
        <time>2023-06-03T12:05:08Z</time>
      </trkpt>
      <trkpt lat="49.89229" lon="2.29982">
        <ele>37.8</ele>
        <time>2023-06-03T12:05:09Z</time>
      </trkpt>
      <trkpt lat="49.89229" lon="2.29984">
        <ele>37.8</ele>
        <time>2023-06-03T12:05:10Z</time>
      </trkpt>
      <trkpt lat="49.8923" lon="2.29985">
        <ele>37.8</ele>
        <time>2023-06-03T12:05:11Z</time>
      </trkpt>
      <trkpt lat="49.8923" lon="2.29985">
        <ele>37.8</ele>
        <time>2023-06-03T12:05:12Z</time>
      </trkpt>
      <trkpt lat="49.8923" lon="2.29984">
        <ele>37.8</ele>
        <time>2023-06-03T12:05:13Z</time>
      </trkpt>
      <trkpt lat="49.8923" lon="2.29984">
        <ele>37.7</ele>
        <time>2023-06-03T12:05:14Z</time>
      </trkpt>
      <trkpt lat="49.8923" lon="2.29984">
        <ele>37.7</ele>
        <time>2023-06-03T12:05:15Z</time>
      </trkpt>
      <trkpt lat="49.8923" lon="2.29984">
        <ele>37.7</ele>
        <time>2023-06-03T12:05:16Z</time>
      </trkpt>
      <trkpt lat="49.8923" lon="2.29984">
        <ele>37.7</ele>
        <time>2023-06-03T12:05:17Z</time>
      </trkpt>
      <trkpt lat="49.8923" lon="2.29984">
        <ele>37.7</ele>
        <time>2023-06-03T12:05:18Z</time>
      </trkpt>
      <trkpt lat="49.8923" lon="2.29984">
        <ele>37.7</ele>
        <time>2023-06-03T12:05:19Z</time>
      </trkpt>
      <trkpt lat="49.8923" lon="2.29984">
        <ele>37.7</ele>
        <time>2023-06-03T12:05:20Z</time>
      </trkpt>
      <trkpt lat="49.8923" lon="2.29984">
        <ele>37.7</ele>
        <time>2023-06-03T12:05:21Z</time>
      </trkpt>
      <trkpt lat="49.8923" lon="2.29985">
        <ele>37.7</ele>
        <time>2023-06-03T12:05:22Z</time>
      </trkpt>
      <trkpt lat="49.8923" lon="2.29985">
        <ele>37.7</ele>
        <time>2023-06-03T12:05:23Z</time>
      </trkpt>
      <trkpt lat="49.8923" lon="2.29983">
        <ele>37.7</ele>
        <time>2023-06-03T12:05:24Z</time>
      </trkpt>
      <trkpt lat="49.89231" lon="2.29982">
        <ele>37.7</ele>
        <time>2023-06-03T12:05:26Z</time>
      </trkpt>
      <trkpt lat="49.89231" lon="2.29981">
        <ele>37.7</ele>
        <time>2023-06-03T12:05:27Z</time>
      </trkpt>
      <trkpt lat="49.89231" lon="2.2998">
        <ele>37.7</ele>
        <time>2023-06-03T12:05:28Z</time>
      </trkpt>
      <trkpt lat="49.89233" lon="2.29977">
        <ele>37.7</ele>
        <time>2023-06-03T12:05:29Z</time>
      </trkpt>
      <trkpt lat="49.89234" lon="2.29975">
        <ele>37.7</ele>
        <time>2023-06-03T12:05:31Z</time>
      </trkpt>
      <trkpt lat="49.89235" lon="2.29973">
        <ele>37.7</ele>
        <time>2023-06-03T12:05:32Z</time>
      </trkpt>
      <trkpt lat="49.89236" lon="2.29972">
        <ele>37.7</ele>
        <time>2023-06-03T12:05:33Z</time>
      </trkpt>
      <trkpt lat="49.89237" lon="2.29968">
        <ele>37.6</ele>
        <time>2023-06-03T12:05:34Z</time>
      </trkpt>
      <trkpt lat="49.89238" lon="2.29967">
        <ele>37.6</ele>
        <time>2023-06-03T12:05:35Z</time>
      </trkpt>
      <trkpt lat="49.89239" lon="2.29963">
        <ele>37.6</ele>
        <time>2023-06-03T12:05:36Z</time>
      </trkpt>
      <trkpt lat="49.8924" lon="2.29962">
        <ele>37.6</ele>
        <time>2023-06-03T12:05:37Z</time>
      </trkpt>
      <trkpt lat="49.89241" lon="2.29959">
        <ele>37.6</ele>
        <time>2023-06-03T12:05:38Z</time>
      </trkpt>
      <trkpt lat="49.89242" lon="2.29957">
        <ele>37.5</ele>
        <time>2023-06-03T12:05:40Z</time>
      </trkpt>
      <trkpt lat="49.89243" lon="2.29954">
        <ele>37.5</ele>
        <time>2023-06-03T12:05:41Z</time>
      </trkpt>
      <trkpt lat="49.89243" lon="2.29952">
        <ele>37.5</ele>
        <time>2023-06-03T12:05:42Z</time>
      </trkpt>
      <trkpt lat="49.89245" lon="2.29948">
        <ele>37.5</ele>
        <time>2023-06-03T12:05:43Z</time>
      </trkpt>
      <trkpt lat="49.89247" lon="2.29942">
        <ele>37.4</ele>
        <time>2023-06-03T12:05:45Z</time>
      </trkpt>
      <trkpt lat="49.89248" lon="2.2994">
        <ele>37.4</ele>
        <time>2023-06-03T12:05:46Z</time>
      </trkpt>
      <trkpt lat="49.89248" lon="2.29939">
        <ele>37.4</ele>
        <time>2023-06-03T12:05:47Z</time>
      </trkpt>
      <trkpt lat="49.8925" lon="2.29935">
        <ele>37.4</ele>
        <time>2023-06-03T12:05:49Z</time>
      </trkpt>
      <trkpt lat="49.8925" lon="2.29934">
        <ele>37.4</ele>
        <time>2023-06-03T12:05:50Z</time>
      </trkpt>
      <trkpt lat="49.89251" lon="2.29932">
        <ele>37.4</ele>
        <time>2023-06-03T12:05:51Z</time>
      </trkpt>
      <trkpt lat="49.89252" lon="2.2993">
        <ele>37.3</ele>
        <time>2023-06-03T12:05:52Z</time>
      </trkpt>
      <trkpt lat="49.89253" lon="2.29928">
        <ele>37.3</ele>
        <time>2023-06-03T12:05:53Z</time>
      </trkpt>
      <trkpt lat="49.89254" lon="2.29925">
        <ele>37.3</ele>
        <time>2023-06-03T12:05:54Z</time>
      </trkpt>
      <trkpt lat="49.89255" lon="2.29924">
        <ele>37.3</ele>
        <time>2023-06-03T12:05:55Z</time>
      </trkpt>
      <trkpt lat="49.89256" lon="2.2992">
        <ele>37.3</ele>
        <time>2023-06-03T12:05:57Z</time>
      </trkpt>
      <trkpt lat="49.89257" lon="2.29918">
        <ele>37.3</ele>
        <time>2023-06-03T12:05:58Z</time>
      </trkpt>
      <trkpt lat="49.89257" lon="2.29916">
        <ele>37.3</ele>
        <time>2023-06-03T12:05:59Z</time>
      </trkpt>
      <trkpt lat="49.89258" lon="2.29913">
        <ele>37.3</ele>
        <time>2023-06-03T12:06:00Z</time>
      </trkpt>
      <trkpt lat="49.89259" lon="2.29911">
        <ele>37.2</ele>
        <time>2023-06-03T12:06:01Z</time>
      </trkpt>
      <trkpt lat="49.8926" lon="2.29909">
        <ele>37.2</ele>
        <time>2023-06-03T12:06:02Z</time>
      </trkpt>
      <trkpt lat="49.89261" lon="2.29907">
        <ele>37.2</ele>
        <time>2023-06-03T12:06:03Z</time>
      </trkpt>
      <trkpt lat="49.89262" lon="2.29905">
        <ele>37.2</ele>
        <time>2023-06-03T12:06:04Z</time>
      </trkpt>
      <trkpt lat="49.89263" lon="2.29902">
        <ele>37.1</ele>
        <time>2023-06-03T12:06:06Z</time>
      </trkpt>
      <trkpt lat="49.89264" lon="2.29898">
        <ele>37.1</ele>
        <time>2023-06-03T12:06:07Z</time>
      </trkpt>
      <trkpt lat="49.89264" lon="2.29896">
        <ele>37.1</ele>
        <time>2023-06-03T12:06:08Z</time>
      </trkpt>
      <trkpt lat="49.89265" lon="2.29892">
        <ele>37</ele>
        <time>2023-06-03T12:06:10Z</time>
      </trkpt>
      <trkpt lat="49.89266" lon="2.2989">
        <ele>37</ele>
        <time>2023-06-03T12:06:11Z</time>
      </trkpt>
      <trkpt lat="49.89267" lon="2.29886">
        <ele>37</ele>
        <time>2023-06-03T12:06:12Z</time>
      </trkpt>
      <trkpt lat="49.89268" lon="2.29885">
        <ele>37</ele>
        <time>2023-06-03T12:06:13Z</time>
      </trkpt>
      <trkpt lat="49.89269" lon="2.2988">
        <ele>36.9</ele>
        <time>2023-06-03T12:06:14Z</time>
      </trkpt>
      <trkpt lat="49.89269" lon="2.29879">
        <ele>36.9</ele>
        <time>2023-06-03T12:06:15Z</time>
      </trkpt>
      <trkpt lat="49.8927" lon="2.29876">
        <ele>36.9</ele>
        <time>2023-06-03T12:06:16Z</time>
      </trkpt>
      <trkpt lat="49.89271" lon="2.29874">
        <ele>36.9</ele>
        <time>2023-06-03T12:06:18Z</time>
      </trkpt>
      <trkpt lat="49.89272" lon="2.2987">
        <ele>36.9</ele>
        <time>2023-06-03T12:06:19Z</time>
      </trkpt>
      <trkpt lat="49.89273" lon="2.29869">
        <ele>36.9</ele>
        <time>2023-06-03T12:06:20Z</time>
      </trkpt>
      <trkpt lat="49.89274" lon="2.29865">
        <ele>36.8</ele>
        <time>2023-06-03T12:06:21Z</time>
      </trkpt>
      <trkpt lat="49.89275" lon="2.29864">
        <ele>36.8</ele>
        <time>2023-06-03T12:06:22Z</time>
      </trkpt>
      <trkpt lat="49.89276" lon="2.2986">
        <ele>36.8</ele>
        <time>2023-06-03T12:06:23Z</time>
      </trkpt>
      <trkpt lat="49.89277" lon="2.29859">
        <ele>36.7</ele>
        <time>2023-06-03T12:06:25Z</time>
      </trkpt>
      <trkpt lat="49.89278" lon="2.29857">
        <ele>36.7</ele>
        <time>2023-06-03T12:06:26Z</time>
      </trkpt>
      <trkpt lat="49.89278" lon="2.29855">
        <ele>36.7</ele>
        <time>2023-06-03T12:06:27Z</time>
      </trkpt>
      <trkpt lat="49.89279" lon="2.29853">
        <ele>36.7</ele>
        <time>2023-06-03T12:06:29Z</time>
      </trkpt>
      <trkpt lat="49.8928" lon="2.29851">
        <ele>36.7</ele>
        <time>2023-06-03T12:06:30Z</time>
      </trkpt>
      <trkpt lat="49.89281" lon="2.29849">
        <ele>36.6</ele>
        <time>2023-06-03T12:06:31Z</time>
      </trkpt>
      <trkpt lat="49.89281" lon="2.29847">
        <ele>36.6</ele>
        <time>2023-06-03T12:06:32Z</time>
      </trkpt>
      <trkpt lat="49.89281" lon="2.29845">
        <ele>36.6</ele>
        <time>2023-06-03T12:06:33Z</time>
      </trkpt>
      <trkpt lat="49.89282" lon="2.29842">
        <ele>36.6</ele>
        <time>2023-06-03T12:06:34Z</time>
      </trkpt>
      <trkpt lat="49.89283" lon="2.2984">
        <ele>36.5</ele>
        <time>2023-06-03T12:06:35Z</time>
      </trkpt>
      <trkpt lat="49.89283" lon="2.29838">
        <ele>36.5</ele>
        <time>2023-06-03T12:06:37Z</time>
      </trkpt>
      <trkpt lat="49.89283" lon="2.29836">
        <ele>36.5</ele>
        <time>2023-06-03T12:06:38Z</time>
      </trkpt>
      <trkpt lat="49.89284" lon="2.29834">
        <ele>36.5</ele>
        <time>2023-06-03T12:06:39Z</time>
      </trkpt>
      <trkpt lat="49.89284" lon="2.29832">
        <ele>36.4</ele>
        <time>2023-06-03T12:06:40Z</time>
      </trkpt>
      <trkpt lat="49.89284" lon="2.2983">
        <ele>36.4</ele>
        <time>2023-06-03T12:06:41Z</time>
      </trkpt>
      <trkpt lat="49.89285" lon="2.29828">
        <ele>36.4</ele>
        <time>2023-06-03T12:06:42Z</time>
      </trkpt>
      <trkpt lat="49.89285" lon="2.29825">
        <ele>36.4</ele>
        <time>2023-06-03T12:06:43Z</time>
      </trkpt>
      <trkpt lat="49.89286" lon="2.29821">
        <ele>36.3</ele>
        <time>2023-06-03T12:06:45Z</time>
      </trkpt>
      <trkpt lat="49.89286" lon="2.29819">
        <ele>36.3</ele>
        <time>2023-06-03T12:06:46Z</time>
      </trkpt>
      <trkpt lat="49.89287" lon="2.29815">
        <ele>36.3</ele>
        <time>2023-06-03T12:06:47Z</time>
      </trkpt>
      <trkpt lat="49.89288" lon="2.29814">
        <ele>36.3</ele>
        <time>2023-06-03T12:06:48Z</time>
      </trkpt>
      <trkpt lat="49.89289" lon="2.29809">
        <ele>36.2</ele>
        <time>2023-06-03T12:06:49Z</time>
      </trkpt>
      <trkpt lat="49.89289" lon="2.29808">
        <ele>36.2</ele>
        <time>2023-06-03T12:06:50Z</time>
      </trkpt>
      <trkpt lat="49.8929" lon="2.29805">
        <ele>36.2</ele>
        <time>2023-06-03T12:06:51Z</time>
      </trkpt>
      <trkpt lat="49.89291" lon="2.29802">
        <ele>36.1</ele>
        <time>2023-06-03T12:06:53Z</time>
      </trkpt>
      <trkpt lat="49.89292" lon="2.29798">
        <ele>36.1</ele>
        <time>2023-06-03T12:06:54Z</time>
      </trkpt>
      <trkpt lat="49.89292" lon="2.29796">
        <ele>36.1</ele>
        <time>2023-06-03T12:06:55Z</time>
      </trkpt>
      <trkpt lat="49.89293" lon="2.29792">
        <ele>36</ele>
        <time>2023-06-03T12:06:57Z</time>
      </trkpt>
      <trkpt lat="49.89294" lon="2.2979">
        <ele>36</ele>
        <time>2023-06-03T12:06:58Z</time>
      </trkpt>
      <trkpt lat="49.89294" lon="2.29787">
        <ele>36</ele>
        <time>2023-06-03T12:06:59Z</time>
      </trkpt>
      <trkpt lat="49.89295" lon="2.29785">
        <ele>36</ele>
        <time>2023-06-03T12:07:00Z</time>
      </trkpt>
      <trkpt lat="49.89295" lon="2.29782">
        <ele>36</ele>
        <time>2023-06-03T12:07:01Z</time>
      </trkpt>
      <trkpt lat="49.89296" lon="2.2978">
        <ele>35.9</ele>
        <time>2023-06-03T12:07:02Z</time>
      </trkpt>
      <trkpt lat="49.89297" lon="2.29778">
        <ele>35.9</ele>
        <time>2023-06-03T12:07:03Z</time>
      </trkpt>
      <trkpt lat="49.89297" lon="2.29776">
        <ele>35.9</ele>
        <time>2023-06-03T12:07:04Z</time>
      </trkpt>
      <trkpt lat="49.89298" lon="2.29772">
        <ele>35.9</ele>
        <time>2023-06-03T12:07:06Z</time>
      </trkpt>
      <trkpt lat="49.89299" lon="2.29771">
        <ele>35.9</ele>
        <time>2023-06-03T12:07:07Z</time>
      </trkpt>
      <trkpt lat="49.89299" lon="2.29769">
        <ele>35.9</ele>
        <time>2023-06-03T12:07:08Z</time>
      </trkpt>
      <trkpt lat="49.893" lon="2.29766">
        <ele>35.8</ele>
        <time>2023-06-03T12:07:09Z</time>
      </trkpt>
      <trkpt lat="49.89301" lon="2.29762">
        <ele>35.8</ele>
        <time>2023-06-03T12:07:10Z</time>
      </trkpt>
      <trkpt lat="49.89302" lon="2.2976">
        <ele>35.8</ele>
        <time>2023-06-03T12:07:11Z</time>
      </trkpt>
      <trkpt lat="49.89303" lon="2.29755">
        <ele>35.8</ele>
        <time>2023-06-03T12:07:12Z</time>
      </trkpt>
      <trkpt lat="49.89303" lon="2.29754">
        <ele>35.7</ele>
        <time>2023-06-03T12:07:13Z</time>
      </trkpt>
      <trkpt lat="49.89305" lon="2.29749">
        <ele>35.7</ele>
        <time>2023-06-03T12:07:15Z</time>
      </trkpt>
      <trkpt lat="49.89305" lon="2.29748">
        <ele>35.7</ele>
        <time>2023-06-03T12:07:16Z</time>
      </trkpt>
      <trkpt lat="49.89306" lon="2.29745">
        <ele>35.7</ele>
        <time>2023-06-03T12:07:17Z</time>
      </trkpt>
      <trkpt lat="49.89307" lon="2.29744">
        <ele>35.7</ele>
        <time>2023-06-03T12:07:18Z</time>
      </trkpt>
      <trkpt lat="49.89308" lon="2.29742">
        <ele>35.7</ele>
        <time>2023-06-03T12:07:19Z</time>
      </trkpt>
      <trkpt lat="49.89308" lon="2.2974">
        <ele>35.6</ele>
        <time>2023-06-03T12:07:20Z</time>
      </trkpt>
      <trkpt lat="49.89309" lon="2.29737">
        <ele>35.6</ele>
        <time>2023-06-03T12:07:21Z</time>
      </trkpt>
      <trkpt lat="49.8931" lon="2.29735">
        <ele>35.6</ele>
        <time>2023-06-03T12:07:23Z</time>
      </trkpt>
      <trkpt lat="49.8931" lon="2.29733">
        <ele>35.6</ele>
        <time>2023-06-03T12:07:24Z</time>
      </trkpt>
      <trkpt lat="49.89311" lon="2.2973">
        <ele>35.6</ele>
        <time>2023-06-03T12:07:25Z</time>
      </trkpt>
      <trkpt lat="49.89312" lon="2.29726">
        <ele>35.6</ele>
        <time>2023-06-03T12:07:26Z</time>
      </trkpt>
      <trkpt lat="49.89312" lon="2.29725">
        <ele>35.6</ele>
        <time>2023-06-03T12:07:27Z</time>
      </trkpt>
      <trkpt lat="49.89313" lon="2.29722">
        <ele>35.6</ele>
        <time>2023-06-03T12:07:28Z</time>
      </trkpt>
      <trkpt lat="49.89314" lon="2.29719">
        <ele>35.6</ele>
        <time>2023-06-03T12:07:30Z</time>
      </trkpt>
      <trkpt lat="49.89316" lon="2.29715">
        <ele>35.6</ele>
        <time>2023-06-03T12:07:31Z</time>
      </trkpt>
      <trkpt lat="49.89316" lon="2.29714">
        <ele>35.6</ele>
        <time>2023-06-03T12:07:32Z</time>
      </trkpt>
      <trkpt lat="49.89317" lon="2.2971">
        <ele>35.6</ele>
        <time>2023-06-03T12:07:33Z</time>
      </trkpt>
      <trkpt lat="49.89318" lon="2.2971">
        <ele>35.6</ele>
        <time>2023-06-03T12:07:34Z</time>
      </trkpt>
      <trkpt lat="49.89318" lon="2.29709">
        <ele>35.6</ele>
        <time>2023-06-03T12:07:35Z</time>
      </trkpt>
      <trkpt lat="49.89319" lon="2.29708">
        <ele>35.6</ele>
        <time>2023-06-03T12:07:36Z</time>
      </trkpt>
      <trkpt lat="49.8932" lon="2.29708">
        <ele>35.6</ele>
        <time>2023-06-03T12:07:37Z</time>
      </trkpt>
      <trkpt lat="49.8932" lon="2.29707">
        <ele>35.6</ele>
        <time>2023-06-03T12:07:39Z</time>
      </trkpt>
      <trkpt lat="49.89322" lon="2.29705">
        <ele>35.6</ele>
        <time>2023-06-03T12:07:40Z</time>
      </trkpt>
      <trkpt lat="49.89322" lon="2.29705">
        <ele>35.6</ele>
        <time>2023-06-03T12:07:41Z</time>
      </trkpt>
      <trkpt lat="49.89323" lon="2.29704">
        <ele>35.6</ele>
        <time>2023-06-03T12:07:42Z</time>
      </trkpt>
      <trkpt lat="49.89324" lon="2.29703">
        <ele>35.6</ele>
        <time>2023-06-03T12:07:43Z</time>
      </trkpt>
      <trkpt lat="49.89324" lon="2.29701">
        <ele>35.6</ele>
        <time>2023-06-03T12:07:44Z</time>
      </trkpt>
      <trkpt lat="49.89325" lon="2.297">
        <ele>35.6</ele>
        <time>2023-06-03T12:07:45Z</time>
      </trkpt>
      <trkpt lat="49.89326" lon="2.29698">
        <ele>35.6</ele>
        <time>2023-06-03T12:07:46Z</time>
      </trkpt>
      <trkpt lat="49.89326" lon="2.29696">
        <ele>35.6</ele>
        <time>2023-06-03T12:07:48Z</time>
      </trkpt>
      <trkpt lat="49.89327" lon="2.29695">
        <ele>35.6</ele>
        <time>2023-06-03T12:07:49Z</time>
      </trkpt>
      <trkpt lat="49.89328" lon="2.29693">
        <ele>35.6</ele>
        <time>2023-06-03T12:07:50Z</time>
      </trkpt>
      <trkpt lat="49.89329" lon="2.29691">
        <ele>35.6</ele>
        <time>2023-06-03T12:07:51Z</time>
      </trkpt>
      <trkpt lat="49.8933" lon="2.29689">
        <ele>35.6</ele>
        <time>2023-06-03T12:07:53Z</time>
      </trkpt>
      <trkpt lat="49.89331" lon="2.29687">
        <ele>35.6</ele>
        <time>2023-06-03T12:07:54Z</time>
      </trkpt>
      <trkpt lat="49.89333" lon="2.29682">
        <ele>35.6</ele>
        <time>2023-06-03T12:07:55Z</time>
      </trkpt>
      <trkpt lat="49.89334" lon="2.2968">
        <ele>35.6</ele>
        <time>2023-06-03T12:07:56Z</time>
      </trkpt>
      <trkpt lat="49.89335" lon="2.29676">
        <ele>35.6</ele>
        <time>2023-06-03T12:07:57Z</time>
      </trkpt>
      <trkpt lat="49.89335" lon="2.29675">
        <ele>35.6</ele>
        <time>2023-06-03T12:07:58Z</time>
      </trkpt>
      <trkpt lat="49.89336" lon="2.29672">
        <ele>35.6</ele>
        <time>2023-06-03T12:07:59Z</time>
      </trkpt>
      <trkpt lat="49.89337" lon="2.2967">
        <ele>35.6</ele>
        <time>2023-06-03T12:08:00Z</time>
      </trkpt>
      <trkpt lat="49.89338" lon="2.29667">
        <ele>35.6</ele>
        <time>2023-06-03T12:08:02Z</time>
      </trkpt>
      <trkpt lat="49.89338" lon="2.29666">
        <ele>35.6</ele>
        <time>2023-06-03T12:08:03Z</time>
      </trkpt>
      <trkpt lat="49.89339" lon="2.29663">
        <ele>35.7</ele>
        <time>2023-06-03T12:08:04Z</time>
      </trkpt>
      <trkpt lat="49.89339" lon="2.29662">
        <ele>35.7</ele>
        <time>2023-06-03T12:08:05Z</time>
      </trkpt>
      <trkpt lat="49.89339" lon="2.2966">
        <ele>35.7</ele>
        <time>2023-06-03T12:08:06Z</time>
      </trkpt>
      <trkpt lat="49.8934" lon="2.29658">
        <ele>35.7</ele>
        <time>2023-06-03T12:08:07Z</time>
      </trkpt>
      <trkpt lat="49.8934" lon="2.29656">
        <ele>35.7</ele>
        <time>2023-06-03T12:08:09Z</time>
      </trkpt>
      <trkpt lat="49.89341" lon="2.29655">
        <ele>35.7</ele>
        <time>2023-06-03T12:08:10Z</time>
      </trkpt>
      <trkpt lat="49.89341" lon="2.29654">
        <ele>35.7</ele>
        <time>2023-06-03T12:08:11Z</time>
      </trkpt>
      <trkpt lat="49.89341" lon="2.29653">
        <ele>35.7</ele>
        <time>2023-06-03T12:08:12Z</time>
      </trkpt>
      <trkpt lat="49.89342" lon="2.29651">
        <ele>35.7</ele>
        <time>2023-06-03T12:08:13Z</time>
      </trkpt>
      <trkpt lat="49.89343" lon="2.2965">
        <ele>35.7</ele>
        <time>2023-06-03T12:08:14Z</time>
      </trkpt>
      <trkpt lat="49.89343" lon="2.29648">
        <ele>35.7</ele>
        <time>2023-06-03T12:08:15Z</time>
      </trkpt>
      <trkpt lat="49.89344" lon="2.29646">
        <ele>35.7</ele>
        <time>2023-06-03T12:08:16Z</time>
      </trkpt>
      <trkpt lat="49.89345" lon="2.29643">
        <ele>35.7</ele>
        <time>2023-06-03T12:08:17Z</time>
      </trkpt>
      <trkpt lat="49.89346" lon="2.29641">
        <ele>35.7</ele>
        <time>2023-06-03T12:08:19Z</time>
      </trkpt>
      <trkpt lat="49.89347" lon="2.29639">
        <ele>35.7</ele>
        <time>2023-06-03T12:08:20Z</time>
      </trkpt>
      <trkpt lat="49.89348" lon="2.29637">
        <ele>35.7</ele>
        <time>2023-06-03T12:08:21Z</time>
      </trkpt>
      <trkpt lat="49.89349" lon="2.29634">
        <ele>35.7</ele>
        <time>2023-06-03T12:08:22Z</time>
      </trkpt>
      <trkpt lat="49.8935" lon="2.29633">
        <ele>35.7</ele>
        <time>2023-06-03T12:08:23Z</time>
      </trkpt>
      <trkpt lat="49.89351" lon="2.2963">
        <ele>35.7</ele>
        <time>2023-06-03T12:08:24Z</time>
      </trkpt>
      <trkpt lat="49.89352" lon="2.29628">
        <ele>35.7</ele>
        <time>2023-06-03T12:08:25Z</time>
      </trkpt>
      <trkpt lat="49.89353" lon="2.29626">
        <ele>35.7</ele>
        <time>2023-06-03T12:08:27Z</time>
      </trkpt>
      <trkpt lat="49.89353" lon="2.29624">
        <ele>35.7</ele>
        <time>2023-06-03T12:08:28Z</time>
      </trkpt>
      <trkpt lat="49.89354" lon="2.29622">
        <ele>35.7</ele>
        <time>2023-06-03T12:08:29Z</time>
      </trkpt>
      <trkpt lat="49.89354" lon="2.29621">
        <ele>35.7</ele>
        <time>2023-06-03T12:08:30Z</time>
      </trkpt>
      <trkpt lat="49.89355" lon="2.29619">
        <ele>35.7</ele>
        <time>2023-06-03T12:08:31Z</time>
      </trkpt>
      <trkpt lat="49.89356" lon="2.29616">
        <ele>35.7</ele>
        <time>2023-06-03T12:08:32Z</time>
      </trkpt>
      <trkpt lat="49.89357" lon="2.29615">
        <ele>35.7</ele>
        <time>2023-06-03T12:08:33Z</time>
      </trkpt>
      <trkpt lat="49.89358" lon="2.29613">
        <ele>35.7</ele>
        <time>2023-06-03T12:08:34Z</time>
      </trkpt>
      <trkpt lat="49.8936" lon="2.29611">
        <ele>35.7</ele>
        <time>2023-06-03T12:08:36Z</time>
      </trkpt>
      <trkpt lat="49.89362" lon="2.29609">
        <ele>35.7</ele>
        <time>2023-06-03T12:08:37Z</time>
      </trkpt>
      <trkpt lat="49.89363" lon="2.29608">
        <ele>35.7</ele>
        <time>2023-06-03T12:08:38Z</time>
      </trkpt>
      <trkpt lat="49.89365" lon="2.29605">
        <ele>35.7</ele>
        <time>2023-06-03T12:08:39Z</time>
      </trkpt>
      <trkpt lat="49.89366" lon="2.29604">
        <ele>35.7</ele>
        <time>2023-06-03T12:08:40Z</time>
      </trkpt>
      <trkpt lat="49.89367" lon="2.29603">
        <ele>35.7</ele>
        <time>2023-06-03T12:08:41Z</time>
      </trkpt>
      <trkpt lat="49.89368" lon="2.296">
        <ele>35.7</ele>
        <time>2023-06-03T12:08:43Z</time>
      </trkpt>
      <trkpt lat="49.8937" lon="2.29596">
        <ele>35.7</ele>
        <time>2023-06-03T12:08:44Z</time>
      </trkpt>
      <trkpt lat="49.89371" lon="2.29595">
        <ele>35.7</ele>
        <time>2023-06-03T12:08:45Z</time>
      </trkpt>
      <trkpt lat="49.89373" lon="2.2959">
        <ele>35.7</ele>
        <time>2023-06-03T12:08:47Z</time>
      </trkpt>
      <trkpt lat="49.89374" lon="2.29588">
        <ele>35.7</ele>
        <time>2023-06-03T12:08:48Z</time>
      </trkpt>
      <trkpt lat="49.89375" lon="2.29586">
        <ele>35.6</ele>
        <time>2023-06-03T12:08:49Z</time>
      </trkpt>
      <trkpt lat="49.89377" lon="2.29582">
        <ele>35.6</ele>
        <time>2023-06-03T12:08:51Z</time>
      </trkpt>
      <trkpt lat="49.89377" lon="2.29578">
        <ele>35.6</ele>
        <time>2023-06-03T12:08:52Z</time>
      </trkpt>
      <trkpt lat="49.89377" lon="2.29574">
        <ele>35.6</ele>
        <time>2023-06-03T12:08:54Z</time>
      </trkpt>
      <trkpt lat="49.89377" lon="2.2957">
        <ele>35.6</ele>
        <time>2023-06-03T12:08:55Z</time>
      </trkpt>
      <trkpt lat="49.89376" lon="2.29568">
        <ele>35.6</ele>
        <time>2023-06-03T12:08:56Z</time>
      </trkpt>
      <trkpt lat="49.89375" lon="2.29566">
        <ele>35.5</ele>
        <time>2023-06-03T12:08:57Z</time>
      </trkpt>
      <trkpt lat="49.89375" lon="2.29564">
        <ele>35.5</ele>
        <time>2023-06-03T12:08:58Z</time>
      </trkpt>
      <trkpt lat="49.89374" lon="2.29561">
        <ele>35.5</ele>
        <time>2023-06-03T12:08:59Z</time>
      </trkpt>
      <trkpt lat="49.89374" lon="2.2956">
        <ele>35.5</ele>
        <time>2023-06-03T12:09:00Z</time>
      </trkpt>
      <trkpt lat="49.89375" lon="2.29557">
        <ele>35.5</ele>
        <time>2023-06-03T12:09:02Z</time>
      </trkpt>
      <trkpt lat="49.89375" lon="2.29555">
        <ele>35.5</ele>
        <time>2023-06-03T12:09:03Z</time>
      </trkpt>
      <trkpt lat="49.89376" lon="2.29553">
        <ele>35.4</ele>
        <time>2023-06-03T12:09:04Z</time>
      </trkpt>
      <trkpt lat="49.89377" lon="2.29551">
        <ele>35.4</ele>
        <time>2023-06-03T12:09:05Z</time>
      </trkpt>
      <trkpt lat="49.89377" lon="2.29549">
        <ele>35.4</ele>
        <time>2023-06-03T12:09:06Z</time>
      </trkpt>
      <trkpt lat="49.89376" lon="2.29546">
        <ele>35.4</ele>
        <time>2023-06-03T12:09:07Z</time>
      </trkpt>
      <trkpt lat="49.89376" lon="2.29544">
        <ele>35.4</ele>
        <time>2023-06-03T12:09:08Z</time>
      </trkpt>
      <trkpt lat="49.89376" lon="2.29541">
        <ele>35.3</ele>
        <time>2023-06-03T12:09:10Z</time>
      </trkpt>
      <trkpt lat="49.89375" lon="2.29536">
        <ele>35.3</ele>
        <time>2023-06-03T12:09:11Z</time>
      </trkpt>
      <trkpt lat="49.89375" lon="2.29535">
        <ele>35.3</ele>
        <time>2023-06-03T12:09:12Z</time>
      </trkpt>
      <trkpt lat="49.89376" lon="2.29532">
        <ele>35.3</ele>
        <time>2023-06-03T12:09:13Z</time>
      </trkpt>
      <trkpt lat="49.89376" lon="2.2953">
        <ele>35.3</ele>
        <time>2023-06-03T12:09:14Z</time>
      </trkpt>
      <trkpt lat="49.89376" lon="2.29527">
        <ele>35.2</ele>
        <time>2023-06-03T12:09:15Z</time>
      </trkpt>
      <trkpt lat="49.89375" lon="2.29525">
        <ele>35.2</ele>
        <time>2023-06-03T12:09:16Z</time>
      </trkpt>
      <trkpt lat="49.89375" lon="2.29523">
        <ele>35.2</ele>
        <time>2023-06-03T12:09:17Z</time>
      </trkpt>
      <trkpt lat="49.89374" lon="2.2952">
        <ele>35.2</ele>
        <time>2023-06-03T12:09:19Z</time>
      </trkpt>
      <trkpt lat="49.89374" lon="2.29518">
        <ele>35.2</ele>
        <time>2023-06-03T12:09:20Z</time>
      </trkpt>
      <trkpt lat="49.89373" lon="2.29515">
        <ele>35.2</ele>
        <time>2023-06-03T12:09:21Z</time>
      </trkpt>
      <trkpt lat="49.89373" lon="2.29512">
        <ele>35.1</ele>
        <time>2023-06-03T12:09:23Z</time>
      </trkpt>
      <trkpt lat="49.89373" lon="2.2951">
        <ele>35.1</ele>
        <time>2023-06-03T12:09:24Z</time>
      </trkpt>
      <trkpt lat="49.89373" lon="2.29505">
        <ele>35.1</ele>
        <time>2023-06-03T12:09:25Z</time>
      </trkpt>
      <trkpt lat="49.89373" lon="2.29503">
        <ele>35</ele>
        <time>2023-06-03T12:09:26Z</time>
      </trkpt>
      <trkpt lat="49.89372" lon="2.29497">
        <ele>35</ele>
        <time>2023-06-03T12:09:28Z</time>
      </trkpt>
      <trkpt lat="49.89372" lon="2.29495">
        <ele>34.9</ele>
        <time>2023-06-03T12:09:29Z</time>
      </trkpt>
      <trkpt lat="49.89372" lon="2.29492">
        <ele>34.9</ele>
        <time>2023-06-03T12:09:30Z</time>
      </trkpt>
      <trkpt lat="49.89372" lon="2.29489">
        <ele>34.9</ele>
        <time>2023-06-03T12:09:32Z</time>
      </trkpt>
      <trkpt lat="49.89372" lon="2.29486">
        <ele>34.9</ele>
        <time>2023-06-03T12:09:33Z</time>
      </trkpt>
      <trkpt lat="49.89372" lon="2.29484">
        <ele>34.8</ele>
        <time>2023-06-03T12:09:34Z</time>
      </trkpt>
      <trkpt lat="49.89373" lon="2.29482">
        <ele>34.8</ele>
        <time>2023-06-03T12:09:35Z</time>
      </trkpt>
      <trkpt lat="49.89373" lon="2.2948">
        <ele>34.8</ele>
        <time>2023-06-03T12:09:36Z</time>
      </trkpt>
      <trkpt lat="49.89373" lon="2.29478">
        <ele>34.8</ele>
        <time>2023-06-03T12:09:37Z</time>
      </trkpt>
      <trkpt lat="49.89374" lon="2.29476">
        <ele>34.8</ele>
        <time>2023-06-03T12:09:38Z</time>
      </trkpt>
      <trkpt lat="49.89374" lon="2.29473">
        <ele>34.7</ele>
        <time>2023-06-03T12:09:40Z</time>
      </trkpt>
      <trkpt lat="49.89374" lon="2.29471">
        <ele>34.7</ele>
        <time>2023-06-03T12:09:41Z</time>
      </trkpt>
      <trkpt lat="49.89375" lon="2.29467">
        <ele>34.7</ele>
        <time>2023-06-03T12:09:43Z</time>
      </trkpt>
      <trkpt lat="49.89376" lon="2.29463">
        <ele>34.6</ele>
        <time>2023-06-03T12:09:44Z</time>
      </trkpt>
      <trkpt lat="49.89376" lon="2.29462">
        <ele>34.6</ele>
        <time>2023-06-03T12:09:45Z</time>
      </trkpt>
      <trkpt lat="49.89377" lon="2.29457">
        <ele>34.5</ele>
        <time>2023-06-03T12:09:47Z</time>
      </trkpt>
      <trkpt lat="49.89378" lon="2.29456">
        <ele>34.5</ele>
        <time>2023-06-03T12:09:48Z</time>
      </trkpt>
      <trkpt lat="49.89378" lon="2.29454">
        <ele>34.5</ele>
        <time>2023-06-03T12:09:49Z</time>
      </trkpt>
      <trkpt lat="49.89379" lon="2.29452">
        <ele>34.5</ele>
        <time>2023-06-03T12:09:50Z</time>
      </trkpt>
      <trkpt lat="49.8938" lon="2.29448">
        <ele>34.4</ele>
        <time>2023-06-03T12:09:51Z</time>
      </trkpt>
      <trkpt lat="49.8938" lon="2.29446">
        <ele>34.4</ele>
        <time>2023-06-03T12:09:52Z</time>
      </trkpt>
      <trkpt lat="49.89383" lon="2.29441">
        <ele>34.3</ele>
        <time>2023-06-03T12:09:54Z</time>
      </trkpt>
      <trkpt lat="49.89383" lon="2.29439">
        <ele>34.3</ele>
        <time>2023-06-03T12:09:55Z</time>
      </trkpt>
      <trkpt lat="49.89384" lon="2.29437">
        <ele>34.3</ele>
        <time>2023-06-03T12:09:56Z</time>
      </trkpt>
      <trkpt lat="49.89385" lon="2.29434">
        <ele>34.2</ele>
        <time>2023-06-03T12:09:58Z</time>
      </trkpt>
      <trkpt lat="49.89385" lon="2.29433">
        <ele>34.2</ele>
        <time>2023-06-03T12:09:59Z</time>
      </trkpt>
      <trkpt lat="49.89385" lon="2.29432">
        <ele>34.2</ele>
        <time>2023-06-03T12:10:00Z</time>
      </trkpt>
      <trkpt lat="49.89385" lon="2.2943">
        <ele>34.2</ele>
        <time>2023-06-03T12:10:01Z</time>
      </trkpt>
      <trkpt lat="49.89385" lon="2.29427">
        <ele>34.1</ele>
        <time>2023-06-03T12:10:02Z</time>
      </trkpt>
      <trkpt lat="49.89385" lon="2.29425">
        <ele>34.1</ele>
        <time>2023-06-03T12:10:03Z</time>
      </trkpt>
      <trkpt lat="49.89385" lon="2.29422">
        <ele>34.1</ele>
        <time>2023-06-03T12:10:04Z</time>
      </trkpt>
      <trkpt lat="49.89385" lon="2.29419">
        <ele>34</ele>
        <time>2023-06-03T12:10:06Z</time>
      </trkpt>
      <trkpt lat="49.89385" lon="2.29417">
        <ele>34</ele>
        <time>2023-06-03T12:10:07Z</time>
      </trkpt>
      <trkpt lat="49.89385" lon="2.29415">
        <ele>34</ele>
        <time>2023-06-03T12:10:08Z</time>
      </trkpt>
      <trkpt lat="49.89385" lon="2.29413">
        <ele>33.9</ele>
        <time>2023-06-03T12:10:09Z</time>
      </trkpt>
      <trkpt lat="49.89386" lon="2.29411">
        <ele>33.9</ele>
        <time>2023-06-03T12:10:10Z</time>
      </trkpt>
      <trkpt lat="49.89386" lon="2.29409">
        <ele>33.9</ele>
        <time>2023-06-03T12:10:11Z</time>
      </trkpt>
      <trkpt lat="49.89386" lon="2.29408">
        <ele>33.8</ele>
        <time>2023-06-03T12:10:12Z</time>
      </trkpt>
      <trkpt lat="49.89386" lon="2.29405">
        <ele>33.8</ele>
        <time>2023-06-03T12:10:14Z</time>
      </trkpt>
      <trkpt lat="49.89387" lon="2.29403">
        <ele>33.7</ele>
        <time>2023-06-03T12:10:15Z</time>
      </trkpt>
      <trkpt lat="49.89387" lon="2.29402">
        <ele>33.7</ele>
        <time>2023-06-03T12:10:16Z</time>
      </trkpt>
      <trkpt lat="49.89387" lon="2.29399">
        <ele>33.7</ele>
        <time>2023-06-03T12:10:18Z</time>
      </trkpt>
      <trkpt lat="49.89387" lon="2.29397">
        <ele>33.6</ele>
        <time>2023-06-03T12:10:19Z</time>
      </trkpt>
      <trkpt lat="49.89387" lon="2.29395">
        <ele>33.6</ele>
        <time>2023-06-03T12:10:20Z</time>
      </trkpt>
      <trkpt lat="49.89388" lon="2.29394">
        <ele>33.6</ele>
        <time>2023-06-03T12:10:22Z</time>
      </trkpt>
      <trkpt lat="49.89388" lon="2.2939">
        <ele>33.5</ele>
        <time>2023-06-03T12:10:23Z</time>
      </trkpt>
      <trkpt lat="49.89388" lon="2.29387">
        <ele>33.5</ele>
        <time>2023-06-03T12:10:24Z</time>
      </trkpt>
      <trkpt lat="49.89388" lon="2.29385">
        <ele>33.4</ele>
        <time>2023-06-03T12:10:25Z</time>
      </trkpt>
      <trkpt lat="49.89388" lon="2.29383">
        <ele>33.4</ele>
        <time>2023-06-03T12:10:26Z</time>
      </trkpt>
      <trkpt lat="49.89388" lon="2.29378">
        <ele>33.3</ele>
        <time>2023-06-03T12:10:27Z</time>
      </trkpt>
      <trkpt lat="49.89388" lon="2.29376">
        <ele>33.3</ele>
        <time>2023-06-03T12:10:28Z</time>
      </trkpt>
      <trkpt lat="49.89388" lon="2.29373">
        <ele>33.2</ele>
        <time>2023-06-03T12:10:29Z</time>
      </trkpt>
      <trkpt lat="49.89389" lon="2.29369">
        <ele>33.2</ele>
        <time>2023-06-03T12:10:31Z</time>
      </trkpt>
      <trkpt lat="49.89389" lon="2.29364">
        <ele>33.1</ele>
        <time>2023-06-03T12:10:32Z</time>
      </trkpt>
      <trkpt lat="49.89389" lon="2.29363">
        <ele>33.1</ele>
        <time>2023-06-03T12:10:33Z</time>
      </trkpt>
      <trkpt lat="49.8939" lon="2.29358">
        <ele>33</ele>
        <time>2023-06-03T12:10:35Z</time>
      </trkpt>
      <trkpt lat="49.8939" lon="2.29357">
        <ele>33</ele>
        <time>2023-06-03T12:10:36Z</time>
      </trkpt>
      <trkpt lat="49.8939" lon="2.29354">
        <ele>32.9</ele>
        <time>2023-06-03T12:10:37Z</time>
      </trkpt>
      <trkpt lat="49.8939" lon="2.29352">
        <ele>32.9</ele>
        <time>2023-06-03T12:10:38Z</time>
      </trkpt>
      <trkpt lat="49.89391" lon="2.29347">
        <ele>32.8</ele>
        <time>2023-06-03T12:10:39Z</time>
      </trkpt>
      <trkpt lat="49.89391" lon="2.29346">
        <ele>32.8</ele>
        <time>2023-06-03T12:10:40Z</time>
      </trkpt>
      <trkpt lat="49.89391" lon="2.29342">
        <ele>32.8</ele>
        <time>2023-06-03T12:10:41Z</time>
      </trkpt>
      <trkpt lat="49.89391" lon="2.29339">
        <ele>32.7</ele>
        <time>2023-06-03T12:10:43Z</time>
      </trkpt>
      <trkpt lat="49.89392" lon="2.29337">
        <ele>32.7</ele>
        <time>2023-06-03T12:10:44Z</time>
      </trkpt>
      <trkpt lat="49.89392" lon="2.29335">
        <ele>32.7</ele>
        <time>2023-06-03T12:10:45Z</time>
      </trkpt>
      <trkpt lat="49.89393" lon="2.29331">
        <ele>32.6</ele>
        <time>2023-06-03T12:10:46Z</time>
      </trkpt>
      <trkpt lat="49.89393" lon="2.2933">
        <ele>32.6</ele>
        <time>2023-06-03T12:10:47Z</time>
      </trkpt>
      <trkpt lat="49.89394" lon="2.29329">
        <ele>32.6</ele>
        <time>2023-06-03T12:10:48Z</time>
      </trkpt>
      <trkpt lat="49.89394" lon="2.29326">
        <ele>32.6</ele>
        <time>2023-06-03T12:10:49Z</time>
      </trkpt>
      <trkpt lat="49.89395" lon="2.29323">
        <ele>32.5</ele>
        <time>2023-06-03T12:10:51Z</time>
      </trkpt>
      <trkpt lat="49.89395" lon="2.29319">
        <ele>32.5</ele>
        <time>2023-06-03T12:10:52Z</time>
      </trkpt>
      <trkpt lat="49.89395" lon="2.29316">
        <ele>32.4</ele>
        <time>2023-06-03T12:10:53Z</time>
      </trkpt>
      <trkpt lat="49.89395" lon="2.29315">
        <ele>32.3</ele>
        <time>2023-06-03T12:10:54Z</time>
      </trkpt>
      <trkpt lat="49.89396" lon="2.29311">
        <ele>32.3</ele>
        <time>2023-06-03T12:10:56Z</time>
      </trkpt>
      <trkpt lat="49.89396" lon="2.29309">
        <ele>32.3</ele>
        <time>2023-06-03T12:10:57Z</time>
      </trkpt>
      <trkpt lat="49.89396" lon="2.29308">
        <ele>32.2</ele>
        <time>2023-06-03T12:10:58Z</time>
      </trkpt>
      <trkpt lat="49.89397" lon="2.29304">
        <ele>32.1</ele>
        <time>2023-06-03T12:11:00Z</time>
      </trkpt>
      <trkpt lat="49.89397" lon="2.29302">
        <ele>32.1</ele>
        <time>2023-06-03T12:11:01Z</time>
      </trkpt>
      <trkpt lat="49.89397" lon="2.29301">
        <ele>32.1</ele>
        <time>2023-06-03T12:11:02Z</time>
      </trkpt>
      <trkpt lat="49.89398" lon="2.29298">
        <ele>32.1</ele>
        <time>2023-06-03T12:11:04Z</time>
      </trkpt>
      <trkpt lat="49.89398" lon="2.29298">
        <ele>32.1</ele>
        <time>2023-06-03T12:11:05Z</time>
      </trkpt>
      <trkpt lat="49.89398" lon="2.29298">
        <ele>32.1</ele>
        <time>2023-06-03T12:11:06Z</time>
      </trkpt>
      <trkpt lat="49.89398" lon="2.29297">
        <ele>32.1</ele>
        <time>2023-06-03T12:11:07Z</time>
      </trkpt>
      <trkpt lat="49.89398" lon="2.29297">
        <ele>32.1</ele>
        <time>2023-06-03T12:11:09Z</time>
      </trkpt>
      <trkpt lat="49.89398" lon="2.29297">
        <ele>32.1</ele>
        <time>2023-06-03T12:11:10Z</time>
      </trkpt>
      <trkpt lat="49.89398" lon="2.29297">
        <ele>32.1</ele>
        <time>2023-06-03T12:11:11Z</time>
      </trkpt>
      <trkpt lat="49.89398" lon="2.29297">
        <ele>32.1</ele>
        <time>2023-06-03T12:11:13Z</time>
      </trkpt>
      <trkpt lat="49.89398" lon="2.29297">
        <ele>32.1</ele>
        <time>2023-06-03T12:11:14Z</time>
      </trkpt>
      <trkpt lat="49.89399" lon="2.29297">
        <ele>32.1</ele>
        <time>2023-06-03T12:11:15Z</time>
      </trkpt>
      <trkpt lat="49.89399" lon="2.29297">
        <ele>32.1</ele>
        <time>2023-06-03T12:11:17Z</time>
      </trkpt>
      <trkpt lat="49.89399" lon="2.29297">
        <ele>32.1</ele>
        <time>2023-06-03T12:11:18Z</time>
      </trkpt>
      <trkpt lat="49.89399" lon="2.29297">
        <ele>32.1</ele>
        <time>2023-06-03T12:11:19Z</time>
      </trkpt>
      <trkpt lat="49.89398" lon="2.29298">
        <ele>32.1</ele>
        <time>2023-06-03T12:11:20Z</time>
      </trkpt>
      <trkpt lat="49.89398" lon="2.29298">
        <ele>32.1</ele>
        <time>2023-06-03T12:11:21Z</time>
      </trkpt>
      <trkpt lat="49.89398" lon="2.29299">
        <ele>32.1</ele>
        <time>2023-06-03T12:11:22Z</time>
      </trkpt>
      <trkpt lat="49.89398" lon="2.29299">
        <ele>32.1</ele>
        <time>2023-06-03T12:11:23Z</time>
      </trkpt>
      <trkpt lat="49.89398" lon="2.29299">
        <ele>32.1</ele>
        <time>2023-06-03T12:11:24Z</time>
      </trkpt>
      <trkpt lat="49.89398" lon="2.29299">
        <ele>32.1</ele>
        <time>2023-06-03T12:11:25Z</time>
      </trkpt>
      <trkpt lat="49.89398" lon="2.29299">
        <ele>32.1</ele>
        <time>2023-06-03T12:11:26Z</time>
      </trkpt>
      <trkpt lat="49.89398" lon="2.29299">
        <ele>32.1</ele>
        <time>2023-06-03T12:11:27Z</time>
      </trkpt>
      <trkpt lat="49.89398" lon="2.29299">
        <ele>32.1</ele>
        <time>2023-06-03T12:11:28Z</time>
      </trkpt>
      <trkpt lat="49.89398" lon="2.29299">
        <ele>32.1</ele>
        <time>2023-06-03T12:11:29Z</time>
      </trkpt>
      <trkpt lat="49.89398" lon="2.29299">
        <ele>32.1</ele>
        <time>2023-06-03T12:11:30Z</time>
      </trkpt>
      <trkpt lat="49.89398" lon="2.29299">
        <ele>32.1</ele>
        <time>2023-06-03T12:11:31Z</time>
      </trkpt>
      <trkpt lat="49.89398" lon="2.29299">
        <ele>32.1</ele>
        <time>2023-06-03T12:11:32Z</time>
      </trkpt>
      <trkpt lat="49.89398" lon="2.29299">
        <ele>32.1</ele>
        <time>2023-06-03T12:11:33Z</time>
      </trkpt>
      <trkpt lat="49.89398" lon="2.29299">
        <ele>32.1</ele>
        <time>2023-06-03T12:11:34Z</time>
      </trkpt>
      <trkpt lat="49.89398" lon="2.29299">
        <ele>32.1</ele>
        <time>2023-06-03T12:11:35Z</time>
      </trkpt>
      <trkpt lat="49.89398" lon="2.29299">
        <ele>32.1</ele>
        <time>2023-06-03T12:11:36Z</time>
      </trkpt>
      <trkpt lat="49.89397" lon="2.29302">
        <ele>32.1</ele>
        <time>2023-06-03T12:11:37Z</time>
      </trkpt>
      <trkpt lat="49.89397" lon="2.29303">
        <ele>32.1</ele>
        <time>2023-06-03T12:11:38Z</time>
      </trkpt>
      <trkpt lat="49.89396" lon="2.29303">
        <ele>32.1</ele>
        <time>2023-06-03T12:11:39Z</time>
      </trkpt>
      <trkpt lat="49.89396" lon="2.29303">
        <ele>32.1</ele>
        <time>2023-06-03T12:11:40Z</time>
      </trkpt>
      <trkpt lat="49.89396" lon="2.29303">
        <ele>32.1</ele>
        <time>2023-06-03T12:11:41Z</time>
      </trkpt>
      <trkpt lat="49.89395" lon="2.293">
        <ele>32.1</ele>
        <time>2023-06-03T12:11:43Z</time>
      </trkpt>
      <trkpt lat="49.89395" lon="2.29299">
        <ele>32.1</ele>
        <time>2023-06-03T12:11:44Z</time>
      </trkpt>
      <trkpt lat="49.89395" lon="2.29298">
        <ele>32.1</ele>
        <time>2023-06-03T12:11:45Z</time>
      </trkpt>
      <trkpt lat="49.89395" lon="2.29296">
        <ele>32.1</ele>
        <time>2023-06-03T12:11:47Z</time>
      </trkpt>
      <trkpt lat="49.89396" lon="2.29294">
        <ele>32.1</ele>
        <time>2023-06-03T12:11:48Z</time>
      </trkpt>
      <trkpt lat="49.89397" lon="2.29291">
        <ele>32.1</ele>
        <time>2023-06-03T12:11:49Z</time>
      </trkpt>
      <trkpt lat="49.89398" lon="2.29289">
        <ele>32.1</ele>
        <time>2023-06-03T12:11:50Z</time>
      </trkpt>
      <trkpt lat="49.89398" lon="2.29286">
        <ele>32.2</ele>
        <time>2023-06-03T12:11:51Z</time>
      </trkpt>
      <trkpt lat="49.89399" lon="2.29284">
        <ele>32.2</ele>
        <time>2023-06-03T12:11:52Z</time>
      </trkpt>
      <trkpt lat="49.894" lon="2.29283">
        <ele>32.2</ele>
        <time>2023-06-03T12:11:53Z</time>
      </trkpt>
      <trkpt lat="49.89402" lon="2.29281">
        <ele>32.3</ele>
        <time>2023-06-03T12:11:55Z</time>
      </trkpt>
      <trkpt lat="49.89403" lon="2.2928">
        <ele>32.2</ele>
        <time>2023-06-03T12:11:56Z</time>
      </trkpt>
      <trkpt lat="49.89404" lon="2.29279">
        <ele>32.2</ele>
        <time>2023-06-03T12:11:57Z</time>
      </trkpt>
      <trkpt lat="49.89407" lon="2.29277">
        <ele>32</ele>
        <time>2023-06-03T12:11:59Z</time>
      </trkpt>
      <trkpt lat="49.89408" lon="2.29276">
        <ele>32</ele>
        <time>2023-06-03T12:12:00Z</time>
      </trkpt>
      <trkpt lat="49.8941" lon="2.29274">
        <ele>31.7</ele>
        <time>2023-06-03T12:12:02Z</time>
      </trkpt>
      <trkpt lat="49.89411" lon="2.29273">
        <ele>31.6</ele>
        <time>2023-06-03T12:12:03Z</time>
      </trkpt>
      <trkpt lat="49.89411" lon="2.29272">
        <ele>31.6</ele>
        <time>2023-06-03T12:12:04Z</time>
      </trkpt>
      <trkpt lat="49.89412" lon="2.29271">
        <ele>31.6</ele>
        <time>2023-06-03T12:12:06Z</time>
      </trkpt>
      <trkpt lat="49.89413" lon="2.29269">
        <ele>31.6</ele>
        <time>2023-06-03T12:12:07Z</time>
      </trkpt>
      <trkpt lat="49.89414" lon="2.29268">
        <ele>31.6</ele>
        <time>2023-06-03T12:12:08Z</time>
      </trkpt>
      <trkpt lat="49.89415" lon="2.29267">
        <ele>31.6</ele>
        <time>2023-06-03T12:12:09Z</time>
      </trkpt>
      <trkpt lat="49.89416" lon="2.29265">
        <ele>31.5</ele>
        <time>2023-06-03T12:12:11Z</time>
      </trkpt>
      <trkpt lat="49.89417" lon="2.29263">
        <ele>31.5</ele>
        <time>2023-06-03T12:12:12Z</time>
      </trkpt>
      <trkpt lat="49.89418" lon="2.29262">
        <ele>31.5</ele>
        <time>2023-06-03T12:12:13Z</time>
      </trkpt>
      <trkpt lat="49.8942" lon="2.2926">
        <ele>31.5</ele>
        <time>2023-06-03T12:12:14Z</time>
      </trkpt>
      <trkpt lat="49.89422" lon="2.29259">
        <ele>31.5</ele>
        <time>2023-06-03T12:12:15Z</time>
      </trkpt>
      <trkpt lat="49.89423" lon="2.29258">
        <ele>31.4</ele>
        <time>2023-06-03T12:12:16Z</time>
      </trkpt>
      <trkpt lat="49.89425" lon="2.29256">
        <ele>31.4</ele>
        <time>2023-06-03T12:12:18Z</time>
      </trkpt>
      <trkpt lat="49.89426" lon="2.29256">
        <ele>31.4</ele>
        <time>2023-06-03T12:12:19Z</time>
      </trkpt>
      <trkpt lat="49.89427" lon="2.29255">
        <ele>31.4</ele>
        <time>2023-06-03T12:12:20Z</time>
      </trkpt>
      <trkpt lat="49.89428" lon="2.29254">
        <ele>31.3</ele>
        <time>2023-06-03T12:12:21Z</time>
      </trkpt>
      <trkpt lat="49.89429" lon="2.29253">
        <ele>31.3</ele>
        <time>2023-06-03T12:12:22Z</time>
      </trkpt>
      <trkpt lat="49.89431" lon="2.29251">
        <ele>31.3</ele>
        <time>2023-06-03T12:12:23Z</time>
      </trkpt>
      <trkpt lat="49.89432" lon="2.2925">
        <ele>31.3</ele>
        <time>2023-06-03T12:12:24Z</time>
      </trkpt>
      <trkpt lat="49.89433" lon="2.29249">
        <ele>31.3</ele>
        <time>2023-06-03T12:12:25Z</time>
      </trkpt>
      <trkpt lat="49.89436" lon="2.29247">
        <ele>31.2</ele>
        <time>2023-06-03T12:12:27Z</time>
      </trkpt>
      <trkpt lat="49.89437" lon="2.29246">
        <ele>31.2</ele>
        <time>2023-06-03T12:12:28Z</time>
      </trkpt>
      <trkpt lat="49.89438" lon="2.29244">
        <ele>31.2</ele>
        <time>2023-06-03T12:12:30Z</time>
      </trkpt>
      <trkpt lat="49.89439" lon="2.29243">
        <ele>31.1</ele>
        <time>2023-06-03T12:12:31Z</time>
      </trkpt>
      <trkpt lat="49.8944" lon="2.29242">
        <ele>31.1</ele>
        <time>2023-06-03T12:12:32Z</time>
      </trkpt>
      <trkpt lat="49.8944" lon="2.29241">
        <ele>31.1</ele>
        <time>2023-06-03T12:12:33Z</time>
      </trkpt>
      <trkpt lat="49.89441" lon="2.2924">
        <ele>31.1</ele>
        <time>2023-06-03T12:12:34Z</time>
      </trkpt>
      <trkpt lat="49.89443" lon="2.29238">
        <ele>31.1</ele>
        <time>2023-06-03T12:12:35Z</time>
      </trkpt>
      <trkpt lat="49.89443" lon="2.29237">
        <ele>31</ele>
        <time>2023-06-03T12:12:36Z</time>
      </trkpt>
      <trkpt lat="49.89444" lon="2.29236">
        <ele>31</ele>
        <time>2023-06-03T12:12:37Z</time>
      </trkpt>
      <trkpt lat="49.89445" lon="2.29234">
        <ele>31</ele>
        <time>2023-06-03T12:12:39Z</time>
      </trkpt>
      <trkpt lat="49.89446" lon="2.29234">
        <ele>31</ele>
        <time>2023-06-03T12:12:40Z</time>
      </trkpt>
      <trkpt lat="49.89447" lon="2.29233">
        <ele>31</ele>
        <time>2023-06-03T12:12:41Z</time>
      </trkpt>
      <trkpt lat="49.89447" lon="2.29232">
        <ele>30.9</ele>
        <time>2023-06-03T12:12:42Z</time>
      </trkpt>
      <trkpt lat="49.89448" lon="2.2923">
        <ele>30.9</ele>
        <time>2023-06-03T12:12:43Z</time>
      </trkpt>
      <trkpt lat="49.89449" lon="2.29229">
        <ele>30.9</ele>
        <time>2023-06-03T12:12:44Z</time>
      </trkpt>
      <trkpt lat="49.89449" lon="2.29227">
        <ele>30.9</ele>
        <time>2023-06-03T12:12:45Z</time>
      </trkpt>
      <trkpt lat="49.8945" lon="2.29225">
        <ele>30.9</ele>
        <time>2023-06-03T12:12:47Z</time>
      </trkpt>
      <trkpt lat="49.8945" lon="2.29223">
        <ele>30.8</ele>
        <time>2023-06-03T12:12:48Z</time>
      </trkpt>
      <trkpt lat="49.89451" lon="2.29221">
        <ele>30.8</ele>
        <time>2023-06-03T12:12:49Z</time>
      </trkpt>
      <trkpt lat="49.89451" lon="2.29219">
        <ele>30.8</ele>
        <time>2023-06-03T12:12:51Z</time>
      </trkpt>
      <trkpt lat="49.89453" lon="2.29216">
        <ele>30.8</ele>
        <time>2023-06-03T12:12:52Z</time>
      </trkpt>
      <trkpt lat="49.89453" lon="2.29215">
        <ele>30.8</ele>
        <time>2023-06-03T12:12:53Z</time>
      </trkpt>
      <trkpt lat="49.89454" lon="2.29213">
        <ele>30.7</ele>
        <time>2023-06-03T12:12:55Z</time>
      </trkpt>
      <trkpt lat="49.89455" lon="2.29212">
        <ele>30.7</ele>
        <time>2023-06-03T12:12:56Z</time>
      </trkpt>
      <trkpt lat="49.89455" lon="2.29211">
        <ele>30.7</ele>
        <time>2023-06-03T12:12:57Z</time>
      </trkpt>
      <trkpt lat="49.89457" lon="2.29209">
        <ele>30.7</ele>
        <time>2023-06-03T12:12:58Z</time>
      </trkpt>
      <trkpt lat="49.89458" lon="2.29208">
        <ele>30.7</ele>
        <time>2023-06-03T12:12:59Z</time>
      </trkpt>
      <trkpt lat="49.89458" lon="2.29207">
        <ele>30.7</ele>
        <time>2023-06-03T12:13:00Z</time>
      </trkpt>
      <trkpt lat="49.8946" lon="2.29206">
        <ele>30.7</ele>
        <time>2023-06-03T12:13:01Z</time>
      </trkpt>
      <trkpt lat="49.89461" lon="2.29204">
        <ele>30.6</ele>
        <time>2023-06-03T12:13:02Z</time>
      </trkpt>
      <trkpt lat="49.89462" lon="2.29203">
        <ele>30.6</ele>
        <time>2023-06-03T12:13:03Z</time>
      </trkpt>
      <trkpt lat="49.89464" lon="2.292">
        <ele>30.6</ele>
        <time>2023-06-03T12:13:05Z</time>
      </trkpt>
      <trkpt lat="49.89466" lon="2.29198">
        <ele>30.6</ele>
        <time>2023-06-03T12:13:06Z</time>
      </trkpt>
      <trkpt lat="49.89466" lon="2.29198">
        <ele>30.6</ele>
        <time>2023-06-03T12:13:07Z</time>
      </trkpt>
      <trkpt lat="49.89467" lon="2.29197">
        <ele>30.5</ele>
        <time>2023-06-03T12:13:08Z</time>
      </trkpt>
      <trkpt lat="49.89469" lon="2.29194">
        <ele>30.5</ele>
        <time>2023-06-03T12:13:10Z</time>
      </trkpt>
      <trkpt lat="49.8947" lon="2.29193">
        <ele>30.5</ele>
        <time>2023-06-03T12:13:11Z</time>
      </trkpt>
      <trkpt lat="49.89472" lon="2.2919">
        <ele>30.5</ele>
        <time>2023-06-03T12:13:13Z</time>
      </trkpt>
      <trkpt lat="49.89473" lon="2.29188">
        <ele>30.5</ele>
        <time>2023-06-03T12:13:14Z</time>
      </trkpt>
      <trkpt lat="49.89474" lon="2.29186">
        <ele>30.4</ele>
        <time>2023-06-03T12:13:15Z</time>
      </trkpt>
      <trkpt lat="49.89475" lon="2.29184">
        <ele>30.4</ele>
        <time>2023-06-03T12:13:17Z</time>
      </trkpt>
      <trkpt lat="49.89476" lon="2.29183">
        <ele>30.4</ele>
        <time>2023-06-03T12:13:18Z</time>
      </trkpt>
      <trkpt lat="49.89476" lon="2.29182">
        <ele>30.4</ele>
        <time>2023-06-03T12:13:19Z</time>
      </trkpt>
      <trkpt lat="49.89477" lon="2.2918">
        <ele>30.4</ele>
        <time>2023-06-03T12:13:20Z</time>
      </trkpt>
      <trkpt lat="49.89478" lon="2.2918">
        <ele>30.4</ele>
        <time>2023-06-03T12:13:21Z</time>
      </trkpt>
      <trkpt lat="49.89479" lon="2.29179">
        <ele>30.4</ele>
        <time>2023-06-03T12:13:23Z</time>
      </trkpt>
      <trkpt lat="49.8948" lon="2.29177">
        <ele>30.4</ele>
        <time>2023-06-03T12:13:24Z</time>
      </trkpt>
      <trkpt lat="49.89481" lon="2.29175">
        <ele>30.4</ele>
        <time>2023-06-03T12:13:25Z</time>
      </trkpt>
      <trkpt lat="49.89482" lon="2.29173">
        <ele>30.4</ele>
        <time>2023-06-03T12:13:26Z</time>
      </trkpt>
      <trkpt lat="49.89483" lon="2.2917">
        <ele>30.4</ele>
        <time>2023-06-03T12:13:27Z</time>
      </trkpt>
      <trkpt lat="49.89483" lon="2.29168">
        <ele>30.4</ele>
        <time>2023-06-03T12:13:28Z</time>
      </trkpt>
      <trkpt lat="49.89485" lon="2.29164">
        <ele>30.4</ele>
        <time>2023-06-03T12:13:30Z</time>
      </trkpt>
      <trkpt lat="49.89485" lon="2.29163">
        <ele>30.4</ele>
        <time>2023-06-03T12:13:31Z</time>
      </trkpt>
      <trkpt lat="49.89486" lon="2.29161">
        <ele>30.4</ele>
        <time>2023-06-03T12:13:32Z</time>
      </trkpt>
      <trkpt lat="49.89487" lon="2.29159">
        <ele>30.4</ele>
        <time>2023-06-03T12:13:33Z</time>
      </trkpt>
      <trkpt lat="49.89488" lon="2.29156">
        <ele>30.4</ele>
        <time>2023-06-03T12:13:34Z</time>
      </trkpt>
      <trkpt lat="49.89489" lon="2.29154">
        <ele>30.4</ele>
        <time>2023-06-03T12:13:35Z</time>
      </trkpt>
      <trkpt lat="49.8949" lon="2.29152">
        <ele>30.4</ele>
        <time>2023-06-03T12:13:36Z</time>
      </trkpt>
      <trkpt lat="49.8949" lon="2.2915">
        <ele>30.4</ele>
        <time>2023-06-03T12:13:37Z</time>
      </trkpt>
      <trkpt lat="49.89491" lon="2.29148">
        <ele>30.4</ele>
        <time>2023-06-03T12:13:39Z</time>
      </trkpt>
      <trkpt lat="49.89492" lon="2.29147">
        <ele>30.4</ele>
        <time>2023-06-03T12:13:40Z</time>
      </trkpt>
      <trkpt lat="49.89493" lon="2.29145">
        <ele>30.4</ele>
        <time>2023-06-03T12:13:41Z</time>
      </trkpt>
      <trkpt lat="49.89494" lon="2.29143">
        <ele>30.4</ele>
        <time>2023-06-03T12:13:42Z</time>
      </trkpt>
      <trkpt lat="49.89495" lon="2.29142">
        <ele>30.4</ele>
        <time>2023-06-03T12:13:44Z</time>
      </trkpt>
      <trkpt lat="49.89496" lon="2.2914">
        <ele>30.4</ele>
        <time>2023-06-03T12:13:45Z</time>
      </trkpt>
      <trkpt lat="49.89497" lon="2.29138">
        <ele>30.4</ele>
        <time>2023-06-03T12:13:46Z</time>
      </trkpt>
      <trkpt lat="49.89498" lon="2.29136">
        <ele>30.4</ele>
        <time>2023-06-03T12:13:47Z</time>
      </trkpt>
      <trkpt lat="49.89498" lon="2.29135">
        <ele>30.4</ele>
        <time>2023-06-03T12:13:48Z</time>
      </trkpt>
      <trkpt lat="49.89499" lon="2.29133">
        <ele>30.4</ele>
        <time>2023-06-03T12:13:49Z</time>
      </trkpt>
      <trkpt lat="49.89499" lon="2.29131">
        <ele>30.4</ele>
        <time>2023-06-03T12:13:50Z</time>
      </trkpt>
      <trkpt lat="49.895" lon="2.29129">
        <ele>30.4</ele>
        <time>2023-06-03T12:13:52Z</time>
      </trkpt>
      <trkpt lat="49.89501" lon="2.29127">
        <ele>30.4</ele>
        <time>2023-06-03T12:13:53Z</time>
      </trkpt>
      <trkpt lat="49.89501" lon="2.29126">
        <ele>30.4</ele>
        <time>2023-06-03T12:13:54Z</time>
      </trkpt>
      <trkpt lat="49.89502" lon="2.29125">
        <ele>30.4</ele>
        <time>2023-06-03T12:13:55Z</time>
      </trkpt>
      <trkpt lat="49.89502" lon="2.29123">
        <ele>30.5</ele>
        <time>2023-06-03T12:13:56Z</time>
      </trkpt>
      <trkpt lat="49.89503" lon="2.29122">
        <ele>30.5</ele>
        <time>2023-06-03T12:13:57Z</time>
      </trkpt>
      <trkpt lat="49.89503" lon="2.29121">
        <ele>30.5</ele>
        <time>2023-06-03T12:13:58Z</time>
      </trkpt>
      <trkpt lat="49.89504" lon="2.2912">
        <ele>30.5</ele>
        <time>2023-06-03T12:14:00Z</time>
      </trkpt>
      <trkpt lat="49.89505" lon="2.29119">
        <ele>30.5</ele>
        <time>2023-06-03T12:14:01Z</time>
      </trkpt>
      <trkpt lat="49.89506" lon="2.29118">
        <ele>30.5</ele>
        <time>2023-06-03T12:14:02Z</time>
      </trkpt>
      <trkpt lat="49.89507" lon="2.29117">
        <ele>30.5</ele>
        <time>2023-06-03T12:14:03Z</time>
      </trkpt>
      <trkpt lat="49.89508" lon="2.29117">
        <ele>30.5</ele>
        <time>2023-06-03T12:14:04Z</time>
      </trkpt>
      <trkpt lat="49.89509" lon="2.29117">
        <ele>30.5</ele>
        <time>2023-06-03T12:14:05Z</time>
      </trkpt>
      <trkpt lat="49.89509" lon="2.29116">
        <ele>30.5</ele>
        <time>2023-06-03T12:14:06Z</time>
      </trkpt>
      <trkpt lat="49.89511" lon="2.29115">
        <ele>30.5</ele>
        <time>2023-06-03T12:14:07Z</time>
      </trkpt>
      <trkpt lat="49.89512" lon="2.29113">
        <ele>30.5</ele>
        <time>2023-06-03T12:14:09Z</time>
      </trkpt>
      <trkpt lat="49.89513" lon="2.29111">
        <ele>30.5</ele>
        <time>2023-06-03T12:14:10Z</time>
      </trkpt>
      <trkpt lat="49.89514" lon="2.2911">
        <ele>30.6</ele>
        <time>2023-06-03T12:14:11Z</time>
      </trkpt>
      <trkpt lat="49.89515" lon="2.29108">
        <ele>30.6</ele>
        <time>2023-06-03T12:14:13Z</time>
      </trkpt>
      <trkpt lat="49.89515" lon="2.29107">
        <ele>30.6</ele>
        <time>2023-06-03T12:14:14Z</time>
      </trkpt>
      <trkpt lat="49.89516" lon="2.29106">
        <ele>30.6</ele>
        <time>2023-06-03T12:14:15Z</time>
      </trkpt>
      <trkpt lat="49.89517" lon="2.29104">
        <ele>30.6</ele>
        <time>2023-06-03T12:14:16Z</time>
      </trkpt>
      <trkpt lat="49.89517" lon="2.29104">
        <ele>30.6</ele>
        <time>2023-06-03T12:14:17Z</time>
      </trkpt>
      <trkpt lat="49.89518" lon="2.29103">
        <ele>30.6</ele>
        <time>2023-06-03T12:14:18Z</time>
      </trkpt>
      <trkpt lat="49.89518" lon="2.29102">
        <ele>30.6</ele>
        <time>2023-06-03T12:14:19Z</time>
      </trkpt>
      <trkpt lat="49.89519" lon="2.291">
        <ele>30.6</ele>
        <time>2023-06-03T12:14:21Z</time>
      </trkpt>
      <trkpt lat="49.8952" lon="2.29099">
        <ele>30.6</ele>
        <time>2023-06-03T12:14:22Z</time>
      </trkpt>
      <trkpt lat="49.89521" lon="2.29098">
        <ele>30.6</ele>
        <time>2023-06-03T12:14:23Z</time>
      </trkpt>
      <trkpt lat="49.89522" lon="2.29097">
        <ele>30.6</ele>
        <time>2023-06-03T12:14:25Z</time>
      </trkpt>
      <trkpt lat="49.89523" lon="2.29095">
        <ele>30.6</ele>
        <time>2023-06-03T12:14:26Z</time>
      </trkpt>
      <trkpt lat="49.89524" lon="2.29094">
        <ele>30.6</ele>
        <time>2023-06-03T12:14:27Z</time>
      </trkpt>
      <trkpt lat="49.89525" lon="2.29093">
        <ele>30.6</ele>
        <time>2023-06-03T12:14:28Z</time>
      </trkpt>
      <trkpt lat="49.89525" lon="2.29092">
        <ele>30.6</ele>
        <time>2023-06-03T12:14:29Z</time>
      </trkpt>
      <trkpt lat="49.89526" lon="2.2909">
        <ele>30.6</ele>
        <time>2023-06-03T12:14:30Z</time>
      </trkpt>
      <trkpt lat="49.89527" lon="2.29089">
        <ele>30.7</ele>
        <time>2023-06-03T12:14:32Z</time>
      </trkpt>
      <trkpt lat="49.89528" lon="2.29087">
        <ele>30.7</ele>
        <time>2023-06-03T12:14:33Z</time>
      </trkpt>
      <trkpt lat="49.89529" lon="2.29085">
        <ele>30.7</ele>
        <time>2023-06-03T12:14:34Z</time>
      </trkpt>
      <trkpt lat="49.8953" lon="2.29083">
        <ele>30.7</ele>
        <time>2023-06-03T12:14:35Z</time>
      </trkpt>
      <trkpt lat="49.89531" lon="2.29082">
        <ele>30.7</ele>
        <time>2023-06-03T12:14:37Z</time>
      </trkpt>
      <trkpt lat="49.89531" lon="2.29081">
        <ele>30.7</ele>
        <time>2023-06-03T12:14:38Z</time>
      </trkpt>
      <trkpt lat="49.89532" lon="2.2908">
        <ele>30.7</ele>
        <time>2023-06-03T12:14:39Z</time>
      </trkpt>
      <trkpt lat="49.89533" lon="2.29079">
        <ele>30.7</ele>
        <time>2023-06-03T12:14:40Z</time>
      </trkpt>
      <trkpt lat="49.89534" lon="2.29077">
        <ele>30.7</ele>
        <time>2023-06-03T12:14:42Z</time>
      </trkpt>
      <trkpt lat="49.89535" lon="2.29075">
        <ele>30.7</ele>
        <time>2023-06-03T12:14:43Z</time>
      </trkpt>
      <trkpt lat="49.89536" lon="2.29073">
        <ele>30.7</ele>
        <time>2023-06-03T12:14:44Z</time>
      </trkpt>
      <trkpt lat="49.89536" lon="2.29071">
        <ele>30.7</ele>
        <time>2023-06-03T12:14:45Z</time>
      </trkpt>
      <trkpt lat="49.89537" lon="2.29069">
        <ele>30.7</ele>
        <time>2023-06-03T12:14:47Z</time>
      </trkpt>
      <trkpt lat="49.89537" lon="2.29067">
        <ele>30.7</ele>
        <time>2023-06-03T12:14:48Z</time>
      </trkpt>
      <trkpt lat="49.89538" lon="2.29064">
        <ele>30.7</ele>
        <time>2023-06-03T12:14:49Z</time>
      </trkpt>
      <trkpt lat="49.89539" lon="2.29063">
        <ele>30.7</ele>
        <time>2023-06-03T12:14:50Z</time>
      </trkpt>
      <trkpt lat="49.8954" lon="2.2906">
        <ele>30.7</ele>
        <time>2023-06-03T12:14:52Z</time>
      </trkpt>
      <trkpt lat="49.89541" lon="2.29058">
        <ele>30.7</ele>
        <time>2023-06-03T12:14:53Z</time>
      </trkpt>
      <trkpt lat="49.89542" lon="2.29056">
        <ele>30.7</ele>
        <time>2023-06-03T12:14:54Z</time>
      </trkpt>
      <trkpt lat="49.89543" lon="2.29054">
        <ele>30.8</ele>
        <time>2023-06-03T12:14:55Z</time>
      </trkpt>
      <trkpt lat="49.89544" lon="2.29053">
        <ele>30.8</ele>
        <time>2023-06-03T12:14:56Z</time>
      </trkpt>
      <trkpt lat="49.89545" lon="2.29051">
        <ele>30.8</ele>
        <time>2023-06-03T12:14:57Z</time>
      </trkpt>
      <trkpt lat="49.89546" lon="2.29049">
        <ele>30.8</ele>
        <time>2023-06-03T12:14:58Z</time>
      </trkpt>
      <trkpt lat="49.89549" lon="2.29046">
        <ele>30.8</ele>
        <time>2023-06-03T12:15:00Z</time>
      </trkpt>
      <trkpt lat="49.89549" lon="2.29045">
        <ele>30.8</ele>
        <time>2023-06-03T12:15:01Z</time>
      </trkpt>
      <trkpt lat="49.89551" lon="2.29044">
        <ele>30.8</ele>
        <time>2023-06-03T12:15:02Z</time>
      </trkpt>
      <trkpt lat="49.89552" lon="2.29042">
        <ele>30.8</ele>
        <time>2023-06-03T12:15:04Z</time>
      </trkpt>
      <trkpt lat="49.89553" lon="2.2904">
        <ele>30.8</ele>
        <time>2023-06-03T12:15:05Z</time>
      </trkpt>
      <trkpt lat="49.89554" lon="2.29038">
        <ele>30.8</ele>
        <time>2023-06-03T12:15:06Z</time>
      </trkpt>
      <trkpt lat="49.89555" lon="2.29035">
        <ele>30.8</ele>
        <time>2023-06-03T12:15:07Z</time>
      </trkpt>
      <trkpt lat="49.89556" lon="2.29034">
        <ele>30.8</ele>
        <time>2023-06-03T12:15:09Z</time>
      </trkpt>
      <trkpt lat="49.89557" lon="2.29033">
        <ele>30.8</ele>
        <time>2023-06-03T12:15:10Z</time>
      </trkpt>
      <trkpt lat="49.8956" lon="2.29031">
        <ele>30.7</ele>
        <time>2023-06-03T12:15:11Z</time>
      </trkpt>
      <trkpt lat="49.89561" lon="2.29031">
        <ele>30.7</ele>
        <time>2023-06-03T12:15:12Z</time>
      </trkpt>
      <trkpt lat="49.89563" lon="2.29029">
        <ele>30.7</ele>
        <time>2023-06-03T12:15:13Z</time>
      </trkpt>
      <trkpt lat="49.89564" lon="2.29028">
        <ele>30.7</ele>
        <time>2023-06-03T12:15:14Z</time>
      </trkpt>
      <trkpt lat="49.89565" lon="2.29027">
        <ele>30.7</ele>
        <time>2023-06-03T12:15:15Z</time>
      </trkpt>
      <trkpt lat="49.89567" lon="2.29024">
        <ele>30.7</ele>
        <time>2023-06-03T12:15:17Z</time>
      </trkpt>
      <trkpt lat="49.89569" lon="2.29023">
        <ele>30.7</ele>
        <time>2023-06-03T12:15:18Z</time>
      </trkpt>
      <trkpt lat="49.8957" lon="2.29021">
        <ele>30.6</ele>
        <time>2023-06-03T12:15:19Z</time>
      </trkpt>
      <trkpt lat="49.89573" lon="2.29019">
        <ele>30.6</ele>
        <time>2023-06-03T12:15:21Z</time>
      </trkpt>
      <trkpt lat="49.89574" lon="2.29018">
        <ele>30.6</ele>
        <time>2023-06-03T12:15:22Z</time>
      </trkpt>
      <trkpt lat="49.89575" lon="2.29016">
        <ele>30.6</ele>
        <time>2023-06-03T12:15:23Z</time>
      </trkpt>
      <trkpt lat="49.89577" lon="2.29014">
        <ele>30.6</ele>
        <time>2023-06-03T12:15:25Z</time>
      </trkpt>
      <trkpt lat="49.89578" lon="2.29014">
        <ele>30.6</ele>
        <time>2023-06-03T12:15:26Z</time>
      </trkpt>
      <trkpt lat="49.89578" lon="2.29013">
        <ele>30.6</ele>
        <time>2023-06-03T12:15:27Z</time>
      </trkpt>
      <trkpt lat="49.8958" lon="2.29011">
        <ele>30.6</ele>
        <time>2023-06-03T12:15:28Z</time>
      </trkpt>
      <trkpt lat="49.89581" lon="2.2901">
        <ele>30.6</ele>
        <time>2023-06-03T12:15:29Z</time>
      </trkpt>
      <trkpt lat="49.89583" lon="2.29008">
        <ele>30.5</ele>
        <time>2023-06-03T12:15:30Z</time>
      </trkpt>
      <trkpt lat="49.89584" lon="2.29006">
        <ele>30.5</ele>
        <time>2023-06-03T12:15:32Z</time>
      </trkpt>
      <trkpt lat="49.89585" lon="2.29005">
        <ele>30.5</ele>
        <time>2023-06-03T12:15:33Z</time>
      </trkpt>
      <trkpt lat="49.89587" lon="2.29004">
        <ele>30.5</ele>
        <time>2023-06-03T12:15:34Z</time>
      </trkpt>
      <trkpt lat="49.89589" lon="2.29002">
        <ele>30.5</ele>
        <time>2023-06-03T12:15:36Z</time>
      </trkpt>
      <trkpt lat="49.8959" lon="2.29001">
        <ele>30.5</ele>
        <time>2023-06-03T12:15:37Z</time>
      </trkpt>
      <trkpt lat="49.89591" lon="2.29">
        <ele>30.5</ele>
        <time>2023-06-03T12:15:38Z</time>
      </trkpt>
      <trkpt lat="49.89592" lon="2.28999">
        <ele>30.4</ele>
        <time>2023-06-03T12:15:39Z</time>
      </trkpt>
      <trkpt lat="49.89593" lon="2.28997">
        <ele>30.4</ele>
        <time>2023-06-03T12:15:41Z</time>
      </trkpt>
      <trkpt lat="49.89595" lon="2.28994">
        <ele>30.4</ele>
        <time>2023-06-03T12:15:42Z</time>
      </trkpt>
      <trkpt lat="49.89596" lon="2.28992">
        <ele>30.4</ele>
        <time>2023-06-03T12:15:44Z</time>
      </trkpt>
      <trkpt lat="49.89597" lon="2.28991">
        <ele>30.4</ele>
        <time>2023-06-03T12:15:45Z</time>
      </trkpt>
      <trkpt lat="49.89598" lon="2.2899">
        <ele>30.4</ele>
        <time>2023-06-03T12:15:46Z</time>
      </trkpt>
      <trkpt lat="49.896" lon="2.28989">
        <ele>30.4</ele>
        <time>2023-06-03T12:15:48Z</time>
      </trkpt>
      <trkpt lat="49.89602" lon="2.28988">
        <ele>30.3</ele>
        <time>2023-06-03T12:15:49Z</time>
      </trkpt>
      <trkpt lat="49.89603" lon="2.28986">
        <ele>30.3</ele>
        <time>2023-06-03T12:15:50Z</time>
      </trkpt>
      <trkpt lat="49.89604" lon="2.28986">
        <ele>30.3</ele>
        <time>2023-06-03T12:15:51Z</time>
      </trkpt>
      <trkpt lat="49.89605" lon="2.28985">
        <ele>30.3</ele>
        <time>2023-06-03T12:15:52Z</time>
      </trkpt>
      <trkpt lat="49.89606" lon="2.28984">
        <ele>30.3</ele>
        <time>2023-06-03T12:15:53Z</time>
      </trkpt>
      <trkpt lat="49.89607" lon="2.28982">
        <ele>30.3</ele>
        <time>2023-06-03T12:15:54Z</time>
      </trkpt>
      <trkpt lat="49.89608" lon="2.2898">
        <ele>30.3</ele>
        <time>2023-06-03T12:15:56Z</time>
      </trkpt>
      <trkpt lat="49.89609" lon="2.28978">
        <ele>30.3</ele>
        <time>2023-06-03T12:15:57Z</time>
      </trkpt>
      <trkpt lat="49.8961" lon="2.28977">
        <ele>30.3</ele>
        <time>2023-06-03T12:15:58Z</time>
      </trkpt>
      <trkpt lat="49.8961" lon="2.28976">
        <ele>30.3</ele>
        <time>2023-06-03T12:16:00Z</time>
      </trkpt>
      <trkpt lat="49.89611" lon="2.28974">
        <ele>30.2</ele>
        <time>2023-06-03T12:16:01Z</time>
      </trkpt>
      <trkpt lat="49.89612" lon="2.28972">
        <ele>30.2</ele>
        <time>2023-06-03T12:16:02Z</time>
      </trkpt>
      <trkpt lat="49.89613" lon="2.28971">
        <ele>30.2</ele>
        <time>2023-06-03T12:16:03Z</time>
      </trkpt>
      <trkpt lat="49.89613" lon="2.28969">
        <ele>30.2</ele>
        <time>2023-06-03T12:16:05Z</time>
      </trkpt>
      <trkpt lat="49.89614" lon="2.28968">
        <ele>30.2</ele>
        <time>2023-06-03T12:16:06Z</time>
      </trkpt>
      <trkpt lat="49.89615" lon="2.28966">
        <ele>30.2</ele>
        <time>2023-06-03T12:16:07Z</time>
      </trkpt>
      <trkpt lat="49.89615" lon="2.28965">
        <ele>30.2</ele>
        <time>2023-06-03T12:16:08Z</time>
      </trkpt>
      <trkpt lat="49.89616" lon="2.28963">
        <ele>30.2</ele>
        <time>2023-06-03T12:16:09Z</time>
      </trkpt>
      <trkpt lat="49.89616" lon="2.28961">
        <ele>30.2</ele>
        <time>2023-06-03T12:16:10Z</time>
      </trkpt>
      <trkpt lat="49.89617" lon="2.2896">
        <ele>30.1</ele>
        <time>2023-06-03T12:16:11Z</time>
      </trkpt>
      <trkpt lat="49.89617" lon="2.28959">
        <ele>30.1</ele>
        <time>2023-06-03T12:16:12Z</time>
      </trkpt>
      <trkpt lat="49.89618" lon="2.28957">
        <ele>30.1</ele>
        <time>2023-06-03T12:16:14Z</time>
      </trkpt>
      <trkpt lat="49.89619" lon="2.28955">
        <ele>30.1</ele>
        <time>2023-06-03T12:16:15Z</time>
      </trkpt>
      <trkpt lat="49.8962" lon="2.28952">
        <ele>30.1</ele>
        <time>2023-06-03T12:16:17Z</time>
      </trkpt>
      <trkpt lat="49.8962" lon="2.2895">
        <ele>30.1</ele>
        <time>2023-06-03T12:16:18Z</time>
      </trkpt>
      <trkpt lat="49.89621" lon="2.28948">
        <ele>30</ele>
        <time>2023-06-03T12:16:19Z</time>
      </trkpt>
      <trkpt lat="49.89621" lon="2.28945">
        <ele>30</ele>
        <time>2023-06-03T12:16:20Z</time>
      </trkpt>
      <trkpt lat="49.89622" lon="2.28944">
        <ele>30</ele>
        <time>2023-06-03T12:16:22Z</time>
      </trkpt>
      <trkpt lat="49.89622" lon="2.28943">
        <ele>30</ele>
        <time>2023-06-03T12:16:23Z</time>
      </trkpt>
      <trkpt lat="49.89623" lon="2.28941">
        <ele>30</ele>
        <time>2023-06-03T12:16:24Z</time>
      </trkpt>
      <trkpt lat="49.89623" lon="2.28939">
        <ele>29.9</ele>
        <time>2023-06-03T12:16:25Z</time>
      </trkpt>
      <trkpt lat="49.89624" lon="2.28937">
        <ele>29.9</ele>
        <time>2023-06-03T12:16:26Z</time>
      </trkpt>
      <trkpt lat="49.89625" lon="2.28935">
        <ele>29.9</ele>
        <time>2023-06-03T12:16:27Z</time>
      </trkpt>
      <trkpt lat="49.89625" lon="2.28933">
        <ele>29.9</ele>
        <time>2023-06-03T12:16:28Z</time>
      </trkpt>
      <trkpt lat="49.89626" lon="2.2893">
        <ele>29.9</ele>
        <time>2023-06-03T12:16:30Z</time>
      </trkpt>
      <trkpt lat="49.89627" lon="2.28928">
        <ele>29.8</ele>
        <time>2023-06-03T12:16:31Z</time>
      </trkpt>
      <trkpt lat="49.89627" lon="2.28926">
        <ele>29.8</ele>
        <time>2023-06-03T12:16:32Z</time>
      </trkpt>
      <trkpt lat="49.89629" lon="2.28921">
        <ele>29.8</ele>
        <time>2023-06-03T12:16:34Z</time>
      </trkpt>
      <trkpt lat="49.89629" lon="2.2892">
        <ele>29.8</ele>
        <time>2023-06-03T12:16:35Z</time>
      </trkpt>
      <trkpt lat="49.89629" lon="2.28916">
        <ele>29.7</ele>
        <time>2023-06-03T12:16:36Z</time>
      </trkpt>
      <trkpt lat="49.89629" lon="2.28914">
        <ele>29.7</ele>
        <time>2023-06-03T12:16:38Z</time>
      </trkpt>
      <trkpt lat="49.89629" lon="2.28911">
        <ele>29.7</ele>
        <time>2023-06-03T12:16:39Z</time>
      </trkpt>
      <trkpt lat="49.89629" lon="2.28909">
        <ele>29.7</ele>
        <time>2023-06-03T12:16:40Z</time>
      </trkpt>
      <trkpt lat="49.89629" lon="2.28907">
        <ele>29.6</ele>
        <time>2023-06-03T12:16:41Z</time>
      </trkpt>
      <trkpt lat="49.89629" lon="2.28904">
        <ele>29.6</ele>
        <time>2023-06-03T12:16:43Z</time>
      </trkpt>
      <trkpt lat="49.89628" lon="2.28901">
        <ele>29.6</ele>
        <time>2023-06-03T12:16:44Z</time>
      </trkpt>
      <trkpt lat="49.89628" lon="2.28899">
        <ele>29.6</ele>
        <time>2023-06-03T12:16:45Z</time>
      </trkpt>
      <trkpt lat="49.89628" lon="2.28896">
        <ele>29.5</ele>
        <time>2023-06-03T12:16:46Z</time>
      </trkpt>
      <trkpt lat="49.89627" lon="2.28892">
        <ele>29.5</ele>
        <time>2023-06-03T12:16:48Z</time>
      </trkpt>
      <trkpt lat="49.89627" lon="2.28891">
        <ele>29.5</ele>
        <time>2023-06-03T12:16:49Z</time>
      </trkpt>
      <trkpt lat="49.89627" lon="2.2889">
        <ele>29.4</ele>
        <time>2023-06-03T12:16:50Z</time>
      </trkpt>
      <trkpt lat="49.89627" lon="2.28889">
        <ele>29.4</ele>
        <time>2023-06-03T12:16:52Z</time>
      </trkpt>
      <trkpt lat="49.89627" lon="2.28889">
        <ele>29.4</ele>
        <time>2023-06-03T12:16:53Z</time>
      </trkpt>
      <trkpt lat="49.89627" lon="2.28889">
        <ele>29.4</ele>
        <time>2023-06-03T12:16:55Z</time>
      </trkpt>
      <trkpt lat="49.89627" lon="2.28889">
        <ele>29.4</ele>
        <time>2023-06-03T12:16:56Z</time>
      </trkpt>
      <trkpt lat="49.89627" lon="2.28889">
        <ele>29.4</ele>
        <time>2023-06-03T12:16:57Z</time>
      </trkpt>
      <trkpt lat="49.89627" lon="2.2889">
        <ele>29.4</ele>
        <time>2023-06-03T12:16:59Z</time>
      </trkpt>
      <trkpt lat="49.89627" lon="2.28889">
        <ele>29.4</ele>
        <time>2023-06-03T12:17:00Z</time>
      </trkpt>
      <trkpt lat="49.89627" lon="2.28889">
        <ele>29.4</ele>
        <time>2023-06-03T12:17:01Z</time>
      </trkpt>
      <trkpt lat="49.89627" lon="2.28888">
        <ele>29.4</ele>
        <time>2023-06-03T12:17:02Z</time>
      </trkpt>
      <trkpt lat="49.89628" lon="2.28888">
        <ele>29.4</ele>
        <time>2023-06-03T12:17:03Z</time>
      </trkpt>
      <trkpt lat="49.89629" lon="2.28887">
        <ele>29.4</ele>
        <time>2023-06-03T12:17:04Z</time>
      </trkpt>
      <trkpt lat="49.8963" lon="2.28884">
        <ele>29.3</ele>
        <time>2023-06-03T12:17:06Z</time>
      </trkpt>
      <trkpt lat="49.89631" lon="2.28883">
        <ele>29.3</ele>
        <time>2023-06-03T12:17:08Z</time>
      </trkpt>
      <trkpt lat="49.89632" lon="2.28881">
        <ele>29.2</ele>
        <time>2023-06-03T12:17:09Z</time>
      </trkpt>
      <trkpt lat="49.89633" lon="2.28879">
        <ele>29.2</ele>
        <time>2023-06-03T12:17:10Z</time>
      </trkpt>
      <trkpt lat="49.89634" lon="2.28878">
        <ele>29.2</ele>
        <time>2023-06-03T12:17:11Z</time>
      </trkpt>
      <trkpt lat="49.89634" lon="2.28876">
        <ele>29.2</ele>
        <time>2023-06-03T12:17:13Z</time>
      </trkpt>
      <trkpt lat="49.89634" lon="2.28875">
        <ele>29.2</ele>
        <time>2023-06-03T12:17:14Z</time>
      </trkpt>
      <trkpt lat="49.89634" lon="2.28874">
        <ele>29.1</ele>
        <time>2023-06-03T12:17:15Z</time>
      </trkpt>
      <trkpt lat="49.89634" lon="2.28874">
        <ele>29.1</ele>
        <time>2023-06-03T12:17:17Z</time>
      </trkpt>
      <trkpt lat="49.89633" lon="2.28874">
        <ele>29.1</ele>
        <time>2023-06-03T12:17:18Z</time>
      </trkpt>
      <trkpt lat="49.89633" lon="2.28874">
        <ele>29.1</ele>
        <time>2023-06-03T12:17:19Z</time>
      </trkpt>
      <trkpt lat="49.89633" lon="2.28874">
        <ele>29.1</ele>
        <time>2023-06-03T12:17:21Z</time>
      </trkpt>
      <trkpt lat="49.89633" lon="2.28874">
        <ele>29.1</ele>
        <time>2023-06-03T12:17:22Z</time>
      </trkpt>
      <trkpt lat="49.89633" lon="2.28874">
        <ele>29.1</ele>
        <time>2023-06-03T12:17:23Z</time>
      </trkpt>
      <trkpt lat="49.89633" lon="2.28874">
        <ele>29.1</ele>
        <time>2023-06-03T12:17:25Z</time>
      </trkpt>
      <trkpt lat="49.89633" lon="2.28874">
        <ele>29.1</ele>
        <time>2023-06-03T12:17:26Z</time>
      </trkpt>
      <trkpt lat="49.89633" lon="2.28873">
        <ele>29.1</ele>
        <time>2023-06-03T12:17:27Z</time>
      </trkpt>
      <trkpt lat="49.89634" lon="2.28873">
        <ele>29.1</ele>
        <time>2023-06-03T12:17:28Z</time>
      </trkpt>
      <trkpt lat="49.89634" lon="2.28872">
        <ele>29.1</ele>
        <time>2023-06-03T12:17:30Z</time>
      </trkpt>
      <trkpt lat="49.89635" lon="2.28871">
        <ele>29.1</ele>
        <time>2023-06-03T12:17:31Z</time>
      </trkpt>
      <trkpt lat="49.89636" lon="2.28869">
        <ele>29</ele>
        <time>2023-06-03T12:17:32Z</time>
      </trkpt>
      <trkpt lat="49.89637" lon="2.28868">
        <ele>29</ele>
        <time>2023-06-03T12:17:33Z</time>
      </trkpt>
      <trkpt lat="49.89638" lon="2.28867">
        <ele>29</ele>
        <time>2023-06-03T12:17:34Z</time>
      </trkpt>
      <trkpt lat="49.89639" lon="2.28866">
        <ele>28.9</ele>
        <time>2023-06-03T12:17:35Z</time>
      </trkpt>
      <trkpt lat="49.8964" lon="2.28865">
        <ele>28.9</ele>
        <time>2023-06-03T12:17:36Z</time>
      </trkpt>
      <trkpt lat="49.89642" lon="2.28864">
        <ele>28.9</ele>
        <time>2023-06-03T12:17:37Z</time>
      </trkpt>
      <trkpt lat="49.89645" lon="2.28865">
        <ele>28.8</ele>
        <time>2023-06-03T12:17:39Z</time>
      </trkpt>
      <trkpt lat="49.89646" lon="2.28865">
        <ele>28.8</ele>
        <time>2023-06-03T12:17:40Z</time>
      </trkpt>
      <trkpt lat="49.89648" lon="2.28866">
        <ele>28.8</ele>
        <time>2023-06-03T12:17:41Z</time>
      </trkpt>
      <trkpt lat="49.89649" lon="2.28867">
        <ele>28.8</ele>
        <time>2023-06-03T12:17:42Z</time>
      </trkpt>
      <trkpt lat="49.89651" lon="2.28867">
        <ele>28.8</ele>
        <time>2023-06-03T12:17:44Z</time>
      </trkpt>
      <trkpt lat="49.89652" lon="2.28868">
        <ele>28.7</ele>
        <time>2023-06-03T12:17:45Z</time>
      </trkpt>
      <trkpt lat="49.89654" lon="2.28868">
        <ele>28.7</ele>
        <time>2023-06-03T12:17:46Z</time>
      </trkpt>
      <trkpt lat="49.89656" lon="2.28867">
        <ele>28.7</ele>
        <time>2023-06-03T12:17:47Z</time>
      </trkpt>
      <trkpt lat="49.89657" lon="2.28867">
        <ele>28.7</ele>
        <time>2023-06-03T12:17:48Z</time>
      </trkpt>
      <trkpt lat="49.89657" lon="2.28867">
        <ele>28.7</ele>
        <time>2023-06-03T12:17:49Z</time>
      </trkpt>
      <trkpt lat="49.89659" lon="2.28867">
        <ele>28.7</ele>
        <time>2023-06-03T12:17:50Z</time>
      </trkpt>
      <trkpt lat="49.8966" lon="2.28867">
        <ele>28.7</ele>
        <time>2023-06-03T12:17:51Z</time>
      </trkpt>
      <trkpt lat="49.89661" lon="2.28866">
        <ele>28.6</ele>
        <time>2023-06-03T12:17:52Z</time>
      </trkpt>
      <trkpt lat="49.89663" lon="2.28865">
        <ele>28.6</ele>
        <time>2023-06-03T12:17:53Z</time>
      </trkpt>
      <trkpt lat="49.89664" lon="2.28864">
        <ele>28.6</ele>
        <time>2023-06-03T12:17:55Z</time>
      </trkpt>
      <trkpt lat="49.89665" lon="2.28863">
        <ele>28.6</ele>
        <time>2023-06-03T12:17:56Z</time>
      </trkpt>
      <trkpt lat="49.89667" lon="2.28861">
        <ele>28.6</ele>
        <time>2023-06-03T12:17:57Z</time>
      </trkpt>
      <trkpt lat="49.89668" lon="2.2886">
        <ele>28.5</ele>
        <time>2023-06-03T12:17:58Z</time>
      </trkpt>
      <trkpt lat="49.89669" lon="2.28859">
        <ele>28.5</ele>
        <time>2023-06-03T12:17:59Z</time>
      </trkpt>
      <trkpt lat="49.8967" lon="2.28857">
        <ele>28.5</ele>
        <time>2023-06-03T12:18:00Z</time>
      </trkpt>
      <trkpt lat="49.89672" lon="2.28855">
        <ele>28.5</ele>
        <time>2023-06-03T12:18:01Z</time>
      </trkpt>
      <trkpt lat="49.89673" lon="2.28853">
        <ele>28.4</ele>
        <time>2023-06-03T12:18:02Z</time>
      </trkpt>
      <trkpt lat="49.89674" lon="2.28852">
        <ele>28.4</ele>
        <time>2023-06-03T12:18:03Z</time>
      </trkpt>
      <trkpt lat="49.89675" lon="2.2885">
        <ele>28.4</ele>
        <time>2023-06-03T12:18:04Z</time>
      </trkpt>
      <trkpt lat="49.89676" lon="2.28849">
        <ele>28.4</ele>
        <time>2023-06-03T12:18:05Z</time>
      </trkpt>
      <trkpt lat="49.89678" lon="2.28846">
        <ele>28.3</ele>
        <time>2023-06-03T12:18:07Z</time>
      </trkpt>
      <trkpt lat="49.89679" lon="2.28844">
        <ele>28.3</ele>
        <time>2023-06-03T12:18:08Z</time>
      </trkpt>
      <trkpt lat="49.8968" lon="2.28843">
        <ele>28.3</ele>
        <time>2023-06-03T12:18:09Z</time>
      </trkpt>
      <trkpt lat="49.89681" lon="2.2884">
        <ele>28.2</ele>
        <time>2023-06-03T12:18:11Z</time>
      </trkpt>
      <trkpt lat="49.89682" lon="2.28839">
        <ele>28.2</ele>
        <time>2023-06-03T12:18:12Z</time>
      </trkpt>
      <trkpt lat="49.89682" lon="2.28838">
        <ele>28.2</ele>
        <time>2023-06-03T12:18:13Z</time>
      </trkpt>
      <trkpt lat="49.89683" lon="2.28837">
        <ele>28.2</ele>
        <time>2023-06-03T12:18:14Z</time>
      </trkpt>
      <trkpt lat="49.89683" lon="2.28835">
        <ele>28.2</ele>
        <time>2023-06-03T12:18:15Z</time>
      </trkpt>
      <trkpt lat="49.89684" lon="2.28834">
        <ele>28.1</ele>
        <time>2023-06-03T12:18:16Z</time>
      </trkpt>
      <trkpt lat="49.89684" lon="2.28832">
        <ele>28.1</ele>
        <time>2023-06-03T12:18:17Z</time>
      </trkpt>
      <trkpt lat="49.89686" lon="2.28829">
        <ele>28.1</ele>
        <time>2023-06-03T12:18:19Z</time>
      </trkpt>
      <trkpt lat="49.89687" lon="2.28828">
        <ele>28</ele>
        <time>2023-06-03T12:18:20Z</time>
      </trkpt>
      <trkpt lat="49.89688" lon="2.28826">
        <ele>28</ele>
        <time>2023-06-03T12:18:21Z</time>
      </trkpt>
      <trkpt lat="49.89689" lon="2.28825">
        <ele>28</ele>
        <time>2023-06-03T12:18:23Z</time>
      </trkpt>
      <trkpt lat="49.8969" lon="2.28823">
        <ele>28</ele>
        <time>2023-06-03T12:18:24Z</time>
      </trkpt>
      <trkpt lat="49.89692" lon="2.2882">
        <ele>27.9</ele>
        <time>2023-06-03T12:18:25Z</time>
      </trkpt>
      <trkpt lat="49.89692" lon="2.28819">
        <ele>27.9</ele>
        <time>2023-06-03T12:18:26Z</time>
      </trkpt>
      <trkpt lat="49.89693" lon="2.28817">
        <ele>27.9</ele>
        <time>2023-06-03T12:18:28Z</time>
      </trkpt>
      <trkpt lat="49.89694" lon="2.28815">
        <ele>27.8</ele>
        <time>2023-06-03T12:18:29Z</time>
      </trkpt>
      <trkpt lat="49.89696" lon="2.28812">
        <ele>27.8</ele>
        <time>2023-06-03T12:18:30Z</time>
      </trkpt>
      <trkpt lat="49.89696" lon="2.28811">
        <ele>27.8</ele>
        <time>2023-06-03T12:18:31Z</time>
      </trkpt>
      <trkpt lat="49.89697" lon="2.2881">
        <ele>27.8</ele>
        <time>2023-06-03T12:18:32Z</time>
      </trkpt>
      <trkpt lat="49.89697" lon="2.28808">
        <ele>27.8</ele>
        <time>2023-06-03T12:18:33Z</time>
      </trkpt>
      <trkpt lat="49.89698" lon="2.28807">
        <ele>27.7</ele>
        <time>2023-06-03T12:18:34Z</time>
      </trkpt>
      <trkpt lat="49.89698" lon="2.28805">
        <ele>27.7</ele>
        <time>2023-06-03T12:18:36Z</time>
      </trkpt>
      <trkpt lat="49.89699" lon="2.28803">
        <ele>27.7</ele>
        <time>2023-06-03T12:18:37Z</time>
      </trkpt>
      <trkpt lat="49.897" lon="2.28801">
        <ele>27.7</ele>
        <time>2023-06-03T12:18:38Z</time>
      </trkpt>
      <trkpt lat="49.897" lon="2.28799">
        <ele>27.7</ele>
        <time>2023-06-03T12:18:39Z</time>
      </trkpt>
      <trkpt lat="49.89701" lon="2.28798">
        <ele>27.6</ele>
        <time>2023-06-03T12:18:40Z</time>
      </trkpt>
      <trkpt lat="49.89701" lon="2.28796">
        <ele>27.6</ele>
        <time>2023-06-03T12:18:41Z</time>
      </trkpt>
      <trkpt lat="49.89702" lon="2.28796">
        <ele>27.6</ele>
        <time>2023-06-03T12:18:42Z</time>
      </trkpt>
      <trkpt lat="49.89702" lon="2.28795">
        <ele>27.6</ele>
        <time>2023-06-03T12:18:43Z</time>
      </trkpt>
      <trkpt lat="49.89703" lon="2.28794">
        <ele>27.6</ele>
        <time>2023-06-03T12:18:45Z</time>
      </trkpt>
      <trkpt lat="49.89703" lon="2.28793">
        <ele>27.6</ele>
        <time>2023-06-03T12:18:46Z</time>
      </trkpt>
      <trkpt lat="49.89704" lon="2.28791">
        <ele>27.5</ele>
        <time>2023-06-03T12:18:47Z</time>
      </trkpt>
      <trkpt lat="49.89705" lon="2.2879">
        <ele>27.5</ele>
        <time>2023-06-03T12:18:48Z</time>
      </trkpt>
      <trkpt lat="49.89705" lon="2.28789">
        <ele>27.5</ele>
        <time>2023-06-03T12:18:49Z</time>
      </trkpt>
      <trkpt lat="49.89706" lon="2.28789">
        <ele>27.5</ele>
        <time>2023-06-03T12:18:50Z</time>
      </trkpt>
      <trkpt lat="49.89706" lon="2.28788">
        <ele>27.5</ele>
        <time>2023-06-03T12:18:51Z</time>
      </trkpt>
      <trkpt lat="49.89707" lon="2.28787">
        <ele>27.5</ele>
        <time>2023-06-03T12:18:52Z</time>
      </trkpt>
      <trkpt lat="49.89708" lon="2.28786">
        <ele>27.4</ele>
        <time>2023-06-03T12:18:54Z</time>
      </trkpt>
      <trkpt lat="49.89708" lon="2.28785">
        <ele>27.4</ele>
        <time>2023-06-03T12:18:55Z</time>
      </trkpt>
      <trkpt lat="49.89709" lon="2.28784">
        <ele>27.4</ele>
        <time>2023-06-03T12:18:56Z</time>
      </trkpt>
      <trkpt lat="49.8971" lon="2.28782">
        <ele>27.4</ele>
        <time>2023-06-03T12:18:57Z</time>
      </trkpt>
      <trkpt lat="49.89711" lon="2.28781">
        <ele>27.4</ele>
        <time>2023-06-03T12:18:58Z</time>
      </trkpt>
      <trkpt lat="49.89712" lon="2.2878">
        <ele>27.3</ele>
        <time>2023-06-03T12:18:59Z</time>
      </trkpt>
      <trkpt lat="49.89713" lon="2.28779">
        <ele>27.3</ele>
        <time>2023-06-03T12:19:00Z</time>
      </trkpt>
      <trkpt lat="49.89714" lon="2.28778">
        <ele>27.3</ele>
        <time>2023-06-03T12:19:01Z</time>
      </trkpt>
      <trkpt lat="49.89715" lon="2.28776">
        <ele>27.2</ele>
        <time>2023-06-03T12:19:03Z</time>
      </trkpt>
      <trkpt lat="49.89716" lon="2.28775">
        <ele>27.2</ele>
        <time>2023-06-03T12:19:04Z</time>
      </trkpt>
      <trkpt lat="49.89717" lon="2.28774">
        <ele>27.2</ele>
        <time>2023-06-03T12:19:05Z</time>
      </trkpt>
      <trkpt lat="49.89717" lon="2.28773">
        <ele>27.2</ele>
        <time>2023-06-03T12:19:07Z</time>
      </trkpt>
      <trkpt lat="49.89718" lon="2.28771">
        <ele>27.1</ele>
        <time>2023-06-03T12:19:08Z</time>
      </trkpt>
      <trkpt lat="49.8972" lon="2.28769">
        <ele>27.1</ele>
        <time>2023-06-03T12:19:09Z</time>
      </trkpt>
      <trkpt lat="49.89721" lon="2.28768">
        <ele>27.1</ele>
        <time>2023-06-03T12:19:11Z</time>
      </trkpt>
      <trkpt lat="49.89722" lon="2.28766">
        <ele>27</ele>
        <time>2023-06-03T12:19:12Z</time>
      </trkpt>
      <trkpt lat="49.89724" lon="2.28763">
        <ele>27</ele>
        <time>2023-06-03T12:19:13Z</time>
      </trkpt>
      <trkpt lat="49.89725" lon="2.28762">
        <ele>26.9</ele>
        <time>2023-06-03T12:19:14Z</time>
      </trkpt>
      <trkpt lat="49.89727" lon="2.28759">
        <ele>26.9</ele>
        <time>2023-06-03T12:19:15Z</time>
      </trkpt>
      <trkpt lat="49.89728" lon="2.28758">
        <ele>26.8</ele>
        <time>2023-06-03T12:19:16Z</time>
      </trkpt>
      <trkpt lat="49.8973" lon="2.28754">
        <ele>26.8</ele>
        <time>2023-06-03T12:19:18Z</time>
      </trkpt>
      <trkpt lat="49.89731" lon="2.28754">
        <ele>26.8</ele>
        <time>2023-06-03T12:19:19Z</time>
      </trkpt>
      <trkpt lat="49.89732" lon="2.28752">
        <ele>26.7</ele>
        <time>2023-06-03T12:19:20Z</time>
      </trkpt>
      <trkpt lat="49.89733" lon="2.2875">
        <ele>26.7</ele>
        <time>2023-06-03T12:19:21Z</time>
      </trkpt>
      <trkpt lat="49.89735" lon="2.28746">
        <ele>26.6</ele>
        <time>2023-06-03T12:19:22Z</time>
      </trkpt>
      <trkpt lat="49.89735" lon="2.28745">
        <ele>26.6</ele>
        <time>2023-06-03T12:19:23Z</time>
      </trkpt>
      <trkpt lat="49.89736" lon="2.28743">
        <ele>26.5</ele>
        <time>2023-06-03T12:19:24Z</time>
      </trkpt>
      <trkpt lat="49.89736" lon="2.2874">
        <ele>26.5</ele>
        <time>2023-06-03T12:19:25Z</time>
      </trkpt>
      <trkpt lat="49.89737" lon="2.28738">
        <ele>26.5</ele>
        <time>2023-06-03T12:19:27Z</time>
      </trkpt>
      <trkpt lat="49.89738" lon="2.28736">
        <ele>26.4</ele>
        <time>2023-06-03T12:19:28Z</time>
      </trkpt>
      <trkpt lat="49.89739" lon="2.28734">
        <ele>26.4</ele>
        <time>2023-06-03T12:19:29Z</time>
      </trkpt>
      <trkpt lat="49.8974" lon="2.28731">
        <ele>26.3</ele>
        <time>2023-06-03T12:19:30Z</time>
      </trkpt>
      <trkpt lat="49.89741" lon="2.28727">
        <ele>26.3</ele>
        <time>2023-06-03T12:19:31Z</time>
      </trkpt>
      <trkpt lat="49.89742" lon="2.28726">
        <ele>26.2</ele>
        <time>2023-06-03T12:19:32Z</time>
      </trkpt>
      <trkpt lat="49.89743" lon="2.28724">
        <ele>26.2</ele>
        <time>2023-06-03T12:19:33Z</time>
      </trkpt>
      <trkpt lat="49.89744" lon="2.28721">
        <ele>26.1</ele>
        <time>2023-06-03T12:19:35Z</time>
      </trkpt>
      <trkpt lat="49.89746" lon="2.28718">
        <ele>26.1</ele>
        <time>2023-06-03T12:19:36Z</time>
      </trkpt>
      <trkpt lat="49.89746" lon="2.28717">
        <ele>26.1</ele>
        <time>2023-06-03T12:19:37Z</time>
      </trkpt>
      <trkpt lat="49.89748" lon="2.28713">
        <ele>26</ele>
        <time>2023-06-03T12:19:39Z</time>
      </trkpt>
      <trkpt lat="49.89749" lon="2.28711">
        <ele>26</ele>
        <time>2023-06-03T12:19:40Z</time>
      </trkpt>
      <trkpt lat="49.8975" lon="2.2871">
        <ele>25.9</ele>
        <time>2023-06-03T12:19:41Z</time>
      </trkpt>
      <trkpt lat="49.89751" lon="2.28708">
        <ele>25.9</ele>
        <time>2023-06-03T12:19:43Z</time>
      </trkpt>
      <trkpt lat="49.89752" lon="2.28706">
        <ele>25.9</ele>
        <time>2023-06-03T12:19:44Z</time>
      </trkpt>
      <trkpt lat="49.89754" lon="2.28703">
        <ele>25.8</ele>
        <time>2023-06-03T12:19:45Z</time>
      </trkpt>
      <trkpt lat="49.89755" lon="2.28702">
        <ele>25.8</ele>
        <time>2023-06-03T12:19:46Z</time>
      </trkpt>
      <trkpt lat="49.89756" lon="2.28701">
        <ele>25.8</ele>
        <time>2023-06-03T12:19:47Z</time>
      </trkpt>
      <trkpt lat="49.89757" lon="2.287">
        <ele>25.7</ele>
        <time>2023-06-03T12:19:48Z</time>
      </trkpt>
      <trkpt lat="49.89758" lon="2.28699">
        <ele>25.7</ele>
        <time>2023-06-03T12:19:49Z</time>
      </trkpt>
      <trkpt lat="49.8976" lon="2.28697">
        <ele>25.7</ele>
        <time>2023-06-03T12:19:51Z</time>
      </trkpt>
      <trkpt lat="49.8976" lon="2.28696">
        <ele>25.7</ele>
        <time>2023-06-03T12:19:52Z</time>
      </trkpt>
      <trkpt lat="49.89761" lon="2.28695">
        <ele>25.7</ele>
        <time>2023-06-03T12:19:53Z</time>
      </trkpt>
      <trkpt lat="49.89762" lon="2.28694">
        <ele>25.6</ele>
        <time>2023-06-03T12:19:55Z</time>
      </trkpt>
      <trkpt lat="49.89763" lon="2.28694">
        <ele>25.6</ele>
        <time>2023-06-03T12:19:56Z</time>
      </trkpt>
      <trkpt lat="49.89764" lon="2.28692">
        <ele>25.6</ele>
        <time>2023-06-03T12:19:57Z</time>
      </trkpt>
      <trkpt lat="49.89764" lon="2.28691">
        <ele>25.6</ele>
        <time>2023-06-03T12:19:58Z</time>
      </trkpt>
      <trkpt lat="49.89764" lon="2.28689">
        <ele>25.6</ele>
        <time>2023-06-03T12:20:00Z</time>
      </trkpt>
      <trkpt lat="49.89765" lon="2.28688">
        <ele>25.6</ele>
        <time>2023-06-03T12:20:01Z</time>
      </trkpt>
      <trkpt lat="49.89766" lon="2.28685">
        <ele>25.5</ele>
        <time>2023-06-03T12:20:02Z</time>
      </trkpt>
      <trkpt lat="49.89766" lon="2.28684">
        <ele>25.5</ele>
        <time>2023-06-03T12:20:03Z</time>
      </trkpt>
      <trkpt lat="49.89766" lon="2.28682">
        <ele>25.5</ele>
        <time>2023-06-03T12:20:04Z</time>
      </trkpt>
      <trkpt lat="49.89767" lon="2.28681">
        <ele>25.5</ele>
        <time>2023-06-03T12:20:05Z</time>
      </trkpt>
      <trkpt lat="49.89768" lon="2.2868">
        <ele>25.5</ele>
        <time>2023-06-03T12:20:06Z</time>
      </trkpt>
      <trkpt lat="49.89769" lon="2.28678">
        <ele>25.5</ele>
        <time>2023-06-03T12:20:08Z</time>
      </trkpt>
      <trkpt lat="49.89769" lon="2.28675">
        <ele>25.5</ele>
        <time>2023-06-03T12:20:09Z</time>
      </trkpt>
      <trkpt lat="49.8977" lon="2.28673">
        <ele>25.4</ele>
        <time>2023-06-03T12:20:10Z</time>
      </trkpt>
      <trkpt lat="49.89771" lon="2.28668">
        <ele>25.4</ele>
        <time>2023-06-03T12:20:11Z</time>
      </trkpt>
      <trkpt lat="49.89771" lon="2.28667">
        <ele>25.4</ele>
        <time>2023-06-03T12:20:12Z</time>
      </trkpt>
      <trkpt lat="49.89771" lon="2.28665">
        <ele>25.4</ele>
        <time>2023-06-03T12:20:13Z</time>
      </trkpt>
      <trkpt lat="49.89772" lon="2.28662">
        <ele>25.4</ele>
        <time>2023-06-03T12:20:14Z</time>
      </trkpt>
      <trkpt lat="49.89772" lon="2.2866">
        <ele>25.4</ele>
        <time>2023-06-03T12:20:15Z</time>
      </trkpt>
      <trkpt lat="49.89772" lon="2.28657">
        <ele>25.4</ele>
        <time>2023-06-03T12:20:16Z</time>
      </trkpt>
      <trkpt lat="49.89772" lon="2.28652">
        <ele>25.4</ele>
        <time>2023-06-03T12:20:18Z</time>
      </trkpt>
      <trkpt lat="49.89772" lon="2.28651">
        <ele>25.4</ele>
        <time>2023-06-03T12:20:19Z</time>
      </trkpt>
      <trkpt lat="49.89772" lon="2.28649">
        <ele>25.4</ele>
        <time>2023-06-03T12:20:20Z</time>
      </trkpt>
      <trkpt lat="49.89772" lon="2.28648">
        <ele>25.4</ele>
        <time>2023-06-03T12:20:21Z</time>
      </trkpt>
      <trkpt lat="49.89772" lon="2.28646">
        <ele>25.4</ele>
        <time>2023-06-03T12:20:22Z</time>
      </trkpt>
      <trkpt lat="49.89773" lon="2.28643">
        <ele>25.4</ele>
        <time>2023-06-03T12:20:24Z</time>
      </trkpt>
      <trkpt lat="49.89773" lon="2.28641">
        <ele>25.4</ele>
        <time>2023-06-03T12:20:25Z</time>
      </trkpt>
      <trkpt lat="49.89773" lon="2.28639">
        <ele>25.4</ele>
        <time>2023-06-03T12:20:26Z</time>
      </trkpt>
      <trkpt lat="49.89773" lon="2.28637">
        <ele>25.4</ele>
        <time>2023-06-03T12:20:28Z</time>
      </trkpt>
      <trkpt lat="49.89773" lon="2.28634">
        <ele>25.4</ele>
        <time>2023-06-03T12:20:29Z</time>
      </trkpt>
      <trkpt lat="49.89773" lon="2.28632">
        <ele>25.3</ele>
        <time>2023-06-03T12:20:30Z</time>
      </trkpt>
      <trkpt lat="49.89773" lon="2.2863">
        <ele>25.3</ele>
        <time>2023-06-03T12:20:31Z</time>
      </trkpt>
      <trkpt lat="49.89773" lon="2.28628">
        <ele>25.3</ele>
        <time>2023-06-03T12:20:32Z</time>
      </trkpt>
      <trkpt lat="49.89773" lon="2.28626">
        <ele>25.3</ele>
        <time>2023-06-03T12:20:33Z</time>
      </trkpt>
      <trkpt lat="49.89773" lon="2.28624">
        <ele>25.3</ele>
        <time>2023-06-03T12:20:34Z</time>
      </trkpt>
      <trkpt lat="49.89773" lon="2.28623">
        <ele>25.3</ele>
        <time>2023-06-03T12:20:35Z</time>
      </trkpt>
      <trkpt lat="49.89773" lon="2.2862">
        <ele>25.3</ele>
        <time>2023-06-03T12:20:37Z</time>
      </trkpt>
      <trkpt lat="49.89773" lon="2.28618">
        <ele>25.3</ele>
        <time>2023-06-03T12:20:38Z</time>
      </trkpt>
      <trkpt lat="49.89773" lon="2.28616">
        <ele>25.3</ele>
        <time>2023-06-03T12:20:39Z</time>
      </trkpt>
      <trkpt lat="49.89774" lon="2.28614">
        <ele>25.3</ele>
        <time>2023-06-03T12:20:40Z</time>
      </trkpt>
      <trkpt lat="49.89774" lon="2.28612">
        <ele>25.3</ele>
        <time>2023-06-03T12:20:41Z</time>
      </trkpt>
      <trkpt lat="49.89772" lon="2.2861">
        <ele>25.3</ele>
        <time>2023-06-03T12:20:42Z</time>
      </trkpt>
      <trkpt lat="49.89772" lon="2.28609">
        <ele>25.3</ele>
        <time>2023-06-03T12:20:44Z</time>
      </trkpt>
      <trkpt lat="49.89771" lon="2.28608">
        <ele>25.3</ele>
        <time>2023-06-03T12:20:45Z</time>
      </trkpt>
      <trkpt lat="49.8977" lon="2.28604">
        <ele>25.3</ele>
        <time>2023-06-03T12:20:46Z</time>
      </trkpt>
      <trkpt lat="49.89769" lon="2.28602">
        <ele>25.3</ele>
        <time>2023-06-03T12:20:48Z</time>
      </trkpt>
      <trkpt lat="49.89769" lon="2.286">
        <ele>25.3</ele>
        <time>2023-06-03T12:20:49Z</time>
      </trkpt>
      <trkpt lat="49.89768" lon="2.28598">
        <ele>25.3</ele>
        <time>2023-06-03T12:20:50Z</time>
      </trkpt>
      <trkpt lat="49.89767" lon="2.28596">
        <ele>25.2</ele>
        <time>2023-06-03T12:20:51Z</time>
      </trkpt>
      <trkpt lat="49.89767" lon="2.28594">
        <ele>25.2</ele>
        <time>2023-06-03T12:20:52Z</time>
      </trkpt>
      <trkpt lat="49.89767" lon="2.28593">
        <ele>25.2</ele>
        <time>2023-06-03T12:20:53Z</time>
      </trkpt>
      <trkpt lat="49.89766" lon="2.2859">
        <ele>25.2</ele>
        <time>2023-06-03T12:20:54Z</time>
      </trkpt>
      <trkpt lat="49.89766" lon="2.28589">
        <ele>25.2</ele>
        <time>2023-06-03T12:20:56Z</time>
      </trkpt>
      <trkpt lat="49.89766" lon="2.28587">
        <ele>25.2</ele>
        <time>2023-06-03T12:20:57Z</time>
      </trkpt>
      <trkpt lat="49.89765" lon="2.28586">
        <ele>25.2</ele>
        <time>2023-06-03T12:20:58Z</time>
      </trkpt>
      <trkpt lat="49.89765" lon="2.28585">
        <ele>25.2</ele>
        <time>2023-06-03T12:20:59Z</time>
      </trkpt>
      <trkpt lat="49.89764" lon="2.28583">
        <ele>25.2</ele>
        <time>2023-06-03T12:21:00Z</time>
      </trkpt>
      <trkpt lat="49.89763" lon="2.2858">
        <ele>25.2</ele>
        <time>2023-06-03T12:21:01Z</time>
      </trkpt>
      <trkpt lat="49.89763" lon="2.28579">
        <ele>25.2</ele>
        <time>2023-06-03T12:21:02Z</time>
      </trkpt>
      <trkpt lat="49.89762" lon="2.28575">
        <ele>25.2</ele>
        <time>2023-06-03T12:21:04Z</time>
      </trkpt>
      <trkpt lat="49.89761" lon="2.28573">
        <ele>25.2</ele>
        <time>2023-06-03T12:21:05Z</time>
      </trkpt>
      <trkpt lat="49.8976" lon="2.28571">
        <ele>25.2</ele>
        <time>2023-06-03T12:21:06Z</time>
      </trkpt>
      <trkpt lat="49.8976" lon="2.2857">
        <ele>25.2</ele>
        <time>2023-06-03T12:21:07Z</time>
      </trkpt>
      <trkpt lat="49.89759" lon="2.28567">
        <ele>25.2</ele>
        <time>2023-06-03T12:21:09Z</time>
      </trkpt>
      <trkpt lat="49.89759" lon="2.28565">
        <ele>25.2</ele>
        <time>2023-06-03T12:21:10Z</time>
      </trkpt>
      <trkpt lat="49.89759" lon="2.28563">
        <ele>25.2</ele>
        <time>2023-06-03T12:21:11Z</time>
      </trkpt>
      <trkpt lat="49.89758" lon="2.28561">
        <ele>25.2</ele>
        <time>2023-06-03T12:21:12Z</time>
      </trkpt>
      <trkpt lat="49.89758" lon="2.28559">
        <ele>25.2</ele>
        <time>2023-06-03T12:21:13Z</time>
      </trkpt>
      <trkpt lat="49.89758" lon="2.28557">
        <ele>25.2</ele>
        <time>2023-06-03T12:21:14Z</time>
      </trkpt>
      <trkpt lat="49.89757" lon="2.28556">
        <ele>25.2</ele>
        <time>2023-06-03T12:21:15Z</time>
      </trkpt>
      <trkpt lat="49.89757" lon="2.28554">
        <ele>25.2</ele>
        <time>2023-06-03T12:21:17Z</time>
      </trkpt>
      <trkpt lat="49.89757" lon="2.28553">
        <ele>25.2</ele>
        <time>2023-06-03T12:21:18Z</time>
      </trkpt>
      <trkpt lat="49.89756" lon="2.28551">
        <ele>25.2</ele>
        <time>2023-06-03T12:21:19Z</time>
      </trkpt>
      <trkpt lat="49.89756" lon="2.28549">
        <ele>25.2</ele>
        <time>2023-06-03T12:21:20Z</time>
      </trkpt>
      <trkpt lat="49.89755" lon="2.28547">
        <ele>25.2</ele>
        <time>2023-06-03T12:21:21Z</time>
      </trkpt>
      <trkpt lat="49.89755" lon="2.28546">
        <ele>25.2</ele>
        <time>2023-06-03T12:21:22Z</time>
      </trkpt>
      <trkpt lat="49.89755" lon="2.28545">
        <ele>25.2</ele>
        <time>2023-06-03T12:21:23Z</time>
      </trkpt>
      <trkpt lat="49.89754" lon="2.28545">
        <ele>25.2</ele>
        <time>2023-06-03T12:21:25Z</time>
      </trkpt>
      <trkpt lat="49.89754" lon="2.28543">
        <ele>25.2</ele>
        <time>2023-06-03T12:21:26Z</time>
      </trkpt>
      <trkpt lat="49.89753" lon="2.28542">
        <ele>25.2</ele>
        <time>2023-06-03T12:21:27Z</time>
      </trkpt>
      <trkpt lat="49.89753" lon="2.2854">
        <ele>25.2</ele>
        <time>2023-06-03T12:21:28Z</time>
      </trkpt>
      <trkpt lat="49.89753" lon="2.28538">
        <ele>25.2</ele>
        <time>2023-06-03T12:21:29Z</time>
      </trkpt>
      <trkpt lat="49.89753" lon="2.28536">
        <ele>25.2</ele>
        <time>2023-06-03T12:21:30Z</time>
      </trkpt>
      <trkpt lat="49.89752" lon="2.28535">
        <ele>25.2</ele>
        <time>2023-06-03T12:21:31Z</time>
      </trkpt>
      <trkpt lat="49.89752" lon="2.28533">
        <ele>25.2</ele>
        <time>2023-06-03T12:21:32Z</time>
      </trkpt>
      <trkpt lat="49.89752" lon="2.28532">
        <ele>25.2</ele>
        <time>2023-06-03T12:21:33Z</time>
      </trkpt>
      <trkpt lat="49.89751" lon="2.2853">
        <ele>25.2</ele>
        <time>2023-06-03T12:21:35Z</time>
      </trkpt>
      <trkpt lat="49.89751" lon="2.28528">
        <ele>25.2</ele>
        <time>2023-06-03T12:21:36Z</time>
      </trkpt>
      <trkpt lat="49.89751" lon="2.28527">
        <ele>25.2</ele>
        <time>2023-06-03T12:21:37Z</time>
      </trkpt>
      <trkpt lat="49.8975" lon="2.28524">
        <ele>25.2</ele>
        <time>2023-06-03T12:21:38Z</time>
      </trkpt>
      <trkpt lat="49.8975" lon="2.28522">
        <ele>25.2</ele>
        <time>2023-06-03T12:21:39Z</time>
      </trkpt>
      <trkpt lat="49.89749" lon="2.28521">
        <ele>25.2</ele>
        <time>2023-06-03T12:21:40Z</time>
      </trkpt>
      <trkpt lat="49.89748" lon="2.28517">
        <ele>25.2</ele>
        <time>2023-06-03T12:21:41Z</time>
      </trkpt>
      <trkpt lat="49.89748" lon="2.28515">
        <ele>25.2</ele>
        <time>2023-06-03T12:21:42Z</time>
      </trkpt>
      <trkpt lat="49.89747" lon="2.28513">
        <ele>25.2</ele>
        <time>2023-06-03T12:21:43Z</time>
      </trkpt>
      <trkpt lat="49.89747" lon="2.28512">
        <ele>25.2</ele>
        <time>2023-06-03T12:21:44Z</time>
      </trkpt>
      <trkpt lat="49.89747" lon="2.28511">
        <ele>25.2</ele>
        <time>2023-06-03T12:21:45Z</time>
      </trkpt>
      <trkpt lat="49.89746" lon="2.28509">
        <ele>25.3</ele>
        <time>2023-06-03T12:21:47Z</time>
      </trkpt>
      <trkpt lat="49.89746" lon="2.28506">
        <ele>25.3</ele>
        <time>2023-06-03T12:21:48Z</time>
      </trkpt>
      <trkpt lat="49.89745" lon="2.28504">
        <ele>25.3</ele>
        <time>2023-06-03T12:21:49Z</time>
      </trkpt>
      <trkpt lat="49.89744" lon="2.28502">
        <ele>25.3</ele>
        <time>2023-06-03T12:21:50Z</time>
      </trkpt>
      <trkpt lat="49.89744" lon="2.28499">
        <ele>25.3</ele>
        <time>2023-06-03T12:21:52Z</time>
      </trkpt>
      <trkpt lat="49.89743" lon="2.28497">
        <ele>25.3</ele>
        <time>2023-06-03T12:21:53Z</time>
      </trkpt>
      <trkpt lat="49.89742" lon="2.28494">
        <ele>25.3</ele>
        <time>2023-06-03T12:21:54Z</time>
      </trkpt>
      <trkpt lat="49.89741" lon="2.28492">
        <ele>25.3</ele>
        <time>2023-06-03T12:21:55Z</time>
      </trkpt>
      <trkpt lat="49.8974" lon="2.2849">
        <ele>25.3</ele>
        <time>2023-06-03T12:21:56Z</time>
      </trkpt>
      <trkpt lat="49.8974" lon="2.28489">
        <ele>25.3</ele>
        <time>2023-06-03T12:21:57Z</time>
      </trkpt>
      <trkpt lat="49.89739" lon="2.28486">
        <ele>25.3</ele>
        <time>2023-06-03T12:21:58Z</time>
      </trkpt>
      <trkpt lat="49.89739" lon="2.28484">
        <ele>25.3</ele>
        <time>2023-06-03T12:22:00Z</time>
      </trkpt>
      <trkpt lat="49.89739" lon="2.28483">
        <ele>25.3</ele>
        <time>2023-06-03T12:22:01Z</time>
      </trkpt>
      <trkpt lat="49.89738" lon="2.28481">
        <ele>25.3</ele>
        <time>2023-06-03T12:22:02Z</time>
      </trkpt>
      <trkpt lat="49.89738" lon="2.2848">
        <ele>25.3</ele>
        <time>2023-06-03T12:22:04Z</time>
      </trkpt>
      <trkpt lat="49.89738" lon="2.28478">
        <ele>25.3</ele>
        <time>2023-06-03T12:22:05Z</time>
      </trkpt>
      <trkpt lat="49.89737" lon="2.28474">
        <ele>25.3</ele>
        <time>2023-06-03T12:22:06Z</time>
      </trkpt>
      <trkpt lat="49.89737" lon="2.28473">
        <ele>25.3</ele>
        <time>2023-06-03T12:22:08Z</time>
      </trkpt>
      <trkpt lat="49.89736" lon="2.28472">
        <ele>25.3</ele>
        <time>2023-06-03T12:22:09Z</time>
      </trkpt>
      <trkpt lat="49.89736" lon="2.2847">
        <ele>25.3</ele>
        <time>2023-06-03T12:22:10Z</time>
      </trkpt>
      <trkpt lat="49.89735" lon="2.28467">
        <ele>25.3</ele>
        <time>2023-06-03T12:22:11Z</time>
      </trkpt>
      <trkpt lat="49.89734" lon="2.28464">
        <ele>25.3</ele>
        <time>2023-06-03T12:22:12Z</time>
      </trkpt>
      <trkpt lat="49.89734" lon="2.28463">
        <ele>25.3</ele>
        <time>2023-06-03T12:22:13Z</time>
      </trkpt>
      <trkpt lat="49.89734" lon="2.28462">
        <ele>25.3</ele>
        <time>2023-06-03T12:22:14Z</time>
      </trkpt>
      <trkpt lat="49.89732" lon="2.28459">
        <ele>25.3</ele>
        <time>2023-06-03T12:22:15Z</time>
      </trkpt>
      <trkpt lat="49.89732" lon="2.28457">
        <ele>25.3</ele>
        <time>2023-06-03T12:22:17Z</time>
      </trkpt>
      <trkpt lat="49.89731" lon="2.28455">
        <ele>25.3</ele>
        <time>2023-06-03T12:22:18Z</time>
      </trkpt>
      <trkpt lat="49.89731" lon="2.28454">
        <ele>25.3</ele>
        <time>2023-06-03T12:22:19Z</time>
      </trkpt>
      <trkpt lat="49.8973" lon="2.28452">
        <ele>25.4</ele>
        <time>2023-06-03T12:22:21Z</time>
      </trkpt>
      <trkpt lat="49.8973" lon="2.2845">
        <ele>25.4</ele>
        <time>2023-06-03T12:22:22Z</time>
      </trkpt>
      <trkpt lat="49.89729" lon="2.28448">
        <ele>25.4</ele>
        <time>2023-06-03T12:22:23Z</time>
      </trkpt>
      <trkpt lat="49.89728" lon="2.28444">
        <ele>25.4</ele>
        <time>2023-06-03T12:22:24Z</time>
      </trkpt>
      <trkpt lat="49.89727" lon="2.28442">
        <ele>25.4</ele>
        <time>2023-06-03T12:22:26Z</time>
      </trkpt>
      <trkpt lat="49.89727" lon="2.2844">
        <ele>25.4</ele>
        <time>2023-06-03T12:22:27Z</time>
      </trkpt>
      <trkpt lat="49.89726" lon="2.28438">
        <ele>25.4</ele>
        <time>2023-06-03T12:22:28Z</time>
      </trkpt>
      <trkpt lat="49.89725" lon="2.28434">
        <ele>25.4</ele>
        <time>2023-06-03T12:22:29Z</time>
      </trkpt>
      <trkpt lat="49.89725" lon="2.28432">
        <ele>25.4</ele>
        <time>2023-06-03T12:22:30Z</time>
      </trkpt>
      <trkpt lat="49.89725" lon="2.2843">
        <ele>25.4</ele>
        <time>2023-06-03T12:22:31Z</time>
      </trkpt>
      <trkpt lat="49.89724" lon="2.28428">
        <ele>25.4</ele>
        <time>2023-06-03T12:22:32Z</time>
      </trkpt>
      <trkpt lat="49.89724" lon="2.28426">
        <ele>25.4</ele>
        <time>2023-06-03T12:22:34Z</time>
      </trkpt>
      <trkpt lat="49.89724" lon="2.28423">
        <ele>25.4</ele>
        <time>2023-06-03T12:22:35Z</time>
      </trkpt>
      <trkpt lat="49.89724" lon="2.2842">
        <ele>25.4</ele>
        <time>2023-06-03T12:22:36Z</time>
      </trkpt>
      <trkpt lat="49.89724" lon="2.28419">
        <ele>25.4</ele>
        <time>2023-06-03T12:22:37Z</time>
      </trkpt>
      <trkpt lat="49.89724" lon="2.28417">
        <ele>25.4</ele>
        <time>2023-06-03T12:22:38Z</time>
      </trkpt>
      <trkpt lat="49.89724" lon="2.28415">
        <ele>25.4</ele>
        <time>2023-06-03T12:22:39Z</time>
      </trkpt>
      <trkpt lat="49.89724" lon="2.28414">
        <ele>25.4</ele>
        <time>2023-06-03T12:22:40Z</time>
      </trkpt>
      <trkpt lat="49.89724" lon="2.28413">
        <ele>25.4</ele>
        <time>2023-06-03T12:22:41Z</time>
      </trkpt>
      <trkpt lat="49.89725" lon="2.28412">
        <ele>25.4</ele>
        <time>2023-06-03T12:22:43Z</time>
      </trkpt>
      <trkpt lat="49.89724" lon="2.2841">
        <ele>25.4</ele>
        <time>2023-06-03T12:22:44Z</time>
      </trkpt>
      <trkpt lat="49.89724" lon="2.28408">
        <ele>25.4</ele>
        <time>2023-06-03T12:22:45Z</time>
      </trkpt>
      <trkpt lat="49.89724" lon="2.28406">
        <ele>25.4</ele>
        <time>2023-06-03T12:22:46Z</time>
      </trkpt>
      <trkpt lat="49.89724" lon="2.28405">
        <ele>25.4</ele>
        <time>2023-06-03T12:22:47Z</time>
      </trkpt>
      <trkpt lat="49.89724" lon="2.28404">
        <ele>25.4</ele>
        <time>2023-06-03T12:22:48Z</time>
      </trkpt>
      <trkpt lat="49.89724" lon="2.28403">
        <ele>25.4</ele>
        <time>2023-06-03T12:22:49Z</time>
      </trkpt>
      <trkpt lat="49.89724" lon="2.28401">
        <ele>25.4</ele>
        <time>2023-06-03T12:22:50Z</time>
      </trkpt>
      <trkpt lat="49.89723" lon="2.28398">
        <ele>25.4</ele>
        <time>2023-06-03T12:22:52Z</time>
      </trkpt>
      <trkpt lat="49.89722" lon="2.28396">
        <ele>25.4</ele>
        <time>2023-06-03T12:22:53Z</time>
      </trkpt>
      <trkpt lat="49.89721" lon="2.28394">
        <ele>25.4</ele>
        <time>2023-06-03T12:22:55Z</time>
      </trkpt>
      <trkpt lat="49.89721" lon="2.28393">
        <ele>25.4</ele>
        <time>2023-06-03T12:22:56Z</time>
      </trkpt>
      <trkpt lat="49.8972" lon="2.28391">
        <ele>25.4</ele>
        <time>2023-06-03T12:22:57Z</time>
      </trkpt>
      <trkpt lat="49.8972" lon="2.2839">
        <ele>25.4</ele>
        <time>2023-06-03T12:22:58Z</time>
      </trkpt>
      <trkpt lat="49.89719" lon="2.28388">
        <ele>25.4</ele>
        <time>2023-06-03T12:22:59Z</time>
      </trkpt>
      <trkpt lat="49.89719" lon="2.28386">
        <ele>25.4</ele>
        <time>2023-06-03T12:23:00Z</time>
      </trkpt>
      <trkpt lat="49.89718" lon="2.28384">
        <ele>25.4</ele>
        <time>2023-06-03T12:23:01Z</time>
      </trkpt>
      <trkpt lat="49.89718" lon="2.28383">
        <ele>25.4</ele>
        <time>2023-06-03T12:23:03Z</time>
      </trkpt>
      <trkpt lat="49.89717" lon="2.28382">
        <ele>25.4</ele>
        <time>2023-06-03T12:23:04Z</time>
      </trkpt>
      <trkpt lat="49.89716" lon="2.28381">
        <ele>25.4</ele>
        <time>2023-06-03T12:23:05Z</time>
      </trkpt>
      <trkpt lat="49.89715" lon="2.28379">
        <ele>25.4</ele>
        <time>2023-06-03T12:23:06Z</time>
      </trkpt>
      <trkpt lat="49.89715" lon="2.28378">
        <ele>25.4</ele>
        <time>2023-06-03T12:23:07Z</time>
      </trkpt>
      <trkpt lat="49.89714" lon="2.28374">
        <ele>25.4</ele>
        <time>2023-06-03T12:23:08Z</time>
      </trkpt>
      <trkpt lat="49.89713" lon="2.28372">
        <ele>25.4</ele>
        <time>2023-06-03T12:23:09Z</time>
      </trkpt>
      <trkpt lat="49.89713" lon="2.2837">
        <ele>25.4</ele>
        <time>2023-06-03T12:23:10Z</time>
      </trkpt>
      <trkpt lat="49.89711" lon="2.28364">
        <ele>25.4</ele>
        <time>2023-06-03T12:23:12Z</time>
      </trkpt>
      <trkpt lat="49.8971" lon="2.28362">
        <ele>25.4</ele>
        <time>2023-06-03T12:23:13Z</time>
      </trkpt>
      <trkpt lat="49.8971" lon="2.28358">
        <ele>25.4</ele>
        <time>2023-06-03T12:23:15Z</time>
      </trkpt>
      <trkpt lat="49.89709" lon="2.28356">
        <ele>25.4</ele>
        <time>2023-06-03T12:23:16Z</time>
      </trkpt>
      <trkpt lat="49.89708" lon="2.28354">
        <ele>25.4</ele>
        <time>2023-06-03T12:23:17Z</time>
      </trkpt>
      <trkpt lat="49.89708" lon="2.28353">
        <ele>25.4</ele>
        <time>2023-06-03T12:23:18Z</time>
      </trkpt>
      <trkpt lat="49.89708" lon="2.28353">
        <ele>25.4</ele>
        <time>2023-06-03T12:23:19Z</time>
      </trkpt>
      <trkpt lat="49.89707" lon="2.28352">
        <ele>25.4</ele>
        <time>2023-06-03T12:23:20Z</time>
      </trkpt>
      <trkpt lat="49.89707" lon="2.28351">
        <ele>25.4</ele>
        <time>2023-06-03T12:23:21Z</time>
      </trkpt>
      <trkpt lat="49.89707" lon="2.2835">
        <ele>25.4</ele>
        <time>2023-06-03T12:23:22Z</time>
      </trkpt>
      <trkpt lat="49.89707" lon="2.2835">
        <ele>25.4</ele>
        <time>2023-06-03T12:23:24Z</time>
      </trkpt>
      <trkpt lat="49.89706" lon="2.28349">
        <ele>25.4</ele>
        <time>2023-06-03T12:23:25Z</time>
      </trkpt>
      <trkpt lat="49.89706" lon="2.28348">
        <ele>25.4</ele>
        <time>2023-06-03T12:23:26Z</time>
      </trkpt>
      <trkpt lat="49.89705" lon="2.28347">
        <ele>25.4</ele>
        <time>2023-06-03T12:23:27Z</time>
      </trkpt>
      <trkpt lat="49.89705" lon="2.28346">
        <ele>25.4</ele>
        <time>2023-06-03T12:23:28Z</time>
      </trkpt>
      <trkpt lat="49.89705" lon="2.28345">
        <ele>25.4</ele>
        <time>2023-06-03T12:23:29Z</time>
      </trkpt>
      <trkpt lat="49.89705" lon="2.28345">
        <ele>25.4</ele>
        <time>2023-06-03T12:23:31Z</time>
      </trkpt>
      <trkpt lat="49.89704" lon="2.28343">
        <ele>25.4</ele>
        <time>2023-06-03T12:23:32Z</time>
      </trkpt>
      <trkpt lat="49.89704" lon="2.28341">
        <ele>25.4</ele>
        <time>2023-06-03T12:23:33Z</time>
      </trkpt>
      <trkpt lat="49.89703" lon="2.28338">
        <ele>25.4</ele>
        <time>2023-06-03T12:23:34Z</time>
      </trkpt>
      <trkpt lat="49.89702" lon="2.28336">
        <ele>25.5</ele>
        <time>2023-06-03T12:23:35Z</time>
      </trkpt>
      <trkpt lat="49.89702" lon="2.28334">
        <ele>25.5</ele>
        <time>2023-06-03T12:23:36Z</time>
      </trkpt>
      <trkpt lat="49.89701" lon="2.28329">
        <ele>25.5</ele>
        <time>2023-06-03T12:23:38Z</time>
      </trkpt>
      <trkpt lat="49.89701" lon="2.28326">
        <ele>25.5</ele>
        <time>2023-06-03T12:23:39Z</time>
      </trkpt>
      <trkpt lat="49.89701" lon="2.28324">
        <ele>25.5</ele>
        <time>2023-06-03T12:23:40Z</time>
      </trkpt>
      <trkpt lat="49.897" lon="2.28319">
        <ele>25.5</ele>
        <time>2023-06-03T12:23:42Z</time>
      </trkpt>
      <trkpt lat="49.897" lon="2.28318">
        <ele>25.5</ele>
        <time>2023-06-03T12:23:43Z</time>
      </trkpt>
      <trkpt lat="49.897" lon="2.28315">
        <ele>25.5</ele>
        <time>2023-06-03T12:23:44Z</time>
      </trkpt>
      <trkpt lat="49.89699" lon="2.28313">
        <ele>25.5</ele>
        <time>2023-06-03T12:23:45Z</time>
      </trkpt>
      <trkpt lat="49.89699" lon="2.28312">
        <ele>25.5</ele>
        <time>2023-06-03T12:23:46Z</time>
      </trkpt>
      <trkpt lat="49.89699" lon="2.2831">
        <ele>25.5</ele>
        <time>2023-06-03T12:23:47Z</time>
      </trkpt>
      <trkpt lat="49.89699" lon="2.28308">
        <ele>25.5</ele>
        <time>2023-06-03T12:23:48Z</time>
      </trkpt>
      <trkpt lat="49.89699" lon="2.28307">
        <ele>25.5</ele>
        <time>2023-06-03T12:23:49Z</time>
      </trkpt>
      <trkpt lat="49.89698" lon="2.28306">
        <ele>25.4</ele>
        <time>2023-06-03T12:23:51Z</time>
      </trkpt>
      <trkpt lat="49.89697" lon="2.28305">
        <ele>25.4</ele>
        <time>2023-06-03T12:23:52Z</time>
      </trkpt>
      <trkpt lat="49.89697" lon="2.28303">
        <ele>25.4</ele>
        <time>2023-06-03T12:23:53Z</time>
      </trkpt>
      <trkpt lat="49.89697" lon="2.28302">
        <ele>25.4</ele>
        <time>2023-06-03T12:23:54Z</time>
      </trkpt>
      <trkpt lat="49.89697" lon="2.283">
        <ele>25.4</ele>
        <time>2023-06-03T12:23:55Z</time>
      </trkpt>
      <trkpt lat="49.89696" lon="2.28298">
        <ele>25.4</ele>
        <time>2023-06-03T12:23:56Z</time>
      </trkpt>
      <trkpt lat="49.89696" lon="2.28295">
        <ele>25.4</ele>
        <time>2023-06-03T12:23:58Z</time>
      </trkpt>
      <trkpt lat="49.89696" lon="2.28294">
        <ele>25.3</ele>
        <time>2023-06-03T12:23:59Z</time>
      </trkpt>
      <trkpt lat="49.89696" lon="2.28292">
        <ele>25.3</ele>
        <time>2023-06-03T12:24:00Z</time>
      </trkpt>
      <trkpt lat="49.89696" lon="2.28289">
        <ele>25.3</ele>
        <time>2023-06-03T12:24:01Z</time>
      </trkpt>
      <trkpt lat="49.89697" lon="2.28287">
        <ele>25.3</ele>
        <time>2023-06-03T12:24:03Z</time>
      </trkpt>
      <trkpt lat="49.89697" lon="2.28286">
        <ele>25.3</ele>
        <time>2023-06-03T12:24:04Z</time>
      </trkpt>
      <trkpt lat="49.89698" lon="2.28284">
        <ele>25.3</ele>
        <time>2023-06-03T12:24:05Z</time>
      </trkpt>
      <trkpt lat="49.89698" lon="2.28283">
        <ele>25.3</ele>
        <time>2023-06-03T12:24:06Z</time>
      </trkpt>
      <trkpt lat="49.89699" lon="2.28281">
        <ele>25.3</ele>
        <time>2023-06-03T12:24:07Z</time>
      </trkpt>
      <trkpt lat="49.897" lon="2.2828">
        <ele>25.3</ele>
        <time>2023-06-03T12:24:08Z</time>
      </trkpt>
      <trkpt lat="49.897" lon="2.28279">
        <ele>25.3</ele>
        <time>2023-06-03T12:24:09Z</time>
      </trkpt>
      <trkpt lat="49.89701" lon="2.28278">
        <ele>25.3</ele>
        <time>2023-06-03T12:24:10Z</time>
      </trkpt>
      <trkpt lat="49.89701" lon="2.28275">
        <ele>25.3</ele>
        <time>2023-06-03T12:24:12Z</time>
      </trkpt>
      <trkpt lat="49.89701" lon="2.28275">
        <ele>25.3</ele>
        <time>2023-06-03T12:24:13Z</time>
      </trkpt>
      <trkpt lat="49.89701" lon="2.28275">
        <ele>25.3</ele>
        <time>2023-06-03T12:24:14Z</time>
      </trkpt>
      <trkpt lat="49.89701" lon="2.28275">
        <ele>25.3</ele>
        <time>2023-06-03T12:24:16Z</time>
      </trkpt>
      <trkpt lat="49.89701" lon="2.28276">
        <ele>25.3</ele>
        <time>2023-06-03T12:24:17Z</time>
      </trkpt>
      <trkpt lat="49.89701" lon="2.28276">
        <ele>25.3</ele>
        <time>2023-06-03T12:24:18Z</time>
      </trkpt>
      <trkpt lat="49.89701" lon="2.28276">
        <ele>25.3</ele>
        <time>2023-06-03T12:24:20Z</time>
      </trkpt>
      <trkpt lat="49.89701" lon="2.28276">
        <ele>25.3</ele>
        <time>2023-06-03T12:24:21Z</time>
      </trkpt>
      <trkpt lat="49.89701" lon="2.28276">
        <ele>25.3</ele>
        <time>2023-06-03T12:24:22Z</time>
      </trkpt>
      <trkpt lat="49.89701" lon="2.28276">
        <ele>25.3</ele>
        <time>2023-06-03T12:24:24Z</time>
      </trkpt>
      <trkpt lat="49.89701" lon="2.28276">
        <ele>25.3</ele>
        <time>2023-06-03T12:24:25Z</time>
      </trkpt>
      <trkpt lat="49.89701" lon="2.28276">
        <ele>25.3</ele>
        <time>2023-06-03T12:24:26Z</time>
      </trkpt>
      <trkpt lat="49.89701" lon="2.28276">
        <ele>25.3</ele>
        <time>2023-06-03T12:24:28Z</time>
      </trkpt>
      <trkpt lat="49.89701" lon="2.28276">
        <ele>25.3</ele>
        <time>2023-06-03T12:24:29Z</time>
      </trkpt>
      <trkpt lat="49.89701" lon="2.28276">
        <ele>25.3</ele>
        <time>2023-06-03T12:24:30Z</time>
      </trkpt>
      <trkpt lat="49.89701" lon="2.28276">
        <ele>25.3</ele>
        <time>2023-06-03T12:24:31Z</time>
      </trkpt>
      <trkpt lat="49.89701" lon="2.28276">
        <ele>25.3</ele>
        <time>2023-06-03T12:24:32Z</time>
      </trkpt>
      <trkpt lat="49.89701" lon="2.28276">
        <ele>25.3</ele>
        <time>2023-06-03T12:24:34Z</time>
      </trkpt>
      <trkpt lat="49.89701" lon="2.28277">
        <ele>25.3</ele>
        <time>2023-06-03T12:24:35Z</time>
      </trkpt>
      <trkpt lat="49.89701" lon="2.28277">
        <ele>25.3</ele>
        <time>2023-06-03T12:24:36Z</time>
      </trkpt>
      <trkpt lat="49.89701" lon="2.28277">
        <ele>25.3</ele>
        <time>2023-06-03T12:24:37Z</time>
      </trkpt>
      <trkpt lat="49.89701" lon="2.28277">
        <ele>25.3</ele>
        <time>2023-06-03T12:24:38Z</time>
      </trkpt>
      <trkpt lat="49.897" lon="2.28277">
        <ele>25.3</ele>
        <time>2023-06-03T12:24:39Z</time>
      </trkpt>
      <trkpt lat="49.897" lon="2.28277">
        <ele>25.3</ele>
        <time>2023-06-03T12:24:40Z</time>
      </trkpt>
      <trkpt lat="49.897" lon="2.28277">
        <ele>25.3</ele>
        <time>2023-06-03T12:24:41Z</time>
      </trkpt>
      <trkpt lat="49.897" lon="2.28277">
        <ele>25.3</ele>
        <time>2023-06-03T12:24:42Z</time>
      </trkpt>
      <trkpt lat="49.897" lon="2.28277">
        <ele>25.3</ele>
        <time>2023-06-03T12:24:43Z</time>
      </trkpt>
      <trkpt lat="49.897" lon="2.28277">
        <ele>25.3</ele>
        <time>2023-06-03T12:24:44Z</time>
      </trkpt>
      <trkpt lat="49.897" lon="2.28277">
        <ele>25.3</ele>
        <time>2023-06-03T12:24:45Z</time>
      </trkpt>
      <trkpt lat="49.897" lon="2.28277">
        <ele>25.3</ele>
        <time>2023-06-03T12:24:46Z</time>
      </trkpt>
      <trkpt lat="49.897" lon="2.28277">
        <ele>25.3</ele>
        <time>2023-06-03T12:24:47Z</time>
      </trkpt>
      <trkpt lat="49.897" lon="2.28278">
        <ele>25.3</ele>
        <time>2023-06-03T12:24:48Z</time>
      </trkpt>
      <trkpt lat="49.897" lon="2.28278">
        <ele>25.3</ele>
        <time>2023-06-03T12:24:49Z</time>
      </trkpt>
      <trkpt lat="49.897" lon="2.28278">
        <ele>25.3</ele>
        <time>2023-06-03T12:24:50Z</time>
      </trkpt>
      <trkpt lat="49.897" lon="2.28278">
        <ele>25.3</ele>
        <time>2023-06-03T12:24:51Z</time>
      </trkpt>
      <trkpt lat="49.897" lon="2.28278">
        <ele>25.3</ele>
        <time>2023-06-03T12:24:52Z</time>
      </trkpt>
      <trkpt lat="49.897" lon="2.28278">
        <ele>25.3</ele>
        <time>2023-06-03T12:24:53Z</time>
      </trkpt>
      <trkpt lat="49.897" lon="2.28278">
        <ele>25.3</ele>
        <time>2023-06-03T12:24:54Z</time>
      </trkpt>
      <trkpt lat="49.897" lon="2.28278">
        <ele>25.3</ele>
        <time>2023-06-03T12:24:55Z</time>
      </trkpt>
      <trkpt lat="49.897" lon="2.28278">
        <ele>25.3</ele>
        <time>2023-06-03T12:24:56Z</time>
      </trkpt>
      <trkpt lat="49.897" lon="2.28278">
        <ele>25.3</ele>
        <time>2023-06-03T12:24:57Z</time>
      </trkpt>
      <trkpt lat="49.897" lon="2.28278">
        <ele>25.3</ele>
        <time>2023-06-03T12:24:58Z</time>
      </trkpt>
      <trkpt lat="49.897" lon="2.28278">
        <ele>25.3</ele>
        <time>2023-06-03T12:24:59Z</time>
      </trkpt>
      <trkpt lat="49.897" lon="2.28278">
        <ele>25.3</ele>
        <time>2023-06-03T12:25:00Z</time>
      </trkpt>
      <trkpt lat="49.897" lon="2.28278">
        <ele>25.3</ele>
        <time>2023-06-03T12:25:01Z</time>
      </trkpt>
      <trkpt lat="49.897" lon="2.28279">
        <ele>25.3</ele>
        <time>2023-06-03T12:25:02Z</time>
      </trkpt>
      <trkpt lat="49.897" lon="2.28279">
        <ele>25.3</ele>
        <time>2023-06-03T12:25:03Z</time>
      </trkpt>
      <trkpt lat="49.897" lon="2.28279">
        <ele>25.3</ele>
        <time>2023-06-03T12:25:04Z</time>
      </trkpt>
      <trkpt lat="49.897" lon="2.28279">
        <ele>25.3</ele>
        <time>2023-06-03T12:25:05Z</time>
      </trkpt>
      <trkpt lat="49.897" lon="2.28279">
        <ele>25.3</ele>
        <time>2023-06-03T12:25:06Z</time>
      </trkpt>
      <trkpt lat="49.897" lon="2.28279">
        <ele>25.3</ele>
        <time>2023-06-03T12:25:07Z</time>
      </trkpt>
      <trkpt lat="49.897" lon="2.28279">
        <ele>25.3</ele>
        <time>2023-06-03T12:25:08Z</time>
      </trkpt>
      <trkpt lat="49.897" lon="2.28279">
        <ele>25.3</ele>
        <time>2023-06-03T12:25:09Z</time>
      </trkpt>
      <trkpt lat="49.897" lon="2.28279">
        <ele>25.3</ele>
        <time>2023-06-03T12:25:10Z</time>
      </trkpt>
      <trkpt lat="49.897" lon="2.28281">
        <ele>25.3</ele>
        <time>2023-06-03T12:25:11Z</time>
      </trkpt>
      <trkpt lat="49.897" lon="2.28281">
        <ele>25.3</ele>
        <time>2023-06-03T12:25:12Z</time>
      </trkpt>
      <trkpt lat="49.897" lon="2.28281">
        <ele>25.3</ele>
        <time>2023-06-03T12:25:13Z</time>
      </trkpt>
      <trkpt lat="49.897" lon="2.2828">
        <ele>25.3</ele>
        <time>2023-06-03T12:25:14Z</time>
      </trkpt>
      <trkpt lat="49.897" lon="2.28279">
        <ele>25.3</ele>
        <time>2023-06-03T12:25:15Z</time>
      </trkpt>
      <trkpt lat="49.897" lon="2.28279">
        <ele>25.3</ele>
        <time>2023-06-03T12:25:16Z</time>
      </trkpt>
      <trkpt lat="49.89701" lon="2.28278">
        <ele>25.3</ele>
        <time>2023-06-03T12:25:17Z</time>
      </trkpt>
      <trkpt lat="49.89701" lon="2.28278">
        <ele>25.3</ele>
        <time>2023-06-03T12:25:19Z</time>
      </trkpt>
      <trkpt lat="49.89701" lon="2.28277">
        <ele>25.3</ele>
        <time>2023-06-03T12:25:20Z</time>
      </trkpt>
      <trkpt lat="49.89702" lon="2.28275">
        <ele>25.3</ele>
        <time>2023-06-03T12:25:21Z</time>
      </trkpt>
      <trkpt lat="49.89702" lon="2.28273">
        <ele>25.2</ele>
        <time>2023-06-03T12:25:22Z</time>
      </trkpt>
      <trkpt lat="49.89703" lon="2.28271">
        <ele>25.1</ele>
        <time>2023-06-03T12:25:23Z</time>
      </trkpt>
      <trkpt lat="49.89703" lon="2.28268">
        <ele>25.1</ele>
        <time>2023-06-03T12:25:24Z</time>
      </trkpt>
      <trkpt lat="49.89703" lon="2.28266">
        <ele>25</ele>
        <time>2023-06-03T12:25:25Z</time>
      </trkpt>
      <trkpt lat="49.89704" lon="2.28263">
        <ele>25</ele>
        <time>2023-06-03T12:25:26Z</time>
      </trkpt>
      <trkpt lat="49.89704" lon="2.2826">
        <ele>25</ele>
        <time>2023-06-03T12:25:28Z</time>
      </trkpt>
      <trkpt lat="49.89704" lon="2.28258">
        <ele>25</ele>
        <time>2023-06-03T12:25:29Z</time>
      </trkpt>
      <trkpt lat="49.89704" lon="2.28256">
        <ele>25</ele>
        <time>2023-06-03T12:25:30Z</time>
      </trkpt>
      <trkpt lat="49.89704" lon="2.28254">
        <ele>24.9</ele>
        <time>2023-06-03T12:25:31Z</time>
      </trkpt>
      <trkpt lat="49.89704" lon="2.28252">
        <ele>24.9</ele>
        <time>2023-06-03T12:25:32Z</time>
      </trkpt>
      <trkpt lat="49.89704" lon="2.28251">
        <ele>24.9</ele>
        <time>2023-06-03T12:25:33Z</time>
      </trkpt>
      <trkpt lat="49.89704" lon="2.28249">
        <ele>24.9</ele>
        <time>2023-06-03T12:25:34Z</time>
      </trkpt>
      <trkpt lat="49.89703" lon="2.28248">
        <ele>24.9</ele>
        <time>2023-06-03T12:25:35Z</time>
      </trkpt>
      <trkpt lat="49.89703" lon="2.28246">
        <ele>24.9</ele>
        <time>2023-06-03T12:25:37Z</time>
      </trkpt>
      <trkpt lat="49.89704" lon="2.28244">
        <ele>24.8</ele>
        <time>2023-06-03T12:25:38Z</time>
      </trkpt>
      <trkpt lat="49.89704" lon="2.28242">
        <ele>24.8</ele>
        <time>2023-06-03T12:25:39Z</time>
      </trkpt>
      <trkpt lat="49.89704" lon="2.28241">
        <ele>24.8</ele>
        <time>2023-06-03T12:25:40Z</time>
      </trkpt>
      <trkpt lat="49.89705" lon="2.28239">
        <ele>24.8</ele>
        <time>2023-06-03T12:25:41Z</time>
      </trkpt>
      <trkpt lat="49.89705" lon="2.28237">
        <ele>24.8</ele>
        <time>2023-06-03T12:25:42Z</time>
      </trkpt>
      <trkpt lat="49.89706" lon="2.28236">
        <ele>24.8</ele>
        <time>2023-06-03T12:25:43Z</time>
      </trkpt>
      <trkpt lat="49.89706" lon="2.28233">
        <ele>24.7</ele>
        <time>2023-06-03T12:25:45Z</time>
      </trkpt>
      <trkpt lat="49.89707" lon="2.28231">
        <ele>24.7</ele>
        <time>2023-06-03T12:25:46Z</time>
      </trkpt>
      <trkpt lat="49.89707" lon="2.2823">
        <ele>24.7</ele>
        <time>2023-06-03T12:25:47Z</time>
      </trkpt>
      <trkpt lat="49.89708" lon="2.28227">
        <ele>24.7</ele>
        <time>2023-06-03T12:25:49Z</time>
      </trkpt>
      <trkpt lat="49.89708" lon="2.28225">
        <ele>24.6</ele>
        <time>2023-06-03T12:25:50Z</time>
      </trkpt>
      <trkpt lat="49.89708" lon="2.28222">
        <ele>24.6</ele>
        <time>2023-06-03T12:25:51Z</time>
      </trkpt>
      <trkpt lat="49.89709" lon="2.28219">
        <ele>24.6</ele>
        <time>2023-06-03T12:25:52Z</time>
      </trkpt>
      <trkpt lat="49.89709" lon="2.28217">
        <ele>24.6</ele>
        <time>2023-06-03T12:25:53Z</time>
      </trkpt>
      <trkpt lat="49.8971" lon="2.28213">
        <ele>24.5</ele>
        <time>2023-06-03T12:25:54Z</time>
      </trkpt>
      <trkpt lat="49.8971" lon="2.28211">
        <ele>24.5</ele>
        <time>2023-06-03T12:25:55Z</time>
      </trkpt>
      <trkpt lat="49.8971" lon="2.28209">
        <ele>24.5</ele>
        <time>2023-06-03T12:25:56Z</time>
      </trkpt>
      <trkpt lat="49.89711" lon="2.28206">
        <ele>24.5</ele>
        <time>2023-06-03T12:25:58Z</time>
      </trkpt>
      <trkpt lat="49.89711" lon="2.28203">
        <ele>24.4</ele>
        <time>2023-06-03T12:25:59Z</time>
      </trkpt>
      <trkpt lat="49.89711" lon="2.282">
        <ele>24.4</ele>
        <time>2023-06-03T12:26:00Z</time>
      </trkpt>
      <trkpt lat="49.89712" lon="2.28198">
        <ele>24.4</ele>
        <time>2023-06-03T12:26:01Z</time>
      </trkpt>
      <trkpt lat="49.89712" lon="2.28196">
        <ele>24.4</ele>
        <time>2023-06-03T12:26:03Z</time>
      </trkpt>
      <trkpt lat="49.89712" lon="2.28193">
        <ele>24.4</ele>
        <time>2023-06-03T12:26:04Z</time>
      </trkpt>
      <trkpt lat="49.89712" lon="2.2819">
        <ele>24.3</ele>
        <time>2023-06-03T12:26:05Z</time>
      </trkpt>
      <trkpt lat="49.89712" lon="2.28188">
        <ele>24.3</ele>
        <time>2023-06-03T12:26:06Z</time>
      </trkpt>
      <trkpt lat="49.89712" lon="2.28186">
        <ele>24.3</ele>
        <time>2023-06-03T12:26:07Z</time>
      </trkpt>
      <trkpt lat="49.89712" lon="2.28185">
        <ele>24.3</ele>
        <time>2023-06-03T12:26:08Z</time>
      </trkpt>
      <trkpt lat="49.89712" lon="2.28182">
        <ele>24.3</ele>
        <time>2023-06-03T12:26:09Z</time>
      </trkpt>
      <trkpt lat="49.89712" lon="2.2818">
        <ele>24.3</ele>
        <time>2023-06-03T12:26:10Z</time>
      </trkpt>
      <trkpt lat="49.89712" lon="2.28179">
        <ele>24.3</ele>
        <time>2023-06-03T12:26:11Z</time>
      </trkpt>
      <trkpt lat="49.89712" lon="2.28177">
        <ele>24.2</ele>
        <time>2023-06-03T12:26:12Z</time>
      </trkpt>
      <trkpt lat="49.89712" lon="2.28175">
        <ele>24.2</ele>
        <time>2023-06-03T12:26:13Z</time>
      </trkpt>
      <trkpt lat="49.89713" lon="2.28171">
        <ele>24.2</ele>
        <time>2023-06-03T12:26:15Z</time>
      </trkpt>
      <trkpt lat="49.89713" lon="2.28167">
        <ele>24.2</ele>
        <time>2023-06-03T12:26:16Z</time>
      </trkpt>
      <trkpt lat="49.89713" lon="2.28166">
        <ele>24.1</ele>
        <time>2023-06-03T12:26:17Z</time>
      </trkpt>
      <trkpt lat="49.89714" lon="2.28163">
        <ele>24.1</ele>
        <time>2023-06-03T12:26:19Z</time>
      </trkpt>
      <trkpt lat="49.89714" lon="2.28161">
        <ele>24.1</ele>
        <time>2023-06-03T12:26:20Z</time>
      </trkpt>
      <trkpt lat="49.89714" lon="2.28159">
        <ele>24.1</ele>
        <time>2023-06-03T12:26:21Z</time>
      </trkpt>
      <trkpt lat="49.89714" lon="2.28158">
        <ele>24.1</ele>
        <time>2023-06-03T12:26:23Z</time>
      </trkpt>
      <trkpt lat="49.89714" lon="2.28156">
        <ele>24.1</ele>
        <time>2023-06-03T12:26:24Z</time>
      </trkpt>
      <trkpt lat="49.89714" lon="2.28154">
        <ele>24.1</ele>
        <time>2023-06-03T12:26:25Z</time>
      </trkpt>
      <trkpt lat="49.89714" lon="2.28152">
        <ele>24</ele>
        <time>2023-06-03T12:26:27Z</time>
      </trkpt>
      <trkpt lat="49.89715" lon="2.2815">
        <ele>24</ele>
        <time>2023-06-03T12:26:28Z</time>
      </trkpt>
      <trkpt lat="49.89715" lon="2.28148">
        <ele>24</ele>
        <time>2023-06-03T12:26:29Z</time>
      </trkpt>
      <trkpt lat="49.89716" lon="2.28146">
        <ele>24</ele>
        <time>2023-06-03T12:26:30Z</time>
      </trkpt>
      <trkpt lat="49.89717" lon="2.28142">
        <ele>24</ele>
        <time>2023-06-03T12:26:31Z</time>
      </trkpt>
      <trkpt lat="49.89718" lon="2.2814">
        <ele>24</ele>
        <time>2023-06-03T12:26:32Z</time>
      </trkpt>
      <trkpt lat="49.89718" lon="2.28139">
        <ele>23.9</ele>
        <time>2023-06-03T12:26:33Z</time>
      </trkpt>
      <trkpt lat="49.89719" lon="2.28135">
        <ele>23.9</ele>
        <time>2023-06-03T12:26:35Z</time>
      </trkpt>
      <trkpt lat="49.8972" lon="2.28132">
        <ele>23.9</ele>
        <time>2023-06-03T12:26:36Z</time>
      </trkpt>
      <trkpt lat="49.89721" lon="2.2813">
        <ele>23.9</ele>
        <time>2023-06-03T12:26:37Z</time>
      </trkpt>
      <trkpt lat="49.89721" lon="2.28128">
        <ele>23.9</ele>
        <time>2023-06-03T12:26:39Z</time>
      </trkpt>
      <trkpt lat="49.89722" lon="2.28127">
        <ele>23.9</ele>
        <time>2023-06-03T12:26:40Z</time>
      </trkpt>
      <trkpt lat="49.89722" lon="2.28125">
        <ele>23.9</ele>
        <time>2023-06-03T12:26:41Z</time>
      </trkpt>
      <trkpt lat="49.89722" lon="2.28123">
        <ele>23.9</ele>
        <time>2023-06-03T12:26:42Z</time>
      </trkpt>
      <trkpt lat="49.89723" lon="2.28121">
        <ele>23.8</ele>
        <time>2023-06-03T12:26:44Z</time>
      </trkpt>
      <trkpt lat="49.89723" lon="2.28119">
        <ele>23.8</ele>
        <time>2023-06-03T12:26:45Z</time>
      </trkpt>
      <trkpt lat="49.89724" lon="2.28116">
        <ele>23.8</ele>
        <time>2023-06-03T12:26:46Z</time>
      </trkpt>
      <trkpt lat="49.89724" lon="2.28114">
        <ele>23.8</ele>
        <time>2023-06-03T12:26:47Z</time>
      </trkpt>
      <trkpt lat="49.89724" lon="2.28112">
        <ele>23.8</ele>
        <time>2023-06-03T12:26:48Z</time>
      </trkpt>
      <trkpt lat="49.89725" lon="2.2811">
        <ele>23.8</ele>
        <time>2023-06-03T12:26:49Z</time>
      </trkpt>
      <trkpt lat="49.89725" lon="2.28108">
        <ele>23.8</ele>
        <time>2023-06-03T12:26:51Z</time>
      </trkpt>
      <trkpt lat="49.89725" lon="2.28107">
        <ele>23.8</ele>
        <time>2023-06-03T12:26:52Z</time>
      </trkpt>
      <trkpt lat="49.89725" lon="2.28105">
        <ele>23.8</ele>
        <time>2023-06-03T12:26:53Z</time>
      </trkpt>
      <trkpt lat="49.89725" lon="2.28103">
        <ele>23.8</ele>
        <time>2023-06-03T12:26:54Z</time>
      </trkpt>
      <trkpt lat="49.89725" lon="2.28101">
        <ele>23.8</ele>
        <time>2023-06-03T12:26:55Z</time>
      </trkpt>
      <trkpt lat="49.89726" lon="2.281">
        <ele>23.8</ele>
        <time>2023-06-03T12:26:56Z</time>
      </trkpt>
      <trkpt lat="49.89726" lon="2.28098">
        <ele>23.8</ele>
        <time>2023-06-03T12:26:57Z</time>
      </trkpt>
      <trkpt lat="49.89726" lon="2.28095">
        <ele>23.8</ele>
        <time>2023-06-03T12:26:59Z</time>
      </trkpt>
      <trkpt lat="49.89727" lon="2.28093">
        <ele>23.7</ele>
        <time>2023-06-03T12:27:00Z</time>
      </trkpt>
      <trkpt lat="49.89727" lon="2.2809">
        <ele>23.7</ele>
        <time>2023-06-03T12:27:01Z</time>
      </trkpt>
      <trkpt lat="49.89728" lon="2.28088">
        <ele>23.7</ele>
        <time>2023-06-03T12:27:02Z</time>
      </trkpt>
      <trkpt lat="49.89728" lon="2.28085">
        <ele>23.7</ele>
        <time>2023-06-03T12:27:03Z</time>
      </trkpt>
      <trkpt lat="49.89729" lon="2.28083">
        <ele>23.7</ele>
        <time>2023-06-03T12:27:04Z</time>
      </trkpt>
      <trkpt lat="49.89729" lon="2.28081">
        <ele>23.7</ele>
        <time>2023-06-03T12:27:05Z</time>
      </trkpt>
      <trkpt lat="49.89729" lon="2.28079">
        <ele>23.7</ele>
        <time>2023-06-03T12:27:06Z</time>
      </trkpt>
      <trkpt lat="49.89728" lon="2.28078">
        <ele>23.7</ele>
        <time>2023-06-03T12:27:07Z</time>
      </trkpt>
      <trkpt lat="49.89728" lon="2.28076">
        <ele>23.7</ele>
        <time>2023-06-03T12:27:08Z</time>
      </trkpt>
      <trkpt lat="49.89728" lon="2.28075">
        <ele>23.7</ele>
        <time>2023-06-03T12:27:10Z</time>
      </trkpt>
      <trkpt lat="49.89728" lon="2.28071">
        <ele>23.7</ele>
        <time>2023-06-03T12:27:11Z</time>
      </trkpt>
      <trkpt lat="49.89728" lon="2.28068">
        <ele>23.7</ele>
        <time>2023-06-03T12:27:12Z</time>
      </trkpt>
      <trkpt lat="49.89728" lon="2.28067">
        <ele>23.7</ele>
        <time>2023-06-03T12:27:14Z</time>
      </trkpt>
      <trkpt lat="49.89729" lon="2.28065">
        <ele>23.7</ele>
        <time>2023-06-03T12:27:15Z</time>
      </trkpt>
      <trkpt lat="49.89729" lon="2.28064">
        <ele>23.7</ele>
        <time>2023-06-03T12:27:16Z</time>
      </trkpt>
      <trkpt lat="49.8973" lon="2.28063">
        <ele>23.7</ele>
        <time>2023-06-03T12:27:17Z</time>
      </trkpt>
      <trkpt lat="49.8973" lon="2.28061">
        <ele>23.7</ele>
        <time>2023-06-03T12:27:18Z</time>
      </trkpt>
      <trkpt lat="49.89731" lon="2.2806">
        <ele>23.7</ele>
        <time>2023-06-03T12:27:19Z</time>
      </trkpt>
      <trkpt lat="49.89731" lon="2.28058">
        <ele>23.7</ele>
        <time>2023-06-03T12:27:20Z</time>
      </trkpt>
      <trkpt lat="49.89732" lon="2.28055">
        <ele>23.7</ele>
        <time>2023-06-03T12:27:22Z</time>
      </trkpt>
      <trkpt lat="49.89732" lon="2.28053">
        <ele>23.7</ele>
        <time>2023-06-03T12:27:23Z</time>
      </trkpt>
      <trkpt lat="49.89733" lon="2.2805">
        <ele>23.7</ele>
        <time>2023-06-03T12:27:24Z</time>
      </trkpt>
      <trkpt lat="49.89733" lon="2.28046">
        <ele>23.6</ele>
        <time>2023-06-03T12:27:26Z</time>
      </trkpt>
      <trkpt lat="49.89733" lon="2.28044">
        <ele>23.6</ele>
        <time>2023-06-03T12:27:27Z</time>
      </trkpt>
      <trkpt lat="49.89734" lon="2.28042">
        <ele>23.6</ele>
        <time>2023-06-03T12:27:28Z</time>
      </trkpt>
      <trkpt lat="49.89734" lon="2.28039">
        <ele>23.6</ele>
        <time>2023-06-03T12:27:29Z</time>
      </trkpt>
      <trkpt lat="49.89734" lon="2.28037">
        <ele>23.6</ele>
        <time>2023-06-03T12:27:30Z</time>
      </trkpt>
      <trkpt lat="49.89735" lon="2.28036">
        <ele>23.6</ele>
        <time>2023-06-03T12:27:31Z</time>
      </trkpt>
      <trkpt lat="49.89735" lon="2.28035">
        <ele>23.6</ele>
        <time>2023-06-03T12:27:32Z</time>
      </trkpt>
      <trkpt lat="49.89736" lon="2.28035">
        <ele>23.6</ele>
        <time>2023-06-03T12:27:33Z</time>
      </trkpt>
      <trkpt lat="49.89736" lon="2.28035">
        <ele>23.6</ele>
        <time>2023-06-03T12:27:34Z</time>
      </trkpt>
      <trkpt lat="49.89736" lon="2.28034">
        <ele>23.6</ele>
        <time>2023-06-03T12:27:35Z</time>
      </trkpt>
      <trkpt lat="49.89737" lon="2.28032">
        <ele>23.6</ele>
        <time>2023-06-03T12:27:37Z</time>
      </trkpt>
      <trkpt lat="49.89737" lon="2.2803">
        <ele>23.6</ele>
        <time>2023-06-03T12:27:38Z</time>
      </trkpt>
      <trkpt lat="49.89738" lon="2.28029">
        <ele>23.6</ele>
        <time>2023-06-03T12:27:39Z</time>
      </trkpt>
      <trkpt lat="49.89738" lon="2.28027">
        <ele>23.6</ele>
        <time>2023-06-03T12:27:40Z</time>
      </trkpt>
      <trkpt lat="49.89738" lon="2.28023">
        <ele>23.6</ele>
        <time>2023-06-03T12:27:42Z</time>
      </trkpt>
      <trkpt lat="49.89739" lon="2.28022">
        <ele>23.5</ele>
        <time>2023-06-03T12:27:43Z</time>
      </trkpt>
      <trkpt lat="49.89739" lon="2.2802">
        <ele>23.5</ele>
        <time>2023-06-03T12:27:44Z</time>
      </trkpt>
      <trkpt lat="49.8974" lon="2.28018">
        <ele>23.5</ele>
        <time>2023-06-03T12:27:45Z</time>
      </trkpt>
      <trkpt lat="49.8974" lon="2.28017">
        <ele>23.5</ele>
        <time>2023-06-03T12:27:46Z</time>
      </trkpt>
      <trkpt lat="49.89741" lon="2.28015">
        <ele>23.5</ele>
        <time>2023-06-03T12:27:47Z</time>
      </trkpt>
      <trkpt lat="49.89742" lon="2.28013">
        <ele>23.5</ele>
        <time>2023-06-03T12:27:49Z</time>
      </trkpt>
      <trkpt lat="49.89742" lon="2.28011">
        <ele>23.5</ele>
        <time>2023-06-03T12:27:50Z</time>
      </trkpt>
      <trkpt lat="49.89743" lon="2.2801">
        <ele>23.5</ele>
        <time>2023-06-03T12:27:51Z</time>
      </trkpt>
      <trkpt lat="49.89743" lon="2.28009">
        <ele>23.5</ele>
        <time>2023-06-03T12:27:52Z</time>
      </trkpt>
      <trkpt lat="49.89744" lon="2.28007">
        <ele>23.5</ele>
        <time>2023-06-03T12:27:53Z</time>
      </trkpt>
      <trkpt lat="49.89744" lon="2.28004">
        <ele>23.5</ele>
        <time>2023-06-03T12:27:55Z</time>
      </trkpt>
      <trkpt lat="49.89745" lon="2.28001">
        <ele>23.5</ele>
        <time>2023-06-03T12:27:56Z</time>
      </trkpt>
      <trkpt lat="49.89745" lon="2.27999">
        <ele>23.5</ele>
        <time>2023-06-03T12:27:57Z</time>
      </trkpt>
      <trkpt lat="49.89746" lon="2.27996">
        <ele>23.5</ele>
        <time>2023-06-03T12:27:58Z</time>
      </trkpt>
      <trkpt lat="49.89746" lon="2.27994">
        <ele>23.5</ele>
        <time>2023-06-03T12:28:00Z</time>
      </trkpt>
      <trkpt lat="49.89747" lon="2.27992">
        <ele>23.5</ele>
        <time>2023-06-03T12:28:01Z</time>
      </trkpt>
      <trkpt lat="49.89747" lon="2.2799">
        <ele>23.5</ele>
        <time>2023-06-03T12:28:02Z</time>
      </trkpt>
      <trkpt lat="49.89748" lon="2.27985">
        <ele>23.5</ele>
        <time>2023-06-03T12:28:03Z</time>
      </trkpt>
      <trkpt lat="49.89749" lon="2.27984">
        <ele>23.5</ele>
        <time>2023-06-03T12:28:04Z</time>
      </trkpt>
      <trkpt lat="49.89749" lon="2.27982">
        <ele>23.5</ele>
        <time>2023-06-03T12:28:05Z</time>
      </trkpt>
      <trkpt lat="49.89749" lon="2.2798">
        <ele>23.5</ele>
        <time>2023-06-03T12:28:06Z</time>
      </trkpt>
      <trkpt lat="49.89749" lon="2.27978">
        <ele>23.5</ele>
        <time>2023-06-03T12:28:07Z</time>
      </trkpt>
      <trkpt lat="49.89748" lon="2.27975">
        <ele>23.5</ele>
        <time>2023-06-03T12:28:08Z</time>
      </trkpt>
      <trkpt lat="49.89749" lon="2.27974">
        <ele>23.5</ele>
        <time>2023-06-03T12:28:10Z</time>
      </trkpt>
      <trkpt lat="49.89749" lon="2.27972">
        <ele>23.5</ele>
        <time>2023-06-03T12:28:11Z</time>
      </trkpt>
      <trkpt lat="49.89749" lon="2.2797">
        <ele>23.5</ele>
        <time>2023-06-03T12:28:12Z</time>
      </trkpt>
      <trkpt lat="49.89749" lon="2.27969">
        <ele>23.5</ele>
        <time>2023-06-03T12:28:14Z</time>
      </trkpt>
      <trkpt lat="49.89749" lon="2.27967">
        <ele>23.5</ele>
        <time>2023-06-03T12:28:15Z</time>
      </trkpt>
      <trkpt lat="49.89749" lon="2.27965">
        <ele>23.5</ele>
        <time>2023-06-03T12:28:17Z</time>
      </trkpt>
      <trkpt lat="49.89749" lon="2.27964">
        <ele>23.5</ele>
        <time>2023-06-03T12:28:18Z</time>
      </trkpt>
      <trkpt lat="49.89749" lon="2.27962">
        <ele>23.5</ele>
        <time>2023-06-03T12:28:19Z</time>
      </trkpt>
      <trkpt lat="49.89749" lon="2.27961">
        <ele>23.5</ele>
        <time>2023-06-03T12:28:20Z</time>
      </trkpt>
      <trkpt lat="49.89749" lon="2.27959">
        <ele>23.5</ele>
        <time>2023-06-03T12:28:21Z</time>
      </trkpt>
      <trkpt lat="49.89749" lon="2.27957">
        <ele>23.5</ele>
        <time>2023-06-03T12:28:22Z</time>
      </trkpt>
      <trkpt lat="49.8975" lon="2.27953">
        <ele>23.5</ele>
        <time>2023-06-03T12:28:23Z</time>
      </trkpt>
      <trkpt lat="49.89751" lon="2.27952">
        <ele>23.5</ele>
        <time>2023-06-03T12:28:25Z</time>
      </trkpt>
      <trkpt lat="49.89751" lon="2.2795">
        <ele>23.5</ele>
        <time>2023-06-03T12:28:26Z</time>
      </trkpt>
      <trkpt lat="49.89752" lon="2.27948">
        <ele>23.5</ele>
        <time>2023-06-03T12:28:27Z</time>
      </trkpt>
      <trkpt lat="49.89752" lon="2.27946">
        <ele>23.5</ele>
        <time>2023-06-03T12:28:29Z</time>
      </trkpt>
      <trkpt lat="49.89753" lon="2.27944">
        <ele>23.5</ele>
        <time>2023-06-03T12:28:30Z</time>
      </trkpt>
      <trkpt lat="49.89753" lon="2.27942">
        <ele>23.5</ele>
        <time>2023-06-03T12:28:31Z</time>
      </trkpt>
      <trkpt lat="49.89754" lon="2.27939">
        <ele>23.5</ele>
        <time>2023-06-03T12:28:32Z</time>
      </trkpt>
      <trkpt lat="49.89754" lon="2.27937">
        <ele>23.5</ele>
        <time>2023-06-03T12:28:33Z</time>
      </trkpt>
      <trkpt lat="49.89755" lon="2.27934">
        <ele>23.5</ele>
        <time>2023-06-03T12:28:34Z</time>
      </trkpt>
      <trkpt lat="49.89756" lon="2.27932">
        <ele>23.5</ele>
        <time>2023-06-03T12:28:35Z</time>
      </trkpt>
      <trkpt lat="49.89756" lon="2.27929">
        <ele>23.5</ele>
        <time>2023-06-03T12:28:37Z</time>
      </trkpt>
      <trkpt lat="49.89757" lon="2.27926">
        <ele>23.5</ele>
        <time>2023-06-03T12:28:38Z</time>
      </trkpt>
      <trkpt lat="49.89757" lon="2.27924">
        <ele>23.5</ele>
        <time>2023-06-03T12:28:39Z</time>
      </trkpt>
      <trkpt lat="49.89757" lon="2.27922">
        <ele>23.5</ele>
        <time>2023-06-03T12:28:40Z</time>
      </trkpt>
      <trkpt lat="49.89758" lon="2.27919">
        <ele>23.5</ele>
        <time>2023-06-03T12:28:41Z</time>
      </trkpt>
      <trkpt lat="49.89758" lon="2.27917">
        <ele>23.5</ele>
        <time>2023-06-03T12:28:42Z</time>
      </trkpt>
      <trkpt lat="49.89759" lon="2.27915">
        <ele>23.5</ele>
        <time>2023-06-03T12:28:44Z</time>
      </trkpt>
      <trkpt lat="49.89759" lon="2.27913">
        <ele>23.5</ele>
        <time>2023-06-03T12:28:45Z</time>
      </trkpt>
      <trkpt lat="49.89759" lon="2.2791">
        <ele>23.5</ele>
        <time>2023-06-03T12:28:46Z</time>
      </trkpt>
      <trkpt lat="49.89759" lon="2.27909">
        <ele>23.5</ele>
        <time>2023-06-03T12:28:47Z</time>
      </trkpt>
      <trkpt lat="49.89759" lon="2.27907">
        <ele>23.5</ele>
        <time>2023-06-03T12:28:48Z</time>
      </trkpt>
      <trkpt lat="49.8976" lon="2.27905">
        <ele>23.5</ele>
        <time>2023-06-03T12:28:49Z</time>
      </trkpt>
      <trkpt lat="49.8976" lon="2.27903">
        <ele>23.5</ele>
        <time>2023-06-03T12:28:50Z</time>
      </trkpt>
      <trkpt lat="49.8976" lon="2.279">
        <ele>23.5</ele>
        <time>2023-06-03T12:28:52Z</time>
      </trkpt>
      <trkpt lat="49.8976" lon="2.27897">
        <ele>23.5</ele>
        <time>2023-06-03T12:28:53Z</time>
      </trkpt>
      <trkpt lat="49.8976" lon="2.27896">
        <ele>23.5</ele>
        <time>2023-06-03T12:28:54Z</time>
      </trkpt>
      <trkpt lat="49.8976" lon="2.27895">
        <ele>23.5</ele>
        <time>2023-06-03T12:28:55Z</time>
      </trkpt>
      <trkpt lat="49.8976" lon="2.27893">
        <ele>23.5</ele>
        <time>2023-06-03T12:28:57Z</time>
      </trkpt>
      <trkpt lat="49.89761" lon="2.27889">
        <ele>23.5</ele>
        <time>2023-06-03T12:28:58Z</time>
      </trkpt>
      <trkpt lat="49.89761" lon="2.27886">
        <ele>23.5</ele>
        <time>2023-06-03T12:28:59Z</time>
      </trkpt>
      <trkpt lat="49.89762" lon="2.27885">
        <ele>23.5</ele>
        <time>2023-06-03T12:29:01Z</time>
      </trkpt>
      <trkpt lat="49.89762" lon="2.27884">
        <ele>23.5</ele>
        <time>2023-06-03T12:29:02Z</time>
      </trkpt>
      <trkpt lat="49.89762" lon="2.27882">
        <ele>23.5</ele>
        <time>2023-06-03T12:29:03Z</time>
      </trkpt>
      <trkpt lat="49.89762" lon="2.27879">
        <ele>23.5</ele>
        <time>2023-06-03T12:29:04Z</time>
      </trkpt>
      <trkpt lat="49.89762" lon="2.27877">
        <ele>23.5</ele>
        <time>2023-06-03T12:29:05Z</time>
      </trkpt>
      <trkpt lat="49.89763" lon="2.27875">
        <ele>23.5</ele>
        <time>2023-06-03T12:29:06Z</time>
      </trkpt>
      <trkpt lat="49.89763" lon="2.27873">
        <ele>23.5</ele>
        <time>2023-06-03T12:29:07Z</time>
      </trkpt>
      <trkpt lat="49.89763" lon="2.27872">
        <ele>23.5</ele>
        <time>2023-06-03T12:29:08Z</time>
      </trkpt>
      <trkpt lat="49.89764" lon="2.2787">
        <ele>23.5</ele>
        <time>2023-06-03T12:29:09Z</time>
      </trkpt>
      <trkpt lat="49.89764" lon="2.27867">
        <ele>23.5</ele>
        <time>2023-06-03T12:29:11Z</time>
      </trkpt>
      <trkpt lat="49.89764" lon="2.27864">
        <ele>23.5</ele>
        <time>2023-06-03T12:29:12Z</time>
      </trkpt>
      <trkpt lat="49.89764" lon="2.27862">
        <ele>23.5</ele>
        <time>2023-06-03T12:29:13Z</time>
      </trkpt>
      <trkpt lat="49.89764" lon="2.2786">
        <ele>23.5</ele>
        <time>2023-06-03T12:29:14Z</time>
      </trkpt>
      <trkpt lat="49.89765" lon="2.27858">
        <ele>23.5</ele>
        <time>2023-06-03T12:29:16Z</time>
      </trkpt>
      <trkpt lat="49.89765" lon="2.27857">
        <ele>23.5</ele>
        <time>2023-06-03T12:29:17Z</time>
      </trkpt>
      <trkpt lat="49.89765" lon="2.27855">
        <ele>23.5</ele>
        <time>2023-06-03T12:29:18Z</time>
      </trkpt>
      <trkpt lat="49.89765" lon="2.27852">
        <ele>23.5</ele>
        <time>2023-06-03T12:29:19Z</time>
      </trkpt>
      <trkpt lat="49.89765" lon="2.2785">
        <ele>23.5</ele>
        <time>2023-06-03T12:29:20Z</time>
      </trkpt>
      <trkpt lat="49.89766" lon="2.27849">
        <ele>23.5</ele>
        <time>2023-06-03T12:29:21Z</time>
      </trkpt>
      <trkpt lat="49.89766" lon="2.27847">
        <ele>23.5</ele>
        <time>2023-06-03T12:29:22Z</time>
      </trkpt>
      <trkpt lat="49.89766" lon="2.27845">
        <ele>23.5</ele>
        <time>2023-06-03T12:29:23Z</time>
      </trkpt>
      <trkpt lat="49.89767" lon="2.27843">
        <ele>23.5</ele>
        <time>2023-06-03T12:29:25Z</time>
      </trkpt>
      <trkpt lat="49.89768" lon="2.27841">
        <ele>23.5</ele>
        <time>2023-06-03T12:29:26Z</time>
      </trkpt>
      <trkpt lat="49.89769" lon="2.27838">
        <ele>23.5</ele>
        <time>2023-06-03T12:29:27Z</time>
      </trkpt>
      <trkpt lat="49.8977" lon="2.27837">
        <ele>23.5</ele>
        <time>2023-06-03T12:29:29Z</time>
      </trkpt>
      <trkpt lat="49.8977" lon="2.27836">
        <ele>23.5</ele>
        <time>2023-06-03T12:29:30Z</time>
      </trkpt>
      <trkpt lat="49.89771" lon="2.27833">
        <ele>23.5</ele>
        <time>2023-06-03T12:29:31Z</time>
      </trkpt>
      <trkpt lat="49.89772" lon="2.27832">
        <ele>23.5</ele>
        <time>2023-06-03T12:29:32Z</time>
      </trkpt>
      <trkpt lat="49.89772" lon="2.2783">
        <ele>23.5</ele>
        <time>2023-06-03T12:29:33Z</time>
      </trkpt>
      <trkpt lat="49.89773" lon="2.27828">
        <ele>23.5</ele>
        <time>2023-06-03T12:29:34Z</time>
      </trkpt>
      <trkpt lat="49.89774" lon="2.27827">
        <ele>23.5</ele>
        <time>2023-06-03T12:29:35Z</time>
      </trkpt>
      <trkpt lat="49.89774" lon="2.27824">
        <ele>23.5</ele>
        <time>2023-06-03T12:29:36Z</time>
      </trkpt>
      <trkpt lat="49.89775" lon="2.27822">
        <ele>23.5</ele>
        <time>2023-06-03T12:29:38Z</time>
      </trkpt>
      <trkpt lat="49.89775" lon="2.27821">
        <ele>23.5</ele>
        <time>2023-06-03T12:29:39Z</time>
      </trkpt>
      <trkpt lat="49.89776" lon="2.27817">
        <ele>23.5</ele>
        <time>2023-06-03T12:29:40Z</time>
      </trkpt>
      <trkpt lat="49.89776" lon="2.27816">
        <ele>23.5</ele>
        <time>2023-06-03T12:29:41Z</time>
      </trkpt>
      <trkpt lat="49.89776" lon="2.27815">
        <ele>23.5</ele>
        <time>2023-06-03T12:29:43Z</time>
      </trkpt>
      <trkpt lat="49.89777" lon="2.27814">
        <ele>23.5</ele>
        <time>2023-06-03T12:29:44Z</time>
      </trkpt>
      <trkpt lat="49.89777" lon="2.27813">
        <ele>23.5</ele>
        <time>2023-06-03T12:29:45Z</time>
      </trkpt>
      <trkpt lat="49.89777" lon="2.27812">
        <ele>23.5</ele>
        <time>2023-06-03T12:29:46Z</time>
      </trkpt>
      <trkpt lat="49.89778" lon="2.27811">
        <ele>23.5</ele>
        <time>2023-06-03T12:29:47Z</time>
      </trkpt>
      <trkpt lat="49.89778" lon="2.2781">
        <ele>23.5</ele>
        <time>2023-06-03T12:29:48Z</time>
      </trkpt>
      <trkpt lat="49.89778" lon="2.27808">
        <ele>23.5</ele>
        <time>2023-06-03T12:29:49Z</time>
      </trkpt>
      <trkpt lat="49.89778" lon="2.27806">
        <ele>23.5</ele>
        <time>2023-06-03T12:29:50Z</time>
      </trkpt>
      <trkpt lat="49.89779" lon="2.27804">
        <ele>23.5</ele>
        <time>2023-06-03T12:29:51Z</time>
      </trkpt>
      <trkpt lat="49.8978" lon="2.27802">
        <ele>23.5</ele>
        <time>2023-06-03T12:29:53Z</time>
      </trkpt>
      <trkpt lat="49.8978" lon="2.27801">
        <ele>23.5</ele>
        <time>2023-06-03T12:29:54Z</time>
      </trkpt>
      <trkpt lat="49.89781" lon="2.27798">
        <ele>23.5</ele>
        <time>2023-06-03T12:29:55Z</time>
      </trkpt>
      <trkpt lat="49.89782" lon="2.27797">
        <ele>23.5</ele>
        <time>2023-06-03T12:29:57Z</time>
      </trkpt>
      <trkpt lat="49.89782" lon="2.27796">
        <ele>23.5</ele>
        <time>2023-06-03T12:29:58Z</time>
      </trkpt>
      <trkpt lat="49.89783" lon="2.27794">
        <ele>23.5</ele>
        <time>2023-06-03T12:29:59Z</time>
      </trkpt>
      <trkpt lat="49.89784" lon="2.27792">
        <ele>23.5</ele>
        <time>2023-06-03T12:30:00Z</time>
      </trkpt>
      <trkpt lat="49.89784" lon="2.27789">
        <ele>23.5</ele>
        <time>2023-06-03T12:30:01Z</time>
      </trkpt>
      <trkpt lat="49.89785" lon="2.27787">
        <ele>23.4</ele>
        <time>2023-06-03T12:30:02Z</time>
      </trkpt>
      <trkpt lat="49.89785" lon="2.27784">
        <ele>23.4</ele>
        <time>2023-06-03T12:30:03Z</time>
      </trkpt>
      <trkpt lat="49.89786" lon="2.27781">
        <ele>23.4</ele>
        <time>2023-06-03T12:30:05Z</time>
      </trkpt>
      <trkpt lat="49.89788" lon="2.27775">
        <ele>23.4</ele>
        <time>2023-06-03T12:30:06Z</time>
      </trkpt>
      <trkpt lat="49.89788" lon="2.27774">
        <ele>23.4</ele>
        <time>2023-06-03T12:30:07Z</time>
      </trkpt>
      <trkpt lat="49.89789" lon="2.27769">
        <ele>23.4</ele>
        <time>2023-06-03T12:30:08Z</time>
      </trkpt>
      <trkpt lat="49.89789" lon="2.27768">
        <ele>23.4</ele>
        <time>2023-06-03T12:30:09Z</time>
      </trkpt>
      <trkpt lat="49.8979" lon="2.27765">
        <ele>23.4</ele>
        <time>2023-06-03T12:30:10Z</time>
      </trkpt>
      <trkpt lat="49.8979" lon="2.27763">
        <ele>23.4</ele>
        <time>2023-06-03T12:30:11Z</time>
      </trkpt>
      <trkpt lat="49.89791" lon="2.2776">
        <ele>23.4</ele>
        <time>2023-06-03T12:30:13Z</time>
      </trkpt>
      <trkpt lat="49.89792" lon="2.27757">
        <ele>23.4</ele>
        <time>2023-06-03T12:30:14Z</time>
      </trkpt>
      <trkpt lat="49.89792" lon="2.27755">
        <ele>23.4</ele>
        <time>2023-06-03T12:30:15Z</time>
      </trkpt>
      <trkpt lat="49.89792" lon="2.27753">
        <ele>23.4</ele>
        <time>2023-06-03T12:30:16Z</time>
      </trkpt>
      <trkpt lat="49.89792" lon="2.2775">
        <ele>23.4</ele>
        <time>2023-06-03T12:30:17Z</time>
      </trkpt>
      <trkpt lat="49.89793" lon="2.27748">
        <ele>23.4</ele>
        <time>2023-06-03T12:30:18Z</time>
      </trkpt>
      <trkpt lat="49.89794" lon="2.27744">
        <ele>23.4</ele>
        <time>2023-06-03T12:30:19Z</time>
      </trkpt>
      <trkpt lat="49.89794" lon="2.27742">
        <ele>23.4</ele>
        <time>2023-06-03T12:30:21Z</time>
      </trkpt>
      <trkpt lat="49.89794" lon="2.27741">
        <ele>23.4</ele>
        <time>2023-06-03T12:30:22Z</time>
      </trkpt>
      <trkpt lat="49.89794" lon="2.27739">
        <ele>23.4</ele>
        <time>2023-06-03T12:30:23Z</time>
      </trkpt>
      <trkpt lat="49.89794" lon="2.27737">
        <ele>23.4</ele>
        <time>2023-06-03T12:30:24Z</time>
      </trkpt>
      <trkpt lat="49.89794" lon="2.27735">
        <ele>23.4</ele>
        <time>2023-06-03T12:30:26Z</time>
      </trkpt>
      <trkpt lat="49.89794" lon="2.27733">
        <ele>23.4</ele>
        <time>2023-06-03T12:30:27Z</time>
      </trkpt>
      <trkpt lat="49.89794" lon="2.2773">
        <ele>23.4</ele>
        <time>2023-06-03T12:30:28Z</time>
      </trkpt>
      <trkpt lat="49.89794" lon="2.27729">
        <ele>23.4</ele>
        <time>2023-06-03T12:30:29Z</time>
      </trkpt>
      <trkpt lat="49.89794" lon="2.27727">
        <ele>23.4</ele>
        <time>2023-06-03T12:30:30Z</time>
      </trkpt>
      <trkpt lat="49.89795" lon="2.27724">
        <ele>23.4</ele>
        <time>2023-06-03T12:30:31Z</time>
      </trkpt>
      <trkpt lat="49.89795" lon="2.27723">
        <ele>23.4</ele>
        <time>2023-06-03T12:30:32Z</time>
      </trkpt>
      <trkpt lat="49.89794" lon="2.27721">
        <ele>23.4</ele>
        <time>2023-06-03T12:30:34Z</time>
      </trkpt>
      <trkpt lat="49.89794" lon="2.27719">
        <ele>23.4</ele>
        <time>2023-06-03T12:30:35Z</time>
      </trkpt>
      <trkpt lat="49.89794" lon="2.27718">
        <ele>23.4</ele>
        <time>2023-06-03T12:30:36Z</time>
      </trkpt>
      <trkpt lat="49.89794" lon="2.27716">
        <ele>23.4</ele>
        <time>2023-06-03T12:30:37Z</time>
      </trkpt>
      <trkpt lat="49.89795" lon="2.27713">
        <ele>23.4</ele>
        <time>2023-06-03T12:30:38Z</time>
      </trkpt>
      <trkpt lat="49.89795" lon="2.27712">
        <ele>23.4</ele>
        <time>2023-06-03T12:30:39Z</time>
      </trkpt>
      <trkpt lat="49.89795" lon="2.2771">
        <ele>23.4</ele>
        <time>2023-06-03T12:30:40Z</time>
      </trkpt>
      <trkpt lat="49.89795" lon="2.27708">
        <ele>23.4</ele>
        <time>2023-06-03T12:30:42Z</time>
      </trkpt>
      <trkpt lat="49.89795" lon="2.27706">
        <ele>23.4</ele>
        <time>2023-06-03T12:30:43Z</time>
      </trkpt>
      <trkpt lat="49.89796" lon="2.27704">
        <ele>23.4</ele>
        <time>2023-06-03T12:30:44Z</time>
      </trkpt>
      <trkpt lat="49.89796" lon="2.27702">
        <ele>23.4</ele>
        <time>2023-06-03T12:30:45Z</time>
      </trkpt>
      <trkpt lat="49.89796" lon="2.277">
        <ele>23.4</ele>
        <time>2023-06-03T12:30:46Z</time>
      </trkpt>
      <trkpt lat="49.89796" lon="2.27698">
        <ele>23.4</ele>
        <time>2023-06-03T12:30:47Z</time>
      </trkpt>
      <trkpt lat="49.89797" lon="2.27694">
        <ele>23.4</ele>
        <time>2023-06-03T12:30:48Z</time>
      </trkpt>
      <trkpt lat="49.89797" lon="2.27693">
        <ele>23.4</ele>
        <time>2023-06-03T12:30:50Z</time>
      </trkpt>
      <trkpt lat="49.89797" lon="2.27691">
        <ele>23.4</ele>
        <time>2023-06-03T12:30:51Z</time>
      </trkpt>
      <trkpt lat="49.89798" lon="2.2769">
        <ele>23.3</ele>
        <time>2023-06-03T12:30:52Z</time>
      </trkpt>
      <trkpt lat="49.89798" lon="2.27688">
        <ele>23.3</ele>
        <time>2023-06-03T12:30:53Z</time>
      </trkpt>
      <trkpt lat="49.89798" lon="2.27687">
        <ele>23.3</ele>
        <time>2023-06-03T12:30:54Z</time>
      </trkpt>
      <trkpt lat="49.89798" lon="2.27685">
        <ele>23.3</ele>
        <time>2023-06-03T12:30:55Z</time>
      </trkpt>
      <trkpt lat="49.89798" lon="2.27682">
        <ele>23.3</ele>
        <time>2023-06-03T12:30:57Z</time>
      </trkpt>
      <trkpt lat="49.89798" lon="2.27679">
        <ele>23.3</ele>
        <time>2023-06-03T12:30:58Z</time>
      </trkpt>
      <trkpt lat="49.89799" lon="2.27677">
        <ele>23.3</ele>
        <time>2023-06-03T12:30:59Z</time>
      </trkpt>
      <trkpt lat="49.89799" lon="2.27676">
        <ele>23.3</ele>
        <time>2023-06-03T12:31:00Z</time>
      </trkpt>
      <trkpt lat="49.89799" lon="2.27674">
        <ele>23.3</ele>
        <time>2023-06-03T12:31:01Z</time>
      </trkpt>
      <trkpt lat="49.898" lon="2.27672">
        <ele>23.3</ele>
        <time>2023-06-03T12:31:02Z</time>
      </trkpt>
      <trkpt lat="49.898" lon="2.27669">
        <ele>23.3</ele>
        <time>2023-06-03T12:31:03Z</time>
      </trkpt>
      <trkpt lat="49.89801" lon="2.27667">
        <ele>23.3</ele>
        <time>2023-06-03T12:31:04Z</time>
      </trkpt>
      <trkpt lat="49.89801" lon="2.27663">
        <ele>23.3</ele>
        <time>2023-06-03T12:31:06Z</time>
      </trkpt>
      <trkpt lat="49.89802" lon="2.27662">
        <ele>23.3</ele>
        <time>2023-06-03T12:31:07Z</time>
      </trkpt>
      <trkpt lat="49.89802" lon="2.27659">
        <ele>23.3</ele>
        <time>2023-06-03T12:31:09Z</time>
      </trkpt>
      <trkpt lat="49.89802" lon="2.27657">
        <ele>23.2</ele>
        <time>2023-06-03T12:31:10Z</time>
      </trkpt>
      <trkpt lat="49.89802" lon="2.27655">
        <ele>23.2</ele>
        <time>2023-06-03T12:31:11Z</time>
      </trkpt>
      <trkpt lat="49.89803" lon="2.27652">
        <ele>23.2</ele>
        <time>2023-06-03T12:31:12Z</time>
      </trkpt>
      <trkpt lat="49.89803" lon="2.27651">
        <ele>23.2</ele>
        <time>2023-06-03T12:31:14Z</time>
      </trkpt>
      <trkpt lat="49.89804" lon="2.27651">
        <ele>23.2</ele>
        <time>2023-06-03T12:31:15Z</time>
      </trkpt>
      <trkpt lat="49.89804" lon="2.2765">
        <ele>23.2</ele>
        <time>2023-06-03T12:31:16Z</time>
      </trkpt>
      <trkpt lat="49.89805" lon="2.27649">
        <ele>23.2</ele>
        <time>2023-06-03T12:31:17Z</time>
      </trkpt>
      <trkpt lat="49.89805" lon="2.27648">
        <ele>23.2</ele>
        <time>2023-06-03T12:31:18Z</time>
      </trkpt>
      <trkpt lat="49.89805" lon="2.27647">
        <ele>23.2</ele>
        <time>2023-06-03T12:31:19Z</time>
      </trkpt>
      <trkpt lat="49.89806" lon="2.27646">
        <ele>23.2</ele>
        <time>2023-06-03T12:31:20Z</time>
      </trkpt>
      <trkpt lat="49.89806" lon="2.27644">
        <ele>23.2</ele>
        <time>2023-06-03T12:31:22Z</time>
      </trkpt>
      <trkpt lat="49.89806" lon="2.27642">
        <ele>23.2</ele>
        <time>2023-06-03T12:31:23Z</time>
      </trkpt>
      <trkpt lat="49.89807" lon="2.27641">
        <ele>23.2</ele>
        <time>2023-06-03T12:31:24Z</time>
      </trkpt>
      <trkpt lat="49.89807" lon="2.27639">
        <ele>23.2</ele>
        <time>2023-06-03T12:31:26Z</time>
      </trkpt>
      <trkpt lat="49.89807" lon="2.27638">
        <ele>23.2</ele>
        <time>2023-06-03T12:31:27Z</time>
      </trkpt>
      <trkpt lat="49.89808" lon="2.27637">
        <ele>23.2</ele>
        <time>2023-06-03T12:31:28Z</time>
      </trkpt>
      <trkpt lat="49.89808" lon="2.27635">
        <ele>23.1</ele>
        <time>2023-06-03T12:31:29Z</time>
      </trkpt>
      <trkpt lat="49.89808" lon="2.27634">
        <ele>23.1</ele>
        <time>2023-06-03T12:31:30Z</time>
      </trkpt>
      <trkpt lat="49.89809" lon="2.27632">
        <ele>23.1</ele>
        <time>2023-06-03T12:31:31Z</time>
      </trkpt>
      <trkpt lat="49.89809" lon="2.27631">
        <ele>23.1</ele>
        <time>2023-06-03T12:31:32Z</time>
      </trkpt>
      <trkpt lat="49.89809" lon="2.27629">
        <ele>23.1</ele>
        <time>2023-06-03T12:31:34Z</time>
      </trkpt>
      <trkpt lat="49.8981" lon="2.27626">
        <ele>23.1</ele>
        <time>2023-06-03T12:31:35Z</time>
      </trkpt>
      <trkpt lat="49.89811" lon="2.27622">
        <ele>23.1</ele>
        <time>2023-06-03T12:31:37Z</time>
      </trkpt>
      <trkpt lat="49.89811" lon="2.2762">
        <ele>23.1</ele>
        <time>2023-06-03T12:31:38Z</time>
      </trkpt>
      <trkpt lat="49.89812" lon="2.27618">
        <ele>23.1</ele>
        <time>2023-06-03T12:31:39Z</time>
      </trkpt>
      <trkpt lat="49.89813" lon="2.27612">
        <ele>23</ele>
        <time>2023-06-03T12:31:41Z</time>
      </trkpt>
      <trkpt lat="49.89813" lon="2.2761">
        <ele>23</ele>
        <time>2023-06-03T12:31:42Z</time>
      </trkpt>
      <trkpt lat="49.89814" lon="2.27608">
        <ele>23</ele>
        <time>2023-06-03T12:31:43Z</time>
      </trkpt>
      <trkpt lat="49.89814" lon="2.27603">
        <ele>23</ele>
        <time>2023-06-03T12:31:44Z</time>
      </trkpt>
      <trkpt lat="49.89815" lon="2.27602">
        <ele>23</ele>
        <time>2023-06-03T12:31:45Z</time>
      </trkpt>
      <trkpt lat="49.89815" lon="2.27597">
        <ele>23</ele>
        <time>2023-06-03T12:31:46Z</time>
      </trkpt>
      <trkpt lat="49.89816" lon="2.27596">
        <ele>23</ele>
        <time>2023-06-03T12:31:47Z</time>
      </trkpt>
      <trkpt lat="49.89816" lon="2.27591">
        <ele>23</ele>
        <time>2023-06-03T12:31:49Z</time>
      </trkpt>
      <trkpt lat="49.89816" lon="2.2759">
        <ele>23</ele>
        <time>2023-06-03T12:31:50Z</time>
      </trkpt>
      <trkpt lat="49.89817" lon="2.27587">
        <ele>23</ele>
        <time>2023-06-03T12:31:51Z</time>
      </trkpt>
      <trkpt lat="49.89817" lon="2.27585">
        <ele>23</ele>
        <time>2023-06-03T12:31:52Z</time>
      </trkpt>
      <trkpt lat="49.89818" lon="2.27582">
        <ele>23</ele>
        <time>2023-06-03T12:31:53Z</time>
      </trkpt>
      <trkpt lat="49.89818" lon="2.27581">
        <ele>23</ele>
        <time>2023-06-03T12:31:54Z</time>
      </trkpt>
      <trkpt lat="49.89818" lon="2.27579">
        <ele>23</ele>
        <time>2023-06-03T12:31:55Z</time>
      </trkpt>
      <trkpt lat="49.89818" lon="2.27577">
        <ele>23</ele>
        <time>2023-06-03T12:31:57Z</time>
      </trkpt>
      <trkpt lat="49.89819" lon="2.27575">
        <ele>23</ele>
        <time>2023-06-03T12:31:58Z</time>
      </trkpt>
      <trkpt lat="49.89819" lon="2.27573">
        <ele>23</ele>
        <time>2023-06-03T12:31:59Z</time>
      </trkpt>
      <trkpt lat="49.89819" lon="2.27571">
        <ele>23</ele>
        <time>2023-06-03T12:32:00Z</time>
      </trkpt>
      <trkpt lat="49.89819" lon="2.2757">
        <ele>23</ele>
        <time>2023-06-03T12:32:01Z</time>
      </trkpt>
      <trkpt lat="49.89819" lon="2.27569">
        <ele>23</ele>
        <time>2023-06-03T12:32:02Z</time>
      </trkpt>
      <trkpt lat="49.89819" lon="2.27567">
        <ele>23</ele>
        <time>2023-06-03T12:32:03Z</time>
      </trkpt>
      <trkpt lat="49.89819" lon="2.27565">
        <ele>23</ele>
        <time>2023-06-03T12:32:04Z</time>
      </trkpt>
      <trkpt lat="49.8982" lon="2.27562">
        <ele>23</ele>
        <time>2023-06-03T12:32:06Z</time>
      </trkpt>
      <trkpt lat="49.8982" lon="2.2756">
        <ele>23</ele>
        <time>2023-06-03T12:32:07Z</time>
      </trkpt>
      <trkpt lat="49.8982" lon="2.27557">
        <ele>23</ele>
        <time>2023-06-03T12:32:08Z</time>
      </trkpt>
      <trkpt lat="49.8982" lon="2.27556">
        <ele>23</ele>
        <time>2023-06-03T12:32:09Z</time>
      </trkpt>
      <trkpt lat="49.89821" lon="2.27555">
        <ele>23</ele>
        <time>2023-06-03T12:32:10Z</time>
      </trkpt>
      <trkpt lat="49.89821" lon="2.27553">
        <ele>23</ele>
        <time>2023-06-03T12:32:11Z</time>
      </trkpt>
      <trkpt lat="49.89821" lon="2.27549">
        <ele>23</ele>
        <time>2023-06-03T12:32:13Z</time>
      </trkpt>
      <trkpt lat="49.89821" lon="2.27547">
        <ele>23</ele>
        <time>2023-06-03T12:32:14Z</time>
      </trkpt>
      <trkpt lat="49.89821" lon="2.27545">
        <ele>23</ele>
        <time>2023-06-03T12:32:15Z</time>
      </trkpt>
      <trkpt lat="49.89821" lon="2.27543">
        <ele>23</ele>
        <time>2023-06-03T12:32:17Z</time>
      </trkpt>
      <trkpt lat="49.89822" lon="2.27539">
        <ele>23</ele>
        <time>2023-06-03T12:32:18Z</time>
      </trkpt>
      <trkpt lat="49.89822" lon="2.27538">
        <ele>23</ele>
        <time>2023-06-03T12:32:19Z</time>
      </trkpt>
      <trkpt lat="49.89822" lon="2.27536">
        <ele>23</ele>
        <time>2023-06-03T12:32:20Z</time>
      </trkpt>
      <trkpt lat="49.89822" lon="2.27534">
        <ele>23</ele>
        <time>2023-06-03T12:32:21Z</time>
      </trkpt>
      <trkpt lat="49.89822" lon="2.27532">
        <ele>23</ele>
        <time>2023-06-03T12:32:22Z</time>
      </trkpt>
      <trkpt lat="49.89822" lon="2.2753">
        <ele>23</ele>
        <time>2023-06-03T12:32:23Z</time>
      </trkpt>
      <trkpt lat="49.89822" lon="2.27528">
        <ele>23</ele>
        <time>2023-06-03T12:32:24Z</time>
      </trkpt>
      <trkpt lat="49.89822" lon="2.27524">
        <ele>23</ele>
        <time>2023-06-03T12:32:26Z</time>
      </trkpt>
      <trkpt lat="49.89822" lon="2.27522">
        <ele>23</ele>
        <time>2023-06-03T12:32:27Z</time>
      </trkpt>
      <trkpt lat="49.89822" lon="2.2752">
        <ele>23</ele>
        <time>2023-06-03T12:32:28Z</time>
      </trkpt>
      <trkpt lat="49.89822" lon="2.27518">
        <ele>23</ele>
        <time>2023-06-03T12:32:29Z</time>
      </trkpt>
      <trkpt lat="49.89823" lon="2.27515">
        <ele>23</ele>
        <time>2023-06-03T12:32:31Z</time>
      </trkpt>
      <trkpt lat="49.89823" lon="2.27513">
        <ele>23</ele>
        <time>2023-06-03T12:32:32Z</time>
      </trkpt>
      <trkpt lat="49.89823" lon="2.2751">
        <ele>23.1</ele>
        <time>2023-06-03T12:32:33Z</time>
      </trkpt>
      <trkpt lat="49.89824" lon="2.27507">
        <ele>23.1</ele>
        <time>2023-06-03T12:32:34Z</time>
      </trkpt>
      <trkpt lat="49.89824" lon="2.27505">
        <ele>23.1</ele>
        <time>2023-06-03T12:32:35Z</time>
      </trkpt>
      <trkpt lat="49.89824" lon="2.27502">
        <ele>23.1</ele>
        <time>2023-06-03T12:32:36Z</time>
      </trkpt>
      <trkpt lat="49.89825" lon="2.27498">
        <ele>23.1</ele>
        <time>2023-06-03T12:32:38Z</time>
      </trkpt>
      <trkpt lat="49.89825" lon="2.27496">
        <ele>23.1</ele>
        <time>2023-06-03T12:32:39Z</time>
      </trkpt>
      <trkpt lat="49.89825" lon="2.27494">
        <ele>23.2</ele>
        <time>2023-06-03T12:32:40Z</time>
      </trkpt>
      <trkpt lat="49.89826" lon="2.27492">
        <ele>23.2</ele>
        <time>2023-06-03T12:32:42Z</time>
      </trkpt>
      <trkpt lat="49.89827" lon="2.2749">
        <ele>23.2</ele>
        <time>2023-06-03T12:32:43Z</time>
      </trkpt>
      <trkpt lat="49.89827" lon="2.27489">
        <ele>23.2</ele>
        <time>2023-06-03T12:32:44Z</time>
      </trkpt>
      <trkpt lat="49.89828" lon="2.27488">
        <ele>23.2</ele>
        <time>2023-06-03T12:32:45Z</time>
      </trkpt>
      <trkpt lat="49.89828" lon="2.27487">
        <ele>23.2</ele>
        <time>2023-06-03T12:32:46Z</time>
      </trkpt>
      <trkpt lat="49.89828" lon="2.27485">
        <ele>23.2</ele>
        <time>2023-06-03T12:32:47Z</time>
      </trkpt>
      <trkpt lat="49.89829" lon="2.27484">
        <ele>23.2</ele>
        <time>2023-06-03T12:32:48Z</time>
      </trkpt>
      <trkpt lat="49.8983" lon="2.27482">
        <ele>23.3</ele>
        <time>2023-06-03T12:32:49Z</time>
      </trkpt>
      <trkpt lat="49.8983" lon="2.27481">
        <ele>23.3</ele>
        <time>2023-06-03T12:32:51Z</time>
      </trkpt>
      <trkpt lat="49.89831" lon="2.2748">
        <ele>23.3</ele>
        <time>2023-06-03T12:32:52Z</time>
      </trkpt>
      <trkpt lat="49.89831" lon="2.27477">
        <ele>23.3</ele>
        <time>2023-06-03T12:32:53Z</time>
      </trkpt>
      <trkpt lat="49.89832" lon="2.27476">
        <ele>23.3</ele>
        <time>2023-06-03T12:32:54Z</time>
      </trkpt>
      <trkpt lat="49.89832" lon="2.27474">
        <ele>23.3</ele>
        <time>2023-06-03T12:32:55Z</time>
      </trkpt>
      <trkpt lat="49.89832" lon="2.27472">
        <ele>23.3</ele>
        <time>2023-06-03T12:32:56Z</time>
      </trkpt>
      <trkpt lat="49.89833" lon="2.27469">
        <ele>23.3</ele>
        <time>2023-06-03T12:32:58Z</time>
      </trkpt>
      <trkpt lat="49.89833" lon="2.27467">
        <ele>23.3</ele>
        <time>2023-06-03T12:32:59Z</time>
      </trkpt>
      <trkpt lat="49.89834" lon="2.27465">
        <ele>23.3</ele>
        <time>2023-06-03T12:33:00Z</time>
      </trkpt>
      <trkpt lat="49.89835" lon="2.27463">
        <ele>23.4</ele>
        <time>2023-06-03T12:33:02Z</time>
      </trkpt>
      <trkpt lat="49.89835" lon="2.2746">
        <ele>23.4</ele>
        <time>2023-06-03T12:33:03Z</time>
      </trkpt>
      <trkpt lat="49.89836" lon="2.27457">
        <ele>23.4</ele>
        <time>2023-06-03T12:33:04Z</time>
      </trkpt>
      <trkpt lat="49.89836" lon="2.27454">
        <ele>23.4</ele>
        <time>2023-06-03T12:33:06Z</time>
      </trkpt>
      <trkpt lat="49.89837" lon="2.2745">
        <ele>23.4</ele>
        <time>2023-06-03T12:33:07Z</time>
      </trkpt>
      <trkpt lat="49.89837" lon="2.27449">
        <ele>23.4</ele>
        <time>2023-06-03T12:33:08Z</time>
      </trkpt>
      <trkpt lat="49.89837" lon="2.27447">
        <ele>23.4</ele>
        <time>2023-06-03T12:33:09Z</time>
      </trkpt>
      <trkpt lat="49.89838" lon="2.27444">
        <ele>23.4</ele>
        <time>2023-06-03T12:33:10Z</time>
      </trkpt>
      <trkpt lat="49.89838" lon="2.27443">
        <ele>23.4</ele>
        <time>2023-06-03T12:33:11Z</time>
      </trkpt>
      <trkpt lat="49.89838" lon="2.27441">
        <ele>23.4</ele>
        <time>2023-06-03T12:33:12Z</time>
      </trkpt>
      <trkpt lat="49.89839" lon="2.27439">
        <ele>23.4</ele>
        <time>2023-06-03T12:33:13Z</time>
      </trkpt>
      <trkpt lat="49.89839" lon="2.27437">
        <ele>23.4</ele>
        <time>2023-06-03T12:33:15Z</time>
      </trkpt>
      <trkpt lat="49.89839" lon="2.27436">
        <ele>23.5</ele>
        <time>2023-06-03T12:33:16Z</time>
      </trkpt>
      <trkpt lat="49.89839" lon="2.27434">
        <ele>23.5</ele>
        <time>2023-06-03T12:33:17Z</time>
      </trkpt>
      <trkpt lat="49.89839" lon="2.27432">
        <ele>23.5</ele>
        <time>2023-06-03T12:33:18Z</time>
      </trkpt>
      <trkpt lat="49.8984" lon="2.2743">
        <ele>23.5</ele>
        <time>2023-06-03T12:33:19Z</time>
      </trkpt>
      <trkpt lat="49.8984" lon="2.27427">
        <ele>23.5</ele>
        <time>2023-06-03T12:33:20Z</time>
      </trkpt>
      <trkpt lat="49.8984" lon="2.27426">
        <ele>23.5</ele>
        <time>2023-06-03T12:33:22Z</time>
      </trkpt>
      <trkpt lat="49.8984" lon="2.27424">
        <ele>23.5</ele>
        <time>2023-06-03T12:33:23Z</time>
      </trkpt>
      <trkpt lat="49.8984" lon="2.27422">
        <ele>23.5</ele>
        <time>2023-06-03T12:33:24Z</time>
      </trkpt>
      <trkpt lat="49.8984" lon="2.27421">
        <ele>23.5</ele>
        <time>2023-06-03T12:33:26Z</time>
      </trkpt>
      <trkpt lat="49.8984" lon="2.27419">
        <ele>23.6</ele>
        <time>2023-06-03T12:33:27Z</time>
      </trkpt>
      <trkpt lat="49.8984" lon="2.27418">
        <ele>23.6</ele>
        <time>2023-06-03T12:33:28Z</time>
      </trkpt>
      <trkpt lat="49.8984" lon="2.27416">
        <ele>23.6</ele>
        <time>2023-06-03T12:33:30Z</time>
      </trkpt>
      <trkpt lat="49.8984" lon="2.27415">
        <ele>23.6</ele>
        <time>2023-06-03T12:33:31Z</time>
      </trkpt>
      <trkpt lat="49.8984" lon="2.27414">
        <ele>23.6</ele>
        <time>2023-06-03T12:33:33Z</time>
      </trkpt>
      <trkpt lat="49.89839" lon="2.27414">
        <ele>23.6</ele>
        <time>2023-06-03T12:33:34Z</time>
      </trkpt>
      <trkpt lat="49.89839" lon="2.27414">
        <ele>23.6</ele>
        <time>2023-06-03T12:33:35Z</time>
      </trkpt>
      <trkpt lat="49.89839" lon="2.27414">
        <ele>23.6</ele>
        <time>2023-06-03T12:33:37Z</time>
      </trkpt>
      <trkpt lat="49.89839" lon="2.27414">
        <ele>23.6</ele>
        <time>2023-06-03T12:33:38Z</time>
      </trkpt>
      <trkpt lat="49.89839" lon="2.27415">
        <ele>23.6</ele>
        <time>2023-06-03T12:33:39Z</time>
      </trkpt>
      <trkpt lat="49.89839" lon="2.27415">
        <ele>23.6</ele>
        <time>2023-06-03T12:33:41Z</time>
      </trkpt>
      <trkpt lat="49.89839" lon="2.27415">
        <ele>23.6</ele>
        <time>2023-06-03T12:33:42Z</time>
      </trkpt>
      <trkpt lat="49.89839" lon="2.27415">
        <ele>23.6</ele>
        <time>2023-06-03T12:33:43Z</time>
      </trkpt>
      <trkpt lat="49.89839" lon="2.27415">
        <ele>23.6</ele>
        <time>2023-06-03T12:33:44Z</time>
      </trkpt>
      <trkpt lat="49.8984" lon="2.27415">
        <ele>23.6</ele>
        <time>2023-06-03T12:33:45Z</time>
      </trkpt>
      <trkpt lat="49.8984" lon="2.27414">
        <ele>23.6</ele>
        <time>2023-06-03T12:33:46Z</time>
      </trkpt>
      <trkpt lat="49.8984" lon="2.27413">
        <ele>23.6</ele>
        <time>2023-06-03T12:33:48Z</time>
      </trkpt>
      <trkpt lat="49.8984" lon="2.27412">
        <ele>23.6</ele>
        <time>2023-06-03T12:33:49Z</time>
      </trkpt>
      <trkpt lat="49.89841" lon="2.2741">
        <ele>23.6</ele>
        <time>2023-06-03T12:33:50Z</time>
      </trkpt>
      <trkpt lat="49.89842" lon="2.27408">
        <ele>23.7</ele>
        <time>2023-06-03T12:33:51Z</time>
      </trkpt>
      <trkpt lat="49.89842" lon="2.27406">
        <ele>23.7</ele>
        <time>2023-06-03T12:33:52Z</time>
      </trkpt>
      <trkpt lat="49.89842" lon="2.27404">
        <ele>23.7</ele>
        <time>2023-06-03T12:33:53Z</time>
      </trkpt>
      <trkpt lat="49.89843" lon="2.27402">
        <ele>23.8</ele>
        <time>2023-06-03T12:33:54Z</time>
      </trkpt>
      <trkpt lat="49.89843" lon="2.274">
        <ele>23.8</ele>
        <time>2023-06-03T12:33:56Z</time>
      </trkpt>
      <trkpt lat="49.89844" lon="2.27396">
        <ele>23.9</ele>
        <time>2023-06-03T12:33:57Z</time>
      </trkpt>
      <trkpt lat="49.89845" lon="2.27394">
        <ele>23.9</ele>
        <time>2023-06-03T12:33:58Z</time>
      </trkpt>
      <trkpt lat="49.89845" lon="2.27392">
        <ele>23.9</ele>
        <time>2023-06-03T12:33:59Z</time>
      </trkpt>
      <trkpt lat="49.89846" lon="2.2739">
        <ele>23.9</ele>
        <time>2023-06-03T12:34:00Z</time>
      </trkpt>
      <trkpt lat="49.89846" lon="2.27387">
        <ele>24</ele>
        <time>2023-06-03T12:34:01Z</time>
      </trkpt>
      <trkpt lat="49.89847" lon="2.27386">
        <ele>24</ele>
        <time>2023-06-03T12:34:02Z</time>
      </trkpt>
      <trkpt lat="49.89847" lon="2.27385">
        <ele>24</ele>
        <time>2023-06-03T12:34:03Z</time>
      </trkpt>
      <trkpt lat="49.89848" lon="2.27381">
        <ele>24</ele>
        <time>2023-06-03T12:34:05Z</time>
      </trkpt>
      <trkpt lat="49.89848" lon="2.2738">
        <ele>24</ele>
        <time>2023-06-03T12:34:06Z</time>
      </trkpt>
      <trkpt lat="49.89848" lon="2.27378">
        <ele>24</ele>
        <time>2023-06-03T12:34:07Z</time>
      </trkpt>
      <trkpt lat="49.89848" lon="2.27377">
        <ele>24.1</ele>
        <time>2023-06-03T12:34:08Z</time>
      </trkpt>
      <trkpt lat="49.89849" lon="2.27375">
        <ele>24.1</ele>
        <time>2023-06-03T12:34:10Z</time>
      </trkpt>
      <trkpt lat="49.89849" lon="2.27373">
        <ele>24.1</ele>
        <time>2023-06-03T12:34:11Z</time>
      </trkpt>
      <trkpt lat="49.8985" lon="2.2737">
        <ele>24.1</ele>
        <time>2023-06-03T12:34:12Z</time>
      </trkpt>
      <trkpt lat="49.8985" lon="2.27369">
        <ele>24.1</ele>
        <time>2023-06-03T12:34:13Z</time>
      </trkpt>
      <trkpt lat="49.8985" lon="2.27368">
        <ele>24.1</ele>
        <time>2023-06-03T12:34:14Z</time>
      </trkpt>
      <trkpt lat="49.89851" lon="2.27366">
        <ele>24.1</ele>
        <time>2023-06-03T12:34:15Z</time>
      </trkpt>
      <trkpt lat="49.89852" lon="2.27363">
        <ele>24.1</ele>
        <time>2023-06-03T12:34:16Z</time>
      </trkpt>
      <trkpt lat="49.89852" lon="2.2736">
        <ele>24.1</ele>
        <time>2023-06-03T12:34:17Z</time>
      </trkpt>
      <trkpt lat="49.89852" lon="2.27358">
        <ele>24.1</ele>
        <time>2023-06-03T12:34:18Z</time>
      </trkpt>
      <trkpt lat="49.89851" lon="2.27356">
        <ele>24.1</ele>
        <time>2023-06-03T12:34:20Z</time>
      </trkpt>
      <trkpt lat="49.89851" lon="2.27353">
        <ele>24.1</ele>
        <time>2023-06-03T12:34:21Z</time>
      </trkpt>
      <trkpt lat="49.8985" lon="2.2735">
        <ele>24.1</ele>
        <time>2023-06-03T12:34:22Z</time>
      </trkpt>
      <trkpt lat="49.8985" lon="2.27347">
        <ele>24.1</ele>
        <time>2023-06-03T12:34:24Z</time>
      </trkpt>
      <trkpt lat="49.8985" lon="2.27343">
        <ele>24.1</ele>
        <time>2023-06-03T12:34:25Z</time>
      </trkpt>
      <trkpt lat="49.8985" lon="2.27341">
        <ele>24.1</ele>
        <time>2023-06-03T12:34:26Z</time>
      </trkpt>
      <trkpt lat="49.8985" lon="2.27337">
        <ele>24.1</ele>
        <time>2023-06-03T12:34:27Z</time>
      </trkpt>
      <trkpt lat="49.8985" lon="2.27336">
        <ele>24.1</ele>
        <time>2023-06-03T12:34:28Z</time>
      </trkpt>
      <trkpt lat="49.8985" lon="2.27332">
        <ele>24.1</ele>
        <time>2023-06-03T12:34:29Z</time>
      </trkpt>
      <trkpt lat="49.8985" lon="2.27331">
        <ele>24.1</ele>
        <time>2023-06-03T12:34:30Z</time>
      </trkpt>
      <trkpt lat="49.8985" lon="2.27329">
        <ele>24.1</ele>
        <time>2023-06-03T12:34:32Z</time>
      </trkpt>
      <trkpt lat="49.8985" lon="2.27327">
        <ele>24.1</ele>
        <time>2023-06-03T12:34:33Z</time>
      </trkpt>
      <trkpt lat="49.8985" lon="2.27325">
        <ele>24.1</ele>
        <time>2023-06-03T12:34:34Z</time>
      </trkpt>
      <trkpt lat="49.8985" lon="2.27322">
        <ele>24.1</ele>
        <time>2023-06-03T12:34:36Z</time>
      </trkpt>
      <trkpt lat="49.8985" lon="2.27321">
        <ele>24.1</ele>
        <time>2023-06-03T12:34:37Z</time>
      </trkpt>
      <trkpt lat="49.89851" lon="2.2732">
        <ele>24.1</ele>
        <time>2023-06-03T12:34:38Z</time>
      </trkpt>
      <trkpt lat="49.89851" lon="2.27319">
        <ele>24.1</ele>
        <time>2023-06-03T12:34:39Z</time>
      </trkpt>
      <trkpt lat="49.89852" lon="2.27317">
        <ele>24.1</ele>
        <time>2023-06-03T12:34:40Z</time>
      </trkpt>
      <trkpt lat="49.89852" lon="2.27315">
        <ele>24.1</ele>
        <time>2023-06-03T12:34:41Z</time>
      </trkpt>
      <trkpt lat="49.89853" lon="2.27313">
        <ele>24.1</ele>
        <time>2023-06-03T12:34:42Z</time>
      </trkpt>
      <trkpt lat="49.89853" lon="2.27312">
        <ele>24</ele>
        <time>2023-06-03T12:34:43Z</time>
      </trkpt>
      <trkpt lat="49.89854" lon="2.27309">
        <ele>24</ele>
        <time>2023-06-03T12:34:45Z</time>
      </trkpt>
      <trkpt lat="49.89854" lon="2.27306">
        <ele>24</ele>
        <time>2023-06-03T12:34:46Z</time>
      </trkpt>
      <trkpt lat="49.89855" lon="2.27304">
        <ele>24</ele>
        <time>2023-06-03T12:34:47Z</time>
      </trkpt>
      <trkpt lat="49.89856" lon="2.27301">
        <ele>24</ele>
        <time>2023-06-03T12:34:48Z</time>
      </trkpt>
      <trkpt lat="49.89857" lon="2.273">
        <ele>24</ele>
        <time>2023-06-03T12:34:49Z</time>
      </trkpt>
      <trkpt lat="49.89857" lon="2.27299">
        <ele>24</ele>
        <time>2023-06-03T12:34:50Z</time>
      </trkpt>
      <trkpt lat="49.89858" lon="2.27298">
        <ele>24</ele>
        <time>2023-06-03T12:34:51Z</time>
      </trkpt>
      <trkpt lat="49.89858" lon="2.27294">
        <ele>24</ele>
        <time>2023-06-03T12:34:53Z</time>
      </trkpt>
      <trkpt lat="49.89859" lon="2.27293">
        <ele>24</ele>
        <time>2023-06-03T12:34:54Z</time>
      </trkpt>
      <trkpt lat="49.89859" lon="2.27291">
        <ele>24</ele>
        <time>2023-06-03T12:34:55Z</time>
      </trkpt>
      <trkpt lat="49.89859" lon="2.27291">
        <ele>24</ele>
        <time>2023-06-03T12:34:56Z</time>
      </trkpt>
      <trkpt lat="49.89859" lon="2.27289">
        <ele>24</ele>
        <time>2023-06-03T12:34:58Z</time>
      </trkpt>
      <trkpt lat="49.89859" lon="2.27288">
        <ele>24</ele>
        <time>2023-06-03T12:34:59Z</time>
      </trkpt>
      <trkpt lat="49.89859" lon="2.27286">
        <ele>24</ele>
        <time>2023-06-03T12:35:00Z</time>
      </trkpt>
      <trkpt lat="49.8986" lon="2.27285">
        <ele>24</ele>
        <time>2023-06-03T12:35:01Z</time>
      </trkpt>
      <trkpt lat="49.8986" lon="2.27283">
        <ele>24</ele>
        <time>2023-06-03T12:35:02Z</time>
      </trkpt>
      <trkpt lat="49.89861" lon="2.27281">
        <ele>24</ele>
        <time>2023-06-03T12:35:03Z</time>
      </trkpt>
      <trkpt lat="49.89862" lon="2.27277">
        <ele>24</ele>
        <time>2023-06-03T12:35:05Z</time>
      </trkpt>
      <trkpt lat="49.89863" lon="2.27274">
        <ele>24</ele>
        <time>2023-06-03T12:35:06Z</time>
      </trkpt>
      <trkpt lat="49.89863" lon="2.27273">
        <ele>24</ele>
        <time>2023-06-03T12:35:07Z</time>
      </trkpt>
      <trkpt lat="49.89864" lon="2.27272">
        <ele>24</ele>
        <time>2023-06-03T12:35:08Z</time>
      </trkpt>
      <trkpt lat="49.89864" lon="2.2727">
        <ele>24</ele>
        <time>2023-06-03T12:35:10Z</time>
      </trkpt>
      <trkpt lat="49.89864" lon="2.27268">
        <ele>24</ele>
        <time>2023-06-03T12:35:11Z</time>
      </trkpt>
      <trkpt lat="49.89864" lon="2.27264">
        <ele>24</ele>
        <time>2023-06-03T12:35:12Z</time>
      </trkpt>
      <trkpt lat="49.89864" lon="2.27263">
        <ele>24</ele>
        <time>2023-06-03T12:35:13Z</time>
      </trkpt>
      <trkpt lat="49.89864" lon="2.27261">
        <ele>24</ele>
        <time>2023-06-03T12:35:14Z</time>
      </trkpt>
      <trkpt lat="49.89864" lon="2.2726">
        <ele>24</ele>
        <time>2023-06-03T12:35:15Z</time>
      </trkpt>
      <trkpt lat="49.89863" lon="2.27258">
        <ele>24</ele>
        <time>2023-06-03T12:35:16Z</time>
      </trkpt>
      <trkpt lat="49.89863" lon="2.27255">
        <ele>24</ele>
        <time>2023-06-03T12:35:18Z</time>
      </trkpt>
      <trkpt lat="49.89862" lon="2.27252">
        <ele>23.9</ele>
        <time>2023-06-03T12:35:19Z</time>
      </trkpt>
      <trkpt lat="49.89862" lon="2.2725">
        <ele>23.9</ele>
        <time>2023-06-03T12:35:20Z</time>
      </trkpt>
      <trkpt lat="49.89861" lon="2.27248">
        <ele>23.9</ele>
        <time>2023-06-03T12:35:21Z</time>
      </trkpt>
      <trkpt lat="49.89859" lon="2.27245">
        <ele>23.9</ele>
        <time>2023-06-03T12:35:23Z</time>
      </trkpt>
      <trkpt lat="49.89857" lon="2.27241">
        <ele>23.9</ele>
        <time>2023-06-03T12:35:24Z</time>
      </trkpt>
      <trkpt lat="49.89857" lon="2.2724">
        <ele>23.9</ele>
        <time>2023-06-03T12:35:25Z</time>
      </trkpt>
      <trkpt lat="49.89854" lon="2.27238">
        <ele>23.9</ele>
        <time>2023-06-03T12:35:26Z</time>
      </trkpt>
      <trkpt lat="49.89854" lon="2.27237">
        <ele>23.8</ele>
        <time>2023-06-03T12:35:27Z</time>
      </trkpt>
      <trkpt lat="49.89852" lon="2.27236">
        <ele>23.8</ele>
        <time>2023-06-03T12:35:28Z</time>
      </trkpt>
      <trkpt lat="49.89851" lon="2.27232">
        <ele>23.8</ele>
        <time>2023-06-03T12:35:30Z</time>
      </trkpt>
      <trkpt lat="49.89849" lon="2.27231">
        <ele>23.8</ele>
        <time>2023-06-03T12:35:31Z</time>
      </trkpt>
      <trkpt lat="49.89849" lon="2.27231">
        <ele>23.8</ele>
        <time>2023-06-03T12:35:32Z</time>
      </trkpt>
      <trkpt lat="49.89848" lon="2.2723">
        <ele>23.8</ele>
        <time>2023-06-03T12:35:33Z</time>
      </trkpt>
      <trkpt lat="49.89847" lon="2.2723">
        <ele>23.8</ele>
        <time>2023-06-03T12:35:35Z</time>
      </trkpt>
      <trkpt lat="49.89846" lon="2.27229">
        <ele>23.8</ele>
        <time>2023-06-03T12:35:36Z</time>
      </trkpt>
      <trkpt lat="49.89845" lon="2.27229">
        <ele>23.7</ele>
        <time>2023-06-03T12:35:37Z</time>
      </trkpt>
      <trkpt lat="49.89844" lon="2.27228">
        <ele>23.7</ele>
        <time>2023-06-03T12:35:39Z</time>
      </trkpt>
      <trkpt lat="49.89843" lon="2.27227">
        <ele>23.7</ele>
        <time>2023-06-03T12:35:40Z</time>
      </trkpt>
      <trkpt lat="49.89843" lon="2.27226">
        <ele>23.7</ele>
        <time>2023-06-03T12:35:41Z</time>
      </trkpt>
      <trkpt lat="49.89845" lon="2.27228">
        <ele>23.7</ele>
        <time>2023-06-03T12:35:43Z</time>
      </trkpt>
      <trkpt lat="49.89845" lon="2.2723">
        <ele>23.7</ele>
        <time>2023-06-03T12:35:44Z</time>
      </trkpt>
      <trkpt lat="49.89844" lon="2.27231">
        <ele>23.7</ele>
        <time>2023-06-03T12:35:45Z</time>
      </trkpt>
      <trkpt lat="49.89843" lon="2.2723">
        <ele>23.7</ele>
        <time>2023-06-03T12:35:46Z</time>
      </trkpt>
      <trkpt lat="49.89842" lon="2.2723">
        <ele>23.6</ele>
        <time>2023-06-03T12:35:47Z</time>
      </trkpt>
      <trkpt lat="49.89841" lon="2.27229">
        <ele>23.6</ele>
        <time>2023-06-03T12:35:48Z</time>
      </trkpt>
      <trkpt lat="49.8984" lon="2.27228">
        <ele>23.6</ele>
        <time>2023-06-03T12:35:49Z</time>
      </trkpt>
      <trkpt lat="49.89839" lon="2.27225">
        <ele>23.6</ele>
        <time>2023-06-03T12:35:51Z</time>
      </trkpt>
      <trkpt lat="49.89838" lon="2.27223">
        <ele>23.6</ele>
        <time>2023-06-03T12:35:52Z</time>
      </trkpt>
      <trkpt lat="49.89837" lon="2.27222">
        <ele>23.6</ele>
        <time>2023-06-03T12:35:53Z</time>
      </trkpt>
      <trkpt lat="49.89834" lon="2.27221">
        <ele>23.5</ele>
        <time>2023-06-03T12:35:55Z</time>
      </trkpt>
      <trkpt lat="49.89833" lon="2.2722">
        <ele>23.5</ele>
        <time>2023-06-03T12:35:56Z</time>
      </trkpt>
      <trkpt lat="49.8983" lon="2.27219">
        <ele>23.5</ele>
        <time>2023-06-03T12:35:58Z</time>
      </trkpt>
      <trkpt lat="49.89828" lon="2.27218">
        <ele>23.5</ele>
        <time>2023-06-03T12:35:59Z</time>
      </trkpt>
      <trkpt lat="49.89827" lon="2.27217">
        <ele>23.5</ele>
        <time>2023-06-03T12:36:00Z</time>
      </trkpt>
      <trkpt lat="49.89825" lon="2.27217">
        <ele>23.4</ele>
        <time>2023-06-03T12:36:01Z</time>
      </trkpt>
      <trkpt lat="49.89824" lon="2.27217">
        <ele>23.4</ele>
        <time>2023-06-03T12:36:03Z</time>
      </trkpt>
      <trkpt lat="49.89823" lon="2.27216">
        <ele>23.4</ele>
        <time>2023-06-03T12:36:04Z</time>
      </trkpt>
      <trkpt lat="49.89822" lon="2.27217">
        <ele>23.4</ele>
        <time>2023-06-03T12:36:05Z</time>
      </trkpt>
      <trkpt lat="49.89821" lon="2.27217">
        <ele>23.4</ele>
        <time>2023-06-03T12:36:07Z</time>
      </trkpt>
      <trkpt lat="49.8982" lon="2.27216">
        <ele>23.4</ele>
        <time>2023-06-03T12:36:08Z</time>
      </trkpt>
      <trkpt lat="49.89819" lon="2.27215">
        <ele>23.4</ele>
        <time>2023-06-03T12:36:09Z</time>
      </trkpt>
      <trkpt lat="49.89818" lon="2.27215">
        <ele>23.4</ele>
        <time>2023-06-03T12:36:10Z</time>
      </trkpt>
      <trkpt lat="49.89817" lon="2.27215">
        <ele>23.3</ele>
        <time>2023-06-03T12:36:11Z</time>
      </trkpt>
      <trkpt lat="49.89816" lon="2.27215">
        <ele>23.3</ele>
        <time>2023-06-03T12:36:12Z</time>
      </trkpt>
      <trkpt lat="49.89815" lon="2.27215">
        <ele>23.3</ele>
        <time>2023-06-03T12:36:13Z</time>
      </trkpt>
      <trkpt lat="49.89814" lon="2.27214">
        <ele>23.3</ele>
        <time>2023-06-03T12:36:14Z</time>
      </trkpt>
      <trkpt lat="49.89812" lon="2.27213">
        <ele>23.3</ele>
        <time>2023-06-03T12:36:16Z</time>
      </trkpt>
      <trkpt lat="49.89811" lon="2.27211">
        <ele>23.3</ele>
        <time>2023-06-03T12:36:17Z</time>
      </trkpt>
      <trkpt lat="49.8981" lon="2.27209">
        <ele>23.2</ele>
        <time>2023-06-03T12:36:18Z</time>
      </trkpt>
      <trkpt lat="49.89807" lon="2.27206">
        <ele>23.2</ele>
        <time>2023-06-03T12:36:20Z</time>
      </trkpt>
      <trkpt lat="49.89806" lon="2.27205">
        <ele>23.2</ele>
        <time>2023-06-03T12:36:21Z</time>
      </trkpt>
      <trkpt lat="49.89805" lon="2.27203">
        <ele>23.2</ele>
        <time>2023-06-03T12:36:22Z</time>
      </trkpt>
      <trkpt lat="49.89803" lon="2.27202">
        <ele>23.1</ele>
        <time>2023-06-03T12:36:24Z</time>
      </trkpt>
      <trkpt lat="49.89802" lon="2.272">
        <ele>23.1</ele>
        <time>2023-06-03T12:36:25Z</time>
      </trkpt>
      <trkpt lat="49.898" lon="2.27199">
        <ele>23.1</ele>
        <time>2023-06-03T12:36:26Z</time>
      </trkpt>
      <trkpt lat="49.89799" lon="2.27198">
        <ele>23.1</ele>
        <time>2023-06-03T12:36:27Z</time>
      </trkpt>
      <trkpt lat="49.89797" lon="2.27197">
        <ele>23.1</ele>
        <time>2023-06-03T12:36:28Z</time>
      </trkpt>
      <trkpt lat="49.89795" lon="2.27196">
        <ele>23</ele>
        <time>2023-06-03T12:36:29Z</time>
      </trkpt>
      <trkpt lat="49.89794" lon="2.27195">
        <ele>23</ele>
        <time>2023-06-03T12:36:30Z</time>
      </trkpt>
      <trkpt lat="49.89791" lon="2.27194">
        <ele>23</ele>
        <time>2023-06-03T12:36:32Z</time>
      </trkpt>
      <trkpt lat="49.8979" lon="2.27193">
        <ele>23</ele>
        <time>2023-06-03T12:36:33Z</time>
      </trkpt>
      <trkpt lat="49.89789" lon="2.27192">
        <ele>23</ele>
        <time>2023-06-03T12:36:34Z</time>
      </trkpt>
      <trkpt lat="49.89789" lon="2.27193">
        <ele>23</ele>
        <time>2023-06-03T12:36:36Z</time>
      </trkpt>
      <trkpt lat="49.89788" lon="2.27192">
        <ele>23</ele>
        <time>2023-06-03T12:36:37Z</time>
      </trkpt>
      <trkpt lat="49.89787" lon="2.27192">
        <ele>23</ele>
        <time>2023-06-03T12:36:38Z</time>
      </trkpt>
      <trkpt lat="49.89786" lon="2.27192">
        <ele>23</ele>
        <time>2023-06-03T12:36:40Z</time>
      </trkpt>
      <trkpt lat="49.89784" lon="2.27192">
        <ele>23</ele>
        <time>2023-06-03T12:36:41Z</time>
      </trkpt>
      <trkpt lat="49.89782" lon="2.2719">
        <ele>23</ele>
        <time>2023-06-03T12:36:42Z</time>
      </trkpt>
      <trkpt lat="49.89781" lon="2.27189">
        <ele>22.9</ele>
        <time>2023-06-03T12:36:43Z</time>
      </trkpt>
      <trkpt lat="49.89779" lon="2.27188">
        <ele>22.9</ele>
        <time>2023-06-03T12:36:44Z</time>
      </trkpt>
      <trkpt lat="49.89778" lon="2.27187">
        <ele>22.9</ele>
        <time>2023-06-03T12:36:45Z</time>
      </trkpt>
      <trkpt lat="49.89777" lon="2.27185">
        <ele>22.9</ele>
        <time>2023-06-03T12:36:46Z</time>
      </trkpt>
      <trkpt lat="49.89774" lon="2.27181">
        <ele>22.9</ele>
        <time>2023-06-03T12:36:48Z</time>
      </trkpt>
      <trkpt lat="49.89773" lon="2.2718">
        <ele>22.9</ele>
        <time>2023-06-03T12:36:49Z</time>
      </trkpt>
      <trkpt lat="49.89771" lon="2.27178">
        <ele>22.9</ele>
        <time>2023-06-03T12:36:50Z</time>
      </trkpt>
      <trkpt lat="49.8977" lon="2.27177">
        <ele>22.9</ele>
        <time>2023-06-03T12:36:52Z</time>
      </trkpt>
      <trkpt lat="49.89769" lon="2.27176">
        <ele>22.9</ele>
        <time>2023-06-03T12:36:53Z</time>
      </trkpt>
      <trkpt lat="49.89767" lon="2.27173">
        <ele>22.9</ele>
        <time>2023-06-03T12:36:54Z</time>
      </trkpt>
      <trkpt lat="49.89766" lon="2.27172">
        <ele>22.9</ele>
        <time>2023-06-03T12:36:55Z</time>
      </trkpt>
      <trkpt lat="49.89764" lon="2.2717">
        <ele>22.9</ele>
        <time>2023-06-03T12:36:56Z</time>
      </trkpt>
      <trkpt lat="49.89763" lon="2.27168">
        <ele>22.9</ele>
        <time>2023-06-03T12:36:57Z</time>
      </trkpt>
      <trkpt lat="49.89762" lon="2.27166">
        <ele>22.9</ele>
        <time>2023-06-03T12:36:58Z</time>
      </trkpt>
      <trkpt lat="49.89761" lon="2.27161">
        <ele>22.9</ele>
        <time>2023-06-03T12:37:00Z</time>
      </trkpt>
      <trkpt lat="49.89761" lon="2.2716">
        <ele>22.9</ele>
        <time>2023-06-03T12:37:01Z</time>
      </trkpt>
      <trkpt lat="49.89759" lon="2.27157">
        <ele>23</ele>
        <time>2023-06-03T12:37:02Z</time>
      </trkpt>
      <trkpt lat="49.89759" lon="2.27157">
        <ele>23</ele>
        <time>2023-06-03T12:37:04Z</time>
      </trkpt>
      <trkpt lat="49.89758" lon="2.27156">
        <ele>23</ele>
        <time>2023-06-03T12:37:05Z</time>
      </trkpt>
      <trkpt lat="49.89757" lon="2.27155">
        <ele>23</ele>
        <time>2023-06-03T12:37:06Z</time>
      </trkpt>
      <trkpt lat="49.89756" lon="2.27154">
        <ele>23</ele>
        <time>2023-06-03T12:37:07Z</time>
      </trkpt>
      <trkpt lat="49.89755" lon="2.27154">
        <ele>23</ele>
        <time>2023-06-03T12:37:08Z</time>
      </trkpt>
      <trkpt lat="49.89754" lon="2.27154">
        <ele>23</ele>
        <time>2023-06-03T12:37:09Z</time>
      </trkpt>
      <trkpt lat="49.89753" lon="2.27154">
        <ele>23</ele>
        <time>2023-06-03T12:37:10Z</time>
      </trkpt>
      <trkpt lat="49.89752" lon="2.27154">
        <ele>23</ele>
        <time>2023-06-03T12:37:12Z</time>
      </trkpt>
      <trkpt lat="49.89751" lon="2.27154">
        <ele>23</ele>
        <time>2023-06-03T12:37:13Z</time>
      </trkpt>
      <trkpt lat="49.8975" lon="2.27155">
        <ele>23</ele>
        <time>2023-06-03T12:37:14Z</time>
      </trkpt>
      <trkpt lat="49.89749" lon="2.27155">
        <ele>23</ele>
        <time>2023-06-03T12:37:15Z</time>
      </trkpt>
      <trkpt lat="49.89748" lon="2.27156">
        <ele>23</ele>
        <time>2023-06-03T12:37:17Z</time>
      </trkpt>
      <trkpt lat="49.89747" lon="2.27156">
        <ele>23</ele>
        <time>2023-06-03T12:37:18Z</time>
      </trkpt>
      <trkpt lat="49.89746" lon="2.27157">
        <ele>23</ele>
        <time>2023-06-03T12:37:19Z</time>
      </trkpt>
      <trkpt lat="49.89746" lon="2.27157">
        <ele>23</ele>
        <time>2023-06-03T12:37:20Z</time>
      </trkpt>
      <trkpt lat="49.89745" lon="2.27157">
        <ele>23</ele>
        <time>2023-06-03T12:37:21Z</time>
      </trkpt>
      <trkpt lat="49.89744" lon="2.27156">
        <ele>23.1</ele>
        <time>2023-06-03T12:37:22Z</time>
      </trkpt>
      <trkpt lat="49.89744" lon="2.27156">
        <ele>23.1</ele>
        <time>2023-06-03T12:37:23Z</time>
      </trkpt>
      <trkpt lat="49.89743" lon="2.27155">
        <ele>23.1</ele>
        <time>2023-06-03T12:37:25Z</time>
      </trkpt>
      <trkpt lat="49.89743" lon="2.27155">
        <ele>23.1</ele>
        <time>2023-06-03T12:37:26Z</time>
      </trkpt>
      <trkpt lat="49.89741" lon="2.27154">
        <ele>23.1</ele>
        <time>2023-06-03T12:37:27Z</time>
      </trkpt>
      <trkpt lat="49.8974" lon="2.27153">
        <ele>23.1</ele>
        <time>2023-06-03T12:37:29Z</time>
      </trkpt>
      <trkpt lat="49.89739" lon="2.27153">
        <ele>23.1</ele>
        <time>2023-06-03T12:37:30Z</time>
      </trkpt>
      <trkpt lat="49.89738" lon="2.27152">
        <ele>23.1</ele>
        <time>2023-06-03T12:37:31Z</time>
      </trkpt>
      <trkpt lat="49.89737" lon="2.27151">
        <ele>23.1</ele>
        <time>2023-06-03T12:37:32Z</time>
      </trkpt>
      <trkpt lat="49.89736" lon="2.2715">
        <ele>23.2</ele>
        <time>2023-06-03T12:37:34Z</time>
      </trkpt>
      <trkpt lat="49.89735" lon="2.2715">
        <ele>23.2</ele>
        <time>2023-06-03T12:37:35Z</time>
      </trkpt>
      <trkpt lat="49.89734" lon="2.27149">
        <ele>23.2</ele>
        <time>2023-06-03T12:37:36Z</time>
      </trkpt>
      <trkpt lat="49.89733" lon="2.27148">
        <ele>23.2</ele>
        <time>2023-06-03T12:37:37Z</time>
      </trkpt>
      <trkpt lat="49.89732" lon="2.27147">
        <ele>23.2</ele>
        <time>2023-06-03T12:37:38Z</time>
      </trkpt>
      <trkpt lat="49.89731" lon="2.27145">
        <ele>23.3</ele>
        <time>2023-06-03T12:37:39Z</time>
      </trkpt>
      <trkpt lat="49.8973" lon="2.27144">
        <ele>23.3</ele>
        <time>2023-06-03T12:37:40Z</time>
      </trkpt>
      <trkpt lat="49.89729" lon="2.27144">
        <ele>23.3</ele>
        <time>2023-06-03T12:37:41Z</time>
      </trkpt>
      <trkpt lat="49.89728" lon="2.27143">
        <ele>23.3</ele>
        <time>2023-06-03T12:37:42Z</time>
      </trkpt>
      <trkpt lat="49.89727" lon="2.27143">
        <ele>23.4</ele>
        <time>2023-06-03T12:37:44Z</time>
      </trkpt>
      <trkpt lat="49.89726" lon="2.27143">
        <ele>23.4</ele>
        <time>2023-06-03T12:37:45Z</time>
      </trkpt>
      <trkpt lat="49.89725" lon="2.27142">
        <ele>23.4</ele>
        <time>2023-06-03T12:37:46Z</time>
      </trkpt>
      <trkpt lat="49.89724" lon="2.27141">
        <ele>23.4</ele>
        <time>2023-06-03T12:37:47Z</time>
      </trkpt>
      <trkpt lat="49.89723" lon="2.27141">
        <ele>23.5</ele>
        <time>2023-06-03T12:37:48Z</time>
      </trkpt>
      <trkpt lat="49.89722" lon="2.2714">
        <ele>23.5</ele>
        <time>2023-06-03T12:37:49Z</time>
      </trkpt>
      <trkpt lat="49.89721" lon="2.27139">
        <ele>23.5</ele>
        <time>2023-06-03T12:37:50Z</time>
      </trkpt>
      <trkpt lat="49.8972" lon="2.27138">
        <ele>23.5</ele>
        <time>2023-06-03T12:37:52Z</time>
      </trkpt>
      <trkpt lat="49.89719" lon="2.27137">
        <ele>23.6</ele>
        <time>2023-06-03T12:37:53Z</time>
      </trkpt>
      <trkpt lat="49.89719" lon="2.27137">
        <ele>23.6</ele>
        <time>2023-06-03T12:37:54Z</time>
      </trkpt>
      <trkpt lat="49.89718" lon="2.27136">
        <ele>23.6</ele>
        <time>2023-06-03T12:37:55Z</time>
      </trkpt>
      <trkpt lat="49.89717" lon="2.27135">
        <ele>23.6</ele>
        <time>2023-06-03T12:37:56Z</time>
      </trkpt>
      <trkpt lat="49.89716" lon="2.27135">
        <ele>23.6</ele>
        <time>2023-06-03T12:37:57Z</time>
      </trkpt>
      <trkpt lat="49.89715" lon="2.27134">
        <ele>23.7</ele>
        <time>2023-06-03T12:37:58Z</time>
      </trkpt>
      <trkpt lat="49.89714" lon="2.27133">
        <ele>23.7</ele>
        <time>2023-06-03T12:38:00Z</time>
      </trkpt>
      <trkpt lat="49.89714" lon="2.27132">
        <ele>23.7</ele>
        <time>2023-06-03T12:38:01Z</time>
      </trkpt>
      <trkpt lat="49.89714" lon="2.27131">
        <ele>23.7</ele>
        <time>2023-06-03T12:38:02Z</time>
      </trkpt>
      <trkpt lat="49.89714" lon="2.27129">
        <ele>23.7</ele>
        <time>2023-06-03T12:38:04Z</time>
      </trkpt>
      <trkpt lat="49.89714" lon="2.27127">
        <ele>23.8</ele>
        <time>2023-06-03T12:38:05Z</time>
      </trkpt>
      <trkpt lat="49.89713" lon="2.27126">
        <ele>23.8</ele>
        <time>2023-06-03T12:38:07Z</time>
      </trkpt>
      <trkpt lat="49.89713" lon="2.27126">
        <ele>23.8</ele>
        <time>2023-06-03T12:38:08Z</time>
      </trkpt>
      <trkpt lat="49.89713" lon="2.27126">
        <ele>23.8</ele>
        <time>2023-06-03T12:38:09Z</time>
      </trkpt>
      <trkpt lat="49.89712" lon="2.27126">
        <ele>23.8</ele>
        <time>2023-06-03T12:38:11Z</time>
      </trkpt>
      <trkpt lat="49.89712" lon="2.27126">
        <ele>23.8</ele>
        <time>2023-06-03T12:38:12Z</time>
      </trkpt>
      <trkpt lat="49.89712" lon="2.27126">
        <ele>23.8</ele>
        <time>2023-06-03T12:38:13Z</time>
      </trkpt>
      <trkpt lat="49.89712" lon="2.27126">
        <ele>23.8</ele>
        <time>2023-06-03T12:38:15Z</time>
      </trkpt>
      <trkpt lat="49.89712" lon="2.27126">
        <ele>23.8</ele>
        <time>2023-06-03T12:38:16Z</time>
      </trkpt>
      <trkpt lat="49.89712" lon="2.27126">
        <ele>23.8</ele>
        <time>2023-06-03T12:38:17Z</time>
      </trkpt>
      <trkpt lat="49.89712" lon="2.27126">
        <ele>23.8</ele>
        <time>2023-06-03T12:38:19Z</time>
      </trkpt>
      <trkpt lat="49.89712" lon="2.27126">
        <ele>23.8</ele>
        <time>2023-06-03T12:38:20Z</time>
      </trkpt>
      <trkpt lat="49.89712" lon="2.27126">
        <ele>23.8</ele>
        <time>2023-06-03T12:38:21Z</time>
      </trkpt>
      <trkpt lat="49.89712" lon="2.27126">
        <ele>23.8</ele>
        <time>2023-06-03T12:38:22Z</time>
      </trkpt>
      <trkpt lat="49.89712" lon="2.27125">
        <ele>23.8</ele>
        <time>2023-06-03T12:38:24Z</time>
      </trkpt>
      <trkpt lat="49.8971" lon="2.27124">
        <ele>23.9</ele>
        <time>2023-06-03T12:38:25Z</time>
      </trkpt>
      <trkpt lat="49.8971" lon="2.27124">
        <ele>23.9</ele>
        <time>2023-06-03T12:38:26Z</time>
      </trkpt>
      <trkpt lat="49.89709" lon="2.27123">
        <ele>23.9</ele>
        <time>2023-06-03T12:38:27Z</time>
      </trkpt>
      <trkpt lat="49.89709" lon="2.27122">
        <ele>23.9</ele>
        <time>2023-06-03T12:38:28Z</time>
      </trkpt>
      <trkpt lat="49.89708" lon="2.2712">
        <ele>23.9</ele>
        <time>2023-06-03T12:38:30Z</time>
      </trkpt>
      <trkpt lat="49.89708" lon="2.27118">
        <ele>23.9</ele>
        <time>2023-06-03T12:38:31Z</time>
      </trkpt>
      <trkpt lat="49.89708" lon="2.27116">
        <ele>23.9</ele>
        <time>2023-06-03T12:38:32Z</time>
      </trkpt>
      <trkpt lat="49.89709" lon="2.27115">
        <ele>23.9</ele>
        <time>2023-06-03T12:38:33Z</time>
      </trkpt>
      <trkpt lat="49.8971" lon="2.27114">
        <ele>23.9</ele>
        <time>2023-06-03T12:38:34Z</time>
      </trkpt>
      <trkpt lat="49.8971" lon="2.27112">
        <ele>24</ele>
        <time>2023-06-03T12:38:35Z</time>
      </trkpt>
      <trkpt lat="49.89711" lon="2.2711">
        <ele>24</ele>
        <time>2023-06-03T12:38:36Z</time>
      </trkpt>
      <trkpt lat="49.89712" lon="2.27109">
        <ele>24</ele>
        <time>2023-06-03T12:38:37Z</time>
      </trkpt>
      <trkpt lat="49.89713" lon="2.27107">
        <ele>24</ele>
        <time>2023-06-03T12:38:39Z</time>
      </trkpt>
      <trkpt lat="49.89715" lon="2.27105">
        <ele>24</ele>
        <time>2023-06-03T12:38:40Z</time>
      </trkpt>
      <trkpt lat="49.89716" lon="2.27103">
        <ele>24.1</ele>
        <time>2023-06-03T12:38:41Z</time>
      </trkpt>
      <trkpt lat="49.89717" lon="2.27102">
        <ele>24.1</ele>
        <time>2023-06-03T12:38:42Z</time>
      </trkpt>
      <trkpt lat="49.89717" lon="2.27101">
        <ele>24.1</ele>
        <time>2023-06-03T12:38:43Z</time>
      </trkpt>
      <trkpt lat="49.89718" lon="2.27099">
        <ele>24.1</ele>
        <time>2023-06-03T12:38:44Z</time>
      </trkpt>
      <trkpt lat="49.89719" lon="2.27098">
        <ele>24.1</ele>
        <time>2023-06-03T12:38:45Z</time>
      </trkpt>
      <trkpt lat="49.89721" lon="2.27095">
        <ele>24.2</ele>
        <time>2023-06-03T12:38:46Z</time>
      </trkpt>
      <trkpt lat="49.89721" lon="2.27094">
        <ele>24.2</ele>
        <time>2023-06-03T12:38:48Z</time>
      </trkpt>
      <trkpt lat="49.89722" lon="2.27093">
        <ele>24.2</ele>
        <time>2023-06-03T12:38:49Z</time>
      </trkpt>
      <trkpt lat="49.89723" lon="2.27092">
        <ele>24.2</ele>
        <time>2023-06-03T12:38:50Z</time>
      </trkpt>
      <trkpt lat="49.89723" lon="2.2709">
        <ele>24.3</ele>
        <time>2023-06-03T12:38:51Z</time>
      </trkpt>
      <trkpt lat="49.89724" lon="2.27088">
        <ele>24.3</ele>
        <time>2023-06-03T12:38:52Z</time>
      </trkpt>
      <trkpt lat="49.89725" lon="2.27086">
        <ele>24.3</ele>
        <time>2023-06-03T12:38:53Z</time>
      </trkpt>
      <trkpt lat="49.89726" lon="2.27084">
        <ele>24.3</ele>
        <time>2023-06-03T12:38:54Z</time>
      </trkpt>
      <trkpt lat="49.89727" lon="2.27082">
        <ele>24.3</ele>
        <time>2023-06-03T12:38:56Z</time>
      </trkpt>
      <trkpt lat="49.89727" lon="2.2708">
        <ele>24.3</ele>
        <time>2023-06-03T12:38:57Z</time>
      </trkpt>
      <trkpt lat="49.89728" lon="2.27079">
        <ele>24.3</ele>
        <time>2023-06-03T12:38:58Z</time>
      </trkpt>
      <trkpt lat="49.89728" lon="2.27076">
        <ele>24.4</ele>
        <time>2023-06-03T12:39:00Z</time>
      </trkpt>
      <trkpt lat="49.89729" lon="2.27075">
        <ele>24.4</ele>
        <time>2023-06-03T12:39:01Z</time>
      </trkpt>
      <trkpt lat="49.89729" lon="2.27074">
        <ele>24.4</ele>
        <time>2023-06-03T12:39:02Z</time>
      </trkpt>
      <trkpt lat="49.89729" lon="2.27072">
        <ele>24.4</ele>
        <time>2023-06-03T12:39:04Z</time>
      </trkpt>
      <trkpt lat="49.8973" lon="2.2707">
        <ele>24.4</ele>
        <time>2023-06-03T12:39:05Z</time>
      </trkpt>
      <trkpt lat="49.8973" lon="2.27067">
        <ele>24.4</ele>
        <time>2023-06-03T12:39:06Z</time>
      </trkpt>
      <trkpt lat="49.8973" lon="2.27064">
        <ele>24.4</ele>
        <time>2023-06-03T12:39:08Z</time>
      </trkpt>
      <trkpt lat="49.8973" lon="2.27063">
        <ele>24.4</ele>
        <time>2023-06-03T12:39:09Z</time>
      </trkpt>
      <trkpt lat="49.8973" lon="2.27061">
        <ele>24.5</ele>
        <time>2023-06-03T12:39:10Z</time>
      </trkpt>
      <trkpt lat="49.8973" lon="2.27058">
        <ele>24.5</ele>
        <time>2023-06-03T12:39:11Z</time>
      </trkpt>
      <trkpt lat="49.8973" lon="2.27057">
        <ele>24.4</ele>
        <time>2023-06-03T12:39:12Z</time>
      </trkpt>
      <trkpt lat="49.89729" lon="2.27056">
        <ele>24.4</ele>
        <time>2023-06-03T12:39:13Z</time>
      </trkpt>
      <trkpt lat="49.89728" lon="2.27053">
        <ele>24.4</ele>
        <time>2023-06-03T12:39:15Z</time>
      </trkpt>
      <trkpt lat="49.89727" lon="2.27052">
        <ele>24.4</ele>
        <time>2023-06-03T12:39:16Z</time>
      </trkpt>
      <trkpt lat="49.89727" lon="2.27051">
        <ele>24.4</ele>
        <time>2023-06-03T12:39:17Z</time>
      </trkpt>
      <trkpt lat="49.89726" lon="2.2705">
        <ele>24.3</ele>
        <time>2023-06-03T12:39:18Z</time>
      </trkpt>
      <trkpt lat="49.89725" lon="2.27048">
        <ele>24.3</ele>
        <time>2023-06-03T12:39:19Z</time>
      </trkpt>
      <trkpt lat="49.89723" lon="2.27045">
        <ele>24.3</ele>
        <time>2023-06-03T12:39:20Z</time>
      </trkpt>
      <trkpt lat="49.89723" lon="2.27044">
        <ele>24.3</ele>
        <time>2023-06-03T12:39:21Z</time>
      </trkpt>
      <trkpt lat="49.89722" lon="2.27043">
        <ele>24.3</ele>
        <time>2023-06-03T12:39:22Z</time>
      </trkpt>
      <trkpt lat="49.89722" lon="2.27041">
        <ele>24.2</ele>
        <time>2023-06-03T12:39:23Z</time>
      </trkpt>
      <trkpt lat="49.89721" lon="2.27038">
        <ele>24.2</ele>
        <time>2023-06-03T12:39:24Z</time>
      </trkpt>
      <trkpt lat="49.8972" lon="2.27033">
        <ele>24.2</ele>
        <time>2023-06-03T12:39:26Z</time>
      </trkpt>
      <trkpt lat="49.89719" lon="2.27032">
        <ele>24.2</ele>
        <time>2023-06-03T12:39:27Z</time>
      </trkpt>
      <trkpt lat="49.89718" lon="2.27029">
        <ele>24.1</ele>
        <time>2023-06-03T12:39:28Z</time>
      </trkpt>
      <trkpt lat="49.89717" lon="2.27025">
        <ele>24.1</ele>
        <time>2023-06-03T12:39:30Z</time>
      </trkpt>
      <trkpt lat="49.89716" lon="2.2702">
        <ele>24.1</ele>
        <time>2023-06-03T12:39:31Z</time>
      </trkpt>
      <trkpt lat="49.89715" lon="2.27019">
        <ele>24.1</ele>
        <time>2023-06-03T12:39:32Z</time>
      </trkpt>
      <trkpt lat="49.89714" lon="2.27016">
        <ele>24</ele>
        <time>2023-06-03T12:39:33Z</time>
      </trkpt>
      <trkpt lat="49.89714" lon="2.27014">
        <ele>24</ele>
        <time>2023-06-03T12:39:34Z</time>
      </trkpt>
      <trkpt lat="49.89713" lon="2.27012">
        <ele>24</ele>
        <time>2023-06-03T12:39:35Z</time>
      </trkpt>
      <trkpt lat="49.89713" lon="2.2701">
        <ele>24</ele>
        <time>2023-06-03T12:39:36Z</time>
      </trkpt>
      <trkpt lat="49.89712" lon="2.27007">
        <ele>24</ele>
        <time>2023-06-03T12:39:38Z</time>
      </trkpt>
      <trkpt lat="49.89711" lon="2.27005">
        <ele>24</ele>
        <time>2023-06-03T12:39:39Z</time>
      </trkpt>
      <trkpt lat="49.89711" lon="2.27002">
        <ele>24</ele>
        <time>2023-06-03T12:39:40Z</time>
      </trkpt>
      <trkpt lat="49.89711" lon="2.27001">
        <ele>24</ele>
        <time>2023-06-03T12:39:41Z</time>
      </trkpt>
      <trkpt lat="49.89711" lon="2.26999">
        <ele>23.9</ele>
        <time>2023-06-03T12:39:42Z</time>
      </trkpt>
      <trkpt lat="49.8971" lon="2.26998">
        <ele>23.9</ele>
        <time>2023-06-03T12:39:43Z</time>
      </trkpt>
      <trkpt lat="49.8971" lon="2.26996">
        <ele>23.9</ele>
        <time>2023-06-03T12:39:44Z</time>
      </trkpt>
      <trkpt lat="49.8971" lon="2.26994">
        <ele>23.9</ele>
        <time>2023-06-03T12:39:45Z</time>
      </trkpt>
      <trkpt lat="49.8971" lon="2.2699">
        <ele>23.9</ele>
        <time>2023-06-03T12:39:47Z</time>
      </trkpt>
      <trkpt lat="49.8971" lon="2.26989">
        <ele>23.9</ele>
        <time>2023-06-03T12:39:48Z</time>
      </trkpt>
      <trkpt lat="49.89711" lon="2.26986">
        <ele>23.9</ele>
        <time>2023-06-03T12:39:49Z</time>
      </trkpt>
      <trkpt lat="49.89711" lon="2.26985">
        <ele>23.9</ele>
        <time>2023-06-03T12:39:51Z</time>
      </trkpt>
      <trkpt lat="49.89711" lon="2.26983">
        <ele>23.9</ele>
        <time>2023-06-03T12:39:52Z</time>
      </trkpt>
      <trkpt lat="49.89712" lon="2.26981">
        <ele>23.9</ele>
        <time>2023-06-03T12:39:53Z</time>
      </trkpt>
      <trkpt lat="49.89712" lon="2.26979">
        <ele>23.9</ele>
        <time>2023-06-03T12:39:54Z</time>
      </trkpt>
      <trkpt lat="49.89713" lon="2.26977">
        <ele>23.9</ele>
        <time>2023-06-03T12:39:55Z</time>
      </trkpt>
      <trkpt lat="49.89714" lon="2.26975">
        <ele>23.8</ele>
        <time>2023-06-03T12:39:56Z</time>
      </trkpt>
      <trkpt lat="49.89715" lon="2.26973">
        <ele>23.8</ele>
        <time>2023-06-03T12:39:57Z</time>
      </trkpt>
      <trkpt lat="49.89716" lon="2.2697">
        <ele>23.8</ele>
        <time>2023-06-03T12:39:59Z</time>
      </trkpt>
      <trkpt lat="49.89716" lon="2.26969">
        <ele>23.8</ele>
        <time>2023-06-03T12:40:00Z</time>
      </trkpt>
      <trkpt lat="49.89717" lon="2.26967">
        <ele>23.8</ele>
        <time>2023-06-03T12:40:01Z</time>
      </trkpt>
      <trkpt lat="49.89717" lon="2.26965">
        <ele>23.8</ele>
        <time>2023-06-03T12:40:03Z</time>
      </trkpt>
      <trkpt lat="49.89718" lon="2.26962">
        <ele>23.8</ele>
        <time>2023-06-03T12:40:04Z</time>
      </trkpt>
      <trkpt lat="49.89719" lon="2.2696">
        <ele>23.8</ele>
        <time>2023-06-03T12:40:06Z</time>
      </trkpt>
      <trkpt lat="49.89719" lon="2.26959">
        <ele>23.8</ele>
        <time>2023-06-03T12:40:07Z</time>
      </trkpt>
      <trkpt lat="49.8972" lon="2.26957">
        <ele>23.8</ele>
        <time>2023-06-03T12:40:08Z</time>
      </trkpt>
      <trkpt lat="49.8972" lon="2.26955">
        <ele>23.8</ele>
        <time>2023-06-03T12:40:09Z</time>
      </trkpt>
      <trkpt lat="49.8972" lon="2.26954">
        <ele>23.9</ele>
        <time>2023-06-03T12:40:10Z</time>
      </trkpt>
      <trkpt lat="49.8972" lon="2.26952">
        <ele>23.9</ele>
        <time>2023-06-03T12:40:11Z</time>
      </trkpt>
      <trkpt lat="49.8972" lon="2.2695">
        <ele>23.9</ele>
        <time>2023-06-03T12:40:12Z</time>
      </trkpt>
      <trkpt lat="49.89721" lon="2.26948">
        <ele>23.9</ele>
        <time>2023-06-03T12:40:14Z</time>
      </trkpt>
      <trkpt lat="49.89721" lon="2.26947">
        <ele>23.9</ele>
        <time>2023-06-03T12:40:15Z</time>
      </trkpt>
      <trkpt lat="49.89721" lon="2.26945">
        <ele>23.9</ele>
        <time>2023-06-03T12:40:16Z</time>
      </trkpt>
      <trkpt lat="49.89721" lon="2.26942">
        <ele>23.9</ele>
        <time>2023-06-03T12:40:17Z</time>
      </trkpt>
      <trkpt lat="49.89722" lon="2.2694">
        <ele>23.9</ele>
        <time>2023-06-03T12:40:18Z</time>
      </trkpt>
      <trkpt lat="49.89722" lon="2.26938">
        <ele>23.9</ele>
        <time>2023-06-03T12:40:19Z</time>
      </trkpt>
      <trkpt lat="49.89722" lon="2.26936">
        <ele>23.9</ele>
        <time>2023-06-03T12:40:20Z</time>
      </trkpt>
      <trkpt lat="49.89722" lon="2.26933">
        <ele>23.9</ele>
        <time>2023-06-03T12:40:22Z</time>
      </trkpt>
      <trkpt lat="49.89723" lon="2.26931">
        <ele>23.9</ele>
        <time>2023-06-03T12:40:23Z</time>
      </trkpt>
      <trkpt lat="49.89723" lon="2.26931">
        <ele>23.9</ele>
        <time>2023-06-03T12:40:24Z</time>
      </trkpt>
      <trkpt lat="49.89723" lon="2.26929">
        <ele>24</ele>
        <time>2023-06-03T12:40:26Z</time>
      </trkpt>
      <trkpt lat="49.89724" lon="2.26926">
        <ele>24</ele>
        <time>2023-06-03T12:40:27Z</time>
      </trkpt>
      <trkpt lat="49.89724" lon="2.26924">
        <ele>24</ele>
        <time>2023-06-03T12:40:28Z</time>
      </trkpt>
      <trkpt lat="49.89725" lon="2.26922">
        <ele>24</ele>
        <time>2023-06-03T12:40:30Z</time>
      </trkpt>
      <trkpt lat="49.89725" lon="2.2692">
        <ele>24</ele>
        <time>2023-06-03T12:40:31Z</time>
      </trkpt>
      <trkpt lat="49.89726" lon="2.26916">
        <ele>24</ele>
        <time>2023-06-03T12:40:32Z</time>
      </trkpt>
      <trkpt lat="49.89727" lon="2.26915">
        <ele>24.1</ele>
        <time>2023-06-03T12:40:33Z</time>
      </trkpt>
      <trkpt lat="49.89727" lon="2.26914">
        <ele>24.1</ele>
        <time>2023-06-03T12:40:34Z</time>
      </trkpt>
      <trkpt lat="49.89727" lon="2.26913">
        <ele>24.1</ele>
        <time>2023-06-03T12:40:35Z</time>
      </trkpt>
      <trkpt lat="49.89727" lon="2.26912">
        <ele>24.1</ele>
        <time>2023-06-03T12:40:36Z</time>
      </trkpt>
      <trkpt lat="49.89727" lon="2.26909">
        <ele>24.1</ele>
        <time>2023-06-03T12:40:38Z</time>
      </trkpt>
      <trkpt lat="49.89727" lon="2.26907">
        <ele>24.1</ele>
        <time>2023-06-03T12:40:39Z</time>
      </trkpt>
      <trkpt lat="49.89727" lon="2.26905">
        <ele>24.1</ele>
        <time>2023-06-03T12:40:40Z</time>
      </trkpt>
      <trkpt lat="49.89727" lon="2.26903">
        <ele>24.1</ele>
        <time>2023-06-03T12:40:42Z</time>
      </trkpt>
      <trkpt lat="49.89727" lon="2.269">
        <ele>24.2</ele>
        <time>2023-06-03T12:40:43Z</time>
      </trkpt>
      <trkpt lat="49.89727" lon="2.26898">
        <ele>24.2</ele>
        <time>2023-06-03T12:40:44Z</time>
      </trkpt>
      <trkpt lat="49.89727" lon="2.26895">
        <ele>24.2</ele>
        <time>2023-06-03T12:40:45Z</time>
      </trkpt>
      <trkpt lat="49.89727" lon="2.26893">
        <ele>24.2</ele>
        <time>2023-06-03T12:40:46Z</time>
      </trkpt>
      <trkpt lat="49.89727" lon="2.26892">
        <ele>24.2</ele>
        <time>2023-06-03T12:40:47Z</time>
      </trkpt>
      <trkpt lat="49.89727" lon="2.26889">
        <ele>24.2</ele>
        <time>2023-06-03T12:40:48Z</time>
      </trkpt>
      <trkpt lat="49.89727" lon="2.26888">
        <ele>24.2</ele>
        <time>2023-06-03T12:40:50Z</time>
      </trkpt>
      <trkpt lat="49.89726" lon="2.26886">
        <ele>24.2</ele>
        <time>2023-06-03T12:40:51Z</time>
      </trkpt>
      <trkpt lat="49.89726" lon="2.26883">
        <ele>24.2</ele>
        <time>2023-06-03T12:40:52Z</time>
      </trkpt>
      <trkpt lat="49.89726" lon="2.26882">
        <ele>24.2</ele>
        <time>2023-06-03T12:40:53Z</time>
      </trkpt>
      <trkpt lat="49.89726" lon="2.2688">
        <ele>24.2</ele>
        <time>2023-06-03T12:40:54Z</time>
      </trkpt>
      <trkpt lat="49.89725" lon="2.26877">
        <ele>24.3</ele>
        <time>2023-06-03T12:40:55Z</time>
      </trkpt>
      <trkpt lat="49.89724" lon="2.26876">
        <ele>24.3</ele>
        <time>2023-06-03T12:40:56Z</time>
      </trkpt>
      <trkpt lat="49.89724" lon="2.26875">
        <ele>24.3</ele>
        <time>2023-06-03T12:40:57Z</time>
      </trkpt>
      <trkpt lat="49.89723" lon="2.26872">
        <ele>24.3</ele>
        <time>2023-06-03T12:40:59Z</time>
      </trkpt>
      <trkpt lat="49.89722" lon="2.2687">
        <ele>24.3</ele>
        <time>2023-06-03T12:41:00Z</time>
      </trkpt>
      <trkpt lat="49.89722" lon="2.26868">
        <ele>24.3</ele>
        <time>2023-06-03T12:41:01Z</time>
      </trkpt>
      <trkpt lat="49.89721" lon="2.26866">
        <ele>24.3</ele>
        <time>2023-06-03T12:41:03Z</time>
      </trkpt>
      <trkpt lat="49.8972" lon="2.26864">
        <ele>24.3</ele>
        <time>2023-06-03T12:41:04Z</time>
      </trkpt>
      <trkpt lat="49.89719" lon="2.26862">
        <ele>24.3</ele>
        <time>2023-06-03T12:41:05Z</time>
      </trkpt>
      <trkpt lat="49.89719" lon="2.2686">
        <ele>24.3</ele>
        <time>2023-06-03T12:41:06Z</time>
      </trkpt>
      <trkpt lat="49.89718" lon="2.26857">
        <ele>24.3</ele>
        <time>2023-06-03T12:41:07Z</time>
      </trkpt>
      <trkpt lat="49.89718" lon="2.26855">
        <ele>24.3</ele>
        <time>2023-06-03T12:41:08Z</time>
      </trkpt>
      <trkpt lat="49.89717" lon="2.26853">
        <ele>24.3</ele>
        <time>2023-06-03T12:41:09Z</time>
      </trkpt>
      <trkpt lat="49.89717" lon="2.26851">
        <ele>24.3</ele>
        <time>2023-06-03T12:41:10Z</time>
      </trkpt>
      <trkpt lat="49.89717" lon="2.26848">
        <ele>24.3</ele>
        <time>2023-06-03T12:41:11Z</time>
      </trkpt>
      <trkpt lat="49.89716" lon="2.26846">
        <ele>24.3</ele>
        <time>2023-06-03T12:41:12Z</time>
      </trkpt>
      <trkpt lat="49.89715" lon="2.26844">
        <ele>24.3</ele>
        <time>2023-06-03T12:41:14Z</time>
      </trkpt>
      <trkpt lat="49.89714" lon="2.26842">
        <ele>24.3</ele>
        <time>2023-06-03T12:41:15Z</time>
      </trkpt>
      <trkpt lat="49.89714" lon="2.2684">
        <ele>24.3</ele>
        <time>2023-06-03T12:41:16Z</time>
      </trkpt>
      <trkpt lat="49.89713" lon="2.26837">
        <ele>24.3</ele>
        <time>2023-06-03T12:41:17Z</time>
      </trkpt>
      <trkpt lat="49.89713" lon="2.26836">
        <ele>24.3</ele>
        <time>2023-06-03T12:41:18Z</time>
      </trkpt>
      <trkpt lat="49.89712" lon="2.26835">
        <ele>24.3</ele>
        <time>2023-06-03T12:41:19Z</time>
      </trkpt>
      <trkpt lat="49.89712" lon="2.26833">
        <ele>24.3</ele>
        <time>2023-06-03T12:41:20Z</time>
      </trkpt>
      <trkpt lat="49.89712" lon="2.26831">
        <ele>24.3</ele>
        <time>2023-06-03T12:41:21Z</time>
      </trkpt>
      <trkpt lat="49.89711" lon="2.26829">
        <ele>24.3</ele>
        <time>2023-06-03T12:41:22Z</time>
      </trkpt>
      <trkpt lat="49.89711" lon="2.26825">
        <ele>24.3</ele>
        <time>2023-06-03T12:41:24Z</time>
      </trkpt>
      <trkpt lat="49.89711" lon="2.26822">
        <ele>24.3</ele>
        <time>2023-06-03T12:41:25Z</time>
      </trkpt>
      <trkpt lat="49.8971" lon="2.2682">
        <ele>24.3</ele>
        <time>2023-06-03T12:41:26Z</time>
      </trkpt>
      <trkpt lat="49.89709" lon="2.26817">
        <ele>24.3</ele>
        <time>2023-06-03T12:41:28Z</time>
      </trkpt>
      <trkpt lat="49.89709" lon="2.26816">
        <ele>24.3</ele>
        <time>2023-06-03T12:41:29Z</time>
      </trkpt>
      <trkpt lat="49.89709" lon="2.26814">
        <ele>24.3</ele>
        <time>2023-06-03T12:41:30Z</time>
      </trkpt>
      <trkpt lat="49.89709" lon="2.26813">
        <ele>24.3</ele>
        <time>2023-06-03T12:41:32Z</time>
      </trkpt>
      <trkpt lat="49.89709" lon="2.26812">
        <ele>24.3</ele>
        <time>2023-06-03T12:41:33Z</time>
      </trkpt>
      <trkpt lat="49.89709" lon="2.26809">
        <ele>24.3</ele>
        <time>2023-06-03T12:41:34Z</time>
      </trkpt>
      <trkpt lat="49.89708" lon="2.26807">
        <ele>24.3</ele>
        <time>2023-06-03T12:41:35Z</time>
      </trkpt>
      <trkpt lat="49.89708" lon="2.26805">
        <ele>24.3</ele>
        <time>2023-06-03T12:41:36Z</time>
      </trkpt>
      <trkpt lat="49.89708" lon="2.26804">
        <ele>24.3</ele>
        <time>2023-06-03T12:41:37Z</time>
      </trkpt>
      <trkpt lat="49.89708" lon="2.26801">
        <ele>24.3</ele>
        <time>2023-06-03T12:41:38Z</time>
      </trkpt>
      <trkpt lat="49.89708" lon="2.26797">
        <ele>24.2</ele>
        <time>2023-06-03T12:41:40Z</time>
      </trkpt>
      <trkpt lat="49.89708" lon="2.26795">
        <ele>24.2</ele>
        <time>2023-06-03T12:41:41Z</time>
      </trkpt>
      <trkpt lat="49.89708" lon="2.26793">
        <ele>24.2</ele>
        <time>2023-06-03T12:41:42Z</time>
      </trkpt>
      <trkpt lat="49.89708" lon="2.2679">
        <ele>24.2</ele>
        <time>2023-06-03T12:41:44Z</time>
      </trkpt>
      <trkpt lat="49.89708" lon="2.26787">
        <ele>24.2</ele>
        <time>2023-06-03T12:41:45Z</time>
      </trkpt>
      <trkpt lat="49.89708" lon="2.26785">
        <ele>24.2</ele>
        <time>2023-06-03T12:41:46Z</time>
      </trkpt>
      <trkpt lat="49.89708" lon="2.26783">
        <ele>24.2</ele>
        <time>2023-06-03T12:41:47Z</time>
      </trkpt>
      <trkpt lat="49.89708" lon="2.26781">
        <ele>24.2</ele>
        <time>2023-06-03T12:41:48Z</time>
      </trkpt>
      <trkpt lat="49.89708" lon="2.26779">
        <ele>24.2</ele>
        <time>2023-06-03T12:41:49Z</time>
      </trkpt>
      <trkpt lat="49.89708" lon="2.26777">
        <ele>24.2</ele>
        <time>2023-06-03T12:41:51Z</time>
      </trkpt>
      <trkpt lat="49.89708" lon="2.26775">
        <ele>24.2</ele>
        <time>2023-06-03T12:41:52Z</time>
      </trkpt>
      <trkpt lat="49.89708" lon="2.26773">
        <ele>24.2</ele>
        <time>2023-06-03T12:41:54Z</time>
      </trkpt>
      <trkpt lat="49.89708" lon="2.26771">
        <ele>24.2</ele>
        <time>2023-06-03T12:41:55Z</time>
      </trkpt>
      <trkpt lat="49.89708" lon="2.2677">
        <ele>24.2</ele>
        <time>2023-06-03T12:41:56Z</time>
      </trkpt>
      <trkpt lat="49.89708" lon="2.26768">
        <ele>24.2</ele>
        <time>2023-06-03T12:41:58Z</time>
      </trkpt>
      <trkpt lat="49.89709" lon="2.26766">
        <ele>24.2</ele>
        <time>2023-06-03T12:41:59Z</time>
      </trkpt>
      <trkpt lat="49.89709" lon="2.26763">
        <ele>24.2</ele>
        <time>2023-06-03T12:42:00Z</time>
      </trkpt>
      <trkpt lat="49.89709" lon="2.26761">
        <ele>24.1</ele>
        <time>2023-06-03T12:42:02Z</time>
      </trkpt>
      <trkpt lat="49.89709" lon="2.26758">
        <ele>24.1</ele>
        <time>2023-06-03T12:42:03Z</time>
      </trkpt>
      <trkpt lat="49.89709" lon="2.26756">
        <ele>24.1</ele>
        <time>2023-06-03T12:42:04Z</time>
      </trkpt>
      <trkpt lat="49.8971" lon="2.26753">
        <ele>24.1</ele>
        <time>2023-06-03T12:42:05Z</time>
      </trkpt>
      <trkpt lat="49.8971" lon="2.26751">
        <ele>24.1</ele>
        <time>2023-06-03T12:42:06Z</time>
      </trkpt>
      <trkpt lat="49.8971" lon="2.26749">
        <ele>24.1</ele>
        <time>2023-06-03T12:42:07Z</time>
      </trkpt>
      <trkpt lat="49.8971" lon="2.26745">
        <ele>24.1</ele>
        <time>2023-06-03T12:42:09Z</time>
      </trkpt>
      <trkpt lat="49.89711" lon="2.2674">
        <ele>24.1</ele>
        <time>2023-06-03T12:42:10Z</time>
      </trkpt>
      <trkpt lat="49.89711" lon="2.26738">
        <ele>24.1</ele>
        <time>2023-06-03T12:42:12Z</time>
      </trkpt>
      <trkpt lat="49.89711" lon="2.26735">
        <ele>24.1</ele>
        <time>2023-06-03T12:42:13Z</time>
      </trkpt>
      <trkpt lat="49.89711" lon="2.26733">
        <ele>24.1</ele>
        <time>2023-06-03T12:42:14Z</time>
      </trkpt>
      <trkpt lat="49.89711" lon="2.26729">
        <ele>24.1</ele>
        <time>2023-06-03T12:42:16Z</time>
      </trkpt>
      <trkpt lat="49.89711" lon="2.26727">
        <ele>24.1</ele>
        <time>2023-06-03T12:42:17Z</time>
      </trkpt>
      <trkpt lat="49.89711" lon="2.26725">
        <ele>24.1</ele>
        <time>2023-06-03T12:42:18Z</time>
      </trkpt>
      <trkpt lat="49.89711" lon="2.26722">
        <ele>24.1</ele>
        <time>2023-06-03T12:42:19Z</time>
      </trkpt>
      <trkpt lat="49.89711" lon="2.26719">
        <ele>24.1</ele>
        <time>2023-06-03T12:42:20Z</time>
      </trkpt>
      <trkpt lat="49.89711" lon="2.26717">
        <ele>24</ele>
        <time>2023-06-03T12:42:21Z</time>
      </trkpt>
      <trkpt lat="49.89711" lon="2.26716">
        <ele>24</ele>
        <time>2023-06-03T12:42:22Z</time>
      </trkpt>
      <trkpt lat="49.89711" lon="2.26714">
        <ele>24</ele>
        <time>2023-06-03T12:42:23Z</time>
      </trkpt>
      <trkpt lat="49.89711" lon="2.26711">
        <ele>24</ele>
        <time>2023-06-03T12:42:25Z</time>
      </trkpt>
      <trkpt lat="49.89711" lon="2.26709">
        <ele>24</ele>
        <time>2023-06-03T12:42:26Z</time>
      </trkpt>
      <trkpt lat="49.89711" lon="2.26708">
        <ele>24</ele>
        <time>2023-06-03T12:42:27Z</time>
      </trkpt>
      <trkpt lat="49.89711" lon="2.26707">
        <ele>24</ele>
        <time>2023-06-03T12:42:29Z</time>
      </trkpt>
      <trkpt lat="49.89711" lon="2.26706">
        <ele>24</ele>
        <time>2023-06-03T12:42:30Z</time>
      </trkpt>
      <trkpt lat="49.89712" lon="2.26704">
        <ele>24</ele>
        <time>2023-06-03T12:42:31Z</time>
      </trkpt>
      <trkpt lat="49.89712" lon="2.26703">
        <ele>24</ele>
        <time>2023-06-03T12:42:32Z</time>
      </trkpt>
      <trkpt lat="49.89712" lon="2.26701">
        <ele>24</ele>
        <time>2023-06-03T12:42:33Z</time>
      </trkpt>
      <trkpt lat="49.89712" lon="2.26698">
        <ele>24</ele>
        <time>2023-06-03T12:42:34Z</time>
      </trkpt>
      <trkpt lat="49.89713" lon="2.26696">
        <ele>24</ele>
        <time>2023-06-03T12:42:36Z</time>
      </trkpt>
      <trkpt lat="49.89713" lon="2.26695">
        <ele>24</ele>
        <time>2023-06-03T12:42:37Z</time>
      </trkpt>
      <trkpt lat="49.89713" lon="2.26693">
        <ele>24</ele>
        <time>2023-06-03T12:42:38Z</time>
      </trkpt>
      <trkpt lat="49.89713" lon="2.26691">
        <ele>24</ele>
        <time>2023-06-03T12:42:39Z</time>
      </trkpt>
      <trkpt lat="49.89714" lon="2.26689">
        <ele>24</ele>
        <time>2023-06-03T12:42:41Z</time>
      </trkpt>
      <trkpt lat="49.89714" lon="2.26686">
        <ele>24</ele>
        <time>2023-06-03T12:42:42Z</time>
      </trkpt>
      <trkpt lat="49.89714" lon="2.26682">
        <ele>24</ele>
        <time>2023-06-03T12:42:43Z</time>
      </trkpt>
      <trkpt lat="49.89714" lon="2.26681">
        <ele>24</ele>
        <time>2023-06-03T12:42:45Z</time>
      </trkpt>
      <trkpt lat="49.89714" lon="2.26679">
        <ele>24.1</ele>
        <time>2023-06-03T12:42:46Z</time>
      </trkpt>
      <trkpt lat="49.89715" lon="2.26677">
        <ele>24.1</ele>
        <time>2023-06-03T12:42:47Z</time>
      </trkpt>
      <trkpt lat="49.89715" lon="2.26675">
        <ele>24.1</ele>
        <time>2023-06-03T12:42:48Z</time>
      </trkpt>
      <trkpt lat="49.89715" lon="2.26674">
        <ele>24.1</ele>
        <time>2023-06-03T12:42:49Z</time>
      </trkpt>
      <trkpt lat="49.89715" lon="2.26672">
        <ele>24.1</ele>
        <time>2023-06-03T12:42:50Z</time>
      </trkpt>
      <trkpt lat="49.89716" lon="2.26669">
        <ele>24.1</ele>
        <time>2023-06-03T12:42:52Z</time>
      </trkpt>
      <trkpt lat="49.89716" lon="2.26667">
        <ele>24.2</ele>
        <time>2023-06-03T12:42:53Z</time>
      </trkpt>
      <trkpt lat="49.89716" lon="2.26665">
        <ele>24.2</ele>
        <time>2023-06-03T12:42:54Z</time>
      </trkpt>
      <trkpt lat="49.89716" lon="2.26664">
        <ele>24.2</ele>
        <time>2023-06-03T12:42:55Z</time>
      </trkpt>
      <trkpt lat="49.89716" lon="2.2666">
        <ele>24.2</ele>
        <time>2023-06-03T12:42:57Z</time>
      </trkpt>
      <trkpt lat="49.89716" lon="2.26659">
        <ele>24.2</ele>
        <time>2023-06-03T12:42:58Z</time>
      </trkpt>
      <trkpt lat="49.89717" lon="2.26657">
        <ele>24.3</ele>
        <time>2023-06-03T12:42:59Z</time>
      </trkpt>
      <trkpt lat="49.89717" lon="2.26656">
        <ele>24.3</ele>
        <time>2023-06-03T12:43:00Z</time>
      </trkpt>
      <trkpt lat="49.89717" lon="2.26654">
        <ele>24.3</ele>
        <time>2023-06-03T12:43:01Z</time>
      </trkpt>
      <trkpt lat="49.89717" lon="2.26652">
        <ele>24.3</ele>
        <time>2023-06-03T12:43:02Z</time>
      </trkpt>
      <trkpt lat="49.89717" lon="2.26651">
        <ele>24.3</ele>
        <time>2023-06-03T12:43:04Z</time>
      </trkpt>
      <trkpt lat="49.89717" lon="2.26648">
        <ele>24.4</ele>
        <time>2023-06-03T12:43:05Z</time>
      </trkpt>
      <trkpt lat="49.89717" lon="2.26645">
        <ele>24.4</ele>
        <time>2023-06-03T12:43:06Z</time>
      </trkpt>
      <trkpt lat="49.89717" lon="2.26643">
        <ele>24.4</ele>
        <time>2023-06-03T12:43:08Z</time>
      </trkpt>
      <trkpt lat="49.89717" lon="2.2664">
        <ele>24.4</ele>
        <time>2023-06-03T12:43:09Z</time>
      </trkpt>
      <trkpt lat="49.89717" lon="2.26638">
        <ele>24.5</ele>
        <time>2023-06-03T12:43:10Z</time>
      </trkpt>
      <trkpt lat="49.89717" lon="2.26636">
        <ele>24.5</ele>
        <time>2023-06-03T12:43:11Z</time>
      </trkpt>
      <trkpt lat="49.89717" lon="2.26634">
        <ele>24.5</ele>
        <time>2023-06-03T12:43:12Z</time>
      </trkpt>
      <trkpt lat="49.89717" lon="2.26632">
        <ele>24.5</ele>
        <time>2023-06-03T12:43:13Z</time>
      </trkpt>
      <trkpt lat="49.89716" lon="2.2663">
        <ele>24.5</ele>
        <time>2023-06-03T12:43:14Z</time>
      </trkpt>
      <trkpt lat="49.89715" lon="2.26628">
        <ele>24.6</ele>
        <time>2023-06-03T12:43:16Z</time>
      </trkpt>
      <trkpt lat="49.89714" lon="2.26625">
        <ele>24.6</ele>
        <time>2023-06-03T12:43:17Z</time>
      </trkpt>
      <trkpt lat="49.89714" lon="2.26624">
        <ele>24.6</ele>
        <time>2023-06-03T12:43:18Z</time>
      </trkpt>
      <trkpt lat="49.89713" lon="2.26622">
        <ele>24.6</ele>
        <time>2023-06-03T12:43:19Z</time>
      </trkpt>
      <trkpt lat="49.89712" lon="2.26619">
        <ele>24.6</ele>
        <time>2023-06-03T12:43:21Z</time>
      </trkpt>
      <trkpt lat="49.89711" lon="2.26618">
        <ele>24.6</ele>
        <time>2023-06-03T12:43:22Z</time>
      </trkpt>
      <trkpt lat="49.89711" lon="2.26618">
        <ele>24.6</ele>
        <time>2023-06-03T12:43:23Z</time>
      </trkpt>
      <trkpt lat="49.8971" lon="2.26619">
        <ele>24.5</ele>
        <time>2023-06-03T12:43:25Z</time>
      </trkpt>
      <trkpt lat="49.8971" lon="2.26619">
        <ele>24.5</ele>
        <time>2023-06-03T12:43:26Z</time>
      </trkpt>
      <trkpt lat="49.8971" lon="2.26619">
        <ele>24.5</ele>
        <time>2023-06-03T12:43:27Z</time>
      </trkpt>
      <trkpt lat="49.8971" lon="2.2662">
        <ele>24.5</ele>
        <time>2023-06-03T12:43:29Z</time>
      </trkpt>
      <trkpt lat="49.8971" lon="2.2662">
        <ele>24.5</ele>
        <time>2023-06-03T12:43:30Z</time>
      </trkpt>
      <trkpt lat="49.8971" lon="2.26619">
        <ele>24.5</ele>
        <time>2023-06-03T12:43:31Z</time>
      </trkpt>
      <trkpt lat="49.8971" lon="2.26618">
        <ele>24.5</ele>
        <time>2023-06-03T12:43:32Z</time>
      </trkpt>
      <trkpt lat="49.8971" lon="2.26617">
        <ele>24.5</ele>
        <time>2023-06-03T12:43:34Z</time>
      </trkpt>
      <trkpt lat="49.8971" lon="2.26617">
        <ele>24.5</ele>
        <time>2023-06-03T12:43:35Z</time>
      </trkpt>
      <trkpt lat="49.8971" lon="2.26615">
        <ele>24.5</ele>
        <time>2023-06-03T12:43:36Z</time>
      </trkpt>
      <trkpt lat="49.8971" lon="2.26612">
        <ele>24.5</ele>
        <time>2023-06-03T12:43:37Z</time>
      </trkpt>
      <trkpt lat="49.8971" lon="2.2661">
        <ele>24.5</ele>
        <time>2023-06-03T12:43:38Z</time>
      </trkpt>
      <trkpt lat="49.8971" lon="2.26609">
        <ele>24.5</ele>
        <time>2023-06-03T12:43:39Z</time>
      </trkpt>
      <trkpt lat="49.89709" lon="2.26607">
        <ele>24.5</ele>
        <time>2023-06-03T12:43:41Z</time>
      </trkpt>
      <trkpt lat="49.89709" lon="2.26604">
        <ele>24.5</ele>
        <time>2023-06-03T12:43:42Z</time>
      </trkpt>
      <trkpt lat="49.89709" lon="2.26601">
        <ele>24.5</ele>
        <time>2023-06-03T12:43:43Z</time>
      </trkpt>
      <trkpt lat="49.89709" lon="2.26599">
        <ele>24.5</ele>
        <time>2023-06-03T12:43:44Z</time>
      </trkpt>
      <trkpt lat="49.89709" lon="2.26598">
        <ele>24.5</ele>
        <time>2023-06-03T12:43:45Z</time>
      </trkpt>
      <trkpt lat="49.89709" lon="2.26595">
        <ele>24.5</ele>
        <time>2023-06-03T12:43:46Z</time>
      </trkpt>
      <trkpt lat="49.89709" lon="2.26593">
        <ele>24.4</ele>
        <time>2023-06-03T12:43:47Z</time>
      </trkpt>
      <trkpt lat="49.89709" lon="2.26591">
        <ele>24.4</ele>
        <time>2023-06-03T12:43:48Z</time>
      </trkpt>
      <trkpt lat="49.89709" lon="2.2659">
        <ele>24.4</ele>
        <time>2023-06-03T12:43:50Z</time>
      </trkpt>
      <trkpt lat="49.89709" lon="2.26588">
        <ele>24.4</ele>
        <time>2023-06-03T12:43:51Z</time>
      </trkpt>
      <trkpt lat="49.8971" lon="2.26585">
        <ele>24.4</ele>
        <time>2023-06-03T12:43:52Z</time>
      </trkpt>
      <trkpt lat="49.8971" lon="2.26584">
        <ele>24.4</ele>
        <time>2023-06-03T12:43:53Z</time>
      </trkpt>
      <trkpt lat="49.8971" lon="2.26583">
        <ele>24.4</ele>
        <time>2023-06-03T12:43:54Z</time>
      </trkpt>
      <trkpt lat="49.8971" lon="2.26582">
        <ele>24.4</ele>
        <time>2023-06-03T12:43:55Z</time>
      </trkpt>
      <trkpt lat="49.8971" lon="2.2658">
        <ele>24.4</ele>
        <time>2023-06-03T12:43:56Z</time>
      </trkpt>
      <trkpt lat="49.8971" lon="2.26579">
        <ele>24.4</ele>
        <time>2023-06-03T12:43:58Z</time>
      </trkpt>
      <trkpt lat="49.89709" lon="2.26577">
        <ele>24.4</ele>
        <time>2023-06-03T12:43:59Z</time>
      </trkpt>
      <trkpt lat="49.89709" lon="2.26576">
        <ele>24.4</ele>
        <time>2023-06-03T12:44:00Z</time>
      </trkpt>
      <trkpt lat="49.89709" lon="2.26574">
        <ele>24.4</ele>
        <time>2023-06-03T12:44:01Z</time>
      </trkpt>
      <trkpt lat="49.8971" lon="2.26573">
        <ele>24.4</ele>
        <time>2023-06-03T12:44:02Z</time>
      </trkpt>
      <trkpt lat="49.8971" lon="2.26571">
        <ele>24.4</ele>
        <time>2023-06-03T12:44:03Z</time>
      </trkpt>
      <trkpt lat="49.8971" lon="2.26569">
        <ele>24.4</ele>
        <time>2023-06-03T12:44:04Z</time>
      </trkpt>
      <trkpt lat="49.8971" lon="2.26565">
        <ele>24.4</ele>
        <time>2023-06-03T12:44:06Z</time>
      </trkpt>
      <trkpt lat="49.8971" lon="2.26562">
        <ele>24.4</ele>
        <time>2023-06-03T12:44:07Z</time>
      </trkpt>
      <trkpt lat="49.8971" lon="2.26559">
        <ele>24.4</ele>
        <time>2023-06-03T12:44:09Z</time>
      </trkpt>
      <trkpt lat="49.8971" lon="2.26557">
        <ele>24.4</ele>
        <time>2023-06-03T12:44:10Z</time>
      </trkpt>
      <trkpt lat="49.89711" lon="2.26555">
        <ele>24.4</ele>
        <time>2023-06-03T12:44:11Z</time>
      </trkpt>
      <trkpt lat="49.89711" lon="2.26551">
        <ele>24.4</ele>
        <time>2023-06-03T12:44:12Z</time>
      </trkpt>
      <trkpt lat="49.89711" lon="2.2655">
        <ele>24.4</ele>
        <time>2023-06-03T12:44:13Z</time>
      </trkpt>
      <trkpt lat="49.89711" lon="2.26548">
        <ele>24.4</ele>
        <time>2023-06-03T12:44:14Z</time>
      </trkpt>
      <trkpt lat="49.89711" lon="2.26545">
        <ele>24.4</ele>
        <time>2023-06-03T12:44:15Z</time>
      </trkpt>
      <trkpt lat="49.89711" lon="2.26543">
        <ele>24.4</ele>
        <time>2023-06-03T12:44:16Z</time>
      </trkpt>
      <trkpt lat="49.89711" lon="2.26541">
        <ele>24.4</ele>
        <time>2023-06-03T12:44:18Z</time>
      </trkpt>
      <trkpt lat="49.89711" lon="2.26538">
        <ele>24.4</ele>
        <time>2023-06-03T12:44:19Z</time>
      </trkpt>
      <trkpt lat="49.89711" lon="2.26536">
        <ele>24.4</ele>
        <time>2023-06-03T12:44:20Z</time>
      </trkpt>
      <trkpt lat="49.89711" lon="2.26534">
        <ele>24.4</ele>
        <time>2023-06-03T12:44:21Z</time>
      </trkpt>
      <trkpt lat="49.89711" lon="2.26531">
        <ele>24.4</ele>
        <time>2023-06-03T12:44:22Z</time>
      </trkpt>
      <trkpt lat="49.89711" lon="2.26529">
        <ele>24.4</ele>
        <time>2023-06-03T12:44:23Z</time>
      </trkpt>
      <trkpt lat="49.89711" lon="2.26528">
        <ele>24.4</ele>
        <time>2023-06-03T12:44:24Z</time>
      </trkpt>
      <trkpt lat="49.89711" lon="2.26527">
        <ele>24.4</ele>
        <time>2023-06-03T12:44:25Z</time>
      </trkpt>
      <trkpt lat="49.89711" lon="2.26525">
        <ele>24.4</ele>
        <time>2023-06-03T12:44:26Z</time>
      </trkpt>
      <trkpt lat="49.89711" lon="2.26525">
        <ele>24.4</ele>
        <time>2023-06-03T12:44:27Z</time>
      </trkpt>
      <trkpt lat="49.89711" lon="2.26524">
        <ele>24.4</ele>
        <time>2023-06-03T12:44:29Z</time>
      </trkpt>
      <trkpt lat="49.89711" lon="2.26522">
        <ele>24.4</ele>
        <time>2023-06-03T12:44:30Z</time>
      </trkpt>
      <trkpt lat="49.8971" lon="2.26519">
        <ele>24.4</ele>
        <time>2023-06-03T12:44:31Z</time>
      </trkpt>
      <trkpt lat="49.8971" lon="2.26518">
        <ele>24.4</ele>
        <time>2023-06-03T12:44:33Z</time>
      </trkpt>
      <trkpt lat="49.8971" lon="2.26515">
        <ele>24.5</ele>
        <time>2023-06-03T12:44:34Z</time>
      </trkpt>
      <trkpt lat="49.8971" lon="2.26514">
        <ele>24.5</ele>
        <time>2023-06-03T12:44:35Z</time>
      </trkpt>
      <trkpt lat="49.89711" lon="2.26512">
        <ele>24.5</ele>
        <time>2023-06-03T12:44:36Z</time>
      </trkpt>
      <trkpt lat="49.89712" lon="2.26511">
        <ele>24.5</ele>
        <time>2023-06-03T12:44:37Z</time>
      </trkpt>
      <trkpt lat="49.89712" lon="2.26509">
        <ele>24.5</ele>
        <time>2023-06-03T12:44:38Z</time>
      </trkpt>
      <trkpt lat="49.89712" lon="2.26508">
        <ele>24.5</ele>
        <time>2023-06-03T12:44:40Z</time>
      </trkpt>
      <trkpt lat="49.89713" lon="2.26507">
        <ele>24.5</ele>
        <time>2023-06-03T12:44:41Z</time>
      </trkpt>
      <trkpt lat="49.89713" lon="2.26505">
        <ele>24.5</ele>
        <time>2023-06-03T12:44:42Z</time>
      </trkpt>
      <trkpt lat="49.89714" lon="2.26504">
        <ele>24.5</ele>
        <time>2023-06-03T12:44:43Z</time>
      </trkpt>
      <trkpt lat="49.89715" lon="2.26501">
        <ele>24.5</ele>
        <time>2023-06-03T12:44:45Z</time>
      </trkpt>
      <trkpt lat="49.89716" lon="2.265">
        <ele>24.5</ele>
        <time>2023-06-03T12:44:46Z</time>
      </trkpt>
      <trkpt lat="49.89716" lon="2.26498">
        <ele>24.5</ele>
        <time>2023-06-03T12:44:47Z</time>
      </trkpt>
      <trkpt lat="49.89717" lon="2.26497">
        <ele>24.5</ele>
        <time>2023-06-03T12:44:48Z</time>
      </trkpt>
      <trkpt lat="49.89719" lon="2.26493">
        <ele>24.5</ele>
        <time>2023-06-03T12:44:50Z</time>
      </trkpt>
      <trkpt lat="49.8972" lon="2.26491">
        <ele>24.5</ele>
        <time>2023-06-03T12:44:51Z</time>
      </trkpt>
      <trkpt lat="49.8972" lon="2.26489">
        <ele>24.4</ele>
        <time>2023-06-03T12:44:52Z</time>
      </trkpt>
      <trkpt lat="49.89721" lon="2.26487">
        <ele>24.4</ele>
        <time>2023-06-03T12:44:53Z</time>
      </trkpt>
      <trkpt lat="49.89723" lon="2.26485">
        <ele>24.4</ele>
        <time>2023-06-03T12:44:55Z</time>
      </trkpt>
      <trkpt lat="49.89724" lon="2.26483">
        <ele>24.4</ele>
        <time>2023-06-03T12:44:56Z</time>
      </trkpt>
      <trkpt lat="49.89725" lon="2.26482">
        <ele>24.4</ele>
        <time>2023-06-03T12:44:57Z</time>
      </trkpt>
      <trkpt lat="49.89726" lon="2.2648">
        <ele>24.4</ele>
        <time>2023-06-03T12:44:58Z</time>
      </trkpt>
      <trkpt lat="49.89727" lon="2.2648">
        <ele>24.4</ele>
        <time>2023-06-03T12:44:59Z</time>
      </trkpt>
      <trkpt lat="49.89729" lon="2.26478">
        <ele>24.4</ele>
        <time>2023-06-03T12:45:00Z</time>
      </trkpt>
      <trkpt lat="49.8973" lon="2.26477">
        <ele>24.4</ele>
        <time>2023-06-03T12:45:01Z</time>
      </trkpt>
      <trkpt lat="49.89731" lon="2.26476">
        <ele>24.4</ele>
        <time>2023-06-03T12:45:02Z</time>
      </trkpt>
      <trkpt lat="49.89733" lon="2.26475">
        <ele>24.4</ele>
        <time>2023-06-03T12:45:04Z</time>
      </trkpt>
      <trkpt lat="49.89734" lon="2.26473">
        <ele>24.4</ele>
        <time>2023-06-03T12:45:05Z</time>
      </trkpt>
      <trkpt lat="49.89737" lon="2.26471">
        <ele>24.5</ele>
        <time>2023-06-03T12:45:06Z</time>
      </trkpt>
      <trkpt lat="49.89738" lon="2.2647">
        <ele>24.5</ele>
        <time>2023-06-03T12:45:07Z</time>
      </trkpt>
      <trkpt lat="49.8974" lon="2.26467">
        <ele>24.5</ele>
        <time>2023-06-03T12:45:09Z</time>
      </trkpt>
      <trkpt lat="49.89741" lon="2.26466">
        <ele>24.5</ele>
        <time>2023-06-03T12:45:10Z</time>
      </trkpt>
      <trkpt lat="49.89742" lon="2.26465">
        <ele>24.6</ele>
        <time>2023-06-03T12:45:11Z</time>
      </trkpt>
      <trkpt lat="49.89743" lon="2.26464">
        <ele>24.6</ele>
        <time>2023-06-03T12:45:12Z</time>
      </trkpt>
      <trkpt lat="49.89743" lon="2.26463">
        <ele>24.6</ele>
        <time>2023-06-03T12:45:13Z</time>
      </trkpt>
      <trkpt lat="49.89744" lon="2.26462">
        <ele>24.6</ele>
        <time>2023-06-03T12:45:14Z</time>
      </trkpt>
      <trkpt lat="49.89744" lon="2.26462">
        <ele>24.6</ele>
        <time>2023-06-03T12:45:15Z</time>
      </trkpt>
      <trkpt lat="49.89744" lon="2.26463">
        <ele>24.6</ele>
        <time>2023-06-03T12:45:17Z</time>
      </trkpt>
      <trkpt lat="49.89744" lon="2.26462">
        <ele>24.6</ele>
        <time>2023-06-03T12:45:18Z</time>
      </trkpt>
      <trkpt lat="49.89745" lon="2.26461">
        <ele>24.6</ele>
        <time>2023-06-03T12:45:19Z</time>
      </trkpt>
      <trkpt lat="49.89745" lon="2.2646">
        <ele>24.6</ele>
        <time>2023-06-03T12:45:20Z</time>
      </trkpt>
      <trkpt lat="49.89746" lon="2.26459">
        <ele>24.6</ele>
        <time>2023-06-03T12:45:21Z</time>
      </trkpt>
      <trkpt lat="49.89746" lon="2.26458">
        <ele>24.7</ele>
        <time>2023-06-03T12:45:22Z</time>
      </trkpt>
      <trkpt lat="49.89747" lon="2.26457">
        <ele>24.7</ele>
        <time>2023-06-03T12:45:23Z</time>
      </trkpt>
      <trkpt lat="49.89748" lon="2.26457">
        <ele>24.7</ele>
        <time>2023-06-03T12:45:25Z</time>
      </trkpt>
      <trkpt lat="49.89749" lon="2.26456">
        <ele>24.7</ele>
        <time>2023-06-03T12:45:26Z</time>
      </trkpt>
      <trkpt lat="49.8975" lon="2.26456">
        <ele>24.7</ele>
        <time>2023-06-03T12:45:27Z</time>
      </trkpt>
      <trkpt lat="49.89751" lon="2.26456">
        <ele>24.7</ele>
        <time>2023-06-03T12:45:28Z</time>
      </trkpt>
      <trkpt lat="49.89752" lon="2.26456">
        <ele>24.7</ele>
        <time>2023-06-03T12:45:29Z</time>
      </trkpt>
      <trkpt lat="49.89752" lon="2.26457">
        <ele>24.7</ele>
        <time>2023-06-03T12:45:30Z</time>
      </trkpt>
      <trkpt lat="49.89752" lon="2.26458">
        <ele>24.7</ele>
        <time>2023-06-03T12:45:31Z</time>
      </trkpt>
      <trkpt lat="49.89753" lon="2.26459">
        <ele>24.7</ele>
        <time>2023-06-03T12:45:32Z</time>
      </trkpt>
      <trkpt lat="49.89755" lon="2.2646">
        <ele>24.7</ele>
        <time>2023-06-03T12:45:33Z</time>
      </trkpt>
      <trkpt lat="49.89756" lon="2.2646">
        <ele>24.7</ele>
        <time>2023-06-03T12:45:35Z</time>
      </trkpt>
      <trkpt lat="49.89756" lon="2.26461">
        <ele>24.7</ele>
        <time>2023-06-03T12:45:36Z</time>
      </trkpt>
      <trkpt lat="49.89758" lon="2.26461">
        <ele>24.7</ele>
        <time>2023-06-03T12:45:37Z</time>
      </trkpt>
      <trkpt lat="49.89759" lon="2.26462">
        <ele>24.7</ele>
        <time>2023-06-03T12:45:38Z</time>
      </trkpt>
      <trkpt lat="49.89759" lon="2.26463">
        <ele>24.7</ele>
        <time>2023-06-03T12:45:39Z</time>
      </trkpt>
      <trkpt lat="49.8976" lon="2.26464">
        <ele>24.7</ele>
        <time>2023-06-03T12:45:40Z</time>
      </trkpt>
      <trkpt lat="49.89761" lon="2.26466">
        <ele>24.7</ele>
        <time>2023-06-03T12:45:42Z</time>
      </trkpt>
      <trkpt lat="49.89761" lon="2.26468">
        <ele>24.7</ele>
        <time>2023-06-03T12:45:43Z</time>
      </trkpt>
      <trkpt lat="49.89762" lon="2.2647">
        <ele>24.7</ele>
        <time>2023-06-03T12:45:44Z</time>
      </trkpt>
      <trkpt lat="49.89763" lon="2.26472">
        <ele>24.7</ele>
        <time>2023-06-03T12:45:45Z</time>
      </trkpt>
      <trkpt lat="49.89764" lon="2.26474">
        <ele>24.7</ele>
        <time>2023-06-03T12:45:46Z</time>
      </trkpt>
      <trkpt lat="49.89765" lon="2.26476">
        <ele>24.7</ele>
        <time>2023-06-03T12:45:47Z</time>
      </trkpt>
      <trkpt lat="49.89766" lon="2.26477">
        <ele>24.7</ele>
        <time>2023-06-03T12:45:48Z</time>
      </trkpt>
      <trkpt lat="49.89768" lon="2.26479">
        <ele>24.7</ele>
        <time>2023-06-03T12:45:49Z</time>
      </trkpt>
      <trkpt lat="49.8977" lon="2.26482">
        <ele>24.7</ele>
        <time>2023-06-03T12:45:51Z</time>
      </trkpt>
      <trkpt lat="49.89771" lon="2.26482">
        <ele>24.7</ele>
        <time>2023-06-03T12:45:52Z</time>
      </trkpt>
      <trkpt lat="49.89772" lon="2.26483">
        <ele>24.7</ele>
        <time>2023-06-03T12:45:53Z</time>
      </trkpt>
      <trkpt lat="49.89774" lon="2.26485">
        <ele>24.7</ele>
        <time>2023-06-03T12:45:55Z</time>
      </trkpt>
      <trkpt lat="49.89776" lon="2.26486">
        <ele>24.7</ele>
        <time>2023-06-03T12:45:56Z</time>
      </trkpt>
      <trkpt lat="49.89777" lon="2.26487">
        <ele>24.7</ele>
        <time>2023-06-03T12:45:57Z</time>
      </trkpt>
      <trkpt lat="49.89778" lon="2.26488">
        <ele>24.7</ele>
        <time>2023-06-03T12:45:58Z</time>
      </trkpt>
      <trkpt lat="49.89779" lon="2.26488">
        <ele>24.7</ele>
        <time>2023-06-03T12:45:59Z</time>
      </trkpt>
      <trkpt lat="49.8978" lon="2.26489">
        <ele>24.7</ele>
        <time>2023-06-03T12:46:00Z</time>
      </trkpt>
      <trkpt lat="49.89781" lon="2.26489">
        <ele>24.7</ele>
        <time>2023-06-03T12:46:01Z</time>
      </trkpt>
      <trkpt lat="49.89782" lon="2.2649">
        <ele>24.7</ele>
        <time>2023-06-03T12:46:03Z</time>
      </trkpt>
      <trkpt lat="49.89783" lon="2.26491">
        <ele>24.7</ele>
        <time>2023-06-03T12:46:04Z</time>
      </trkpt>
      <trkpt lat="49.89785" lon="2.26492">
        <ele>24.7</ele>
        <time>2023-06-03T12:46:05Z</time>
      </trkpt>
      <trkpt lat="49.89785" lon="2.26492">
        <ele>24.7</ele>
        <time>2023-06-03T12:46:06Z</time>
      </trkpt>
      <trkpt lat="49.89786" lon="2.26493">
        <ele>24.7</ele>
        <time>2023-06-03T12:46:07Z</time>
      </trkpt>
      <trkpt lat="49.89787" lon="2.26493">
        <ele>24.7</ele>
        <time>2023-06-03T12:46:08Z</time>
      </trkpt>
      <trkpt lat="49.89788" lon="2.26493">
        <ele>24.7</ele>
        <time>2023-06-03T12:46:09Z</time>
      </trkpt>
      <trkpt lat="49.8979" lon="2.26494">
        <ele>24.7</ele>
        <time>2023-06-03T12:46:11Z</time>
      </trkpt>
      <trkpt lat="49.89791" lon="2.26494">
        <ele>24.7</ele>
        <time>2023-06-03T12:46:12Z</time>
      </trkpt>
      <trkpt lat="49.89793" lon="2.26494">
        <ele>24.7</ele>
        <time>2023-06-03T12:46:13Z</time>
      </trkpt>
      <trkpt lat="49.89794" lon="2.26494">
        <ele>24.7</ele>
        <time>2023-06-03T12:46:14Z</time>
      </trkpt>
      <trkpt lat="49.89795" lon="2.26494">
        <ele>24.7</ele>
        <time>2023-06-03T12:46:15Z</time>
      </trkpt>
      <trkpt lat="49.89796" lon="2.26494">
        <ele>24.7</ele>
        <time>2023-06-03T12:46:16Z</time>
      </trkpt>
      <trkpt lat="49.89797" lon="2.26493">
        <ele>24.7</ele>
        <time>2023-06-03T12:46:17Z</time>
      </trkpt>
      <trkpt lat="49.89797" lon="2.26492">
        <ele>24.7</ele>
        <time>2023-06-03T12:46:18Z</time>
      </trkpt>
      <trkpt lat="49.89799" lon="2.2649">
        <ele>24.7</ele>
        <time>2023-06-03T12:46:20Z</time>
      </trkpt>
      <trkpt lat="49.89799" lon="2.26489">
        <ele>24.7</ele>
        <time>2023-06-03T12:46:21Z</time>
      </trkpt>
      <trkpt lat="49.898" lon="2.26488">
        <ele>24.7</ele>
        <time>2023-06-03T12:46:22Z</time>
      </trkpt>
      <trkpt lat="49.89801" lon="2.26486">
        <ele>24.7</ele>
        <time>2023-06-03T12:46:23Z</time>
      </trkpt>
      <trkpt lat="49.89802" lon="2.26485">
        <ele>24.7</ele>
        <time>2023-06-03T12:46:24Z</time>
      </trkpt>
      <trkpt lat="49.89803" lon="2.26484">
        <ele>24.7</ele>
        <time>2023-06-03T12:46:25Z</time>
      </trkpt>
      <trkpt lat="49.89804" lon="2.26483">
        <ele>24.7</ele>
        <time>2023-06-03T12:46:26Z</time>
      </trkpt>
      <trkpt lat="49.89804" lon="2.26485">
        <ele>24.7</ele>
        <time>2023-06-03T12:46:28Z</time>
      </trkpt>
      <trkpt lat="49.89806" lon="2.26486">
        <ele>24.7</ele>
        <time>2023-06-03T12:46:29Z</time>
      </trkpt>
      <trkpt lat="49.89807" lon="2.26488">
        <ele>24.7</ele>
        <time>2023-06-03T12:46:30Z</time>
      </trkpt>
      <trkpt lat="49.89807" lon="2.26489">
        <ele>24.7</ele>
        <time>2023-06-03T12:46:32Z</time>
      </trkpt>
      <trkpt lat="49.89808" lon="2.26491">
        <ele>24.7</ele>
        <time>2023-06-03T12:46:33Z</time>
      </trkpt>
      <trkpt lat="49.89809" lon="2.26492">
        <ele>24.7</ele>
        <time>2023-06-03T12:46:34Z</time>
      </trkpt>
      <trkpt lat="49.8981" lon="2.26493">
        <ele>24.7</ele>
        <time>2023-06-03T12:46:35Z</time>
      </trkpt>
      <trkpt lat="49.89811" lon="2.26495">
        <ele>24.7</ele>
        <time>2023-06-03T12:46:36Z</time>
      </trkpt>
      <trkpt lat="49.89812" lon="2.26496">
        <ele>24.7</ele>
        <time>2023-06-03T12:46:37Z</time>
      </trkpt>
      <trkpt lat="49.89813" lon="2.26497">
        <ele>24.7</ele>
        <time>2023-06-03T12:46:38Z</time>
      </trkpt>
      <trkpt lat="49.89813" lon="2.26497">
        <ele>24.7</ele>
        <time>2023-06-03T12:46:39Z</time>
      </trkpt>
      <trkpt lat="49.89814" lon="2.26499">
        <ele>24.7</ele>
        <time>2023-06-03T12:46:41Z</time>
      </trkpt>
      <trkpt lat="49.89815" lon="2.265">
        <ele>24.7</ele>
        <time>2023-06-03T12:46:42Z</time>
      </trkpt>
      <trkpt lat="49.89816" lon="2.26501">
        <ele>24.6</ele>
        <time>2023-06-03T12:46:43Z</time>
      </trkpt>
      <trkpt lat="49.89816" lon="2.26502">
        <ele>24.6</ele>
        <time>2023-06-03T12:46:44Z</time>
      </trkpt>
      <trkpt lat="49.89817" lon="2.26504">
        <ele>24.6</ele>
        <time>2023-06-03T12:46:45Z</time>
      </trkpt>
      <trkpt lat="49.89819" lon="2.26506">
        <ele>24.6</ele>
        <time>2023-06-03T12:46:46Z</time>
      </trkpt>
      <trkpt lat="49.8982" lon="2.26508">
        <ele>24.6</ele>
        <time>2023-06-03T12:46:48Z</time>
      </trkpt>
      <trkpt lat="49.89821" lon="2.26509">
        <ele>24.6</ele>
        <time>2023-06-03T12:46:49Z</time>
      </trkpt>
      <trkpt lat="49.89822" lon="2.2651">
        <ele>24.6</ele>
        <time>2023-06-03T12:46:50Z</time>
      </trkpt>
      <trkpt lat="49.89823" lon="2.26512">
        <ele>24.6</ele>
        <time>2023-06-03T12:46:51Z</time>
      </trkpt>
      <trkpt lat="49.89824" lon="2.26513">
        <ele>24.6</ele>
        <time>2023-06-03T12:46:52Z</time>
      </trkpt>
      <trkpt lat="49.89825" lon="2.26515">
        <ele>24.5</ele>
        <time>2023-06-03T12:46:54Z</time>
      </trkpt>
      <trkpt lat="49.89826" lon="2.26517">
        <ele>24.5</ele>
        <time>2023-06-03T12:46:55Z</time>
      </trkpt>
      <trkpt lat="49.89826" lon="2.26518">
        <ele>24.5</ele>
        <time>2023-06-03T12:46:56Z</time>
      </trkpt>
      <trkpt lat="49.89827" lon="2.26519">
        <ele>24.5</ele>
        <time>2023-06-03T12:46:57Z</time>
      </trkpt>
      <trkpt lat="49.89828" lon="2.2652">
        <ele>24.5</ele>
        <time>2023-06-03T12:46:58Z</time>
      </trkpt>
      <trkpt lat="49.89829" lon="2.26521">
        <ele>24.5</ele>
        <time>2023-06-03T12:46:59Z</time>
      </trkpt>
      <trkpt lat="49.8983" lon="2.26523">
        <ele>24.5</ele>
        <time>2023-06-03T12:47:01Z</time>
      </trkpt>
      <trkpt lat="49.89832" lon="2.26525">
        <ele>24.5</ele>
        <time>2023-06-03T12:47:02Z</time>
      </trkpt>
      <trkpt lat="49.89832" lon="2.26526">
        <ele>24.5</ele>
        <time>2023-06-03T12:47:03Z</time>
      </trkpt>
      <trkpt lat="49.89834" lon="2.26527">
        <ele>24.5</ele>
        <time>2023-06-03T12:47:05Z</time>
      </trkpt>
      <trkpt lat="49.89835" lon="2.26528">
        <ele>24.5</ele>
        <time>2023-06-03T12:47:06Z</time>
      </trkpt>
      <trkpt lat="49.89836" lon="2.26529">
        <ele>24.5</ele>
        <time>2023-06-03T12:47:07Z</time>
      </trkpt>
      <trkpt lat="49.89837" lon="2.26529">
        <ele>24.5</ele>
        <time>2023-06-03T12:47:08Z</time>
      </trkpt>
      <trkpt lat="49.89838" lon="2.2653">
        <ele>24.5</ele>
        <time>2023-06-03T12:47:09Z</time>
      </trkpt>
      <trkpt lat="49.89839" lon="2.26529">
        <ele>24.5</ele>
        <time>2023-06-03T12:47:10Z</time>
      </trkpt>
      <trkpt lat="49.8984" lon="2.26529">
        <ele>24.5</ele>
        <time>2023-06-03T12:47:12Z</time>
      </trkpt>
      <trkpt lat="49.89841" lon="2.2653">
        <ele>24.5</ele>
        <time>2023-06-03T12:47:13Z</time>
      </trkpt>
      <trkpt lat="49.89843" lon="2.2653">
        <ele>24.5</ele>
        <time>2023-06-03T12:47:14Z</time>
      </trkpt>
      <trkpt lat="49.89843" lon="2.26531">
        <ele>24.5</ele>
        <time>2023-06-03T12:47:16Z</time>
      </trkpt>
      <trkpt lat="49.89844" lon="2.26531">
        <ele>24.5</ele>
        <time>2023-06-03T12:47:17Z</time>
      </trkpt>
      <trkpt lat="49.89844" lon="2.26532">
        <ele>24.5</ele>
        <time>2023-06-03T12:47:18Z</time>
      </trkpt>
      <trkpt lat="49.89845" lon="2.26532">
        <ele>24.5</ele>
        <time>2023-06-03T12:47:19Z</time>
      </trkpt>
      <trkpt lat="49.89846" lon="2.26533">
        <ele>24.5</ele>
        <time>2023-06-03T12:47:20Z</time>
      </trkpt>
      <trkpt lat="49.89848" lon="2.26535">
        <ele>24.5</ele>
        <time>2023-06-03T12:47:21Z</time>
      </trkpt>
      <trkpt lat="49.8985" lon="2.26538">
        <ele>24.5</ele>
        <time>2023-06-03T12:47:22Z</time>
      </trkpt>
      <trkpt lat="49.89851" lon="2.26539">
        <ele>24.5</ele>
        <time>2023-06-03T12:47:24Z</time>
      </trkpt>
      <trkpt lat="49.89852" lon="2.26541">
        <ele>24.5</ele>
        <time>2023-06-03T12:47:25Z</time>
      </trkpt>
      <trkpt lat="49.89854" lon="2.26542">
        <ele>24.5</ele>
        <time>2023-06-03T12:47:26Z</time>
      </trkpt>
      <trkpt lat="49.89856" lon="2.26545">
        <ele>24.5</ele>
        <time>2023-06-03T12:47:28Z</time>
      </trkpt>
      <trkpt lat="49.89857" lon="2.26547">
        <ele>24.6</ele>
        <time>2023-06-03T12:47:29Z</time>
      </trkpt>
      <trkpt lat="49.89858" lon="2.26549">
        <ele>24.6</ele>
        <time>2023-06-03T12:47:30Z</time>
      </trkpt>
      <trkpt lat="49.89859" lon="2.2655">
        <ele>24.6</ele>
        <time>2023-06-03T12:47:31Z</time>
      </trkpt>
      <trkpt lat="49.8986" lon="2.26552">
        <ele>24.6</ele>
        <time>2023-06-03T12:47:32Z</time>
      </trkpt>
      <trkpt lat="49.89861" lon="2.26554">
        <ele>24.6</ele>
        <time>2023-06-03T12:47:33Z</time>
      </trkpt>
      <trkpt lat="49.89862" lon="2.26556">
        <ele>24.6</ele>
        <time>2023-06-03T12:47:35Z</time>
      </trkpt>
      <trkpt lat="49.89864" lon="2.26557">
        <ele>24.6</ele>
        <time>2023-06-03T12:47:36Z</time>
      </trkpt>
      <trkpt lat="49.89865" lon="2.26559">
        <ele>24.6</ele>
        <time>2023-06-03T12:47:37Z</time>
      </trkpt>
      <trkpt lat="49.89867" lon="2.2656">
        <ele>24.6</ele>
        <time>2023-06-03T12:47:38Z</time>
      </trkpt>
      <trkpt lat="49.89868" lon="2.26561">
        <ele>24.7</ele>
        <time>2023-06-03T12:47:39Z</time>
      </trkpt>
      <trkpt lat="49.89869" lon="2.26562">
        <ele>24.7</ele>
        <time>2023-06-03T12:47:40Z</time>
      </trkpt>
      <trkpt lat="49.8987" lon="2.26562">
        <ele>24.7</ele>
        <time>2023-06-03T12:47:41Z</time>
      </trkpt>
      <trkpt lat="49.8987" lon="2.26563">
        <ele>24.8</ele>
        <time>2023-06-03T12:47:43Z</time>
      </trkpt>
      <trkpt lat="49.89872" lon="2.26564">
        <ele>24.8</ele>
        <time>2023-06-03T12:47:44Z</time>
      </trkpt>
      <trkpt lat="49.89873" lon="2.26564">
        <ele>24.8</ele>
        <time>2023-06-03T12:47:45Z</time>
      </trkpt>
      <trkpt lat="49.89873" lon="2.26565">
        <ele>24.9</ele>
        <time>2023-06-03T12:47:46Z</time>
      </trkpt>
      <trkpt lat="49.89875" lon="2.26565">
        <ele>24.9</ele>
        <time>2023-06-03T12:47:47Z</time>
      </trkpt>
      <trkpt lat="49.89876" lon="2.26565">
        <ele>24.9</ele>
        <time>2023-06-03T12:47:48Z</time>
      </trkpt>
      <trkpt lat="49.89878" lon="2.26563">
        <ele>25</ele>
        <time>2023-06-03T12:47:50Z</time>
      </trkpt>
      <trkpt lat="49.89878" lon="2.26563">
        <ele>25</ele>
        <time>2023-06-03T12:47:51Z</time>
      </trkpt>
      <trkpt lat="49.89879" lon="2.26562">
        <ele>25.1</ele>
        <time>2023-06-03T12:47:52Z</time>
      </trkpt>
      <trkpt lat="49.8988" lon="2.26561">
        <ele>25.1</ele>
        <time>2023-06-03T12:47:53Z</time>
      </trkpt>
      <trkpt lat="49.89881" lon="2.2656">
        <ele>25.1</ele>
        <time>2023-06-03T12:47:54Z</time>
      </trkpt>
      <trkpt lat="49.89881" lon="2.26558">
        <ele>25.2</ele>
        <time>2023-06-03T12:47:55Z</time>
      </trkpt>
      <trkpt lat="49.89882" lon="2.26557">
        <ele>25.2</ele>
        <time>2023-06-03T12:47:56Z</time>
      </trkpt>
      <trkpt lat="49.89883" lon="2.26556">
        <ele>25.2</ele>
        <time>2023-06-03T12:47:57Z</time>
      </trkpt>
      <trkpt lat="49.89883" lon="2.26554">
        <ele>25.3</ele>
        <time>2023-06-03T12:47:59Z</time>
      </trkpt>
      <trkpt lat="49.89883" lon="2.26551">
        <ele>25.4</ele>
        <time>2023-06-03T12:48:00Z</time>
      </trkpt>
      <trkpt lat="49.89883" lon="2.26549">
        <ele>25.4</ele>
        <time>2023-06-03T12:48:01Z</time>
      </trkpt>
      <trkpt lat="49.89882" lon="2.26548">
        <ele>25.4</ele>
        <time>2023-06-03T12:48:02Z</time>
      </trkpt>
      <trkpt lat="49.89883" lon="2.26546">
        <ele>25.5</ele>
        <time>2023-06-03T12:48:04Z</time>
      </trkpt>
      <trkpt lat="49.89884" lon="2.26544">
        <ele>25.5</ele>
        <time>2023-06-03T12:48:05Z</time>
      </trkpt>
      <trkpt lat="49.89886" lon="2.26543">
        <ele>25.6</ele>
        <time>2023-06-03T12:48:06Z</time>
      </trkpt>
      <trkpt lat="49.89886" lon="2.26543">
        <ele>25.6</ele>
        <time>2023-06-03T12:48:07Z</time>
      </trkpt>
      <trkpt lat="49.89887" lon="2.26542">
        <ele>25.7</ele>
        <time>2023-06-03T12:48:08Z</time>
      </trkpt>
      <trkpt lat="49.89889" lon="2.2654">
        <ele>25.8</ele>
        <time>2023-06-03T12:48:09Z</time>
      </trkpt>
      <trkpt lat="49.8989" lon="2.26539">
        <ele>25.8</ele>
        <time>2023-06-03T12:48:10Z</time>
      </trkpt>
      <trkpt lat="49.89891" lon="2.26538">
        <ele>25.9</ele>
        <time>2023-06-03T12:48:11Z</time>
      </trkpt>
      <trkpt lat="49.89892" lon="2.26537">
        <ele>25.9</ele>
        <time>2023-06-03T12:48:13Z</time>
      </trkpt>
      <trkpt lat="49.89894" lon="2.26536">
        <ele>26</ele>
        <time>2023-06-03T12:48:14Z</time>
      </trkpt>
      <trkpt lat="49.89895" lon="2.26536">
        <ele>26.1</ele>
        <time>2023-06-03T12:48:15Z</time>
      </trkpt>
      <trkpt lat="49.89898" lon="2.26534">
        <ele>26.2</ele>
        <time>2023-06-03T12:48:16Z</time>
      </trkpt>
      <trkpt lat="49.89898" lon="2.26534">
        <ele>26.2</ele>
        <time>2023-06-03T12:48:17Z</time>
      </trkpt>
      <trkpt lat="49.89899" lon="2.26533">
        <ele>26.2</ele>
        <time>2023-06-03T12:48:18Z</time>
      </trkpt>
      <trkpt lat="49.89901" lon="2.26531">
        <ele>26.3</ele>
        <time>2023-06-03T12:48:19Z</time>
      </trkpt>
      <trkpt lat="49.89902" lon="2.2653">
        <ele>26.3</ele>
        <time>2023-06-03T12:48:20Z</time>
      </trkpt>
      <trkpt lat="49.89902" lon="2.2653">
        <ele>26.4</ele>
        <time>2023-06-03T12:48:21Z</time>
      </trkpt>
      <trkpt lat="49.89903" lon="2.26529">
        <ele>26.4</ele>
        <time>2023-06-03T12:48:22Z</time>
      </trkpt>
      <trkpt lat="49.89904" lon="2.26528">
        <ele>26.5</ele>
        <time>2023-06-03T12:48:24Z</time>
      </trkpt>
      <trkpt lat="49.89905" lon="2.26527">
        <ele>26.5</ele>
        <time>2023-06-03T12:48:25Z</time>
      </trkpt>
      <trkpt lat="49.89906" lon="2.26526">
        <ele>26.6</ele>
        <time>2023-06-03T12:48:26Z</time>
      </trkpt>
      <trkpt lat="49.89907" lon="2.26525">
        <ele>26.6</ele>
        <time>2023-06-03T12:48:27Z</time>
      </trkpt>
      <trkpt lat="49.89907" lon="2.26524">
        <ele>26.6</ele>
        <time>2023-06-03T12:48:28Z</time>
      </trkpt>
      <trkpt lat="49.89909" lon="2.26523">
        <ele>26.7</ele>
        <time>2023-06-03T12:48:29Z</time>
      </trkpt>
      <trkpt lat="49.8991" lon="2.26521">
        <ele>26.8</ele>
        <time>2023-06-03T12:48:30Z</time>
      </trkpt>
      <trkpt lat="49.8991" lon="2.2652">
        <ele>26.8</ele>
        <time>2023-06-03T12:48:32Z</time>
      </trkpt>
      <trkpt lat="49.89911" lon="2.2652">
        <ele>26.8</ele>
        <time>2023-06-03T12:48:33Z</time>
      </trkpt>
      <trkpt lat="49.89912" lon="2.26519">
        <ele>26.9</ele>
        <time>2023-06-03T12:48:34Z</time>
      </trkpt>
      <trkpt lat="49.89912" lon="2.26518">
        <ele>26.9</ele>
        <time>2023-06-03T12:48:35Z</time>
      </trkpt>
      <trkpt lat="49.89913" lon="2.26517">
        <ele>27</ele>
        <time>2023-06-03T12:48:36Z</time>
      </trkpt>
      <trkpt lat="49.89914" lon="2.26516">
        <ele>27</ele>
        <time>2023-06-03T12:48:37Z</time>
      </trkpt>
      <trkpt lat="49.89915" lon="2.26515">
        <ele>27.1</ele>
        <time>2023-06-03T12:48:38Z</time>
      </trkpt>
      <trkpt lat="49.89917" lon="2.26514">
        <ele>27.1</ele>
        <time>2023-06-03T12:48:39Z</time>
      </trkpt>
      <trkpt lat="49.89917" lon="2.26513">
        <ele>27.2</ele>
        <time>2023-06-03T12:48:41Z</time>
      </trkpt>
      <trkpt lat="49.89918" lon="2.26512">
        <ele>27.2</ele>
        <time>2023-06-03T12:48:42Z</time>
      </trkpt>
      <trkpt lat="49.89919" lon="2.26511">
        <ele>27.3</ele>
        <time>2023-06-03T12:48:43Z</time>
      </trkpt>
      <trkpt lat="49.8992" lon="2.2651">
        <ele>27.3</ele>
        <time>2023-06-03T12:48:44Z</time>
      </trkpt>
      <trkpt lat="49.89921" lon="2.26509">
        <ele>27.3</ele>
        <time>2023-06-03T12:48:45Z</time>
      </trkpt>
      <trkpt lat="49.89921" lon="2.26508">
        <ele>27.4</ele>
        <time>2023-06-03T12:48:46Z</time>
      </trkpt>
      <trkpt lat="49.89922" lon="2.26507">
        <ele>27.4</ele>
        <time>2023-06-03T12:48:47Z</time>
      </trkpt>
      <trkpt lat="49.89923" lon="2.26506">
        <ele>27.5</ele>
        <time>2023-06-03T12:48:48Z</time>
      </trkpt>
      <trkpt lat="49.89924" lon="2.26505">
        <ele>27.5</ele>
        <time>2023-06-03T12:48:50Z</time>
      </trkpt>
      <trkpt lat="49.89925" lon="2.26504">
        <ele>27.6</ele>
        <time>2023-06-03T12:48:51Z</time>
      </trkpt>
      <trkpt lat="49.89925" lon="2.26503">
        <ele>27.6</ele>
        <time>2023-06-03T12:48:52Z</time>
      </trkpt>
      <trkpt lat="49.89926" lon="2.26502">
        <ele>27.7</ele>
        <time>2023-06-03T12:48:53Z</time>
      </trkpt>
      <trkpt lat="49.89927" lon="2.265">
        <ele>27.8</ele>
        <time>2023-06-03T12:48:54Z</time>
      </trkpt>
      <trkpt lat="49.89928" lon="2.26499">
        <ele>27.8</ele>
        <time>2023-06-03T12:48:55Z</time>
      </trkpt>
      <trkpt lat="49.89929" lon="2.26498">
        <ele>27.9</ele>
        <time>2023-06-03T12:48:56Z</time>
      </trkpt>
      <trkpt lat="49.89931" lon="2.26496">
        <ele>28</ele>
        <time>2023-06-03T12:48:58Z</time>
      </trkpt>
      <trkpt lat="49.89931" lon="2.26495">
        <ele>28</ele>
        <time>2023-06-03T12:48:59Z</time>
      </trkpt>
      <trkpt lat="49.89932" lon="2.26494">
        <ele>28</ele>
        <time>2023-06-03T12:49:00Z</time>
      </trkpt>
      <trkpt lat="49.89933" lon="2.26493">
        <ele>28.1</ele>
        <time>2023-06-03T12:49:01Z</time>
      </trkpt>
      <trkpt lat="49.89933" lon="2.26492">
        <ele>28.1</ele>
        <time>2023-06-03T12:49:02Z</time>
      </trkpt>
      <trkpt lat="49.89934" lon="2.2649">
        <ele>28.2</ele>
        <time>2023-06-03T12:49:03Z</time>
      </trkpt>
      <trkpt lat="49.89936" lon="2.26488">
        <ele>28.3</ele>
        <time>2023-06-03T12:49:04Z</time>
      </trkpt>
      <trkpt lat="49.89936" lon="2.26487">
        <ele>28.3</ele>
        <time>2023-06-03T12:49:05Z</time>
      </trkpt>
      <trkpt lat="49.89937" lon="2.26486">
        <ele>28.4</ele>
        <time>2023-06-03T12:49:07Z</time>
      </trkpt>
      <trkpt lat="49.89938" lon="2.26485">
        <ele>28.5</ele>
        <time>2023-06-03T12:49:08Z</time>
      </trkpt>
      <trkpt lat="49.89939" lon="2.26483">
        <ele>28.5</ele>
        <time>2023-06-03T12:49:09Z</time>
      </trkpt>
      <trkpt lat="49.8994" lon="2.26482">
        <ele>28.6</ele>
        <time>2023-06-03T12:49:10Z</time>
      </trkpt>
      <trkpt lat="49.8994" lon="2.26481">
        <ele>28.6</ele>
        <time>2023-06-03T12:49:11Z</time>
      </trkpt>
      <trkpt lat="49.89941" lon="2.2648">
        <ele>28.7</ele>
        <time>2023-06-03T12:49:12Z</time>
      </trkpt>
      <trkpt lat="49.89942" lon="2.26479">
        <ele>28.7</ele>
        <time>2023-06-03T12:49:14Z</time>
      </trkpt>
      <trkpt lat="49.89942" lon="2.26478">
        <ele>28.8</ele>
        <time>2023-06-03T12:49:15Z</time>
      </trkpt>
      <trkpt lat="49.89943" lon="2.26477">
        <ele>28.8</ele>
        <time>2023-06-03T12:49:16Z</time>
      </trkpt>
      <trkpt lat="49.89944" lon="2.26476">
        <ele>28.9</ele>
        <time>2023-06-03T12:49:17Z</time>
      </trkpt>
      <trkpt lat="49.89944" lon="2.26475">
        <ele>29</ele>
        <time>2023-06-03T12:49:18Z</time>
      </trkpt>
      <trkpt lat="49.89945" lon="2.26474">
        <ele>29</ele>
        <time>2023-06-03T12:49:19Z</time>
      </trkpt>
      <trkpt lat="49.89946" lon="2.26473">
        <ele>29</ele>
        <time>2023-06-03T12:49:20Z</time>
      </trkpt>
      <trkpt lat="49.89946" lon="2.26472">
        <ele>29.1</ele>
        <time>2023-06-03T12:49:22Z</time>
      </trkpt>
      <trkpt lat="49.89947" lon="2.26471">
        <ele>29.1</ele>
        <time>2023-06-03T12:49:23Z</time>
      </trkpt>
      <trkpt lat="49.89948" lon="2.26471">
        <ele>29.2</ele>
        <time>2023-06-03T12:49:24Z</time>
      </trkpt>
      <trkpt lat="49.89949" lon="2.26469">
        <ele>29.2</ele>
        <time>2023-06-03T12:49:25Z</time>
      </trkpt>
      <trkpt lat="49.8995" lon="2.26469">
        <ele>29.3</ele>
        <time>2023-06-03T12:49:26Z</time>
      </trkpt>
      <trkpt lat="49.89951" lon="2.26468">
        <ele>29.3</ele>
        <time>2023-06-03T12:49:27Z</time>
      </trkpt>
      <trkpt lat="49.89953" lon="2.26466">
        <ele>29.4</ele>
        <time>2023-06-03T12:49:28Z</time>
      </trkpt>
      <trkpt lat="49.89953" lon="2.26465">
        <ele>29.4</ele>
        <time>2023-06-03T12:49:30Z</time>
      </trkpt>
      <trkpt lat="49.89954" lon="2.26465">
        <ele>29.5</ele>
        <time>2023-06-03T12:49:31Z</time>
      </trkpt>
      <trkpt lat="49.89955" lon="2.26464">
        <ele>29.5</ele>
        <time>2023-06-03T12:49:32Z</time>
      </trkpt>
      <trkpt lat="49.89956" lon="2.26463">
        <ele>29.6</ele>
        <time>2023-06-03T12:49:33Z</time>
      </trkpt>
      <trkpt lat="49.89957" lon="2.26461">
        <ele>29.6</ele>
        <time>2023-06-03T12:49:34Z</time>
      </trkpt>
      <trkpt lat="49.89957" lon="2.2646">
        <ele>29.6</ele>
        <time>2023-06-03T12:49:35Z</time>
      </trkpt>
      <trkpt lat="49.89957" lon="2.26458">
        <ele>29.7</ele>
        <time>2023-06-03T12:49:37Z</time>
      </trkpt>
      <trkpt lat="49.89957" lon="2.26457">
        <ele>29.8</ele>
        <time>2023-06-03T12:49:38Z</time>
      </trkpt>
      <trkpt lat="49.89957" lon="2.26456">
        <ele>29.8</ele>
        <time>2023-06-03T12:49:39Z</time>
      </trkpt>
      <trkpt lat="49.89956" lon="2.26455">
        <ele>29.8</ele>
        <time>2023-06-03T12:49:41Z</time>
      </trkpt>
      <trkpt lat="49.89956" lon="2.26454">
        <ele>29.9</ele>
        <time>2023-06-03T12:49:42Z</time>
      </trkpt>
      <trkpt lat="49.89955" lon="2.26454">
        <ele>29.9</ele>
        <time>2023-06-03T12:49:43Z</time>
      </trkpt>
      <trkpt lat="49.89955" lon="2.26454">
        <ele>29.9</ele>
        <time>2023-06-03T12:49:45Z</time>
      </trkpt>
      <trkpt lat="49.89955" lon="2.26454">
        <ele>29.9</ele>
        <time>2023-06-03T12:49:46Z</time>
      </trkpt>
      <trkpt lat="49.89955" lon="2.26454">
        <ele>29.9</ele>
        <time>2023-06-03T12:49:48Z</time>
      </trkpt>
      <trkpt lat="49.89955" lon="2.26454">
        <ele>29.9</ele>
        <time>2023-06-03T12:49:49Z</time>
      </trkpt>
      <trkpt lat="49.89955" lon="2.26454">
        <ele>29.9</ele>
        <time>2023-06-03T12:49:50Z</time>
      </trkpt>
      <trkpt lat="49.89955" lon="2.26454">
        <ele>29.9</ele>
        <time>2023-06-03T12:49:52Z</time>
      </trkpt>
      <trkpt lat="49.89954" lon="2.26454">
        <ele>29.9</ele>
        <time>2023-06-03T12:49:53Z</time>
      </trkpt>
      <trkpt lat="49.89954" lon="2.26454">
        <ele>29.9</ele>
        <time>2023-06-03T12:49:54Z</time>
      </trkpt>
      <trkpt lat="49.89954" lon="2.26454">
        <ele>29.9</ele>
        <time>2023-06-03T12:49:56Z</time>
      </trkpt>
      <trkpt lat="49.89955" lon="2.26455">
        <ele>30</ele>
        <time>2023-06-03T12:49:57Z</time>
      </trkpt>
      <trkpt lat="49.89955" lon="2.26455">
        <ele>30</ele>
        <time>2023-06-03T12:49:58Z</time>
      </trkpt>
      <trkpt lat="49.89955" lon="2.26455">
        <ele>30</ele>
        <time>2023-06-03T12:49:59Z</time>
      </trkpt>
      <trkpt lat="49.89955" lon="2.26455">
        <ele>30</ele>
        <time>2023-06-03T12:50:00Z</time>
      </trkpt>
      <trkpt lat="49.89955" lon="2.26455">
        <ele>30</ele>
        <time>2023-06-03T12:50:01Z</time>
      </trkpt>
      <trkpt lat="49.89955" lon="2.26455">
        <ele>30</ele>
        <time>2023-06-03T12:50:02Z</time>
      </trkpt>
      <trkpt lat="49.89955" lon="2.26455">
        <ele>30</ele>
        <time>2023-06-03T12:50:03Z</time>
      </trkpt>
      <trkpt lat="49.89955" lon="2.26455">
        <ele>30</ele>
        <time>2023-06-03T12:50:04Z</time>
      </trkpt>
      <trkpt lat="49.89955" lon="2.26455">
        <ele>30</ele>
        <time>2023-06-03T12:50:05Z</time>
      </trkpt>
      <trkpt lat="49.89955" lon="2.26455">
        <ele>30</ele>
        <time>2023-06-03T12:50:06Z</time>
      </trkpt>
      <trkpt lat="49.89955" lon="2.26455">
        <ele>30</ele>
        <time>2023-06-03T12:50:07Z</time>
      </trkpt>
      <trkpt lat="49.89955" lon="2.26455">
        <ele>30</ele>
        <time>2023-06-03T12:50:08Z</time>
      </trkpt>
      <trkpt lat="49.89955" lon="2.26455">
        <ele>30</ele>
        <time>2023-06-03T12:50:09Z</time>
      </trkpt>
      <trkpt lat="49.89955" lon="2.26455">
        <ele>30</ele>
        <time>2023-06-03T12:50:10Z</time>
      </trkpt>
      <trkpt lat="49.89955" lon="2.26455">
        <ele>30</ele>
        <time>2023-06-03T12:50:11Z</time>
      </trkpt>
      <trkpt lat="49.89955" lon="2.26455">
        <ele>30</ele>
        <time>2023-06-03T12:50:12Z</time>
      </trkpt>
      <trkpt lat="49.89955" lon="2.26455">
        <ele>30</ele>
        <time>2023-06-03T12:50:13Z</time>
      </trkpt>
      <trkpt lat="49.89955" lon="2.26455">
        <ele>30</ele>
        <time>2023-06-03T12:50:14Z</time>
      </trkpt>
      <trkpt lat="49.89956" lon="2.26457">
        <ele>30</ele>
        <time>2023-06-03T12:50:15Z</time>
      </trkpt>
      <trkpt lat="49.89956" lon="2.26457">
        <ele>30.1</ele>
        <time>2023-06-03T12:50:16Z</time>
      </trkpt>
      <trkpt lat="49.89956" lon="2.26457">
        <ele>30.1</ele>
        <time>2023-06-03T12:50:17Z</time>
      </trkpt>
      <trkpt lat="49.89957" lon="2.26457">
        <ele>30.1</ele>
        <time>2023-06-03T12:50:18Z</time>
      </trkpt>
      <trkpt lat="49.89957" lon="2.26457">
        <ele>30.1</ele>
        <time>2023-06-03T12:50:19Z</time>
      </trkpt>
      <trkpt lat="49.89957" lon="2.26457">
        <ele>30.1</ele>
        <time>2023-06-03T12:50:20Z</time>
      </trkpt>
      <trkpt lat="49.89957" lon="2.26457">
        <ele>30.1</ele>
        <time>2023-06-03T12:50:21Z</time>
      </trkpt>
      <trkpt lat="49.89957" lon="2.26457">
        <ele>30.1</ele>
        <time>2023-06-03T12:50:22Z</time>
      </trkpt>
      <trkpt lat="49.89957" lon="2.26457">
        <ele>30.1</ele>
        <time>2023-06-03T12:50:23Z</time>
      </trkpt>
      <trkpt lat="49.89957" lon="2.26457">
        <ele>30.1</ele>
        <time>2023-06-03T12:50:24Z</time>
      </trkpt>
      <trkpt lat="49.89957" lon="2.26457">
        <ele>30.1</ele>
        <time>2023-06-03T12:50:25Z</time>
      </trkpt>
      <trkpt lat="49.89957" lon="2.26457">
        <ele>30.1</ele>
        <time>2023-06-03T12:50:26Z</time>
      </trkpt>
      <trkpt lat="49.89957" lon="2.26457">
        <ele>30.1</ele>
        <time>2023-06-03T12:50:27Z</time>
      </trkpt>
      <trkpt lat="49.89957" lon="2.26457">
        <ele>30.1</ele>
        <time>2023-06-03T12:50:28Z</time>
      </trkpt>
      <trkpt lat="49.89957" lon="2.26457">
        <ele>30.1</ele>
        <time>2023-06-03T12:50:29Z</time>
      </trkpt>
      <trkpt lat="49.89957" lon="2.26457">
        <ele>30.1</ele>
        <time>2023-06-03T12:50:30Z</time>
      </trkpt>
      <trkpt lat="49.89957" lon="2.26457">
        <ele>30.1</ele>
        <time>2023-06-03T12:50:31Z</time>
      </trkpt>
      <trkpt lat="49.89957" lon="2.26457">
        <ele>30.1</ele>
        <time>2023-06-03T12:50:32Z</time>
      </trkpt>
      <trkpt lat="49.89957" lon="2.26457">
        <ele>30.1</ele>
        <time>2023-06-03T12:50:33Z</time>
      </trkpt>
      <trkpt lat="49.89957" lon="2.26457">
        <ele>30.1</ele>
        <time>2023-06-03T12:50:34Z</time>
      </trkpt>
      <trkpt lat="49.89957" lon="2.26457">
        <ele>30.1</ele>
        <time>2023-06-03T12:50:35Z</time>
      </trkpt>
      <trkpt lat="49.89957" lon="2.26457">
        <ele>30.1</ele>
        <time>2023-06-03T12:50:36Z</time>
      </trkpt>
      <trkpt lat="49.89957" lon="2.26457">
        <ele>30.1</ele>
        <time>2023-06-03T12:50:37Z</time>
      </trkpt>
      <trkpt lat="49.89957" lon="2.26457">
        <ele>30.1</ele>
        <time>2023-06-03T12:50:38Z</time>
      </trkpt>
      <trkpt lat="49.89957" lon="2.26457">
        <ele>30.1</ele>
        <time>2023-06-03T12:50:39Z</time>
      </trkpt>
      <trkpt lat="49.89957" lon="2.26457">
        <ele>30.1</ele>
        <time>2023-06-03T12:50:40Z</time>
      </trkpt>
      <trkpt lat="49.89957" lon="2.26457">
        <ele>30.1</ele>
        <time>2023-06-03T12:50:41Z</time>
      </trkpt>
      <trkpt lat="49.89957" lon="2.26457">
        <ele>30.1</ele>
        <time>2023-06-03T12:50:42Z</time>
      </trkpt>
      <trkpt lat="49.89957" lon="2.26457">
        <ele>30.1</ele>
        <time>2023-06-03T12:50:43Z</time>
      </trkpt>
      <trkpt lat="49.89957" lon="2.26457">
        <ele>30.1</ele>
        <time>2023-06-03T12:50:44Z</time>
      </trkpt>
      <trkpt lat="49.89957" lon="2.26457">
        <ele>30.1</ele>
        <time>2023-06-03T12:50:45Z</time>
      </trkpt>
      <trkpt lat="49.89957" lon="2.26457">
        <ele>30.1</ele>
        <time>2023-06-03T12:50:46Z</time>
      </trkpt>
      <trkpt lat="49.89957" lon="2.26457">
        <ele>30.1</ele>
        <time>2023-06-03T12:50:47Z</time>
      </trkpt>
      <trkpt lat="49.89957" lon="2.26457">
        <ele>30.1</ele>
        <time>2023-06-03T12:50:48Z</time>
      </trkpt>
      <trkpt lat="49.89957" lon="2.26457">
        <ele>30.1</ele>
        <time>2023-06-03T12:50:49Z</time>
      </trkpt>
      <trkpt lat="49.89957" lon="2.26457">
        <ele>30.1</ele>
        <time>2023-06-03T12:50:50Z</time>
      </trkpt>
      <trkpt lat="49.89957" lon="2.26457">
        <ele>30.1</ele>
        <time>2023-06-03T12:50:51Z</time>
      </trkpt>
      <trkpt lat="49.89957" lon="2.26457">
        <ele>30.1</ele>
        <time>2023-06-03T12:50:52Z</time>
      </trkpt>
      <trkpt lat="49.89957" lon="2.26457">
        <ele>30.1</ele>
        <time>2023-06-03T12:50:53Z</time>
      </trkpt>
      <trkpt lat="49.89957" lon="2.26457">
        <ele>30.1</ele>
        <time>2023-06-03T12:50:54Z</time>
      </trkpt>
      <trkpt lat="49.89957" lon="2.26457">
        <ele>30.1</ele>
        <time>2023-06-03T12:50:55Z</time>
      </trkpt>
      <trkpt lat="49.89957" lon="2.26457">
        <ele>30.1</ele>
        <time>2023-06-03T12:50:56Z</time>
      </trkpt>
      <trkpt lat="49.89957" lon="2.26457">
        <ele>30.1</ele>
        <time>2023-06-03T12:50:57Z</time>
      </trkpt>
      <trkpt lat="49.89957" lon="2.26457">
        <ele>30.1</ele>
        <time>2023-06-03T12:50:58Z</time>
      </trkpt>
      <trkpt lat="49.89957" lon="2.26457">
        <ele>30.1</ele>
        <time>2023-06-03T12:50:59Z</time>
      </trkpt>
      <trkpt lat="49.89957" lon="2.26457">
        <ele>30.1</ele>
        <time>2023-06-03T12:51:00Z</time>
      </trkpt>
      <trkpt lat="49.89958" lon="2.26457">
        <ele>30.1</ele>
        <time>2023-06-03T12:51:01Z</time>
      </trkpt>
      <trkpt lat="49.89959" lon="2.26457">
        <ele>30.2</ele>
        <time>2023-06-03T12:51:02Z</time>
      </trkpt>
      <trkpt lat="49.89959" lon="2.26457">
        <ele>30.2</ele>
        <time>2023-06-03T12:51:03Z</time>
      </trkpt>
      <trkpt lat="49.89959" lon="2.26457">
        <ele>30.2</ele>
        <time>2023-06-03T12:51:05Z</time>
      </trkpt>
      <trkpt lat="49.89959" lon="2.26456">
        <ele>30.2</ele>
        <time>2023-06-03T12:51:06Z</time>
      </trkpt>
      <trkpt lat="49.89959" lon="2.26455">
        <ele>30.3</ele>
        <time>2023-06-03T12:51:07Z</time>
      </trkpt>
      <trkpt lat="49.89959" lon="2.26453">
        <ele>30.3</ele>
        <time>2023-06-03T12:51:09Z</time>
      </trkpt>
      <trkpt lat="49.89959" lon="2.26451">
        <ele>30.4</ele>
        <time>2023-06-03T12:51:10Z</time>
      </trkpt>
      <trkpt lat="49.89958" lon="2.26448">
        <ele>30.4</ele>
        <time>2023-06-03T12:51:11Z</time>
      </trkpt>
      <trkpt lat="49.89957" lon="2.26445">
        <ele>30.5</ele>
        <time>2023-06-03T12:51:13Z</time>
      </trkpt>
      <trkpt lat="49.89957" lon="2.26444">
        <ele>30.6</ele>
        <time>2023-06-03T12:51:14Z</time>
      </trkpt>
      <trkpt lat="49.89957" lon="2.26441">
        <ele>30.6</ele>
        <time>2023-06-03T12:51:16Z</time>
      </trkpt>
      <trkpt lat="49.89957" lon="2.2644">
        <ele>30.7</ele>
        <time>2023-06-03T12:51:17Z</time>
      </trkpt>
      <trkpt lat="49.89957" lon="2.2644">
        <ele>30.7</ele>
        <time>2023-06-03T12:51:18Z</time>
      </trkpt>
      <trkpt lat="49.89957" lon="2.2644">
        <ele>30.7</ele>
        <time>2023-06-03T12:51:20Z</time>
      </trkpt>
      <trkpt lat="49.89957" lon="2.26441">
        <ele>30.7</ele>
        <time>2023-06-03T12:51:21Z</time>
      </trkpt>
      <trkpt lat="49.89957" lon="2.26441">
        <ele>30.7</ele>
        <time>2023-06-03T12:51:22Z</time>
      </trkpt>
      <trkpt lat="49.89957" lon="2.26441">
        <ele>30.7</ele>
        <time>2023-06-03T12:51:24Z</time>
      </trkpt>
      <trkpt lat="49.89957" lon="2.26441">
        <ele>30.7</ele>
        <time>2023-06-03T12:51:25Z</time>
      </trkpt>
      <trkpt lat="49.89958" lon="2.26441">
        <ele>30.7</ele>
        <time>2023-06-03T12:51:26Z</time>
      </trkpt>
      <trkpt lat="49.89958" lon="2.26441">
        <ele>30.7</ele>
        <time>2023-06-03T12:51:29Z</time>
      </trkpt>
      <trkpt lat="49.89958" lon="2.26442">
        <ele>30.7</ele>
        <time>2023-06-03T12:51:31Z</time>
      </trkpt>
      <trkpt lat="49.89958" lon="2.26442">
        <ele>30.7</ele>
        <time>2023-06-03T12:51:32Z</time>
      </trkpt>
      <trkpt lat="49.89958" lon="2.26442">
        <ele>30.7</ele>
        <time>2023-06-03T12:51:33Z</time>
      </trkpt>
      <trkpt lat="49.89958" lon="2.26442">
        <ele>30.7</ele>
        <time>2023-06-03T12:51:34Z</time>
      </trkpt>
      <trkpt lat="49.89958" lon="2.26442">
        <ele>30.7</ele>
        <time>2023-06-03T12:51:35Z</time>
      </trkpt>
      <trkpt lat="49.89958" lon="2.26442">
        <ele>30.7</ele>
        <time>2023-06-03T12:51:36Z</time>
      </trkpt>
      <trkpt lat="49.89958" lon="2.26442">
        <ele>30.7</ele>
        <time>2023-06-03T12:51:37Z</time>
      </trkpt>
      <trkpt lat="49.89958" lon="2.26442">
        <ele>30.7</ele>
        <time>2023-06-03T12:51:38Z</time>
      </trkpt>
      <trkpt lat="49.89958" lon="2.26442">
        <ele>30.7</ele>
        <time>2023-06-03T12:51:39Z</time>
      </trkpt>
      <trkpt lat="49.89958" lon="2.26442">
        <ele>30.7</ele>
        <time>2023-06-03T12:51:40Z</time>
      </trkpt>
      <trkpt lat="49.89958" lon="2.26442">
        <ele>30.7</ele>
        <time>2023-06-03T12:51:41Z</time>
      </trkpt>
      <trkpt lat="49.89958" lon="2.26442">
        <ele>30.7</ele>
        <time>2023-06-03T12:51:42Z</time>
      </trkpt>
      <trkpt lat="49.89958" lon="2.26442">
        <ele>30.7</ele>
        <time>2023-06-03T12:51:43Z</time>
      </trkpt>
      <trkpt lat="49.89958" lon="2.26442">
        <ele>30.7</ele>
        <time>2023-06-03T12:51:44Z</time>
      </trkpt>
      <trkpt lat="49.89958" lon="2.26442">
        <ele>30.7</ele>
        <time>2023-06-03T12:51:45Z</time>
      </trkpt>
      <trkpt lat="49.89958" lon="2.26442">
        <ele>30.7</ele>
        <time>2023-06-03T12:51:46Z</time>
      </trkpt>
      <trkpt lat="49.89958" lon="2.26442">
        <ele>30.7</ele>
        <time>2023-06-03T12:51:47Z</time>
      </trkpt>
      <trkpt lat="49.89958" lon="2.26442">
        <ele>30.7</ele>
        <time>2023-06-03T12:51:48Z</time>
      </trkpt>
      <trkpt lat="49.89958" lon="2.26442">
        <ele>30.7</ele>
        <time>2023-06-03T12:51:49Z</time>
      </trkpt>
      <trkpt lat="49.89958" lon="2.26442">
        <ele>30.7</ele>
        <time>2023-06-03T12:51:50Z</time>
      </trkpt>
      <trkpt lat="49.89958" lon="2.26442">
        <ele>30.7</ele>
        <time>2023-06-03T12:51:51Z</time>
      </trkpt>
      <trkpt lat="49.89958" lon="2.26442">
        <ele>30.7</ele>
        <time>2023-06-03T12:51:52Z</time>
      </trkpt>
      <trkpt lat="49.89958" lon="2.26442">
        <ele>30.7</ele>
        <time>2023-06-03T12:51:53Z</time>
      </trkpt>
      <trkpt lat="49.89958" lon="2.26442">
        <ele>30.7</ele>
        <time>2023-06-03T12:51:54Z</time>
      </trkpt>
      <trkpt lat="49.89958" lon="2.26442">
        <ele>30.7</ele>
        <time>2023-06-03T12:51:55Z</time>
      </trkpt>
      <trkpt lat="49.89958" lon="2.26442">
        <ele>30.7</ele>
        <time>2023-06-03T12:51:56Z</time>
      </trkpt>
      <trkpt lat="49.89958" lon="2.26442">
        <ele>30.7</ele>
        <time>2023-06-03T12:51:57Z</time>
      </trkpt>
      <trkpt lat="49.89958" lon="2.26442">
        <ele>30.7</ele>
        <time>2023-06-03T12:51:58Z</time>
      </trkpt>
      <trkpt lat="49.89958" lon="2.26442">
        <ele>30.7</ele>
        <time>2023-06-03T12:51:59Z</time>
      </trkpt>
      <trkpt lat="49.89958" lon="2.26442">
        <ele>30.7</ele>
        <time>2023-06-03T12:52:00Z</time>
      </trkpt>
      <trkpt lat="49.89958" lon="2.26442">
        <ele>30.7</ele>
        <time>2023-06-03T12:52:01Z</time>
      </trkpt>
      <trkpt lat="49.89958" lon="2.26442">
        <ele>30.7</ele>
        <time>2023-06-03T12:52:02Z</time>
      </trkpt>
      <trkpt lat="49.89958" lon="2.26442">
        <ele>30.7</ele>
        <time>2023-06-03T12:52:03Z</time>
      </trkpt>
      <trkpt lat="49.89958" lon="2.26442">
        <ele>30.7</ele>
        <time>2023-06-03T12:52:04Z</time>
      </trkpt>
      <trkpt lat="49.89958" lon="2.26442">
        <ele>30.7</ele>
        <time>2023-06-03T12:52:05Z</time>
      </trkpt>
      <trkpt lat="49.89958" lon="2.26442">
        <ele>30.7</ele>
        <time>2023-06-03T12:52:06Z</time>
      </trkpt>
      <trkpt lat="49.89958" lon="2.26442">
        <ele>30.7</ele>
        <time>2023-06-03T12:52:07Z</time>
      </trkpt>
      <trkpt lat="49.89958" lon="2.26442">
        <ele>30.7</ele>
        <time>2023-06-03T12:52:08Z</time>
      </trkpt>
      <trkpt lat="49.89958" lon="2.26442">
        <ele>30.7</ele>
        <time>2023-06-03T12:52:09Z</time>
      </trkpt>
      <trkpt lat="49.89958" lon="2.26442">
        <ele>30.7</ele>
        <time>2023-06-03T12:52:10Z</time>
      </trkpt>
      <trkpt lat="49.89958" lon="2.26442">
        <ele>30.7</ele>
        <time>2023-06-03T12:52:11Z</time>
      </trkpt>
      <trkpt lat="49.89958" lon="2.26442">
        <ele>30.7</ele>
        <time>2023-06-03T12:52:12Z</time>
      </trkpt>
      <trkpt lat="49.89958" lon="2.26442">
        <ele>30.7</ele>
        <time>2023-06-03T12:52:13Z</time>
      </trkpt>
      <trkpt lat="49.89958" lon="2.26442">
        <ele>30.7</ele>
        <time>2023-06-03T12:52:14Z</time>
      </trkpt>
      <trkpt lat="49.89958" lon="2.26442">
        <ele>30.7</ele>
        <time>2023-06-03T12:52:15Z</time>
      </trkpt>
      <trkpt lat="49.89958" lon="2.26442">
        <ele>30.7</ele>
        <time>2023-06-03T12:52:16Z</time>
      </trkpt>
      <trkpt lat="49.89958" lon="2.26442">
        <ele>30.7</ele>
        <time>2023-06-03T12:52:17Z</time>
      </trkpt>
      <trkpt lat="49.89958" lon="2.26442">
        <ele>30.7</ele>
        <time>2023-06-03T12:52:18Z</time>
      </trkpt>
      <trkpt lat="49.89958" lon="2.26442">
        <ele>30.7</ele>
        <time>2023-06-03T12:52:19Z</time>
      </trkpt>
      <trkpt lat="49.89958" lon="2.26442">
        <ele>30.7</ele>
        <time>2023-06-03T12:52:20Z</time>
      </trkpt>
      <trkpt lat="49.89958" lon="2.26442">
        <ele>30.7</ele>
        <time>2023-06-03T12:52:21Z</time>
      </trkpt>
      <trkpt lat="49.89958" lon="2.26442">
        <ele>30.7</ele>
        <time>2023-06-03T12:52:22Z</time>
      </trkpt>
      <trkpt lat="49.89958" lon="2.26442">
        <ele>30.7</ele>
        <time>2023-06-03T12:52:23Z</time>
      </trkpt>
      <trkpt lat="49.89958" lon="2.26442">
        <ele>30.7</ele>
        <time>2023-06-03T12:52:24Z</time>
      </trkpt>
      <trkpt lat="49.89958" lon="2.26442">
        <ele>30.7</ele>
        <time>2023-06-03T12:52:25Z</time>
      </trkpt>
      <trkpt lat="49.89958" lon="2.26442">
        <ele>30.7</ele>
        <time>2023-06-03T12:52:26Z</time>
      </trkpt>
      <trkpt lat="49.89958" lon="2.26442">
        <ele>30.7</ele>
        <time>2023-06-03T12:52:27Z</time>
      </trkpt>
      <trkpt lat="49.89958" lon="2.26442">
        <ele>30.7</ele>
        <time>2023-06-03T12:52:28Z</time>
      </trkpt>
      <trkpt lat="49.89958" lon="2.26442">
        <ele>30.7</ele>
        <time>2023-06-03T12:52:29Z</time>
      </trkpt>
      <trkpt lat="49.89958" lon="2.26442">
        <ele>30.7</ele>
        <time>2023-06-03T12:52:30Z</time>
      </trkpt>
      <trkpt lat="49.89958" lon="2.26442">
        <ele>30.7</ele>
        <time>2023-06-03T12:52:31Z</time>
      </trkpt>
      <trkpt lat="49.89958" lon="2.26442">
        <ele>30.7</ele>
        <time>2023-06-03T12:52:32Z</time>
      </trkpt>
      <trkpt lat="49.89958" lon="2.26442">
        <ele>30.7</ele>
        <time>2023-06-03T12:52:33Z</time>
      </trkpt>
      <trkpt lat="49.89958" lon="2.26442">
        <ele>30.7</ele>
        <time>2023-06-03T12:52:34Z</time>
      </trkpt>
      <trkpt lat="49.89958" lon="2.26442">
        <ele>30.7</ele>
        <time>2023-06-03T12:52:35Z</time>
      </trkpt>
      <trkpt lat="49.89958" lon="2.26442">
        <ele>30.7</ele>
        <time>2023-06-03T12:52:36Z</time>
      </trkpt>
      <trkpt lat="49.89958" lon="2.26442">
        <ele>30.7</ele>
        <time>2023-06-03T12:52:37Z</time>
      </trkpt>
      <trkpt lat="49.89958" lon="2.26442">
        <ele>30.7</ele>
        <time>2023-06-03T12:52:38Z</time>
      </trkpt>
      <trkpt lat="49.89958" lon="2.26442">
        <ele>30.7</ele>
        <time>2023-06-03T12:52:39Z</time>
      </trkpt>
      <trkpt lat="49.89958" lon="2.26442">
        <ele>30.7</ele>
        <time>2023-06-03T12:52:40Z</time>
      </trkpt>
      <trkpt lat="49.89958" lon="2.26442">
        <ele>30.7</ele>
        <time>2023-06-03T12:52:41Z</time>
      </trkpt>
      <trkpt lat="49.89958" lon="2.26442">
        <ele>30.7</ele>
        <time>2023-06-03T12:52:42Z</time>
      </trkpt>
      <trkpt lat="49.89958" lon="2.26442">
        <ele>30.7</ele>
        <time>2023-06-03T12:52:43Z</time>
      </trkpt>
      <trkpt lat="49.89958" lon="2.26442">
        <ele>30.7</ele>
        <time>2023-06-03T12:52:44Z</time>
      </trkpt>
      <trkpt lat="49.89958" lon="2.26442">
        <ele>30.7</ele>
        <time>2023-06-03T12:52:45Z</time>
      </trkpt>
      <trkpt lat="49.89958" lon="2.26442">
        <ele>30.7</ele>
        <time>2023-06-03T12:52:46Z</time>
      </trkpt>
      <trkpt lat="49.89958" lon="2.26442">
        <ele>30.7</ele>
        <time>2023-06-03T12:52:47Z</time>
      </trkpt>
      <trkpt lat="49.89958" lon="2.26442">
        <ele>30.7</ele>
        <time>2023-06-03T12:52:48Z</time>
      </trkpt>
      <trkpt lat="49.89958" lon="2.26442">
        <ele>30.7</ele>
        <time>2023-06-03T12:52:49Z</time>
      </trkpt>
      <trkpt lat="49.89958" lon="2.26442">
        <ele>30.7</ele>
        <time>2023-06-03T12:52:50Z</time>
      </trkpt>
      <trkpt lat="49.89958" lon="2.26443">
        <ele>30.8</ele>
        <time>2023-06-03T12:52:51Z</time>
      </trkpt>
      <trkpt lat="49.8996" lon="2.26444">
        <ele>30.8</ele>
        <time>2023-06-03T12:52:52Z</time>
      </trkpt>
      <trkpt lat="49.89961" lon="2.26444">
        <ele>30.9</ele>
        <time>2023-06-03T12:52:53Z</time>
      </trkpt>
      <trkpt lat="49.89962" lon="2.26443">
        <ele>30.9</ele>
        <time>2023-06-03T12:52:54Z</time>
      </trkpt>
      <trkpt lat="49.89962" lon="2.26443">
        <ele>30.9</ele>
        <time>2023-06-03T12:52:55Z</time>
      </trkpt>
      <trkpt lat="49.89963" lon="2.26442">
        <ele>31</ele>
        <time>2023-06-03T12:52:56Z</time>
      </trkpt>
      <trkpt lat="49.89963" lon="2.26441">
        <ele>31</ele>
        <time>2023-06-03T12:52:57Z</time>
      </trkpt>
      <trkpt lat="49.89964" lon="2.2644">
        <ele>31</ele>
        <time>2023-06-03T12:52:59Z</time>
      </trkpt>
      <trkpt lat="49.89965" lon="2.26439">
        <ele>31.1</ele>
        <time>2023-06-03T12:53:00Z</time>
      </trkpt>
      <trkpt lat="49.89965" lon="2.26439">
        <ele>31.1</ele>
        <time>2023-06-03T12:53:01Z</time>
      </trkpt>
      <trkpt lat="49.89966" lon="2.26437">
        <ele>31.2</ele>
        <time>2023-06-03T12:53:03Z</time>
      </trkpt>
      <trkpt lat="49.89967" lon="2.26435">
        <ele>31.2</ele>
        <time>2023-06-03T12:53:04Z</time>
      </trkpt>
      <trkpt lat="49.89968" lon="2.26433">
        <ele>31.3</ele>
        <time>2023-06-03T12:53:05Z</time>
      </trkpt>
      <trkpt lat="49.89968" lon="2.26432">
        <ele>31.3</ele>
        <time>2023-06-03T12:53:06Z</time>
      </trkpt>
      <trkpt lat="49.89968" lon="2.26431">
        <ele>31.4</ele>
        <time>2023-06-03T12:53:07Z</time>
      </trkpt>
      <trkpt lat="49.89969" lon="2.2643">
        <ele>31.4</ele>
        <time>2023-06-03T12:53:08Z</time>
      </trkpt>
      <trkpt lat="49.89969" lon="2.26429">
        <ele>31.4</ele>
        <time>2023-06-03T12:53:09Z</time>
      </trkpt>
      <trkpt lat="49.89969" lon="2.26427">
        <ele>31.4</ele>
        <time>2023-06-03T12:53:11Z</time>
      </trkpt>
      <trkpt lat="49.8997" lon="2.26426">
        <ele>31.5</ele>
        <time>2023-06-03T12:53:12Z</time>
      </trkpt>
      <trkpt lat="49.8997" lon="2.26424">
        <ele>31.5</ele>
        <time>2023-06-03T12:53:13Z</time>
      </trkpt>
      <trkpt lat="49.89971" lon="2.26423">
        <ele>31.6</ele>
        <time>2023-06-03T12:53:15Z</time>
      </trkpt>
      <trkpt lat="49.89972" lon="2.26421">
        <ele>31.6</ele>
        <time>2023-06-03T12:53:16Z</time>
      </trkpt>
      <trkpt lat="49.89972" lon="2.2642">
        <ele>31.7</ele>
        <time>2023-06-03T12:53:17Z</time>
      </trkpt>
      <trkpt lat="49.89972" lon="2.26419">
        <ele>31.7</ele>
        <time>2023-06-03T12:53:19Z</time>
      </trkpt>
      <trkpt lat="49.89973" lon="2.26418">
        <ele>31.7</ele>
        <time>2023-06-03T12:53:20Z</time>
      </trkpt>
      <trkpt lat="49.89974" lon="2.26416">
        <ele>31.8</ele>
        <time>2023-06-03T12:53:21Z</time>
      </trkpt>
      <trkpt lat="49.89974" lon="2.26415">
        <ele>31.8</ele>
        <time>2023-06-03T12:53:22Z</time>
      </trkpt>
      <trkpt lat="49.89974" lon="2.26413">
        <ele>31.8</ele>
        <time>2023-06-03T12:53:23Z</time>
      </trkpt>
      <trkpt lat="49.89975" lon="2.26412">
        <ele>31.9</ele>
        <time>2023-06-03T12:53:24Z</time>
      </trkpt>
      <trkpt lat="49.89975" lon="2.26411">
        <ele>31.9</ele>
        <time>2023-06-03T12:53:25Z</time>
      </trkpt>
      <trkpt lat="49.89976" lon="2.26409">
        <ele>31.9</ele>
        <time>2023-06-03T12:53:27Z</time>
      </trkpt>
      <trkpt lat="49.89976" lon="2.26408">
        <ele>32</ele>
        <time>2023-06-03T12:53:28Z</time>
      </trkpt>
      <trkpt lat="49.89977" lon="2.26407">
        <ele>32</ele>
        <time>2023-06-03T12:53:29Z</time>
      </trkpt>
      <trkpt lat="49.89978" lon="2.26407">
        <ele>32</ele>
        <time>2023-06-03T12:53:30Z</time>
      </trkpt>
      <trkpt lat="49.89979" lon="2.26405">
        <ele>32</ele>
        <time>2023-06-03T12:53:31Z</time>
      </trkpt>
      <trkpt lat="49.89979" lon="2.26404">
        <ele>32.1</ele>
        <time>2023-06-03T12:53:32Z</time>
      </trkpt>
      <trkpt lat="49.8998" lon="2.26403">
        <ele>32.1</ele>
        <time>2023-06-03T12:53:33Z</time>
      </trkpt>
      <trkpt lat="49.8998" lon="2.26402">
        <ele>32.1</ele>
        <time>2023-06-03T12:53:34Z</time>
      </trkpt>
      <trkpt lat="49.89981" lon="2.26401">
        <ele>32.2</ele>
        <time>2023-06-03T12:53:36Z</time>
      </trkpt>
      <trkpt lat="49.89982" lon="2.264">
        <ele>32.2</ele>
        <time>2023-06-03T12:53:37Z</time>
      </trkpt>
      <trkpt lat="49.89983" lon="2.26399">
        <ele>32.2</ele>
        <time>2023-06-03T12:53:38Z</time>
      </trkpt>
      <trkpt lat="49.89984" lon="2.26398">
        <ele>32.3</ele>
        <time>2023-06-03T12:53:39Z</time>
      </trkpt>
      <trkpt lat="49.89986" lon="2.26397">
        <ele>32.3</ele>
        <time>2023-06-03T12:53:40Z</time>
      </trkpt>
      <trkpt lat="49.89987" lon="2.26396">
        <ele>32.3</ele>
        <time>2023-06-03T12:53:41Z</time>
      </trkpt>
      <trkpt lat="49.89988" lon="2.26396">
        <ele>32.4</ele>
        <time>2023-06-03T12:53:42Z</time>
      </trkpt>
      <trkpt lat="49.89989" lon="2.26395">
        <ele>32.4</ele>
        <time>2023-06-03T12:53:43Z</time>
      </trkpt>
      <trkpt lat="49.89991" lon="2.26394">
        <ele>32.5</ele>
        <time>2023-06-03T12:53:45Z</time>
      </trkpt>
      <trkpt lat="49.89993" lon="2.26394">
        <ele>32.5</ele>
        <time>2023-06-03T12:53:46Z</time>
      </trkpt>
      <trkpt lat="49.89995" lon="2.26394">
        <ele>32.5</ele>
        <time>2023-06-03T12:53:47Z</time>
      </trkpt>
      <trkpt lat="49.89996" lon="2.26393">
        <ele>32.6</ele>
        <time>2023-06-03T12:53:48Z</time>
      </trkpt>
      <trkpt lat="49.89998" lon="2.26392">
        <ele>32.6</ele>
        <time>2023-06-03T12:53:50Z</time>
      </trkpt>
      <trkpt lat="49.89999" lon="2.2639">
        <ele>32.6</ele>
        <time>2023-06-03T12:53:51Z</time>
      </trkpt>
      <trkpt lat="49.9" lon="2.26389">
        <ele>32.7</ele>
        <time>2023-06-03T12:53:52Z</time>
      </trkpt>
      <trkpt lat="49.90001" lon="2.26388">
        <ele>32.7</ele>
        <time>2023-06-03T12:53:53Z</time>
      </trkpt>
      <trkpt lat="49.90003" lon="2.26387">
        <ele>32.7</ele>
        <time>2023-06-03T12:53:55Z</time>
      </trkpt>
      <trkpt lat="49.90004" lon="2.26386">
        <ele>32.7</ele>
        <time>2023-06-03T12:53:56Z</time>
      </trkpt>
      <trkpt lat="49.90005" lon="2.26384">
        <ele>32.8</ele>
        <time>2023-06-03T12:53:57Z</time>
      </trkpt>
      <trkpt lat="49.90007" lon="2.26383">
        <ele>32.8</ele>
        <time>2023-06-03T12:53:58Z</time>
      </trkpt>
      <trkpt lat="49.90008" lon="2.26382">
        <ele>32.8</ele>
        <time>2023-06-03T12:53:59Z</time>
      </trkpt>
      <trkpt lat="49.90009" lon="2.2638">
        <ele>32.8</ele>
        <time>2023-06-03T12:54:00Z</time>
      </trkpt>
      <trkpt lat="49.9001" lon="2.26379">
        <ele>32.9</ele>
        <time>2023-06-03T12:54:01Z</time>
      </trkpt>
      <trkpt lat="49.9001" lon="2.26378">
        <ele>32.9</ele>
        <time>2023-06-03T12:54:02Z</time>
      </trkpt>
      <trkpt lat="49.90011" lon="2.26376">
        <ele>32.9</ele>
        <time>2023-06-03T12:54:04Z</time>
      </trkpt>
      <trkpt lat="49.90012" lon="2.26374">
        <ele>32.9</ele>
        <time>2023-06-03T12:54:05Z</time>
      </trkpt>
      <trkpt lat="49.90013" lon="2.26373">
        <ele>33</ele>
        <time>2023-06-03T12:54:06Z</time>
      </trkpt>
      <trkpt lat="49.90014" lon="2.26371">
        <ele>33</ele>
        <time>2023-06-03T12:54:07Z</time>
      </trkpt>
      <trkpt lat="49.90015" lon="2.26369">
        <ele>33</ele>
        <time>2023-06-03T12:54:08Z</time>
      </trkpt>
      <trkpt lat="49.90016" lon="2.26367">
        <ele>33.1</ele>
        <time>2023-06-03T12:54:09Z</time>
      </trkpt>
      <trkpt lat="49.90016" lon="2.26366">
        <ele>33.1</ele>
        <time>2023-06-03T12:54:10Z</time>
      </trkpt>
      <trkpt lat="49.90017" lon="2.26363">
        <ele>33.1</ele>
        <time>2023-06-03T12:54:11Z</time>
      </trkpt>
      <trkpt lat="49.90018" lon="2.26362">
        <ele>33.2</ele>
        <time>2023-06-03T12:54:13Z</time>
      </trkpt>
      <trkpt lat="49.90018" lon="2.26361">
        <ele>33.2</ele>
        <time>2023-06-03T12:54:14Z</time>
      </trkpt>
      <trkpt lat="49.90019" lon="2.26359">
        <ele>33.2</ele>
        <time>2023-06-03T12:54:15Z</time>
      </trkpt>
      <trkpt lat="49.9002" lon="2.26356">
        <ele>33.2</ele>
        <time>2023-06-03T12:54:16Z</time>
      </trkpt>
      <trkpt lat="49.9002" lon="2.26354">
        <ele>33.3</ele>
        <time>2023-06-03T12:54:17Z</time>
      </trkpt>
      <trkpt lat="49.90021" lon="2.26352">
        <ele>33.3</ele>
        <time>2023-06-03T12:54:18Z</time>
      </trkpt>
      <trkpt lat="49.90021" lon="2.2635">
        <ele>33.3</ele>
        <time>2023-06-03T12:54:19Z</time>
      </trkpt>
      <trkpt lat="49.90021" lon="2.26349">
        <ele>33.3</ele>
        <time>2023-06-03T12:54:20Z</time>
      </trkpt>
      <trkpt lat="49.90021" lon="2.26347">
        <ele>33.4</ele>
        <time>2023-06-03T12:54:21Z</time>
      </trkpt>
      <trkpt lat="49.90022" lon="2.26345">
        <ele>33.4</ele>
        <time>2023-06-03T12:54:23Z</time>
      </trkpt>
      <trkpt lat="49.90023" lon="2.26344">
        <ele>33.3</ele>
        <time>2023-06-03T12:54:24Z</time>
      </trkpt>
      <trkpt lat="49.90023" lon="2.26343">
        <ele>33.3</ele>
        <time>2023-06-03T12:54:25Z</time>
      </trkpt>
      <trkpt lat="49.90024" lon="2.26342">
        <ele>33.3</ele>
        <time>2023-06-03T12:54:27Z</time>
      </trkpt>
      <trkpt lat="49.90025" lon="2.26342">
        <ele>33.3</ele>
        <time>2023-06-03T12:54:28Z</time>
      </trkpt>
      <trkpt lat="49.90026" lon="2.26341">
        <ele>33.3</ele>
        <time>2023-06-03T12:54:29Z</time>
      </trkpt>
      <trkpt lat="49.90028" lon="2.2634">
        <ele>33.3</ele>
        <time>2023-06-03T12:54:30Z</time>
      </trkpt>
      <trkpt lat="49.90029" lon="2.2634">
        <ele>33.3</ele>
        <time>2023-06-03T12:54:31Z</time>
      </trkpt>
      <trkpt lat="49.9003" lon="2.2634">
        <ele>33.3</ele>
        <time>2023-06-03T12:54:32Z</time>
      </trkpt>
      <trkpt lat="49.90031" lon="2.2634">
        <ele>33.3</ele>
        <time>2023-06-03T12:54:33Z</time>
      </trkpt>
      <trkpt lat="49.90032" lon="2.26342">
        <ele>33.3</ele>
        <time>2023-06-03T12:54:35Z</time>
      </trkpt>
      <trkpt lat="49.90033" lon="2.26344">
        <ele>33.3</ele>
        <time>2023-06-03T12:54:36Z</time>
      </trkpt>
      <trkpt lat="49.90034" lon="2.26346">
        <ele>33.3</ele>
        <time>2023-06-03T12:54:37Z</time>
      </trkpt>
      <trkpt lat="49.90034" lon="2.2635">
        <ele>33.3</ele>
        <time>2023-06-03T12:54:38Z</time>
      </trkpt>
      <trkpt lat="49.90034" lon="2.26351">
        <ele>33.3</ele>
        <time>2023-06-03T12:54:39Z</time>
      </trkpt>
      <trkpt lat="49.90034" lon="2.26352">
        <ele>33.3</ele>
        <time>2023-06-03T12:54:40Z</time>
      </trkpt>
      <trkpt lat="49.90035" lon="2.26354">
        <ele>33.3</ele>
        <time>2023-06-03T12:54:41Z</time>
      </trkpt>
      <trkpt lat="49.90035" lon="2.26355">
        <ele>33.3</ele>
        <time>2023-06-03T12:54:43Z</time>
      </trkpt>
      <trkpt lat="49.90036" lon="2.26356">
        <ele>33.4</ele>
        <time>2023-06-03T12:54:44Z</time>
      </trkpt>
      <trkpt lat="49.90037" lon="2.26358">
        <ele>33.4</ele>
        <time>2023-06-03T12:54:45Z</time>
      </trkpt>
      <trkpt lat="49.90038" lon="2.26358">
        <ele>33.4</ele>
        <time>2023-06-03T12:54:46Z</time>
      </trkpt>
      <trkpt lat="49.90039" lon="2.26358">
        <ele>33.4</ele>
        <time>2023-06-03T12:54:47Z</time>
      </trkpt>
      <trkpt lat="49.9004" lon="2.26359">
        <ele>33.4</ele>
        <time>2023-06-03T12:54:48Z</time>
      </trkpt>
      <trkpt lat="49.90041" lon="2.26359">
        <ele>33.4</ele>
        <time>2023-06-03T12:54:49Z</time>
      </trkpt>
      <trkpt lat="49.90042" lon="2.26359">
        <ele>33.4</ele>
        <time>2023-06-03T12:54:50Z</time>
      </trkpt>
      <trkpt lat="49.90043" lon="2.26359">
        <ele>33.4</ele>
        <time>2023-06-03T12:54:51Z</time>
      </trkpt>
      <trkpt lat="49.90045" lon="2.26358">
        <ele>33.4</ele>
        <time>2023-06-03T12:54:52Z</time>
      </trkpt>
      <trkpt lat="49.90046" lon="2.26358">
        <ele>33.4</ele>
        <time>2023-06-03T12:54:54Z</time>
      </trkpt>
      <trkpt lat="49.90048" lon="2.26357">
        <ele>33.5</ele>
        <time>2023-06-03T12:54:55Z</time>
      </trkpt>
      <trkpt lat="49.90049" lon="2.26356">
        <ele>33.5</ele>
        <time>2023-06-03T12:54:56Z</time>
      </trkpt>
      <trkpt lat="49.90051" lon="2.26355">
        <ele>33.5</ele>
        <time>2023-06-03T12:54:57Z</time>
      </trkpt>
      <trkpt lat="49.90052" lon="2.26354">
        <ele>33.5</ele>
        <time>2023-06-03T12:54:59Z</time>
      </trkpt>
      <trkpt lat="49.90053" lon="2.26353">
        <ele>33.5</ele>
        <time>2023-06-03T12:55:00Z</time>
      </trkpt>
      <trkpt lat="49.90054" lon="2.26351">
        <ele>33.5</ele>
        <time>2023-06-03T12:55:01Z</time>
      </trkpt>
      <trkpt lat="49.90055" lon="2.2635">
        <ele>33.5</ele>
        <time>2023-06-03T12:55:02Z</time>
      </trkpt>
      <trkpt lat="49.90056" lon="2.26349">
        <ele>33.5</ele>
        <time>2023-06-03T12:55:03Z</time>
      </trkpt>
      <trkpt lat="49.90057" lon="2.26348">
        <ele>33.5</ele>
        <time>2023-06-03T12:55:04Z</time>
      </trkpt>
      <trkpt lat="49.90058" lon="2.26347">
        <ele>33.5</ele>
        <time>2023-06-03T12:55:05Z</time>
      </trkpt>
      <trkpt lat="49.90058" lon="2.26346">
        <ele>33.5</ele>
        <time>2023-06-03T12:55:07Z</time>
      </trkpt>
      <trkpt lat="49.90059" lon="2.26345">
        <ele>33.5</ele>
        <time>2023-06-03T12:55:08Z</time>
      </trkpt>
      <trkpt lat="49.9006" lon="2.26344">
        <ele>33.5</ele>
        <time>2023-06-03T12:55:09Z</time>
      </trkpt>
      <trkpt lat="49.90061" lon="2.26343">
        <ele>33.5</ele>
        <time>2023-06-03T12:55:10Z</time>
      </trkpt>
      <trkpt lat="49.90063" lon="2.26343">
        <ele>33.5</ele>
        <time>2023-06-03T12:55:11Z</time>
      </trkpt>
      <trkpt lat="49.90064" lon="2.26343">
        <ele>33.5</ele>
        <time>2023-06-03T12:55:12Z</time>
      </trkpt>
      <trkpt lat="49.90065" lon="2.26343">
        <ele>33.5</ele>
        <time>2023-06-03T12:55:13Z</time>
      </trkpt>
      <trkpt lat="49.90067" lon="2.26343">
        <ele>33.5</ele>
        <time>2023-06-03T12:55:15Z</time>
      </trkpt>
      <trkpt lat="49.90068" lon="2.26343">
        <ele>33.5</ele>
        <time>2023-06-03T12:55:16Z</time>
      </trkpt>
      <trkpt lat="49.90069" lon="2.26344">
        <ele>33.5</ele>
        <time>2023-06-03T12:55:17Z</time>
      </trkpt>
      <trkpt lat="49.9007" lon="2.26345">
        <ele>33.5</ele>
        <time>2023-06-03T12:55:18Z</time>
      </trkpt>
      <trkpt lat="49.9007" lon="2.26345">
        <ele>33.5</ele>
        <time>2023-06-03T12:55:19Z</time>
      </trkpt>
      <trkpt lat="49.90071" lon="2.26346">
        <ele>33.5</ele>
        <time>2023-06-03T12:55:20Z</time>
      </trkpt>
      <trkpt lat="49.90073" lon="2.26346">
        <ele>33.5</ele>
        <time>2023-06-03T12:55:21Z</time>
      </trkpt>
      <trkpt lat="49.90074" lon="2.26346">
        <ele>33.5</ele>
        <time>2023-06-03T12:55:23Z</time>
      </trkpt>
      <trkpt lat="49.90074" lon="2.26346">
        <ele>33.5</ele>
        <time>2023-06-03T12:55:24Z</time>
      </trkpt>
      <trkpt lat="49.90075" lon="2.26346">
        <ele>33.5</ele>
        <time>2023-06-03T12:55:25Z</time>
      </trkpt>
      <trkpt lat="49.90077" lon="2.26345">
        <ele>33.5</ele>
        <time>2023-06-03T12:55:26Z</time>
      </trkpt>
      <trkpt lat="49.90078" lon="2.26344">
        <ele>33.4</ele>
        <time>2023-06-03T12:55:27Z</time>
      </trkpt>
      <trkpt lat="49.90079" lon="2.26342">
        <ele>33.4</ele>
        <time>2023-06-03T12:55:28Z</time>
      </trkpt>
      <trkpt lat="49.90079" lon="2.2634">
        <ele>33.4</ele>
        <time>2023-06-03T12:55:29Z</time>
      </trkpt>
      <trkpt lat="49.90079" lon="2.26337">
        <ele>33.4</ele>
        <time>2023-06-03T12:55:31Z</time>
      </trkpt>
      <trkpt lat="49.90078" lon="2.26333">
        <ele>33.4</ele>
        <time>2023-06-03T12:55:32Z</time>
      </trkpt>
      <trkpt lat="49.90078" lon="2.26331">
        <ele>33.4</ele>
        <time>2023-06-03T12:55:33Z</time>
      </trkpt>
      <trkpt lat="49.90078" lon="2.26329">
        <ele>33.4</ele>
        <time>2023-06-03T12:55:34Z</time>
      </trkpt>
      <trkpt lat="49.90077" lon="2.26327">
        <ele>33.4</ele>
        <time>2023-06-03T12:55:35Z</time>
      </trkpt>
      <trkpt lat="49.90077" lon="2.26325">
        <ele>33.4</ele>
        <time>2023-06-03T12:55:36Z</time>
      </trkpt>
      <trkpt lat="49.90077" lon="2.26323">
        <ele>33.4</ele>
        <time>2023-06-03T12:55:37Z</time>
      </trkpt>
      <trkpt lat="49.90077" lon="2.2632">
        <ele>33.4</ele>
        <time>2023-06-03T12:55:39Z</time>
      </trkpt>
      <trkpt lat="49.90077" lon="2.26318">
        <ele>33.3</ele>
        <time>2023-06-03T12:55:40Z</time>
      </trkpt>
      <trkpt lat="49.90077" lon="2.26315">
        <ele>33.3</ele>
        <time>2023-06-03T12:55:41Z</time>
      </trkpt>
      <trkpt lat="49.90077" lon="2.26312">
        <ele>33.3</ele>
        <time>2023-06-03T12:55:42Z</time>
      </trkpt>
      <trkpt lat="49.90077" lon="2.2631">
        <ele>33.3</ele>
        <time>2023-06-03T12:55:43Z</time>
      </trkpt>
      <trkpt lat="49.90077" lon="2.26309">
        <ele>33.3</ele>
        <time>2023-06-03T12:55:44Z</time>
      </trkpt>
      <trkpt lat="49.90077" lon="2.26307">
        <ele>33.3</ele>
        <time>2023-06-03T12:55:45Z</time>
      </trkpt>
      <trkpt lat="49.90077" lon="2.26305">
        <ele>33.3</ele>
        <time>2023-06-03T12:55:47Z</time>
      </trkpt>
      <trkpt lat="49.90077" lon="2.26302">
        <ele>33.3</ele>
        <time>2023-06-03T12:55:48Z</time>
      </trkpt>
      <trkpt lat="49.90077" lon="2.26301">
        <ele>33.3</ele>
        <time>2023-06-03T12:55:49Z</time>
      </trkpt>
      <trkpt lat="49.90076" lon="2.263">
        <ele>33.3</ele>
        <time>2023-06-03T12:55:50Z</time>
      </trkpt>
      <trkpt lat="49.90076" lon="2.26298">
        <ele>33.3</ele>
        <time>2023-06-03T12:55:51Z</time>
      </trkpt>
      <trkpt lat="49.90076" lon="2.26297">
        <ele>33.3</ele>
        <time>2023-06-03T12:55:52Z</time>
      </trkpt>
      <trkpt lat="49.90076" lon="2.26296">
        <ele>33.3</ele>
        <time>2023-06-03T12:55:54Z</time>
      </trkpt>
      <trkpt lat="49.90075" lon="2.26294">
        <ele>33.3</ele>
        <time>2023-06-03T12:55:55Z</time>
      </trkpt>
      <trkpt lat="49.90075" lon="2.26292">
        <ele>33.3</ele>
        <time>2023-06-03T12:55:56Z</time>
      </trkpt>
      <trkpt lat="49.90075" lon="2.2629">
        <ele>33.3</ele>
        <time>2023-06-03T12:55:57Z</time>
      </trkpt>
      <trkpt lat="49.90075" lon="2.26288">
        <ele>33.3</ele>
        <time>2023-06-03T12:55:58Z</time>
      </trkpt>
      <trkpt lat="49.90075" lon="2.26286">
        <ele>33.3</ele>
        <time>2023-06-03T12:55:59Z</time>
      </trkpt>
      <trkpt lat="49.90075" lon="2.26283">
        <ele>33.3</ele>
        <time>2023-06-03T12:56:00Z</time>
      </trkpt>
      <trkpt lat="49.90075" lon="2.26281">
        <ele>33.3</ele>
        <time>2023-06-03T12:56:01Z</time>
      </trkpt>
      <trkpt lat="49.90075" lon="2.26279">
        <ele>33.3</ele>
        <time>2023-06-03T12:56:02Z</time>
      </trkpt>
      <trkpt lat="49.90074" lon="2.26277">
        <ele>33.3</ele>
        <time>2023-06-03T12:56:04Z</time>
      </trkpt>
      <trkpt lat="49.90074" lon="2.26275">
        <ele>33.3</ele>
        <time>2023-06-03T12:56:05Z</time>
      </trkpt>
      <trkpt lat="49.90074" lon="2.26272">
        <ele>33.3</ele>
        <time>2023-06-03T12:56:06Z</time>
      </trkpt>
      <trkpt lat="49.90074" lon="2.26269">
        <ele>33.4</ele>
        <time>2023-06-03T12:56:07Z</time>
      </trkpt>
      <trkpt lat="49.90073" lon="2.26268">
        <ele>33.4</ele>
        <time>2023-06-03T12:56:08Z</time>
      </trkpt>
      <trkpt lat="49.90073" lon="2.26266">
        <ele>33.4</ele>
        <time>2023-06-03T12:56:09Z</time>
      </trkpt>
      <trkpt lat="49.90073" lon="2.26264">
        <ele>33.4</ele>
        <time>2023-06-03T12:56:11Z</time>
      </trkpt>
      <trkpt lat="49.90073" lon="2.26262">
        <ele>33.4</ele>
        <time>2023-06-03T12:56:12Z</time>
      </trkpt>
      <trkpt lat="49.90072" lon="2.26257">
        <ele>33.4</ele>
        <time>2023-06-03T12:56:13Z</time>
      </trkpt>
      <trkpt lat="49.90071" lon="2.26256">
        <ele>33.5</ele>
        <time>2023-06-03T12:56:14Z</time>
      </trkpt>
      <trkpt lat="49.90071" lon="2.26254">
        <ele>33.5</ele>
        <time>2023-06-03T12:56:15Z</time>
      </trkpt>
      <trkpt lat="49.90071" lon="2.26252">
        <ele>33.5</ele>
        <time>2023-06-03T12:56:16Z</time>
      </trkpt>
      <trkpt lat="49.9007" lon="2.26251">
        <ele>33.5</ele>
        <time>2023-06-03T12:56:17Z</time>
      </trkpt>
      <trkpt lat="49.9007" lon="2.2625">
        <ele>33.5</ele>
        <time>2023-06-03T12:56:19Z</time>
      </trkpt>
      <trkpt lat="49.90069" lon="2.26247">
        <ele>33.6</ele>
        <time>2023-06-03T12:56:20Z</time>
      </trkpt>
      <trkpt lat="49.90069" lon="2.26246">
        <ele>33.6</ele>
        <time>2023-06-03T12:56:21Z</time>
      </trkpt>
      <trkpt lat="49.90069" lon="2.26243">
        <ele>33.6</ele>
        <time>2023-06-03T12:56:22Z</time>
      </trkpt>
      <trkpt lat="49.90068" lon="2.26241">
        <ele>33.6</ele>
        <time>2023-06-03T12:56:23Z</time>
      </trkpt>
      <trkpt lat="49.90068" lon="2.26238">
        <ele>33.7</ele>
        <time>2023-06-03T12:56:24Z</time>
      </trkpt>
      <trkpt lat="49.90067" lon="2.26237">
        <ele>33.7</ele>
        <time>2023-06-03T12:56:25Z</time>
      </trkpt>
      <trkpt lat="49.90067" lon="2.26233">
        <ele>33.7</ele>
        <time>2023-06-03T12:56:26Z</time>
      </trkpt>
      <trkpt lat="49.90067" lon="2.26232">
        <ele>33.7</ele>
        <time>2023-06-03T12:56:28Z</time>
      </trkpt>
      <trkpt lat="49.90066" lon="2.2623">
        <ele>33.7</ele>
        <time>2023-06-03T12:56:29Z</time>
      </trkpt>
      <trkpt lat="49.90066" lon="2.26226">
        <ele>33.8</ele>
        <time>2023-06-03T12:56:30Z</time>
      </trkpt>
      <trkpt lat="49.90066" lon="2.26224">
        <ele>33.8</ele>
        <time>2023-06-03T12:56:31Z</time>
      </trkpt>
      <trkpt lat="49.90066" lon="2.26223">
        <ele>33.8</ele>
        <time>2023-06-03T12:56:32Z</time>
      </trkpt>
      <trkpt lat="49.90066" lon="2.26221">
        <ele>33.8</ele>
        <time>2023-06-03T12:56:33Z</time>
      </trkpt>
      <trkpt lat="49.90066" lon="2.26219">
        <ele>33.9</ele>
        <time>2023-06-03T12:56:34Z</time>
      </trkpt>
      <trkpt lat="49.90066" lon="2.26216">
        <ele>33.9</ele>
        <time>2023-06-03T12:56:36Z</time>
      </trkpt>
      <trkpt lat="49.90066" lon="2.26213">
        <ele>33.9</ele>
        <time>2023-06-03T12:56:37Z</time>
      </trkpt>
      <trkpt lat="49.90065" lon="2.26209">
        <ele>34</ele>
        <time>2023-06-03T12:56:38Z</time>
      </trkpt>
      <trkpt lat="49.90065" lon="2.26207">
        <ele>34</ele>
        <time>2023-06-03T12:56:39Z</time>
      </trkpt>
      <trkpt lat="49.90064" lon="2.26204">
        <ele>34</ele>
        <time>2023-06-03T12:56:40Z</time>
      </trkpt>
      <trkpt lat="49.90064" lon="2.26203">
        <ele>34</ele>
        <time>2023-06-03T12:56:41Z</time>
      </trkpt>
      <trkpt lat="49.90064" lon="2.26201">
        <ele>34</ele>
        <time>2023-06-03T12:56:43Z</time>
      </trkpt>
      <trkpt lat="49.90064" lon="2.26199">
        <ele>34.1</ele>
        <time>2023-06-03T12:56:44Z</time>
      </trkpt>
      <trkpt lat="49.90064" lon="2.26197">
        <ele>34.1</ele>
        <time>2023-06-03T12:56:45Z</time>
      </trkpt>
      <trkpt lat="49.90064" lon="2.26195">
        <ele>34.1</ele>
        <time>2023-06-03T12:56:46Z</time>
      </trkpt>
      <trkpt lat="49.90063" lon="2.26193">
        <ele>34.1</ele>
        <time>2023-06-03T12:56:47Z</time>
      </trkpt>
      <trkpt lat="49.90063" lon="2.26193">
        <ele>34.1</ele>
        <time>2023-06-03T12:56:48Z</time>
      </trkpt>
      <trkpt lat="49.90063" lon="2.26192">
        <ele>34.1</ele>
        <time>2023-06-03T12:56:49Z</time>
      </trkpt>
      <trkpt lat="49.90063" lon="2.2619">
        <ele>34.1</ele>
        <time>2023-06-03T12:56:50Z</time>
      </trkpt>
      <trkpt lat="49.90063" lon="2.26187">
        <ele>34.2</ele>
        <time>2023-06-03T12:56:52Z</time>
      </trkpt>
      <trkpt lat="49.90063" lon="2.26186">
        <ele>34.2</ele>
        <time>2023-06-03T12:56:53Z</time>
      </trkpt>
      <trkpt lat="49.90063" lon="2.26184">
        <ele>34.2</ele>
        <time>2023-06-03T12:56:54Z</time>
      </trkpt>
      <trkpt lat="49.90063" lon="2.26183">
        <ele>34.2</ele>
        <time>2023-06-03T12:56:56Z</time>
      </trkpt>
      <trkpt lat="49.90063" lon="2.26181">
        <ele>34.3</ele>
        <time>2023-06-03T12:56:57Z</time>
      </trkpt>
      <trkpt lat="49.90063" lon="2.26179">
        <ele>34.3</ele>
        <time>2023-06-03T12:56:58Z</time>
      </trkpt>
      <trkpt lat="49.90063" lon="2.26178">
        <ele>34.3</ele>
        <time>2023-06-03T12:56:59Z</time>
      </trkpt>
      <trkpt lat="49.90063" lon="2.26176">
        <ele>34.3</ele>
        <time>2023-06-03T12:57:00Z</time>
      </trkpt>
      <trkpt lat="49.90063" lon="2.26174">
        <ele>34.3</ele>
        <time>2023-06-03T12:57:01Z</time>
      </trkpt>
      <trkpt lat="49.90063" lon="2.26172">
        <ele>34.4</ele>
        <time>2023-06-03T12:57:02Z</time>
      </trkpt>
      <trkpt lat="49.90063" lon="2.26171">
        <ele>34.4</ele>
        <time>2023-06-03T12:57:03Z</time>
      </trkpt>
      <trkpt lat="49.90063" lon="2.26169">
        <ele>34.4</ele>
        <time>2023-06-03T12:57:04Z</time>
      </trkpt>
      <trkpt lat="49.90063" lon="2.26168">
        <ele>34.4</ele>
        <time>2023-06-03T12:57:06Z</time>
      </trkpt>
      <trkpt lat="49.90063" lon="2.26166">
        <ele>34.5</ele>
        <time>2023-06-03T12:57:07Z</time>
      </trkpt>
      <trkpt lat="49.90062" lon="2.26162">
        <ele>34.5</ele>
        <time>2023-06-03T12:57:08Z</time>
      </trkpt>
      <trkpt lat="49.90062" lon="2.26161">
        <ele>34.5</ele>
        <time>2023-06-03T12:57:09Z</time>
      </trkpt>
      <trkpt lat="49.90062" lon="2.26158">
        <ele>34.6</ele>
        <time>2023-06-03T12:57:11Z</time>
      </trkpt>
      <trkpt lat="49.90062" lon="2.26156">
        <ele>34.6</ele>
        <time>2023-06-03T12:57:12Z</time>
      </trkpt>
      <trkpt lat="49.90062" lon="2.26154">
        <ele>34.6</ele>
        <time>2023-06-03T12:57:13Z</time>
      </trkpt>
      <trkpt lat="49.90062" lon="2.26153">
        <ele>34.7</ele>
        <time>2023-06-03T12:57:15Z</time>
      </trkpt>
      <trkpt lat="49.90062" lon="2.26151">
        <ele>34.7</ele>
        <time>2023-06-03T12:57:16Z</time>
      </trkpt>
      <trkpt lat="49.90062" lon="2.26148">
        <ele>34.7</ele>
        <time>2023-06-03T12:57:17Z</time>
      </trkpt>
      <trkpt lat="49.90062" lon="2.26146">
        <ele>34.8</ele>
        <time>2023-06-03T12:57:18Z</time>
      </trkpt>
      <trkpt lat="49.90062" lon="2.26144">
        <ele>34.8</ele>
        <time>2023-06-03T12:57:19Z</time>
      </trkpt>
      <trkpt lat="49.90062" lon="2.26142">
        <ele>34.8</ele>
        <time>2023-06-03T12:57:20Z</time>
      </trkpt>
      <trkpt lat="49.90062" lon="2.26139">
        <ele>34.9</ele>
        <time>2023-06-03T12:57:21Z</time>
      </trkpt>
      <trkpt lat="49.90063" lon="2.26137">
        <ele>34.9</ele>
        <time>2023-06-03T12:57:22Z</time>
      </trkpt>
      <trkpt lat="49.90063" lon="2.26136">
        <ele>34.9</ele>
        <time>2023-06-03T12:57:23Z</time>
      </trkpt>
      <trkpt lat="49.90063" lon="2.26134">
        <ele>35</ele>
        <time>2023-06-03T12:57:25Z</time>
      </trkpt>
      <trkpt lat="49.90063" lon="2.26131">
        <ele>35</ele>
        <time>2023-06-03T12:57:26Z</time>
      </trkpt>
      <trkpt lat="49.90063" lon="2.26129">
        <ele>35</ele>
        <time>2023-06-03T12:57:27Z</time>
      </trkpt>
      <trkpt lat="49.90063" lon="2.26126">
        <ele>35.1</ele>
        <time>2023-06-03T12:57:28Z</time>
      </trkpt>
      <trkpt lat="49.90063" lon="2.26125">
        <ele>35.1</ele>
        <time>2023-06-03T12:57:29Z</time>
      </trkpt>
      <trkpt lat="49.90063" lon="2.26123">
        <ele>35.1</ele>
        <time>2023-06-03T12:57:30Z</time>
      </trkpt>
      <trkpt lat="49.90063" lon="2.26121">
        <ele>35.1</ele>
        <time>2023-06-03T12:57:31Z</time>
      </trkpt>
      <trkpt lat="49.90063" lon="2.2612">
        <ele>35.2</ele>
        <time>2023-06-03T12:57:32Z</time>
      </trkpt>
      <trkpt lat="49.90064" lon="2.26118">
        <ele>35.2</ele>
        <time>2023-06-03T12:57:34Z</time>
      </trkpt>
      <trkpt lat="49.90064" lon="2.26115">
        <ele>35.2</ele>
        <time>2023-06-03T12:57:35Z</time>
      </trkpt>
      <trkpt lat="49.90064" lon="2.26112">
        <ele>35.3</ele>
        <time>2023-06-03T12:57:36Z</time>
      </trkpt>
      <trkpt lat="49.90064" lon="2.2611">
        <ele>35.3</ele>
        <time>2023-06-03T12:57:37Z</time>
      </trkpt>
      <trkpt lat="49.90064" lon="2.26108">
        <ele>35.3</ele>
        <time>2023-06-03T12:57:38Z</time>
      </trkpt>
      <trkpt lat="49.90064" lon="2.26106">
        <ele>35.4</ele>
        <time>2023-06-03T12:57:39Z</time>
      </trkpt>
      <trkpt lat="49.90064" lon="2.26104">
        <ele>35.4</ele>
        <time>2023-06-03T12:57:40Z</time>
      </trkpt>
      <trkpt lat="49.90064" lon="2.26102">
        <ele>35.4</ele>
        <time>2023-06-03T12:57:41Z</time>
      </trkpt>
      <trkpt lat="49.90064" lon="2.26101">
        <ele>35.4</ele>
        <time>2023-06-03T12:57:42Z</time>
      </trkpt>
      <trkpt lat="49.90064" lon="2.26099">
        <ele>35.5</ele>
        <time>2023-06-03T12:57:44Z</time>
      </trkpt>
      <trkpt lat="49.90064" lon="2.26097">
        <ele>35.5</ele>
        <time>2023-06-03T12:57:45Z</time>
      </trkpt>
      <trkpt lat="49.90065" lon="2.26095">
        <ele>35.5</ele>
        <time>2023-06-03T12:57:46Z</time>
      </trkpt>
      <trkpt lat="49.90065" lon="2.26093">
        <ele>35.6</ele>
        <time>2023-06-03T12:57:47Z</time>
      </trkpt>
      <trkpt lat="49.90065" lon="2.26092">
        <ele>35.6</ele>
        <time>2023-06-03T12:57:48Z</time>
      </trkpt>
      <trkpt lat="49.90065" lon="2.26088">
        <ele>35.6</ele>
        <time>2023-06-03T12:57:49Z</time>
      </trkpt>
      <trkpt lat="49.90065" lon="2.26087">
        <ele>35.7</ele>
        <time>2023-06-03T12:57:50Z</time>
      </trkpt>
      <trkpt lat="49.90066" lon="2.26086">
        <ele>35.7</ele>
        <time>2023-06-03T12:57:51Z</time>
      </trkpt>
      <trkpt lat="49.90067" lon="2.26083">
        <ele>35.7</ele>
        <time>2023-06-03T12:57:53Z</time>
      </trkpt>
      <trkpt lat="49.90067" lon="2.26082">
        <ele>35.7</ele>
        <time>2023-06-03T12:57:54Z</time>
      </trkpt>
      <trkpt lat="49.90068" lon="2.26081">
        <ele>35.8</ele>
        <time>2023-06-03T12:57:55Z</time>
      </trkpt>
      <trkpt lat="49.90069" lon="2.2608">
        <ele>35.8</ele>
        <time>2023-06-03T12:57:56Z</time>
      </trkpt>
      <trkpt lat="49.9007" lon="2.26079">
        <ele>35.8</ele>
        <time>2023-06-03T12:57:57Z</time>
      </trkpt>
      <trkpt lat="49.90072" lon="2.26076">
        <ele>35.9</ele>
        <time>2023-06-03T12:57:59Z</time>
      </trkpt>
      <trkpt lat="49.90072" lon="2.26075">
        <ele>35.9</ele>
        <time>2023-06-03T12:58:00Z</time>
      </trkpt>
      <trkpt lat="49.90074" lon="2.26074">
        <ele>36</ele>
        <time>2023-06-03T12:58:01Z</time>
      </trkpt>
      <trkpt lat="49.90075" lon="2.26073">
        <ele>36</ele>
        <time>2023-06-03T12:58:03Z</time>
      </trkpt>
      <trkpt lat="49.90077" lon="2.26072">
        <ele>36</ele>
        <time>2023-06-03T12:58:04Z</time>
      </trkpt>
      <trkpt lat="49.90079" lon="2.26071">
        <ele>36.1</ele>
        <time>2023-06-03T12:58:05Z</time>
      </trkpt>
      <trkpt lat="49.9008" lon="2.26071">
        <ele>36.1</ele>
        <time>2023-06-03T12:58:06Z</time>
      </trkpt>
      <trkpt lat="49.90082" lon="2.26072">
        <ele>36</ele>
        <time>2023-06-03T12:58:07Z</time>
      </trkpt>
      <trkpt lat="49.90083" lon="2.26073">
        <ele>36</ele>
        <time>2023-06-03T12:58:08Z</time>
      </trkpt>
      <trkpt lat="49.90084" lon="2.26075">
        <ele>36</ele>
        <time>2023-06-03T12:58:10Z</time>
      </trkpt>
      <trkpt lat="49.90085" lon="2.26076">
        <ele>35.9</ele>
        <time>2023-06-03T12:58:11Z</time>
      </trkpt>
      <trkpt lat="49.90086" lon="2.26078">
        <ele>35.9</ele>
        <time>2023-06-03T12:58:12Z</time>
      </trkpt>
      <trkpt lat="49.90086" lon="2.2608">
        <ele>35.9</ele>
        <time>2023-06-03T12:58:13Z</time>
      </trkpt>
      <trkpt lat="49.90087" lon="2.26082">
        <ele>35.8</ele>
        <time>2023-06-03T12:58:14Z</time>
      </trkpt>
      <trkpt lat="49.90087" lon="2.26085">
        <ele>35.8</ele>
        <time>2023-06-03T12:58:15Z</time>
      </trkpt>
      <trkpt lat="49.90086" lon="2.26088">
        <ele>35.7</ele>
        <time>2023-06-03T12:58:16Z</time>
      </trkpt>
      <trkpt lat="49.90086" lon="2.26091">
        <ele>35.7</ele>
        <time>2023-06-03T12:58:17Z</time>
      </trkpt>
      <trkpt lat="49.90085" lon="2.26093">
        <ele>35.6</ele>
        <time>2023-06-03T12:58:19Z</time>
      </trkpt>
      <trkpt lat="49.90085" lon="2.26096">
        <ele>35.6</ele>
        <time>2023-06-03T12:58:20Z</time>
      </trkpt>
      <trkpt lat="49.90085" lon="2.26099">
        <ele>35.6</ele>
        <time>2023-06-03T12:58:21Z</time>
      </trkpt>
      <trkpt lat="49.90084" lon="2.26101">
        <ele>35.5</ele>
        <time>2023-06-03T12:58:22Z</time>
      </trkpt>
      <trkpt lat="49.90084" lon="2.26103">
        <ele>35.5</ele>
        <time>2023-06-03T12:58:23Z</time>
      </trkpt>
      <trkpt lat="49.90083" lon="2.26105">
        <ele>35.5</ele>
        <time>2023-06-03T12:58:24Z</time>
      </trkpt>
      <trkpt lat="49.90083" lon="2.26107">
        <ele>35.4</ele>
        <time>2023-06-03T12:58:25Z</time>
      </trkpt>
      <trkpt lat="49.90083" lon="2.26109">
        <ele>35.4</ele>
        <time>2023-06-03T12:58:27Z</time>
      </trkpt>
      <trkpt lat="49.90083" lon="2.26111">
        <ele>35.4</ele>
        <time>2023-06-03T12:58:28Z</time>
      </trkpt>
      <trkpt lat="49.90083" lon="2.26114">
        <ele>35.3</ele>
        <time>2023-06-03T12:58:29Z</time>
      </trkpt>
      <trkpt lat="49.90084" lon="2.26116">
        <ele>35.3</ele>
        <time>2023-06-03T12:58:30Z</time>
      </trkpt>
      <trkpt lat="49.90083" lon="2.2612">
        <ele>35.2</ele>
        <time>2023-06-03T12:58:32Z</time>
      </trkpt>
      <trkpt lat="49.90084" lon="2.26122">
        <ele>35.2</ele>
        <time>2023-06-03T12:58:33Z</time>
      </trkpt>
      <trkpt lat="49.90084" lon="2.26124">
        <ele>35.2</ele>
        <time>2023-06-03T12:58:34Z</time>
      </trkpt>
      <trkpt lat="49.90084" lon="2.26127">
        <ele>35.1</ele>
        <time>2023-06-03T12:58:35Z</time>
      </trkpt>
      <trkpt lat="49.90083" lon="2.26129">
        <ele>35.1</ele>
        <time>2023-06-03T12:58:37Z</time>
      </trkpt>
      <trkpt lat="49.90083" lon="2.26131">
        <ele>35.1</ele>
        <time>2023-06-03T12:58:38Z</time>
      </trkpt>
      <trkpt lat="49.90083" lon="2.26133">
        <ele>35</ele>
        <time>2023-06-03T12:58:39Z</time>
      </trkpt>
      <trkpt lat="49.90083" lon="2.26137">
        <ele>35</ele>
        <time>2023-06-03T12:58:40Z</time>
      </trkpt>
      <trkpt lat="49.90083" lon="2.26139">
        <ele>34.9</ele>
        <time>2023-06-03T12:58:42Z</time>
      </trkpt>
      <trkpt lat="49.90083" lon="2.26143">
        <ele>34.9</ele>
        <time>2023-06-03T12:58:43Z</time>
      </trkpt>
      <trkpt lat="49.90084" lon="2.26145">
        <ele>34.8</ele>
        <time>2023-06-03T12:58:44Z</time>
      </trkpt>
      <trkpt lat="49.90084" lon="2.26148">
        <ele>34.8</ele>
        <time>2023-06-03T12:58:45Z</time>
      </trkpt>
      <trkpt lat="49.90084" lon="2.2615">
        <ele>34.8</ele>
        <time>2023-06-03T12:58:46Z</time>
      </trkpt>
      <trkpt lat="49.90084" lon="2.26152">
        <ele>34.7</ele>
        <time>2023-06-03T12:58:47Z</time>
      </trkpt>
      <trkpt lat="49.90084" lon="2.26154">
        <ele>34.7</ele>
        <time>2023-06-03T12:58:48Z</time>
      </trkpt>
      <trkpt lat="49.90084" lon="2.26156">
        <ele>34.6</ele>
        <time>2023-06-03T12:58:50Z</time>
      </trkpt>
      <trkpt lat="49.90084" lon="2.26159">
        <ele>34.6</ele>
        <time>2023-06-03T12:58:51Z</time>
      </trkpt>
      <trkpt lat="49.90085" lon="2.26162">
        <ele>34.6</ele>
        <time>2023-06-03T12:58:52Z</time>
      </trkpt>
      <trkpt lat="49.90085" lon="2.26167">
        <ele>34.5</ele>
        <time>2023-06-03T12:58:53Z</time>
      </trkpt>
      <trkpt lat="49.90085" lon="2.26168">
        <ele>34.5</ele>
        <time>2023-06-03T12:58:54Z</time>
      </trkpt>
      <trkpt lat="49.90085" lon="2.26169">
        <ele>34.4</ele>
        <time>2023-06-03T12:58:55Z</time>
      </trkpt>
      <trkpt lat="49.90086" lon="2.26171">
        <ele>34.4</ele>
        <time>2023-06-03T12:58:56Z</time>
      </trkpt>
      <trkpt lat="49.90086" lon="2.26172">
        <ele>34.4</ele>
        <time>2023-06-03T12:58:57Z</time>
      </trkpt>
      <trkpt lat="49.90087" lon="2.26176">
        <ele>34.3</ele>
        <time>2023-06-03T12:58:59Z</time>
      </trkpt>
      <trkpt lat="49.90087" lon="2.26177">
        <ele>34.3</ele>
        <time>2023-06-03T12:59:00Z</time>
      </trkpt>
      <trkpt lat="49.90087" lon="2.26178">
        <ele>34.3</ele>
        <time>2023-06-03T12:59:01Z</time>
      </trkpt>
      <trkpt lat="49.90087" lon="2.26181">
        <ele>34.3</ele>
        <time>2023-06-03T12:59:03Z</time>
      </trkpt>
      <trkpt lat="49.90087" lon="2.26183">
        <ele>34.2</ele>
        <time>2023-06-03T12:59:04Z</time>
      </trkpt>
      <trkpt lat="49.90087" lon="2.26184">
        <ele>34.2</ele>
        <time>2023-06-03T12:59:05Z</time>
      </trkpt>
      <trkpt lat="49.90087" lon="2.26186">
        <ele>34.2</ele>
        <time>2023-06-03T12:59:06Z</time>
      </trkpt>
      <trkpt lat="49.90086" lon="2.26188">
        <ele>34.2</ele>
        <time>2023-06-03T12:59:07Z</time>
      </trkpt>
      <trkpt lat="49.90087" lon="2.26189">
        <ele>34.2</ele>
        <time>2023-06-03T12:59:08Z</time>
      </trkpt>
      <trkpt lat="49.90087" lon="2.26191">
        <ele>34.1</ele>
        <time>2023-06-03T12:59:09Z</time>
      </trkpt>
      <trkpt lat="49.90086" lon="2.26193">
        <ele>34.1</ele>
        <time>2023-06-03T12:59:10Z</time>
      </trkpt>
      <trkpt lat="49.90087" lon="2.26196">
        <ele>34.1</ele>
        <time>2023-06-03T12:59:12Z</time>
      </trkpt>
      <trkpt lat="49.90087" lon="2.262">
        <ele>34.1</ele>
        <time>2023-06-03T12:59:13Z</time>
      </trkpt>
      <trkpt lat="49.90086" lon="2.26201">
        <ele>34</ele>
        <time>2023-06-03T12:59:14Z</time>
      </trkpt>
      <trkpt lat="49.90086" lon="2.26202">
        <ele>34</ele>
        <time>2023-06-03T12:59:15Z</time>
      </trkpt>
      <trkpt lat="49.90086" lon="2.26205">
        <ele>34</ele>
        <time>2023-06-03T12:59:16Z</time>
      </trkpt>
      <trkpt lat="49.90086" lon="2.26206">
        <ele>34</ele>
        <time>2023-06-03T12:59:17Z</time>
      </trkpt>
      <trkpt lat="49.90086" lon="2.26208">
        <ele>34</ele>
        <time>2023-06-03T12:59:19Z</time>
      </trkpt>
      <trkpt lat="49.90086" lon="2.26209">
        <ele>33.9</ele>
        <time>2023-06-03T12:59:20Z</time>
      </trkpt>
      <trkpt lat="49.90086" lon="2.26211">
        <ele>33.9</ele>
        <time>2023-06-03T12:59:21Z</time>
      </trkpt>
      <trkpt lat="49.90086" lon="2.26212">
        <ele>33.9</ele>
        <time>2023-06-03T12:59:22Z</time>
      </trkpt>
      <trkpt lat="49.90085" lon="2.26215">
        <ele>33.9</ele>
        <time>2023-06-03T12:59:23Z</time>
      </trkpt>
      <trkpt lat="49.90085" lon="2.26217">
        <ele>33.9</ele>
        <time>2023-06-03T12:59:24Z</time>
      </trkpt>
      <trkpt lat="49.90084" lon="2.2622">
        <ele>33.8</ele>
        <time>2023-06-03T12:59:25Z</time>
      </trkpt>
      <trkpt lat="49.90084" lon="2.26224">
        <ele>33.8</ele>
        <time>2023-06-03T12:59:27Z</time>
      </trkpt>
      <trkpt lat="49.90083" lon="2.26228">
        <ele>33.7</ele>
        <time>2023-06-03T12:59:28Z</time>
      </trkpt>
      <trkpt lat="49.90083" lon="2.2623">
        <ele>33.7</ele>
        <time>2023-06-03T12:59:29Z</time>
      </trkpt>
      <trkpt lat="49.90083" lon="2.26232">
        <ele>33.7</ele>
        <time>2023-06-03T12:59:31Z</time>
      </trkpt>
      <trkpt lat="49.90083" lon="2.26234">
        <ele>33.7</ele>
        <time>2023-06-03T12:59:32Z</time>
      </trkpt>
      <trkpt lat="49.90083" lon="2.26237">
        <ele>33.7</ele>
        <time>2023-06-03T12:59:33Z</time>
      </trkpt>
      <trkpt lat="49.90083" lon="2.26239">
        <ele>33.6</ele>
        <time>2023-06-03T12:59:34Z</time>
      </trkpt>
      <trkpt lat="49.90083" lon="2.26243">
        <ele>33.5</ele>
        <time>2023-06-03T12:59:35Z</time>
      </trkpt>
      <trkpt lat="49.90083" lon="2.26244">
        <ele>33.4</ele>
        <time>2023-06-03T12:59:36Z</time>
      </trkpt>
      <trkpt lat="49.90083" lon="2.26245">
        <ele>33.4</ele>
        <time>2023-06-03T12:59:37Z</time>
      </trkpt>
      <trkpt lat="49.90083" lon="2.26246">
        <ele>33.3</ele>
        <time>2023-06-03T12:59:38Z</time>
      </trkpt>
      <trkpt lat="49.90083" lon="2.26249">
        <ele>33.2</ele>
        <time>2023-06-03T12:59:40Z</time>
      </trkpt>
      <trkpt lat="49.90083" lon="2.2625">
        <ele>33.1</ele>
        <time>2023-06-03T12:59:41Z</time>
      </trkpt>
      <trkpt lat="49.90083" lon="2.26251">
        <ele>33.1</ele>
        <time>2023-06-03T12:59:42Z</time>
      </trkpt>
      <trkpt lat="49.90084" lon="2.26252">
        <ele>33</ele>
        <time>2023-06-03T12:59:44Z</time>
      </trkpt>
      <trkpt lat="49.90084" lon="2.26254">
        <ele>33</ele>
        <time>2023-06-03T12:59:45Z</time>
      </trkpt>
      <trkpt lat="49.90085" lon="2.26254">
        <ele>32.9</ele>
        <time>2023-06-03T12:59:46Z</time>
      </trkpt>
      <trkpt lat="49.90086" lon="2.26254">
        <ele>32.8</ele>
        <time>2023-06-03T12:59:47Z</time>
      </trkpt>
      <trkpt lat="49.90087" lon="2.26254">
        <ele>32.7</ele>
        <time>2023-06-03T12:59:48Z</time>
      </trkpt>
      <trkpt lat="49.90088" lon="2.26254">
        <ele>32.7</ele>
        <time>2023-06-03T12:59:49Z</time>
      </trkpt>
      <trkpt lat="49.90089" lon="2.26253">
        <ele>32.6</ele>
        <time>2023-06-03T12:59:50Z</time>
      </trkpt>
      <trkpt lat="49.90091" lon="2.26252">
        <ele>32.5</ele>
        <time>2023-06-03T12:59:51Z</time>
      </trkpt>
      <trkpt lat="49.90092" lon="2.26251">
        <ele>32.4</ele>
        <time>2023-06-03T12:59:53Z</time>
      </trkpt>
      <trkpt lat="49.90094" lon="2.2625">
        <ele>32.2</ele>
        <time>2023-06-03T12:59:54Z</time>
      </trkpt>
      <trkpt lat="49.90096" lon="2.2625">
        <ele>32.3</ele>
        <time>2023-06-03T12:59:55Z</time>
      </trkpt>
      <trkpt lat="49.90097" lon="2.2625">
        <ele>32.1</ele>
        <time>2023-06-03T12:59:56Z</time>
      </trkpt>
      <trkpt lat="49.90098" lon="2.2625">
        <ele>32.1</ele>
        <time>2023-06-03T12:59:57Z</time>
      </trkpt>
      <trkpt lat="49.901" lon="2.2625">
        <ele>31.9</ele>
        <time>2023-06-03T12:59:58Z</time>
      </trkpt>
      <trkpt lat="49.90102" lon="2.2625">
        <ele>31.8</ele>
        <time>2023-06-03T12:59:59Z</time>
      </trkpt>
      <trkpt lat="49.90104" lon="2.26251">
        <ele>31.7</ele>
        <time>2023-06-03T13:00:01Z</time>
      </trkpt>
      <trkpt lat="49.90108" lon="2.26252">
        <ele>31.4</ele>
        <time>2023-06-03T13:00:03Z</time>
      </trkpt>
      <trkpt lat="49.90109" lon="2.26252">
        <ele>31.3</ele>
        <time>2023-06-03T13:00:05Z</time>
      </trkpt>
      <trkpt lat="49.90111" lon="2.26253">
        <ele>31.2</ele>
        <time>2023-06-03T13:00:06Z</time>
      </trkpt>
      <trkpt lat="49.90112" lon="2.26253">
        <ele>31.1</ele>
        <time>2023-06-03T13:00:07Z</time>
      </trkpt>
      <trkpt lat="49.90113" lon="2.26253">
        <ele>31.1</ele>
        <time>2023-06-03T13:00:08Z</time>
      </trkpt>
      <trkpt lat="49.90114" lon="2.26252">
        <ele>30.9</ele>
        <time>2023-06-03T13:00:10Z</time>
      </trkpt>
      <trkpt lat="49.90115" lon="2.26252">
        <ele>30.9</ele>
        <time>2023-06-03T13:00:11Z</time>
      </trkpt>
      <trkpt lat="49.90117" lon="2.26251">
        <ele>30.7</ele>
        <time>2023-06-03T13:00:12Z</time>
      </trkpt>
      <trkpt lat="49.90119" lon="2.26251">
        <ele>30.7</ele>
        <time>2023-06-03T13:00:14Z</time>
      </trkpt>
      <trkpt lat="49.9012" lon="2.26251">
        <ele>30.5</ele>
        <time>2023-06-03T13:00:15Z</time>
      </trkpt>
      <trkpt lat="49.9012" lon="2.2625">
        <ele>30.4</ele>
        <time>2023-06-03T13:00:16Z</time>
      </trkpt>
      <trkpt lat="49.9012" lon="2.26249">
        <ele>30.4</ele>
        <time>2023-06-03T13:00:17Z</time>
      </trkpt>
      <trkpt lat="49.90121" lon="2.26249">
        <ele>30.4</ele>
        <time>2023-06-03T13:00:18Z</time>
      </trkpt>
      <trkpt lat="49.90121" lon="2.26248">
        <ele>30.4</ele>
        <time>2023-06-03T13:00:19Z</time>
      </trkpt>
      <trkpt lat="49.90123" lon="2.26248">
        <ele>30.2</ele>
        <time>2023-06-03T13:00:20Z</time>
      </trkpt>
      <trkpt lat="49.90124" lon="2.26248">
        <ele>30.1</ele>
        <time>2023-06-03T13:00:21Z</time>
      </trkpt>
      <trkpt lat="49.90126" lon="2.26248">
        <ele>29.9</ele>
        <time>2023-06-03T13:00:23Z</time>
      </trkpt>
      <trkpt lat="49.90127" lon="2.26248">
        <ele>29.7</ele>
        <time>2023-06-03T13:00:24Z</time>
      </trkpt>
      <trkpt lat="49.90128" lon="2.26247">
        <ele>29.6</ele>
        <time>2023-06-03T13:00:25Z</time>
      </trkpt>
      <trkpt lat="49.90129" lon="2.26247">
        <ele>29.6</ele>
        <time>2023-06-03T13:00:26Z</time>
      </trkpt>
      <trkpt lat="49.9013" lon="2.26246">
        <ele>29.4</ele>
        <time>2023-06-03T13:00:27Z</time>
      </trkpt>
      <trkpt lat="49.90131" lon="2.26245">
        <ele>29.4</ele>
        <time>2023-06-03T13:00:29Z</time>
      </trkpt>
      <trkpt lat="49.90133" lon="2.26245">
        <ele>29.2</ele>
        <time>2023-06-03T13:00:30Z</time>
      </trkpt>
      <trkpt lat="49.90133" lon="2.26245">
        <ele>29.1</ele>
        <time>2023-06-03T13:00:31Z</time>
      </trkpt>
      <trkpt lat="49.90135" lon="2.26245">
        <ele>29.1</ele>
        <time>2023-06-03T13:00:32Z</time>
      </trkpt>
      <trkpt lat="49.90136" lon="2.26245">
        <ele>29.1</ele>
        <time>2023-06-03T13:00:33Z</time>
      </trkpt>
      <trkpt lat="49.90136" lon="2.26246">
        <ele>29.1</ele>
        <time>2023-06-03T13:00:34Z</time>
      </trkpt>
      <trkpt lat="49.90137" lon="2.26248">
        <ele>29.1</ele>
        <time>2023-06-03T13:00:36Z</time>
      </trkpt>
      <trkpt lat="49.90137" lon="2.2625">
        <ele>29.1</ele>
        <time>2023-06-03T13:00:37Z</time>
      </trkpt>
      <trkpt lat="49.90137" lon="2.26252">
        <ele>29.1</ele>
        <time>2023-06-03T13:00:38Z</time>
      </trkpt>
      <trkpt lat="49.90137" lon="2.26254">
        <ele>29.1</ele>
        <time>2023-06-03T13:00:40Z</time>
      </trkpt>
      <trkpt lat="49.90137" lon="2.26256">
        <ele>29.1</ele>
        <time>2023-06-03T13:00:41Z</time>
      </trkpt>
      <trkpt lat="49.90136" lon="2.26259">
        <ele>29.1</ele>
        <time>2023-06-03T13:00:42Z</time>
      </trkpt>
      <trkpt lat="49.90136" lon="2.26261">
        <ele>29.1</ele>
        <time>2023-06-03T13:00:43Z</time>
      </trkpt>
      <trkpt lat="49.90135" lon="2.26263">
        <ele>29.1</ele>
        <time>2023-06-03T13:00:44Z</time>
      </trkpt>
      <trkpt lat="49.90135" lon="2.26265">
        <ele>29.1</ele>
        <time>2023-06-03T13:00:46Z</time>
      </trkpt>
      <trkpt lat="49.90135" lon="2.26268">
        <ele>29.1</ele>
        <time>2023-06-03T13:00:47Z</time>
      </trkpt>
      <trkpt lat="49.90135" lon="2.26269">
        <ele>29.1</ele>
        <time>2023-06-03T13:00:48Z</time>
      </trkpt>
      <trkpt lat="49.90135" lon="2.26271">
        <ele>29.1</ele>
        <time>2023-06-03T13:00:49Z</time>
      </trkpt>
      <trkpt lat="49.90135" lon="2.26273">
        <ele>29.1</ele>
        <time>2023-06-03T13:00:50Z</time>
      </trkpt>
      <trkpt lat="49.90135" lon="2.26274">
        <ele>29.1</ele>
        <time>2023-06-03T13:00:51Z</time>
      </trkpt>
      <trkpt lat="49.90136" lon="2.26276">
        <ele>29.1</ele>
        <time>2023-06-03T13:00:52Z</time>
      </trkpt>
      <trkpt lat="49.90136" lon="2.26278">
        <ele>29.1</ele>
        <time>2023-06-03T13:00:54Z</time>
      </trkpt>
      <trkpt lat="49.90137" lon="2.2628">
        <ele>29.1</ele>
        <time>2023-06-03T13:00:55Z</time>
      </trkpt>
      <trkpt lat="49.90137" lon="2.26282">
        <ele>29.1</ele>
        <time>2023-06-03T13:00:56Z</time>
      </trkpt>
      <trkpt lat="49.90138" lon="2.26282">
        <ele>29.1</ele>
        <time>2023-06-03T13:00:57Z</time>
      </trkpt>
      <trkpt lat="49.90138" lon="2.26284">
        <ele>29.1</ele>
        <time>2023-06-03T13:00:59Z</time>
      </trkpt>
      <trkpt lat="49.90139" lon="2.26286">
        <ele>29.2</ele>
        <time>2023-06-03T13:01:00Z</time>
      </trkpt>
      <trkpt lat="49.9014" lon="2.26287">
        <ele>29.2</ele>
        <time>2023-06-03T13:01:01Z</time>
      </trkpt>
      <trkpt lat="49.90142" lon="2.26287">
        <ele>29.2</ele>
        <time>2023-06-03T13:01:03Z</time>
      </trkpt>
      <trkpt lat="49.90143" lon="2.26287">
        <ele>29.2</ele>
        <time>2023-06-03T13:01:04Z</time>
      </trkpt>
      <trkpt lat="49.90146" lon="2.26286">
        <ele>29.2</ele>
        <time>2023-06-03T13:01:05Z</time>
      </trkpt>
      <trkpt lat="49.90147" lon="2.26286">
        <ele>29.3</ele>
        <time>2023-06-03T13:01:07Z</time>
      </trkpt>
      <trkpt lat="49.90148" lon="2.26285">
        <ele>29.3</ele>
        <time>2023-06-03T13:01:08Z</time>
      </trkpt>
      <trkpt lat="49.90149" lon="2.26284">
        <ele>29.3</ele>
        <time>2023-06-03T13:01:09Z</time>
      </trkpt>
      <trkpt lat="49.9015" lon="2.26284">
        <ele>29.3</ele>
        <time>2023-06-03T13:01:10Z</time>
      </trkpt>
      <trkpt lat="49.90152" lon="2.26283">
        <ele>29.3</ele>
        <time>2023-06-03T13:01:11Z</time>
      </trkpt>
      <trkpt lat="49.90153" lon="2.26283">
        <ele>29.3</ele>
        <time>2023-06-03T13:01:12Z</time>
      </trkpt>
      <trkpt lat="49.90154" lon="2.26283">
        <ele>29.4</ele>
        <time>2023-06-03T13:01:13Z</time>
      </trkpt>
      <trkpt lat="49.90154" lon="2.26283">
        <ele>29.4</ele>
        <time>2023-06-03T13:01:14Z</time>
      </trkpt>
      <trkpt lat="49.90156" lon="2.26283">
        <ele>29.4</ele>
        <time>2023-06-03T13:01:16Z</time>
      </trkpt>
      <trkpt lat="49.90156" lon="2.26283">
        <ele>29.4</ele>
        <time>2023-06-03T13:01:17Z</time>
      </trkpt>
      <trkpt lat="49.90156" lon="2.26283">
        <ele>29.4</ele>
        <time>2023-06-03T13:01:19Z</time>
      </trkpt>
      <trkpt lat="49.90157" lon="2.26283">
        <ele>29.4</ele>
        <time>2023-06-03T13:01:20Z</time>
      </trkpt>
      <trkpt lat="49.90157" lon="2.26283">
        <ele>29.4</ele>
        <time>2023-06-03T13:01:21Z</time>
      </trkpt>
      <trkpt lat="49.90158" lon="2.26283">
        <ele>29.4</ele>
        <time>2023-06-03T13:01:22Z</time>
      </trkpt>
      <trkpt lat="49.90158" lon="2.26283">
        <ele>29.4</ele>
        <time>2023-06-03T13:01:23Z</time>
      </trkpt>
      <trkpt lat="49.90159" lon="2.26283">
        <ele>29.4</ele>
        <time>2023-06-03T13:01:24Z</time>
      </trkpt>
      <trkpt lat="49.9016" lon="2.26282">
        <ele>29.4</ele>
        <time>2023-06-03T13:01:26Z</time>
      </trkpt>
      <trkpt lat="49.9016" lon="2.26282">
        <ele>29.4</ele>
        <time>2023-06-03T13:01:27Z</time>
      </trkpt>
      <trkpt lat="49.90161" lon="2.26282">
        <ele>29.4</ele>
        <time>2023-06-03T13:01:28Z</time>
      </trkpt>
      <trkpt lat="49.90162" lon="2.26281">
        <ele>29.5</ele>
        <time>2023-06-03T13:01:30Z</time>
      </trkpt>
      <trkpt lat="49.90163" lon="2.26281">
        <ele>29.5</ele>
        <time>2023-06-03T13:01:31Z</time>
      </trkpt>
      <trkpt lat="49.90163" lon="2.26281">
        <ele>29.5</ele>
        <time>2023-06-03T13:01:32Z</time>
      </trkpt>
      <trkpt lat="49.90164" lon="2.26281">
        <ele>29.5</ele>
        <time>2023-06-03T13:01:33Z</time>
      </trkpt>
      <trkpt lat="49.90165" lon="2.26281">
        <ele>29.5</ele>
        <time>2023-06-03T13:01:34Z</time>
      </trkpt>
      <trkpt lat="49.90165" lon="2.2628">
        <ele>29.5</ele>
        <time>2023-06-03T13:01:35Z</time>
      </trkpt>
      <trkpt lat="49.90166" lon="2.2628">
        <ele>29.5</ele>
        <time>2023-06-03T13:01:36Z</time>
      </trkpt>
      <trkpt lat="49.90167" lon="2.2628">
        <ele>29.5</ele>
        <time>2023-06-03T13:01:38Z</time>
      </trkpt>
      <trkpt lat="49.90168" lon="2.26281">
        <ele>29.6</ele>
        <time>2023-06-03T13:01:39Z</time>
      </trkpt>
      <trkpt lat="49.9017" lon="2.26281">
        <ele>29.6</ele>
        <time>2023-06-03T13:01:40Z</time>
      </trkpt>
      <trkpt lat="49.9017" lon="2.26281">
        <ele>29.6</ele>
        <time>2023-06-03T13:01:41Z</time>
      </trkpt>
      <trkpt lat="49.90171" lon="2.26281">
        <ele>29.6</ele>
        <time>2023-06-03T13:01:43Z</time>
      </trkpt>
      <trkpt lat="49.90172" lon="2.26281">
        <ele>29.6</ele>
        <time>2023-06-03T13:01:44Z</time>
      </trkpt>
      <trkpt lat="49.90174" lon="2.26281">
        <ele>29.6</ele>
        <time>2023-06-03T13:01:45Z</time>
      </trkpt>
      <trkpt lat="49.90175" lon="2.26281">
        <ele>29.6</ele>
        <time>2023-06-03T13:01:47Z</time>
      </trkpt>
      <trkpt lat="49.90175" lon="2.26281">
        <ele>29.6</ele>
        <time>2023-06-03T13:01:48Z</time>
      </trkpt>
      <trkpt lat="49.90176" lon="2.26281">
        <ele>29.7</ele>
        <time>2023-06-03T13:01:49Z</time>
      </trkpt>
      <trkpt lat="49.90177" lon="2.2628">
        <ele>29.7</ele>
        <time>2023-06-03T13:01:50Z</time>
      </trkpt>
      <trkpt lat="49.90178" lon="2.2628">
        <ele>29.7</ele>
        <time>2023-06-03T13:01:52Z</time>
      </trkpt>
      <trkpt lat="49.90179" lon="2.2628">
        <ele>29.7</ele>
        <time>2023-06-03T13:01:53Z</time>
      </trkpt>
      <trkpt lat="49.9018" lon="2.2628">
        <ele>29.7</ele>
        <time>2023-06-03T13:01:54Z</time>
      </trkpt>
      <trkpt lat="49.90181" lon="2.2628">
        <ele>29.7</ele>
        <time>2023-06-03T13:01:55Z</time>
      </trkpt>
      <trkpt lat="49.90182" lon="2.2628">
        <ele>29.7</ele>
        <time>2023-06-03T13:01:57Z</time>
      </trkpt>
      <trkpt lat="49.90184" lon="2.2628">
        <ele>29.8</ele>
        <time>2023-06-03T13:01:58Z</time>
      </trkpt>
      <trkpt lat="49.90184" lon="2.2628">
        <ele>29.8</ele>
        <time>2023-06-03T13:01:59Z</time>
      </trkpt>
      <trkpt lat="49.90185" lon="2.2628">
        <ele>29.8</ele>
        <time>2023-06-03T13:02:01Z</time>
      </trkpt>
      <trkpt lat="49.90186" lon="2.2628">
        <ele>29.8</ele>
        <time>2023-06-03T13:02:02Z</time>
      </trkpt>
      <trkpt lat="49.90187" lon="2.26279">
        <ele>29.8</ele>
        <time>2023-06-03T13:02:03Z</time>
      </trkpt>
      <trkpt lat="49.90188" lon="2.26279">
        <ele>29.8</ele>
        <time>2023-06-03T13:02:04Z</time>
      </trkpt>
      <trkpt lat="49.90189" lon="2.26279">
        <ele>29.8</ele>
        <time>2023-06-03T13:02:05Z</time>
      </trkpt>
      <trkpt lat="49.90189" lon="2.26279">
        <ele>29.8</ele>
        <time>2023-06-03T13:02:06Z</time>
      </trkpt>
      <trkpt lat="49.90189" lon="2.26279">
        <ele>29.8</ele>
        <time>2023-06-03T13:02:08Z</time>
      </trkpt>
      <trkpt lat="49.9019" lon="2.26279">
        <ele>29.8</ele>
        <time>2023-06-03T13:02:09Z</time>
      </trkpt>
      <trkpt lat="49.90191" lon="2.26279">
        <ele>29.8</ele>
        <time>2023-06-03T13:02:10Z</time>
      </trkpt>
      <trkpt lat="49.90191" lon="2.26279">
        <ele>29.8</ele>
        <time>2023-06-03T13:02:12Z</time>
      </trkpt>
      <trkpt lat="49.90191" lon="2.26279">
        <ele>29.9</ele>
        <time>2023-06-03T13:02:13Z</time>
      </trkpt>
      <trkpt lat="49.90192" lon="2.26279">
        <ele>29.9</ele>
        <time>2023-06-03T13:02:14Z</time>
      </trkpt>
      <trkpt lat="49.90193" lon="2.26278">
        <ele>29.9</ele>
        <time>2023-06-03T13:02:15Z</time>
      </trkpt>
      <trkpt lat="49.90194" lon="2.26278">
        <ele>29.9</ele>
        <time>2023-06-03T13:02:16Z</time>
      </trkpt>
      <trkpt lat="49.90195" lon="2.26278">
        <ele>29.9</ele>
        <time>2023-06-03T13:02:17Z</time>
      </trkpt>
      <trkpt lat="49.90196" lon="2.26278">
        <ele>29.9</ele>
        <time>2023-06-03T13:02:19Z</time>
      </trkpt>
      <trkpt lat="49.90197" lon="2.26278">
        <ele>29.9</ele>
        <time>2023-06-03T13:02:20Z</time>
      </trkpt>
      <trkpt lat="49.90198" lon="2.26278">
        <ele>29.9</ele>
        <time>2023-06-03T13:02:21Z</time>
      </trkpt>
      <trkpt lat="49.90199" lon="2.26278">
        <ele>30</ele>
        <time>2023-06-03T13:02:23Z</time>
      </trkpt>
      <trkpt lat="49.902" lon="2.26278">
        <ele>30</ele>
        <time>2023-06-03T13:02:24Z</time>
      </trkpt>
      <trkpt lat="49.902" lon="2.26278">
        <ele>30</ele>
        <time>2023-06-03T13:02:25Z</time>
      </trkpt>
      <trkpt lat="49.90201" lon="2.26278">
        <ele>30</ele>
        <time>2023-06-03T13:02:27Z</time>
      </trkpt>
      <trkpt lat="49.90202" lon="2.26279">
        <ele>30</ele>
        <time>2023-06-03T13:02:28Z</time>
      </trkpt>
      <trkpt lat="49.90203" lon="2.26279">
        <ele>30</ele>
        <time>2023-06-03T13:02:29Z</time>
      </trkpt>
      <trkpt lat="49.90204" lon="2.2628">
        <ele>30</ele>
        <time>2023-06-03T13:02:30Z</time>
      </trkpt>
      <trkpt lat="49.90205" lon="2.2628">
        <ele>30</ele>
        <time>2023-06-03T13:02:31Z</time>
      </trkpt>
      <trkpt lat="49.90206" lon="2.26281">
        <ele>30.1</ele>
        <time>2023-06-03T13:02:32Z</time>
      </trkpt>
      <trkpt lat="49.90207" lon="2.26281">
        <ele>30.1</ele>
        <time>2023-06-03T13:02:33Z</time>
      </trkpt>
      <trkpt lat="49.90208" lon="2.26281">
        <ele>30.1</ele>
        <time>2023-06-03T13:02:35Z</time>
      </trkpt>
      <trkpt lat="49.90209" lon="2.26281">
        <ele>30.1</ele>
        <time>2023-06-03T13:02:36Z</time>
      </trkpt>
      <trkpt lat="49.90209" lon="2.26281">
        <ele>30.1</ele>
        <time>2023-06-03T13:02:37Z</time>
      </trkpt>
      <trkpt lat="49.9021" lon="2.26281">
        <ele>30.1</ele>
        <time>2023-06-03T13:02:38Z</time>
      </trkpt>
      <trkpt lat="49.9021" lon="2.26282">
        <ele>30.1</ele>
        <time>2023-06-03T13:02:39Z</time>
      </trkpt>
      <trkpt lat="49.90211" lon="2.26282">
        <ele>30.1</ele>
        <time>2023-06-03T13:02:40Z</time>
      </trkpt>
      <trkpt lat="49.90212" lon="2.26283">
        <ele>30.1</ele>
        <time>2023-06-03T13:02:41Z</time>
      </trkpt>
      <trkpt lat="49.90213" lon="2.26283">
        <ele>30.1</ele>
        <time>2023-06-03T13:02:42Z</time>
      </trkpt>
      <trkpt lat="49.90214" lon="2.26283">
        <ele>30.2</ele>
        <time>2023-06-03T13:02:44Z</time>
      </trkpt>
      <trkpt lat="49.90214" lon="2.26282">
        <ele>30.2</ele>
        <time>2023-06-03T13:02:45Z</time>
      </trkpt>
      <trkpt lat="49.90216" lon="2.26281">
        <ele>30.2</ele>
        <time>2023-06-03T13:02:47Z</time>
      </trkpt>
      <trkpt lat="49.90216" lon="2.2628">
        <ele>30.2</ele>
        <time>2023-06-03T13:02:48Z</time>
      </trkpt>
      <trkpt lat="49.90217" lon="2.26279">
        <ele>30.2</ele>
        <time>2023-06-03T13:02:50Z</time>
      </trkpt>
      <trkpt lat="49.90217" lon="2.26279">
        <ele>30.2</ele>
        <time>2023-06-03T13:02:51Z</time>
      </trkpt>
      <trkpt lat="49.90218" lon="2.26279">
        <ele>30.2</ele>
        <time>2023-06-03T13:02:52Z</time>
      </trkpt>
      <trkpt lat="49.90218" lon="2.26279">
        <ele>30.2</ele>
        <time>2023-06-03T13:02:53Z</time>
      </trkpt>
      <trkpt lat="49.90218" lon="2.26279">
        <ele>30.2</ele>
        <time>2023-06-03T13:02:54Z</time>
      </trkpt>
      <trkpt lat="49.90218" lon="2.2628">
        <ele>30.2</ele>
        <time>2023-06-03T13:02:55Z</time>
      </trkpt>
      <trkpt lat="49.90219" lon="2.26279">
        <ele>30.2</ele>
        <time>2023-06-03T13:02:56Z</time>
      </trkpt>
      <trkpt lat="49.90219" lon="2.26279">
        <ele>30.2</ele>
        <time>2023-06-03T13:02:57Z</time>
      </trkpt>
      <trkpt lat="49.9022" lon="2.26278">
        <ele>30.3</ele>
        <time>2023-06-03T13:02:59Z</time>
      </trkpt>
      <trkpt lat="49.9022" lon="2.26278">
        <ele>30.3</ele>
        <time>2023-06-03T13:03:00Z</time>
      </trkpt>
      <trkpt lat="49.90221" lon="2.26277">
        <ele>30.3</ele>
        <time>2023-06-03T13:03:02Z</time>
      </trkpt>
      <trkpt lat="49.90222" lon="2.26276">
        <ele>30.3</ele>
        <time>2023-06-03T13:03:03Z</time>
      </trkpt>
      <trkpt lat="49.90222" lon="2.26276">
        <ele>30.3</ele>
        <time>2023-06-03T13:03:04Z</time>
      </trkpt>
      <trkpt lat="49.90222" lon="2.26276">
        <ele>30.3</ele>
        <time>2023-06-03T13:03:06Z</time>
      </trkpt>
      <trkpt lat="49.90222" lon="2.26276">
        <ele>30.3</ele>
        <time>2023-06-03T13:03:07Z</time>
      </trkpt>
      <trkpt lat="49.90222" lon="2.26276">
        <ele>30.3</ele>
        <time>2023-06-03T13:03:08Z</time>
      </trkpt>
      <trkpt lat="49.90222" lon="2.26276">
        <ele>30.3</ele>
        <time>2023-06-03T13:03:10Z</time>
      </trkpt>
      <trkpt lat="49.90222" lon="2.26276">
        <ele>30.3</ele>
        <time>2023-06-03T13:03:11Z</time>
      </trkpt>
      <trkpt lat="49.90222" lon="2.26275">
        <ele>30.3</ele>
        <time>2023-06-03T13:03:12Z</time>
      </trkpt>
      <trkpt lat="49.90223" lon="2.26275">
        <ele>30.3</ele>
        <time>2023-06-03T13:03:14Z</time>
      </trkpt>
      <trkpt lat="49.90223" lon="2.26275">
        <ele>30.3</ele>
        <time>2023-06-03T13:03:15Z</time>
      </trkpt>
      <trkpt lat="49.90224" lon="2.26274">
        <ele>30.3</ele>
        <time>2023-06-03T13:03:16Z</time>
      </trkpt>
      <trkpt lat="49.90224" lon="2.26274">
        <ele>30.3</ele>
        <time>2023-06-03T13:03:17Z</time>
      </trkpt>
      <trkpt lat="49.90224" lon="2.26273">
        <ele>30.3</ele>
        <time>2023-06-03T13:03:18Z</time>
      </trkpt>
      <trkpt lat="49.90224" lon="2.26273">
        <ele>30.3</ele>
        <time>2023-06-03T13:03:19Z</time>
      </trkpt>
      <trkpt lat="49.90224" lon="2.26273">
        <ele>30.3</ele>
        <time>2023-06-03T13:03:20Z</time>
      </trkpt>
      <trkpt lat="49.90224" lon="2.26273">
        <ele>30.3</ele>
        <time>2023-06-03T13:03:21Z</time>
      </trkpt>
      <trkpt lat="49.90224" lon="2.26273">
        <ele>30.3</ele>
        <time>2023-06-03T13:03:22Z</time>
      </trkpt>
      <trkpt lat="49.90224" lon="2.26273">
        <ele>30.3</ele>
        <time>2023-06-03T13:03:23Z</time>
      </trkpt>
      <trkpt lat="49.90224" lon="2.26273">
        <ele>30.3</ele>
        <time>2023-06-03T13:03:24Z</time>
      </trkpt>
      <trkpt lat="49.90224" lon="2.26273">
        <ele>30.3</ele>
        <time>2023-06-03T13:03:25Z</time>
      </trkpt>
      <trkpt lat="49.90224" lon="2.26273">
        <ele>30.3</ele>
        <time>2023-06-03T13:03:26Z</time>
      </trkpt>
      <trkpt lat="49.90224" lon="2.26273">
        <ele>30.3</ele>
        <time>2023-06-03T13:03:27Z</time>
      </trkpt>
      <trkpt lat="49.90224" lon="2.26273">
        <ele>30.3</ele>
        <time>2023-06-03T13:03:28Z</time>
      </trkpt>
      <trkpt lat="49.90224" lon="2.26273">
        <ele>30.3</ele>
        <time>2023-06-03T13:03:29Z</time>
      </trkpt>
      <trkpt lat="49.90224" lon="2.26273">
        <ele>30.3</ele>
        <time>2023-06-03T13:03:30Z</time>
      </trkpt>
      <trkpt lat="49.90224" lon="2.26273">
        <ele>30.3</ele>
        <time>2023-06-03T13:03:31Z</time>
      </trkpt>
      <trkpt lat="49.90224" lon="2.26273">
        <ele>30.3</ele>
        <time>2023-06-03T13:03:32Z</time>
      </trkpt>
      <trkpt lat="49.90224" lon="2.26273">
        <ele>30.3</ele>
        <time>2023-06-03T13:03:33Z</time>
      </trkpt>
      <trkpt lat="49.90224" lon="2.26273">
        <ele>30.3</ele>
        <time>2023-06-03T13:03:34Z</time>
      </trkpt>
      <trkpt lat="49.90224" lon="2.26273">
        <ele>30.3</ele>
        <time>2023-06-03T13:03:35Z</time>
      </trkpt>
      <trkpt lat="49.90224" lon="2.26273">
        <ele>30.3</ele>
        <time>2023-06-03T13:03:36Z</time>
      </trkpt>
      <trkpt lat="49.90224" lon="2.26273">
        <ele>30.3</ele>
        <time>2023-06-03T13:03:37Z</time>
      </trkpt>
      <trkpt lat="49.90224" lon="2.26273">
        <ele>30.3</ele>
        <time>2023-06-03T13:03:38Z</time>
      </trkpt>
      <trkpt lat="49.90222" lon="2.26273">
        <ele>30.3</ele>
        <time>2023-06-03T13:03:39Z</time>
      </trkpt>
      <trkpt lat="49.90222" lon="2.26272">
        <ele>30.3</ele>
        <time>2023-06-03T13:03:40Z</time>
      </trkpt>
      <trkpt lat="49.90222" lon="2.26272">
        <ele>30.3</ele>
        <time>2023-06-03T13:03:41Z</time>
      </trkpt>
      <trkpt lat="49.90222" lon="2.26272">
        <ele>30.3</ele>
        <time>2023-06-03T13:03:42Z</time>
      </trkpt>
      <trkpt lat="49.90222" lon="2.26272">
        <ele>30.3</ele>
        <time>2023-06-03T13:03:43Z</time>
      </trkpt>
      <trkpt lat="49.90222" lon="2.26272">
        <ele>30.3</ele>
        <time>2023-06-03T13:03:44Z</time>
      </trkpt>
      <trkpt lat="49.90222" lon="2.26272">
        <ele>30.3</ele>
        <time>2023-06-03T13:03:45Z</time>
      </trkpt>
      <trkpt lat="49.90222" lon="2.26272">
        <ele>30.3</ele>
        <time>2023-06-03T13:03:46Z</time>
      </trkpt>
      <trkpt lat="49.90222" lon="2.26272">
        <ele>30.3</ele>
        <time>2023-06-03T13:03:47Z</time>
      </trkpt>
      <trkpt lat="49.90222" lon="2.26272">
        <ele>30.3</ele>
        <time>2023-06-03T13:03:48Z</time>
      </trkpt>
      <trkpt lat="49.90222" lon="2.26272">
        <ele>30.3</ele>
        <time>2023-06-03T13:03:49Z</time>
      </trkpt>
      <trkpt lat="49.90222" lon="2.26272">
        <ele>30.3</ele>
        <time>2023-06-03T13:03:50Z</time>
      </trkpt>
      <trkpt lat="49.90222" lon="2.26272">
        <ele>30.3</ele>
        <time>2023-06-03T13:03:51Z</time>
      </trkpt>
      <trkpt lat="49.90222" lon="2.26272">
        <ele>30.3</ele>
        <time>2023-06-03T13:03:52Z</time>
      </trkpt>
      <trkpt lat="49.90222" lon="2.26272">
        <ele>30.3</ele>
        <time>2023-06-03T13:03:53Z</time>
      </trkpt>
      <trkpt lat="49.90222" lon="2.26272">
        <ele>30.3</ele>
        <time>2023-06-03T13:03:54Z</time>
      </trkpt>
      <trkpt lat="49.90222" lon="2.26272">
        <ele>30.3</ele>
        <time>2023-06-03T13:03:55Z</time>
      </trkpt>
      <trkpt lat="49.90222" lon="2.26272">
        <ele>30.3</ele>
        <time>2023-06-03T13:03:56Z</time>
      </trkpt>
      <trkpt lat="49.90222" lon="2.26272">
        <ele>30.3</ele>
        <time>2023-06-03T13:03:57Z</time>
      </trkpt>
      <trkpt lat="49.90222" lon="2.26273">
        <ele>30.3</ele>
        <time>2023-06-03T13:03:58Z</time>
      </trkpt>
      <trkpt lat="49.90222" lon="2.26273">
        <ele>30.3</ele>
        <time>2023-06-03T13:03:59Z</time>
      </trkpt>
      <trkpt lat="49.90222" lon="2.26273">
        <ele>30.3</ele>
        <time>2023-06-03T13:04:00Z</time>
      </trkpt>
      <trkpt lat="49.90222" lon="2.26273">
        <ele>30.3</ele>
        <time>2023-06-03T13:04:01Z</time>
      </trkpt>
      <trkpt lat="49.90222" lon="2.26273">
        <ele>30.3</ele>
        <time>2023-06-03T13:04:02Z</time>
      </trkpt>
      <trkpt lat="49.90222" lon="2.26273">
        <ele>30.3</ele>
        <time>2023-06-03T13:04:03Z</time>
      </trkpt>
      <trkpt lat="49.90222" lon="2.26273">
        <ele>30.3</ele>
        <time>2023-06-03T13:04:04Z</time>
      </trkpt>
      <trkpt lat="49.90222" lon="2.26273">
        <ele>30.3</ele>
        <time>2023-06-03T13:04:05Z</time>
      </trkpt>
      <trkpt lat="49.90223" lon="2.26273">
        <ele>30.2</ele>
        <time>2023-06-03T13:04:06Z</time>
      </trkpt>
      <trkpt lat="49.90223" lon="2.26274">
        <ele>30.2</ele>
        <time>2023-06-03T13:04:08Z</time>
      </trkpt>
      <trkpt lat="49.90223" lon="2.26275">
        <ele>30.2</ele>
        <time>2023-06-03T13:04:09Z</time>
      </trkpt>
      <trkpt lat="49.90222" lon="2.26277">
        <ele>30.2</ele>
        <time>2023-06-03T13:04:10Z</time>
      </trkpt>
      <trkpt lat="49.90222" lon="2.26279">
        <ele>30.2</ele>
        <time>2023-06-03T13:04:11Z</time>
      </trkpt>
      <trkpt lat="49.90222" lon="2.26281">
        <ele>30.1</ele>
        <time>2023-06-03T13:04:12Z</time>
      </trkpt>
      <trkpt lat="49.90222" lon="2.26284">
        <ele>30.1</ele>
        <time>2023-06-03T13:04:13Z</time>
      </trkpt>
      <trkpt lat="49.90223" lon="2.26287">
        <ele>30</ele>
        <time>2023-06-03T13:04:14Z</time>
      </trkpt>
      <trkpt lat="49.90223" lon="2.2629">
        <ele>30</ele>
        <time>2023-06-03T13:04:16Z</time>
      </trkpt>
      <trkpt lat="49.90224" lon="2.26292">
        <ele>30</ele>
        <time>2023-06-03T13:04:17Z</time>
      </trkpt>
      <trkpt lat="49.90224" lon="2.26295">
        <ele>29.9</ele>
        <time>2023-06-03T13:04:18Z</time>
      </trkpt>
      <trkpt lat="49.90225" lon="2.26297">
        <ele>29.9</ele>
        <time>2023-06-03T13:04:19Z</time>
      </trkpt>
      <trkpt lat="49.90225" lon="2.26299">
        <ele>29.9</ele>
        <time>2023-06-03T13:04:20Z</time>
      </trkpt>
      <trkpt lat="49.90226" lon="2.26302">
        <ele>29.8</ele>
        <time>2023-06-03T13:04:22Z</time>
      </trkpt>
      <trkpt lat="49.90227" lon="2.26305">
        <ele>29.8</ele>
        <time>2023-06-03T13:04:23Z</time>
      </trkpt>
      <trkpt lat="49.90227" lon="2.26308">
        <ele>29.8</ele>
        <time>2023-06-03T13:04:24Z</time>
      </trkpt>
      <trkpt lat="49.90227" lon="2.26309">
        <ele>29.7</ele>
        <time>2023-06-03T13:04:25Z</time>
      </trkpt>
      <trkpt lat="49.90227" lon="2.26311">
        <ele>29.7</ele>
        <time>2023-06-03T13:04:26Z</time>
      </trkpt>
      <trkpt lat="49.90228" lon="2.26313">
        <ele>29.7</ele>
        <time>2023-06-03T13:04:27Z</time>
      </trkpt>
      <trkpt lat="49.90229" lon="2.26315">
        <ele>29.7</ele>
        <time>2023-06-03T13:04:28Z</time>
      </trkpt>
      <trkpt lat="49.9023" lon="2.26317">
        <ele>29.6</ele>
        <time>2023-06-03T13:04:29Z</time>
      </trkpt>
      <trkpt lat="49.9023" lon="2.26319">
        <ele>29.6</ele>
        <time>2023-06-03T13:04:30Z</time>
      </trkpt>
      <trkpt lat="49.90231" lon="2.26321">
        <ele>29.6</ele>
        <time>2023-06-03T13:04:32Z</time>
      </trkpt>
      <trkpt lat="49.90231" lon="2.26324">
        <ele>29.5</ele>
        <time>2023-06-03T13:04:33Z</time>
      </trkpt>
      <trkpt lat="49.90232" lon="2.26327">
        <ele>29.5</ele>
        <time>2023-06-03T13:04:34Z</time>
      </trkpt>
      <trkpt lat="49.90232" lon="2.26328">
        <ele>29.5</ele>
        <time>2023-06-03T13:04:35Z</time>
      </trkpt>
      <trkpt lat="49.90233" lon="2.2633">
        <ele>29.5</ele>
        <time>2023-06-03T13:04:36Z</time>
      </trkpt>
      <trkpt lat="49.90233" lon="2.26331">
        <ele>29.5</ele>
        <time>2023-06-03T13:04:37Z</time>
      </trkpt>
      <trkpt lat="49.90233" lon="2.26333">
        <ele>29.4</ele>
        <time>2023-06-03T13:04:38Z</time>
      </trkpt>
      <trkpt lat="49.90233" lon="2.26335">
        <ele>29.4</ele>
        <time>2023-06-03T13:04:39Z</time>
      </trkpt>
      <trkpt lat="49.90233" lon="2.26337">
        <ele>29.4</ele>
        <time>2023-06-03T13:04:41Z</time>
      </trkpt>
      <trkpt lat="49.90234" lon="2.26339">
        <ele>29.4</ele>
        <time>2023-06-03T13:04:42Z</time>
      </trkpt>
      <trkpt lat="49.90234" lon="2.26342">
        <ele>29.3</ele>
        <time>2023-06-03T13:04:44Z</time>
      </trkpt>
      <trkpt lat="49.90234" lon="2.26343">
        <ele>29.3</ele>
        <time>2023-06-03T13:04:45Z</time>
      </trkpt>
      <trkpt lat="49.90235" lon="2.26344">
        <ele>29.3</ele>
        <time>2023-06-03T13:04:46Z</time>
      </trkpt>
      <trkpt lat="49.90234" lon="2.26346">
        <ele>29.3</ele>
        <time>2023-06-03T13:04:47Z</time>
      </trkpt>
      <trkpt lat="49.90235" lon="2.26347">
        <ele>29.3</ele>
        <time>2023-06-03T13:04:48Z</time>
      </trkpt>
      <trkpt lat="49.90235" lon="2.26349">
        <ele>29.3</ele>
        <time>2023-06-03T13:04:49Z</time>
      </trkpt>
      <trkpt lat="49.90235" lon="2.2635">
        <ele>29.2</ele>
        <time>2023-06-03T13:04:50Z</time>
      </trkpt>
      <trkpt lat="49.90234" lon="2.26352">
        <ele>29.2</ele>
        <time>2023-06-03T13:04:51Z</time>
      </trkpt>
      <trkpt lat="49.90234" lon="2.26353">
        <ele>29.2</ele>
        <time>2023-06-03T13:04:52Z</time>
      </trkpt>
      <trkpt lat="49.90235" lon="2.26355">
        <ele>29.2</ele>
        <time>2023-06-03T13:04:53Z</time>
      </trkpt>
      <trkpt lat="49.90235" lon="2.26358">
        <ele>29.2</ele>
        <time>2023-06-03T13:04:55Z</time>
      </trkpt>
      <trkpt lat="49.90235" lon="2.26359">
        <ele>29.1</ele>
        <time>2023-06-03T13:04:56Z</time>
      </trkpt>
      <trkpt lat="49.90235" lon="2.26361">
        <ele>29.1</ele>
        <time>2023-06-03T13:04:57Z</time>
      </trkpt>
      <trkpt lat="49.90235" lon="2.26363">
        <ele>29.1</ele>
        <time>2023-06-03T13:04:58Z</time>
      </trkpt>
      <trkpt lat="49.90235" lon="2.26365">
        <ele>29.1</ele>
        <time>2023-06-03T13:04:59Z</time>
      </trkpt>
      <trkpt lat="49.90235" lon="2.26367">
        <ele>29.1</ele>
        <time>2023-06-03T13:05:00Z</time>
      </trkpt>
      <trkpt lat="49.90235" lon="2.26369">
        <ele>29.1</ele>
        <time>2023-06-03T13:05:01Z</time>
      </trkpt>
      <trkpt lat="49.90235" lon="2.26374">
        <ele>29</ele>
        <time>2023-06-03T13:05:03Z</time>
      </trkpt>
      <trkpt lat="49.90236" lon="2.26376">
        <ele>29</ele>
        <time>2023-06-03T13:05:04Z</time>
      </trkpt>
      <trkpt lat="49.90236" lon="2.26378">
        <ele>29</ele>
        <time>2023-06-03T13:05:05Z</time>
      </trkpt>
      <trkpt lat="49.90237" lon="2.26381">
        <ele>29</ele>
        <time>2023-06-03T13:05:07Z</time>
      </trkpt>
      <trkpt lat="49.90237" lon="2.26383">
        <ele>29</ele>
        <time>2023-06-03T13:05:08Z</time>
      </trkpt>
      <trkpt lat="49.90237" lon="2.26384">
        <ele>28.9</ele>
        <time>2023-06-03T13:05:09Z</time>
      </trkpt>
      <trkpt lat="49.90238" lon="2.26387">
        <ele>28.9</ele>
        <time>2023-06-03T13:05:10Z</time>
      </trkpt>
      <trkpt lat="49.90238" lon="2.26389">
        <ele>28.9</ele>
        <time>2023-06-03T13:05:12Z</time>
      </trkpt>
      <trkpt lat="49.90239" lon="2.26391">
        <ele>28.9</ele>
        <time>2023-06-03T13:05:13Z</time>
      </trkpt>
      <trkpt lat="49.9024" lon="2.26394">
        <ele>28.9</ele>
        <time>2023-06-03T13:05:14Z</time>
      </trkpt>
      <trkpt lat="49.9024" lon="2.26397">
        <ele>28.9</ele>
        <time>2023-06-03T13:05:15Z</time>
      </trkpt>
      <trkpt lat="49.9024" lon="2.264">
        <ele>28.9</ele>
        <time>2023-06-03T13:05:16Z</time>
      </trkpt>
      <trkpt lat="49.90241" lon="2.26402">
        <ele>28.9</ele>
        <time>2023-06-03T13:05:17Z</time>
      </trkpt>
      <trkpt lat="49.90241" lon="2.26404">
        <ele>28.8</ele>
        <time>2023-06-03T13:05:18Z</time>
      </trkpt>
      <trkpt lat="49.90242" lon="2.26409">
        <ele>28.8</ele>
        <time>2023-06-03T13:05:20Z</time>
      </trkpt>
      <trkpt lat="49.90243" lon="2.26411">
        <ele>28.8</ele>
        <time>2023-06-03T13:05:21Z</time>
      </trkpt>
      <trkpt lat="49.90244" lon="2.26413">
        <ele>28.8</ele>
        <time>2023-06-03T13:05:22Z</time>
      </trkpt>
      <trkpt lat="49.90244" lon="2.26415">
        <ele>28.8</ele>
        <time>2023-06-03T13:05:24Z</time>
      </trkpt>
      <trkpt lat="49.90244" lon="2.26416">
        <ele>28.8</ele>
        <time>2023-06-03T13:05:25Z</time>
      </trkpt>
      <trkpt lat="49.90245" lon="2.26418">
        <ele>28.8</ele>
        <time>2023-06-03T13:05:26Z</time>
      </trkpt>
      <trkpt lat="49.90245" lon="2.2642">
        <ele>28.8</ele>
        <time>2023-06-03T13:05:27Z</time>
      </trkpt>
      <trkpt lat="49.90246" lon="2.26421">
        <ele>28.8</ele>
        <time>2023-06-03T13:05:28Z</time>
      </trkpt>
      <trkpt lat="49.90246" lon="2.26423">
        <ele>28.8</ele>
        <time>2023-06-03T13:05:29Z</time>
      </trkpt>
      <trkpt lat="49.90246" lon="2.26424">
        <ele>28.8</ele>
        <time>2023-06-03T13:05:30Z</time>
      </trkpt>
      <trkpt lat="49.90247" lon="2.26426">
        <ele>28.8</ele>
        <time>2023-06-03T13:05:32Z</time>
      </trkpt>
      <trkpt lat="49.90247" lon="2.26427">
        <ele>28.8</ele>
        <time>2023-06-03T13:05:33Z</time>
      </trkpt>
      <trkpt lat="49.90248" lon="2.2643">
        <ele>28.8</ele>
        <time>2023-06-03T13:05:34Z</time>
      </trkpt>
      <trkpt lat="49.90249" lon="2.26431">
        <ele>28.8</ele>
        <time>2023-06-03T13:05:35Z</time>
      </trkpt>
      <trkpt lat="49.90249" lon="2.26433">
        <ele>28.8</ele>
        <time>2023-06-03T13:05:36Z</time>
      </trkpt>
      <trkpt lat="49.90249" lon="2.26435">
        <ele>28.8</ele>
        <time>2023-06-03T13:05:37Z</time>
      </trkpt>
      <trkpt lat="49.90249" lon="2.26438">
        <ele>28.8</ele>
        <time>2023-06-03T13:05:39Z</time>
      </trkpt>
      <trkpt lat="49.90249" lon="2.26439">
        <ele>28.8</ele>
        <time>2023-06-03T13:05:40Z</time>
      </trkpt>
      <trkpt lat="49.9025" lon="2.2644">
        <ele>28.8</ele>
        <time>2023-06-03T13:05:41Z</time>
      </trkpt>
      <trkpt lat="49.9025" lon="2.26442">
        <ele>28.9</ele>
        <time>2023-06-03T13:05:42Z</time>
      </trkpt>
      <trkpt lat="49.90251" lon="2.26443">
        <ele>28.9</ele>
        <time>2023-06-03T13:05:43Z</time>
      </trkpt>
      <trkpt lat="49.90251" lon="2.26447">
        <ele>28.9</ele>
        <time>2023-06-03T13:05:44Z</time>
      </trkpt>
      <trkpt lat="49.90251" lon="2.26448">
        <ele>28.9</ele>
        <time>2023-06-03T13:05:45Z</time>
      </trkpt>
      <trkpt lat="49.90252" lon="2.26449">
        <ele>28.9</ele>
        <time>2023-06-03T13:05:46Z</time>
      </trkpt>
      <trkpt lat="49.90252" lon="2.26451">
        <ele>28.9</ele>
        <time>2023-06-03T13:05:48Z</time>
      </trkpt>
      <trkpt lat="49.90252" lon="2.26453">
        <ele>28.9</ele>
        <time>2023-06-03T13:05:49Z</time>
      </trkpt>
      <trkpt lat="49.90254" lon="2.26458">
        <ele>29</ele>
        <time>2023-06-03T13:05:50Z</time>
      </trkpt>
      <trkpt lat="49.90254" lon="2.26459">
        <ele>29</ele>
        <time>2023-06-03T13:05:51Z</time>
      </trkpt>
      <trkpt lat="49.90254" lon="2.2646">
        <ele>29</ele>
        <time>2023-06-03T13:05:52Z</time>
      </trkpt>
      <trkpt lat="49.90255" lon="2.26462">
        <ele>29.1</ele>
        <time>2023-06-03T13:05:53Z</time>
      </trkpt>
      <trkpt lat="49.90255" lon="2.26464">
        <ele>29.1</ele>
        <time>2023-06-03T13:05:55Z</time>
      </trkpt>
      <trkpt lat="49.90255" lon="2.26466">
        <ele>29.1</ele>
        <time>2023-06-03T13:05:56Z</time>
      </trkpt>
      <trkpt lat="49.90256" lon="2.26467">
        <ele>29.1</ele>
        <time>2023-06-03T13:05:57Z</time>
      </trkpt>
      <trkpt lat="49.90256" lon="2.26469">
        <ele>29.2</ele>
        <time>2023-06-03T13:05:58Z</time>
      </trkpt>
      <trkpt lat="49.90257" lon="2.26472">
        <ele>29.2</ele>
        <time>2023-06-03T13:05:59Z</time>
      </trkpt>
      <trkpt lat="49.90257" lon="2.26473">
        <ele>29.2</ele>
        <time>2023-06-03T13:06:00Z</time>
      </trkpt>
      <trkpt lat="49.90257" lon="2.26475">
        <ele>29.3</ele>
        <time>2023-06-03T13:06:01Z</time>
      </trkpt>
      <trkpt lat="49.90257" lon="2.26477">
        <ele>29.3</ele>
        <time>2023-06-03T13:06:02Z</time>
      </trkpt>
      <trkpt lat="49.90257" lon="2.26478">
        <ele>29.3</ele>
        <time>2023-06-03T13:06:03Z</time>
      </trkpt>
      <trkpt lat="49.90258" lon="2.26481">
        <ele>29.4</ele>
        <time>2023-06-03T13:06:05Z</time>
      </trkpt>
      <trkpt lat="49.90258" lon="2.26482">
        <ele>29.4</ele>
        <time>2023-06-03T13:06:06Z</time>
      </trkpt>
      <trkpt lat="49.90258" lon="2.26484">
        <ele>29.4</ele>
        <time>2023-06-03T13:06:07Z</time>
      </trkpt>
      <trkpt lat="49.90258" lon="2.26486">
        <ele>29.5</ele>
        <time>2023-06-03T13:06:08Z</time>
      </trkpt>
      <trkpt lat="49.90258" lon="2.26488">
        <ele>29.5</ele>
        <time>2023-06-03T13:06:09Z</time>
      </trkpt>
      <trkpt lat="49.90258" lon="2.26489">
        <ele>29.5</ele>
        <time>2023-06-03T13:06:10Z</time>
      </trkpt>
      <trkpt lat="49.90258" lon="2.26491">
        <ele>29.6</ele>
        <time>2023-06-03T13:06:11Z</time>
      </trkpt>
      <trkpt lat="49.90258" lon="2.26494">
        <ele>29.6</ele>
        <time>2023-06-03T13:06:13Z</time>
      </trkpt>
      <trkpt lat="49.90259" lon="2.26496">
        <ele>29.7</ele>
        <time>2023-06-03T13:06:14Z</time>
      </trkpt>
      <trkpt lat="49.90259" lon="2.26498">
        <ele>29.7</ele>
        <time>2023-06-03T13:06:15Z</time>
      </trkpt>
      <trkpt lat="49.90259" lon="2.265">
        <ele>29.7</ele>
        <time>2023-06-03T13:06:16Z</time>
      </trkpt>
      <trkpt lat="49.90259" lon="2.26501">
        <ele>29.8</ele>
        <time>2023-06-03T13:06:17Z</time>
      </trkpt>
      <trkpt lat="49.90259" lon="2.26504">
        <ele>29.8</ele>
        <time>2023-06-03T13:06:18Z</time>
      </trkpt>
      <trkpt lat="49.90259" lon="2.26505">
        <ele>29.9</ele>
        <time>2023-06-03T13:06:19Z</time>
      </trkpt>
      <trkpt lat="49.9026" lon="2.26508">
        <ele>29.9</ele>
        <time>2023-06-03T13:06:21Z</time>
      </trkpt>
      <trkpt lat="49.90261" lon="2.2651">
        <ele>30</ele>
        <time>2023-06-03T13:06:22Z</time>
      </trkpt>
      <trkpt lat="49.90261" lon="2.26513">
        <ele>30.1</ele>
        <time>2023-06-03T13:06:23Z</time>
      </trkpt>
      <trkpt lat="49.90261" lon="2.26515">
        <ele>30.1</ele>
        <time>2023-06-03T13:06:24Z</time>
      </trkpt>
      <trkpt lat="49.90262" lon="2.26518">
        <ele>30.2</ele>
        <time>2023-06-03T13:06:26Z</time>
      </trkpt>
      <trkpt lat="49.90262" lon="2.2652">
        <ele>30.2</ele>
        <time>2023-06-03T13:06:27Z</time>
      </trkpt>
      <trkpt lat="49.90262" lon="2.26522">
        <ele>30.2</ele>
        <time>2023-06-03T13:06:28Z</time>
      </trkpt>
      <trkpt lat="49.90263" lon="2.26525">
        <ele>30.3</ele>
        <time>2023-06-03T13:06:29Z</time>
      </trkpt>
      <trkpt lat="49.90263" lon="2.26526">
        <ele>30.4</ele>
        <time>2023-06-03T13:06:30Z</time>
      </trkpt>
      <trkpt lat="49.90263" lon="2.26528">
        <ele>30.4</ele>
        <time>2023-06-03T13:06:31Z</time>
      </trkpt>
      <trkpt lat="49.90264" lon="2.26529">
        <ele>30.4</ele>
        <time>2023-06-03T13:06:32Z</time>
      </trkpt>
      <trkpt lat="49.90264" lon="2.26531">
        <ele>30.5</ele>
        <time>2023-06-03T13:06:33Z</time>
      </trkpt>
      <trkpt lat="49.90265" lon="2.26533">
        <ele>30.5</ele>
        <time>2023-06-03T13:06:35Z</time>
      </trkpt>
      <trkpt lat="49.90265" lon="2.26536">
        <ele>30.6</ele>
        <time>2023-06-03T13:06:36Z</time>
      </trkpt>
      <trkpt lat="49.90265" lon="2.26538">
        <ele>30.7</ele>
        <time>2023-06-03T13:06:37Z</time>
      </trkpt>
      <trkpt lat="49.90266" lon="2.26539">
        <ele>30.7</ele>
        <time>2023-06-03T13:06:38Z</time>
      </trkpt>
      <trkpt lat="49.90266" lon="2.2654">
        <ele>30.7</ele>
        <time>2023-06-03T13:06:39Z</time>
      </trkpt>
      <trkpt lat="49.90266" lon="2.26542">
        <ele>30.8</ele>
        <time>2023-06-03T13:06:40Z</time>
      </trkpt>
      <trkpt lat="49.90266" lon="2.26544">
        <ele>30.8</ele>
        <time>2023-06-03T13:06:41Z</time>
      </trkpt>
      <trkpt lat="49.90266" lon="2.26545">
        <ele>30.8</ele>
        <time>2023-06-03T13:06:43Z</time>
      </trkpt>
      <trkpt lat="49.90267" lon="2.26548">
        <ele>30.9</ele>
        <time>2023-06-03T13:06:44Z</time>
      </trkpt>
      <trkpt lat="49.90267" lon="2.2655">
        <ele>31</ele>
        <time>2023-06-03T13:06:45Z</time>
      </trkpt>
      <trkpt lat="49.90267" lon="2.26551">
        <ele>31</ele>
        <time>2023-06-03T13:06:46Z</time>
      </trkpt>
      <trkpt lat="49.90267" lon="2.26553">
        <ele>31</ele>
        <time>2023-06-03T13:06:47Z</time>
      </trkpt>
      <trkpt lat="49.90267" lon="2.26554">
        <ele>31.1</ele>
        <time>2023-06-03T13:06:48Z</time>
      </trkpt>
      <trkpt lat="49.90267" lon="2.26556">
        <ele>31.1</ele>
        <time>2023-06-03T13:06:50Z</time>
      </trkpt>
      <trkpt lat="49.90268" lon="2.26558">
        <ele>31.2</ele>
        <time>2023-06-03T13:06:51Z</time>
      </trkpt>
      <trkpt lat="49.90268" lon="2.2656">
        <ele>31.2</ele>
        <time>2023-06-03T13:06:52Z</time>
      </trkpt>
      <trkpt lat="49.90268" lon="2.26562">
        <ele>31.3</ele>
        <time>2023-06-03T13:06:53Z</time>
      </trkpt>
      <trkpt lat="49.90269" lon="2.26565">
        <ele>31.3</ele>
        <time>2023-06-03T13:06:54Z</time>
      </trkpt>
      <trkpt lat="49.90269" lon="2.26567">
        <ele>31.4</ele>
        <time>2023-06-03T13:06:55Z</time>
      </trkpt>
      <trkpt lat="49.90269" lon="2.26568">
        <ele>31.4</ele>
        <time>2023-06-03T13:06:57Z</time>
      </trkpt>
      <trkpt lat="49.90269" lon="2.2657">
        <ele>31.5</ele>
        <time>2023-06-03T13:06:58Z</time>
      </trkpt>
      <trkpt lat="49.90269" lon="2.26572">
        <ele>31.5</ele>
        <time>2023-06-03T13:06:59Z</time>
      </trkpt>
      <trkpt lat="49.90269" lon="2.26573">
        <ele>31.5</ele>
        <time>2023-06-03T13:07:00Z</time>
      </trkpt>
      <trkpt lat="49.90269" lon="2.26575">
        <ele>31.6</ele>
        <time>2023-06-03T13:07:01Z</time>
      </trkpt>
      <trkpt lat="49.90269" lon="2.26576">
        <ele>31.6</ele>
        <time>2023-06-03T13:07:02Z</time>
      </trkpt>
      <trkpt lat="49.90268" lon="2.26578">
        <ele>31.7</ele>
        <time>2023-06-03T13:07:03Z</time>
      </trkpt>
      <trkpt lat="49.90268" lon="2.26579">
        <ele>31.7</ele>
        <time>2023-06-03T13:07:05Z</time>
      </trkpt>
      <trkpt lat="49.90268" lon="2.26581">
        <ele>31.7</ele>
        <time>2023-06-03T13:07:06Z</time>
      </trkpt>
      <trkpt lat="49.90268" lon="2.26583">
        <ele>31.8</ele>
        <time>2023-06-03T13:07:07Z</time>
      </trkpt>
      <trkpt lat="49.90268" lon="2.26584">
        <ele>31.8</ele>
        <time>2023-06-03T13:07:08Z</time>
      </trkpt>
      <trkpt lat="49.90267" lon="2.26587">
        <ele>31.9</ele>
        <time>2023-06-03T13:07:09Z</time>
      </trkpt>
      <trkpt lat="49.90268" lon="2.26588">
        <ele>31.9</ele>
        <time>2023-06-03T13:07:10Z</time>
      </trkpt>
      <trkpt lat="49.90268" lon="2.2659">
        <ele>31.9</ele>
        <time>2023-06-03T13:07:11Z</time>
      </trkpt>
      <trkpt lat="49.90269" lon="2.26592">
        <ele>32</ele>
        <time>2023-06-03T13:07:13Z</time>
      </trkpt>
      <trkpt lat="49.9027" lon="2.26595">
        <ele>32</ele>
        <time>2023-06-03T13:07:14Z</time>
      </trkpt>
      <trkpt lat="49.9027" lon="2.26597">
        <ele>32.1</ele>
        <time>2023-06-03T13:07:15Z</time>
      </trkpt>
      <trkpt lat="49.90271" lon="2.26598">
        <ele>32.1</ele>
        <time>2023-06-03T13:07:16Z</time>
      </trkpt>
      <trkpt lat="49.90272" lon="2.26599">
        <ele>32.1</ele>
        <time>2023-06-03T13:07:17Z</time>
      </trkpt>
      <trkpt lat="49.90272" lon="2.26601">
        <ele>32.2</ele>
        <time>2023-06-03T13:07:18Z</time>
      </trkpt>
      <trkpt lat="49.90273" lon="2.26602">
        <ele>32.2</ele>
        <time>2023-06-03T13:07:19Z</time>
      </trkpt>
      <trkpt lat="49.90273" lon="2.26604">
        <ele>32.2</ele>
        <time>2023-06-03T13:07:20Z</time>
      </trkpt>
      <trkpt lat="49.90274" lon="2.26607">
        <ele>32.2</ele>
        <time>2023-06-03T13:07:22Z</time>
      </trkpt>
      <trkpt lat="49.90275" lon="2.2661">
        <ele>32.3</ele>
        <time>2023-06-03T13:07:23Z</time>
      </trkpt>
      <trkpt lat="49.90275" lon="2.26612">
        <ele>32.3</ele>
        <time>2023-06-03T13:07:24Z</time>
      </trkpt>
      <trkpt lat="49.90276" lon="2.26613">
        <ele>32.3</ele>
        <time>2023-06-03T13:07:26Z</time>
      </trkpt>
      <trkpt lat="49.90276" lon="2.26614">
        <ele>32.3</ele>
        <time>2023-06-03T13:07:27Z</time>
      </trkpt>
      <trkpt lat="49.90276" lon="2.26616">
        <ele>32.4</ele>
        <time>2023-06-03T13:07:28Z</time>
      </trkpt>
      <trkpt lat="49.90277" lon="2.26617">
        <ele>32.4</ele>
        <time>2023-06-03T13:07:29Z</time>
      </trkpt>
      <trkpt lat="49.90277" lon="2.26619">
        <ele>32.4</ele>
        <time>2023-06-03T13:07:30Z</time>
      </trkpt>
      <trkpt lat="49.90277" lon="2.26621">
        <ele>32.4</ele>
        <time>2023-06-03T13:07:31Z</time>
      </trkpt>
      <trkpt lat="49.90278" lon="2.26622">
        <ele>32.5</ele>
        <time>2023-06-03T13:07:32Z</time>
      </trkpt>
      <trkpt lat="49.90278" lon="2.26626">
        <ele>32.5</ele>
        <time>2023-06-03T13:07:34Z</time>
      </trkpt>
      <trkpt lat="49.90279" lon="2.26627">
        <ele>32.5</ele>
        <time>2023-06-03T13:07:35Z</time>
      </trkpt>
      <trkpt lat="49.90279" lon="2.26629">
        <ele>32.5</ele>
        <time>2023-06-03T13:07:36Z</time>
      </trkpt>
      <trkpt lat="49.90279" lon="2.26631">
        <ele>32.6</ele>
        <time>2023-06-03T13:07:38Z</time>
      </trkpt>
      <trkpt lat="49.9028" lon="2.26633">
        <ele>32.6</ele>
        <time>2023-06-03T13:07:39Z</time>
      </trkpt>
      <trkpt lat="49.9028" lon="2.26635">
        <ele>32.6</ele>
        <time>2023-06-03T13:07:40Z</time>
      </trkpt>
      <trkpt lat="49.90281" lon="2.26638">
        <ele>32.7</ele>
        <time>2023-06-03T13:07:41Z</time>
      </trkpt>
      <trkpt lat="49.90281" lon="2.2664">
        <ele>32.7</ele>
        <time>2023-06-03T13:07:43Z</time>
      </trkpt>
      <trkpt lat="49.90282" lon="2.26643">
        <ele>32.7</ele>
        <time>2023-06-03T13:07:44Z</time>
      </trkpt>
      <trkpt lat="49.90282" lon="2.26645">
        <ele>32.8</ele>
        <time>2023-06-03T13:07:45Z</time>
      </trkpt>
      <trkpt lat="49.90282" lon="2.26647">
        <ele>32.8</ele>
        <time>2023-06-03T13:07:46Z</time>
      </trkpt>
      <trkpt lat="49.90282" lon="2.26648">
        <ele>32.8</ele>
        <time>2023-06-03T13:07:47Z</time>
      </trkpt>
      <trkpt lat="49.90282" lon="2.2665">
        <ele>32.8</ele>
        <time>2023-06-03T13:07:48Z</time>
      </trkpt>
      <trkpt lat="49.90283" lon="2.26653">
        <ele>32.9</ele>
        <time>2023-06-03T13:07:49Z</time>
      </trkpt>
      <trkpt lat="49.90283" lon="2.26654">
        <ele>32.9</ele>
        <time>2023-06-03T13:07:50Z</time>
      </trkpt>
      <trkpt lat="49.90283" lon="2.26656">
        <ele>32.9</ele>
        <time>2023-06-03T13:07:52Z</time>
      </trkpt>
      <trkpt lat="49.90284" lon="2.26658">
        <ele>32.9</ele>
        <time>2023-06-03T13:07:53Z</time>
      </trkpt>
      <trkpt lat="49.90284" lon="2.26661">
        <ele>32.9</ele>
        <time>2023-06-03T13:07:54Z</time>
      </trkpt>
      <trkpt lat="49.90284" lon="2.26662">
        <ele>32.9</ele>
        <time>2023-06-03T13:07:55Z</time>
      </trkpt>
      <trkpt lat="49.90285" lon="2.26665">
        <ele>32.9</ele>
        <time>2023-06-03T13:07:56Z</time>
      </trkpt>
      <trkpt lat="49.90285" lon="2.26667">
        <ele>32.9</ele>
        <time>2023-06-03T13:07:57Z</time>
      </trkpt>
      <trkpt lat="49.90285" lon="2.26668">
        <ele>32.9</ele>
        <time>2023-06-03T13:07:58Z</time>
      </trkpt>
      <trkpt lat="49.90286" lon="2.26671">
        <ele>32.9</ele>
        <time>2023-06-03T13:07:59Z</time>
      </trkpt>
      <trkpt lat="49.90286" lon="2.26673">
        <ele>32.9</ele>
        <time>2023-06-03T13:08:01Z</time>
      </trkpt>
      <trkpt lat="49.90286" lon="2.26674">
        <ele>32.9</ele>
        <time>2023-06-03T13:08:02Z</time>
      </trkpt>
      <trkpt lat="49.90287" lon="2.26677">
        <ele>32.9</ele>
        <time>2023-06-03T13:08:03Z</time>
      </trkpt>
      <trkpt lat="49.90287" lon="2.26678">
        <ele>32.9</ele>
        <time>2023-06-03T13:08:05Z</time>
      </trkpt>
      <trkpt lat="49.90288" lon="2.26679">
        <ele>32.9</ele>
        <time>2023-06-03T13:08:06Z</time>
      </trkpt>
      <trkpt lat="49.90288" lon="2.26683">
        <ele>32.9</ele>
        <time>2023-06-03T13:08:07Z</time>
      </trkpt>
      <trkpt lat="49.90288" lon="2.26684">
        <ele>32.9</ele>
        <time>2023-06-03T13:08:08Z</time>
      </trkpt>
      <trkpt lat="49.90288" lon="2.26685">
        <ele>32.9</ele>
        <time>2023-06-03T13:08:09Z</time>
      </trkpt>
      <trkpt lat="49.90289" lon="2.26688">
        <ele>32.9</ele>
        <time>2023-06-03T13:08:10Z</time>
      </trkpt>
      <trkpt lat="49.90289" lon="2.2669">
        <ele>32.9</ele>
        <time>2023-06-03T13:08:12Z</time>
      </trkpt>
      <trkpt lat="49.9029" lon="2.26691">
        <ele>32.9</ele>
        <time>2023-06-03T13:08:13Z</time>
      </trkpt>
      <trkpt lat="49.9029" lon="2.26693">
        <ele>32.9</ele>
        <time>2023-06-03T13:08:14Z</time>
      </trkpt>
      <trkpt lat="49.9029" lon="2.26694">
        <ele>32.9</ele>
        <time>2023-06-03T13:08:15Z</time>
      </trkpt>
      <trkpt lat="49.90291" lon="2.26697">
        <ele>32.9</ele>
        <time>2023-06-03T13:08:16Z</time>
      </trkpt>
      <trkpt lat="49.90291" lon="2.26698">
        <ele>32.9</ele>
        <time>2023-06-03T13:08:17Z</time>
      </trkpt>
      <trkpt lat="49.90291" lon="2.267">
        <ele>32.9</ele>
        <time>2023-06-03T13:08:18Z</time>
      </trkpt>
      <trkpt lat="49.90291" lon="2.26702">
        <ele>32.9</ele>
        <time>2023-06-03T13:08:19Z</time>
      </trkpt>
      <trkpt lat="49.90292" lon="2.26706">
        <ele>32.9</ele>
        <time>2023-06-03T13:08:21Z</time>
      </trkpt>
      <trkpt lat="49.90292" lon="2.26707">
        <ele>32.9</ele>
        <time>2023-06-03T13:08:22Z</time>
      </trkpt>
      <trkpt lat="49.90292" lon="2.26709">
        <ele>32.9</ele>
        <time>2023-06-03T13:08:24Z</time>
      </trkpt>
      <trkpt lat="49.90293" lon="2.26711">
        <ele>32.9</ele>
        <time>2023-06-03T13:08:25Z</time>
      </trkpt>
      <trkpt lat="49.90293" lon="2.26713">
        <ele>32.8</ele>
        <time>2023-06-03T13:08:26Z</time>
      </trkpt>
      <trkpt lat="49.90293" lon="2.26714">
        <ele>32.8</ele>
        <time>2023-06-03T13:08:27Z</time>
      </trkpt>
      <trkpt lat="49.90294" lon="2.26715">
        <ele>32.8</ele>
        <time>2023-06-03T13:08:28Z</time>
      </trkpt>
      <trkpt lat="49.90294" lon="2.26717">
        <ele>32.8</ele>
        <time>2023-06-03T13:08:29Z</time>
      </trkpt>
      <trkpt lat="49.90294" lon="2.26719">
        <ele>32.8</ele>
        <time>2023-06-03T13:08:30Z</time>
      </trkpt>
      <trkpt lat="49.90294" lon="2.26722">
        <ele>32.8</ele>
        <time>2023-06-03T13:08:32Z</time>
      </trkpt>
      <trkpt lat="49.90295" lon="2.26725">
        <ele>32.8</ele>
        <time>2023-06-03T13:08:33Z</time>
      </trkpt>
      <trkpt lat="49.90295" lon="2.26726">
        <ele>32.7</ele>
        <time>2023-06-03T13:08:34Z</time>
      </trkpt>
      <trkpt lat="49.90295" lon="2.26728">
        <ele>32.7</ele>
        <time>2023-06-03T13:08:35Z</time>
      </trkpt>
      <trkpt lat="49.90295" lon="2.26729">
        <ele>32.7</ele>
        <time>2023-06-03T13:08:36Z</time>
      </trkpt>
      <trkpt lat="49.90296" lon="2.26731">
        <ele>32.7</ele>
        <time>2023-06-03T13:08:37Z</time>
      </trkpt>
      <trkpt lat="49.90296" lon="2.26734">
        <ele>32.7</ele>
        <time>2023-06-03T13:08:39Z</time>
      </trkpt>
      <trkpt lat="49.90295" lon="2.26736">
        <ele>32.5</ele>
        <time>2023-06-03T13:08:40Z</time>
      </trkpt>
      <trkpt lat="49.90294" lon="2.26736">
        <ele>32.5</ele>
        <time>2023-06-03T13:08:41Z</time>
      </trkpt>
      <trkpt lat="49.90293" lon="2.26737">
        <ele>32.4</ele>
        <time>2023-06-03T13:08:43Z</time>
      </trkpt>
      <trkpt lat="49.90292" lon="2.26738">
        <ele>32.4</ele>
        <time>2023-06-03T13:08:44Z</time>
      </trkpt>
      <trkpt lat="49.90292" lon="2.26738">
        <ele>32.4</ele>
        <time>2023-06-03T13:08:45Z</time>
      </trkpt>
      <trkpt lat="49.90291" lon="2.26739">
        <ele>32.4</ele>
        <time>2023-06-03T13:08:47Z</time>
      </trkpt>
      <trkpt lat="49.90291" lon="2.2674">
        <ele>32.4</ele>
        <time>2023-06-03T13:08:48Z</time>
      </trkpt>
      <trkpt lat="49.90292" lon="2.2674">
        <ele>32.4</ele>
        <time>2023-06-03T13:08:50Z</time>
      </trkpt>
      <trkpt lat="49.90292" lon="2.2674">
        <ele>32.4</ele>
        <time>2023-06-03T13:08:51Z</time>
      </trkpt>
      <trkpt lat="49.90292" lon="2.2674">
        <ele>32.4</ele>
        <time>2023-06-03T13:08:52Z</time>
      </trkpt>
      <trkpt lat="49.90292" lon="2.2674">
        <ele>32.4</ele>
        <time>2023-06-03T13:08:54Z</time>
      </trkpt>
      <trkpt lat="49.90292" lon="2.2674">
        <ele>32.4</ele>
        <time>2023-06-03T13:08:55Z</time>
      </trkpt>
      <trkpt lat="49.90292" lon="2.26739">
        <ele>32.3</ele>
        <time>2023-06-03T13:08:56Z</time>
      </trkpt>
      <trkpt lat="49.90292" lon="2.26738">
        <ele>32.3</ele>
        <time>2023-06-03T13:08:57Z</time>
      </trkpt>
      <trkpt lat="49.90292" lon="2.26738">
        <ele>32.3</ele>
        <time>2023-06-03T13:08:58Z</time>
      </trkpt>
      <trkpt lat="49.90292" lon="2.26738">
        <ele>32.3</ele>
        <time>2023-06-03T13:08:59Z</time>
      </trkpt>
      <trkpt lat="49.90292" lon="2.26738">
        <ele>32.3</ele>
        <time>2023-06-03T13:09:00Z</time>
      </trkpt>
      <trkpt lat="49.90292" lon="2.26738">
        <ele>32.3</ele>
        <time>2023-06-03T13:09:01Z</time>
      </trkpt>
      <trkpt lat="49.90292" lon="2.26738">
        <ele>32.3</ele>
        <time>2023-06-03T13:09:02Z</time>
      </trkpt>
      <trkpt lat="49.90292" lon="2.26738">
        <ele>32.3</ele>
        <time>2023-06-03T13:09:03Z</time>
      </trkpt>
      <trkpt lat="49.90292" lon="2.26738">
        <ele>32.3</ele>
        <time>2023-06-03T13:09:04Z</time>
      </trkpt>
      <trkpt lat="49.90292" lon="2.26738">
        <ele>32.3</ele>
        <time>2023-06-03T13:09:05Z</time>
      </trkpt>
      <trkpt lat="49.90292" lon="2.26738">
        <ele>32.3</ele>
        <time>2023-06-03T13:09:06Z</time>
      </trkpt>
      <trkpt lat="49.90292" lon="2.26738">
        <ele>32.3</ele>
        <time>2023-06-03T13:09:07Z</time>
      </trkpt>
      <trkpt lat="49.90292" lon="2.26738">
        <ele>32.3</ele>
        <time>2023-06-03T13:09:08Z</time>
      </trkpt>
      <trkpt lat="49.90292" lon="2.26738">
        <ele>32.3</ele>
        <time>2023-06-03T13:09:09Z</time>
      </trkpt>
      <trkpt lat="49.90292" lon="2.26738">
        <ele>32.3</ele>
        <time>2023-06-03T13:09:10Z</time>
      </trkpt>
      <trkpt lat="49.90292" lon="2.26738">
        <ele>32.3</ele>
        <time>2023-06-03T13:09:11Z</time>
      </trkpt>
      <trkpt lat="49.90292" lon="2.26738">
        <ele>32.3</ele>
        <time>2023-06-03T13:09:12Z</time>
      </trkpt>
      <trkpt lat="49.90292" lon="2.26738">
        <ele>32.3</ele>
        <time>2023-06-03T13:09:13Z</time>
      </trkpt>
      <trkpt lat="49.90292" lon="2.26738">
        <ele>32.3</ele>
        <time>2023-06-03T13:09:14Z</time>
      </trkpt>
      <trkpt lat="49.90292" lon="2.26738">
        <ele>32.3</ele>
        <time>2023-06-03T13:09:15Z</time>
      </trkpt>
      <trkpt lat="49.90292" lon="2.26738">
        <ele>32.3</ele>
        <time>2023-06-03T13:09:16Z</time>
      </trkpt>
      <trkpt lat="49.90292" lon="2.26738">
        <ele>32.3</ele>
        <time>2023-06-03T13:09:17Z</time>
      </trkpt>
      <trkpt lat="49.90292" lon="2.26738">
        <ele>32.3</ele>
        <time>2023-06-03T13:09:18Z</time>
      </trkpt>
      <trkpt lat="49.90292" lon="2.26738">
        <ele>32.3</ele>
        <time>2023-06-03T13:09:19Z</time>
      </trkpt>
      <trkpt lat="49.90292" lon="2.26738">
        <ele>32.3</ele>
        <time>2023-06-03T13:09:20Z</time>
      </trkpt>
      <trkpt lat="49.90292" lon="2.26738">
        <ele>32.3</ele>
        <time>2023-06-03T13:09:21Z</time>
      </trkpt>
      <trkpt lat="49.90292" lon="2.26738">
        <ele>32.3</ele>
        <time>2023-06-03T13:09:22Z</time>
      </trkpt>
      <trkpt lat="49.90292" lon="2.26738">
        <ele>32.3</ele>
        <time>2023-06-03T13:09:23Z</time>
      </trkpt>
      <trkpt lat="49.90292" lon="2.26738">
        <ele>32.3</ele>
        <time>2023-06-03T13:09:24Z</time>
      </trkpt>
      <trkpt lat="49.90292" lon="2.26738">
        <ele>32.3</ele>
        <time>2023-06-03T13:09:25Z</time>
      </trkpt>
      <trkpt lat="49.90292" lon="2.26738">
        <ele>32.3</ele>
        <time>2023-06-03T13:09:26Z</time>
      </trkpt>
      <trkpt lat="49.90292" lon="2.26738">
        <ele>32.3</ele>
        <time>2023-06-03T13:09:27Z</time>
      </trkpt>
      <trkpt lat="49.90292" lon="2.26738">
        <ele>32.3</ele>
        <time>2023-06-03T13:09:28Z</time>
      </trkpt>
      <trkpt lat="49.90292" lon="2.26738">
        <ele>32.3</ele>
        <time>2023-06-03T13:09:29Z</time>
      </trkpt>
      <trkpt lat="49.90292" lon="2.26738">
        <ele>32.3</ele>
        <time>2023-06-03T13:09:30Z</time>
      </trkpt>
      <trkpt lat="49.90292" lon="2.26738">
        <ele>32.3</ele>
        <time>2023-06-03T13:09:31Z</time>
      </trkpt>
      <trkpt lat="49.90292" lon="2.26738">
        <ele>32.3</ele>
        <time>2023-06-03T13:09:32Z</time>
      </trkpt>
      <trkpt lat="49.90292" lon="2.26738">
        <ele>32.3</ele>
        <time>2023-06-03T13:09:33Z</time>
      </trkpt>
      <trkpt lat="49.90292" lon="2.26738">
        <ele>32.3</ele>
        <time>2023-06-03T13:09:34Z</time>
      </trkpt>
      <trkpt lat="49.90292" lon="2.26738">
        <ele>32.3</ele>
        <time>2023-06-03T13:09:35Z</time>
      </trkpt>
      <trkpt lat="49.90292" lon="2.26738">
        <ele>32.3</ele>
        <time>2023-06-03T13:09:36Z</time>
      </trkpt>
      <trkpt lat="49.90292" lon="2.26738">
        <ele>32.3</ele>
        <time>2023-06-03T13:09:37Z</time>
      </trkpt>
      <trkpt lat="49.90292" lon="2.26738">
        <ele>32.3</ele>
        <time>2023-06-03T13:09:38Z</time>
      </trkpt>
      <trkpt lat="49.90292" lon="2.26738">
        <ele>32.3</ele>
        <time>2023-06-03T13:09:39Z</time>
      </trkpt>
      <trkpt lat="49.90292" lon="2.26738">
        <ele>32.3</ele>
        <time>2023-06-03T13:09:40Z</time>
      </trkpt>
      <trkpt lat="49.90292" lon="2.26738">
        <ele>32.3</ele>
        <time>2023-06-03T13:09:41Z</time>
      </trkpt>
      <trkpt lat="49.90292" lon="2.26738">
        <ele>32.3</ele>
        <time>2023-06-03T13:09:42Z</time>
      </trkpt>
      <trkpt lat="49.90292" lon="2.26738">
        <ele>32.3</ele>
        <time>2023-06-03T13:09:43Z</time>
      </trkpt>
      <trkpt lat="49.90292" lon="2.26738">
        <ele>32.3</ele>
        <time>2023-06-03T13:09:44Z</time>
      </trkpt>
      <trkpt lat="49.90292" lon="2.26738">
        <ele>32.3</ele>
        <time>2023-06-03T13:09:45Z</time>
      </trkpt>
      <trkpt lat="49.90292" lon="2.26738">
        <ele>32.3</ele>
        <time>2023-06-03T13:09:46Z</time>
      </trkpt>
      <trkpt lat="49.90292" lon="2.26738">
        <ele>32.3</ele>
        <time>2023-06-03T13:09:47Z</time>
      </trkpt>
      <trkpt lat="49.90292" lon="2.26738">
        <ele>32.3</ele>
        <time>2023-06-03T13:09:48Z</time>
      </trkpt>
      <trkpt lat="49.90292" lon="2.26738">
        <ele>32.3</ele>
        <time>2023-06-03T13:09:49Z</time>
      </trkpt>
      <trkpt lat="49.90292" lon="2.26738">
        <ele>32.3</ele>
        <time>2023-06-03T13:09:50Z</time>
      </trkpt>
      <trkpt lat="49.90292" lon="2.26738">
        <ele>32.3</ele>
        <time>2023-06-03T13:09:51Z</time>
      </trkpt>
      <trkpt lat="49.90292" lon="2.26738">
        <ele>32.3</ele>
        <time>2023-06-03T13:09:52Z</time>
      </trkpt>
      <trkpt lat="49.90292" lon="2.26738">
        <ele>32.3</ele>
        <time>2023-06-03T13:09:53Z</time>
      </trkpt>
      <trkpt lat="49.90292" lon="2.26738">
        <ele>32.3</ele>
        <time>2023-06-03T13:09:54Z</time>
      </trkpt>
      <trkpt lat="49.90292" lon="2.26738">
        <ele>32.3</ele>
        <time>2023-06-03T13:09:55Z</time>
      </trkpt>
      <trkpt lat="49.90292" lon="2.26738">
        <ele>32.3</ele>
        <time>2023-06-03T13:09:56Z</time>
      </trkpt>
      <trkpt lat="49.90294" lon="2.26733">
        <ele>32.2</ele>
        <time>2023-06-03T13:09:57Z</time>
      </trkpt>
      <trkpt lat="49.90295" lon="2.26732">
        <ele>32.2</ele>
        <time>2023-06-03T13:09:58Z</time>
      </trkpt>
      <trkpt lat="49.90295" lon="2.26732">
        <ele>32.2</ele>
        <time>2023-06-03T13:09:59Z</time>
      </trkpt>
      <trkpt lat="49.90296" lon="2.26732">
        <ele>32.2</ele>
        <time>2023-06-03T13:10:00Z</time>
      </trkpt>
      <trkpt lat="49.90296" lon="2.26732">
        <ele>32.1</ele>
        <time>2023-06-03T13:10:01Z</time>
      </trkpt>
      <trkpt lat="49.90296" lon="2.26733">
        <ele>32.1</ele>
        <time>2023-06-03T13:10:02Z</time>
      </trkpt>
      <trkpt lat="49.90295" lon="2.26734">
        <ele>32.1</ele>
        <time>2023-06-03T13:10:03Z</time>
      </trkpt>
      <trkpt lat="49.90296" lon="2.26734">
        <ele>32.1</ele>
        <time>2023-06-03T13:10:05Z</time>
      </trkpt>
      <trkpt lat="49.90297" lon="2.26735">
        <ele>32</ele>
        <time>2023-06-03T13:10:06Z</time>
      </trkpt>
      <trkpt lat="49.90298" lon="2.26736">
        <ele>32</ele>
        <time>2023-06-03T13:10:07Z</time>
      </trkpt>
      <trkpt lat="49.90298" lon="2.26738">
        <ele>32</ele>
        <time>2023-06-03T13:10:08Z</time>
      </trkpt>
      <trkpt lat="49.90298" lon="2.2674">
        <ele>31.9</ele>
        <time>2023-06-03T13:10:09Z</time>
      </trkpt>
      <trkpt lat="49.90296" lon="2.26743">
        <ele>31.8</ele>
        <time>2023-06-03T13:10:10Z</time>
      </trkpt>
      <trkpt lat="49.90295" lon="2.26746">
        <ele>31.8</ele>
        <time>2023-06-03T13:10:11Z</time>
      </trkpt>
      <trkpt lat="49.90293" lon="2.26748">
        <ele>31.7</ele>
        <time>2023-06-03T13:10:13Z</time>
      </trkpt>
      <trkpt lat="49.90292" lon="2.2675">
        <ele>31.6</ele>
        <time>2023-06-03T13:10:14Z</time>
      </trkpt>
      <trkpt lat="49.90291" lon="2.26751">
        <ele>31.6</ele>
        <time>2023-06-03T13:10:15Z</time>
      </trkpt>
      <trkpt lat="49.90289" lon="2.26753">
        <ele>31.5</ele>
        <time>2023-06-03T13:10:16Z</time>
      </trkpt>
      <trkpt lat="49.90288" lon="2.26754">
        <ele>31.5</ele>
        <time>2023-06-03T13:10:17Z</time>
      </trkpt>
      <trkpt lat="49.90287" lon="2.26756">
        <ele>31.5</ele>
        <time>2023-06-03T13:10:18Z</time>
      </trkpt>
      <trkpt lat="49.90286" lon="2.26757">
        <ele>31.4</ele>
        <time>2023-06-03T13:10:19Z</time>
      </trkpt>
      <trkpt lat="49.90283" lon="2.26759">
        <ele>31.3</ele>
        <time>2023-06-03T13:10:21Z</time>
      </trkpt>
      <trkpt lat="49.90281" lon="2.2676">
        <ele>31.2</ele>
        <time>2023-06-03T13:10:22Z</time>
      </trkpt>
      <trkpt lat="49.90279" lon="2.26762">
        <ele>31.2</ele>
        <time>2023-06-03T13:10:24Z</time>
      </trkpt>
      <trkpt lat="49.90277" lon="2.26766">
        <ele>31.1</ele>
        <time>2023-06-03T13:10:25Z</time>
      </trkpt>
      <trkpt lat="49.90277" lon="2.26767">
        <ele>31.1</ele>
        <time>2023-06-03T13:10:26Z</time>
      </trkpt>
      <trkpt lat="49.90275" lon="2.26769">
        <ele>31</ele>
        <time>2023-06-03T13:10:27Z</time>
      </trkpt>
      <trkpt lat="49.90275" lon="2.26771">
        <ele>31</ele>
        <time>2023-06-03T13:10:28Z</time>
      </trkpt>
      <trkpt lat="49.90273" lon="2.26772">
        <ele>30.9</ele>
        <time>2023-06-03T13:10:29Z</time>
      </trkpt>
      <trkpt lat="49.90272" lon="2.26774">
        <ele>30.9</ele>
        <time>2023-06-03T13:10:30Z</time>
      </trkpt>
      <trkpt lat="49.90272" lon="2.26775">
        <ele>30.8</ele>
        <time>2023-06-03T13:10:31Z</time>
      </trkpt>
      <trkpt lat="49.90271" lon="2.26776">
        <ele>30.8</ele>
        <time>2023-06-03T13:10:33Z</time>
      </trkpt>
      <trkpt lat="49.9027" lon="2.26778">
        <ele>30.8</ele>
        <time>2023-06-03T13:10:34Z</time>
      </trkpt>
      <trkpt lat="49.90269" lon="2.26779">
        <ele>30.7</ele>
        <time>2023-06-03T13:10:35Z</time>
      </trkpt>
      <trkpt lat="49.90269" lon="2.2678">
        <ele>30.7</ele>
        <time>2023-06-03T13:10:36Z</time>
      </trkpt>
      <trkpt lat="49.90268" lon="2.2678">
        <ele>30.7</ele>
        <time>2023-06-03T13:10:37Z</time>
      </trkpt>
      <trkpt lat="49.90267" lon="2.26781">
        <ele>30.6</ele>
        <time>2023-06-03T13:10:38Z</time>
      </trkpt>
      <trkpt lat="49.90266" lon="2.26782">
        <ele>30.6</ele>
        <time>2023-06-03T13:10:39Z</time>
      </trkpt>
      <trkpt lat="49.90265" lon="2.26783">
        <ele>30.5</ele>
        <time>2023-06-03T13:10:40Z</time>
      </trkpt>
      <trkpt lat="49.90263" lon="2.26785">
        <ele>30.4</ele>
        <time>2023-06-03T13:10:42Z</time>
      </trkpt>
      <trkpt lat="49.90262" lon="2.26786">
        <ele>30.4</ele>
        <time>2023-06-03T13:10:43Z</time>
      </trkpt>
      <trkpt lat="49.90261" lon="2.26788">
        <ele>30.3</ele>
        <time>2023-06-03T13:10:44Z</time>
      </trkpt>
      <trkpt lat="49.90261" lon="2.26789">
        <ele>30.2</ele>
        <time>2023-06-03T13:10:45Z</time>
      </trkpt>
      <trkpt lat="49.90261" lon="2.2679">
        <ele>30.2</ele>
        <time>2023-06-03T13:10:47Z</time>
      </trkpt>
      <trkpt lat="49.90261" lon="2.26791">
        <ele>30.2</ele>
        <time>2023-06-03T13:10:48Z</time>
      </trkpt>
      <trkpt lat="49.9026" lon="2.26793">
        <ele>30.1</ele>
        <time>2023-06-03T13:10:49Z</time>
      </trkpt>
      <trkpt lat="49.90259" lon="2.26796">
        <ele>30</ele>
        <time>2023-06-03T13:10:50Z</time>
      </trkpt>
      <trkpt lat="49.90258" lon="2.26798">
        <ele>29.9</ele>
        <time>2023-06-03T13:10:51Z</time>
      </trkpt>
      <trkpt lat="49.90257" lon="2.26799">
        <ele>29.9</ele>
        <time>2023-06-03T13:10:52Z</time>
      </trkpt>
      <trkpt lat="49.90257" lon="2.26801">
        <ele>29.8</ele>
        <time>2023-06-03T13:10:54Z</time>
      </trkpt>
      <trkpt lat="49.90256" lon="2.26803">
        <ele>29.7</ele>
        <time>2023-06-03T13:10:55Z</time>
      </trkpt>
      <trkpt lat="49.90255" lon="2.26805">
        <ele>29.6</ele>
        <time>2023-06-03T13:10:56Z</time>
      </trkpt>
      <trkpt lat="49.90253" lon="2.26806">
        <ele>29.5</ele>
        <time>2023-06-03T13:10:57Z</time>
      </trkpt>
      <trkpt lat="49.90252" lon="2.26808">
        <ele>29.5</ele>
        <time>2023-06-03T13:10:59Z</time>
      </trkpt>
      <trkpt lat="49.90251" lon="2.26809">
        <ele>29.4</ele>
        <time>2023-06-03T13:11:00Z</time>
      </trkpt>
      <trkpt lat="49.9025" lon="2.26811">
        <ele>29.3</ele>
        <time>2023-06-03T13:11:01Z</time>
      </trkpt>
      <trkpt lat="49.90249" lon="2.26812">
        <ele>29.2</ele>
        <time>2023-06-03T13:11:02Z</time>
      </trkpt>
      <trkpt lat="49.90248" lon="2.26814">
        <ele>29.1</ele>
        <time>2023-06-03T13:11:03Z</time>
      </trkpt>
      <trkpt lat="49.90247" lon="2.26814">
        <ele>29.1</ele>
        <time>2023-06-03T13:11:04Z</time>
      </trkpt>
      <trkpt lat="49.90247" lon="2.26815">
        <ele>29.1</ele>
        <time>2023-06-03T13:11:05Z</time>
      </trkpt>
      <trkpt lat="49.90245" lon="2.26817">
        <ele>29</ele>
        <time>2023-06-03T13:11:07Z</time>
      </trkpt>
      <trkpt lat="49.90245" lon="2.26817">
        <ele>28.9</ele>
        <time>2023-06-03T13:11:08Z</time>
      </trkpt>
      <trkpt lat="49.90244" lon="2.26816">
        <ele>28.9</ele>
        <time>2023-06-03T13:11:09Z</time>
      </trkpt>
      <trkpt lat="49.90244" lon="2.26817">
        <ele>28.9</ele>
        <time>2023-06-03T13:11:11Z</time>
      </trkpt>
      <trkpt lat="49.90242" lon="2.26819">
        <ele>28.8</ele>
        <time>2023-06-03T13:11:12Z</time>
      </trkpt>
      <trkpt lat="49.90241" lon="2.2682">
        <ele>28.7</ele>
        <time>2023-06-03T13:11:13Z</time>
      </trkpt>
      <trkpt lat="49.9024" lon="2.26821">
        <ele>28.6</ele>
        <time>2023-06-03T13:11:15Z</time>
      </trkpt>
      <trkpt lat="49.90239" lon="2.26821">
        <ele>28.6</ele>
        <time>2023-06-03T13:11:16Z</time>
      </trkpt>
      <trkpt lat="49.90239" lon="2.26822">
        <ele>28.6</ele>
        <time>2023-06-03T13:11:17Z</time>
      </trkpt>
      <trkpt lat="49.90237" lon="2.26823">
        <ele>28.5</ele>
        <time>2023-06-03T13:11:18Z</time>
      </trkpt>
      <trkpt lat="49.90236" lon="2.26824">
        <ele>28.4</ele>
        <time>2023-06-03T13:11:19Z</time>
      </trkpt>
      <trkpt lat="49.90234" lon="2.26825">
        <ele>28.3</ele>
        <time>2023-06-03T13:11:20Z</time>
      </trkpt>
      <trkpt lat="49.90232" lon="2.26827">
        <ele>28.2</ele>
        <time>2023-06-03T13:11:22Z</time>
      </trkpt>
      <trkpt lat="49.90231" lon="2.26829">
        <ele>28.1</ele>
        <time>2023-06-03T13:11:23Z</time>
      </trkpt>
      <trkpt lat="49.9023" lon="2.2683">
        <ele>28</ele>
        <time>2023-06-03T13:11:24Z</time>
      </trkpt>
      <trkpt lat="49.9023" lon="2.2683">
        <ele>28</ele>
        <time>2023-06-03T13:11:26Z</time>
      </trkpt>
      <trkpt lat="49.90229" lon="2.26831">
        <ele>28</ele>
        <time>2023-06-03T13:11:27Z</time>
      </trkpt>
      <trkpt lat="49.90229" lon="2.26832">
        <ele>27.9</ele>
        <time>2023-06-03T13:11:28Z</time>
      </trkpt>
      <trkpt lat="49.90228" lon="2.26833">
        <ele>27.9</ele>
        <time>2023-06-03T13:11:30Z</time>
      </trkpt>
      <trkpt lat="49.90227" lon="2.26834">
        <ele>27.8</ele>
        <time>2023-06-03T13:11:31Z</time>
      </trkpt>
      <trkpt lat="49.90225" lon="2.26837">
        <ele>27.7</ele>
        <time>2023-06-03T13:11:32Z</time>
      </trkpt>
      <trkpt lat="49.90224" lon="2.26837">
        <ele>27.7</ele>
        <time>2023-06-03T13:11:33Z</time>
      </trkpt>
      <trkpt lat="49.90224" lon="2.26838">
        <ele>27.7</ele>
        <time>2023-06-03T13:11:34Z</time>
      </trkpt>
      <trkpt lat="49.90222" lon="2.26841">
        <ele>27.6</ele>
        <time>2023-06-03T13:11:35Z</time>
      </trkpt>
      <trkpt lat="49.90221" lon="2.26842">
        <ele>27.5</ele>
        <time>2023-06-03T13:11:36Z</time>
      </trkpt>
      <trkpt lat="49.9022" lon="2.26843">
        <ele>27.5</ele>
        <time>2023-06-03T13:11:37Z</time>
      </trkpt>
      <trkpt lat="49.90218" lon="2.26847">
        <ele>27.3</ele>
        <time>2023-06-03T13:11:39Z</time>
      </trkpt>
      <trkpt lat="49.90217" lon="2.26848">
        <ele>27.3</ele>
        <time>2023-06-03T13:11:40Z</time>
      </trkpt>
      <trkpt lat="49.90216" lon="2.2685">
        <ele>27.2</ele>
        <time>2023-06-03T13:11:41Z</time>
      </trkpt>
      <trkpt lat="49.90215" lon="2.26853">
        <ele>27.2</ele>
        <time>2023-06-03T13:11:43Z</time>
      </trkpt>
      <trkpt lat="49.90215" lon="2.26855">
        <ele>27.1</ele>
        <time>2023-06-03T13:11:44Z</time>
      </trkpt>
      <trkpt lat="49.90213" lon="2.26858">
        <ele>27</ele>
        <time>2023-06-03T13:11:45Z</time>
      </trkpt>
      <trkpt lat="49.90212" lon="2.26859">
        <ele>27</ele>
        <time>2023-06-03T13:11:46Z</time>
      </trkpt>
      <trkpt lat="49.90212" lon="2.2686">
        <ele>27</ele>
        <time>2023-06-03T13:11:47Z</time>
      </trkpt>
      <trkpt lat="49.90211" lon="2.26862">
        <ele>26.9</ele>
        <time>2023-06-03T13:11:48Z</time>
      </trkpt>
      <trkpt lat="49.90209" lon="2.26864">
        <ele>26.9</ele>
        <time>2023-06-03T13:11:49Z</time>
      </trkpt>
      <trkpt lat="49.90208" lon="2.26865">
        <ele>26.8</ele>
        <time>2023-06-03T13:11:50Z</time>
      </trkpt>
      <trkpt lat="49.90207" lon="2.26866">
        <ele>26.8</ele>
        <time>2023-06-03T13:11:51Z</time>
      </trkpt>
      <trkpt lat="49.90206" lon="2.26867">
        <ele>26.7</ele>
        <time>2023-06-03T13:11:52Z</time>
      </trkpt>
      <trkpt lat="49.90204" lon="2.26869">
        <ele>26.7</ele>
        <time>2023-06-03T13:11:54Z</time>
      </trkpt>
      <trkpt lat="49.90203" lon="2.26871">
        <ele>26.6</ele>
        <time>2023-06-03T13:11:55Z</time>
      </trkpt>
      <trkpt lat="49.90202" lon="2.26872">
        <ele>26.6</ele>
        <time>2023-06-03T13:11:56Z</time>
      </trkpt>
      <trkpt lat="49.90202" lon="2.26873">
        <ele>26.6</ele>
        <time>2023-06-03T13:11:57Z</time>
      </trkpt>
      <trkpt lat="49.90201" lon="2.26874">
        <ele>26.6</ele>
        <time>2023-06-03T13:11:59Z</time>
      </trkpt>
      <trkpt lat="49.902" lon="2.26874">
        <ele>26.5</ele>
        <time>2023-06-03T13:12:00Z</time>
      </trkpt>
      <trkpt lat="49.90199" lon="2.26875">
        <ele>26.5</ele>
        <time>2023-06-03T13:12:01Z</time>
      </trkpt>
      <trkpt lat="49.90199" lon="2.26875">
        <ele>26.5</ele>
        <time>2023-06-03T13:12:02Z</time>
      </trkpt>
      <trkpt lat="49.90198" lon="2.26876">
        <ele>26.5</ele>
        <time>2023-06-03T13:12:03Z</time>
      </trkpt>
      <trkpt lat="49.90197" lon="2.26876">
        <ele>26.5</ele>
        <time>2023-06-03T13:12:04Z</time>
      </trkpt>
      <trkpt lat="49.90196" lon="2.26877">
        <ele>26.4</ele>
        <time>2023-06-03T13:12:05Z</time>
      </trkpt>
      <trkpt lat="49.90195" lon="2.26878">
        <ele>26.4</ele>
        <time>2023-06-03T13:12:06Z</time>
      </trkpt>
      <trkpt lat="49.90194" lon="2.26878">
        <ele>26.4</ele>
        <time>2023-06-03T13:12:07Z</time>
      </trkpt>
      <trkpt lat="49.90193" lon="2.26878">
        <ele>26.4</ele>
        <time>2023-06-03T13:12:09Z</time>
      </trkpt>
      <trkpt lat="49.90191" lon="2.26879">
        <ele>26.3</ele>
        <time>2023-06-03T13:12:10Z</time>
      </trkpt>
      <trkpt lat="49.9019" lon="2.2688">
        <ele>26.3</ele>
        <time>2023-06-03T13:12:12Z</time>
      </trkpt>
      <trkpt lat="49.90188" lon="2.2688">
        <ele>26.3</ele>
        <time>2023-06-03T13:12:13Z</time>
      </trkpt>
      <trkpt lat="49.90187" lon="2.26881">
        <ele>26.3</ele>
        <time>2023-06-03T13:12:14Z</time>
      </trkpt>
      <trkpt lat="49.90186" lon="2.26881">
        <ele>26.2</ele>
        <time>2023-06-03T13:12:16Z</time>
      </trkpt>
      <trkpt lat="49.90184" lon="2.26883">
        <ele>26.2</ele>
        <time>2023-06-03T13:12:17Z</time>
      </trkpt>
      <trkpt lat="49.90183" lon="2.26884">
        <ele>26.2</ele>
        <time>2023-06-03T13:12:18Z</time>
      </trkpt>
      <trkpt lat="49.90181" lon="2.26884">
        <ele>26.1</ele>
        <time>2023-06-03T13:12:20Z</time>
      </trkpt>
      <trkpt lat="49.90179" lon="2.26885">
        <ele>26.1</ele>
        <time>2023-06-03T13:12:21Z</time>
      </trkpt>
      <trkpt lat="49.90177" lon="2.26886">
        <ele>26.1</ele>
        <time>2023-06-03T13:12:22Z</time>
      </trkpt>
      <trkpt lat="49.90176" lon="2.26887">
        <ele>26.1</ele>
        <time>2023-06-03T13:12:23Z</time>
      </trkpt>
      <trkpt lat="49.90175" lon="2.26887">
        <ele>26.1</ele>
        <time>2023-06-03T13:12:24Z</time>
      </trkpt>
      <trkpt lat="49.90174" lon="2.26887">
        <ele>26.1</ele>
        <time>2023-06-03T13:12:25Z</time>
      </trkpt>
      <trkpt lat="49.90173" lon="2.26887">
        <ele>26.1</ele>
        <time>2023-06-03T13:12:27Z</time>
      </trkpt>
      <trkpt lat="49.90172" lon="2.26887">
        <ele>26.1</ele>
        <time>2023-06-03T13:12:28Z</time>
      </trkpt>
      <trkpt lat="49.90171" lon="2.26888">
        <ele>26.1</ele>
        <time>2023-06-03T13:12:29Z</time>
      </trkpt>
      <trkpt lat="49.90169" lon="2.26888">
        <ele>26.1</ele>
        <time>2023-06-03T13:12:30Z</time>
      </trkpt>
      <trkpt lat="49.90168" lon="2.26888">
        <ele>26.1</ele>
        <time>2023-06-03T13:12:31Z</time>
      </trkpt>
      <trkpt lat="49.90167" lon="2.26888">
        <ele>26.1</ele>
        <time>2023-06-03T13:12:33Z</time>
      </trkpt>
      <trkpt lat="49.90164" lon="2.2689">
        <ele>26.1</ele>
        <time>2023-06-03T13:12:34Z</time>
      </trkpt>
      <trkpt lat="49.90163" lon="2.2689">
        <ele>26.1</ele>
        <time>2023-06-03T13:12:35Z</time>
      </trkpt>
      <trkpt lat="49.90162" lon="2.26891">
        <ele>26.1</ele>
        <time>2023-06-03T13:12:37Z</time>
      </trkpt>
      <trkpt lat="49.9016" lon="2.26892">
        <ele>26.1</ele>
        <time>2023-06-03T13:12:38Z</time>
      </trkpt>
      <trkpt lat="49.90158" lon="2.26893">
        <ele>26.1</ele>
        <time>2023-06-03T13:12:39Z</time>
      </trkpt>
      <trkpt lat="49.90157" lon="2.26893">
        <ele>26.1</ele>
        <time>2023-06-03T13:12:40Z</time>
      </trkpt>
      <trkpt lat="49.90156" lon="2.26893">
        <ele>26.1</ele>
        <time>2023-06-03T13:12:41Z</time>
      </trkpt>
      <trkpt lat="49.90154" lon="2.26893">
        <ele>26.1</ele>
        <time>2023-06-03T13:12:42Z</time>
      </trkpt>
      <trkpt lat="49.90153" lon="2.26893">
        <ele>26.1</ele>
        <time>2023-06-03T13:12:43Z</time>
      </trkpt>
      <trkpt lat="49.90152" lon="2.26893">
        <ele>26.1</ele>
        <time>2023-06-03T13:12:44Z</time>
      </trkpt>
      <trkpt lat="49.9015" lon="2.26894">
        <ele>26</ele>
        <time>2023-06-03T13:12:46Z</time>
      </trkpt>
      <trkpt lat="49.90149" lon="2.26894">
        <ele>26</ele>
        <time>2023-06-03T13:12:47Z</time>
      </trkpt>
      <trkpt lat="49.90148" lon="2.26894">
        <ele>26</ele>
        <time>2023-06-03T13:12:48Z</time>
      </trkpt>
      <trkpt lat="49.90146" lon="2.26895">
        <ele>26</ele>
        <time>2023-06-03T13:12:50Z</time>
      </trkpt>
      <trkpt lat="49.90145" lon="2.26895">
        <ele>26</ele>
        <time>2023-06-03T13:12:51Z</time>
      </trkpt>
      <trkpt lat="49.90143" lon="2.26895">
        <ele>26</ele>
        <time>2023-06-03T13:12:52Z</time>
      </trkpt>
      <trkpt lat="49.90141" lon="2.26895">
        <ele>25.9</ele>
        <time>2023-06-03T13:12:53Z</time>
      </trkpt>
      <trkpt lat="49.9014" lon="2.26895">
        <ele>25.9</ele>
        <time>2023-06-03T13:12:54Z</time>
      </trkpt>
      <trkpt lat="49.9014" lon="2.26895">
        <ele>25.9</ele>
        <time>2023-06-03T13:12:55Z</time>
      </trkpt>
      <trkpt lat="49.90139" lon="2.26895">
        <ele>25.9</ele>
        <time>2023-06-03T13:12:56Z</time>
      </trkpt>
      <trkpt lat="49.90138" lon="2.26896">
        <ele>25.9</ele>
        <time>2023-06-03T13:12:57Z</time>
      </trkpt>
      <trkpt lat="49.90137" lon="2.26896">
        <ele>25.9</ele>
        <time>2023-06-03T13:12:59Z</time>
      </trkpt>
      <trkpt lat="49.90135" lon="2.26897">
        <ele>25.9</ele>
        <time>2023-06-03T13:13:00Z</time>
      </trkpt>
      <trkpt lat="49.90134" lon="2.26897">
        <ele>25.9</ele>
        <time>2023-06-03T13:13:01Z</time>
      </trkpt>
      <trkpt lat="49.90133" lon="2.26898">
        <ele>25.8</ele>
        <time>2023-06-03T13:13:02Z</time>
      </trkpt>
      <trkpt lat="49.90132" lon="2.26899">
        <ele>25.8</ele>
        <time>2023-06-03T13:13:03Z</time>
      </trkpt>
      <trkpt lat="49.90131" lon="2.269">
        <ele>25.8</ele>
        <time>2023-06-03T13:13:04Z</time>
      </trkpt>
      <trkpt lat="49.90129" lon="2.26901">
        <ele>25.8</ele>
        <time>2023-06-03T13:13:05Z</time>
      </trkpt>
      <trkpt lat="49.90128" lon="2.26901">
        <ele>25.8</ele>
        <time>2023-06-03T13:13:07Z</time>
      </trkpt>
      <trkpt lat="49.90127" lon="2.26901">
        <ele>25.8</ele>
        <time>2023-06-03T13:13:08Z</time>
      </trkpt>
      <trkpt lat="49.90126" lon="2.26902">
        <ele>25.8</ele>
        <time>2023-06-03T13:13:09Z</time>
      </trkpt>
      <trkpt lat="49.90124" lon="2.26902">
        <ele>25.7</ele>
        <time>2023-06-03T13:13:11Z</time>
      </trkpt>
      <trkpt lat="49.90123" lon="2.26903">
        <ele>25.7</ele>
        <time>2023-06-03T13:13:12Z</time>
      </trkpt>
      <trkpt lat="49.90122" lon="2.26903">
        <ele>25.7</ele>
        <time>2023-06-03T13:13:13Z</time>
      </trkpt>
      <trkpt lat="49.9012" lon="2.26904">
        <ele>25.7</ele>
        <time>2023-06-03T13:13:14Z</time>
      </trkpt>
      <trkpt lat="49.90119" lon="2.26905">
        <ele>25.7</ele>
        <time>2023-06-03T13:13:15Z</time>
      </trkpt>
      <trkpt lat="49.90118" lon="2.26905">
        <ele>25.7</ele>
        <time>2023-06-03T13:13:16Z</time>
      </trkpt>
      <trkpt lat="49.90116" lon="2.26906">
        <ele>25.6</ele>
        <time>2023-06-03T13:13:17Z</time>
      </trkpt>
      <trkpt lat="49.90115" lon="2.26907">
        <ele>25.6</ele>
        <time>2023-06-03T13:13:18Z</time>
      </trkpt>
      <trkpt lat="49.90114" lon="2.26908">
        <ele>25.6</ele>
        <time>2023-06-03T13:13:20Z</time>
      </trkpt>
      <trkpt lat="49.90112" lon="2.26908">
        <ele>25.6</ele>
        <time>2023-06-03T13:13:21Z</time>
      </trkpt>
      <trkpt lat="49.90111" lon="2.26909">
        <ele>25.6</ele>
        <time>2023-06-03T13:13:23Z</time>
      </trkpt>
      <trkpt lat="49.9011" lon="2.2691">
        <ele>25.6</ele>
        <time>2023-06-03T13:13:24Z</time>
      </trkpt>
      <trkpt lat="49.90109" lon="2.2691">
        <ele>25.6</ele>
        <time>2023-06-03T13:13:25Z</time>
      </trkpt>
      <trkpt lat="49.90108" lon="2.26911">
        <ele>25.6</ele>
        <time>2023-06-03T13:13:26Z</time>
      </trkpt>
      <trkpt lat="49.90106" lon="2.26913">
        <ele>25.5</ele>
        <time>2023-06-03T13:13:28Z</time>
      </trkpt>
      <trkpt lat="49.90105" lon="2.26913">
        <ele>25.5</ele>
        <time>2023-06-03T13:13:29Z</time>
      </trkpt>
      <trkpt lat="49.90104" lon="2.26914">
        <ele>25.5</ele>
        <time>2023-06-03T13:13:30Z</time>
      </trkpt>
      <trkpt lat="49.90103" lon="2.26915">
        <ele>25.5</ele>
        <time>2023-06-03T13:13:31Z</time>
      </trkpt>
      <trkpt lat="49.90101" lon="2.26916">
        <ele>25.5</ele>
        <time>2023-06-03T13:13:32Z</time>
      </trkpt>
      <trkpt lat="49.901" lon="2.26917">
        <ele>25.5</ele>
        <time>2023-06-03T13:13:33Z</time>
      </trkpt>
      <trkpt lat="49.90099" lon="2.26918">
        <ele>25.5</ele>
        <time>2023-06-03T13:13:34Z</time>
      </trkpt>
      <trkpt lat="49.90098" lon="2.26919">
        <ele>25.5</ele>
        <time>2023-06-03T13:13:35Z</time>
      </trkpt>
      <trkpt lat="49.90097" lon="2.2692">
        <ele>25.5</ele>
        <time>2023-06-03T13:13:36Z</time>
      </trkpt>
      <trkpt lat="49.90096" lon="2.26921">
        <ele>25.5</ele>
        <time>2023-06-03T13:13:37Z</time>
      </trkpt>
      <trkpt lat="49.90095" lon="2.26922">
        <ele>25.5</ele>
        <time>2023-06-03T13:13:39Z</time>
      </trkpt>
      <trkpt lat="49.90094" lon="2.26923">
        <ele>25.5</ele>
        <time>2023-06-03T13:13:40Z</time>
      </trkpt>
      <trkpt lat="49.90093" lon="2.26924">
        <ele>25.5</ele>
        <time>2023-06-03T13:13:41Z</time>
      </trkpt>
      <trkpt lat="49.90092" lon="2.26925">
        <ele>25.5</ele>
        <time>2023-06-03T13:13:42Z</time>
      </trkpt>
      <trkpt lat="49.90091" lon="2.26926">
        <ele>25.5</ele>
        <time>2023-06-03T13:13:44Z</time>
      </trkpt>
      <trkpt lat="49.90089" lon="2.26928">
        <ele>25.5</ele>
        <time>2023-06-03T13:13:45Z</time>
      </trkpt>
      <trkpt lat="49.90088" lon="2.26929">
        <ele>25.5</ele>
        <time>2023-06-03T13:13:46Z</time>
      </trkpt>
      <trkpt lat="49.90087" lon="2.2693">
        <ele>25.5</ele>
        <time>2023-06-03T13:13:48Z</time>
      </trkpt>
      <trkpt lat="49.90086" lon="2.26932">
        <ele>25.5</ele>
        <time>2023-06-03T13:13:49Z</time>
      </trkpt>
      <trkpt lat="49.90084" lon="2.26934">
        <ele>25.5</ele>
        <time>2023-06-03T13:13:50Z</time>
      </trkpt>
      <trkpt lat="49.90082" lon="2.26936">
        <ele>25.5</ele>
        <time>2023-06-03T13:13:51Z</time>
      </trkpt>
      <trkpt lat="49.90081" lon="2.26938">
        <ele>25.5</ele>
        <time>2023-06-03T13:13:52Z</time>
      </trkpt>
      <trkpt lat="49.90079" lon="2.26939">
        <ele>25.5</ele>
        <time>2023-06-03T13:13:53Z</time>
      </trkpt>
      <trkpt lat="49.90078" lon="2.26941">
        <ele>25.5</ele>
        <time>2023-06-03T13:13:54Z</time>
      </trkpt>
      <trkpt lat="49.90077" lon="2.26942">
        <ele>25.5</ele>
        <time>2023-06-03T13:13:55Z</time>
      </trkpt>
      <trkpt lat="49.90074" lon="2.26944">
        <ele>25.5</ele>
        <time>2023-06-03T13:13:57Z</time>
      </trkpt>
      <trkpt lat="49.90074" lon="2.26945">
        <ele>25.5</ele>
        <time>2023-06-03T13:13:58Z</time>
      </trkpt>
      <trkpt lat="49.90072" lon="2.26946">
        <ele>25.5</ele>
        <time>2023-06-03T13:13:59Z</time>
      </trkpt>
      <trkpt lat="49.90071" lon="2.26947">
        <ele>25.5</ele>
        <time>2023-06-03T13:14:00Z</time>
      </trkpt>
      <trkpt lat="49.90071" lon="2.26947">
        <ele>25.5</ele>
        <time>2023-06-03T13:14:01Z</time>
      </trkpt>
      <trkpt lat="49.90068" lon="2.2695">
        <ele>25.6</ele>
        <time>2023-06-03T13:14:03Z</time>
      </trkpt>
      <trkpt lat="49.90068" lon="2.26951">
        <ele>25.6</ele>
        <time>2023-06-03T13:14:04Z</time>
      </trkpt>
      <trkpt lat="49.90068" lon="2.26952">
        <ele>25.6</ele>
        <time>2023-06-03T13:14:05Z</time>
      </trkpt>
      <trkpt lat="49.90069" lon="2.26953">
        <ele>25.6</ele>
        <time>2023-06-03T13:14:07Z</time>
      </trkpt>
      <trkpt lat="49.90069" lon="2.26953">
        <ele>25.6</ele>
        <time>2023-06-03T13:14:08Z</time>
      </trkpt>
      <trkpt lat="49.90068" lon="2.26952">
        <ele>25.6</ele>
        <time>2023-06-03T13:14:09Z</time>
      </trkpt>
      <trkpt lat="49.90068" lon="2.26952">
        <ele>25.6</ele>
        <time>2023-06-03T13:14:11Z</time>
      </trkpt>
      <trkpt lat="49.90068" lon="2.26952">
        <ele>25.6</ele>
        <time>2023-06-03T13:14:12Z</time>
      </trkpt>
      <trkpt lat="49.90068" lon="2.26952">
        <ele>25.6</ele>
        <time>2023-06-03T13:14:13Z</time>
      </trkpt>
      <trkpt lat="49.90068" lon="2.26952">
        <ele>25.6</ele>
        <time>2023-06-03T13:14:15Z</time>
      </trkpt>
      <trkpt lat="49.90068" lon="2.26952">
        <ele>25.6</ele>
        <time>2023-06-03T13:14:16Z</time>
      </trkpt>
      <trkpt lat="49.90068" lon="2.26952">
        <ele>25.6</ele>
        <time>2023-06-03T13:14:17Z</time>
      </trkpt>
      <trkpt lat="49.90068" lon="2.26952">
        <ele>25.6</ele>
        <time>2023-06-03T13:14:19Z</time>
      </trkpt>
      <trkpt lat="49.90069" lon="2.26951">
        <ele>25.6</ele>
        <time>2023-06-03T13:14:20Z</time>
      </trkpt>
      <trkpt lat="49.90069" lon="2.26951">
        <ele>25.6</ele>
        <time>2023-06-03T13:14:21Z</time>
      </trkpt>
      <trkpt lat="49.9007" lon="2.2695">
        <ele>25.6</ele>
        <time>2023-06-03T13:14:22Z</time>
      </trkpt>
      <trkpt lat="49.9007" lon="2.26949">
        <ele>25.6</ele>
        <time>2023-06-03T13:14:23Z</time>
      </trkpt>
      <trkpt lat="49.90069" lon="2.26951">
        <ele>25.6</ele>
        <time>2023-06-03T13:14:25Z</time>
      </trkpt>
      <trkpt lat="49.90068" lon="2.26951">
        <ele>25.6</ele>
        <time>2023-06-03T13:14:26Z</time>
      </trkpt>
      <trkpt lat="49.90068" lon="2.26951">
        <ele>25.6</ele>
        <time>2023-06-03T13:14:27Z</time>
      </trkpt>
      <trkpt lat="49.90067" lon="2.2695">
        <ele>25.6</ele>
        <time>2023-06-03T13:14:28Z</time>
      </trkpt>
      <trkpt lat="49.90067" lon="2.26949">
        <ele>25.6</ele>
        <time>2023-06-03T13:14:29Z</time>
      </trkpt>
      <trkpt lat="49.90066" lon="2.26947">
        <ele>25.6</ele>
        <time>2023-06-03T13:14:31Z</time>
      </trkpt>
      <trkpt lat="49.90064" lon="2.26945">
        <ele>25.6</ele>
        <time>2023-06-03T13:14:32Z</time>
      </trkpt>
      <trkpt lat="49.90064" lon="2.26943">
        <ele>25.6</ele>
        <time>2023-06-03T13:14:34Z</time>
      </trkpt>
      <trkpt lat="49.90063" lon="2.26942">
        <ele>25.6</ele>
        <time>2023-06-03T13:14:35Z</time>
      </trkpt>
      <trkpt lat="49.90061" lon="2.2694">
        <ele>25.5</ele>
        <time>2023-06-03T13:14:36Z</time>
      </trkpt>
      <trkpt lat="49.9006" lon="2.26939">
        <ele>25.5</ele>
        <time>2023-06-03T13:14:37Z</time>
      </trkpt>
      <trkpt lat="49.90058" lon="2.26939">
        <ele>25.5</ele>
        <time>2023-06-03T13:14:38Z</time>
      </trkpt>
      <trkpt lat="49.90057" lon="2.26939">
        <ele>25.4</ele>
        <time>2023-06-03T13:14:39Z</time>
      </trkpt>
      <trkpt lat="49.90055" lon="2.2694">
        <ele>25.4</ele>
        <time>2023-06-03T13:14:40Z</time>
      </trkpt>
      <trkpt lat="49.90053" lon="2.26941">
        <ele>25.4</ele>
        <time>2023-06-03T13:14:41Z</time>
      </trkpt>
      <trkpt lat="49.90052" lon="2.26941">
        <ele>25.4</ele>
        <time>2023-06-03T13:14:42Z</time>
      </trkpt>
      <trkpt lat="49.9005" lon="2.26941">
        <ele>25.3</ele>
        <time>2023-06-03T13:14:43Z</time>
      </trkpt>
      <trkpt lat="49.90048" lon="2.26941">
        <ele>25.3</ele>
        <time>2023-06-03T13:14:45Z</time>
      </trkpt>
      <trkpt lat="49.90046" lon="2.26938">
        <ele>25.3</ele>
        <time>2023-06-03T13:14:46Z</time>
      </trkpt>
      <trkpt lat="49.90043" lon="2.26935">
        <ele>25.2</ele>
        <time>2023-06-03T13:14:47Z</time>
      </trkpt>
      <trkpt lat="49.90043" lon="2.26934">
        <ele>25.2</ele>
        <time>2023-06-03T13:14:48Z</time>
      </trkpt>
      <trkpt lat="49.90041" lon="2.26931">
        <ele>25.2</ele>
        <time>2023-06-03T13:14:50Z</time>
      </trkpt>
      <trkpt lat="49.9004" lon="2.2693">
        <ele>25.2</ele>
        <time>2023-06-03T13:14:51Z</time>
      </trkpt>
      <trkpt lat="49.90039" lon="2.26927">
        <ele>25.2</ele>
        <time>2023-06-03T13:14:52Z</time>
      </trkpt>
      <trkpt lat="49.90038" lon="2.26925">
        <ele>25.1</ele>
        <time>2023-06-03T13:14:53Z</time>
      </trkpt>
      <trkpt lat="49.90037" lon="2.26922">
        <ele>25.1</ele>
        <time>2023-06-03T13:14:54Z</time>
      </trkpt>
      <trkpt lat="49.90036" lon="2.26921">
        <ele>25.1</ele>
        <time>2023-06-03T13:14:55Z</time>
      </trkpt>
      <trkpt lat="49.90035" lon="2.26918">
        <ele>25.1</ele>
        <time>2023-06-03T13:14:56Z</time>
      </trkpt>
      <trkpt lat="49.90035" lon="2.26916">
        <ele>25</ele>
        <time>2023-06-03T13:14:57Z</time>
      </trkpt>
      <trkpt lat="49.90032" lon="2.26911">
        <ele>25</ele>
        <time>2023-06-03T13:14:59Z</time>
      </trkpt>
      <trkpt lat="49.90031" lon="2.26909">
        <ele>25</ele>
        <time>2023-06-03T13:15:00Z</time>
      </trkpt>
      <trkpt lat="49.90029" lon="2.26906">
        <ele>24.9</ele>
        <time>2023-06-03T13:15:02Z</time>
      </trkpt>
      <trkpt lat="49.90027" lon="2.26904">
        <ele>24.9</ele>
        <time>2023-06-03T13:15:03Z</time>
      </trkpt>
      <trkpt lat="49.90026" lon="2.26902">
        <ele>24.9</ele>
        <time>2023-06-03T13:15:04Z</time>
      </trkpt>
      <trkpt lat="49.90025" lon="2.26898">
        <ele>24.9</ele>
        <time>2023-06-03T13:15:06Z</time>
      </trkpt>
      <trkpt lat="49.90024" lon="2.26897">
        <ele>24.9</ele>
        <time>2023-06-03T13:15:07Z</time>
      </trkpt>
      <trkpt lat="49.90023" lon="2.26893">
        <ele>24.8</ele>
        <time>2023-06-03T13:15:08Z</time>
      </trkpt>
      <trkpt lat="49.90022" lon="2.26892">
        <ele>24.8</ele>
        <time>2023-06-03T13:15:09Z</time>
      </trkpt>
      <trkpt lat="49.90022" lon="2.26891">
        <ele>24.8</ele>
        <time>2023-06-03T13:15:10Z</time>
      </trkpt>
      <trkpt lat="49.90021" lon="2.2689">
        <ele>24.8</ele>
        <time>2023-06-03T13:15:11Z</time>
      </trkpt>
      <trkpt lat="49.90021" lon="2.26889">
        <ele>24.8</ele>
        <time>2023-06-03T13:15:12Z</time>
      </trkpt>
      <trkpt lat="49.90021" lon="2.26887">
        <ele>24.8</ele>
        <time>2023-06-03T13:15:14Z</time>
      </trkpt>
      <trkpt lat="49.90021" lon="2.26886">
        <ele>24.8</ele>
        <time>2023-06-03T13:15:15Z</time>
      </trkpt>
      <trkpt lat="49.9002" lon="2.26884">
        <ele>24.8</ele>
        <time>2023-06-03T13:15:16Z</time>
      </trkpt>
      <trkpt lat="49.9002" lon="2.26883">
        <ele>24.8</ele>
        <time>2023-06-03T13:15:17Z</time>
      </trkpt>
      <trkpt lat="49.90019" lon="2.26881">
        <ele>24.8</ele>
        <time>2023-06-03T13:15:18Z</time>
      </trkpt>
      <trkpt lat="49.90018" lon="2.2688">
        <ele>24.8</ele>
        <time>2023-06-03T13:15:20Z</time>
      </trkpt>
      <trkpt lat="49.90018" lon="2.26879">
        <ele>24.7</ele>
        <time>2023-06-03T13:15:21Z</time>
      </trkpt>
      <trkpt lat="49.90017" lon="2.26878">
        <ele>24.7</ele>
        <time>2023-06-03T13:15:22Z</time>
      </trkpt>
      <trkpt lat="49.90017" lon="2.26877">
        <ele>24.7</ele>
        <time>2023-06-03T13:15:24Z</time>
      </trkpt>
      <trkpt lat="49.90016" lon="2.26876">
        <ele>24.7</ele>
        <time>2023-06-03T13:15:25Z</time>
      </trkpt>
      <trkpt lat="49.90016" lon="2.26875">
        <ele>24.7</ele>
        <time>2023-06-03T13:15:26Z</time>
      </trkpt>
      <trkpt lat="49.90015" lon="2.26874">
        <ele>24.7</ele>
        <time>2023-06-03T13:15:27Z</time>
      </trkpt>
      <trkpt lat="49.90015" lon="2.26873">
        <ele>24.7</ele>
        <time>2023-06-03T13:15:28Z</time>
      </trkpt>
      <trkpt lat="49.90014" lon="2.26872">
        <ele>24.7</ele>
        <time>2023-06-03T13:15:29Z</time>
      </trkpt>
      <trkpt lat="49.90013" lon="2.26871">
        <ele>24.7</ele>
        <time>2023-06-03T13:15:30Z</time>
      </trkpt>
      <trkpt lat="49.90012" lon="2.26872">
        <ele>24.5</ele>
        <time>2023-06-03T13:15:32Z</time>
      </trkpt>
      <trkpt lat="49.90011" lon="2.26872">
        <ele>24.5</ele>
        <time>2023-06-03T13:15:33Z</time>
      </trkpt>
      <trkpt lat="49.90009" lon="2.26871">
        <ele>24.4</ele>
        <time>2023-06-03T13:15:34Z</time>
      </trkpt>
      <trkpt lat="49.90007" lon="2.26871">
        <ele>24.4</ele>
        <time>2023-06-03T13:15:36Z</time>
      </trkpt>
      <trkpt lat="49.90005" lon="2.26871">
        <ele>24.3</ele>
        <time>2023-06-03T13:15:37Z</time>
      </trkpt>
      <trkpt lat="49.90004" lon="2.26871">
        <ele>24.3</ele>
        <time>2023-06-03T13:15:38Z</time>
      </trkpt>
      <trkpt lat="49.90003" lon="2.26871">
        <ele>24.3</ele>
        <time>2023-06-03T13:15:39Z</time>
      </trkpt>
      <trkpt lat="49.90002" lon="2.26871">
        <ele>24.3</ele>
        <time>2023-06-03T13:15:40Z</time>
      </trkpt>
      <trkpt lat="49.9" lon="2.26872">
        <ele>24.2</ele>
        <time>2023-06-03T13:15:41Z</time>
      </trkpt>
      <trkpt lat="49.89999" lon="2.26872">
        <ele>24.2</ele>
        <time>2023-06-03T13:15:42Z</time>
      </trkpt>
      <trkpt lat="49.89997" lon="2.26874">
        <ele>24.2</ele>
        <time>2023-06-03T13:15:44Z</time>
      </trkpt>
      <trkpt lat="49.89995" lon="2.26875">
        <ele>24.1</ele>
        <time>2023-06-03T13:15:45Z</time>
      </trkpt>
      <trkpt lat="49.89993" lon="2.26876">
        <ele>24.1</ele>
        <time>2023-06-03T13:15:47Z</time>
      </trkpt>
      <trkpt lat="49.8999" lon="2.26878">
        <ele>24</ele>
        <time>2023-06-03T13:15:48Z</time>
      </trkpt>
      <trkpt lat="49.89989" lon="2.26879">
        <ele>24</ele>
        <time>2023-06-03T13:15:49Z</time>
      </trkpt>
      <trkpt lat="49.89988" lon="2.2688">
        <ele>24</ele>
        <time>2023-06-03T13:15:51Z</time>
      </trkpt>
      <trkpt lat="49.89987" lon="2.26881">
        <ele>24</ele>
        <time>2023-06-03T13:15:52Z</time>
      </trkpt>
      <trkpt lat="49.89987" lon="2.26882">
        <ele>24</ele>
        <time>2023-06-03T13:15:53Z</time>
      </trkpt>
      <trkpt lat="49.89988" lon="2.26883">
        <ele>24</ele>
        <time>2023-06-03T13:15:54Z</time>
      </trkpt>
      <trkpt lat="49.89989" lon="2.26883">
        <ele>24</ele>
        <time>2023-06-03T13:15:55Z</time>
      </trkpt>
      <trkpt lat="49.8999" lon="2.26883">
        <ele>24</ele>
        <time>2023-06-03T13:15:56Z</time>
      </trkpt>
      <trkpt lat="49.89988" lon="2.26884">
        <ele>24</ele>
        <time>2023-06-03T13:15:58Z</time>
      </trkpt>
      <trkpt lat="49.89987" lon="2.26884">
        <ele>24</ele>
        <time>2023-06-03T13:15:59Z</time>
      </trkpt>
      <trkpt lat="49.89986" lon="2.26885">
        <ele>24</ele>
        <time>2023-06-03T13:16:00Z</time>
      </trkpt>
      <trkpt lat="49.89985" lon="2.26885">
        <ele>24</ele>
        <time>2023-06-03T13:16:02Z</time>
      </trkpt>
      <trkpt lat="49.89984" lon="2.26885">
        <ele>24</ele>
        <time>2023-06-03T13:16:03Z</time>
      </trkpt>
      <trkpt lat="49.89983" lon="2.26886">
        <ele>24</ele>
        <time>2023-06-03T13:16:04Z</time>
      </trkpt>
      <trkpt lat="49.89983" lon="2.26887">
        <ele>24</ele>
        <time>2023-06-03T13:16:05Z</time>
      </trkpt>
      <trkpt lat="49.89982" lon="2.26888">
        <ele>24</ele>
        <time>2023-06-03T13:16:06Z</time>
      </trkpt>
      <trkpt lat="49.89981" lon="2.26888">
        <ele>24</ele>
        <time>2023-06-03T13:16:07Z</time>
      </trkpt>
      <trkpt lat="49.8998" lon="2.26889">
        <ele>24</ele>
        <time>2023-06-03T13:16:08Z</time>
      </trkpt>
      <trkpt lat="49.89979" lon="2.26889">
        <ele>24</ele>
        <time>2023-06-03T13:16:09Z</time>
      </trkpt>
      <trkpt lat="49.89978" lon="2.2689">
        <ele>24</ele>
        <time>2023-06-03T13:16:11Z</time>
      </trkpt>
      <trkpt lat="49.89976" lon="2.2689">
        <ele>24</ele>
        <time>2023-06-03T13:16:12Z</time>
      </trkpt>
      <trkpt lat="49.89975" lon="2.26891">
        <ele>24</ele>
        <time>2023-06-03T13:16:13Z</time>
      </trkpt>
      <trkpt lat="49.89974" lon="2.26891">
        <ele>24</ele>
        <time>2023-06-03T13:16:14Z</time>
      </trkpt>
      <trkpt lat="49.89973" lon="2.26893">
        <ele>24</ele>
        <time>2023-06-03T13:16:15Z</time>
      </trkpt>
      <trkpt lat="49.89971" lon="2.26894">
        <ele>24</ele>
        <time>2023-06-03T13:16:16Z</time>
      </trkpt>
      <trkpt lat="49.8997" lon="2.26895">
        <ele>24</ele>
        <time>2023-06-03T13:16:17Z</time>
      </trkpt>
      <trkpt lat="49.89968" lon="2.26897">
        <ele>24</ele>
        <time>2023-06-03T13:16:19Z</time>
      </trkpt>
      <trkpt lat="49.89966" lon="2.26898">
        <ele>24</ele>
        <time>2023-06-03T13:16:20Z</time>
      </trkpt>
      <trkpt lat="49.89965" lon="2.269">
        <ele>24</ele>
        <time>2023-06-03T13:16:21Z</time>
      </trkpt>
      <trkpt lat="49.89963" lon="2.26902">
        <ele>24</ele>
        <time>2023-06-03T13:16:23Z</time>
      </trkpt>
      <trkpt lat="49.89962" lon="2.26903">
        <ele>24</ele>
        <time>2023-06-03T13:16:24Z</time>
      </trkpt>
      <trkpt lat="49.89961" lon="2.26904">
        <ele>24</ele>
        <time>2023-06-03T13:16:25Z</time>
      </trkpt>
      <trkpt lat="49.8996" lon="2.26906">
        <ele>24</ele>
        <time>2023-06-03T13:16:26Z</time>
      </trkpt>
      <trkpt lat="49.89958" lon="2.26907">
        <ele>24</ele>
        <time>2023-06-03T13:16:27Z</time>
      </trkpt>
      <trkpt lat="49.89957" lon="2.26908">
        <ele>24</ele>
        <time>2023-06-03T13:16:28Z</time>
      </trkpt>
      <trkpt lat="49.89955" lon="2.26909">
        <ele>24</ele>
        <time>2023-06-03T13:16:29Z</time>
      </trkpt>
      <trkpt lat="49.89954" lon="2.26909">
        <ele>24.1</ele>
        <time>2023-06-03T13:16:30Z</time>
      </trkpt>
      <trkpt lat="49.89951" lon="2.26911">
        <ele>24.1</ele>
        <time>2023-06-03T13:16:32Z</time>
      </trkpt>
      <trkpt lat="49.89949" lon="2.26912">
        <ele>24.1</ele>
        <time>2023-06-03T13:16:33Z</time>
      </trkpt>
      <trkpt lat="49.89948" lon="2.26913">
        <ele>24.1</ele>
        <time>2023-06-03T13:16:34Z</time>
      </trkpt>
      <trkpt lat="49.89947" lon="2.26915">
        <ele>24.1</ele>
        <time>2023-06-03T13:16:36Z</time>
      </trkpt>
      <trkpt lat="49.89945" lon="2.26916">
        <ele>24.1</ele>
        <time>2023-06-03T13:16:37Z</time>
      </trkpt>
      <trkpt lat="49.89944" lon="2.26917">
        <ele>24.1</ele>
        <time>2023-06-03T13:16:38Z</time>
      </trkpt>
      <trkpt lat="49.89943" lon="2.26917">
        <ele>24.1</ele>
        <time>2023-06-03T13:16:39Z</time>
      </trkpt>
      <trkpt lat="49.89941" lon="2.26919">
        <ele>24.2</ele>
        <time>2023-06-03T13:16:40Z</time>
      </trkpt>
      <trkpt lat="49.8994" lon="2.26919">
        <ele>24.2</ele>
        <time>2023-06-03T13:16:41Z</time>
      </trkpt>
      <trkpt lat="49.89939" lon="2.2692">
        <ele>24.2</ele>
        <time>2023-06-03T13:16:42Z</time>
      </trkpt>
      <trkpt lat="49.89937" lon="2.26922">
        <ele>24.2</ele>
        <time>2023-06-03T13:16:44Z</time>
      </trkpt>
      <trkpt lat="49.89936" lon="2.26923">
        <ele>24.2</ele>
        <time>2023-06-03T13:16:45Z</time>
      </trkpt>
      <trkpt lat="49.89935" lon="2.26924">
        <ele>24.2</ele>
        <time>2023-06-03T13:16:46Z</time>
      </trkpt>
      <trkpt lat="49.89934" lon="2.26924">
        <ele>24.2</ele>
        <time>2023-06-03T13:16:47Z</time>
      </trkpt>
      <trkpt lat="49.89932" lon="2.26925">
        <ele>24.2</ele>
        <time>2023-06-03T13:16:49Z</time>
      </trkpt>
      <trkpt lat="49.89932" lon="2.26926">
        <ele>24.2</ele>
        <time>2023-06-03T13:16:50Z</time>
      </trkpt>
      <trkpt lat="49.89931" lon="2.26927">
        <ele>24.3</ele>
        <time>2023-06-03T13:16:51Z</time>
      </trkpt>
      <trkpt lat="49.8993" lon="2.26927">
        <ele>24.3</ele>
        <time>2023-06-03T13:16:52Z</time>
      </trkpt>
      <trkpt lat="49.89929" lon="2.26928">
        <ele>24.3</ele>
        <time>2023-06-03T13:16:53Z</time>
      </trkpt>
      <trkpt lat="49.89928" lon="2.26928">
        <ele>24.3</ele>
        <time>2023-06-03T13:16:54Z</time>
      </trkpt>
      <trkpt lat="49.89927" lon="2.26929">
        <ele>24.3</ele>
        <time>2023-06-03T13:16:55Z</time>
      </trkpt>
      <trkpt lat="49.89927" lon="2.2693">
        <ele>24.3</ele>
        <time>2023-06-03T13:16:57Z</time>
      </trkpt>
      <trkpt lat="49.89925" lon="2.2693">
        <ele>24.3</ele>
        <time>2023-06-03T13:16:58Z</time>
      </trkpt>
      <trkpt lat="49.89924" lon="2.26931">
        <ele>24.3</ele>
        <time>2023-06-03T13:16:59Z</time>
      </trkpt>
      <trkpt lat="49.89922" lon="2.26932">
        <ele>24.4</ele>
        <time>2023-06-03T13:17:00Z</time>
      </trkpt>
      <trkpt lat="49.89921" lon="2.26933">
        <ele>24.4</ele>
        <time>2023-06-03T13:17:02Z</time>
      </trkpt>
      <trkpt lat="49.8992" lon="2.26934">
        <ele>24.4</ele>
        <time>2023-06-03T13:17:03Z</time>
      </trkpt>
      <trkpt lat="49.89918" lon="2.26936">
        <ele>24.4</ele>
        <time>2023-06-03T13:17:04Z</time>
      </trkpt>
      <trkpt lat="49.89916" lon="2.26937">
        <ele>24.4</ele>
        <time>2023-06-03T13:17:05Z</time>
      </trkpt>
      <trkpt lat="49.89915" lon="2.26938">
        <ele>24.4</ele>
        <time>2023-06-03T13:17:06Z</time>
      </trkpt>
      <trkpt lat="49.89913" lon="2.26939">
        <ele>24.4</ele>
        <time>2023-06-03T13:17:07Z</time>
      </trkpt>
      <trkpt lat="49.89912" lon="2.2694">
        <ele>24.5</ele>
        <time>2023-06-03T13:17:08Z</time>
      </trkpt>
      <trkpt lat="49.89909" lon="2.2694">
        <ele>24.5</ele>
        <time>2023-06-03T13:17:10Z</time>
      </trkpt>
      <trkpt lat="49.89907" lon="2.26941">
        <ele>24.5</ele>
        <time>2023-06-03T13:17:11Z</time>
      </trkpt>
      <trkpt lat="49.89906" lon="2.26942">
        <ele>24.5</ele>
        <time>2023-06-03T13:17:12Z</time>
      </trkpt>
      <trkpt lat="49.89903" lon="2.26943">
        <ele>24.5</ele>
        <time>2023-06-03T13:17:13Z</time>
      </trkpt>
      <trkpt lat="49.89902" lon="2.26944">
        <ele>24.5</ele>
        <time>2023-06-03T13:17:14Z</time>
      </trkpt>
      <trkpt lat="49.899" lon="2.26945">
        <ele>24.6</ele>
        <time>2023-06-03T13:17:15Z</time>
      </trkpt>
      <trkpt lat="49.89899" lon="2.26945">
        <ele>24.6</ele>
        <time>2023-06-03T13:17:16Z</time>
      </trkpt>
      <trkpt lat="49.89896" lon="2.26946">
        <ele>24.6</ele>
        <time>2023-06-03T13:17:18Z</time>
      </trkpt>
      <trkpt lat="49.89895" lon="2.26946">
        <ele>24.6</ele>
        <time>2023-06-03T13:17:19Z</time>
      </trkpt>
      <trkpt lat="49.89894" lon="2.26946">
        <ele>24.6</ele>
        <time>2023-06-03T13:17:20Z</time>
      </trkpt>
      <trkpt lat="49.89893" lon="2.26945">
        <ele>24.6</ele>
        <time>2023-06-03T13:17:22Z</time>
      </trkpt>
      <trkpt lat="49.89892" lon="2.26945">
        <ele>24.6</ele>
        <time>2023-06-03T13:17:23Z</time>
      </trkpt>
      <trkpt lat="49.89891" lon="2.26945">
        <ele>24.6</ele>
        <time>2023-06-03T13:17:24Z</time>
      </trkpt>
      <trkpt lat="49.89891" lon="2.26945">
        <ele>24.6</ele>
        <time>2023-06-03T13:17:25Z</time>
      </trkpt>
      <trkpt lat="49.89889" lon="2.26946">
        <ele>24.6</ele>
        <time>2023-06-03T13:17:26Z</time>
      </trkpt>
      <trkpt lat="49.89887" lon="2.26947">
        <ele>24.7</ele>
        <time>2023-06-03T13:17:27Z</time>
      </trkpt>
      <trkpt lat="49.89886" lon="2.26947">
        <ele>24.7</ele>
        <time>2023-06-03T13:17:28Z</time>
      </trkpt>
      <trkpt lat="49.89886" lon="2.26948">
        <ele>24.7</ele>
        <time>2023-06-03T13:17:29Z</time>
      </trkpt>
      <trkpt lat="49.89884" lon="2.26948">
        <ele>24.7</ele>
        <time>2023-06-03T13:17:31Z</time>
      </trkpt>
      <trkpt lat="49.89883" lon="2.26949">
        <ele>24.7</ele>
        <time>2023-06-03T13:17:32Z</time>
      </trkpt>
      <trkpt lat="49.89881" lon="2.26949">
        <ele>24.7</ele>
        <time>2023-06-03T13:17:33Z</time>
      </trkpt>
      <trkpt lat="49.8988" lon="2.26949">
        <ele>24.7</ele>
        <time>2023-06-03T13:17:35Z</time>
      </trkpt>
      <trkpt lat="49.89879" lon="2.26949">
        <ele>24.7</ele>
        <time>2023-06-03T13:17:36Z</time>
      </trkpt>
      <trkpt lat="49.89878" lon="2.26949">
        <ele>24.7</ele>
        <time>2023-06-03T13:17:37Z</time>
      </trkpt>
      <trkpt lat="49.89877" lon="2.2695">
        <ele>24.7</ele>
        <time>2023-06-03T13:17:38Z</time>
      </trkpt>
      <trkpt lat="49.89876" lon="2.26951">
        <ele>24.7</ele>
        <time>2023-06-03T13:17:39Z</time>
      </trkpt>
      <trkpt lat="49.89874" lon="2.26952">
        <ele>24.8</ele>
        <time>2023-06-03T13:17:40Z</time>
      </trkpt>
      <trkpt lat="49.89874" lon="2.26952">
        <ele>24.8</ele>
        <time>2023-06-03T13:17:41Z</time>
      </trkpt>
      <trkpt lat="49.89872" lon="2.26953">
        <ele>24.8</ele>
        <time>2023-06-03T13:17:43Z</time>
      </trkpt>
      <trkpt lat="49.89871" lon="2.26953">
        <ele>24.8</ele>
        <time>2023-06-03T13:17:44Z</time>
      </trkpt>
      <trkpt lat="49.8987" lon="2.26953">
        <ele>24.8</ele>
        <time>2023-06-03T13:17:45Z</time>
      </trkpt>
      <trkpt lat="49.8987" lon="2.26953">
        <ele>24.8</ele>
        <time>2023-06-03T13:17:46Z</time>
      </trkpt>
      <trkpt lat="49.89869" lon="2.26953">
        <ele>24.8</ele>
        <time>2023-06-03T13:17:47Z</time>
      </trkpt>
      <trkpt lat="49.89868" lon="2.26954">
        <ele>24.8</ele>
        <time>2023-06-03T13:17:48Z</time>
      </trkpt>
      <trkpt lat="49.89867" lon="2.26954">
        <ele>24.8</ele>
        <time>2023-06-03T13:17:49Z</time>
      </trkpt>
      <trkpt lat="49.89866" lon="2.26954">
        <ele>24.8</ele>
        <time>2023-06-03T13:17:50Z</time>
      </trkpt>
      <trkpt lat="49.89864" lon="2.26955">
        <ele>24.8</ele>
        <time>2023-06-03T13:17:52Z</time>
      </trkpt>
      <trkpt lat="49.89863" lon="2.26956">
        <ele>24.8</ele>
        <time>2023-06-03T13:17:53Z</time>
      </trkpt>
      <trkpt lat="49.89862" lon="2.26956">
        <ele>24.8</ele>
        <time>2023-06-03T13:17:54Z</time>
      </trkpt>
      <trkpt lat="49.89861" lon="2.26957">
        <ele>24.8</ele>
        <time>2023-06-03T13:17:56Z</time>
      </trkpt>
      <trkpt lat="49.89859" lon="2.26958">
        <ele>24.8</ele>
        <time>2023-06-03T13:17:57Z</time>
      </trkpt>
      <trkpt lat="49.89858" lon="2.26958">
        <ele>24.8</ele>
        <time>2023-06-03T13:17:58Z</time>
      </trkpt>
      <trkpt lat="49.89857" lon="2.26959">
        <ele>24.9</ele>
        <time>2023-06-03T13:17:59Z</time>
      </trkpt>
      <trkpt lat="49.89856" lon="2.2696">
        <ele>24.9</ele>
        <time>2023-06-03T13:18:00Z</time>
      </trkpt>
      <trkpt lat="49.89855" lon="2.26962">
        <ele>24.9</ele>
        <time>2023-06-03T13:18:01Z</time>
      </trkpt>
      <trkpt lat="49.89854" lon="2.26964">
        <ele>24.9</ele>
        <time>2023-06-03T13:18:02Z</time>
      </trkpt>
      <trkpt lat="49.89854" lon="2.26965">
        <ele>24.9</ele>
        <time>2023-06-03T13:18:03Z</time>
      </trkpt>
      <trkpt lat="49.89853" lon="2.26966">
        <ele>24.9</ele>
        <time>2023-06-03T13:18:04Z</time>
      </trkpt>
      <trkpt lat="49.89853" lon="2.26967">
        <ele>24.9</ele>
        <time>2023-06-03T13:18:06Z</time>
      </trkpt>
      <trkpt lat="49.89851" lon="2.26968">
        <ele>24.9</ele>
        <time>2023-06-03T13:18:07Z</time>
      </trkpt>
      <trkpt lat="49.8985" lon="2.26969">
        <ele>24.9</ele>
        <time>2023-06-03T13:18:08Z</time>
      </trkpt>
      <trkpt lat="49.89849" lon="2.2697">
        <ele>24.9</ele>
        <time>2023-06-03T13:18:09Z</time>
      </trkpt>
      <trkpt lat="49.89848" lon="2.26971">
        <ele>24.9</ele>
        <time>2023-06-03T13:18:10Z</time>
      </trkpt>
      <trkpt lat="49.89847" lon="2.26971">
        <ele>24.9</ele>
        <time>2023-06-03T13:18:11Z</time>
      </trkpt>
      <trkpt lat="49.89845" lon="2.26972">
        <ele>25</ele>
        <time>2023-06-03T13:18:12Z</time>
      </trkpt>
      <trkpt lat="49.89845" lon="2.26973">
        <ele>25</ele>
        <time>2023-06-03T13:18:14Z</time>
      </trkpt>
      <trkpt lat="49.89843" lon="2.26974">
        <ele>25</ele>
        <time>2023-06-03T13:18:15Z</time>
      </trkpt>
      <trkpt lat="49.89842" lon="2.26975">
        <ele>25</ele>
        <time>2023-06-03T13:18:16Z</time>
      </trkpt>
      <trkpt lat="49.89841" lon="2.26977">
        <ele>25</ele>
        <time>2023-06-03T13:18:18Z</time>
      </trkpt>
      <trkpt lat="49.8984" lon="2.26977">
        <ele>25</ele>
        <time>2023-06-03T13:18:19Z</time>
      </trkpt>
      <trkpt lat="49.89839" lon="2.26978">
        <ele>25</ele>
        <time>2023-06-03T13:18:20Z</time>
      </trkpt>
      <trkpt lat="49.89838" lon="2.2698">
        <ele>25</ele>
        <time>2023-06-03T13:18:21Z</time>
      </trkpt>
      <trkpt lat="49.89836" lon="2.26982">
        <ele>25</ele>
        <time>2023-06-03T13:18:22Z</time>
      </trkpt>
      <trkpt lat="49.89835" lon="2.26984">
        <ele>25</ele>
        <time>2023-06-03T13:18:23Z</time>
      </trkpt>
      <trkpt lat="49.89834" lon="2.26985">
        <ele>25</ele>
        <time>2023-06-03T13:18:24Z</time>
      </trkpt>
      <trkpt lat="49.89833" lon="2.26988">
        <ele>25</ele>
        <time>2023-06-03T13:18:26Z</time>
      </trkpt>
      <trkpt lat="49.89832" lon="2.26989">
        <ele>25</ele>
        <time>2023-06-03T13:18:27Z</time>
      </trkpt>
      <trkpt lat="49.89831" lon="2.26991">
        <ele>25</ele>
        <time>2023-06-03T13:18:28Z</time>
      </trkpt>
      <trkpt lat="49.89829" lon="2.26993">
        <ele>25</ele>
        <time>2023-06-03T13:18:29Z</time>
      </trkpt>
      <trkpt lat="49.89828" lon="2.26995">
        <ele>25</ele>
        <time>2023-06-03T13:18:30Z</time>
      </trkpt>
      <trkpt lat="49.89827" lon="2.26996">
        <ele>25</ele>
        <time>2023-06-03T13:18:31Z</time>
      </trkpt>
      <trkpt lat="49.89826" lon="2.26998">
        <ele>25</ele>
        <time>2023-06-03T13:18:32Z</time>
      </trkpt>
      <trkpt lat="49.89826" lon="2.27">
        <ele>25</ele>
        <time>2023-06-03T13:18:33Z</time>
      </trkpt>
      <trkpt lat="49.89825" lon="2.27001">
        <ele>25</ele>
        <time>2023-06-03T13:18:35Z</time>
      </trkpt>
      <trkpt lat="49.89824" lon="2.27002">
        <ele>25</ele>
        <time>2023-06-03T13:18:36Z</time>
      </trkpt>
      <trkpt lat="49.89823" lon="2.27004">
        <ele>25</ele>
        <time>2023-06-03T13:18:37Z</time>
      </trkpt>
      <trkpt lat="49.89821" lon="2.27006">
        <ele>25</ele>
        <time>2023-06-03T13:18:39Z</time>
      </trkpt>
      <trkpt lat="49.89821" lon="2.27007">
        <ele>24.9</ele>
        <time>2023-06-03T13:18:40Z</time>
      </trkpt>
      <trkpt lat="49.8982" lon="2.27008">
        <ele>24.9</ele>
        <time>2023-06-03T13:18:41Z</time>
      </trkpt>
      <trkpt lat="49.89818" lon="2.2701">
        <ele>24.9</ele>
        <time>2023-06-03T13:18:42Z</time>
      </trkpt>
      <trkpt lat="49.89817" lon="2.27011">
        <ele>24.9</ele>
        <time>2023-06-03T13:18:43Z</time>
      </trkpt>
      <trkpt lat="49.89816" lon="2.27013">
        <ele>24.9</ele>
        <time>2023-06-03T13:18:44Z</time>
      </trkpt>
      <trkpt lat="49.89815" lon="2.27014">
        <ele>24.9</ele>
        <time>2023-06-03T13:18:45Z</time>
      </trkpt>
      <trkpt lat="49.89814" lon="2.27015">
        <ele>24.9</ele>
        <time>2023-06-03T13:18:46Z</time>
      </trkpt>
      <trkpt lat="49.89814" lon="2.27017">
        <ele>24.9</ele>
        <time>2023-06-03T13:18:48Z</time>
      </trkpt>
      <trkpt lat="49.89812" lon="2.27018">
        <ele>24.9</ele>
        <time>2023-06-03T13:18:49Z</time>
      </trkpt>
      <trkpt lat="49.89811" lon="2.27019">
        <ele>24.9</ele>
        <time>2023-06-03T13:18:50Z</time>
      </trkpt>
      <trkpt lat="49.89809" lon="2.27021">
        <ele>24.9</ele>
        <time>2023-06-03T13:18:51Z</time>
      </trkpt>
      <trkpt lat="49.89808" lon="2.27022">
        <ele>24.9</ele>
        <time>2023-06-03T13:18:52Z</time>
      </trkpt>
      <trkpt lat="49.89807" lon="2.27023">
        <ele>24.9</ele>
        <time>2023-06-03T13:18:53Z</time>
      </trkpt>
      <trkpt lat="49.89806" lon="2.27024">
        <ele>24.9</ele>
        <time>2023-06-03T13:18:54Z</time>
      </trkpt>
      <trkpt lat="49.89804" lon="2.27025">
        <ele>24.9</ele>
        <time>2023-06-03T13:18:55Z</time>
      </trkpt>
      <trkpt lat="49.89803" lon="2.27026">
        <ele>24.9</ele>
        <time>2023-06-03T13:18:57Z</time>
      </trkpt>
      <trkpt lat="49.89802" lon="2.27027">
        <ele>24.8</ele>
        <time>2023-06-03T13:18:58Z</time>
      </trkpt>
      <trkpt lat="49.89801" lon="2.27029">
        <ele>24.8</ele>
        <time>2023-06-03T13:18:59Z</time>
      </trkpt>
      <trkpt lat="49.89799" lon="2.2703">
        <ele>24.8</ele>
        <time>2023-06-03T13:19:00Z</time>
      </trkpt>
      <trkpt lat="49.89797" lon="2.27032">
        <ele>24.8</ele>
        <time>2023-06-03T13:19:01Z</time>
      </trkpt>
      <trkpt lat="49.89797" lon="2.27032">
        <ele>24.8</ele>
        <time>2023-06-03T13:19:02Z</time>
      </trkpt>
      <trkpt lat="49.89796" lon="2.27033">
        <ele>24.8</ele>
        <time>2023-06-03T13:19:03Z</time>
      </trkpt>
      <trkpt lat="49.89793" lon="2.27035">
        <ele>24.8</ele>
        <time>2023-06-03T13:19:05Z</time>
      </trkpt>
      <trkpt lat="49.89792" lon="2.27035">
        <ele>24.8</ele>
        <time>2023-06-03T13:19:06Z</time>
      </trkpt>
      <trkpt lat="49.89791" lon="2.27037">
        <ele>24.8</ele>
        <time>2023-06-03T13:19:07Z</time>
      </trkpt>
      <trkpt lat="49.8979" lon="2.27038">
        <ele>24.8</ele>
        <time>2023-06-03T13:19:09Z</time>
      </trkpt>
      <trkpt lat="49.89787" lon="2.2704">
        <ele>24.7</ele>
        <time>2023-06-03T13:19:10Z</time>
      </trkpt>
      <trkpt lat="49.89786" lon="2.27041">
        <ele>24.7</ele>
        <time>2023-06-03T13:19:11Z</time>
      </trkpt>
      <trkpt lat="49.89785" lon="2.27042">
        <ele>24.7</ele>
        <time>2023-06-03T13:19:13Z</time>
      </trkpt>
      <trkpt lat="49.89784" lon="2.27042">
        <ele>24.7</ele>
        <time>2023-06-03T13:19:14Z</time>
      </trkpt>
      <trkpt lat="49.89783" lon="2.27042">
        <ele>24.7</ele>
        <time>2023-06-03T13:19:15Z</time>
      </trkpt>
      <trkpt lat="49.89782" lon="2.27042">
        <ele>24.7</ele>
        <time>2023-06-03T13:19:16Z</time>
      </trkpt>
      <trkpt lat="49.89782" lon="2.27042">
        <ele>24.7</ele>
        <time>2023-06-03T13:19:17Z</time>
      </trkpt>
      <trkpt lat="49.89781" lon="2.27042">
        <ele>24.7</ele>
        <time>2023-06-03T13:19:18Z</time>
      </trkpt>
      <trkpt lat="49.89779" lon="2.27042">
        <ele>24.7</ele>
        <time>2023-06-03T13:19:20Z</time>
      </trkpt>
      <trkpt lat="49.89778" lon="2.27043">
        <ele>24.7</ele>
        <time>2023-06-03T13:19:21Z</time>
      </trkpt>
      <trkpt lat="49.89777" lon="2.27043">
        <ele>24.7</ele>
        <time>2023-06-03T13:19:22Z</time>
      </trkpt>
      <trkpt lat="49.89775" lon="2.27043">
        <ele>24.6</ele>
        <time>2023-06-03T13:19:24Z</time>
      </trkpt>
      <trkpt lat="49.89774" lon="2.27043">
        <ele>24.6</ele>
        <time>2023-06-03T13:19:25Z</time>
      </trkpt>
      <trkpt lat="49.89773" lon="2.27043">
        <ele>24.6</ele>
        <time>2023-06-03T13:19:26Z</time>
      </trkpt>
      <trkpt lat="49.89771" lon="2.27044">
        <ele>24.6</ele>
        <time>2023-06-03T13:19:27Z</time>
      </trkpt>
      <trkpt lat="49.8977" lon="2.27044">
        <ele>24.6</ele>
        <time>2023-06-03T13:19:28Z</time>
      </trkpt>
      <trkpt lat="49.89768" lon="2.27044">
        <ele>24.6</ele>
        <time>2023-06-03T13:19:29Z</time>
      </trkpt>
      <trkpt lat="49.89766" lon="2.27045">
        <ele>24.6</ele>
        <time>2023-06-03T13:19:30Z</time>
      </trkpt>
      <trkpt lat="49.89765" lon="2.27045">
        <ele>24.6</ele>
        <time>2023-06-03T13:19:32Z</time>
      </trkpt>
      <trkpt lat="49.89764" lon="2.27045">
        <ele>24.6</ele>
        <time>2023-06-03T13:19:33Z</time>
      </trkpt>
      <trkpt lat="49.89763" lon="2.27046">
        <ele>24.6</ele>
        <time>2023-06-03T13:19:34Z</time>
      </trkpt>
      <trkpt lat="49.89761" lon="2.27047">
        <ele>24.6</ele>
        <time>2023-06-03T13:19:35Z</time>
      </trkpt>
      <trkpt lat="49.8976" lon="2.27047">
        <ele>24.6</ele>
        <time>2023-06-03T13:19:36Z</time>
      </trkpt>
      <trkpt lat="49.89758" lon="2.27048">
        <ele>24.5</ele>
        <time>2023-06-03T13:19:37Z</time>
      </trkpt>
      <trkpt lat="49.89757" lon="2.27048">
        <ele>24.5</ele>
        <time>2023-06-03T13:19:38Z</time>
      </trkpt>
      <trkpt lat="49.89755" lon="2.27048">
        <ele>24.5</ele>
        <time>2023-06-03T13:19:40Z</time>
      </trkpt>
      <trkpt lat="49.89754" lon="2.27048">
        <ele>24.5</ele>
        <time>2023-06-03T13:19:41Z</time>
      </trkpt>
      <trkpt lat="49.89753" lon="2.27049">
        <ele>24.5</ele>
        <time>2023-06-03T13:19:42Z</time>
      </trkpt>
      <trkpt lat="49.89752" lon="2.2705">
        <ele>24.5</ele>
        <time>2023-06-03T13:19:44Z</time>
      </trkpt>
      <trkpt lat="49.8975" lon="2.2705">
        <ele>24.5</ele>
        <time>2023-06-03T13:19:45Z</time>
      </trkpt>
      <trkpt lat="49.89749" lon="2.27051">
        <ele>24.5</ele>
        <time>2023-06-03T13:19:46Z</time>
      </trkpt>
      <trkpt lat="49.89747" lon="2.27052">
        <ele>24.5</ele>
        <time>2023-06-03T13:19:47Z</time>
      </trkpt>
      <trkpt lat="49.89745" lon="2.27053">
        <ele>24.5</ele>
        <time>2023-06-03T13:19:48Z</time>
      </trkpt>
      <trkpt lat="49.89744" lon="2.27053">
        <ele>24.5</ele>
        <time>2023-06-03T13:19:49Z</time>
      </trkpt>
      <trkpt lat="49.89742" lon="2.27054">
        <ele>24.5</ele>
        <time>2023-06-03T13:19:50Z</time>
      </trkpt>
      <trkpt lat="49.8974" lon="2.27055">
        <ele>24.4</ele>
        <time>2023-06-03T13:19:52Z</time>
      </trkpt>
      <trkpt lat="49.89739" lon="2.27056">
        <ele>24.5</ele>
        <time>2023-06-03T13:19:53Z</time>
      </trkpt>
      <trkpt lat="49.89737" lon="2.27056">
        <ele>24.5</ele>
        <time>2023-06-03T13:19:54Z</time>
      </trkpt>
      <trkpt lat="49.89737" lon="2.27056">
        <ele>24.5</ele>
        <time>2023-06-03T13:19:55Z</time>
      </trkpt>
      <trkpt lat="49.89736" lon="2.27055">
        <ele>24.5</ele>
        <time>2023-06-03T13:19:56Z</time>
      </trkpt>
      <trkpt lat="49.89735" lon="2.27055">
        <ele>24.5</ele>
        <time>2023-06-03T13:19:57Z</time>
      </trkpt>
      <trkpt lat="49.89736" lon="2.27056">
        <ele>24.5</ele>
        <time>2023-06-03T13:19:58Z</time>
      </trkpt>
      <trkpt lat="49.89736" lon="2.27056">
        <ele>24.5</ele>
        <time>2023-06-03T13:19:59Z</time>
      </trkpt>
      <trkpt lat="49.89736" lon="2.27056">
        <ele>24.5</ele>
        <time>2023-06-03T13:20:01Z</time>
      </trkpt>
      <trkpt lat="49.89736" lon="2.27056">
        <ele>24.5</ele>
        <time>2023-06-03T13:20:02Z</time>
      </trkpt>
      <trkpt lat="49.89736" lon="2.27057">
        <ele>24.5</ele>
        <time>2023-06-03T13:20:03Z</time>
      </trkpt>
      <trkpt lat="49.89736" lon="2.27057">
        <ele>24.5</ele>
        <time>2023-06-03T13:20:05Z</time>
      </trkpt>
      <trkpt lat="49.89736" lon="2.27057">
        <ele>24.5</ele>
        <time>2023-06-03T13:20:06Z</time>
      </trkpt>
      <trkpt lat="49.89736" lon="2.27057">
        <ele>24.5</ele>
        <time>2023-06-03T13:20:08Z</time>
      </trkpt>
      <trkpt lat="49.89736" lon="2.27058">
        <ele>24.5</ele>
        <time>2023-06-03T13:20:09Z</time>
      </trkpt>
      <trkpt lat="49.89737" lon="2.27058">
        <ele>24.5</ele>
        <time>2023-06-03T13:20:10Z</time>
      </trkpt>
      <trkpt lat="49.89737" lon="2.27058">
        <ele>24.5</ele>
        <time>2023-06-03T13:20:12Z</time>
      </trkpt>
      <trkpt lat="49.89737" lon="2.27059">
        <ele>24.5</ele>
        <time>2023-06-03T13:20:13Z</time>
      </trkpt>
      <trkpt lat="49.89737" lon="2.27059">
        <ele>24.5</ele>
        <time>2023-06-03T13:20:14Z</time>
      </trkpt>
      <trkpt lat="49.89737" lon="2.27059">
        <ele>24.5</ele>
        <time>2023-06-03T13:20:16Z</time>
      </trkpt>
      <trkpt lat="49.89737" lon="2.27059">
        <ele>24.5</ele>
        <time>2023-06-03T13:20:17Z</time>
      </trkpt>
      <trkpt lat="49.89737" lon="2.2706">
        <ele>24.5</ele>
        <time>2023-06-03T13:20:18Z</time>
      </trkpt>
      <trkpt lat="49.89737" lon="2.2706">
        <ele>24.5</ele>
        <time>2023-06-03T13:20:20Z</time>
      </trkpt>
      <trkpt lat="49.89737" lon="2.2706">
        <ele>24.5</ele>
        <time>2023-06-03T13:20:21Z</time>
      </trkpt>
      <trkpt lat="49.89737" lon="2.2706">
        <ele>24.5</ele>
        <time>2023-06-03T13:20:22Z</time>
      </trkpt>
      <trkpt lat="49.89738" lon="2.27061">
        <ele>24.5</ele>
        <time>2023-06-03T13:20:23Z</time>
      </trkpt>
      <trkpt lat="49.89738" lon="2.27061">
        <ele>24.5</ele>
        <time>2023-06-03T13:20:24Z</time>
      </trkpt>
      <trkpt lat="49.89738" lon="2.27061">
        <ele>24.5</ele>
        <time>2023-06-03T13:20:25Z</time>
      </trkpt>
      <trkpt lat="49.89738" lon="2.27062">
        <ele>24.5</ele>
        <time>2023-06-03T13:20:26Z</time>
      </trkpt>
      <trkpt lat="49.89738" lon="2.27062">
        <ele>24.5</ele>
        <time>2023-06-03T13:20:27Z</time>
      </trkpt>
      <trkpt lat="49.89738" lon="2.27062">
        <ele>24.5</ele>
        <time>2023-06-03T13:20:28Z</time>
      </trkpt>
      <trkpt lat="49.89738" lon="2.27062">
        <ele>24.4</ele>
        <time>2023-06-03T13:20:29Z</time>
      </trkpt>
      <trkpt lat="49.89738" lon="2.27063">
        <ele>24.4</ele>
        <time>2023-06-03T13:20:30Z</time>
      </trkpt>
      <trkpt lat="49.89738" lon="2.27063">
        <ele>24.4</ele>
        <time>2023-06-03T13:20:31Z</time>
      </trkpt>
      <trkpt lat="49.89739" lon="2.27063">
        <ele>24.4</ele>
        <time>2023-06-03T13:20:32Z</time>
      </trkpt>
      <trkpt lat="49.89739" lon="2.27063">
        <ele>24.4</ele>
        <time>2023-06-03T13:20:33Z</time>
      </trkpt>
      <trkpt lat="49.89739" lon="2.27064">
        <ele>24.4</ele>
        <time>2023-06-03T13:20:34Z</time>
      </trkpt>
      <trkpt lat="49.89739" lon="2.27064">
        <ele>24.4</ele>
        <time>2023-06-03T13:20:35Z</time>
      </trkpt>
      <trkpt lat="49.89739" lon="2.27064">
        <ele>24.4</ele>
        <time>2023-06-03T13:20:36Z</time>
      </trkpt>
      <trkpt lat="49.89739" lon="2.27064">
        <ele>24.4</ele>
        <time>2023-06-03T13:20:37Z</time>
      </trkpt>
      <trkpt lat="49.89739" lon="2.27065">
        <ele>24.4</ele>
        <time>2023-06-03T13:20:38Z</time>
      </trkpt>
      <trkpt lat="49.89739" lon="2.27065">
        <ele>24.4</ele>
        <time>2023-06-03T13:20:39Z</time>
      </trkpt>
      <trkpt lat="49.89741" lon="2.27066">
        <ele>24.4</ele>
        <time>2023-06-03T13:20:40Z</time>
      </trkpt>
      <trkpt lat="49.89741" lon="2.27066">
        <ele>24.4</ele>
        <time>2023-06-03T13:20:41Z</time>
      </trkpt>
      <trkpt lat="49.89741" lon="2.27066">
        <ele>24.4</ele>
        <time>2023-06-03T13:20:42Z</time>
      </trkpt>
      <trkpt lat="49.89741" lon="2.27066">
        <ele>24.4</ele>
        <time>2023-06-03T13:20:43Z</time>
      </trkpt>
      <trkpt lat="49.89741" lon="2.27067">
        <ele>24.4</ele>
        <time>2023-06-03T13:20:44Z</time>
      </trkpt>
      <trkpt lat="49.89741" lon="2.27067">
        <ele>24.4</ele>
        <time>2023-06-03T13:20:45Z</time>
      </trkpt>
      <trkpt lat="49.89742" lon="2.27068">
        <ele>24.4</ele>
        <time>2023-06-03T13:20:46Z</time>
      </trkpt>
      <trkpt lat="49.89742" lon="2.27068">
        <ele>24.4</ele>
        <time>2023-06-03T13:20:48Z</time>
      </trkpt>
      <trkpt lat="49.89743" lon="2.27069">
        <ele>24.4</ele>
        <time>2023-06-03T13:20:49Z</time>
      </trkpt>
      <trkpt lat="49.89746" lon="2.27072">
        <ele>24.4</ele>
        <time>2023-06-03T13:20:51Z</time>
      </trkpt>
      <trkpt lat="49.89748" lon="2.27076">
        <ele>24.3</ele>
        <time>2023-06-03T13:20:52Z</time>
      </trkpt>
      <trkpt lat="49.89749" lon="2.27077">
        <ele>24.3</ele>
        <time>2023-06-03T13:20:53Z</time>
      </trkpt>
      <trkpt lat="49.8975" lon="2.27079">
        <ele>24.3</ele>
        <time>2023-06-03T13:20:54Z</time>
      </trkpt>
      <trkpt lat="49.8975" lon="2.2708">
        <ele>24.3</ele>
        <time>2023-06-03T13:20:55Z</time>
      </trkpt>
      <trkpt lat="49.89751" lon="2.27082">
        <ele>24.3</ele>
        <time>2023-06-03T13:20:56Z</time>
      </trkpt>
      <trkpt lat="49.89751" lon="2.27082">
        <ele>24.3</ele>
        <time>2023-06-03T13:20:57Z</time>
      </trkpt>
      <trkpt lat="49.89751" lon="2.27083">
        <ele>24.3</ele>
        <time>2023-06-03T13:20:59Z</time>
      </trkpt>
      <trkpt lat="49.89752" lon="2.27084">
        <ele>24.3</ele>
        <time>2023-06-03T13:21:00Z</time>
      </trkpt>
      <trkpt lat="49.89753" lon="2.27085">
        <ele>24.2</ele>
        <time>2023-06-03T13:21:01Z</time>
      </trkpt>
      <trkpt lat="49.89755" lon="2.27086">
        <ele>24.2</ele>
        <time>2023-06-03T13:21:02Z</time>
      </trkpt>
      <trkpt lat="49.89756" lon="2.27088">
        <ele>24.2</ele>
        <time>2023-06-03T13:21:03Z</time>
      </trkpt>
      <trkpt lat="49.89757" lon="2.2709">
        <ele>24.2</ele>
        <time>2023-06-03T13:21:04Z</time>
      </trkpt>
      <trkpt lat="49.89759" lon="2.27092">
        <ele>24.2</ele>
        <time>2023-06-03T13:21:05Z</time>
      </trkpt>
      <trkpt lat="49.8976" lon="2.27093">
        <ele>24.2</ele>
        <time>2023-06-03T13:21:07Z</time>
      </trkpt>
      <trkpt lat="49.89761" lon="2.27095">
        <ele>24.2</ele>
        <time>2023-06-03T13:21:08Z</time>
      </trkpt>
      <trkpt lat="49.89762" lon="2.27096">
        <ele>24.2</ele>
        <time>2023-06-03T13:21:09Z</time>
      </trkpt>
      <trkpt lat="49.89763" lon="2.27097">
        <ele>24.2</ele>
        <time>2023-06-03T13:21:10Z</time>
      </trkpt>
      <trkpt lat="49.89764" lon="2.27099">
        <ele>24.1</ele>
        <time>2023-06-03T13:21:12Z</time>
      </trkpt>
      <trkpt lat="49.89766" lon="2.27101">
        <ele>24.1</ele>
        <time>2023-06-03T13:21:13Z</time>
      </trkpt>
      <trkpt lat="49.89767" lon="2.27102">
        <ele>24.1</ele>
        <time>2023-06-03T13:21:14Z</time>
      </trkpt>
      <trkpt lat="49.89767" lon="2.27102">
        <ele>24.1</ele>
        <time>2023-06-03T13:21:15Z</time>
      </trkpt>
      <trkpt lat="49.8977" lon="2.27105">
        <ele>24.1</ele>
        <time>2023-06-03T13:21:17Z</time>
      </trkpt>
      <trkpt lat="49.89771" lon="2.27107">
        <ele>24.1</ele>
        <time>2023-06-03T13:21:18Z</time>
      </trkpt>
      <trkpt lat="49.89772" lon="2.27108">
        <ele>24.1</ele>
        <time>2023-06-03T13:21:19Z</time>
      </trkpt>
      <trkpt lat="49.89775" lon="2.2711">
        <ele>24.1</ele>
        <time>2023-06-03T13:21:21Z</time>
      </trkpt>
      <trkpt lat="49.89777" lon="2.27112">
        <ele>24.1</ele>
        <time>2023-06-03T13:21:22Z</time>
      </trkpt>
      <trkpt lat="49.89779" lon="2.27115">
        <ele>24.1</ele>
        <time>2023-06-03T13:21:24Z</time>
      </trkpt>
      <trkpt lat="49.89782" lon="2.27118">
        <ele>24.1</ele>
        <time>2023-06-03T13:21:25Z</time>
      </trkpt>
      <trkpt lat="49.89785" lon="2.2712">
        <ele>24</ele>
        <time>2023-06-03T13:21:26Z</time>
      </trkpt>
      <trkpt lat="49.89786" lon="2.27121">
        <ele>24</ele>
        <time>2023-06-03T13:21:27Z</time>
      </trkpt>
      <trkpt lat="49.89788" lon="2.27124">
        <ele>24</ele>
        <time>2023-06-03T13:21:28Z</time>
      </trkpt>
      <trkpt lat="49.89789" lon="2.27125">
        <ele>24</ele>
        <time>2023-06-03T13:21:29Z</time>
      </trkpt>
      <trkpt lat="49.89791" lon="2.27128">
        <ele>23.9</ele>
        <time>2023-06-03T13:21:30Z</time>
      </trkpt>
      <trkpt lat="49.89792" lon="2.27129">
        <ele>23.9</ele>
        <time>2023-06-03T13:21:31Z</time>
      </trkpt>
      <trkpt lat="49.89793" lon="2.2713">
        <ele>23.9</ele>
        <time>2023-06-03T13:21:32Z</time>
      </trkpt>
      <trkpt lat="49.89794" lon="2.27132">
        <ele>23.9</ele>
        <time>2023-06-03T13:21:34Z</time>
      </trkpt>
      <trkpt lat="49.89796" lon="2.27135">
        <ele>23.8</ele>
        <time>2023-06-03T13:21:35Z</time>
      </trkpt>
      <trkpt lat="49.89797" lon="2.27136">
        <ele>23.8</ele>
        <time>2023-06-03T13:21:36Z</time>
      </trkpt>
      <trkpt lat="49.89798" lon="2.27137">
        <ele>23.8</ele>
        <time>2023-06-03T13:21:38Z</time>
      </trkpt>
      <trkpt lat="49.89799" lon="2.27138">
        <ele>23.8</ele>
        <time>2023-06-03T13:21:39Z</time>
      </trkpt>
      <trkpt lat="49.898" lon="2.27138">
        <ele>23.8</ele>
        <time>2023-06-03T13:21:40Z</time>
      </trkpt>
      <trkpt lat="49.898" lon="2.27137">
        <ele>23.8</ele>
        <time>2023-06-03T13:21:41Z</time>
      </trkpt>
      <trkpt lat="49.898" lon="2.27137">
        <ele>23.8</ele>
        <time>2023-06-03T13:21:42Z</time>
      </trkpt>
      <trkpt lat="49.89801" lon="2.27138">
        <ele>23.8</ele>
        <time>2023-06-03T13:21:43Z</time>
      </trkpt>
      <trkpt lat="49.89802" lon="2.27138">
        <ele>23.8</ele>
        <time>2023-06-03T13:21:44Z</time>
      </trkpt>
      <trkpt lat="49.89803" lon="2.27139">
        <ele>23.8</ele>
        <time>2023-06-03T13:21:45Z</time>
      </trkpt>
      <trkpt lat="49.89804" lon="2.27139">
        <ele>23.8</ele>
        <time>2023-06-03T13:21:47Z</time>
      </trkpt>
      <trkpt lat="49.89806" lon="2.27141">
        <ele>23.8</ele>
        <time>2023-06-03T13:21:48Z</time>
      </trkpt>
      <trkpt lat="49.89808" lon="2.27141">
        <ele>23.8</ele>
        <time>2023-06-03T13:21:50Z</time>
      </trkpt>
      <trkpt lat="49.8981" lon="2.27143">
        <ele>23.7</ele>
        <time>2023-06-03T13:21:51Z</time>
      </trkpt>
      <trkpt lat="49.89811" lon="2.27144">
        <ele>23.7</ele>
        <time>2023-06-03T13:21:52Z</time>
      </trkpt>
      <trkpt lat="49.89813" lon="2.27144">
        <ele>23.7</ele>
        <time>2023-06-03T13:21:53Z</time>
      </trkpt>
      <trkpt lat="49.89814" lon="2.27145">
        <ele>23.7</ele>
        <time>2023-06-03T13:21:54Z</time>
      </trkpt>
      <trkpt lat="49.89816" lon="2.27146">
        <ele>23.7</ele>
        <time>2023-06-03T13:21:55Z</time>
      </trkpt>
      <trkpt lat="49.89818" lon="2.27146">
        <ele>23.7</ele>
        <time>2023-06-03T13:21:56Z</time>
      </trkpt>
      <trkpt lat="49.89819" lon="2.27146">
        <ele>23.7</ele>
        <time>2023-06-03T13:21:57Z</time>
      </trkpt>
      <trkpt lat="49.89821" lon="2.27145">
        <ele>23.7</ele>
        <time>2023-06-03T13:21:58Z</time>
      </trkpt>
      <trkpt lat="49.89823" lon="2.27145">
        <ele>23.7</ele>
        <time>2023-06-03T13:21:59Z</time>
      </trkpt>
      <trkpt lat="49.89824" lon="2.27145">
        <ele>23.7</ele>
        <time>2023-06-03T13:22:01Z</time>
      </trkpt>
      <trkpt lat="49.89825" lon="2.27146">
        <ele>23.7</ele>
        <time>2023-06-03T13:22:02Z</time>
      </trkpt>
      <trkpt lat="49.89825" lon="2.27147">
        <ele>23.7</ele>
        <time>2023-06-03T13:22:03Z</time>
      </trkpt>
      <trkpt lat="49.89826" lon="2.27148">
        <ele>23.7</ele>
        <time>2023-06-03T13:22:05Z</time>
      </trkpt>
      <trkpt lat="49.89827" lon="2.27149">
        <ele>23.7</ele>
        <time>2023-06-03T13:22:06Z</time>
      </trkpt>
      <trkpt lat="49.89828" lon="2.27151">
        <ele>23.7</ele>
        <time>2023-06-03T13:22:07Z</time>
      </trkpt>
      <trkpt lat="49.89828" lon="2.27153">
        <ele>23.7</ele>
        <time>2023-06-03T13:22:08Z</time>
      </trkpt>
      <trkpt lat="49.89828" lon="2.27154">
        <ele>23.7</ele>
        <time>2023-06-03T13:22:09Z</time>
      </trkpt>
      <trkpt lat="49.89828" lon="2.27157">
        <ele>23.7</ele>
        <time>2023-06-03T13:22:10Z</time>
      </trkpt>
      <trkpt lat="49.89828" lon="2.27159">
        <ele>23.7</ele>
        <time>2023-06-03T13:22:11Z</time>
      </trkpt>
      <trkpt lat="49.89828" lon="2.2716">
        <ele>23.7</ele>
        <time>2023-06-03T13:22:12Z</time>
      </trkpt>
      <trkpt lat="49.89828" lon="2.27162">
        <ele>23.7</ele>
        <time>2023-06-03T13:22:13Z</time>
      </trkpt>
      <trkpt lat="49.89829" lon="2.27166">
        <ele>23.7</ele>
        <time>2023-06-03T13:22:15Z</time>
      </trkpt>
      <trkpt lat="49.89829" lon="2.27169">
        <ele>23.7</ele>
        <time>2023-06-03T13:22:16Z</time>
      </trkpt>
      <trkpt lat="49.89829" lon="2.27171">
        <ele>23.7</ele>
        <time>2023-06-03T13:22:17Z</time>
      </trkpt>
      <trkpt lat="49.89829" lon="2.27173">
        <ele>23.7</ele>
        <time>2023-06-03T13:22:18Z</time>
      </trkpt>
      <trkpt lat="49.89829" lon="2.27176">
        <ele>23.7</ele>
        <time>2023-06-03T13:22:20Z</time>
      </trkpt>
      <trkpt lat="49.89828" lon="2.27177">
        <ele>23.7</ele>
        <time>2023-06-03T13:22:21Z</time>
      </trkpt>
      <trkpt lat="49.89827" lon="2.27178">
        <ele>23.7</ele>
        <time>2023-06-03T13:22:22Z</time>
      </trkpt>
      <trkpt lat="49.89826" lon="2.27178">
        <ele>23.7</ele>
        <time>2023-06-03T13:22:23Z</time>
      </trkpt>
      <trkpt lat="49.89826" lon="2.27179">
        <ele>23.7</ele>
        <time>2023-06-03T13:22:24Z</time>
      </trkpt>
      <trkpt lat="49.89825" lon="2.2718">
        <ele>23.7</ele>
        <time>2023-06-03T13:22:25Z</time>
      </trkpt>
      <trkpt lat="49.89824" lon="2.2718">
        <ele>23.7</ele>
        <time>2023-06-03T13:22:26Z</time>
      </trkpt>
      <trkpt lat="49.89824" lon="2.27181">
        <ele>23.7</ele>
        <time>2023-06-03T13:22:28Z</time>
      </trkpt>
      <trkpt lat="49.89824" lon="2.27182">
        <ele>23.8</ele>
        <time>2023-06-03T13:22:29Z</time>
      </trkpt>
      <trkpt lat="49.89824" lon="2.27184">
        <ele>23.8</ele>
        <time>2023-06-03T13:22:30Z</time>
      </trkpt>
      <trkpt lat="49.89825" lon="2.27185">
        <ele>23.8</ele>
        <time>2023-06-03T13:22:31Z</time>
      </trkpt>
      <trkpt lat="49.89826" lon="2.27186">
        <ele>23.8</ele>
        <time>2023-06-03T13:22:32Z</time>
      </trkpt>
      <trkpt lat="49.89827" lon="2.27188">
        <ele>23.8</ele>
        <time>2023-06-03T13:22:33Z</time>
      </trkpt>
      <trkpt lat="49.89828" lon="2.27189">
        <ele>23.8</ele>
        <time>2023-06-03T13:22:34Z</time>
      </trkpt>
      <trkpt lat="49.8983" lon="2.27191">
        <ele>23.8</ele>
        <time>2023-06-03T13:22:35Z</time>
      </trkpt>
      <trkpt lat="49.89831" lon="2.27192">
        <ele>23.8</ele>
        <time>2023-06-03T13:22:37Z</time>
      </trkpt>
      <trkpt lat="49.89833" lon="2.27193">
        <ele>23.8</ele>
        <time>2023-06-03T13:22:38Z</time>
      </trkpt>
      <trkpt lat="49.89835" lon="2.27194">
        <ele>23.9</ele>
        <time>2023-06-03T13:22:39Z</time>
      </trkpt>
      <trkpt lat="49.89837" lon="2.27196">
        <ele>23.9</ele>
        <time>2023-06-03T13:22:40Z</time>
      </trkpt>
      <trkpt lat="49.89838" lon="2.27197">
        <ele>23.9</ele>
        <time>2023-06-03T13:22:41Z</time>
      </trkpt>
      <trkpt lat="49.89839" lon="2.27198">
        <ele>23.9</ele>
        <time>2023-06-03T13:22:42Z</time>
      </trkpt>
      <trkpt lat="49.89841" lon="2.27201">
        <ele>23.9</ele>
        <time>2023-06-03T13:22:44Z</time>
      </trkpt>
      <trkpt lat="49.89843" lon="2.27204">
        <ele>24</ele>
        <time>2023-06-03T13:22:45Z</time>
      </trkpt>
      <trkpt lat="49.89844" lon="2.27205">
        <ele>24</ele>
        <time>2023-06-03T13:22:46Z</time>
      </trkpt>
      <trkpt lat="49.89845" lon="2.27207">
        <ele>24</ele>
        <time>2023-06-03T13:22:48Z</time>
      </trkpt>
      <trkpt lat="49.89846" lon="2.27209">
        <ele>24</ele>
        <time>2023-06-03T13:22:49Z</time>
      </trkpt>
      <trkpt lat="49.89847" lon="2.27211">
        <ele>24</ele>
        <time>2023-06-03T13:22:50Z</time>
      </trkpt>
      <trkpt lat="49.89849" lon="2.27212">
        <ele>24.1</ele>
        <time>2023-06-03T13:22:51Z</time>
      </trkpt>
      <trkpt lat="49.8985" lon="2.27213">
        <ele>24.1</ele>
        <time>2023-06-03T13:22:52Z</time>
      </trkpt>
      <trkpt lat="49.89851" lon="2.27215">
        <ele>24.1</ele>
        <time>2023-06-03T13:22:53Z</time>
      </trkpt>
      <trkpt lat="49.89852" lon="2.27216">
        <ele>24.1</ele>
        <time>2023-06-03T13:22:54Z</time>
      </trkpt>
      <trkpt lat="49.89853" lon="2.27219">
        <ele>24.1</ele>
        <time>2023-06-03T13:22:55Z</time>
      </trkpt>
      <trkpt lat="49.89853" lon="2.2722">
        <ele>24.1</ele>
        <time>2023-06-03T13:22:57Z</time>
      </trkpt>
      <trkpt lat="49.89854" lon="2.27221">
        <ele>24.1</ele>
        <time>2023-06-03T13:22:58Z</time>
      </trkpt>
      <trkpt lat="49.89854" lon="2.27222">
        <ele>24.1</ele>
        <time>2023-06-03T13:22:59Z</time>
      </trkpt>
      <trkpt lat="49.89855" lon="2.27224">
        <ele>24.2</ele>
        <time>2023-06-03T13:23:00Z</time>
      </trkpt>
      <trkpt lat="49.89856" lon="2.27225">
        <ele>24.1</ele>
        <time>2023-06-03T13:23:01Z</time>
      </trkpt>
      <trkpt lat="49.89856" lon="2.27226">
        <ele>24.1</ele>
        <time>2023-06-03T13:23:02Z</time>
      </trkpt>
      <trkpt lat="49.89856" lon="2.27228">
        <ele>24.1</ele>
        <time>2023-06-03T13:23:03Z</time>
      </trkpt>
      <trkpt lat="49.89856" lon="2.27229">
        <ele>24.1</ele>
        <time>2023-06-03T13:23:05Z</time>
      </trkpt>
      <trkpt lat="49.89856" lon="2.27233">
        <ele>24.1</ele>
        <time>2023-06-03T13:23:06Z</time>
      </trkpt>
      <trkpt lat="49.89856" lon="2.27235">
        <ele>24</ele>
        <time>2023-06-03T13:23:07Z</time>
      </trkpt>
      <trkpt lat="49.89856" lon="2.27236">
        <ele>24</ele>
        <time>2023-06-03T13:23:09Z</time>
      </trkpt>
      <trkpt lat="49.89855" lon="2.27238">
        <ele>24</ele>
        <time>2023-06-03T13:23:10Z</time>
      </trkpt>
      <trkpt lat="49.89855" lon="2.27239">
        <ele>24</ele>
        <time>2023-06-03T13:23:11Z</time>
      </trkpt>
      <trkpt lat="49.89854" lon="2.27243">
        <ele>24</ele>
        <time>2023-06-03T13:23:12Z</time>
      </trkpt>
      <trkpt lat="49.89854" lon="2.27244">
        <ele>23.9</ele>
        <time>2023-06-03T13:23:13Z</time>
      </trkpt>
      <trkpt lat="49.89854" lon="2.27245">
        <ele>23.9</ele>
        <time>2023-06-03T13:23:14Z</time>
      </trkpt>
      <trkpt lat="49.89854" lon="2.2725">
        <ele>23.9</ele>
        <time>2023-06-03T13:23:15Z</time>
      </trkpt>
      <trkpt lat="49.89855" lon="2.27252">
        <ele>23.9</ele>
        <time>2023-06-03T13:23:17Z</time>
      </trkpt>
      <trkpt lat="49.89855" lon="2.27254">
        <ele>23.9</ele>
        <time>2023-06-03T13:23:18Z</time>
      </trkpt>
      <trkpt lat="49.89856" lon="2.27255">
        <ele>23.9</ele>
        <time>2023-06-03T13:23:19Z</time>
      </trkpt>
      <trkpt lat="49.89857" lon="2.2726">
        <ele>23.9</ele>
        <time>2023-06-03T13:23:21Z</time>
      </trkpt>
      <trkpt lat="49.89857" lon="2.27261">
        <ele>23.9</ele>
        <time>2023-06-03T13:23:22Z</time>
      </trkpt>
      <trkpt lat="49.89858" lon="2.27263">
        <ele>24</ele>
        <time>2023-06-03T13:23:23Z</time>
      </trkpt>
      <trkpt lat="49.89859" lon="2.27264">
        <ele>24</ele>
        <time>2023-06-03T13:23:24Z</time>
      </trkpt>
      <trkpt lat="49.8986" lon="2.27265">
        <ele>24</ele>
        <time>2023-06-03T13:23:26Z</time>
      </trkpt>
      <trkpt lat="49.89861" lon="2.27266">
        <ele>24</ele>
        <time>2023-06-03T13:23:27Z</time>
      </trkpt>
      <trkpt lat="49.89863" lon="2.27268">
        <ele>24</ele>
        <time>2023-06-03T13:23:28Z</time>
      </trkpt>
      <trkpt lat="49.89863" lon="2.27268">
        <ele>24</ele>
        <time>2023-06-03T13:23:29Z</time>
      </trkpt>
      <trkpt lat="49.89864" lon="2.27269">
        <ele>24</ele>
        <time>2023-06-03T13:23:30Z</time>
      </trkpt>
      <trkpt lat="49.89865" lon="2.27269">
        <ele>24</ele>
        <time>2023-06-03T13:23:31Z</time>
      </trkpt>
      <trkpt lat="49.89866" lon="2.27269">
        <ele>24</ele>
        <time>2023-06-03T13:23:33Z</time>
      </trkpt>
      <trkpt lat="49.89867" lon="2.27269">
        <ele>24</ele>
        <time>2023-06-03T13:23:34Z</time>
      </trkpt>
      <trkpt lat="49.89868" lon="2.27268">
        <ele>24</ele>
        <time>2023-06-03T13:23:35Z</time>
      </trkpt>
      <trkpt lat="49.89869" lon="2.27267">
        <ele>24.1</ele>
        <time>2023-06-03T13:23:36Z</time>
      </trkpt>
      <trkpt lat="49.89871" lon="2.27265">
        <ele>24.1</ele>
        <time>2023-06-03T13:23:37Z</time>
      </trkpt>
      <trkpt lat="49.89871" lon="2.27264">
        <ele>24.1</ele>
        <time>2023-06-03T13:23:38Z</time>
      </trkpt>
      <trkpt lat="49.89872" lon="2.27261">
        <ele>24.1</ele>
        <time>2023-06-03T13:23:39Z</time>
      </trkpt>
      <trkpt lat="49.89872" lon="2.27259">
        <ele>24.1</ele>
        <time>2023-06-03T13:23:41Z</time>
      </trkpt>
      <trkpt lat="49.89872" lon="2.27258">
        <ele>24.1</ele>
        <time>2023-06-03T13:23:42Z</time>
      </trkpt>
      <trkpt lat="49.89872" lon="2.27255">
        <ele>24.2</ele>
        <time>2023-06-03T13:23:43Z</time>
      </trkpt>
      <trkpt lat="49.89872" lon="2.27253">
        <ele>24.2</ele>
        <time>2023-06-03T13:23:44Z</time>
      </trkpt>
      <trkpt lat="49.89872" lon="2.2725">
        <ele>24.2</ele>
        <time>2023-06-03T13:23:45Z</time>
      </trkpt>
      <trkpt lat="49.89873" lon="2.27248">
        <ele>24.2</ele>
        <time>2023-06-03T13:23:46Z</time>
      </trkpt>
      <trkpt lat="49.89873" lon="2.27245">
        <ele>24.2</ele>
        <time>2023-06-03T13:23:47Z</time>
      </trkpt>
      <trkpt lat="49.89873" lon="2.27243">
        <ele>24.2</ele>
        <time>2023-06-03T13:23:49Z</time>
      </trkpt>
      <trkpt lat="49.89873" lon="2.27241">
        <ele>24.2</ele>
        <time>2023-06-03T13:23:50Z</time>
      </trkpt>
      <trkpt lat="49.89873" lon="2.27239">
        <ele>24.3</ele>
        <time>2023-06-03T13:23:51Z</time>
      </trkpt>
      <trkpt lat="49.89874" lon="2.27237">
        <ele>24.3</ele>
        <time>2023-06-03T13:23:52Z</time>
      </trkpt>
      <trkpt lat="49.89875" lon="2.27234">
        <ele>24.3</ele>
        <time>2023-06-03T13:23:53Z</time>
      </trkpt>
      <trkpt lat="49.89876" lon="2.27231">
        <ele>24.3</ele>
        <time>2023-06-03T13:23:54Z</time>
      </trkpt>
      <trkpt lat="49.89876" lon="2.2723">
        <ele>24.3</ele>
        <time>2023-06-03T13:23:55Z</time>
      </trkpt>
      <trkpt lat="49.89876" lon="2.27228">
        <ele>24.3</ele>
        <time>2023-06-03T13:23:56Z</time>
      </trkpt>
      <trkpt lat="49.89877" lon="2.27226">
        <ele>24.3</ele>
        <time>2023-06-03T13:23:58Z</time>
      </trkpt>
      <trkpt lat="49.89878" lon="2.27224">
        <ele>24.3</ele>
        <time>2023-06-03T13:23:59Z</time>
      </trkpt>
      <trkpt lat="49.89878" lon="2.27221">
        <ele>24.3</ele>
        <time>2023-06-03T13:24:00Z</time>
      </trkpt>
      <trkpt lat="49.89879" lon="2.27219">
        <ele>24.3</ele>
        <time>2023-06-03T13:24:01Z</time>
      </trkpt>
      <trkpt lat="49.8988" lon="2.27216">
        <ele>24.4</ele>
        <time>2023-06-03T13:24:02Z</time>
      </trkpt>
      <trkpt lat="49.8988" lon="2.27214">
        <ele>24.4</ele>
        <time>2023-06-03T13:24:03Z</time>
      </trkpt>
      <trkpt lat="49.8988" lon="2.27212">
        <ele>24.4</ele>
        <time>2023-06-03T13:24:05Z</time>
      </trkpt>
      <trkpt lat="49.89881" lon="2.27209">
        <ele>24.4</ele>
        <time>2023-06-03T13:24:06Z</time>
      </trkpt>
      <trkpt lat="49.89882" lon="2.27207">
        <ele>24.4</ele>
        <time>2023-06-03T13:24:07Z</time>
      </trkpt>
      <trkpt lat="49.89882" lon="2.27205">
        <ele>24.4</ele>
        <time>2023-06-03T13:24:09Z</time>
      </trkpt>
      <trkpt lat="49.89883" lon="2.27203">
        <ele>24.4</ele>
        <time>2023-06-03T13:24:10Z</time>
      </trkpt>
      <trkpt lat="49.89883" lon="2.272">
        <ele>24.4</ele>
        <time>2023-06-03T13:24:11Z</time>
      </trkpt>
      <trkpt lat="49.89883" lon="2.27199">
        <ele>24.4</ele>
        <time>2023-06-03T13:24:12Z</time>
      </trkpt>
      <trkpt lat="49.89884" lon="2.27196">
        <ele>24.4</ele>
        <time>2023-06-03T13:24:13Z</time>
      </trkpt>
      <trkpt lat="49.89884" lon="2.27195">
        <ele>24.4</ele>
        <time>2023-06-03T13:24:14Z</time>
      </trkpt>
      <trkpt lat="49.89885" lon="2.27193">
        <ele>24.4</ele>
        <time>2023-06-03T13:24:15Z</time>
      </trkpt>
      <trkpt lat="49.89885" lon="2.27192">
        <ele>24.4</ele>
        <time>2023-06-03T13:24:16Z</time>
      </trkpt>
      <trkpt lat="49.89886" lon="2.27189">
        <ele>24.5</ele>
        <time>2023-06-03T13:24:18Z</time>
      </trkpt>
      <trkpt lat="49.89886" lon="2.27187">
        <ele>24.5</ele>
        <time>2023-06-03T13:24:19Z</time>
      </trkpt>
      <trkpt lat="49.89887" lon="2.27185">
        <ele>24.5</ele>
        <time>2023-06-03T13:24:20Z</time>
      </trkpt>
      <trkpt lat="49.89887" lon="2.27184">
        <ele>24.5</ele>
        <time>2023-06-03T13:24:21Z</time>
      </trkpt>
      <trkpt lat="49.89888" lon="2.27183">
        <ele>24.5</ele>
        <time>2023-06-03T13:24:22Z</time>
      </trkpt>
      <trkpt lat="49.89889" lon="2.27181">
        <ele>24.5</ele>
        <time>2023-06-03T13:24:23Z</time>
      </trkpt>
      <trkpt lat="49.89889" lon="2.27179">
        <ele>24.5</ele>
        <time>2023-06-03T13:24:24Z</time>
      </trkpt>
      <trkpt lat="49.8989" lon="2.27176">
        <ele>24.5</ele>
        <time>2023-06-03T13:24:26Z</time>
      </trkpt>
      <trkpt lat="49.89891" lon="2.27175">
        <ele>24.5</ele>
        <time>2023-06-03T13:24:27Z</time>
      </trkpt>
      <trkpt lat="49.89891" lon="2.27173">
        <ele>24.5</ele>
        <time>2023-06-03T13:24:28Z</time>
      </trkpt>
      <trkpt lat="49.89892" lon="2.27172">
        <ele>24.5</ele>
        <time>2023-06-03T13:24:29Z</time>
      </trkpt>
      <trkpt lat="49.89893" lon="2.27171">
        <ele>24.5</ele>
        <time>2023-06-03T13:24:30Z</time>
      </trkpt>
      <trkpt lat="49.89894" lon="2.2717">
        <ele>24.5</ele>
        <time>2023-06-03T13:24:31Z</time>
      </trkpt>
      <trkpt lat="49.89895" lon="2.27169">
        <ele>24.6</ele>
        <time>2023-06-03T13:24:32Z</time>
      </trkpt>
      <trkpt lat="49.89895" lon="2.27167">
        <ele>24.6</ele>
        <time>2023-06-03T13:24:33Z</time>
      </trkpt>
      <trkpt lat="49.89896" lon="2.27166">
        <ele>24.6</ele>
        <time>2023-06-03T13:24:34Z</time>
      </trkpt>
      <trkpt lat="49.89899" lon="2.27164">
        <ele>24.6</ele>
        <time>2023-06-03T13:24:36Z</time>
      </trkpt>
      <trkpt lat="49.89899" lon="2.27163">
        <ele>24.6</ele>
        <time>2023-06-03T13:24:37Z</time>
      </trkpt>
      <trkpt lat="49.899" lon="2.27161">
        <ele>24.6</ele>
        <time>2023-06-03T13:24:38Z</time>
      </trkpt>
      <trkpt lat="49.89901" lon="2.2716">
        <ele>24.6</ele>
        <time>2023-06-03T13:24:40Z</time>
      </trkpt>
      <trkpt lat="49.89902" lon="2.27159">
        <ele>24.6</ele>
        <time>2023-06-03T13:24:41Z</time>
      </trkpt>
      <trkpt lat="49.89903" lon="2.27159">
        <ele>24.6</ele>
        <time>2023-06-03T13:24:42Z</time>
      </trkpt>
      <trkpt lat="49.89904" lon="2.27158">
        <ele>24.6</ele>
        <time>2023-06-03T13:24:43Z</time>
      </trkpt>
      <trkpt lat="49.89905" lon="2.27157">
        <ele>24.6</ele>
        <time>2023-06-03T13:24:44Z</time>
      </trkpt>
      <trkpt lat="49.89907" lon="2.27156">
        <ele>24.6</ele>
        <time>2023-06-03T13:24:45Z</time>
      </trkpt>
      <trkpt lat="49.89908" lon="2.27155">
        <ele>24.7</ele>
        <time>2023-06-03T13:24:46Z</time>
      </trkpt>
      <trkpt lat="49.89909" lon="2.27155">
        <ele>24.7</ele>
        <time>2023-06-03T13:24:47Z</time>
      </trkpt>
      <trkpt lat="49.8991" lon="2.27154">
        <ele>24.7</ele>
        <time>2023-06-03T13:24:48Z</time>
      </trkpt>
      <trkpt lat="49.89912" lon="2.27154">
        <ele>24.7</ele>
        <time>2023-06-03T13:24:50Z</time>
      </trkpt>
      <trkpt lat="49.89913" lon="2.27154">
        <ele>24.7</ele>
        <time>2023-06-03T13:24:51Z</time>
      </trkpt>
      <trkpt lat="49.89914" lon="2.27154">
        <ele>24.7</ele>
        <time>2023-06-03T13:24:52Z</time>
      </trkpt>
      <trkpt lat="49.89916" lon="2.27154">
        <ele>24.7</ele>
        <time>2023-06-03T13:24:54Z</time>
      </trkpt>
      <trkpt lat="49.89917" lon="2.27154">
        <ele>24.7</ele>
        <time>2023-06-03T13:24:55Z</time>
      </trkpt>
      <trkpt lat="49.89919" lon="2.27153">
        <ele>24.7</ele>
        <time>2023-06-03T13:24:56Z</time>
      </trkpt>
      <trkpt lat="49.8992" lon="2.27153">
        <ele>24.7</ele>
        <time>2023-06-03T13:24:57Z</time>
      </trkpt>
      <trkpt lat="49.89922" lon="2.27152">
        <ele>24.7</ele>
        <time>2023-06-03T13:24:58Z</time>
      </trkpt>
      <trkpt lat="49.89924" lon="2.27152">
        <ele>24.7</ele>
        <time>2023-06-03T13:24:59Z</time>
      </trkpt>
      <trkpt lat="49.89925" lon="2.27153">
        <ele>24.7</ele>
        <time>2023-06-03T13:25:00Z</time>
      </trkpt>
      <trkpt lat="49.89928" lon="2.27153">
        <ele>24.8</ele>
        <time>2023-06-03T13:25:02Z</time>
      </trkpt>
      <trkpt lat="49.89929" lon="2.27153">
        <ele>24.8</ele>
        <time>2023-06-03T13:25:03Z</time>
      </trkpt>
      <trkpt lat="49.8993" lon="2.27154">
        <ele>24.8</ele>
        <time>2023-06-03T13:25:04Z</time>
      </trkpt>
      <trkpt lat="49.89929" lon="2.27154">
        <ele>24.8</ele>
        <time>2023-06-03T13:25:06Z</time>
      </trkpt>
      <trkpt lat="49.89929" lon="2.27154">
        <ele>24.8</ele>
        <time>2023-06-03T13:25:07Z</time>
      </trkpt>
      <trkpt lat="49.89929" lon="2.27154">
        <ele>24.8</ele>
        <time>2023-06-03T13:25:08Z</time>
      </trkpt>
      <trkpt lat="49.89929" lon="2.27154">
        <ele>24.8</ele>
        <time>2023-06-03T13:25:10Z</time>
      </trkpt>
      <trkpt lat="49.89929" lon="2.27154">
        <ele>24.8</ele>
        <time>2023-06-03T13:25:11Z</time>
      </trkpt>
      <trkpt lat="49.89929" lon="2.27154">
        <ele>24.8</ele>
        <time>2023-06-03T13:25:12Z</time>
      </trkpt>
      <trkpt lat="49.89929" lon="2.27154">
        <ele>24.8</ele>
        <time>2023-06-03T13:25:14Z</time>
      </trkpt>
      <trkpt lat="49.89929" lon="2.27154">
        <ele>24.8</ele>
        <time>2023-06-03T13:25:15Z</time>
      </trkpt>
      <trkpt lat="49.89928" lon="2.27155">
        <ele>24.8</ele>
        <time>2023-06-03T13:25:16Z</time>
      </trkpt>
      <trkpt lat="49.89928" lon="2.27155">
        <ele>24.8</ele>
        <time>2023-06-03T13:25:18Z</time>
      </trkpt>
      <trkpt lat="49.89928" lon="2.27155">
        <ele>24.8</ele>
        <time>2023-06-03T13:25:19Z</time>
      </trkpt>
      <trkpt lat="49.89928" lon="2.27155">
        <ele>24.8</ele>
        <time>2023-06-03T13:25:21Z</time>
      </trkpt>
      <trkpt lat="49.89928" lon="2.27155">
        <ele>24.8</ele>
        <time>2023-06-03T13:25:22Z</time>
      </trkpt>
      <trkpt lat="49.89928" lon="2.27155">
        <ele>24.8</ele>
        <time>2023-06-03T13:25:23Z</time>
      </trkpt>
      <trkpt lat="49.89928" lon="2.27155">
        <ele>24.8</ele>
        <time>2023-06-03T13:25:24Z</time>
      </trkpt>
      <trkpt lat="49.89928" lon="2.27155">
        <ele>24.8</ele>
        <time>2023-06-03T13:25:25Z</time>
      </trkpt>
      <trkpt lat="49.89927" lon="2.27155">
        <ele>24.8</ele>
        <time>2023-06-03T13:25:26Z</time>
      </trkpt>
      <trkpt lat="49.89927" lon="2.27154">
        <ele>24.8</ele>
        <time>2023-06-03T13:25:27Z</time>
      </trkpt>
      <trkpt lat="49.89926" lon="2.27154">
        <ele>24.8</ele>
        <time>2023-06-03T13:25:28Z</time>
      </trkpt>
      <trkpt lat="49.89926" lon="2.27154">
        <ele>24.8</ele>
        <time>2023-06-03T13:25:29Z</time>
      </trkpt>
      <trkpt lat="49.89926" lon="2.27154">
        <ele>24.8</ele>
        <time>2023-06-03T13:25:30Z</time>
      </trkpt>
      <trkpt lat="49.89926" lon="2.27154">
        <ele>24.8</ele>
        <time>2023-06-03T13:25:31Z</time>
      </trkpt>
      <trkpt lat="49.89926" lon="2.27154">
        <ele>24.8</ele>
        <time>2023-06-03T13:25:32Z</time>
      </trkpt>
      <trkpt lat="49.89926" lon="2.27154">
        <ele>24.8</ele>
        <time>2023-06-03T13:25:33Z</time>
      </trkpt>
      <trkpt lat="49.89926" lon="2.27154">
        <ele>24.8</ele>
        <time>2023-06-03T13:25:34Z</time>
      </trkpt>
      <trkpt lat="49.89926" lon="2.27154">
        <ele>24.8</ele>
        <time>2023-06-03T13:25:35Z</time>
      </trkpt>
      <trkpt lat="49.89926" lon="2.27154">
        <ele>24.8</ele>
        <time>2023-06-03T13:25:36Z</time>
      </trkpt>
      <trkpt lat="49.89926" lon="2.27154">
        <ele>24.8</ele>
        <time>2023-06-03T13:25:37Z</time>
      </trkpt>
      <trkpt lat="49.89926" lon="2.27154">
        <ele>24.8</ele>
        <time>2023-06-03T13:25:38Z</time>
      </trkpt>
      <trkpt lat="49.89926" lon="2.27154">
        <ele>24.8</ele>
        <time>2023-06-03T13:25:39Z</time>
      </trkpt>
      <trkpt lat="49.89926" lon="2.27154">
        <ele>24.8</ele>
        <time>2023-06-03T13:25:40Z</time>
      </trkpt>
      <trkpt lat="49.89926" lon="2.27154">
        <ele>24.8</ele>
        <time>2023-06-03T13:25:41Z</time>
      </trkpt>
      <trkpt lat="49.89926" lon="2.27154">
        <ele>24.8</ele>
        <time>2023-06-03T13:25:42Z</time>
      </trkpt>
      <trkpt lat="49.89926" lon="2.27154">
        <ele>24.8</ele>
        <time>2023-06-03T13:25:43Z</time>
      </trkpt>
      <trkpt lat="49.89926" lon="2.27154">
        <ele>24.8</ele>
        <time>2023-06-03T13:25:44Z</time>
      </trkpt>
      <trkpt lat="49.89926" lon="2.27154">
        <ele>24.8</ele>
        <time>2023-06-03T13:25:45Z</time>
      </trkpt>
      <trkpt lat="49.89926" lon="2.27154">
        <ele>24.8</ele>
        <time>2023-06-03T13:25:46Z</time>
      </trkpt>
      <trkpt lat="49.89926" lon="2.27154">
        <ele>24.8</ele>
        <time>2023-06-03T13:25:47Z</time>
      </trkpt>
      <trkpt lat="49.89926" lon="2.27154">
        <ele>24.8</ele>
        <time>2023-06-03T13:25:48Z</time>
      </trkpt>
      <trkpt lat="49.89926" lon="2.27154">
        <ele>24.8</ele>
        <time>2023-06-03T13:25:49Z</time>
      </trkpt>
      <trkpt lat="49.89926" lon="2.27154">
        <ele>24.8</ele>
        <time>2023-06-03T13:25:50Z</time>
      </trkpt>
      <trkpt lat="49.89926" lon="2.27154">
        <ele>24.8</ele>
        <time>2023-06-03T13:25:51Z</time>
      </trkpt>
      <trkpt lat="49.89926" lon="2.27154">
        <ele>24.8</ele>
        <time>2023-06-03T13:25:52Z</time>
      </trkpt>
      <trkpt lat="49.89926" lon="2.27154">
        <ele>24.8</ele>
        <time>2023-06-03T13:25:53Z</time>
      </trkpt>
      <trkpt lat="49.89926" lon="2.27154">
        <ele>24.8</ele>
        <time>2023-06-03T13:25:54Z</time>
      </trkpt>
      <trkpt lat="49.89926" lon="2.27154">
        <ele>24.8</ele>
        <time>2023-06-03T13:25:55Z</time>
      </trkpt>
      <trkpt lat="49.89926" lon="2.27154">
        <ele>24.8</ele>
        <time>2023-06-03T13:25:56Z</time>
      </trkpt>
      <trkpt lat="49.89926" lon="2.27154">
        <ele>24.8</ele>
        <time>2023-06-03T13:25:57Z</time>
      </trkpt>
      <trkpt lat="49.89926" lon="2.27154">
        <ele>24.8</ele>
        <time>2023-06-03T13:25:58Z</time>
      </trkpt>
      <trkpt lat="49.89926" lon="2.27154">
        <ele>24.8</ele>
        <time>2023-06-03T13:25:59Z</time>
      </trkpt>
      <trkpt lat="49.89926" lon="2.27154">
        <ele>24.8</ele>
        <time>2023-06-03T13:26:00Z</time>
      </trkpt>
      <trkpt lat="49.89926" lon="2.27154">
        <ele>24.8</ele>
        <time>2023-06-03T13:26:01Z</time>
      </trkpt>
      <trkpt lat="49.89926" lon="2.27154">
        <ele>24.8</ele>
        <time>2023-06-03T13:26:02Z</time>
      </trkpt>
      <trkpt lat="49.89926" lon="2.27154">
        <ele>24.8</ele>
        <time>2023-06-03T13:26:03Z</time>
      </trkpt>
      <trkpt lat="49.89926" lon="2.27154">
        <ele>24.8</ele>
        <time>2023-06-03T13:26:04Z</time>
      </trkpt>
      <trkpt lat="49.89926" lon="2.27154">
        <ele>24.8</ele>
        <time>2023-06-03T13:26:05Z</time>
      </trkpt>
      <trkpt lat="49.89926" lon="2.27154">
        <ele>24.8</ele>
        <time>2023-06-03T13:26:06Z</time>
      </trkpt>
      <trkpt lat="49.89926" lon="2.27154">
        <ele>24.8</ele>
        <time>2023-06-03T13:26:07Z</time>
      </trkpt>
      <trkpt lat="49.89926" lon="2.27154">
        <ele>24.8</ele>
        <time>2023-06-03T13:26:08Z</time>
      </trkpt>
      <trkpt lat="49.89926" lon="2.27154">
        <ele>24.8</ele>
        <time>2023-06-03T13:26:09Z</time>
      </trkpt>
      <trkpt lat="49.89926" lon="2.27154">
        <ele>24.8</ele>
        <time>2023-06-03T13:26:10Z</time>
      </trkpt>
      <trkpt lat="49.89926" lon="2.27154">
        <ele>24.8</ele>
        <time>2023-06-03T13:26:11Z</time>
      </trkpt>
      <trkpt lat="49.89926" lon="2.27154">
        <ele>24.8</ele>
        <time>2023-06-03T13:26:12Z</time>
      </trkpt>
      <trkpt lat="49.89926" lon="2.27154">
        <ele>24.8</ele>
        <time>2023-06-03T13:26:13Z</time>
      </trkpt>
      <trkpt lat="49.89926" lon="2.27154">
        <ele>24.8</ele>
        <time>2023-06-03T13:26:14Z</time>
      </trkpt>
      <trkpt lat="49.89926" lon="2.27154">
        <ele>24.8</ele>
        <time>2023-06-03T13:26:15Z</time>
      </trkpt>
      <trkpt lat="49.89926" lon="2.27154">
        <ele>24.8</ele>
        <time>2023-06-03T13:26:16Z</time>
      </trkpt>
      <trkpt lat="49.89926" lon="2.27154">
        <ele>24.8</ele>
        <time>2023-06-03T13:26:17Z</time>
      </trkpt>
      <trkpt lat="49.89926" lon="2.27154">
        <ele>24.8</ele>
        <time>2023-06-03T13:26:18Z</time>
      </trkpt>
      <trkpt lat="49.89926" lon="2.27154">
        <ele>24.8</ele>
        <time>2023-06-03T13:26:19Z</time>
      </trkpt>
      <trkpt lat="49.89926" lon="2.27154">
        <ele>24.8</ele>
        <time>2023-06-03T13:26:20Z</time>
      </trkpt>
      <trkpt lat="49.89926" lon="2.27154">
        <ele>24.8</ele>
        <time>2023-06-03T13:26:21Z</time>
      </trkpt>
      <trkpt lat="49.89926" lon="2.27154">
        <ele>24.8</ele>
        <time>2023-06-03T13:26:22Z</time>
      </trkpt>
      <trkpt lat="49.89926" lon="2.27154">
        <ele>24.8</ele>
        <time>2023-06-03T13:26:23Z</time>
      </trkpt>
      <trkpt lat="49.89926" lon="2.27154">
        <ele>24.8</ele>
        <time>2023-06-03T13:26:24Z</time>
      </trkpt>
      <trkpt lat="49.89926" lon="2.27154">
        <ele>24.8</ele>
        <time>2023-06-03T13:26:25Z</time>
      </trkpt>
      <trkpt lat="49.89926" lon="2.27154">
        <ele>24.8</ele>
        <time>2023-06-03T13:26:26Z</time>
      </trkpt>
      <trkpt lat="49.89926" lon="2.27154">
        <ele>24.8</ele>
        <time>2023-06-03T13:26:27Z</time>
      </trkpt>
      <trkpt lat="49.89926" lon="2.27154">
        <ele>24.8</ele>
        <time>2023-06-03T13:26:28Z</time>
      </trkpt>
      <trkpt lat="49.89926" lon="2.27154">
        <ele>24.8</ele>
        <time>2023-06-03T13:26:29Z</time>
      </trkpt>
      <trkpt lat="49.89926" lon="2.27154">
        <ele>24.8</ele>
        <time>2023-06-03T13:26:30Z</time>
      </trkpt>
      <trkpt lat="49.89926" lon="2.27154">
        <ele>24.8</ele>
        <time>2023-06-03T13:26:31Z</time>
      </trkpt>
      <trkpt lat="49.89926" lon="2.27154">
        <ele>24.8</ele>
        <time>2023-06-03T13:26:32Z</time>
      </trkpt>
      <trkpt lat="49.89926" lon="2.27154">
        <ele>24.8</ele>
        <time>2023-06-03T13:26:33Z</time>
      </trkpt>
      <trkpt lat="49.89926" lon="2.27154">
        <ele>24.8</ele>
        <time>2023-06-03T13:26:34Z</time>
      </trkpt>
      <trkpt lat="49.89926" lon="2.27154">
        <ele>24.8</ele>
        <time>2023-06-03T13:26:35Z</time>
      </trkpt>
      <trkpt lat="49.89926" lon="2.27154">
        <ele>24.8</ele>
        <time>2023-06-03T13:26:36Z</time>
      </trkpt>
      <trkpt lat="49.89926" lon="2.27154">
        <ele>24.8</ele>
        <time>2023-06-03T13:26:37Z</time>
      </trkpt>
      <trkpt lat="49.89926" lon="2.27154">
        <ele>24.8</ele>
        <time>2023-06-03T13:26:38Z</time>
      </trkpt>
      <trkpt lat="49.89926" lon="2.27154">
        <ele>24.8</ele>
        <time>2023-06-03T13:26:39Z</time>
      </trkpt>
      <trkpt lat="49.89926" lon="2.27154">
        <ele>24.8</ele>
        <time>2023-06-03T13:26:40Z</time>
      </trkpt>
      <trkpt lat="49.89926" lon="2.27154">
        <ele>24.8</ele>
        <time>2023-06-03T13:26:41Z</time>
      </trkpt>
      <trkpt lat="49.89926" lon="2.27154">
        <ele>24.8</ele>
        <time>2023-06-03T13:26:42Z</time>
      </trkpt>
      <trkpt lat="49.89926" lon="2.27154">
        <ele>24.8</ele>
        <time>2023-06-03T13:26:43Z</time>
      </trkpt>
      <trkpt lat="49.89926" lon="2.27154">
        <ele>24.8</ele>
        <time>2023-06-03T13:26:44Z</time>
      </trkpt>
      <trkpt lat="49.89926" lon="2.27154">
        <ele>24.8</ele>
        <time>2023-06-03T13:26:45Z</time>
      </trkpt>
      <trkpt lat="49.89926" lon="2.27154">
        <ele>24.8</ele>
        <time>2023-06-03T13:26:46Z</time>
      </trkpt>
      <trkpt lat="49.89926" lon="2.27154">
        <ele>24.8</ele>
        <time>2023-06-03T13:26:47Z</time>
      </trkpt>
      <trkpt lat="49.89926" lon="2.27154">
        <ele>24.8</ele>
        <time>2023-06-03T13:26:48Z</time>
      </trkpt>
      <trkpt lat="49.89926" lon="2.27154">
        <ele>24.8</ele>
        <time>2023-06-03T13:26:49Z</time>
      </trkpt>
      <trkpt lat="49.89926" lon="2.27154">
        <ele>24.8</ele>
        <time>2023-06-03T13:26:50Z</time>
      </trkpt>
      <trkpt lat="49.89926" lon="2.27154">
        <ele>24.8</ele>
        <time>2023-06-03T13:26:51Z</time>
      </trkpt>
      <trkpt lat="49.89926" lon="2.27154">
        <ele>24.8</ele>
        <time>2023-06-03T13:26:52Z</time>
      </trkpt>
      <trkpt lat="49.89926" lon="2.27154">
        <ele>24.8</ele>
        <time>2023-06-03T13:26:53Z</time>
      </trkpt>
      <trkpt lat="49.89926" lon="2.27154">
        <ele>24.8</ele>
        <time>2023-06-03T13:26:54Z</time>
      </trkpt>
      <trkpt lat="49.89926" lon="2.27154">
        <ele>24.8</ele>
        <time>2023-06-03T13:26:55Z</time>
      </trkpt>
      <trkpt lat="49.89926" lon="2.27154">
        <ele>24.8</ele>
        <time>2023-06-03T13:26:56Z</time>
      </trkpt>
      <trkpt lat="49.89926" lon="2.27154">
        <ele>24.8</ele>
        <time>2023-06-03T13:26:57Z</time>
      </trkpt>
      <trkpt lat="49.89926" lon="2.27154">
        <ele>24.8</ele>
        <time>2023-06-03T13:26:58Z</time>
      </trkpt>
      <trkpt lat="49.89926" lon="2.27154">
        <ele>24.8</ele>
        <time>2023-06-03T13:26:59Z</time>
      </trkpt>
      <trkpt lat="49.89926" lon="2.27154">
        <ele>24.8</ele>
        <time>2023-06-03T13:27:00Z</time>
      </trkpt>
      <trkpt lat="49.89926" lon="2.27154">
        <ele>24.8</ele>
        <time>2023-06-03T13:27:01Z</time>
      </trkpt>
      <trkpt lat="49.89926" lon="2.27154">
        <ele>24.8</ele>
        <time>2023-06-03T13:27:02Z</time>
      </trkpt>
      <trkpt lat="49.89926" lon="2.27154">
        <ele>24.8</ele>
        <time>2023-06-03T13:27:03Z</time>
      </trkpt>
      <trkpt lat="49.89926" lon="2.27154">
        <ele>24.8</ele>
        <time>2023-06-03T13:27:04Z</time>
      </trkpt>
      <trkpt lat="49.89926" lon="2.27154">
        <ele>24.8</ele>
        <time>2023-06-03T13:27:05Z</time>
      </trkpt>
      <trkpt lat="49.89927" lon="2.27153">
        <ele>24.8</ele>
        <time>2023-06-03T13:27:06Z</time>
      </trkpt>
      <trkpt lat="49.89927" lon="2.27153">
        <ele>24.8</ele>
        <time>2023-06-03T13:27:07Z</time>
      </trkpt>
      <trkpt lat="49.89927" lon="2.27153">
        <ele>24.8</ele>
        <time>2023-06-03T13:27:08Z</time>
      </trkpt>
      <trkpt lat="49.89927" lon="2.27153">
        <ele>24.8</ele>
        <time>2023-06-03T13:27:09Z</time>
      </trkpt>
      <trkpt lat="49.89927" lon="2.27153">
        <ele>24.8</ele>
        <time>2023-06-03T13:27:10Z</time>
      </trkpt>
      <trkpt lat="49.89927" lon="2.27153">
        <ele>24.8</ele>
        <time>2023-06-03T13:27:11Z</time>
      </trkpt>
      <trkpt lat="49.89927" lon="2.27154">
        <ele>24.8</ele>
        <time>2023-06-03T13:27:12Z</time>
      </trkpt>
      <trkpt lat="49.89927" lon="2.27154">
        <ele>24.8</ele>
        <time>2023-06-03T13:27:13Z</time>
      </trkpt>
      <trkpt lat="49.89927" lon="2.27154">
        <ele>24.8</ele>
        <time>2023-06-03T13:27:14Z</time>
      </trkpt>
      <trkpt lat="49.89927" lon="2.27154">
        <ele>24.8</ele>
        <time>2023-06-03T13:27:15Z</time>
      </trkpt>
      <trkpt lat="49.89927" lon="2.27154">
        <ele>24.8</ele>
        <time>2023-06-03T13:27:16Z</time>
      </trkpt>
      <trkpt lat="49.89927" lon="2.27154">
        <ele>24.8</ele>
        <time>2023-06-03T13:27:17Z</time>
      </trkpt>
      <trkpt lat="49.89927" lon="2.27154">
        <ele>24.8</ele>
        <time>2023-06-03T13:27:18Z</time>
      </trkpt>
      <trkpt lat="49.89927" lon="2.27154">
        <ele>24.8</ele>
        <time>2023-06-03T13:27:19Z</time>
      </trkpt>
      <trkpt lat="49.89927" lon="2.27154">
        <ele>24.8</ele>
        <time>2023-06-03T13:27:20Z</time>
      </trkpt>
      <trkpt lat="49.89927" lon="2.27154">
        <ele>24.8</ele>
        <time>2023-06-03T13:27:21Z</time>
      </trkpt>
      <trkpt lat="49.89927" lon="2.27154">
        <ele>24.8</ele>
        <time>2023-06-03T13:27:22Z</time>
      </trkpt>
      <trkpt lat="49.89927" lon="2.27154">
        <ele>24.8</ele>
        <time>2023-06-03T13:27:23Z</time>
      </trkpt>
      <trkpt lat="49.89927" lon="2.27154">
        <ele>24.8</ele>
        <time>2023-06-03T13:27:24Z</time>
      </trkpt>
      <trkpt lat="49.89927" lon="2.27154">
        <ele>24.8</ele>
        <time>2023-06-03T13:27:25Z</time>
      </trkpt>
      <trkpt lat="49.89927" lon="2.27154">
        <ele>24.8</ele>
        <time>2023-06-03T13:27:26Z</time>
      </trkpt>
      <trkpt lat="49.89927" lon="2.27154">
        <ele>24.8</ele>
        <time>2023-06-03T13:27:27Z</time>
      </trkpt>
      <trkpt lat="49.89927" lon="2.27154">
        <ele>24.8</ele>
        <time>2023-06-03T13:27:28Z</time>
      </trkpt>
      <trkpt lat="49.89927" lon="2.27154">
        <ele>24.8</ele>
        <time>2023-06-03T13:27:29Z</time>
      </trkpt>
      <trkpt lat="49.89928" lon="2.27154">
        <ele>24.8</ele>
        <time>2023-06-03T13:27:30Z</time>
      </trkpt>
      <trkpt lat="49.89929" lon="2.27154">
        <ele>24.8</ele>
        <time>2023-06-03T13:27:31Z</time>
      </trkpt>
      <trkpt lat="49.89929" lon="2.27154">
        <ele>24.8</ele>
        <time>2023-06-03T13:27:32Z</time>
      </trkpt>
      <trkpt lat="49.89929" lon="2.27155">
        <ele>24.8</ele>
        <time>2023-06-03T13:27:34Z</time>
      </trkpt>
      <trkpt lat="49.89929" lon="2.27156">
        <ele>24.8</ele>
        <time>2023-06-03T13:27:35Z</time>
      </trkpt>
      <trkpt lat="49.8993" lon="2.27156">
        <ele>24.8</ele>
        <time>2023-06-03T13:27:36Z</time>
      </trkpt>
      <trkpt lat="49.89931" lon="2.27157">
        <ele>24.8</ele>
        <time>2023-06-03T13:27:38Z</time>
      </trkpt>
      <trkpt lat="49.89931" lon="2.27158">
        <ele>24.8</ele>
        <time>2023-06-03T13:27:39Z</time>
      </trkpt>
      <trkpt lat="49.89933" lon="2.27158">
        <ele>24.8</ele>
        <time>2023-06-03T13:27:40Z</time>
      </trkpt>
      <trkpt lat="49.89933" lon="2.27157">
        <ele>24.8</ele>
        <time>2023-06-03T13:27:42Z</time>
      </trkpt>
      <trkpt lat="49.89933" lon="2.27156">
        <ele>24.8</ele>
        <time>2023-06-03T13:27:43Z</time>
      </trkpt>
      <trkpt lat="49.89934" lon="2.27156">
        <ele>24.8</ele>
        <time>2023-06-03T13:27:44Z</time>
      </trkpt>
      <trkpt lat="49.89936" lon="2.27156">
        <ele>24.8</ele>
        <time>2023-06-03T13:27:45Z</time>
      </trkpt>
      <trkpt lat="49.89937" lon="2.27156">
        <ele>24.8</ele>
        <time>2023-06-03T13:27:46Z</time>
      </trkpt>
      <trkpt lat="49.89938" lon="2.27156">
        <ele>24.8</ele>
        <time>2023-06-03T13:27:47Z</time>
      </trkpt>
      <trkpt lat="49.89939" lon="2.27157">
        <ele>24.9</ele>
        <time>2023-06-03T13:27:48Z</time>
      </trkpt>
      <trkpt lat="49.8994" lon="2.27157">
        <ele>24.9</ele>
        <time>2023-06-03T13:27:50Z</time>
      </trkpt>
      <trkpt lat="49.89941" lon="2.27157">
        <ele>24.9</ele>
        <time>2023-06-03T13:27:51Z</time>
      </trkpt>
      <trkpt lat="49.89942" lon="2.27158">
        <ele>24.9</ele>
        <time>2023-06-03T13:27:52Z</time>
      </trkpt>
      <trkpt lat="49.89943" lon="2.27158">
        <ele>24.9</ele>
        <time>2023-06-03T13:27:54Z</time>
      </trkpt>
      <trkpt lat="49.89944" lon="2.27159">
        <ele>24.9</ele>
        <time>2023-06-03T13:27:55Z</time>
      </trkpt>
      <trkpt lat="49.89948" lon="2.2716">
        <ele>24.9</ele>
        <time>2023-06-03T13:27:56Z</time>
      </trkpt>
      <trkpt lat="49.89948" lon="2.2716">
        <ele>24.9</ele>
        <time>2023-06-03T13:27:57Z</time>
      </trkpt>
      <trkpt lat="49.89951" lon="2.27161">
        <ele>24.9</ele>
        <time>2023-06-03T13:27:58Z</time>
      </trkpt>
      <trkpt lat="49.89952" lon="2.27161">
        <ele>24.9</ele>
        <time>2023-06-03T13:27:59Z</time>
      </trkpt>
      <trkpt lat="49.89953" lon="2.27161">
        <ele>24.9</ele>
        <time>2023-06-03T13:28:00Z</time>
      </trkpt>
      <trkpt lat="49.89954" lon="2.27161">
        <ele>24.9</ele>
        <time>2023-06-03T13:28:02Z</time>
      </trkpt>
      <trkpt lat="49.89955" lon="2.27162">
        <ele>24.9</ele>
        <time>2023-06-03T13:28:03Z</time>
      </trkpt>
      <trkpt lat="49.89955" lon="2.27162">
        <ele>24.9</ele>
        <time>2023-06-03T13:28:04Z</time>
      </trkpt>
      <trkpt lat="49.89956" lon="2.27162">
        <ele>24.9</ele>
        <time>2023-06-03T13:28:05Z</time>
      </trkpt>
      <trkpt lat="49.89956" lon="2.27162">
        <ele>24.9</ele>
        <time>2023-06-03T13:28:06Z</time>
      </trkpt>
      <trkpt lat="49.89957" lon="2.27163">
        <ele>24.9</ele>
        <time>2023-06-03T13:28:07Z</time>
      </trkpt>
      <trkpt lat="49.89958" lon="2.27163">
        <ele>24.9</ele>
        <time>2023-06-03T13:28:08Z</time>
      </trkpt>
      <trkpt lat="49.89959" lon="2.27164">
        <ele>24.9</ele>
        <time>2023-06-03T13:28:10Z</time>
      </trkpt>
      <trkpt lat="49.8996" lon="2.27165">
        <ele>24.9</ele>
        <time>2023-06-03T13:28:11Z</time>
      </trkpt>
      <trkpt lat="49.89961" lon="2.27166">
        <ele>24.9</ele>
        <time>2023-06-03T13:28:12Z</time>
      </trkpt>
      <trkpt lat="49.89963" lon="2.27168">
        <ele>24.9</ele>
        <time>2023-06-03T13:28:13Z</time>
      </trkpt>
      <trkpt lat="49.89964" lon="2.27169">
        <ele>24.9</ele>
        <time>2023-06-03T13:28:14Z</time>
      </trkpt>
      <trkpt lat="49.89964" lon="2.27169">
        <ele>24.9</ele>
        <time>2023-06-03T13:28:15Z</time>
      </trkpt>
      <trkpt lat="49.89965" lon="2.2717">
        <ele>24.9</ele>
        <time>2023-06-03T13:28:17Z</time>
      </trkpt>
      <trkpt lat="49.89967" lon="2.27172">
        <ele>24.9</ele>
        <time>2023-06-03T13:28:18Z</time>
      </trkpt>
      <trkpt lat="49.8997" lon="2.27174">
        <ele>24.9</ele>
        <time>2023-06-03T13:28:19Z</time>
      </trkpt>
      <trkpt lat="49.89971" lon="2.27175">
        <ele>24.9</ele>
        <time>2023-06-03T13:28:20Z</time>
      </trkpt>
      <trkpt lat="49.89973" lon="2.27177">
        <ele>24.9</ele>
        <time>2023-06-03T13:28:21Z</time>
      </trkpt>
      <trkpt lat="49.89974" lon="2.27178">
        <ele>24.9</ele>
        <time>2023-06-03T13:28:22Z</time>
      </trkpt>
      <trkpt lat="49.89976" lon="2.2718">
        <ele>24.9</ele>
        <time>2023-06-03T13:28:23Z</time>
      </trkpt>
      <trkpt lat="49.89976" lon="2.27181">
        <ele>24.9</ele>
        <time>2023-06-03T13:28:25Z</time>
      </trkpt>
      <trkpt lat="49.89977" lon="2.27182">
        <ele>24.9</ele>
        <time>2023-06-03T13:28:26Z</time>
      </trkpt>
      <trkpt lat="49.89978" lon="2.27184">
        <ele>24.9</ele>
        <time>2023-06-03T13:28:27Z</time>
      </trkpt>
      <trkpt lat="49.89979" lon="2.27185">
        <ele>24.9</ele>
        <time>2023-06-03T13:28:28Z</time>
      </trkpt>
      <trkpt lat="49.89979" lon="2.27186">
        <ele>24.9</ele>
        <time>2023-06-03T13:28:29Z</time>
      </trkpt>
      <trkpt lat="49.8998" lon="2.27188">
        <ele>24.9</ele>
        <time>2023-06-03T13:28:30Z</time>
      </trkpt>
      <trkpt lat="49.89981" lon="2.27188">
        <ele>24.9</ele>
        <time>2023-06-03T13:28:31Z</time>
      </trkpt>
      <trkpt lat="49.89983" lon="2.27191">
        <ele>24.9</ele>
        <time>2023-06-03T13:28:33Z</time>
      </trkpt>
      <trkpt lat="49.89985" lon="2.27195">
        <ele>24.9</ele>
        <time>2023-06-03T13:28:34Z</time>
      </trkpt>
      <trkpt lat="49.89986" lon="2.27196">
        <ele>24.9</ele>
        <time>2023-06-03T13:28:35Z</time>
      </trkpt>
      <trkpt lat="49.89988" lon="2.27202">
        <ele>24.9</ele>
        <time>2023-06-03T13:28:37Z</time>
      </trkpt>
      <trkpt lat="49.89989" lon="2.27204">
        <ele>24.9</ele>
        <time>2023-06-03T13:28:38Z</time>
      </trkpt>
      <trkpt lat="49.8999" lon="2.27206">
        <ele>24.9</ele>
        <time>2023-06-03T13:28:39Z</time>
      </trkpt>
      <trkpt lat="49.8999" lon="2.27208">
        <ele>24.9</ele>
        <time>2023-06-03T13:28:40Z</time>
      </trkpt>
      <trkpt lat="49.89991" lon="2.27209">
        <ele>24.9</ele>
        <time>2023-06-03T13:28:41Z</time>
      </trkpt>
      <trkpt lat="49.89991" lon="2.27211">
        <ele>24.9</ele>
        <time>2023-06-03T13:28:42Z</time>
      </trkpt>
      <trkpt lat="49.89991" lon="2.27213">
        <ele>24.9</ele>
        <time>2023-06-03T13:28:43Z</time>
      </trkpt>
      <trkpt lat="49.89992" lon="2.27216">
        <ele>24.8</ele>
        <time>2023-06-03T13:28:45Z</time>
      </trkpt>
      <trkpt lat="49.89993" lon="2.27218">
        <ele>24.8</ele>
        <time>2023-06-03T13:28:46Z</time>
      </trkpt>
      <trkpt lat="49.89993" lon="2.27219">
        <ele>24.8</ele>
        <time>2023-06-03T13:28:47Z</time>
      </trkpt>
      <trkpt lat="49.89994" lon="2.27222">
        <ele>24.8</ele>
        <time>2023-06-03T13:28:49Z</time>
      </trkpt>
      <trkpt lat="49.89994" lon="2.27226">
        <ele>24.8</ele>
        <time>2023-06-03T13:28:50Z</time>
      </trkpt>
      <trkpt lat="49.89994" lon="2.27228">
        <ele>24.8</ele>
        <time>2023-06-03T13:28:51Z</time>
      </trkpt>
      <trkpt lat="49.89994" lon="2.27231">
        <ele>24.8</ele>
        <time>2023-06-03T13:28:52Z</time>
      </trkpt>
      <trkpt lat="49.89994" lon="2.27234">
        <ele>24.8</ele>
        <time>2023-06-03T13:28:54Z</time>
      </trkpt>
      <trkpt lat="49.89994" lon="2.27237">
        <ele>24.8</ele>
        <time>2023-06-03T13:28:55Z</time>
      </trkpt>
      <trkpt lat="49.89993" lon="2.27239">
        <ele>24.8</ele>
        <time>2023-06-03T13:28:56Z</time>
      </trkpt>
      <trkpt lat="49.89992" lon="2.27241">
        <ele>24.8</ele>
        <time>2023-06-03T13:28:57Z</time>
      </trkpt>
      <trkpt lat="49.89992" lon="2.27243">
        <ele>24.8</ele>
        <time>2023-06-03T13:28:58Z</time>
      </trkpt>
      <trkpt lat="49.89992" lon="2.27246">
        <ele>24.8</ele>
        <time>2023-06-03T13:29:00Z</time>
      </trkpt>
      <trkpt lat="49.89992" lon="2.27248">
        <ele>24.8</ele>
        <time>2023-06-03T13:29:01Z</time>
      </trkpt>
      <trkpt lat="49.89992" lon="2.27251">
        <ele>24.8</ele>
        <time>2023-06-03T13:29:02Z</time>
      </trkpt>
      <trkpt lat="49.89992" lon="2.27253">
        <ele>24.8</ele>
        <time>2023-06-03T13:29:04Z</time>
      </trkpt>
      <trkpt lat="49.89992" lon="2.27257">
        <ele>24.7</ele>
        <time>2023-06-03T13:29:05Z</time>
      </trkpt>
      <trkpt lat="49.89992" lon="2.27259">
        <ele>24.7</ele>
        <time>2023-06-03T13:29:06Z</time>
      </trkpt>
      <trkpt lat="49.89992" lon="2.2726">
        <ele>24.7</ele>
        <time>2023-06-03T13:29:08Z</time>
      </trkpt>
      <trkpt lat="49.89992" lon="2.27262">
        <ele>24.7</ele>
        <time>2023-06-03T13:29:09Z</time>
      </trkpt>
      <trkpt lat="49.89992" lon="2.27263">
        <ele>24.7</ele>
        <time>2023-06-03T13:29:10Z</time>
      </trkpt>
      <trkpt lat="49.89992" lon="2.27264">
        <ele>24.7</ele>
        <time>2023-06-03T13:29:11Z</time>
      </trkpt>
      <trkpt lat="49.89992" lon="2.27264">
        <ele>24.7</ele>
        <time>2023-06-03T13:29:12Z</time>
      </trkpt>
      <trkpt lat="49.89992" lon="2.27266">
        <ele>24.7</ele>
        <time>2023-06-03T13:29:13Z</time>
      </trkpt>
      <trkpt lat="49.89991" lon="2.2727">
        <ele>24.7</ele>
        <time>2023-06-03T13:29:14Z</time>
      </trkpt>
      <trkpt lat="49.89991" lon="2.27272">
        <ele>24.7</ele>
        <time>2023-06-03T13:29:16Z</time>
      </trkpt>
      <trkpt lat="49.89991" lon="2.27274">
        <ele>24.7</ele>
        <time>2023-06-03T13:29:17Z</time>
      </trkpt>
      <trkpt lat="49.8999" lon="2.27276">
        <ele>24.7</ele>
        <time>2023-06-03T13:29:18Z</time>
      </trkpt>
      <trkpt lat="49.8999" lon="2.27281">
        <ele>24.7</ele>
        <time>2023-06-03T13:29:20Z</time>
      </trkpt>
      <trkpt lat="49.89989" lon="2.27283">
        <ele>24.7</ele>
        <time>2023-06-03T13:29:21Z</time>
      </trkpt>
      <trkpt lat="49.89988" lon="2.27287">
        <ele>24.7</ele>
        <time>2023-06-03T13:29:22Z</time>
      </trkpt>
      <trkpt lat="49.89988" lon="2.27288">
        <ele>24.7</ele>
        <time>2023-06-03T13:29:24Z</time>
      </trkpt>
      <trkpt lat="49.89988" lon="2.2729">
        <ele>24.7</ele>
        <time>2023-06-03T13:29:25Z</time>
      </trkpt>
      <trkpt lat="49.89987" lon="2.27293">
        <ele>24.6</ele>
        <time>2023-06-03T13:29:26Z</time>
      </trkpt>
      <trkpt lat="49.89987" lon="2.27294">
        <ele>24.6</ele>
        <time>2023-06-03T13:29:27Z</time>
      </trkpt>
      <trkpt lat="49.89987" lon="2.27295">
        <ele>24.6</ele>
        <time>2023-06-03T13:29:28Z</time>
      </trkpt>
      <trkpt lat="49.89986" lon="2.27297">
        <ele>24.6</ele>
        <time>2023-06-03T13:29:29Z</time>
      </trkpt>
      <trkpt lat="49.89984" lon="2.27301">
        <ele>24.6</ele>
        <time>2023-06-03T13:29:31Z</time>
      </trkpt>
      <trkpt lat="49.89983" lon="2.27302">
        <ele>24.6</ele>
        <time>2023-06-03T13:29:32Z</time>
      </trkpt>
      <trkpt lat="49.89982" lon="2.27304">
        <ele>24.6</ele>
        <time>2023-06-03T13:29:33Z</time>
      </trkpt>
      <trkpt lat="49.89981" lon="2.27308">
        <ele>24.6</ele>
        <time>2023-06-03T13:29:35Z</time>
      </trkpt>
      <trkpt lat="49.8998" lon="2.2731">
        <ele>24.6</ele>
        <time>2023-06-03T13:29:36Z</time>
      </trkpt>
      <trkpt lat="49.8998" lon="2.27312">
        <ele>24.6</ele>
        <time>2023-06-03T13:29:37Z</time>
      </trkpt>
      <trkpt lat="49.89978" lon="2.27318">
        <ele>24.6</ele>
        <time>2023-06-03T13:29:39Z</time>
      </trkpt>
      <trkpt lat="49.89978" lon="2.2732">
        <ele>24.6</ele>
        <time>2023-06-03T13:29:40Z</time>
      </trkpt>
      <trkpt lat="49.89977" lon="2.27322">
        <ele>24.6</ele>
        <time>2023-06-03T13:29:42Z</time>
      </trkpt>
      <trkpt lat="49.89977" lon="2.27324">
        <ele>24.6</ele>
        <time>2023-06-03T13:29:43Z</time>
      </trkpt>
      <trkpt lat="49.89977" lon="2.27325">
        <ele>24.6</ele>
        <time>2023-06-03T13:29:44Z</time>
      </trkpt>
      <trkpt lat="49.89977" lon="2.27327">
        <ele>24.6</ele>
        <time>2023-06-03T13:29:45Z</time>
      </trkpt>
      <trkpt lat="49.89976" lon="2.2733">
        <ele>24.6</ele>
        <time>2023-06-03T13:29:46Z</time>
      </trkpt>
      <trkpt lat="49.89977" lon="2.27331">
        <ele>24.6</ele>
        <time>2023-06-03T13:29:47Z</time>
      </trkpt>
      <trkpt lat="49.89977" lon="2.27332">
        <ele>24.6</ele>
        <time>2023-06-03T13:29:48Z</time>
      </trkpt>
      <trkpt lat="49.89976" lon="2.27336">
        <ele>24.6</ele>
        <time>2023-06-03T13:29:49Z</time>
      </trkpt>
      <trkpt lat="49.89976" lon="2.27338">
        <ele>24.6</ele>
        <time>2023-06-03T13:29:51Z</time>
      </trkpt>
      <trkpt lat="49.89975" lon="2.27341">
        <ele>24.6</ele>
        <time>2023-06-03T13:29:52Z</time>
      </trkpt>
      <trkpt lat="49.89975" lon="2.27343">
        <ele>24.6</ele>
        <time>2023-06-03T13:29:53Z</time>
      </trkpt>
      <trkpt lat="49.89975" lon="2.27346">
        <ele>24.6</ele>
        <time>2023-06-03T13:29:54Z</time>
      </trkpt>
      <trkpt lat="49.89975" lon="2.27348">
        <ele>24.6</ele>
        <time>2023-06-03T13:29:56Z</time>
      </trkpt>
      <trkpt lat="49.89975" lon="2.2735">
        <ele>24.6</ele>
        <time>2023-06-03T13:29:57Z</time>
      </trkpt>
      <trkpt lat="49.89975" lon="2.27352">
        <ele>24.6</ele>
        <time>2023-06-03T13:29:59Z</time>
      </trkpt>
      <trkpt lat="49.89976" lon="2.27353">
        <ele>24.6</ele>
        <time>2023-06-03T13:30:00Z</time>
      </trkpt>
      <trkpt lat="49.89976" lon="2.27355">
        <ele>24.6</ele>
        <time>2023-06-03T13:30:01Z</time>
      </trkpt>
      <trkpt lat="49.89976" lon="2.27357">
        <ele>24.6</ele>
        <time>2023-06-03T13:30:02Z</time>
      </trkpt>
      <trkpt lat="49.89975" lon="2.27358">
        <ele>24.6</ele>
        <time>2023-06-03T13:30:03Z</time>
      </trkpt>
      <trkpt lat="49.89976" lon="2.2736">
        <ele>24.6</ele>
        <time>2023-06-03T13:30:04Z</time>
      </trkpt>
      <trkpt lat="49.89976" lon="2.27361">
        <ele>24.6</ele>
        <time>2023-06-03T13:30:06Z</time>
      </trkpt>
      <trkpt lat="49.89976" lon="2.27363">
        <ele>24.7</ele>
        <time>2023-06-03T13:30:07Z</time>
      </trkpt>
      <trkpt lat="49.89976" lon="2.27365">
        <ele>24.7</ele>
        <time>2023-06-03T13:30:08Z</time>
      </trkpt>
      <trkpt lat="49.89976" lon="2.27367">
        <ele>24.7</ele>
        <time>2023-06-03T13:30:09Z</time>
      </trkpt>
      <trkpt lat="49.89976" lon="2.27369">
        <ele>24.7</ele>
        <time>2023-06-03T13:30:10Z</time>
      </trkpt>
      <trkpt lat="49.89976" lon="2.27372">
        <ele>24.7</ele>
        <time>2023-06-03T13:30:11Z</time>
      </trkpt>
      <trkpt lat="49.89976" lon="2.27373">
        <ele>24.7</ele>
        <time>2023-06-03T13:30:12Z</time>
      </trkpt>
      <trkpt lat="49.89976" lon="2.27375">
        <ele>24.7</ele>
        <time>2023-06-03T13:30:14Z</time>
      </trkpt>
      <trkpt lat="49.89976" lon="2.27376">
        <ele>24.7</ele>
        <time>2023-06-03T13:30:15Z</time>
      </trkpt>
      <trkpt lat="49.89977" lon="2.27378">
        <ele>24.7</ele>
        <time>2023-06-03T13:30:16Z</time>
      </trkpt>
      <trkpt lat="49.89977" lon="2.27379">
        <ele>24.7</ele>
        <time>2023-06-03T13:30:17Z</time>
      </trkpt>
      <trkpt lat="49.89977" lon="2.27381">
        <ele>24.7</ele>
        <time>2023-06-03T13:30:18Z</time>
      </trkpt>
      <trkpt lat="49.89976" lon="2.27383">
        <ele>24.7</ele>
        <time>2023-06-03T13:30:19Z</time>
      </trkpt>
      <trkpt lat="49.89976" lon="2.27384">
        <ele>24.7</ele>
        <time>2023-06-03T13:30:20Z</time>
      </trkpt>
      <trkpt lat="49.89976" lon="2.27387">
        <ele>24.7</ele>
        <time>2023-06-03T13:30:22Z</time>
      </trkpt>
      <trkpt lat="49.89976" lon="2.27387">
        <ele>24.7</ele>
        <time>2023-06-03T13:30:24Z</time>
      </trkpt>
      <trkpt lat="49.89976" lon="2.27387">
        <ele>24.7</ele>
        <time>2023-06-03T13:30:25Z</time>
      </trkpt>
      <trkpt lat="49.89976" lon="2.27386">
        <ele>24.7</ele>
        <time>2023-06-03T13:30:26Z</time>
      </trkpt>
      <trkpt lat="49.89976" lon="2.27386">
        <ele>24.7</ele>
        <time>2023-06-03T13:30:27Z</time>
      </trkpt>
      <trkpt lat="49.89976" lon="2.27386">
        <ele>24.7</ele>
        <time>2023-06-03T13:30:29Z</time>
      </trkpt>
      <trkpt lat="49.89976" lon="2.27386">
        <ele>24.7</ele>
        <time>2023-06-03T13:30:30Z</time>
      </trkpt>
      <trkpt lat="49.89976" lon="2.27386">
        <ele>24.7</ele>
        <time>2023-06-03T13:30:31Z</time>
      </trkpt>
      <trkpt lat="49.89976" lon="2.27386">
        <ele>24.7</ele>
        <time>2023-06-03T13:30:33Z</time>
      </trkpt>
      <trkpt lat="49.89976" lon="2.27386">
        <ele>24.7</ele>
        <time>2023-06-03T13:30:34Z</time>
      </trkpt>
      <trkpt lat="49.89977" lon="2.27386">
        <ele>24.7</ele>
        <time>2023-06-03T13:30:35Z</time>
      </trkpt>
      <trkpt lat="49.89977" lon="2.27386">
        <ele>24.7</ele>
        <time>2023-06-03T13:30:37Z</time>
      </trkpt>
      <trkpt lat="49.89977" lon="2.27386">
        <ele>24.7</ele>
        <time>2023-06-03T13:30:38Z</time>
      </trkpt>
      <trkpt lat="49.89977" lon="2.27386">
        <ele>24.7</ele>
        <time>2023-06-03T13:30:39Z</time>
      </trkpt>
      <trkpt lat="49.89977" lon="2.27386">
        <ele>24.7</ele>
        <time>2023-06-03T13:30:40Z</time>
      </trkpt>
      <trkpt lat="49.89977" lon="2.27386">
        <ele>24.7</ele>
        <time>2023-06-03T13:30:41Z</time>
      </trkpt>
      <trkpt lat="49.89977" lon="2.27386">
        <ele>24.7</ele>
        <time>2023-06-03T13:30:42Z</time>
      </trkpt>
      <trkpt lat="49.89977" lon="2.27386">
        <ele>24.7</ele>
        <time>2023-06-03T13:30:43Z</time>
      </trkpt>
      <trkpt lat="49.89977" lon="2.27386">
        <ele>24.7</ele>
        <time>2023-06-03T13:30:44Z</time>
      </trkpt>
      <trkpt lat="49.89977" lon="2.27386">
        <ele>24.7</ele>
        <time>2023-06-03T13:30:45Z</time>
      </trkpt>
      <trkpt lat="49.89977" lon="2.27386">
        <ele>24.7</ele>
        <time>2023-06-03T13:30:46Z</time>
      </trkpt>
      <trkpt lat="49.89977" lon="2.27385">
        <ele>24.7</ele>
        <time>2023-06-03T13:30:47Z</time>
      </trkpt>
      <trkpt lat="49.89977" lon="2.27385">
        <ele>24.7</ele>
        <time>2023-06-03T13:30:48Z</time>
      </trkpt>
      <trkpt lat="49.89977" lon="2.27385">
        <ele>24.7</ele>
        <time>2023-06-03T13:30:49Z</time>
      </trkpt>
      <trkpt lat="49.89977" lon="2.27385">
        <ele>24.7</ele>
        <time>2023-06-03T13:30:50Z</time>
      </trkpt>
      <trkpt lat="49.89977" lon="2.27385">
        <ele>24.7</ele>
        <time>2023-06-03T13:30:51Z</time>
      </trkpt>
      <trkpt lat="49.89977" lon="2.27385">
        <ele>24.7</ele>
        <time>2023-06-03T13:30:52Z</time>
      </trkpt>
      <trkpt lat="49.89977" lon="2.27385">
        <ele>24.7</ele>
        <time>2023-06-03T13:30:53Z</time>
      </trkpt>
      <trkpt lat="49.89977" lon="2.27385">
        <ele>24.7</ele>
        <time>2023-06-03T13:30:54Z</time>
      </trkpt>
      <trkpt lat="49.89977" lon="2.27385">
        <ele>24.7</ele>
        <time>2023-06-03T13:30:55Z</time>
      </trkpt>
      <trkpt lat="49.89977" lon="2.27385">
        <ele>24.7</ele>
        <time>2023-06-03T13:30:56Z</time>
      </trkpt>
      <trkpt lat="49.89977" lon="2.27385">
        <ele>24.7</ele>
        <time>2023-06-03T13:30:57Z</time>
      </trkpt>
      <trkpt lat="49.89977" lon="2.27385">
        <ele>24.7</ele>
        <time>2023-06-03T13:30:58Z</time>
      </trkpt>
      <trkpt lat="49.89977" lon="2.27385">
        <ele>24.7</ele>
        <time>2023-06-03T13:30:59Z</time>
      </trkpt>
      <trkpt lat="49.89977" lon="2.27385">
        <ele>24.7</ele>
        <time>2023-06-03T13:31:00Z</time>
      </trkpt>
      <trkpt lat="49.89977" lon="2.27385">
        <ele>24.7</ele>
        <time>2023-06-03T13:31:01Z</time>
      </trkpt>
      <trkpt lat="49.89978" lon="2.27385">
        <ele>24.7</ele>
        <time>2023-06-03T13:31:02Z</time>
      </trkpt>
      <trkpt lat="49.89978" lon="2.27385">
        <ele>24.7</ele>
        <time>2023-06-03T13:31:03Z</time>
      </trkpt>
      <trkpt lat="49.89978" lon="2.27385">
        <ele>24.7</ele>
        <time>2023-06-03T13:31:04Z</time>
      </trkpt>
      <trkpt lat="49.89978" lon="2.27385">
        <ele>24.7</ele>
        <time>2023-06-03T13:31:05Z</time>
      </trkpt>
      <trkpt lat="49.89978" lon="2.27384">
        <ele>24.7</ele>
        <time>2023-06-03T13:31:06Z</time>
      </trkpt>
      <trkpt lat="49.89978" lon="2.27384">
        <ele>24.7</ele>
        <time>2023-06-03T13:31:07Z</time>
      </trkpt>
      <trkpt lat="49.89978" lon="2.27384">
        <ele>24.7</ele>
        <time>2023-06-03T13:31:08Z</time>
      </trkpt>
      <trkpt lat="49.89978" lon="2.27384">
        <ele>24.7</ele>
        <time>2023-06-03T13:31:09Z</time>
      </trkpt>
      <trkpt lat="49.89978" lon="2.27384">
        <ele>24.7</ele>
        <time>2023-06-03T13:31:10Z</time>
      </trkpt>
      <trkpt lat="49.89978" lon="2.27384">
        <ele>24.7</ele>
        <time>2023-06-03T13:31:11Z</time>
      </trkpt>
      <trkpt lat="49.89978" lon="2.27384">
        <ele>24.7</ele>
        <time>2023-06-03T13:31:12Z</time>
      </trkpt>
      <trkpt lat="49.89978" lon="2.27384">
        <ele>24.7</ele>
        <time>2023-06-03T13:31:13Z</time>
      </trkpt>
      <trkpt lat="49.89978" lon="2.27384">
        <ele>24.7</ele>
        <time>2023-06-03T13:31:14Z</time>
      </trkpt>
      <trkpt lat="49.89978" lon="2.27384">
        <ele>24.7</ele>
        <time>2023-06-03T13:31:15Z</time>
      </trkpt>
      <trkpt lat="49.89978" lon="2.27384">
        <ele>24.7</ele>
        <time>2023-06-03T13:31:16Z</time>
      </trkpt>
      <trkpt lat="49.89978" lon="2.27384">
        <ele>24.7</ele>
        <time>2023-06-03T13:31:17Z</time>
      </trkpt>
      <trkpt lat="49.89978" lon="2.27384">
        <ele>24.7</ele>
        <time>2023-06-03T13:31:18Z</time>
      </trkpt>
      <trkpt lat="49.89978" lon="2.27384">
        <ele>24.7</ele>
        <time>2023-06-03T13:31:19Z</time>
      </trkpt>
      <trkpt lat="49.89978" lon="2.27384">
        <ele>24.7</ele>
        <time>2023-06-03T13:31:20Z</time>
      </trkpt>
      <trkpt lat="49.89978" lon="2.27384">
        <ele>24.7</ele>
        <time>2023-06-03T13:31:21Z</time>
      </trkpt>
      <trkpt lat="49.89978" lon="2.27384">
        <ele>24.7</ele>
        <time>2023-06-03T13:31:22Z</time>
      </trkpt>
      <trkpt lat="49.89978" lon="2.27384">
        <ele>24.7</ele>
        <time>2023-06-03T13:31:23Z</time>
      </trkpt>
      <trkpt lat="49.89978" lon="2.27383">
        <ele>24.7</ele>
        <time>2023-06-03T13:31:24Z</time>
      </trkpt>
      <trkpt lat="49.89978" lon="2.27383">
        <ele>24.7</ele>
        <time>2023-06-03T13:31:25Z</time>
      </trkpt>
      <trkpt lat="49.89978" lon="2.27383">
        <ele>24.7</ele>
        <time>2023-06-03T13:31:26Z</time>
      </trkpt>
      <trkpt lat="49.89978" lon="2.27383">
        <ele>24.7</ele>
        <time>2023-06-03T13:31:27Z</time>
      </trkpt>
      <trkpt lat="49.89979" lon="2.27383">
        <ele>24.7</ele>
        <time>2023-06-03T13:31:28Z</time>
      </trkpt>
      <trkpt lat="49.89979" lon="2.27383">
        <ele>24.7</ele>
        <time>2023-06-03T13:31:29Z</time>
      </trkpt>
      <trkpt lat="49.89979" lon="2.27383">
        <ele>24.7</ele>
        <time>2023-06-03T13:31:30Z</time>
      </trkpt>
      <trkpt lat="49.89979" lon="2.27383">
        <ele>24.7</ele>
        <time>2023-06-03T13:31:31Z</time>
      </trkpt>
      <trkpt lat="49.89979" lon="2.27383">
        <ele>24.7</ele>
        <time>2023-06-03T13:31:32Z</time>
      </trkpt>
      <trkpt lat="49.89979" lon="2.27383">
        <ele>24.7</ele>
        <time>2023-06-03T13:31:33Z</time>
      </trkpt>
      <trkpt lat="49.89979" lon="2.27383">
        <ele>24.7</ele>
        <time>2023-06-03T13:31:34Z</time>
      </trkpt>
      <trkpt lat="49.89979" lon="2.27383">
        <ele>24.7</ele>
        <time>2023-06-03T13:31:35Z</time>
      </trkpt>
      <trkpt lat="49.89979" lon="2.27383">
        <ele>24.7</ele>
        <time>2023-06-03T13:31:36Z</time>
      </trkpt>
      <trkpt lat="49.89979" lon="2.27383">
        <ele>24.7</ele>
        <time>2023-06-03T13:31:37Z</time>
      </trkpt>
      <trkpt lat="49.89979" lon="2.27383">
        <ele>24.7</ele>
        <time>2023-06-03T13:31:38Z</time>
      </trkpt>
      <trkpt lat="49.89979" lon="2.27383">
        <ele>24.7</ele>
        <time>2023-06-03T13:31:39Z</time>
      </trkpt>
      <trkpt lat="49.89979" lon="2.27383">
        <ele>24.7</ele>
        <time>2023-06-03T13:31:40Z</time>
      </trkpt>
      <trkpt lat="49.89979" lon="2.27383">
        <ele>24.7</ele>
        <time>2023-06-03T13:31:41Z</time>
      </trkpt>
      <trkpt lat="49.89979" lon="2.27382">
        <ele>24.7</ele>
        <time>2023-06-03T13:31:42Z</time>
      </trkpt>
      <trkpt lat="49.89979" lon="2.27382">
        <ele>24.7</ele>
        <time>2023-06-03T13:31:43Z</time>
      </trkpt>
      <trkpt lat="49.89979" lon="2.27382">
        <ele>24.7</ele>
        <time>2023-06-03T13:31:44Z</time>
      </trkpt>
      <trkpt lat="49.89979" lon="2.27382">
        <ele>24.7</ele>
        <time>2023-06-03T13:31:45Z</time>
      </trkpt>
      <trkpt lat="49.89979" lon="2.27382">
        <ele>24.7</ele>
        <time>2023-06-03T13:31:46Z</time>
      </trkpt>
      <trkpt lat="49.89979" lon="2.27382">
        <ele>24.7</ele>
        <time>2023-06-03T13:31:47Z</time>
      </trkpt>
      <trkpt lat="49.89979" lon="2.27382">
        <ele>24.7</ele>
        <time>2023-06-03T13:31:48Z</time>
      </trkpt>
      <trkpt lat="49.89979" lon="2.27382">
        <ele>24.7</ele>
        <time>2023-06-03T13:31:49Z</time>
      </trkpt>
      <trkpt lat="49.89979" lon="2.27382">
        <ele>24.7</ele>
        <time>2023-06-03T13:31:50Z</time>
      </trkpt>
      <trkpt lat="49.89979" lon="2.27382">
        <ele>24.7</ele>
        <time>2023-06-03T13:31:51Z</time>
      </trkpt>
      <trkpt lat="49.89979" lon="2.27382">
        <ele>24.7</ele>
        <time>2023-06-03T13:31:52Z</time>
      </trkpt>
      <trkpt lat="49.89979" lon="2.27382">
        <ele>24.7</ele>
        <time>2023-06-03T13:31:53Z</time>
      </trkpt>
      <trkpt lat="49.89979" lon="2.27382">
        <ele>24.7</ele>
        <time>2023-06-03T13:31:54Z</time>
      </trkpt>
      <trkpt lat="49.8998" lon="2.27382">
        <ele>24.7</ele>
        <time>2023-06-03T13:31:55Z</time>
      </trkpt>
      <trkpt lat="49.8998" lon="2.27382">
        <ele>24.7</ele>
        <time>2023-06-03T13:31:56Z</time>
      </trkpt>
      <trkpt lat="49.8998" lon="2.27382">
        <ele>24.7</ele>
        <time>2023-06-03T13:31:57Z</time>
      </trkpt>
      <trkpt lat="49.89981" lon="2.27382">
        <ele>24.7</ele>
        <time>2023-06-03T13:31:58Z</time>
      </trkpt>
      <trkpt lat="49.8998" lon="2.27382">
        <ele>24.7</ele>
        <time>2023-06-03T13:31:59Z</time>
      </trkpt>
      <trkpt lat="49.8998" lon="2.27383">
        <ele>24.7</ele>
        <time>2023-06-03T13:32:00Z</time>
      </trkpt>
      <trkpt lat="49.8998" lon="2.27383">
        <ele>24.7</ele>
        <time>2023-06-03T13:32:01Z</time>
      </trkpt>
      <trkpt lat="49.8998" lon="2.27384">
        <ele>24.7</ele>
        <time>2023-06-03T13:32:02Z</time>
      </trkpt>
      <trkpt lat="49.8998" lon="2.27385">
        <ele>24.7</ele>
        <time>2023-06-03T13:32:03Z</time>
      </trkpt>
      <trkpt lat="49.8998" lon="2.27385">
        <ele>24.7</ele>
        <time>2023-06-03T13:32:04Z</time>
      </trkpt>
      <trkpt lat="49.89979" lon="2.27386">
        <ele>24.7</ele>
        <time>2023-06-03T13:32:05Z</time>
      </trkpt>
      <trkpt lat="49.89979" lon="2.27387">
        <ele>24.7</ele>
        <time>2023-06-03T13:32:07Z</time>
      </trkpt>
      <trkpt lat="49.89979" lon="2.27387">
        <ele>24.7</ele>
        <time>2023-06-03T13:32:08Z</time>
      </trkpt>
      <trkpt lat="49.8998" lon="2.2739">
        <ele>24.7</ele>
        <time>2023-06-03T13:32:09Z</time>
      </trkpt>
      <trkpt lat="49.89981" lon="2.27391">
        <ele>24.7</ele>
        <time>2023-06-03T13:32:11Z</time>
      </trkpt>
      <trkpt lat="49.89981" lon="2.27393">
        <ele>24.7</ele>
        <time>2023-06-03T13:32:12Z</time>
      </trkpt>
      <trkpt lat="49.89981" lon="2.27395">
        <ele>24.7</ele>
        <time>2023-06-03T13:32:13Z</time>
      </trkpt>
      <trkpt lat="49.89981" lon="2.27397">
        <ele>24.7</ele>
        <time>2023-06-03T13:32:14Z</time>
      </trkpt>
      <trkpt lat="49.89981" lon="2.27398">
        <ele>24.7</ele>
        <time>2023-06-03T13:32:15Z</time>
      </trkpt>
      <trkpt lat="49.89981" lon="2.274">
        <ele>24.6</ele>
        <time>2023-06-03T13:32:16Z</time>
      </trkpt>
      <trkpt lat="49.89981" lon="2.27401">
        <ele>24.6</ele>
        <time>2023-06-03T13:32:17Z</time>
      </trkpt>
      <trkpt lat="49.89981" lon="2.27403">
        <ele>24.6</ele>
        <time>2023-06-03T13:32:19Z</time>
      </trkpt>
      <trkpt lat="49.89981" lon="2.27404">
        <ele>24.6</ele>
        <time>2023-06-03T13:32:20Z</time>
      </trkpt>
      <trkpt lat="49.89981" lon="2.27406">
        <ele>24.5</ele>
        <time>2023-06-03T13:32:21Z</time>
      </trkpt>
      <trkpt lat="49.89982" lon="2.27408">
        <ele>24.5</ele>
        <time>2023-06-03T13:32:22Z</time>
      </trkpt>
      <trkpt lat="49.89982" lon="2.27411">
        <ele>24.4</ele>
        <time>2023-06-03T13:32:23Z</time>
      </trkpt>
      <trkpt lat="49.89983" lon="2.27413">
        <ele>24.4</ele>
        <time>2023-06-03T13:32:24Z</time>
      </trkpt>
      <trkpt lat="49.89983" lon="2.27414">
        <ele>24.3</ele>
        <time>2023-06-03T13:32:25Z</time>
      </trkpt>
      <trkpt lat="49.89983" lon="2.27415">
        <ele>24.3</ele>
        <time>2023-06-03T13:32:27Z</time>
      </trkpt>
      <trkpt lat="49.89984" lon="2.27418">
        <ele>24.3</ele>
        <time>2023-06-03T13:32:28Z</time>
      </trkpt>
      <trkpt lat="49.89985" lon="2.27418">
        <ele>24.2</ele>
        <time>2023-06-03T13:32:29Z</time>
      </trkpt>
      <trkpt lat="49.89986" lon="2.27418">
        <ele>24.2</ele>
        <time>2023-06-03T13:32:30Z</time>
      </trkpt>
      <trkpt lat="49.89987" lon="2.27421">
        <ele>24.2</ele>
        <time>2023-06-03T13:32:32Z</time>
      </trkpt>
      <trkpt lat="49.89987" lon="2.27422">
        <ele>24.1</ele>
        <time>2023-06-03T13:32:33Z</time>
      </trkpt>
      <trkpt lat="49.89987" lon="2.27421">
        <ele>24.1</ele>
        <time>2023-06-03T13:32:34Z</time>
      </trkpt>
      <trkpt lat="49.89987" lon="2.27423">
        <ele>24.1</ele>
        <time>2023-06-03T13:32:36Z</time>
      </trkpt>
      <trkpt lat="49.89986" lon="2.27424">
        <ele>24.1</ele>
        <time>2023-06-03T13:32:37Z</time>
      </trkpt>
      <trkpt lat="49.89986" lon="2.27423">
        <ele>24.1</ele>
        <time>2023-06-03T13:32:38Z</time>
      </trkpt>
      <trkpt lat="49.89985" lon="2.27422">
        <ele>24</ele>
        <time>2023-06-03T13:32:40Z</time>
      </trkpt>
      <trkpt lat="49.89985" lon="2.27422">
        <ele>24</ele>
        <time>2023-06-03T13:32:41Z</time>
      </trkpt>
      <trkpt lat="49.89985" lon="2.27421">
        <ele>24</ele>
        <time>2023-06-03T13:32:42Z</time>
      </trkpt>
      <trkpt lat="49.89985" lon="2.27421">
        <ele>24</ele>
        <time>2023-06-03T13:32:44Z</time>
      </trkpt>
      <trkpt lat="49.89985" lon="2.27421">
        <ele>24</ele>
        <time>2023-06-03T13:32:45Z</time>
      </trkpt>
      <trkpt lat="49.89985" lon="2.27421">
        <ele>24</ele>
        <time>2023-06-03T13:32:46Z</time>
      </trkpt>
      <trkpt lat="49.89985" lon="2.27421">
        <ele>24</ele>
        <time>2023-06-03T13:32:48Z</time>
      </trkpt>
      <trkpt lat="49.89985" lon="2.27421">
        <ele>24</ele>
        <time>2023-06-03T13:32:49Z</time>
      </trkpt>
      <trkpt lat="49.89985" lon="2.2742">
        <ele>24</ele>
        <time>2023-06-03T13:32:51Z</time>
      </trkpt>
      <trkpt lat="49.89986" lon="2.2742">
        <ele>24</ele>
        <time>2023-06-03T13:32:52Z</time>
      </trkpt>
      <trkpt lat="49.89986" lon="2.2742">
        <ele>24</ele>
        <time>2023-06-03T13:32:53Z</time>
      </trkpt>
      <trkpt lat="49.89986" lon="2.27419">
        <ele>23.9</ele>
        <time>2023-06-03T13:32:54Z</time>
      </trkpt>
      <trkpt lat="49.89986" lon="2.27419">
        <ele>23.9</ele>
        <time>2023-06-03T13:32:55Z</time>
      </trkpt>
      <trkpt lat="49.89986" lon="2.27419">
        <ele>23.9</ele>
        <time>2023-06-03T13:32:56Z</time>
      </trkpt>
      <trkpt lat="49.89986" lon="2.27419">
        <ele>23.9</ele>
        <time>2023-06-03T13:32:57Z</time>
      </trkpt>
      <trkpt lat="49.89986" lon="2.27419">
        <ele>23.9</ele>
        <time>2023-06-03T13:32:58Z</time>
      </trkpt>
      <trkpt lat="49.89986" lon="2.2742">
        <ele>23.9</ele>
        <time>2023-06-03T13:32:59Z</time>
      </trkpt>
      <trkpt lat="49.89986" lon="2.27421">
        <ele>23.9</ele>
        <time>2023-06-03T13:33:00Z</time>
      </trkpt>
      <trkpt lat="49.89986" lon="2.27421">
        <ele>23.9</ele>
        <time>2023-06-03T13:33:01Z</time>
      </trkpt>
      <trkpt lat="49.89986" lon="2.27422">
        <ele>23.9</ele>
        <time>2023-06-03T13:33:02Z</time>
      </trkpt>
      <trkpt lat="49.89986" lon="2.27422">
        <ele>23.9</ele>
        <time>2023-06-03T13:33:03Z</time>
      </trkpt>
      <trkpt lat="49.89986" lon="2.27422">
        <ele>23.9</ele>
        <time>2023-06-03T13:33:04Z</time>
      </trkpt>
      <trkpt lat="49.89986" lon="2.27422">
        <ele>23.9</ele>
        <time>2023-06-03T13:33:05Z</time>
      </trkpt>
      <trkpt lat="49.89986" lon="2.27422">
        <ele>23.9</ele>
        <time>2023-06-03T13:33:06Z</time>
      </trkpt>
      <trkpt lat="49.89986" lon="2.27422">
        <ele>23.9</ele>
        <time>2023-06-03T13:33:07Z</time>
      </trkpt>
      <trkpt lat="49.89986" lon="2.27422">
        <ele>23.9</ele>
        <time>2023-06-03T13:33:08Z</time>
      </trkpt>
      <trkpt lat="49.89986" lon="2.27422">
        <ele>23.9</ele>
        <time>2023-06-03T13:33:09Z</time>
      </trkpt>
      <trkpt lat="49.89986" lon="2.27422">
        <ele>23.9</ele>
        <time>2023-06-03T13:33:10Z</time>
      </trkpt>
      <trkpt lat="49.89986" lon="2.27423">
        <ele>23.9</ele>
        <time>2023-06-03T13:33:11Z</time>
      </trkpt>
      <trkpt lat="49.89987" lon="2.27426">
        <ele>23.8</ele>
        <time>2023-06-03T13:33:13Z</time>
      </trkpt>
      <trkpt lat="49.89987" lon="2.27428">
        <ele>23.8</ele>
        <time>2023-06-03T13:33:15Z</time>
      </trkpt>
      <trkpt lat="49.89987" lon="2.27429">
        <ele>23.8</ele>
        <time>2023-06-03T13:33:16Z</time>
      </trkpt>
      <trkpt lat="49.89987" lon="2.27431">
        <ele>23.8</ele>
        <time>2023-06-03T13:33:17Z</time>
      </trkpt>
      <trkpt lat="49.89987" lon="2.27434">
        <ele>23.7</ele>
        <time>2023-06-03T13:33:19Z</time>
      </trkpt>
      <trkpt lat="49.89986" lon="2.27435">
        <ele>23.7</ele>
        <time>2023-06-03T13:33:20Z</time>
      </trkpt>
      <trkpt lat="49.89986" lon="2.27436">
        <ele>23.7</ele>
        <time>2023-06-03T13:33:21Z</time>
      </trkpt>
      <trkpt lat="49.89985" lon="2.27437">
        <ele>23.7</ele>
        <time>2023-06-03T13:33:22Z</time>
      </trkpt>
      <trkpt lat="49.89985" lon="2.27439">
        <ele>23.7</ele>
        <time>2023-06-03T13:33:23Z</time>
      </trkpt>
      <trkpt lat="49.89984" lon="2.2744">
        <ele>23.7</ele>
        <time>2023-06-03T13:33:24Z</time>
      </trkpt>
      <trkpt lat="49.89984" lon="2.27443">
        <ele>23.6</ele>
        <time>2023-06-03T13:33:25Z</time>
      </trkpt>
      <trkpt lat="49.89984" lon="2.27445">
        <ele>23.6</ele>
        <time>2023-06-03T13:33:26Z</time>
      </trkpt>
      <trkpt lat="49.89984" lon="2.27447">
        <ele>23.6</ele>
        <time>2023-06-03T13:33:28Z</time>
      </trkpt>
      <trkpt lat="49.89983" lon="2.27449">
        <ele>23.6</ele>
        <time>2023-06-03T13:33:29Z</time>
      </trkpt>
      <trkpt lat="49.89983" lon="2.27452">
        <ele>23.6</ele>
        <time>2023-06-03T13:33:30Z</time>
      </trkpt>
      <trkpt lat="49.89983" lon="2.27454">
        <ele>23.5</ele>
        <time>2023-06-03T13:33:31Z</time>
      </trkpt>
      <trkpt lat="49.89982" lon="2.27456">
        <ele>23.5</ele>
        <time>2023-06-03T13:33:32Z</time>
      </trkpt>
      <trkpt lat="49.89982" lon="2.27458">
        <ele>23.5</ele>
        <time>2023-06-03T13:33:33Z</time>
      </trkpt>
      <trkpt lat="49.89982" lon="2.27459">
        <ele>23.5</ele>
        <time>2023-06-03T13:33:34Z</time>
      </trkpt>
      <trkpt lat="49.89981" lon="2.27462">
        <ele>23.5</ele>
        <time>2023-06-03T13:33:36Z</time>
      </trkpt>
      <trkpt lat="49.89981" lon="2.27465">
        <ele>23.5</ele>
        <time>2023-06-03T13:33:37Z</time>
      </trkpt>
      <trkpt lat="49.8998" lon="2.27465">
        <ele>23.5</ele>
        <time>2023-06-03T13:33:38Z</time>
      </trkpt>
      <trkpt lat="49.8998" lon="2.27467">
        <ele>23.5</ele>
        <time>2023-06-03T13:33:40Z</time>
      </trkpt>
      <trkpt lat="49.8998" lon="2.27468">
        <ele>23.5</ele>
        <time>2023-06-03T13:33:41Z</time>
      </trkpt>
      <trkpt lat="49.8998" lon="2.27469">
        <ele>23.5</ele>
        <time>2023-06-03T13:33:42Z</time>
      </trkpt>
      <trkpt lat="49.8998" lon="2.27471">
        <ele>23.5</ele>
        <time>2023-06-03T13:33:43Z</time>
      </trkpt>
      <trkpt lat="49.8998" lon="2.27472">
        <ele>23.5</ele>
        <time>2023-06-03T13:33:44Z</time>
      </trkpt>
      <trkpt lat="49.8998" lon="2.27474">
        <ele>23.5</ele>
        <time>2023-06-03T13:33:45Z</time>
      </trkpt>
      <trkpt lat="49.8998" lon="2.27477">
        <ele>23.4</ele>
        <time>2023-06-03T13:33:46Z</time>
      </trkpt>
      <trkpt lat="49.8998" lon="2.2748">
        <ele>23.4</ele>
        <time>2023-06-03T13:33:47Z</time>
      </trkpt>
      <trkpt lat="49.8998" lon="2.27485">
        <ele>23.4</ele>
        <time>2023-06-03T13:33:49Z</time>
      </trkpt>
      <trkpt lat="49.8998" lon="2.27487">
        <ele>23.4</ele>
        <time>2023-06-03T13:33:50Z</time>
      </trkpt>
      <trkpt lat="49.8998" lon="2.2749">
        <ele>23.4</ele>
        <time>2023-06-03T13:33:51Z</time>
      </trkpt>
      <trkpt lat="49.8998" lon="2.27492">
        <ele>23.4</ele>
        <time>2023-06-03T13:33:52Z</time>
      </trkpt>
      <trkpt lat="49.8998" lon="2.27495">
        <ele>23.4</ele>
        <time>2023-06-03T13:33:53Z</time>
      </trkpt>
      <trkpt lat="49.8998" lon="2.27497">
        <ele>23.4</ele>
        <time>2023-06-03T13:33:54Z</time>
      </trkpt>
      <trkpt lat="49.89981" lon="2.27502">
        <ele>23.4</ele>
        <time>2023-06-03T13:33:55Z</time>
      </trkpt>
      <trkpt lat="49.89981" lon="2.27504">
        <ele>23.4</ele>
        <time>2023-06-03T13:33:57Z</time>
      </trkpt>
      <trkpt lat="49.89981" lon="2.27506">
        <ele>23.4</ele>
        <time>2023-06-03T13:33:58Z</time>
      </trkpt>
      <trkpt lat="49.89981" lon="2.27509">
        <ele>23.4</ele>
        <time>2023-06-03T13:33:59Z</time>
      </trkpt>
      <trkpt lat="49.8998" lon="2.27511">
        <ele>23.4</ele>
        <time>2023-06-03T13:34:00Z</time>
      </trkpt>
      <trkpt lat="49.8998" lon="2.27514">
        <ele>23.3</ele>
        <time>2023-06-03T13:34:01Z</time>
      </trkpt>
      <trkpt lat="49.8998" lon="2.27517">
        <ele>23.3</ele>
        <time>2023-06-03T13:34:02Z</time>
      </trkpt>
      <trkpt lat="49.89979" lon="2.27519">
        <ele>23.3</ele>
        <time>2023-06-03T13:34:03Z</time>
      </trkpt>
      <trkpt lat="49.89979" lon="2.27521">
        <ele>23.3</ele>
        <time>2023-06-03T13:34:05Z</time>
      </trkpt>
      <trkpt lat="49.89979" lon="2.27522">
        <ele>23.3</ele>
        <time>2023-06-03T13:34:06Z</time>
      </trkpt>
      <trkpt lat="49.89978" lon="2.27524">
        <ele>23.3</ele>
        <time>2023-06-03T13:34:07Z</time>
      </trkpt>
      <trkpt lat="49.89978" lon="2.27527">
        <ele>23.3</ele>
        <time>2023-06-03T13:34:09Z</time>
      </trkpt>
      <trkpt lat="49.89977" lon="2.27529">
        <ele>23.3</ele>
        <time>2023-06-03T13:34:10Z</time>
      </trkpt>
      <trkpt lat="49.89976" lon="2.27531">
        <ele>23.3</ele>
        <time>2023-06-03T13:34:11Z</time>
      </trkpt>
      <trkpt lat="49.89976" lon="2.27532">
        <ele>23.3</ele>
        <time>2023-06-03T13:34:12Z</time>
      </trkpt>
      <trkpt lat="49.89976" lon="2.27533">
        <ele>23.3</ele>
        <time>2023-06-03T13:34:14Z</time>
      </trkpt>
      <trkpt lat="49.89975" lon="2.27535">
        <ele>23.3</ele>
        <time>2023-06-03T13:34:15Z</time>
      </trkpt>
      <trkpt lat="49.89975" lon="2.27537">
        <ele>23.3</ele>
        <time>2023-06-03T13:34:16Z</time>
      </trkpt>
      <trkpt lat="49.89975" lon="2.27539">
        <ele>23.3</ele>
        <time>2023-06-03T13:34:17Z</time>
      </trkpt>
      <trkpt lat="49.89974" lon="2.27543">
        <ele>23.3</ele>
        <time>2023-06-03T13:34:18Z</time>
      </trkpt>
      <trkpt lat="49.89974" lon="2.27544">
        <ele>23.2</ele>
        <time>2023-06-03T13:34:19Z</time>
      </trkpt>
      <trkpt lat="49.89974" lon="2.27545">
        <ele>23.2</ele>
        <time>2023-06-03T13:34:20Z</time>
      </trkpt>
      <trkpt lat="49.89974" lon="2.27547">
        <ele>23.2</ele>
        <time>2023-06-03T13:34:21Z</time>
      </trkpt>
      <trkpt lat="49.89973" lon="2.2755">
        <ele>23.2</ele>
        <time>2023-06-03T13:34:23Z</time>
      </trkpt>
      <trkpt lat="49.89973" lon="2.27552">
        <ele>23.2</ele>
        <time>2023-06-03T13:34:24Z</time>
      </trkpt>
      <trkpt lat="49.89972" lon="2.27554">
        <ele>23.2</ele>
        <time>2023-06-03T13:34:25Z</time>
      </trkpt>
      <trkpt lat="49.89972" lon="2.27555">
        <ele>23.2</ele>
        <time>2023-06-03T13:34:26Z</time>
      </trkpt>
      <trkpt lat="49.89972" lon="2.27557">
        <ele>23.2</ele>
        <time>2023-06-03T13:34:28Z</time>
      </trkpt>
      <trkpt lat="49.89972" lon="2.27558">
        <ele>23.2</ele>
        <time>2023-06-03T13:34:29Z</time>
      </trkpt>
      <trkpt lat="49.89972" lon="2.27561">
        <ele>23.2</ele>
        <time>2023-06-03T13:34:30Z</time>
      </trkpt>
      <trkpt lat="49.89972" lon="2.27562">
        <ele>23.2</ele>
        <time>2023-06-03T13:34:31Z</time>
      </trkpt>
      <trkpt lat="49.89972" lon="2.27563">
        <ele>23.2</ele>
        <time>2023-06-03T13:34:32Z</time>
      </trkpt>
      <trkpt lat="49.89971" lon="2.27566">
        <ele>23.2</ele>
        <time>2023-06-03T13:34:33Z</time>
      </trkpt>
      <trkpt lat="49.89972" lon="2.27569">
        <ele>23.2</ele>
        <time>2023-06-03T13:34:34Z</time>
      </trkpt>
      <trkpt lat="49.89972" lon="2.2757">
        <ele>23.2</ele>
        <time>2023-06-03T13:34:36Z</time>
      </trkpt>
      <trkpt lat="49.89972" lon="2.27572">
        <ele>23.1</ele>
        <time>2023-06-03T13:34:37Z</time>
      </trkpt>
      <trkpt lat="49.89972" lon="2.27574">
        <ele>23.1</ele>
        <time>2023-06-03T13:34:38Z</time>
      </trkpt>
      <trkpt lat="49.89972" lon="2.27576">
        <ele>23.1</ele>
        <time>2023-06-03T13:34:39Z</time>
      </trkpt>
      <trkpt lat="49.89972" lon="2.27578">
        <ele>23.1</ele>
        <time>2023-06-03T13:34:40Z</time>
      </trkpt>
      <trkpt lat="49.89972" lon="2.27581">
        <ele>23.1</ele>
        <time>2023-06-03T13:34:41Z</time>
      </trkpt>
      <trkpt lat="49.89972" lon="2.27583">
        <ele>23.1</ele>
        <time>2023-06-03T13:34:42Z</time>
      </trkpt>
      <trkpt lat="49.89972" lon="2.27586">
        <ele>23.1</ele>
        <time>2023-06-03T13:34:43Z</time>
      </trkpt>
      <trkpt lat="49.89972" lon="2.27587">
        <ele>23.1</ele>
        <time>2023-06-03T13:34:45Z</time>
      </trkpt>
      <trkpt lat="49.89972" lon="2.2759">
        <ele>23.1</ele>
        <time>2023-06-03T13:34:46Z</time>
      </trkpt>
      <trkpt lat="49.89972" lon="2.27591">
        <ele>23.1</ele>
        <time>2023-06-03T13:34:47Z</time>
      </trkpt>
      <trkpt lat="49.89972" lon="2.27594">
        <ele>23.1</ele>
        <time>2023-06-03T13:34:49Z</time>
      </trkpt>
      <trkpt lat="49.89972" lon="2.27595">
        <ele>23.1</ele>
        <time>2023-06-03T13:34:50Z</time>
      </trkpt>
      <trkpt lat="49.89972" lon="2.27598">
        <ele>23.1</ele>
        <time>2023-06-03T13:34:51Z</time>
      </trkpt>
      <trkpt lat="49.89972" lon="2.276">
        <ele>23.1</ele>
        <time>2023-06-03T13:34:52Z</time>
      </trkpt>
      <trkpt lat="49.89972" lon="2.27601">
        <ele>23.1</ele>
        <time>2023-06-03T13:34:53Z</time>
      </trkpt>
      <trkpt lat="49.89972" lon="2.27603">
        <ele>23.1</ele>
        <time>2023-06-03T13:34:54Z</time>
      </trkpt>
      <trkpt lat="49.89971" lon="2.27606">
        <ele>23.1</ele>
        <time>2023-06-03T13:34:55Z</time>
      </trkpt>
      <trkpt lat="49.89971" lon="2.27608">
        <ele>23.1</ele>
        <time>2023-06-03T13:34:56Z</time>
      </trkpt>
      <trkpt lat="49.89971" lon="2.2761">
        <ele>23.1</ele>
        <time>2023-06-03T13:34:58Z</time>
      </trkpt>
      <trkpt lat="49.89971" lon="2.27613">
        <ele>23.1</ele>
        <time>2023-06-03T13:34:59Z</time>
      </trkpt>
      <trkpt lat="49.8997" lon="2.27615">
        <ele>23.1</ele>
        <time>2023-06-03T13:35:01Z</time>
      </trkpt>
      <trkpt lat="49.8997" lon="2.27617">
        <ele>23.1</ele>
        <time>2023-06-03T13:35:02Z</time>
      </trkpt>
      <trkpt lat="49.8997" lon="2.2762">
        <ele>23.1</ele>
        <time>2023-06-03T13:35:03Z</time>
      </trkpt>
      <trkpt lat="49.8997" lon="2.27622">
        <ele>23.1</ele>
        <time>2023-06-03T13:35:04Z</time>
      </trkpt>
      <trkpt lat="49.8997" lon="2.27624">
        <ele>23.1</ele>
        <time>2023-06-03T13:35:05Z</time>
      </trkpt>
      <trkpt lat="49.8997" lon="2.27624">
        <ele>23.1</ele>
        <time>2023-06-03T13:35:06Z</time>
      </trkpt>
      <trkpt lat="49.8997" lon="2.27627">
        <ele>23.1</ele>
        <time>2023-06-03T13:35:08Z</time>
      </trkpt>
      <trkpt lat="49.8997" lon="2.27629">
        <ele>23.1</ele>
        <time>2023-06-03T13:35:09Z</time>
      </trkpt>
      <trkpt lat="49.8997" lon="2.27631">
        <ele>23.1</ele>
        <time>2023-06-03T13:35:10Z</time>
      </trkpt>
      <trkpt lat="49.8997" lon="2.27633">
        <ele>23.1</ele>
        <time>2023-06-03T13:35:12Z</time>
      </trkpt>
      <trkpt lat="49.8997" lon="2.27636">
        <ele>23.1</ele>
        <time>2023-06-03T13:35:13Z</time>
      </trkpt>
      <trkpt lat="49.8997" lon="2.27639">
        <ele>23.1</ele>
        <time>2023-06-03T13:35:14Z</time>
      </trkpt>
      <trkpt lat="49.8997" lon="2.27641">
        <ele>23.1</ele>
        <time>2023-06-03T13:35:15Z</time>
      </trkpt>
      <trkpt lat="49.8997" lon="2.27643">
        <ele>23.1</ele>
        <time>2023-06-03T13:35:16Z</time>
      </trkpt>
      <trkpt lat="49.8997" lon="2.27646">
        <ele>23.1</ele>
        <time>2023-06-03T13:35:17Z</time>
      </trkpt>
      <trkpt lat="49.8997" lon="2.27647">
        <ele>23.1</ele>
        <time>2023-06-03T13:35:18Z</time>
      </trkpt>
      <trkpt lat="49.8997" lon="2.27648">
        <ele>23.1</ele>
        <time>2023-06-03T13:35:20Z</time>
      </trkpt>
      <trkpt lat="49.89971" lon="2.2765">
        <ele>23.1</ele>
        <time>2023-06-03T13:35:21Z</time>
      </trkpt>
      <trkpt lat="49.89971" lon="2.27651">
        <ele>23.1</ele>
        <time>2023-06-03T13:35:23Z</time>
      </trkpt>
      <trkpt lat="49.89971" lon="2.27653">
        <ele>23.1</ele>
        <time>2023-06-03T13:35:24Z</time>
      </trkpt>
      <trkpt lat="49.89971" lon="2.27654">
        <ele>23.1</ele>
        <time>2023-06-03T13:35:25Z</time>
      </trkpt>
      <trkpt lat="49.8997" lon="2.27655">
        <ele>23.1</ele>
        <time>2023-06-03T13:35:26Z</time>
      </trkpt>
      <trkpt lat="49.8997" lon="2.27657">
        <ele>23.1</ele>
        <time>2023-06-03T13:35:27Z</time>
      </trkpt>
      <trkpt lat="49.8997" lon="2.27658">
        <ele>23.1</ele>
        <time>2023-06-03T13:35:28Z</time>
      </trkpt>
      <trkpt lat="49.8997" lon="2.27659">
        <ele>23.1</ele>
        <time>2023-06-03T13:35:29Z</time>
      </trkpt>
      <trkpt lat="49.89969" lon="2.27663">
        <ele>23.1</ele>
        <time>2023-06-03T13:35:31Z</time>
      </trkpt>
      <trkpt lat="49.89969" lon="2.27664">
        <ele>23.1</ele>
        <time>2023-06-03T13:35:32Z</time>
      </trkpt>
      <trkpt lat="49.89969" lon="2.27666">
        <ele>23.1</ele>
        <time>2023-06-03T13:35:33Z</time>
      </trkpt>
      <trkpt lat="49.89969" lon="2.27669">
        <ele>23.1</ele>
        <time>2023-06-03T13:35:35Z</time>
      </trkpt>
      <trkpt lat="49.89969" lon="2.27672">
        <ele>23</ele>
        <time>2023-06-03T13:35:36Z</time>
      </trkpt>
      <trkpt lat="49.89969" lon="2.27673">
        <ele>23</ele>
        <time>2023-06-03T13:35:37Z</time>
      </trkpt>
      <trkpt lat="49.89969" lon="2.27674">
        <ele>23</ele>
        <time>2023-06-03T13:35:38Z</time>
      </trkpt>
      <trkpt lat="49.89969" lon="2.27677">
        <ele>23</ele>
        <time>2023-06-03T13:35:39Z</time>
      </trkpt>
      <trkpt lat="49.89969" lon="2.27679">
        <ele>23</ele>
        <time>2023-06-03T13:35:40Z</time>
      </trkpt>
      <trkpt lat="49.89968" lon="2.27683">
        <ele>23</ele>
        <time>2023-06-03T13:35:42Z</time>
      </trkpt>
      <trkpt lat="49.89968" lon="2.27686">
        <ele>23</ele>
        <time>2023-06-03T13:35:43Z</time>
      </trkpt>
      <trkpt lat="49.89968" lon="2.27688">
        <ele>23</ele>
        <time>2023-06-03T13:35:44Z</time>
      </trkpt>
      <trkpt lat="49.89968" lon="2.27691">
        <ele>23</ele>
        <time>2023-06-03T13:35:46Z</time>
      </trkpt>
      <trkpt lat="49.89968" lon="2.27693">
        <ele>23</ele>
        <time>2023-06-03T13:35:47Z</time>
      </trkpt>
      <trkpt lat="49.89967" lon="2.27696">
        <ele>23</ele>
        <time>2023-06-03T13:35:48Z</time>
      </trkpt>
      <trkpt lat="49.89967" lon="2.27698">
        <ele>23</ele>
        <time>2023-06-03T13:35:49Z</time>
      </trkpt>
      <trkpt lat="49.89967" lon="2.277">
        <ele>23</ele>
        <time>2023-06-03T13:35:50Z</time>
      </trkpt>
      <trkpt lat="49.89967" lon="2.27702">
        <ele>23</ele>
        <time>2023-06-03T13:35:51Z</time>
      </trkpt>
      <trkpt lat="49.89966" lon="2.27705">
        <ele>23</ele>
        <time>2023-06-03T13:35:52Z</time>
      </trkpt>
      <trkpt lat="49.89966" lon="2.27707">
        <ele>23</ele>
        <time>2023-06-03T13:35:53Z</time>
      </trkpt>
      <trkpt lat="49.89966" lon="2.27708">
        <ele>23</ele>
        <time>2023-06-03T13:35:54Z</time>
      </trkpt>
      <trkpt lat="49.89965" lon="2.2771">
        <ele>23</ele>
        <time>2023-06-03T13:35:56Z</time>
      </trkpt>
      <trkpt lat="49.89964" lon="2.27713">
        <ele>23</ele>
        <time>2023-06-03T13:35:57Z</time>
      </trkpt>
      <trkpt lat="49.89964" lon="2.27715">
        <ele>23</ele>
        <time>2023-06-03T13:35:58Z</time>
      </trkpt>
      <trkpt lat="49.89963" lon="2.27718">
        <ele>23</ele>
        <time>2023-06-03T13:35:59Z</time>
      </trkpt>
      <trkpt lat="49.89963" lon="2.2772">
        <ele>23</ele>
        <time>2023-06-03T13:36:01Z</time>
      </trkpt>
      <trkpt lat="49.89962" lon="2.27722">
        <ele>23</ele>
        <time>2023-06-03T13:36:02Z</time>
      </trkpt>
      <trkpt lat="49.89962" lon="2.27723">
        <ele>23</ele>
        <time>2023-06-03T13:36:03Z</time>
      </trkpt>
      <trkpt lat="49.89962" lon="2.27725">
        <ele>23</ele>
        <time>2023-06-03T13:36:04Z</time>
      </trkpt>
      <trkpt lat="49.89961" lon="2.27726">
        <ele>23</ele>
        <time>2023-06-03T13:36:05Z</time>
      </trkpt>
      <trkpt lat="49.89961" lon="2.27728">
        <ele>23</ele>
        <time>2023-06-03T13:36:06Z</time>
      </trkpt>
      <trkpt lat="49.89961" lon="2.27732">
        <ele>23</ele>
        <time>2023-06-03T13:36:08Z</time>
      </trkpt>
      <trkpt lat="49.89961" lon="2.27733">
        <ele>23</ele>
        <time>2023-06-03T13:36:09Z</time>
      </trkpt>
      <trkpt lat="49.89961" lon="2.27735">
        <ele>23</ele>
        <time>2023-06-03T13:36:10Z</time>
      </trkpt>
      <trkpt lat="49.8996" lon="2.27738">
        <ele>23</ele>
        <time>2023-06-03T13:36:12Z</time>
      </trkpt>
      <trkpt lat="49.8996" lon="2.2774">
        <ele>23</ele>
        <time>2023-06-03T13:36:13Z</time>
      </trkpt>
      <trkpt lat="49.8996" lon="2.27742">
        <ele>23</ele>
        <time>2023-06-03T13:36:14Z</time>
      </trkpt>
      <trkpt lat="49.8996" lon="2.27745">
        <ele>23</ele>
        <time>2023-06-03T13:36:15Z</time>
      </trkpt>
      <trkpt lat="49.8996" lon="2.27747">
        <ele>23</ele>
        <time>2023-06-03T13:36:16Z</time>
      </trkpt>
      <trkpt lat="49.89959" lon="2.27749">
        <ele>23</ele>
        <time>2023-06-03T13:36:17Z</time>
      </trkpt>
      <trkpt lat="49.89959" lon="2.27751">
        <ele>23.1</ele>
        <time>2023-06-03T13:36:18Z</time>
      </trkpt>
      <trkpt lat="49.8996" lon="2.27751">
        <ele>23.1</ele>
        <time>2023-06-03T13:36:19Z</time>
      </trkpt>
      <trkpt lat="49.8996" lon="2.27754">
        <ele>23.1</ele>
        <time>2023-06-03T13:36:21Z</time>
      </trkpt>
      <trkpt lat="49.8996" lon="2.27755">
        <ele>23.1</ele>
        <time>2023-06-03T13:36:22Z</time>
      </trkpt>
      <trkpt lat="49.8996" lon="2.27756">
        <ele>23.1</ele>
        <time>2023-06-03T13:36:24Z</time>
      </trkpt>
      <trkpt lat="49.8996" lon="2.27758">
        <ele>23.1</ele>
        <time>2023-06-03T13:36:25Z</time>
      </trkpt>
      <trkpt lat="49.8996" lon="2.2776">
        <ele>23.1</ele>
        <time>2023-06-03T13:36:26Z</time>
      </trkpt>
      <trkpt lat="49.89961" lon="2.27761">
        <ele>23.1</ele>
        <time>2023-06-03T13:36:27Z</time>
      </trkpt>
      <trkpt lat="49.89961" lon="2.27762">
        <ele>23.1</ele>
        <time>2023-06-03T13:36:28Z</time>
      </trkpt>
      <trkpt lat="49.89961" lon="2.27764">
        <ele>23.1</ele>
        <time>2023-06-03T13:36:29Z</time>
      </trkpt>
      <trkpt lat="49.89961" lon="2.27767">
        <ele>23.1</ele>
        <time>2023-06-03T13:36:31Z</time>
      </trkpt>
      <trkpt lat="49.89961" lon="2.27768">
        <ele>23.1</ele>
        <time>2023-06-03T13:36:32Z</time>
      </trkpt>
      <trkpt lat="49.89961" lon="2.27769">
        <ele>23.1</ele>
        <time>2023-06-03T13:36:33Z</time>
      </trkpt>
      <trkpt lat="49.89961" lon="2.27772">
        <ele>23.1</ele>
        <time>2023-06-03T13:36:34Z</time>
      </trkpt>
      <trkpt lat="49.89961" lon="2.27773">
        <ele>23.1</ele>
        <time>2023-06-03T13:36:36Z</time>
      </trkpt>
      <trkpt lat="49.89961" lon="2.27775">
        <ele>23.1</ele>
        <time>2023-06-03T13:36:37Z</time>
      </trkpt>
      <trkpt lat="49.89961" lon="2.27778">
        <ele>23.1</ele>
        <time>2023-06-03T13:36:38Z</time>
      </trkpt>
      <trkpt lat="49.89961" lon="2.27781">
        <ele>23.1</ele>
        <time>2023-06-03T13:36:39Z</time>
      </trkpt>
      <trkpt lat="49.89961" lon="2.27782">
        <ele>23.1</ele>
        <time>2023-06-03T13:36:40Z</time>
      </trkpt>
      <trkpt lat="49.89961" lon="2.27783">
        <ele>23.1</ele>
        <time>2023-06-03T13:36:41Z</time>
      </trkpt>
      <trkpt lat="49.89961" lon="2.27786">
        <ele>23.1</ele>
        <time>2023-06-03T13:36:42Z</time>
      </trkpt>
      <trkpt lat="49.89961" lon="2.27789">
        <ele>23.1</ele>
        <time>2023-06-03T13:36:44Z</time>
      </trkpt>
      <trkpt lat="49.89962" lon="2.27791">
        <ele>23.1</ele>
        <time>2023-06-03T13:36:45Z</time>
      </trkpt>
      <trkpt lat="49.89962" lon="2.27793">
        <ele>23.1</ele>
        <time>2023-06-03T13:36:46Z</time>
      </trkpt>
      <trkpt lat="49.89962" lon="2.278">
        <ele>23.1</ele>
        <time>2023-06-03T13:36:48Z</time>
      </trkpt>
      <trkpt lat="49.89962" lon="2.27802">
        <ele>23.1</ele>
        <time>2023-06-03T13:36:49Z</time>
      </trkpt>
      <trkpt lat="49.89963" lon="2.27804">
        <ele>23.1</ele>
        <time>2023-06-03T13:36:50Z</time>
      </trkpt>
      <trkpt lat="49.89963" lon="2.27807">
        <ele>23.1</ele>
        <time>2023-06-03T13:36:52Z</time>
      </trkpt>
      <trkpt lat="49.89963" lon="2.2781">
        <ele>23</ele>
        <time>2023-06-03T13:36:53Z</time>
      </trkpt>
      <trkpt lat="49.89963" lon="2.27812">
        <ele>23</ele>
        <time>2023-06-03T13:36:54Z</time>
      </trkpt>
      <trkpt lat="49.89964" lon="2.27815">
        <ele>23</ele>
        <time>2023-06-03T13:36:55Z</time>
      </trkpt>
      <trkpt lat="49.89964" lon="2.27817">
        <ele>23</ele>
        <time>2023-06-03T13:36:56Z</time>
      </trkpt>
      <trkpt lat="49.89964" lon="2.27818">
        <ele>23</ele>
        <time>2023-06-03T13:36:57Z</time>
      </trkpt>
      <trkpt lat="49.89964" lon="2.2782">
        <ele>23</ele>
        <time>2023-06-03T13:36:58Z</time>
      </trkpt>
      <trkpt lat="49.89963" lon="2.27821">
        <ele>23</ele>
        <time>2023-06-03T13:36:59Z</time>
      </trkpt>
      <trkpt lat="49.89963" lon="2.27822">
        <ele>23</ele>
        <time>2023-06-03T13:37:00Z</time>
      </trkpt>
      <trkpt lat="49.89962" lon="2.27826">
        <ele>23</ele>
        <time>2023-06-03T13:37:02Z</time>
      </trkpt>
      <trkpt lat="49.89962" lon="2.27828">
        <ele>23</ele>
        <time>2023-06-03T13:37:03Z</time>
      </trkpt>
      <trkpt lat="49.89962" lon="2.2783">
        <ele>23</ele>
        <time>2023-06-03T13:37:05Z</time>
      </trkpt>
      <trkpt lat="49.89962" lon="2.27832">
        <ele>23</ele>
        <time>2023-06-03T13:37:06Z</time>
      </trkpt>
      <trkpt lat="49.89961" lon="2.27835">
        <ele>23</ele>
        <time>2023-06-03T13:37:07Z</time>
      </trkpt>
      <trkpt lat="49.89961" lon="2.27837">
        <ele>23</ele>
        <time>2023-06-03T13:37:08Z</time>
      </trkpt>
      <trkpt lat="49.8996" lon="2.2784">
        <ele>23</ele>
        <time>2023-06-03T13:37:09Z</time>
      </trkpt>
      <trkpt lat="49.8996" lon="2.27843">
        <ele>23</ele>
        <time>2023-06-03T13:37:10Z</time>
      </trkpt>
      <trkpt lat="49.89959" lon="2.27844">
        <ele>23</ele>
        <time>2023-06-03T13:37:11Z</time>
      </trkpt>
      <trkpt lat="49.89959" lon="2.27846">
        <ele>23</ele>
        <time>2023-06-03T13:37:12Z</time>
      </trkpt>
      <trkpt lat="49.89959" lon="2.2785">
        <ele>23</ele>
        <time>2023-06-03T13:37:14Z</time>
      </trkpt>
      <trkpt lat="49.89959" lon="2.27852">
        <ele>23</ele>
        <time>2023-06-03T13:37:15Z</time>
      </trkpt>
      <trkpt lat="49.89959" lon="2.27857">
        <ele>23</ele>
        <time>2023-06-03T13:37:17Z</time>
      </trkpt>
      <trkpt lat="49.89959" lon="2.2786">
        <ele>23</ele>
        <time>2023-06-03T13:37:18Z</time>
      </trkpt>
      <trkpt lat="49.89959" lon="2.27862">
        <ele>23</ele>
        <time>2023-06-03T13:37:19Z</time>
      </trkpt>
      <trkpt lat="49.89958" lon="2.27865">
        <ele>23</ele>
        <time>2023-06-03T13:37:21Z</time>
      </trkpt>
      <trkpt lat="49.89958" lon="2.27867">
        <ele>23</ele>
        <time>2023-06-03T13:37:22Z</time>
      </trkpt>
      <trkpt lat="49.89958" lon="2.27872">
        <ele>23</ele>
        <time>2023-06-03T13:37:23Z</time>
      </trkpt>
      <trkpt lat="49.89957" lon="2.27874">
        <ele>23</ele>
        <time>2023-06-03T13:37:24Z</time>
      </trkpt>
      <trkpt lat="49.89957" lon="2.27879">
        <ele>23</ele>
        <time>2023-06-03T13:37:26Z</time>
      </trkpt>
      <trkpt lat="49.89956" lon="2.2788">
        <ele>23</ele>
        <time>2023-06-03T13:37:27Z</time>
      </trkpt>
      <trkpt lat="49.89956" lon="2.27882">
        <ele>23</ele>
        <time>2023-06-03T13:37:28Z</time>
      </trkpt>
      <trkpt lat="49.89955" lon="2.27886">
        <ele>23</ele>
        <time>2023-06-03T13:37:30Z</time>
      </trkpt>
      <trkpt lat="49.89954" lon="2.27888">
        <ele>23</ele>
        <time>2023-06-03T13:37:31Z</time>
      </trkpt>
      <trkpt lat="49.89954" lon="2.2789">
        <ele>23</ele>
        <time>2023-06-03T13:37:32Z</time>
      </trkpt>
      <trkpt lat="49.89953" lon="2.27892">
        <ele>23</ele>
        <time>2023-06-03T13:37:34Z</time>
      </trkpt>
      <trkpt lat="49.89953" lon="2.27895">
        <ele>23</ele>
        <time>2023-06-03T13:37:35Z</time>
      </trkpt>
      <trkpt lat="49.89953" lon="2.27896">
        <ele>23</ele>
        <time>2023-06-03T13:37:37Z</time>
      </trkpt>
      <trkpt lat="49.89952" lon="2.27899">
        <ele>23</ele>
        <time>2023-06-03T13:37:38Z</time>
      </trkpt>
      <trkpt lat="49.89951" lon="2.27901">
        <ele>23</ele>
        <time>2023-06-03T13:37:39Z</time>
      </trkpt>
      <trkpt lat="49.89951" lon="2.27903">
        <ele>23</ele>
        <time>2023-06-03T13:37:41Z</time>
      </trkpt>
      <trkpt lat="49.89951" lon="2.27906">
        <ele>23</ele>
        <time>2023-06-03T13:37:42Z</time>
      </trkpt>
      <trkpt lat="49.89951" lon="2.27907">
        <ele>23</ele>
        <time>2023-06-03T13:37:43Z</time>
      </trkpt>
      <trkpt lat="49.89951" lon="2.27908">
        <ele>23</ele>
        <time>2023-06-03T13:37:44Z</time>
      </trkpt>
      <trkpt lat="49.89951" lon="2.2791">
        <ele>23</ele>
        <time>2023-06-03T13:37:45Z</time>
      </trkpt>
      <trkpt lat="49.89952" lon="2.27911">
        <ele>23</ele>
        <time>2023-06-03T13:37:46Z</time>
      </trkpt>
      <trkpt lat="49.89953" lon="2.27914">
        <ele>23</ele>
        <time>2023-06-03T13:37:48Z</time>
      </trkpt>
      <trkpt lat="49.89953" lon="2.27915">
        <ele>23</ele>
        <time>2023-06-03T13:37:49Z</time>
      </trkpt>
      <trkpt lat="49.89953" lon="2.27919">
        <ele>23</ele>
        <time>2023-06-03T13:37:50Z</time>
      </trkpt>
      <trkpt lat="49.89953" lon="2.2792">
        <ele>23</ele>
        <time>2023-06-03T13:37:52Z</time>
      </trkpt>
      <trkpt lat="49.89954" lon="2.27922">
        <ele>23</ele>
        <time>2023-06-03T13:37:53Z</time>
      </trkpt>
      <trkpt lat="49.89954" lon="2.27923">
        <ele>23</ele>
        <time>2023-06-03T13:37:55Z</time>
      </trkpt>
      <trkpt lat="49.89954" lon="2.27924">
        <ele>23</ele>
        <time>2023-06-03T13:37:56Z</time>
      </trkpt>
      <trkpt lat="49.89954" lon="2.27925">
        <ele>23</ele>
        <time>2023-06-03T13:37:57Z</time>
      </trkpt>
      <trkpt lat="49.89954" lon="2.27927">
        <ele>23</ele>
        <time>2023-06-03T13:37:58Z</time>
      </trkpt>
      <trkpt lat="49.89954" lon="2.27928">
        <ele>23</ele>
        <time>2023-06-03T13:37:59Z</time>
      </trkpt>
      <trkpt lat="49.89954" lon="2.2793">
        <ele>23</ele>
        <time>2023-06-03T13:38:00Z</time>
      </trkpt>
      <trkpt lat="49.89954" lon="2.27932">
        <ele>23</ele>
        <time>2023-06-03T13:38:01Z</time>
      </trkpt>
      <trkpt lat="49.89953" lon="2.27934">
        <ele>23</ele>
        <time>2023-06-03T13:38:02Z</time>
      </trkpt>
      <trkpt lat="49.89953" lon="2.27936">
        <ele>23</ele>
        <time>2023-06-03T13:38:03Z</time>
      </trkpt>
      <trkpt lat="49.89953" lon="2.27938">
        <ele>23</ele>
        <time>2023-06-03T13:38:05Z</time>
      </trkpt>
      <trkpt lat="49.89952" lon="2.27942">
        <ele>23.1</ele>
        <time>2023-06-03T13:38:06Z</time>
      </trkpt>
      <trkpt lat="49.89952" lon="2.27944">
        <ele>23.1</ele>
        <time>2023-06-03T13:38:08Z</time>
      </trkpt>
      <trkpt lat="49.89951" lon="2.27947">
        <ele>23.1</ele>
        <time>2023-06-03T13:38:09Z</time>
      </trkpt>
      <trkpt lat="49.89951" lon="2.27948">
        <ele>23.1</ele>
        <time>2023-06-03T13:38:10Z</time>
      </trkpt>
      <trkpt lat="49.8995" lon="2.2795">
        <ele>23.1</ele>
        <time>2023-06-03T13:38:12Z</time>
      </trkpt>
      <trkpt lat="49.8995" lon="2.27951">
        <ele>23.1</ele>
        <time>2023-06-03T13:38:13Z</time>
      </trkpt>
      <trkpt lat="49.89949" lon="2.27953">
        <ele>23.1</ele>
        <time>2023-06-03T13:38:14Z</time>
      </trkpt>
      <trkpt lat="49.89948" lon="2.27955">
        <ele>23.1</ele>
        <time>2023-06-03T13:38:15Z</time>
      </trkpt>
      <trkpt lat="49.89948" lon="2.27957">
        <ele>23.1</ele>
        <time>2023-06-03T13:38:16Z</time>
      </trkpt>
      <trkpt lat="49.89947" lon="2.27959">
        <ele>23.1</ele>
        <time>2023-06-03T13:38:17Z</time>
      </trkpt>
      <trkpt lat="49.89947" lon="2.27962">
        <ele>23.1</ele>
        <time>2023-06-03T13:38:18Z</time>
      </trkpt>
      <trkpt lat="49.89947" lon="2.27964">
        <ele>23.1</ele>
        <time>2023-06-03T13:38:19Z</time>
      </trkpt>
      <trkpt lat="49.89946" lon="2.27968">
        <ele>23.1</ele>
        <time>2023-06-03T13:38:21Z</time>
      </trkpt>
      <trkpt lat="49.89946" lon="2.2797">
        <ele>23.1</ele>
        <time>2023-06-03T13:38:22Z</time>
      </trkpt>
      <trkpt lat="49.89946" lon="2.27972">
        <ele>23.1</ele>
        <time>2023-06-03T13:38:23Z</time>
      </trkpt>
      <trkpt lat="49.89946" lon="2.27973">
        <ele>23.1</ele>
        <time>2023-06-03T13:38:25Z</time>
      </trkpt>
      <trkpt lat="49.89945" lon="2.27975">
        <ele>23.1</ele>
        <time>2023-06-03T13:38:26Z</time>
      </trkpt>
      <trkpt lat="49.89945" lon="2.27976">
        <ele>23.1</ele>
        <time>2023-06-03T13:38:27Z</time>
      </trkpt>
      <trkpt lat="49.89945" lon="2.27978">
        <ele>23.1</ele>
        <time>2023-06-03T13:38:28Z</time>
      </trkpt>
      <trkpt lat="49.89945" lon="2.27982">
        <ele>23.1</ele>
        <time>2023-06-03T13:38:29Z</time>
      </trkpt>
      <trkpt lat="49.89945" lon="2.27983">
        <ele>23.1</ele>
        <time>2023-06-03T13:38:30Z</time>
      </trkpt>
      <trkpt lat="49.89945" lon="2.27984">
        <ele>23.1</ele>
        <time>2023-06-03T13:38:31Z</time>
      </trkpt>
      <trkpt lat="49.89945" lon="2.27987">
        <ele>23.1</ele>
        <time>2023-06-03T13:38:33Z</time>
      </trkpt>
      <trkpt lat="49.89945" lon="2.27989">
        <ele>23.1</ele>
        <time>2023-06-03T13:38:34Z</time>
      </trkpt>
      <trkpt lat="49.89945" lon="2.2799">
        <ele>23.1</ele>
        <time>2023-06-03T13:38:35Z</time>
      </trkpt>
      <trkpt lat="49.89945" lon="2.27992">
        <ele>23.1</ele>
        <time>2023-06-03T13:38:36Z</time>
      </trkpt>
      <trkpt lat="49.89945" lon="2.27994">
        <ele>23.1</ele>
        <time>2023-06-03T13:38:37Z</time>
      </trkpt>
      <trkpt lat="49.89945" lon="2.27995">
        <ele>23.1</ele>
        <time>2023-06-03T13:38:38Z</time>
      </trkpt>
      <trkpt lat="49.89945" lon="2.27997">
        <ele>23.1</ele>
        <time>2023-06-03T13:38:39Z</time>
      </trkpt>
      <trkpt lat="49.89944" lon="2.27999">
        <ele>23.1</ele>
        <time>2023-06-03T13:38:41Z</time>
      </trkpt>
      <trkpt lat="49.89944" lon="2.28001">
        <ele>23.1</ele>
        <time>2023-06-03T13:38:42Z</time>
      </trkpt>
      <trkpt lat="49.89944" lon="2.28004">
        <ele>23.1</ele>
        <time>2023-06-03T13:38:43Z</time>
      </trkpt>
      <trkpt lat="49.89944" lon="2.28006">
        <ele>23.1</ele>
        <time>2023-06-03T13:38:45Z</time>
      </trkpt>
      <trkpt lat="49.89944" lon="2.28008">
        <ele>23.1</ele>
        <time>2023-06-03T13:38:46Z</time>
      </trkpt>
      <trkpt lat="49.89944" lon="2.2801">
        <ele>23.1</ele>
        <time>2023-06-03T13:38:47Z</time>
      </trkpt>
      <trkpt lat="49.89944" lon="2.28013">
        <ele>23.1</ele>
        <time>2023-06-03T13:38:48Z</time>
      </trkpt>
      <trkpt lat="49.89943" lon="2.28016">
        <ele>23.1</ele>
        <time>2023-06-03T13:38:49Z</time>
      </trkpt>
      <trkpt lat="49.89943" lon="2.28017">
        <ele>23.1</ele>
        <time>2023-06-03T13:38:50Z</time>
      </trkpt>
      <trkpt lat="49.89943" lon="2.28018">
        <ele>23.1</ele>
        <time>2023-06-03T13:38:51Z</time>
      </trkpt>
      <trkpt lat="49.89943" lon="2.28022">
        <ele>23.1</ele>
        <time>2023-06-03T13:38:53Z</time>
      </trkpt>
      <trkpt lat="49.89943" lon="2.28023">
        <ele>23.1</ele>
        <time>2023-06-03T13:38:54Z</time>
      </trkpt>
      <trkpt lat="49.89943" lon="2.28025">
        <ele>23.1</ele>
        <time>2023-06-03T13:38:56Z</time>
      </trkpt>
      <trkpt lat="49.89943" lon="2.28028">
        <ele>23.1</ele>
        <time>2023-06-03T13:38:57Z</time>
      </trkpt>
      <trkpt lat="49.89943" lon="2.28032">
        <ele>23.1</ele>
        <time>2023-06-03T13:38:58Z</time>
      </trkpt>
      <trkpt lat="49.89943" lon="2.28035">
        <ele>23.1</ele>
        <time>2023-06-03T13:39:00Z</time>
      </trkpt>
      <trkpt lat="49.89943" lon="2.28037">
        <ele>23.1</ele>
        <time>2023-06-03T13:39:01Z</time>
      </trkpt>
      <trkpt lat="49.89943" lon="2.28039">
        <ele>23.1</ele>
        <time>2023-06-03T13:39:02Z</time>
      </trkpt>
      <trkpt lat="49.89943" lon="2.28042">
        <ele>23.1</ele>
        <time>2023-06-03T13:39:03Z</time>
      </trkpt>
      <trkpt lat="49.89942" lon="2.28044">
        <ele>23.1</ele>
        <time>2023-06-03T13:39:04Z</time>
      </trkpt>
      <trkpt lat="49.89942" lon="2.28047">
        <ele>23.1</ele>
        <time>2023-06-03T13:39:05Z</time>
      </trkpt>
      <trkpt lat="49.89943" lon="2.2805">
        <ele>23.1</ele>
        <time>2023-06-03T13:39:06Z</time>
      </trkpt>
      <trkpt lat="49.89942" lon="2.28053">
        <ele>23.1</ele>
        <time>2023-06-03T13:39:08Z</time>
      </trkpt>
      <trkpt lat="49.89943" lon="2.28054">
        <ele>23.1</ele>
        <time>2023-06-03T13:39:09Z</time>
      </trkpt>
      <trkpt lat="49.89943" lon="2.28059">
        <ele>23.1</ele>
        <time>2023-06-03T13:39:10Z</time>
      </trkpt>
      <trkpt lat="49.89943" lon="2.2806">
        <ele>23.1</ele>
        <time>2023-06-03T13:39:12Z</time>
      </trkpt>
      <trkpt lat="49.89943" lon="2.28062">
        <ele>23.1</ele>
        <time>2023-06-03T13:39:13Z</time>
      </trkpt>
      <trkpt lat="49.89944" lon="2.28063">
        <ele>23.1</ele>
        <time>2023-06-03T13:39:14Z</time>
      </trkpt>
      <trkpt lat="49.89944" lon="2.28064">
        <ele>23.1</ele>
        <time>2023-06-03T13:39:16Z</time>
      </trkpt>
      <trkpt lat="49.89944" lon="2.28065">
        <ele>23.1</ele>
        <time>2023-06-03T13:39:17Z</time>
      </trkpt>
      <trkpt lat="49.89944" lon="2.28067">
        <ele>23.1</ele>
        <time>2023-06-03T13:39:18Z</time>
      </trkpt>
      <trkpt lat="49.89944" lon="2.28069">
        <ele>23.1</ele>
        <time>2023-06-03T13:39:19Z</time>
      </trkpt>
      <trkpt lat="49.89945" lon="2.2807">
        <ele>23.1</ele>
        <time>2023-06-03T13:39:20Z</time>
      </trkpt>
      <trkpt lat="49.89945" lon="2.28071">
        <ele>23.1</ele>
        <time>2023-06-03T13:39:21Z</time>
      </trkpt>
      <trkpt lat="49.89946" lon="2.28073">
        <ele>23.1</ele>
        <time>2023-06-03T13:39:23Z</time>
      </trkpt>
      <trkpt lat="49.89946" lon="2.28075">
        <ele>23.1</ele>
        <time>2023-06-03T13:39:24Z</time>
      </trkpt>
      <trkpt lat="49.89946" lon="2.28078">
        <ele>23.1</ele>
        <time>2023-06-03T13:39:25Z</time>
      </trkpt>
      <trkpt lat="49.89946" lon="2.2808">
        <ele>23.1</ele>
        <time>2023-06-03T13:39:26Z</time>
      </trkpt>
      <trkpt lat="49.89945" lon="2.28082">
        <ele>23.1</ele>
        <time>2023-06-03T13:39:28Z</time>
      </trkpt>
      <trkpt lat="49.89945" lon="2.28085">
        <ele>23.2</ele>
        <time>2023-06-03T13:39:29Z</time>
      </trkpt>
      <trkpt lat="49.89945" lon="2.28086">
        <ele>23.2</ele>
        <time>2023-06-03T13:39:30Z</time>
      </trkpt>
      <trkpt lat="49.89945" lon="2.28088">
        <ele>23.2</ele>
        <time>2023-06-03T13:39:31Z</time>
      </trkpt>
      <trkpt lat="49.89945" lon="2.2809">
        <ele>23.2</ele>
        <time>2023-06-03T13:39:32Z</time>
      </trkpt>
      <trkpt lat="49.89945" lon="2.28092">
        <ele>23.2</ele>
        <time>2023-06-03T13:39:33Z</time>
      </trkpt>
      <trkpt lat="49.89945" lon="2.28095">
        <ele>23.2</ele>
        <time>2023-06-03T13:39:34Z</time>
      </trkpt>
      <trkpt lat="49.89945" lon="2.28097">
        <ele>23.2</ele>
        <time>2023-06-03T13:39:35Z</time>
      </trkpt>
      <trkpt lat="49.89945" lon="2.28098">
        <ele>23.2</ele>
        <time>2023-06-03T13:39:36Z</time>
      </trkpt>
      <trkpt lat="49.89945" lon="2.28102">
        <ele>23.2</ele>
        <time>2023-06-03T13:39:38Z</time>
      </trkpt>
      <trkpt lat="49.89945" lon="2.28104">
        <ele>23.2</ele>
        <time>2023-06-03T13:39:39Z</time>
      </trkpt>
      <trkpt lat="49.89944" lon="2.28105">
        <ele>23.2</ele>
        <time>2023-06-03T13:39:40Z</time>
      </trkpt>
      <trkpt lat="49.89944" lon="2.28109">
        <ele>23.2</ele>
        <time>2023-06-03T13:39:42Z</time>
      </trkpt>
      <trkpt lat="49.89944" lon="2.2811">
        <ele>23.2</ele>
        <time>2023-06-03T13:39:43Z</time>
      </trkpt>
      <trkpt lat="49.89943" lon="2.28112">
        <ele>23.2</ele>
        <time>2023-06-03T13:39:44Z</time>
      </trkpt>
      <trkpt lat="49.89943" lon="2.28115">
        <ele>23.2</ele>
        <time>2023-06-03T13:39:46Z</time>
      </trkpt>
      <trkpt lat="49.89942" lon="2.28116">
        <ele>23.2</ele>
        <time>2023-06-03T13:39:47Z</time>
      </trkpt>
      <trkpt lat="49.89942" lon="2.28118">
        <ele>23.2</ele>
        <time>2023-06-03T13:39:48Z</time>
      </trkpt>
      <trkpt lat="49.89942" lon="2.2812">
        <ele>23.2</ele>
        <time>2023-06-03T13:39:49Z</time>
      </trkpt>
      <trkpt lat="49.89941" lon="2.28122">
        <ele>23.2</ele>
        <time>2023-06-03T13:39:50Z</time>
      </trkpt>
      <trkpt lat="49.89941" lon="2.28124">
        <ele>23.2</ele>
        <time>2023-06-03T13:39:51Z</time>
      </trkpt>
      <trkpt lat="49.8994" lon="2.28125">
        <ele>23.2</ele>
        <time>2023-06-03T13:39:52Z</time>
      </trkpt>
      <trkpt lat="49.8994" lon="2.2813">
        <ele>23.2</ele>
        <time>2023-06-03T13:39:54Z</time>
      </trkpt>
      <trkpt lat="49.89939" lon="2.28131">
        <ele>23.2</ele>
        <time>2023-06-03T13:39:55Z</time>
      </trkpt>
      <trkpt lat="49.89939" lon="2.28134">
        <ele>23.1</ele>
        <time>2023-06-03T13:39:56Z</time>
      </trkpt>
      <trkpt lat="49.89939" lon="2.28137">
        <ele>23.1</ele>
        <time>2023-06-03T13:39:58Z</time>
      </trkpt>
      <trkpt lat="49.89938" lon="2.28141">
        <ele>23.1</ele>
        <time>2023-06-03T13:39:59Z</time>
      </trkpt>
      <trkpt lat="49.89938" lon="2.28143">
        <ele>23.1</ele>
        <time>2023-06-03T13:40:00Z</time>
      </trkpt>
      <trkpt lat="49.89938" lon="2.28146">
        <ele>23.1</ele>
        <time>2023-06-03T13:40:02Z</time>
      </trkpt>
      <trkpt lat="49.89938" lon="2.28148">
        <ele>23.1</ele>
        <time>2023-06-03T13:40:03Z</time>
      </trkpt>
      <trkpt lat="49.89938" lon="2.2815">
        <ele>23.1</ele>
        <time>2023-06-03T13:40:04Z</time>
      </trkpt>
      <trkpt lat="49.89938" lon="2.28153">
        <ele>23.1</ele>
        <time>2023-06-03T13:40:05Z</time>
      </trkpt>
      <trkpt lat="49.89937" lon="2.28154">
        <ele>23.1</ele>
        <time>2023-06-03T13:40:06Z</time>
      </trkpt>
      <trkpt lat="49.89937" lon="2.28156">
        <ele>23.1</ele>
        <time>2023-06-03T13:40:07Z</time>
      </trkpt>
      <trkpt lat="49.89937" lon="2.28158">
        <ele>23.1</ele>
        <time>2023-06-03T13:40:08Z</time>
      </trkpt>
      <trkpt lat="49.89937" lon="2.28159">
        <ele>23.1</ele>
        <time>2023-06-03T13:40:09Z</time>
      </trkpt>
      <trkpt lat="49.89937" lon="2.2816">
        <ele>23.1</ele>
        <time>2023-06-03T13:40:10Z</time>
      </trkpt>
      <trkpt lat="49.89936" lon="2.28163">
        <ele>23.1</ele>
        <time>2023-06-03T13:40:12Z</time>
      </trkpt>
      <trkpt lat="49.89936" lon="2.28164">
        <ele>23.1</ele>
        <time>2023-06-03T13:40:13Z</time>
      </trkpt>
      <trkpt lat="49.89936" lon="2.28166">
        <ele>23.1</ele>
        <time>2023-06-03T13:40:14Z</time>
      </trkpt>
      <trkpt lat="49.89936" lon="2.28167">
        <ele>23.1</ele>
        <time>2023-06-03T13:40:16Z</time>
      </trkpt>
      <trkpt lat="49.89936" lon="2.28168">
        <ele>23.2</ele>
        <time>2023-06-03T13:40:17Z</time>
      </trkpt>
      <trkpt lat="49.89936" lon="2.28171">
        <ele>23.2</ele>
        <time>2023-06-03T13:40:18Z</time>
      </trkpt>
      <trkpt lat="49.89936" lon="2.28174">
        <ele>23.2</ele>
        <time>2023-06-03T13:40:19Z</time>
      </trkpt>
      <trkpt lat="49.89936" lon="2.28175">
        <ele>23.2</ele>
        <time>2023-06-03T13:40:20Z</time>
      </trkpt>
      <trkpt lat="49.89936" lon="2.28176">
        <ele>23.2</ele>
        <time>2023-06-03T13:40:21Z</time>
      </trkpt>
      <trkpt lat="49.89936" lon="2.28181">
        <ele>23.2</ele>
        <time>2023-06-03T13:40:22Z</time>
      </trkpt>
      <trkpt lat="49.89936" lon="2.28182">
        <ele>23.2</ele>
        <time>2023-06-03T13:40:24Z</time>
      </trkpt>
      <trkpt lat="49.89937" lon="2.28184">
        <ele>23.2</ele>
        <time>2023-06-03T13:40:25Z</time>
      </trkpt>
      <trkpt lat="49.89937" lon="2.28186">
        <ele>23.2</ele>
        <time>2023-06-03T13:40:26Z</time>
      </trkpt>
      <trkpt lat="49.89937" lon="2.2819">
        <ele>23.2</ele>
        <time>2023-06-03T13:40:27Z</time>
      </trkpt>
      <trkpt lat="49.89937" lon="2.28192">
        <ele>23.2</ele>
        <time>2023-06-03T13:40:29Z</time>
      </trkpt>
      <trkpt lat="49.89937" lon="2.28194">
        <ele>23.2</ele>
        <time>2023-06-03T13:40:30Z</time>
      </trkpt>
      <trkpt lat="49.89938" lon="2.28196">
        <ele>23.1</ele>
        <time>2023-06-03T13:40:31Z</time>
      </trkpt>
      <trkpt lat="49.89938" lon="2.282">
        <ele>23.1</ele>
        <time>2023-06-03T13:40:32Z</time>
      </trkpt>
      <trkpt lat="49.89938" lon="2.28202">
        <ele>23.1</ele>
        <time>2023-06-03T13:40:33Z</time>
      </trkpt>
      <trkpt lat="49.89938" lon="2.28204">
        <ele>23.1</ele>
        <time>2023-06-03T13:40:34Z</time>
      </trkpt>
      <trkpt lat="49.89938" lon="2.28206">
        <ele>23.1</ele>
        <time>2023-06-03T13:40:35Z</time>
      </trkpt>
      <trkpt lat="49.89938" lon="2.28211">
        <ele>23.1</ele>
        <time>2023-06-03T13:40:37Z</time>
      </trkpt>
      <trkpt lat="49.89938" lon="2.28213">
        <ele>23.1</ele>
        <time>2023-06-03T13:40:38Z</time>
      </trkpt>
      <trkpt lat="49.89938" lon="2.28216">
        <ele>23.1</ele>
        <time>2023-06-03T13:40:40Z</time>
      </trkpt>
      <trkpt lat="49.89937" lon="2.28218">
        <ele>23.1</ele>
        <time>2023-06-03T13:40:41Z</time>
      </trkpt>
      <trkpt lat="49.89937" lon="2.28219">
        <ele>23.1</ele>
        <time>2023-06-03T13:40:42Z</time>
      </trkpt>
      <trkpt lat="49.89936" lon="2.2822">
        <ele>23.1</ele>
        <time>2023-06-03T13:40:44Z</time>
      </trkpt>
      <trkpt lat="49.89936" lon="2.28221">
        <ele>23.1</ele>
        <time>2023-06-03T13:40:45Z</time>
      </trkpt>
      <trkpt lat="49.89935" lon="2.28223">
        <ele>23.1</ele>
        <time>2023-06-03T13:40:46Z</time>
      </trkpt>
      <trkpt lat="49.89935" lon="2.28224">
        <ele>23.1</ele>
        <time>2023-06-03T13:40:47Z</time>
      </trkpt>
      <trkpt lat="49.89935" lon="2.28226">
        <ele>23.1</ele>
        <time>2023-06-03T13:40:48Z</time>
      </trkpt>
      <trkpt lat="49.89935" lon="2.28228">
        <ele>23.1</ele>
        <time>2023-06-03T13:40:49Z</time>
      </trkpt>
      <trkpt lat="49.89935" lon="2.28229">
        <ele>23.1</ele>
        <time>2023-06-03T13:40:50Z</time>
      </trkpt>
      <trkpt lat="49.89934" lon="2.28233">
        <ele>23.1</ele>
        <time>2023-06-03T13:40:52Z</time>
      </trkpt>
      <trkpt lat="49.89934" lon="2.28235">
        <ele>23.1</ele>
        <time>2023-06-03T13:40:53Z</time>
      </trkpt>
      <trkpt lat="49.89933" lon="2.28238">
        <ele>23.1</ele>
        <time>2023-06-03T13:40:54Z</time>
      </trkpt>
      <trkpt lat="49.89933" lon="2.2824">
        <ele>23.1</ele>
        <time>2023-06-03T13:40:56Z</time>
      </trkpt>
      <trkpt lat="49.89933" lon="2.28242">
        <ele>23.1</ele>
        <time>2023-06-03T13:40:57Z</time>
      </trkpt>
      <trkpt lat="49.89934" lon="2.28244">
        <ele>23.1</ele>
        <time>2023-06-03T13:40:58Z</time>
      </trkpt>
      <trkpt lat="49.89935" lon="2.28246">
        <ele>23</ele>
        <time>2023-06-03T13:40:59Z</time>
      </trkpt>
      <trkpt lat="49.89936" lon="2.28247">
        <ele>23</ele>
        <time>2023-06-03T13:41:00Z</time>
      </trkpt>
      <trkpt lat="49.89937" lon="2.28248">
        <ele>23</ele>
        <time>2023-06-03T13:41:01Z</time>
      </trkpt>
      <trkpt lat="49.89938" lon="2.28248">
        <ele>23</ele>
        <time>2023-06-03T13:41:02Z</time>
      </trkpt>
      <trkpt lat="49.89939" lon="2.2825">
        <ele>23</ele>
        <time>2023-06-03T13:41:04Z</time>
      </trkpt>
      <trkpt lat="49.89939" lon="2.28253">
        <ele>23</ele>
        <time>2023-06-03T13:41:05Z</time>
      </trkpt>
      <trkpt lat="49.89939" lon="2.28255">
        <ele>23</ele>
        <time>2023-06-03T13:41:07Z</time>
      </trkpt>
      <trkpt lat="49.89939" lon="2.28258">
        <ele>23</ele>
        <time>2023-06-03T13:41:08Z</time>
      </trkpt>
      <trkpt lat="49.8994" lon="2.28261">
        <ele>23</ele>
        <time>2023-06-03T13:41:09Z</time>
      </trkpt>
      <trkpt lat="49.8994" lon="2.28262">
        <ele>23</ele>
        <time>2023-06-03T13:41:11Z</time>
      </trkpt>
      <trkpt lat="49.89941" lon="2.28263">
        <ele>23.1</ele>
        <time>2023-06-03T13:41:12Z</time>
      </trkpt>
      <trkpt lat="49.89942" lon="2.28266">
        <ele>23.1</ele>
        <time>2023-06-03T13:41:13Z</time>
      </trkpt>
      <trkpt lat="49.89942" lon="2.28267">
        <ele>23.1</ele>
        <time>2023-06-03T13:41:14Z</time>
      </trkpt>
      <trkpt lat="49.89943" lon="2.28268">
        <ele>23.2</ele>
        <time>2023-06-03T13:41:15Z</time>
      </trkpt>
      <trkpt lat="49.89943" lon="2.2827">
        <ele>23.2</ele>
        <time>2023-06-03T13:41:16Z</time>
      </trkpt>
      <trkpt lat="49.89944" lon="2.28273">
        <ele>23.2</ele>
        <time>2023-06-03T13:41:18Z</time>
      </trkpt>
      <trkpt lat="49.89945" lon="2.28277">
        <ele>23.3</ele>
        <time>2023-06-03T13:41:19Z</time>
      </trkpt>
      <trkpt lat="49.89945" lon="2.28279">
        <ele>23.3</ele>
        <time>2023-06-03T13:41:20Z</time>
      </trkpt>
      <trkpt lat="49.89946" lon="2.2828">
        <ele>23.3</ele>
        <time>2023-06-03T13:41:21Z</time>
      </trkpt>
      <trkpt lat="49.89947" lon="2.28283">
        <ele>23.3</ele>
        <time>2023-06-03T13:41:23Z</time>
      </trkpt>
      <trkpt lat="49.89948" lon="2.28284">
        <ele>23.4</ele>
        <time>2023-06-03T13:41:24Z</time>
      </trkpt>
      <trkpt lat="49.89949" lon="2.28285">
        <ele>23.4</ele>
        <time>2023-06-03T13:41:25Z</time>
      </trkpt>
      <trkpt lat="49.8995" lon="2.28286">
        <ele>23.5</ele>
        <time>2023-06-03T13:41:26Z</time>
      </trkpt>
      <trkpt lat="49.89952" lon="2.28288">
        <ele>23.5</ele>
        <time>2023-06-03T13:41:28Z</time>
      </trkpt>
      <trkpt lat="49.89952" lon="2.28289">
        <ele>23.5</ele>
        <time>2023-06-03T13:41:29Z</time>
      </trkpt>
      <trkpt lat="49.89953" lon="2.2829">
        <ele>23.5</ele>
        <time>2023-06-03T13:41:30Z</time>
      </trkpt>
      <trkpt lat="49.89954" lon="2.28292">
        <ele>23.4</ele>
        <time>2023-06-03T13:41:32Z</time>
      </trkpt>
      <trkpt lat="49.89955" lon="2.28293">
        <ele>23.4</ele>
        <time>2023-06-03T13:41:33Z</time>
      </trkpt>
      <trkpt lat="49.89957" lon="2.28294">
        <ele>23.4</ele>
        <time>2023-06-03T13:41:34Z</time>
      </trkpt>
      <trkpt lat="49.89958" lon="2.28295">
        <ele>23.4</ele>
        <time>2023-06-03T13:41:35Z</time>
      </trkpt>
      <trkpt lat="49.89959" lon="2.28296">
        <ele>23.3</ele>
        <time>2023-06-03T13:41:36Z</time>
      </trkpt>
      <trkpt lat="49.8996" lon="2.28298">
        <ele>23.3</ele>
        <time>2023-06-03T13:41:37Z</time>
      </trkpt>
      <trkpt lat="49.89962" lon="2.28301">
        <ele>23.2</ele>
        <time>2023-06-03T13:41:38Z</time>
      </trkpt>
      <trkpt lat="49.89963" lon="2.28302">
        <ele>23.2</ele>
        <time>2023-06-03T13:41:40Z</time>
      </trkpt>
      <trkpt lat="49.89964" lon="2.28303">
        <ele>23.2</ele>
        <time>2023-06-03T13:41:41Z</time>
      </trkpt>
      <trkpt lat="49.89965" lon="2.28305">
        <ele>23.2</ele>
        <time>2023-06-03T13:41:42Z</time>
      </trkpt>
      <trkpt lat="49.89966" lon="2.28306">
        <ele>23.1</ele>
        <time>2023-06-03T13:41:44Z</time>
      </trkpt>
      <trkpt lat="49.89967" lon="2.28307">
        <ele>23.1</ele>
        <time>2023-06-03T13:41:45Z</time>
      </trkpt>
      <trkpt lat="49.89968" lon="2.28309">
        <ele>23.1</ele>
        <time>2023-06-03T13:41:46Z</time>
      </trkpt>
      <trkpt lat="49.89969" lon="2.28311">
        <ele>23</ele>
        <time>2023-06-03T13:41:47Z</time>
      </trkpt>
      <trkpt lat="49.89969" lon="2.28312">
        <ele>23</ele>
        <time>2023-06-03T13:41:48Z</time>
      </trkpt>
      <trkpt lat="49.8997" lon="2.28316">
        <ele>23</ele>
        <time>2023-06-03T13:41:49Z</time>
      </trkpt>
      <trkpt lat="49.8997" lon="2.28318">
        <ele>22.9</ele>
        <time>2023-06-03T13:41:50Z</time>
      </trkpt>
      <trkpt lat="49.8997" lon="2.2832">
        <ele>22.9</ele>
        <time>2023-06-03T13:41:52Z</time>
      </trkpt>
      <trkpt lat="49.89971" lon="2.28321">
        <ele>22.9</ele>
        <time>2023-06-03T13:41:53Z</time>
      </trkpt>
      <trkpt lat="49.89971" lon="2.28323">
        <ele>22.9</ele>
        <time>2023-06-03T13:41:54Z</time>
      </trkpt>
      <trkpt lat="49.89971" lon="2.28326">
        <ele>22.8</ele>
        <time>2023-06-03T13:41:56Z</time>
      </trkpt>
      <trkpt lat="49.89972" lon="2.28328">
        <ele>22.8</ele>
        <time>2023-06-03T13:41:57Z</time>
      </trkpt>
      <trkpt lat="49.89972" lon="2.2833">
        <ele>22.8</ele>
        <time>2023-06-03T13:41:58Z</time>
      </trkpt>
      <trkpt lat="49.89973" lon="2.28331">
        <ele>22.8</ele>
        <time>2023-06-03T13:42:00Z</time>
      </trkpt>
      <trkpt lat="49.89974" lon="2.28332">
        <ele>22.7</ele>
        <time>2023-06-03T13:42:01Z</time>
      </trkpt>
      <trkpt lat="49.89975" lon="2.28333">
        <ele>22.7</ele>
        <time>2023-06-03T13:42:02Z</time>
      </trkpt>
      <trkpt lat="49.89976" lon="2.28334">
        <ele>22.7</ele>
        <time>2023-06-03T13:42:03Z</time>
      </trkpt>
      <trkpt lat="49.89977" lon="2.28334">
        <ele>22.7</ele>
        <time>2023-06-03T13:42:04Z</time>
      </trkpt>
      <trkpt lat="49.89979" lon="2.28336">
        <ele>22.7</ele>
        <time>2023-06-03T13:42:05Z</time>
      </trkpt>
      <trkpt lat="49.8998" lon="2.28336">
        <ele>22.7</ele>
        <time>2023-06-03T13:42:06Z</time>
      </trkpt>
      <trkpt lat="49.8998" lon="2.28337">
        <ele>22.7</ele>
        <time>2023-06-03T13:42:07Z</time>
      </trkpt>
      <trkpt lat="49.89983" lon="2.2834">
        <ele>22.7</ele>
        <time>2023-06-03T13:42:09Z</time>
      </trkpt>
      <trkpt lat="49.89983" lon="2.28341">
        <ele>22.7</ele>
        <time>2023-06-03T13:42:10Z</time>
      </trkpt>
      <trkpt lat="49.89985" lon="2.28343">
        <ele>22.7</ele>
        <time>2023-06-03T13:42:11Z</time>
      </trkpt>
      <trkpt lat="49.89986" lon="2.28345">
        <ele>22.7</ele>
        <time>2023-06-03T13:42:13Z</time>
      </trkpt>
      <trkpt lat="49.89988" lon="2.28346">
        <ele>22.7</ele>
        <time>2023-06-03T13:42:14Z</time>
      </trkpt>
      <trkpt lat="49.89989" lon="2.28347">
        <ele>22.7</ele>
        <time>2023-06-03T13:42:15Z</time>
      </trkpt>
      <trkpt lat="49.89992" lon="2.28348">
        <ele>22.7</ele>
        <time>2023-06-03T13:42:16Z</time>
      </trkpt>
      <trkpt lat="49.89993" lon="2.28348">
        <ele>22.7</ele>
        <time>2023-06-03T13:42:17Z</time>
      </trkpt>
      <trkpt lat="49.89995" lon="2.28349">
        <ele>22.7</ele>
        <time>2023-06-03T13:42:18Z</time>
      </trkpt>
      <trkpt lat="49.89996" lon="2.28351">
        <ele>22.7</ele>
        <time>2023-06-03T13:42:19Z</time>
      </trkpt>
      <trkpt lat="49.89997" lon="2.28353">
        <ele>22.7</ele>
        <time>2023-06-03T13:42:21Z</time>
      </trkpt>
      <trkpt lat="49.89998" lon="2.28355">
        <ele>22.7</ele>
        <time>2023-06-03T13:42:22Z</time>
      </trkpt>
      <trkpt lat="49.89999" lon="2.28357">
        <ele>22.7</ele>
        <time>2023-06-03T13:42:23Z</time>
      </trkpt>
      <trkpt lat="49.9" lon="2.28359">
        <ele>22.6</ele>
        <time>2023-06-03T13:42:24Z</time>
      </trkpt>
      <trkpt lat="49.9" lon="2.2836">
        <ele>22.6</ele>
        <time>2023-06-03T13:42:25Z</time>
      </trkpt>
      <trkpt lat="49.90001" lon="2.28362">
        <ele>22.6</ele>
        <time>2023-06-03T13:42:26Z</time>
      </trkpt>
      <trkpt lat="49.90001" lon="2.28362">
        <ele>22.6</ele>
        <time>2023-06-03T13:42:27Z</time>
      </trkpt>
      <trkpt lat="49.90001" lon="2.28363">
        <ele>22.6</ele>
        <time>2023-06-03T13:42:29Z</time>
      </trkpt>
      <trkpt lat="49.90002" lon="2.28363">
        <ele>22.6</ele>
        <time>2023-06-03T13:42:30Z</time>
      </trkpt>
      <trkpt lat="49.90004" lon="2.28364">
        <ele>22.6</ele>
        <time>2023-06-03T13:42:31Z</time>
      </trkpt>
      <trkpt lat="49.90005" lon="2.28364">
        <ele>22.6</ele>
        <time>2023-06-03T13:42:32Z</time>
      </trkpt>
      <trkpt lat="49.90006" lon="2.28364">
        <ele>22.6</ele>
        <time>2023-06-03T13:42:33Z</time>
      </trkpt>
      <trkpt lat="49.90006" lon="2.28364">
        <ele>22.6</ele>
        <time>2023-06-03T13:42:34Z</time>
      </trkpt>
      <trkpt lat="49.90007" lon="2.28364">
        <ele>22.6</ele>
        <time>2023-06-03T13:42:35Z</time>
      </trkpt>
      <trkpt lat="49.90008" lon="2.28363">
        <ele>22.6</ele>
        <time>2023-06-03T13:42:36Z</time>
      </trkpt>
      <trkpt lat="49.90009" lon="2.28362">
        <ele>22.6</ele>
        <time>2023-06-03T13:42:38Z</time>
      </trkpt>
      <trkpt lat="49.9001" lon="2.28362">
        <ele>22.6</ele>
        <time>2023-06-03T13:42:39Z</time>
      </trkpt>
      <trkpt lat="49.90011" lon="2.28361">
        <ele>22.7</ele>
        <time>2023-06-03T13:42:40Z</time>
      </trkpt>
      <trkpt lat="49.90013" lon="2.28361">
        <ele>22.7</ele>
        <time>2023-06-03T13:42:41Z</time>
      </trkpt>
      <trkpt lat="49.90014" lon="2.28361">
        <ele>22.7</ele>
        <time>2023-06-03T13:42:42Z</time>
      </trkpt>
      <trkpt lat="49.90015" lon="2.28361">
        <ele>22.7</ele>
        <time>2023-06-03T13:42:43Z</time>
      </trkpt>
      <trkpt lat="49.90016" lon="2.28361">
        <ele>22.7</ele>
        <time>2023-06-03T13:42:44Z</time>
      </trkpt>
      <trkpt lat="49.90018" lon="2.28361">
        <ele>22.7</ele>
        <time>2023-06-03T13:42:45Z</time>
      </trkpt>
      <trkpt lat="49.90019" lon="2.28361">
        <ele>22.7</ele>
        <time>2023-06-03T13:42:47Z</time>
      </trkpt>
      <trkpt lat="49.9002" lon="2.28361">
        <ele>22.7</ele>
        <time>2023-06-03T13:42:48Z</time>
      </trkpt>
      <trkpt lat="49.90021" lon="2.28362">
        <ele>22.7</ele>
        <time>2023-06-03T13:42:49Z</time>
      </trkpt>
      <trkpt lat="49.90023" lon="2.28362">
        <ele>22.7</ele>
        <time>2023-06-03T13:42:50Z</time>
      </trkpt>
      <trkpt lat="49.90025" lon="2.28363">
        <ele>22.7</ele>
        <time>2023-06-03T13:42:51Z</time>
      </trkpt>
      <trkpt lat="49.90026" lon="2.28363">
        <ele>22.7</ele>
        <time>2023-06-03T13:42:52Z</time>
      </trkpt>
      <trkpt lat="49.90028" lon="2.28364">
        <ele>22.7</ele>
        <time>2023-06-03T13:42:53Z</time>
      </trkpt>
      <trkpt lat="49.90029" lon="2.28364">
        <ele>22.7</ele>
        <time>2023-06-03T13:42:54Z</time>
      </trkpt>
      <trkpt lat="49.9003" lon="2.28364">
        <ele>22.7</ele>
        <time>2023-06-03T13:42:55Z</time>
      </trkpt>
      <trkpt lat="49.90032" lon="2.28364">
        <ele>22.7</ele>
        <time>2023-06-03T13:42:57Z</time>
      </trkpt>
      <trkpt lat="49.90034" lon="2.28365">
        <ele>22.7</ele>
        <time>2023-06-03T13:42:58Z</time>
      </trkpt>
      <trkpt lat="49.90035" lon="2.28365">
        <ele>22.7</ele>
        <time>2023-06-03T13:42:59Z</time>
      </trkpt>
      <trkpt lat="49.90036" lon="2.28365">
        <ele>22.7</ele>
        <time>2023-06-03T13:43:00Z</time>
      </trkpt>
      <trkpt lat="49.90038" lon="2.28365">
        <ele>22.7</ele>
        <time>2023-06-03T13:43:02Z</time>
      </trkpt>
      <trkpt lat="49.90039" lon="2.28366">
        <ele>22.7</ele>
        <time>2023-06-03T13:43:03Z</time>
      </trkpt>
      <trkpt lat="49.90041" lon="2.28366">
        <ele>22.7</ele>
        <time>2023-06-03T13:43:04Z</time>
      </trkpt>
      <trkpt lat="49.90042" lon="2.28367">
        <ele>22.7</ele>
        <time>2023-06-03T13:43:05Z</time>
      </trkpt>
      <trkpt lat="49.90043" lon="2.28367">
        <ele>22.7</ele>
        <time>2023-06-03T13:43:06Z</time>
      </trkpt>
      <trkpt lat="49.90044" lon="2.28368">
        <ele>22.7</ele>
        <time>2023-06-03T13:43:07Z</time>
      </trkpt>
      <trkpt lat="49.90045" lon="2.28368">
        <ele>22.7</ele>
        <time>2023-06-03T13:43:08Z</time>
      </trkpt>
      <trkpt lat="49.90047" lon="2.28368">
        <ele>22.7</ele>
        <time>2023-06-03T13:43:10Z</time>
      </trkpt>
      <trkpt lat="49.90048" lon="2.28369">
        <ele>22.7</ele>
        <time>2023-06-03T13:43:11Z</time>
      </trkpt>
      <trkpt lat="49.9005" lon="2.28369">
        <ele>22.7</ele>
        <time>2023-06-03T13:43:12Z</time>
      </trkpt>
      <trkpt lat="49.90051" lon="2.2837">
        <ele>22.7</ele>
        <time>2023-06-03T13:43:14Z</time>
      </trkpt>
      <trkpt lat="49.90053" lon="2.2837">
        <ele>22.7</ele>
        <time>2023-06-03T13:43:15Z</time>
      </trkpt>
      <trkpt lat="49.90054" lon="2.28371">
        <ele>22.7</ele>
        <time>2023-06-03T13:43:16Z</time>
      </trkpt>
      <trkpt lat="49.90055" lon="2.28371">
        <ele>22.7</ele>
        <time>2023-06-03T13:43:17Z</time>
      </trkpt>
      <trkpt lat="49.90057" lon="2.28372">
        <ele>22.7</ele>
        <time>2023-06-03T13:43:18Z</time>
      </trkpt>
      <trkpt lat="49.90058" lon="2.28372">
        <ele>22.7</ele>
        <time>2023-06-03T13:43:19Z</time>
      </trkpt>
      <trkpt lat="49.90059" lon="2.28372">
        <ele>22.7</ele>
        <time>2023-06-03T13:43:20Z</time>
      </trkpt>
      <trkpt lat="49.9006" lon="2.28373">
        <ele>22.7</ele>
        <time>2023-06-03T13:43:21Z</time>
      </trkpt>
      <trkpt lat="49.90062" lon="2.28374">
        <ele>22.7</ele>
        <time>2023-06-03T13:43:23Z</time>
      </trkpt>
      <trkpt lat="49.90063" lon="2.28374">
        <ele>22.7</ele>
        <time>2023-06-03T13:43:24Z</time>
      </trkpt>
      <trkpt lat="49.90064" lon="2.28375">
        <ele>22.7</ele>
        <time>2023-06-03T13:43:25Z</time>
      </trkpt>
      <trkpt lat="49.90066" lon="2.28375">
        <ele>22.7</ele>
        <time>2023-06-03T13:43:27Z</time>
      </trkpt>
      <trkpt lat="49.90068" lon="2.28376">
        <ele>22.7</ele>
        <time>2023-06-03T13:43:28Z</time>
      </trkpt>
      <trkpt lat="49.90069" lon="2.28377">
        <ele>22.8</ele>
        <time>2023-06-03T13:43:29Z</time>
      </trkpt>
      <trkpt lat="49.9007" lon="2.28377">
        <ele>22.8</ele>
        <time>2023-06-03T13:43:30Z</time>
      </trkpt>
      <trkpt lat="49.90071" lon="2.28377">
        <ele>22.8</ele>
        <time>2023-06-03T13:43:31Z</time>
      </trkpt>
      <trkpt lat="49.90072" lon="2.28378">
        <ele>22.8</ele>
        <time>2023-06-03T13:43:32Z</time>
      </trkpt>
      <trkpt lat="49.90073" lon="2.28378">
        <ele>22.8</ele>
        <time>2023-06-03T13:43:33Z</time>
      </trkpt>
      <trkpt lat="49.90074" lon="2.28379">
        <ele>22.8</ele>
        <time>2023-06-03T13:43:34Z</time>
      </trkpt>
      <trkpt lat="49.90075" lon="2.28379">
        <ele>22.8</ele>
        <time>2023-06-03T13:43:36Z</time>
      </trkpt>
      <trkpt lat="49.90077" lon="2.2838">
        <ele>22.7</ele>
        <time>2023-06-03T13:43:37Z</time>
      </trkpt>
      <trkpt lat="49.90078" lon="2.28381">
        <ele>22.7</ele>
        <time>2023-06-03T13:43:38Z</time>
      </trkpt>
      <trkpt lat="49.90079" lon="2.28381">
        <ele>22.7</ele>
        <time>2023-06-03T13:43:39Z</time>
      </trkpt>
      <trkpt lat="49.9008" lon="2.28382">
        <ele>22.7</ele>
        <time>2023-06-03T13:43:40Z</time>
      </trkpt>
      <trkpt lat="49.90081" lon="2.28382">
        <ele>22.7</ele>
        <time>2023-06-03T13:43:41Z</time>
      </trkpt>
      <trkpt lat="49.90082" lon="2.28382">
        <ele>22.7</ele>
        <time>2023-06-03T13:43:42Z</time>
      </trkpt>
      <trkpt lat="49.90082" lon="2.28382">
        <ele>22.7</ele>
        <time>2023-06-03T13:43:44Z</time>
      </trkpt>
      <trkpt lat="49.90084" lon="2.28383">
        <ele>22.7</ele>
        <time>2023-06-03T13:43:45Z</time>
      </trkpt>
      <trkpt lat="49.90085" lon="2.28383">
        <ele>22.7</ele>
        <time>2023-06-03T13:43:46Z</time>
      </trkpt>
      <trkpt lat="49.90086" lon="2.28384">
        <ele>22.7</ele>
        <time>2023-06-03T13:43:47Z</time>
      </trkpt>
      <trkpt lat="49.90087" lon="2.28384">
        <ele>22.7</ele>
        <time>2023-06-03T13:43:48Z</time>
      </trkpt>
      <trkpt lat="49.90089" lon="2.28385">
        <ele>22.7</ele>
        <time>2023-06-03T13:43:49Z</time>
      </trkpt>
      <trkpt lat="49.9009" lon="2.28385">
        <ele>22.7</ele>
        <time>2023-06-03T13:43:50Z</time>
      </trkpt>
      <trkpt lat="49.90093" lon="2.28386">
        <ele>22.7</ele>
        <time>2023-06-03T13:43:52Z</time>
      </trkpt>
      <trkpt lat="49.90094" lon="2.28386">
        <ele>22.7</ele>
        <time>2023-06-03T13:43:53Z</time>
      </trkpt>
      <trkpt lat="49.90095" lon="2.28387">
        <ele>22.7</ele>
        <time>2023-06-03T13:43:54Z</time>
      </trkpt>
      <trkpt lat="49.90097" lon="2.28388">
        <ele>22.7</ele>
        <time>2023-06-03T13:43:56Z</time>
      </trkpt>
      <trkpt lat="49.90099" lon="2.28389">
        <ele>22.6</ele>
        <time>2023-06-03T13:43:57Z</time>
      </trkpt>
      <trkpt lat="49.901" lon="2.28389">
        <ele>22.6</ele>
        <time>2023-06-03T13:43:58Z</time>
      </trkpt>
      <trkpt lat="49.90103" lon="2.2839">
        <ele>22.6</ele>
        <time>2023-06-03T13:44:00Z</time>
      </trkpt>
      <trkpt lat="49.90104" lon="2.2839">
        <ele>22.6</ele>
        <time>2023-06-03T13:44:01Z</time>
      </trkpt>
      <trkpt lat="49.90106" lon="2.28391">
        <ele>22.6</ele>
        <time>2023-06-03T13:44:02Z</time>
      </trkpt>
      <trkpt lat="49.90107" lon="2.28391">
        <ele>22.6</ele>
        <time>2023-06-03T13:44:04Z</time>
      </trkpt>
      <trkpt lat="49.90108" lon="2.28392">
        <ele>22.6</ele>
        <time>2023-06-03T13:44:05Z</time>
      </trkpt>
      <trkpt lat="49.90109" lon="2.28392">
        <ele>22.6</ele>
        <time>2023-06-03T13:44:06Z</time>
      </trkpt>
      <trkpt lat="49.90111" lon="2.28392">
        <ele>22.5</ele>
        <time>2023-06-03T13:44:07Z</time>
      </trkpt>
      <trkpt lat="49.90112" lon="2.28392">
        <ele>22.5</ele>
        <time>2023-06-03T13:44:08Z</time>
      </trkpt>
      <trkpt lat="49.90114" lon="2.28393">
        <ele>22.5</ele>
        <time>2023-06-03T13:44:09Z</time>
      </trkpt>
      <trkpt lat="49.90116" lon="2.28393">
        <ele>22.5</ele>
        <time>2023-06-03T13:44:10Z</time>
      </trkpt>
      <trkpt lat="49.90118" lon="2.28394">
        <ele>22.5</ele>
        <time>2023-06-03T13:44:12Z</time>
      </trkpt>
      <trkpt lat="49.90119" lon="2.28394">
        <ele>22.5</ele>
        <time>2023-06-03T13:44:13Z</time>
      </trkpt>
      <trkpt lat="49.9012" lon="2.28394">
        <ele>22.5</ele>
        <time>2023-06-03T13:44:14Z</time>
      </trkpt>
      <trkpt lat="49.90124" lon="2.28395">
        <ele>22.5</ele>
        <time>2023-06-03T13:44:16Z</time>
      </trkpt>
      <trkpt lat="49.90125" lon="2.28396">
        <ele>22.5</ele>
        <time>2023-06-03T13:44:17Z</time>
      </trkpt>
      <trkpt lat="49.90127" lon="2.28397">
        <ele>22.4</ele>
        <time>2023-06-03T13:44:18Z</time>
      </trkpt>
      <trkpt lat="49.90128" lon="2.28397">
        <ele>22.4</ele>
        <time>2023-06-03T13:44:20Z</time>
      </trkpt>
      <trkpt lat="49.90129" lon="2.28397">
        <ele>22.4</ele>
        <time>2023-06-03T13:44:21Z</time>
      </trkpt>
      <trkpt lat="49.90131" lon="2.28398">
        <ele>22.4</ele>
        <time>2023-06-03T13:44:22Z</time>
      </trkpt>
      <trkpt lat="49.90132" lon="2.28398">
        <ele>22.4</ele>
        <time>2023-06-03T13:44:23Z</time>
      </trkpt>
      <trkpt lat="49.90132" lon="2.28398">
        <ele>22.4</ele>
        <time>2023-06-03T13:44:24Z</time>
      </trkpt>
      <trkpt lat="49.90134" lon="2.28398">
        <ele>22.4</ele>
        <time>2023-06-03T13:44:25Z</time>
      </trkpt>
      <trkpt lat="49.90135" lon="2.28399">
        <ele>22.4</ele>
        <time>2023-06-03T13:44:26Z</time>
      </trkpt>
      <trkpt lat="49.90137" lon="2.28399">
        <ele>22.4</ele>
        <time>2023-06-03T13:44:27Z</time>
      </trkpt>
      <trkpt lat="49.90138" lon="2.28399">
        <ele>22.4</ele>
        <time>2023-06-03T13:44:29Z</time>
      </trkpt>
      <trkpt lat="49.90139" lon="2.28399">
        <ele>22.4</ele>
        <time>2023-06-03T13:44:30Z</time>
      </trkpt>
      <trkpt lat="49.9014" lon="2.284">
        <ele>22.4</ele>
        <time>2023-06-03T13:44:31Z</time>
      </trkpt>
      <trkpt lat="49.90141" lon="2.284">
        <ele>22.4</ele>
        <time>2023-06-03T13:44:32Z</time>
      </trkpt>
      <trkpt lat="49.90142" lon="2.28401">
        <ele>22.4</ele>
        <time>2023-06-03T13:44:33Z</time>
      </trkpt>
      <trkpt lat="49.90143" lon="2.28401">
        <ele>22.4</ele>
        <time>2023-06-03T13:44:34Z</time>
      </trkpt>
      <trkpt lat="49.90144" lon="2.28401">
        <ele>22.4</ele>
        <time>2023-06-03T13:44:36Z</time>
      </trkpt>
      <trkpt lat="49.90145" lon="2.28402">
        <ele>22.4</ele>
        <time>2023-06-03T13:44:37Z</time>
      </trkpt>
      <trkpt lat="49.90146" lon="2.28402">
        <ele>22.4</ele>
        <time>2023-06-03T13:44:38Z</time>
      </trkpt>
      <trkpt lat="49.90148" lon="2.28402">
        <ele>22.4</ele>
        <time>2023-06-03T13:44:39Z</time>
      </trkpt>
      <trkpt lat="49.90148" lon="2.28403">
        <ele>22.4</ele>
        <time>2023-06-03T13:44:40Z</time>
      </trkpt>
      <trkpt lat="49.90149" lon="2.28403">
        <ele>22.4</ele>
        <time>2023-06-03T13:44:41Z</time>
      </trkpt>
      <trkpt lat="49.9015" lon="2.28403">
        <ele>22.4</ele>
        <time>2023-06-03T13:44:42Z</time>
      </trkpt>
      <trkpt lat="49.90151" lon="2.28403">
        <ele>22.4</ele>
        <time>2023-06-03T13:44:43Z</time>
      </trkpt>
      <trkpt lat="49.90152" lon="2.28403">
        <ele>22.4</ele>
        <time>2023-06-03T13:44:45Z</time>
      </trkpt>
      <trkpt lat="49.90154" lon="2.28402">
        <ele>22.4</ele>
        <time>2023-06-03T13:44:46Z</time>
      </trkpt>
      <trkpt lat="49.90155" lon="2.28401">
        <ele>22.4</ele>
        <time>2023-06-03T13:44:47Z</time>
      </trkpt>
      <trkpt lat="49.90156" lon="2.28399">
        <ele>22.4</ele>
        <time>2023-06-03T13:44:49Z</time>
      </trkpt>
      <trkpt lat="49.90156" lon="2.28398">
        <ele>22.4</ele>
        <time>2023-06-03T13:44:50Z</time>
      </trkpt>
      <trkpt lat="49.90157" lon="2.28396">
        <ele>22.4</ele>
        <time>2023-06-03T13:44:51Z</time>
      </trkpt>
      <trkpt lat="49.90157" lon="2.28395">
        <ele>22.4</ele>
        <time>2023-06-03T13:44:52Z</time>
      </trkpt>
      <trkpt lat="49.90157" lon="2.28393">
        <ele>22.4</ele>
        <time>2023-06-03T13:44:53Z</time>
      </trkpt>
      <trkpt lat="49.90158" lon="2.28391">
        <ele>22.4</ele>
        <time>2023-06-03T13:44:54Z</time>
      </trkpt>
      <trkpt lat="49.90158" lon="2.2839">
        <ele>22.4</ele>
        <time>2023-06-03T13:44:55Z</time>
      </trkpt>
      <trkpt lat="49.90159" lon="2.28388">
        <ele>22.4</ele>
        <time>2023-06-03T13:44:57Z</time>
      </trkpt>
      <trkpt lat="49.90159" lon="2.28386">
        <ele>22.4</ele>
        <time>2023-06-03T13:44:58Z</time>
      </trkpt>
      <trkpt lat="49.90161" lon="2.28384">
        <ele>22.3</ele>
        <time>2023-06-03T13:44:59Z</time>
      </trkpt>
      <trkpt lat="49.90162" lon="2.28384">
        <ele>22.3</ele>
        <time>2023-06-03T13:45:00Z</time>
      </trkpt>
      <trkpt lat="49.90162" lon="2.28383">
        <ele>22.3</ele>
        <time>2023-06-03T13:45:01Z</time>
      </trkpt>
      <trkpt lat="49.90164" lon="2.28382">
        <ele>22.3</ele>
        <time>2023-06-03T13:45:02Z</time>
      </trkpt>
      <trkpt lat="49.90165" lon="2.28382">
        <ele>22.3</ele>
        <time>2023-06-03T13:45:03Z</time>
      </trkpt>
      <trkpt lat="49.90168" lon="2.28383">
        <ele>22.3</ele>
        <time>2023-06-03T13:45:05Z</time>
      </trkpt>
      <trkpt lat="49.90169" lon="2.28384">
        <ele>22.3</ele>
        <time>2023-06-03T13:45:06Z</time>
      </trkpt>
      <trkpt lat="49.90171" lon="2.28386">
        <ele>22.3</ele>
        <time>2023-06-03T13:45:07Z</time>
      </trkpt>
      <trkpt lat="49.90173" lon="2.28388">
        <ele>22.3</ele>
        <time>2023-06-03T13:45:09Z</time>
      </trkpt>
      <trkpt lat="49.90175" lon="2.28389">
        <ele>22.3</ele>
        <time>2023-06-03T13:45:10Z</time>
      </trkpt>
      <trkpt lat="49.90177" lon="2.28391">
        <ele>22.3</ele>
        <time>2023-06-03T13:45:11Z</time>
      </trkpt>
      <trkpt lat="49.90178" lon="2.28393">
        <ele>22.3</ele>
        <time>2023-06-03T13:45:13Z</time>
      </trkpt>
      <trkpt lat="49.90179" lon="2.28394">
        <ele>22.3</ele>
        <time>2023-06-03T13:45:14Z</time>
      </trkpt>
      <trkpt lat="49.9018" lon="2.28395">
        <ele>22.3</ele>
        <time>2023-06-03T13:45:15Z</time>
      </trkpt>
      <trkpt lat="49.90181" lon="2.28397">
        <ele>22.3</ele>
        <time>2023-06-03T13:45:16Z</time>
      </trkpt>
      <trkpt lat="49.90182" lon="2.28398">
        <ele>22.3</ele>
        <time>2023-06-03T13:45:17Z</time>
      </trkpt>
      <trkpt lat="49.90183" lon="2.284">
        <ele>22.3</ele>
        <time>2023-06-03T13:45:19Z</time>
      </trkpt>
      <trkpt lat="49.90184" lon="2.28401">
        <ele>22.3</ele>
        <time>2023-06-03T13:45:20Z</time>
      </trkpt>
      <trkpt lat="49.90185" lon="2.28401">
        <ele>22.3</ele>
        <time>2023-06-03T13:45:21Z</time>
      </trkpt>
      <trkpt lat="49.90186" lon="2.28402">
        <ele>22.4</ele>
        <time>2023-06-03T13:45:22Z</time>
      </trkpt>
      <trkpt lat="49.90188" lon="2.28403">
        <ele>22.4</ele>
        <time>2023-06-03T13:45:24Z</time>
      </trkpt>
      <trkpt lat="49.90189" lon="2.28403">
        <ele>22.4</ele>
        <time>2023-06-03T13:45:25Z</time>
      </trkpt>
      <trkpt lat="49.90191" lon="2.28404">
        <ele>22.4</ele>
        <time>2023-06-03T13:45:26Z</time>
      </trkpt>
      <trkpt lat="49.90193" lon="2.28404">
        <ele>22.4</ele>
        <time>2023-06-03T13:45:28Z</time>
      </trkpt>
      <trkpt lat="49.90195" lon="2.28404">
        <ele>22.4</ele>
        <time>2023-06-03T13:45:29Z</time>
      </trkpt>
      <trkpt lat="49.90196" lon="2.28405">
        <ele>22.4</ele>
        <time>2023-06-03T13:45:30Z</time>
      </trkpt>
      <trkpt lat="49.90198" lon="2.28405">
        <ele>22.4</ele>
        <time>2023-06-03T13:45:31Z</time>
      </trkpt>
      <trkpt lat="49.90199" lon="2.28405">
        <ele>22.4</ele>
        <time>2023-06-03T13:45:32Z</time>
      </trkpt>
      <trkpt lat="49.902" lon="2.28405">
        <ele>22.4</ele>
        <time>2023-06-03T13:45:33Z</time>
      </trkpt>
      <trkpt lat="49.90202" lon="2.28406">
        <ele>22.4</ele>
        <time>2023-06-03T13:45:34Z</time>
      </trkpt>
      <trkpt lat="49.90203" lon="2.28407">
        <ele>22.4</ele>
        <time>2023-06-03T13:45:36Z</time>
      </trkpt>
      <trkpt lat="49.90204" lon="2.28407">
        <ele>22.4</ele>
        <time>2023-06-03T13:45:37Z</time>
      </trkpt>
      <trkpt lat="49.90206" lon="2.28408">
        <ele>22.4</ele>
        <time>2023-06-03T13:45:38Z</time>
      </trkpt>
      <trkpt lat="49.90208" lon="2.28409">
        <ele>22.4</ele>
        <time>2023-06-03T13:45:40Z</time>
      </trkpt>
      <trkpt lat="49.90208" lon="2.2841">
        <ele>22.4</ele>
        <time>2023-06-03T13:45:41Z</time>
      </trkpt>
      <trkpt lat="49.9021" lon="2.28411">
        <ele>22.4</ele>
        <time>2023-06-03T13:45:42Z</time>
      </trkpt>
      <trkpt lat="49.9021" lon="2.28412">
        <ele>22.4</ele>
        <time>2023-06-03T13:45:43Z</time>
      </trkpt>
      <trkpt lat="49.90212" lon="2.28414">
        <ele>22.4</ele>
        <time>2023-06-03T13:45:44Z</time>
      </trkpt>
      <trkpt lat="49.90212" lon="2.28415">
        <ele>22.4</ele>
        <time>2023-06-03T13:45:45Z</time>
      </trkpt>
      <trkpt lat="49.90213" lon="2.28416">
        <ele>22.5</ele>
        <time>2023-06-03T13:45:46Z</time>
      </trkpt>
      <trkpt lat="49.90214" lon="2.28419">
        <ele>22.5</ele>
        <time>2023-06-03T13:45:47Z</time>
      </trkpt>
      <trkpt lat="49.90215" lon="2.2842">
        <ele>22.5</ele>
        <time>2023-06-03T13:45:49Z</time>
      </trkpt>
      <trkpt lat="49.90216" lon="2.28421">
        <ele>22.5</ele>
        <time>2023-06-03T13:45:50Z</time>
      </trkpt>
      <trkpt lat="49.90216" lon="2.28423">
        <ele>22.5</ele>
        <time>2023-06-03T13:45:51Z</time>
      </trkpt>
      <trkpt lat="49.90217" lon="2.28424">
        <ele>22.5</ele>
        <time>2023-06-03T13:45:52Z</time>
      </trkpt>
      <trkpt lat="49.90218" lon="2.28426">
        <ele>22.5</ele>
        <time>2023-06-03T13:45:53Z</time>
      </trkpt>
      <trkpt lat="49.90219" lon="2.28427">
        <ele>22.5</ele>
        <time>2023-06-03T13:45:54Z</time>
      </trkpt>
      <trkpt lat="49.9022" lon="2.28428">
        <ele>22.5</ele>
        <time>2023-06-03T13:45:55Z</time>
      </trkpt>
      <trkpt lat="49.90221" lon="2.2843">
        <ele>22.5</ele>
        <time>2023-06-03T13:45:56Z</time>
      </trkpt>
      <trkpt lat="49.90222" lon="2.28432">
        <ele>22.5</ele>
        <time>2023-06-03T13:45:57Z</time>
      </trkpt>
      <trkpt lat="49.90223" lon="2.28434">
        <ele>22.5</ele>
        <time>2023-06-03T13:45:58Z</time>
      </trkpt>
      <trkpt lat="49.90224" lon="2.28436">
        <ele>22.5</ele>
        <time>2023-06-03T13:46:00Z</time>
      </trkpt>
      <trkpt lat="49.90225" lon="2.28437">
        <ele>22.6</ele>
        <time>2023-06-03T13:46:01Z</time>
      </trkpt>
      <trkpt lat="49.90226" lon="2.28438">
        <ele>22.6</ele>
        <time>2023-06-03T13:46:02Z</time>
      </trkpt>
      <trkpt lat="49.90227" lon="2.28439">
        <ele>22.6</ele>
        <time>2023-06-03T13:46:03Z</time>
      </trkpt>
      <trkpt lat="49.90228" lon="2.28441">
        <ele>22.6</ele>
        <time>2023-06-03T13:46:04Z</time>
      </trkpt>
      <trkpt lat="49.90229" lon="2.28443">
        <ele>22.6</ele>
        <time>2023-06-03T13:46:05Z</time>
      </trkpt>
      <trkpt lat="49.90229" lon="2.28444">
        <ele>22.6</ele>
        <time>2023-06-03T13:46:06Z</time>
      </trkpt>
      <trkpt lat="49.9023" lon="2.28445">
        <ele>22.6</ele>
        <time>2023-06-03T13:46:07Z</time>
      </trkpt>
      <trkpt lat="49.9023" lon="2.28447">
        <ele>22.6</ele>
        <time>2023-06-03T13:46:08Z</time>
      </trkpt>
      <trkpt lat="49.90232" lon="2.28449">
        <ele>22.6</ele>
        <time>2023-06-03T13:46:10Z</time>
      </trkpt>
      <trkpt lat="49.90233" lon="2.28451">
        <ele>22.6</ele>
        <time>2023-06-03T13:46:11Z</time>
      </trkpt>
      <trkpt lat="49.90234" lon="2.28454">
        <ele>22.6</ele>
        <time>2023-06-03T13:46:12Z</time>
      </trkpt>
      <trkpt lat="49.90235" lon="2.28455">
        <ele>22.6</ele>
        <time>2023-06-03T13:46:13Z</time>
      </trkpt>
      <trkpt lat="49.90235" lon="2.28456">
        <ele>22.6</ele>
        <time>2023-06-03T13:46:14Z</time>
      </trkpt>
      <trkpt lat="49.90236" lon="2.28458">
        <ele>22.6</ele>
        <time>2023-06-03T13:46:16Z</time>
      </trkpt>
      <trkpt lat="49.90237" lon="2.28458">
        <ele>22.7</ele>
        <time>2023-06-03T13:46:17Z</time>
      </trkpt>
      <trkpt lat="49.90238" lon="2.28459">
        <ele>22.7</ele>
        <time>2023-06-03T13:46:18Z</time>
      </trkpt>
      <trkpt lat="49.90238" lon="2.28461">
        <ele>22.7</ele>
        <time>2023-06-03T13:46:19Z</time>
      </trkpt>
      <trkpt lat="49.9024" lon="2.28464">
        <ele>22.7</ele>
        <time>2023-06-03T13:46:20Z</time>
      </trkpt>
      <trkpt lat="49.9024" lon="2.28465">
        <ele>22.7</ele>
        <time>2023-06-03T13:46:21Z</time>
      </trkpt>
      <trkpt lat="49.90241" lon="2.28467">
        <ele>22.7</ele>
        <time>2023-06-03T13:46:22Z</time>
      </trkpt>
      <trkpt lat="49.90241" lon="2.28468">
        <ele>22.7</ele>
        <time>2023-06-03T13:46:23Z</time>
      </trkpt>
      <trkpt lat="49.90242" lon="2.28471">
        <ele>22.7</ele>
        <time>2023-06-03T13:46:24Z</time>
      </trkpt>
      <trkpt lat="49.90243" lon="2.28472">
        <ele>22.7</ele>
        <time>2023-06-03T13:46:26Z</time>
      </trkpt>
      <trkpt lat="49.90243" lon="2.28473">
        <ele>22.7</ele>
        <time>2023-06-03T13:46:27Z</time>
      </trkpt>
      <trkpt lat="49.90244" lon="2.28476">
        <ele>22.7</ele>
        <time>2023-06-03T13:46:28Z</time>
      </trkpt>
      <trkpt lat="49.90245" lon="2.28477">
        <ele>22.7</ele>
        <time>2023-06-03T13:46:29Z</time>
      </trkpt>
      <trkpt lat="49.90246" lon="2.2848">
        <ele>22.8</ele>
        <time>2023-06-03T13:46:30Z</time>
      </trkpt>
      <trkpt lat="49.90247" lon="2.28481">
        <ele>22.8</ele>
        <time>2023-06-03T13:46:32Z</time>
      </trkpt>
      <trkpt lat="49.90248" lon="2.28482">
        <ele>22.8</ele>
        <time>2023-06-03T13:46:33Z</time>
      </trkpt>
      <trkpt lat="49.90248" lon="2.28483">
        <ele>22.8</ele>
        <time>2023-06-03T13:46:34Z</time>
      </trkpt>
      <trkpt lat="49.90249" lon="2.28484">
        <ele>22.8</ele>
        <time>2023-06-03T13:46:35Z</time>
      </trkpt>
      <trkpt lat="49.9025" lon="2.28485">
        <ele>22.8</ele>
        <time>2023-06-03T13:46:36Z</time>
      </trkpt>
      <trkpt lat="49.90251" lon="2.28487">
        <ele>22.8</ele>
        <time>2023-06-03T13:46:37Z</time>
      </trkpt>
      <trkpt lat="49.90253" lon="2.28487">
        <ele>22.8</ele>
        <time>2023-06-03T13:46:38Z</time>
      </trkpt>
      <trkpt lat="49.90253" lon="2.28488">
        <ele>22.8</ele>
        <time>2023-06-03T13:46:40Z</time>
      </trkpt>
      <trkpt lat="49.90254" lon="2.28489">
        <ele>22.9</ele>
        <time>2023-06-03T13:46:41Z</time>
      </trkpt>
      <trkpt lat="49.90255" lon="2.28491">
        <ele>22.9</ele>
        <time>2023-06-03T13:46:42Z</time>
      </trkpt>
      <trkpt lat="49.90257" lon="2.28493">
        <ele>22.9</ele>
        <time>2023-06-03T13:46:44Z</time>
      </trkpt>
      <trkpt lat="49.90258" lon="2.28495">
        <ele>22.9</ele>
        <time>2023-06-03T13:46:45Z</time>
      </trkpt>
      <trkpt lat="49.90259" lon="2.28496">
        <ele>22.9</ele>
        <time>2023-06-03T13:46:46Z</time>
      </trkpt>
      <trkpt lat="49.9026" lon="2.28498">
        <ele>22.9</ele>
        <time>2023-06-03T13:46:47Z</time>
      </trkpt>
      <trkpt lat="49.90262" lon="2.28499">
        <ele>22.9</ele>
        <time>2023-06-03T13:46:48Z</time>
      </trkpt>
      <trkpt lat="49.90262" lon="2.285">
        <ele>22.9</ele>
        <time>2023-06-03T13:46:49Z</time>
      </trkpt>
      <trkpt lat="49.90263" lon="2.28501">
        <ele>23</ele>
        <time>2023-06-03T13:46:50Z</time>
      </trkpt>
      <trkpt lat="49.90264" lon="2.28503">
        <ele>23</ele>
        <time>2023-06-03T13:46:52Z</time>
      </trkpt>
      <trkpt lat="49.90265" lon="2.28505">
        <ele>23</ele>
        <time>2023-06-03T13:46:53Z</time>
      </trkpt>
      <trkpt lat="49.90267" lon="2.28506">
        <ele>23</ele>
        <time>2023-06-03T13:46:54Z</time>
      </trkpt>
      <trkpt lat="49.90268" lon="2.28508">
        <ele>23</ele>
        <time>2023-06-03T13:46:55Z</time>
      </trkpt>
      <trkpt lat="49.90269" lon="2.2851">
        <ele>23</ele>
        <time>2023-06-03T13:46:56Z</time>
      </trkpt>
      <trkpt lat="49.9027" lon="2.2851">
        <ele>23</ele>
        <time>2023-06-03T13:46:57Z</time>
      </trkpt>
      <trkpt lat="49.90271" lon="2.28511">
        <ele>23</ele>
        <time>2023-06-03T13:46:58Z</time>
      </trkpt>
      <trkpt lat="49.90273" lon="2.28514">
        <ele>23</ele>
        <time>2023-06-03T13:46:59Z</time>
      </trkpt>
      <trkpt lat="49.90274" lon="2.28515">
        <ele>23.1</ele>
        <time>2023-06-03T13:47:01Z</time>
      </trkpt>
      <trkpt lat="49.90275" lon="2.28516">
        <ele>23.1</ele>
        <time>2023-06-03T13:47:02Z</time>
      </trkpt>
      <trkpt lat="49.90275" lon="2.28518">
        <ele>23.1</ele>
        <time>2023-06-03T13:47:04Z</time>
      </trkpt>
      <trkpt lat="49.90276" lon="2.28519">
        <ele>23.1</ele>
        <time>2023-06-03T13:47:05Z</time>
      </trkpt>
      <trkpt lat="49.90277" lon="2.2852">
        <ele>23.1</ele>
        <time>2023-06-03T13:47:06Z</time>
      </trkpt>
      <trkpt lat="49.90279" lon="2.28522">
        <ele>23.1</ele>
        <time>2023-06-03T13:47:08Z</time>
      </trkpt>
      <trkpt lat="49.9028" lon="2.28523">
        <ele>23.1</ele>
        <time>2023-06-03T13:47:09Z</time>
      </trkpt>
      <trkpt lat="49.90281" lon="2.28525">
        <ele>23.1</ele>
        <time>2023-06-03T13:47:10Z</time>
      </trkpt>
      <trkpt lat="49.90283" lon="2.28526">
        <ele>23.1</ele>
        <time>2023-06-03T13:47:11Z</time>
      </trkpt>
      <trkpt lat="49.90283" lon="2.28527">
        <ele>23.1</ele>
        <time>2023-06-03T13:47:12Z</time>
      </trkpt>
      <trkpt lat="49.90284" lon="2.28528">
        <ele>23.1</ele>
        <time>2023-06-03T13:47:13Z</time>
      </trkpt>
      <trkpt lat="49.90285" lon="2.28529">
        <ele>23.1</ele>
        <time>2023-06-03T13:47:14Z</time>
      </trkpt>
      <trkpt lat="49.90287" lon="2.2853">
        <ele>23.2</ele>
        <time>2023-06-03T13:47:16Z</time>
      </trkpt>
      <trkpt lat="49.90287" lon="2.28531">
        <ele>23.2</ele>
        <time>2023-06-03T13:47:17Z</time>
      </trkpt>
      <trkpt lat="49.90289" lon="2.28532">
        <ele>23.2</ele>
        <time>2023-06-03T13:47:19Z</time>
      </trkpt>
      <trkpt lat="49.90289" lon="2.28533">
        <ele>23.2</ele>
        <time>2023-06-03T13:47:20Z</time>
      </trkpt>
      <trkpt lat="49.90291" lon="2.28534">
        <ele>23.2</ele>
        <time>2023-06-03T13:47:21Z</time>
      </trkpt>
      <trkpt lat="49.90291" lon="2.28535">
        <ele>23.2</ele>
        <time>2023-06-03T13:47:23Z</time>
      </trkpt>
      <trkpt lat="49.90292" lon="2.28536">
        <ele>23.2</ele>
        <time>2023-06-03T13:47:24Z</time>
      </trkpt>
      <trkpt lat="49.90293" lon="2.28537">
        <ele>23.2</ele>
        <time>2023-06-03T13:47:25Z</time>
      </trkpt>
      <trkpt lat="49.90294" lon="2.2854">
        <ele>23.2</ele>
        <time>2023-06-03T13:47:26Z</time>
      </trkpt>
      <trkpt lat="49.90294" lon="2.2854">
        <ele>23.2</ele>
        <time>2023-06-03T13:47:27Z</time>
      </trkpt>
      <trkpt lat="49.90295" lon="2.28542">
        <ele>23.2</ele>
        <time>2023-06-03T13:47:28Z</time>
      </trkpt>
      <trkpt lat="49.90295" lon="2.28544">
        <ele>23.2</ele>
        <time>2023-06-03T13:47:29Z</time>
      </trkpt>
      <trkpt lat="49.90295" lon="2.28545">
        <ele>23.2</ele>
        <time>2023-06-03T13:47:30Z</time>
      </trkpt>
      <trkpt lat="49.90296" lon="2.28546">
        <ele>23.2</ele>
        <time>2023-06-03T13:47:31Z</time>
      </trkpt>
      <trkpt lat="49.90297" lon="2.28549">
        <ele>23.2</ele>
        <time>2023-06-03T13:47:33Z</time>
      </trkpt>
      <trkpt lat="49.90298" lon="2.28551">
        <ele>23.2</ele>
        <time>2023-06-03T13:47:34Z</time>
      </trkpt>
      <trkpt lat="49.90299" lon="2.28553">
        <ele>23.2</ele>
        <time>2023-06-03T13:47:35Z</time>
      </trkpt>
      <trkpt lat="49.903" lon="2.28555">
        <ele>23.3</ele>
        <time>2023-06-03T13:47:37Z</time>
      </trkpt>
      <trkpt lat="49.90301" lon="2.28557">
        <ele>23.3</ele>
        <time>2023-06-03T13:47:38Z</time>
      </trkpt>
      <trkpt lat="49.90301" lon="2.28559">
        <ele>23.3</ele>
        <time>2023-06-03T13:47:39Z</time>
      </trkpt>
      <trkpt lat="49.90302" lon="2.28561">
        <ele>23.3</ele>
        <time>2023-06-03T13:47:40Z</time>
      </trkpt>
      <trkpt lat="49.90303" lon="2.28564">
        <ele>23.3</ele>
        <time>2023-06-03T13:47:41Z</time>
      </trkpt>
      <trkpt lat="49.90304" lon="2.28565">
        <ele>23.3</ele>
        <time>2023-06-03T13:47:42Z</time>
      </trkpt>
      <trkpt lat="49.90305" lon="2.28568">
        <ele>23.3</ele>
        <time>2023-06-03T13:47:43Z</time>
      </trkpt>
      <trkpt lat="49.90306" lon="2.2857">
        <ele>23.3</ele>
        <time>2023-06-03T13:47:45Z</time>
      </trkpt>
      <trkpt lat="49.90306" lon="2.28572">
        <ele>23.3</ele>
        <time>2023-06-03T13:47:46Z</time>
      </trkpt>
      <trkpt lat="49.90307" lon="2.28573">
        <ele>23.3</ele>
        <time>2023-06-03T13:47:47Z</time>
      </trkpt>
      <trkpt lat="49.90308" lon="2.28574">
        <ele>23.3</ele>
        <time>2023-06-03T13:47:49Z</time>
      </trkpt>
      <trkpt lat="49.90309" lon="2.28575">
        <ele>23.3</ele>
        <time>2023-06-03T13:47:50Z</time>
      </trkpt>
      <trkpt lat="49.90308" lon="2.28576">
        <ele>23.3</ele>
        <time>2023-06-03T13:47:52Z</time>
      </trkpt>
      <trkpt lat="49.90308" lon="2.28576">
        <ele>23.3</ele>
        <time>2023-06-03T13:47:53Z</time>
      </trkpt>
      <trkpt lat="49.90308" lon="2.28577">
        <ele>23.3</ele>
        <time>2023-06-03T13:47:54Z</time>
      </trkpt>
      <trkpt lat="49.90307" lon="2.28578">
        <ele>23.3</ele>
        <time>2023-06-03T13:47:55Z</time>
      </trkpt>
      <trkpt lat="49.90307" lon="2.28579">
        <ele>23.3</ele>
        <time>2023-06-03T13:47:56Z</time>
      </trkpt>
      <trkpt lat="49.90306" lon="2.2858">
        <ele>23.3</ele>
        <time>2023-06-03T13:47:57Z</time>
      </trkpt>
      <trkpt lat="49.90304" lon="2.28581">
        <ele>23.3</ele>
        <time>2023-06-03T13:47:58Z</time>
      </trkpt>
      <trkpt lat="49.90301" lon="2.28582">
        <ele>23.3</ele>
        <time>2023-06-03T13:48:00Z</time>
      </trkpt>
      <trkpt lat="49.903" lon="2.28583">
        <ele>23.3</ele>
        <time>2023-06-03T13:48:01Z</time>
      </trkpt>
      <trkpt lat="49.90298" lon="2.28586">
        <ele>23.4</ele>
        <time>2023-06-03T13:48:02Z</time>
      </trkpt>
      <trkpt lat="49.90297" lon="2.28587">
        <ele>23.4</ele>
        <time>2023-06-03T13:48:03Z</time>
      </trkpt>
      <trkpt lat="49.90296" lon="2.28589">
        <ele>23.4</ele>
        <time>2023-06-03T13:48:04Z</time>
      </trkpt>
      <trkpt lat="49.90296" lon="2.28591">
        <ele>23.4</ele>
        <time>2023-06-03T13:48:05Z</time>
      </trkpt>
      <trkpt lat="49.90297" lon="2.28593">
        <ele>23.4</ele>
        <time>2023-06-03T13:48:07Z</time>
      </trkpt>
      <trkpt lat="49.90298" lon="2.28596">
        <ele>23.4</ele>
        <time>2023-06-03T13:48:08Z</time>
      </trkpt>
      <trkpt lat="49.90298" lon="2.28597">
        <ele>23.4</ele>
        <time>2023-06-03T13:48:09Z</time>
      </trkpt>
      <trkpt lat="49.90299" lon="2.28598">
        <ele>23.5</ele>
        <time>2023-06-03T13:48:10Z</time>
      </trkpt>
      <trkpt lat="49.903" lon="2.28599">
        <ele>23.5</ele>
        <time>2023-06-03T13:48:11Z</time>
      </trkpt>
      <trkpt lat="49.903" lon="2.286">
        <ele>23.5</ele>
        <time>2023-06-03T13:48:12Z</time>
      </trkpt>
      <trkpt lat="49.90301" lon="2.286">
        <ele>23.5</ele>
        <time>2023-06-03T13:48:13Z</time>
      </trkpt>
      <trkpt lat="49.90302" lon="2.28602">
        <ele>23.5</ele>
        <time>2023-06-03T13:48:14Z</time>
      </trkpt>
      <trkpt lat="49.90302" lon="2.28604">
        <ele>23.5</ele>
        <time>2023-06-03T13:48:15Z</time>
      </trkpt>
      <trkpt lat="49.90302" lon="2.28605">
        <ele>23.5</ele>
        <time>2023-06-03T13:48:16Z</time>
      </trkpt>
      <trkpt lat="49.90303" lon="2.28608">
        <ele>23.5</ele>
        <time>2023-06-03T13:48:18Z</time>
      </trkpt>
      <trkpt lat="49.90304" lon="2.28609">
        <ele>23.6</ele>
        <time>2023-06-03T13:48:19Z</time>
      </trkpt>
      <trkpt lat="49.90305" lon="2.28612">
        <ele>23.6</ele>
        <time>2023-06-03T13:48:20Z</time>
      </trkpt>
      <trkpt lat="49.90305" lon="2.28613">
        <ele>23.6</ele>
        <time>2023-06-03T13:48:22Z</time>
      </trkpt>
      <trkpt lat="49.90306" lon="2.28614">
        <ele>23.6</ele>
        <time>2023-06-03T13:48:23Z</time>
      </trkpt>
      <trkpt lat="49.90307" lon="2.28617">
        <ele>23.6</ele>
        <time>2023-06-03T13:48:24Z</time>
      </trkpt>
      <trkpt lat="49.90307" lon="2.28619">
        <ele>23.6</ele>
        <time>2023-06-03T13:48:25Z</time>
      </trkpt>
      <trkpt lat="49.90307" lon="2.2862">
        <ele>23.6</ele>
        <time>2023-06-03T13:48:26Z</time>
      </trkpt>
      <trkpt lat="49.90308" lon="2.28622">
        <ele>23.7</ele>
        <time>2023-06-03T13:48:27Z</time>
      </trkpt>
      <trkpt lat="49.90309" lon="2.28625">
        <ele>23.7</ele>
        <time>2023-06-03T13:48:28Z</time>
      </trkpt>
      <trkpt lat="49.90309" lon="2.28627">
        <ele>23.7</ele>
        <time>2023-06-03T13:48:29Z</time>
      </trkpt>
      <trkpt lat="49.9031" lon="2.28629">
        <ele>23.7</ele>
        <time>2023-06-03T13:48:31Z</time>
      </trkpt>
      <trkpt lat="49.90311" lon="2.28631">
        <ele>23.7</ele>
        <time>2023-06-03T13:48:32Z</time>
      </trkpt>
      <trkpt lat="49.90312" lon="2.28633">
        <ele>23.8</ele>
        <time>2023-06-03T13:48:33Z</time>
      </trkpt>
      <trkpt lat="49.90313" lon="2.28635">
        <ele>23.8</ele>
        <time>2023-06-03T13:48:34Z</time>
      </trkpt>
      <trkpt lat="49.90313" lon="2.28636">
        <ele>23.8</ele>
        <time>2023-06-03T13:48:35Z</time>
      </trkpt>
      <trkpt lat="49.90314" lon="2.28637">
        <ele>23.8</ele>
        <time>2023-06-03T13:48:36Z</time>
      </trkpt>
      <trkpt lat="49.90315" lon="2.2864">
        <ele>23.8</ele>
        <time>2023-06-03T13:48:37Z</time>
      </trkpt>
      <trkpt lat="49.90316" lon="2.28641">
        <ele>23.9</ele>
        <time>2023-06-03T13:48:38Z</time>
      </trkpt>
      <trkpt lat="49.90316" lon="2.28642">
        <ele>23.9</ele>
        <time>2023-06-03T13:48:39Z</time>
      </trkpt>
      <trkpt lat="49.90317" lon="2.28644">
        <ele>23.9</ele>
        <time>2023-06-03T13:48:40Z</time>
      </trkpt>
      <trkpt lat="49.90318" lon="2.28647">
        <ele>23.9</ele>
        <time>2023-06-03T13:48:42Z</time>
      </trkpt>
      <trkpt lat="49.90318" lon="2.2865">
        <ele>23.9</ele>
        <time>2023-06-03T13:48:43Z</time>
      </trkpt>
      <trkpt lat="49.90319" lon="2.28651">
        <ele>24</ele>
        <time>2023-06-03T13:48:45Z</time>
      </trkpt>
      <trkpt lat="49.9032" lon="2.28653">
        <ele>24</ele>
        <time>2023-06-03T13:48:46Z</time>
      </trkpt>
      <trkpt lat="49.90321" lon="2.28655">
        <ele>24</ele>
        <time>2023-06-03T13:48:47Z</time>
      </trkpt>
      <trkpt lat="49.90322" lon="2.28657">
        <ele>24</ele>
        <time>2023-06-03T13:48:48Z</time>
      </trkpt>
      <trkpt lat="49.90323" lon="2.28658">
        <ele>24</ele>
        <time>2023-06-03T13:48:49Z</time>
      </trkpt>
      <trkpt lat="49.90323" lon="2.2866">
        <ele>24</ele>
        <time>2023-06-03T13:48:50Z</time>
      </trkpt>
      <trkpt lat="49.90324" lon="2.28661">
        <ele>24</ele>
        <time>2023-06-03T13:48:51Z</time>
      </trkpt>
      <trkpt lat="49.90324" lon="2.28662">
        <ele>24.1</ele>
        <time>2023-06-03T13:48:52Z</time>
      </trkpt>
      <trkpt lat="49.90325" lon="2.28663">
        <ele>24.1</ele>
        <time>2023-06-03T13:48:54Z</time>
      </trkpt>
      <trkpt lat="49.90326" lon="2.28665">
        <ele>24.1</ele>
        <time>2023-06-03T13:48:55Z</time>
      </trkpt>
      <trkpt lat="49.90326" lon="2.28666">
        <ele>24.1</ele>
        <time>2023-06-03T13:48:56Z</time>
      </trkpt>
      <trkpt lat="49.90327" lon="2.28667">
        <ele>24.1</ele>
        <time>2023-06-03T13:48:57Z</time>
      </trkpt>
      <trkpt lat="49.90328" lon="2.28668">
        <ele>24.1</ele>
        <time>2023-06-03T13:48:58Z</time>
      </trkpt>
      <trkpt lat="49.90329" lon="2.28669">
        <ele>24.1</ele>
        <time>2023-06-03T13:48:59Z</time>
      </trkpt>
      <trkpt lat="49.9033" lon="2.28671">
        <ele>24.1</ele>
        <time>2023-06-03T13:49:00Z</time>
      </trkpt>
      <trkpt lat="49.9033" lon="2.28672">
        <ele>24.1</ele>
        <time>2023-06-03T13:49:01Z</time>
      </trkpt>
      <trkpt lat="49.90331" lon="2.28673">
        <ele>24.1</ele>
        <time>2023-06-03T13:49:03Z</time>
      </trkpt>
      <trkpt lat="49.90331" lon="2.28674">
        <ele>24.1</ele>
        <time>2023-06-03T13:49:04Z</time>
      </trkpt>
      <trkpt lat="49.90332" lon="2.28676">
        <ele>24.1</ele>
        <time>2023-06-03T13:49:05Z</time>
      </trkpt>
      <trkpt lat="49.90333" lon="2.28677">
        <ele>24.1</ele>
        <time>2023-06-03T13:49:06Z</time>
      </trkpt>
      <trkpt lat="49.90333" lon="2.28678">
        <ele>24.1</ele>
        <time>2023-06-03T13:49:07Z</time>
      </trkpt>
      <trkpt lat="49.90333" lon="2.28679">
        <ele>24.1</ele>
        <time>2023-06-03T13:49:08Z</time>
      </trkpt>
      <trkpt lat="49.90334" lon="2.28681">
        <ele>24.1</ele>
        <time>2023-06-03T13:49:09Z</time>
      </trkpt>
      <trkpt lat="49.90335" lon="2.28682">
        <ele>24.1</ele>
        <time>2023-06-03T13:49:11Z</time>
      </trkpt>
      <trkpt lat="49.90335" lon="2.28684">
        <ele>24.1</ele>
        <time>2023-06-03T13:49:12Z</time>
      </trkpt>
      <trkpt lat="49.90336" lon="2.28685">
        <ele>24.1</ele>
        <time>2023-06-03T13:49:13Z</time>
      </trkpt>
      <trkpt lat="49.90336" lon="2.28688">
        <ele>24.1</ele>
        <time>2023-06-03T13:49:15Z</time>
      </trkpt>
      <trkpt lat="49.90337" lon="2.2869">
        <ele>24.1</ele>
        <time>2023-06-03T13:49:16Z</time>
      </trkpt>
      <trkpt lat="49.90337" lon="2.28693">
        <ele>24.1</ele>
        <time>2023-06-03T13:49:17Z</time>
      </trkpt>
      <trkpt lat="49.90338" lon="2.28695">
        <ele>24.1</ele>
        <time>2023-06-03T13:49:18Z</time>
      </trkpt>
      <trkpt lat="49.90339" lon="2.28697">
        <ele>24.1</ele>
        <time>2023-06-03T13:49:19Z</time>
      </trkpt>
      <trkpt lat="49.90339" lon="2.28699">
        <ele>23.8</ele>
        <time>2023-06-03T13:49:20Z</time>
      </trkpt>
      <trkpt lat="49.90339" lon="2.28701">
        <ele>23.8</ele>
        <time>2023-06-03T13:49:21Z</time>
      </trkpt>
      <trkpt lat="49.90339" lon="2.28704">
        <ele>23.7</ele>
        <time>2023-06-03T13:49:23Z</time>
      </trkpt>
      <trkpt lat="49.90339" lon="2.28706">
        <ele>23.7</ele>
        <time>2023-06-03T13:49:24Z</time>
      </trkpt>
      <trkpt lat="49.90338" lon="2.28708">
        <ele>23.6</ele>
        <time>2023-06-03T13:49:25Z</time>
      </trkpt>
      <trkpt lat="49.90337" lon="2.2871">
        <ele>23.6</ele>
        <time>2023-06-03T13:49:27Z</time>
      </trkpt>
      <trkpt lat="49.90335" lon="2.28713">
        <ele>23.5</ele>
        <time>2023-06-03T13:49:28Z</time>
      </trkpt>
      <trkpt lat="49.90335" lon="2.28714">
        <ele>23.4</ele>
        <time>2023-06-03T13:49:29Z</time>
      </trkpt>
      <trkpt lat="49.90332" lon="2.28716">
        <ele>23.3</ele>
        <time>2023-06-03T13:49:30Z</time>
      </trkpt>
      <trkpt lat="49.90331" lon="2.28717">
        <ele>23.3</ele>
        <time>2023-06-03T13:49:31Z</time>
      </trkpt>
      <trkpt lat="49.90328" lon="2.28717">
        <ele>23.2</ele>
        <time>2023-06-03T13:49:32Z</time>
      </trkpt>
      <trkpt lat="49.90327" lon="2.28717">
        <ele>23.1</ele>
        <time>2023-06-03T13:49:33Z</time>
      </trkpt>
      <trkpt lat="49.90326" lon="2.28716">
        <ele>23</ele>
        <time>2023-06-03T13:49:35Z</time>
      </trkpt>
      <trkpt lat="49.90324" lon="2.28717">
        <ele>23</ele>
        <time>2023-06-03T13:49:36Z</time>
      </trkpt>
      <trkpt lat="49.90322" lon="2.28717">
        <ele>22.9</ele>
        <time>2023-06-03T13:49:37Z</time>
      </trkpt>
      <trkpt lat="49.90321" lon="2.28717">
        <ele>22.8</ele>
        <time>2023-06-03T13:49:38Z</time>
      </trkpt>
      <trkpt lat="49.90319" lon="2.28717">
        <ele>22.8</ele>
        <time>2023-06-03T13:49:39Z</time>
      </trkpt>
      <trkpt lat="49.90317" lon="2.28718">
        <ele>22.7</ele>
        <time>2023-06-03T13:49:40Z</time>
      </trkpt>
      <trkpt lat="49.90314" lon="2.28719">
        <ele>22.6</ele>
        <time>2023-06-03T13:49:41Z</time>
      </trkpt>
      <trkpt lat="49.90313" lon="2.2872">
        <ele>22.5</ele>
        <time>2023-06-03T13:49:43Z</time>
      </trkpt>
      <trkpt lat="49.90312" lon="2.2872">
        <ele>22.5</ele>
        <time>2023-06-03T13:49:44Z</time>
      </trkpt>
      <trkpt lat="49.9031" lon="2.28721">
        <ele>22.4</ele>
        <time>2023-06-03T13:49:45Z</time>
      </trkpt>
      <trkpt lat="49.90309" lon="2.28722">
        <ele>22.3</ele>
        <time>2023-06-03T13:49:46Z</time>
      </trkpt>
      <trkpt lat="49.90307" lon="2.28722">
        <ele>22.3</ele>
        <time>2023-06-03T13:49:47Z</time>
      </trkpt>
      <trkpt lat="49.90306" lon="2.28723">
        <ele>22.2</ele>
        <time>2023-06-03T13:49:48Z</time>
      </trkpt>
      <trkpt lat="49.90304" lon="2.28724">
        <ele>22.2</ele>
        <time>2023-06-03T13:49:50Z</time>
      </trkpt>
      <trkpt lat="49.90303" lon="2.28726">
        <ele>22.1</ele>
        <time>2023-06-03T13:49:51Z</time>
      </trkpt>
      <trkpt lat="49.90303" lon="2.28728">
        <ele>22</ele>
        <time>2023-06-03T13:49:52Z</time>
      </trkpt>
      <trkpt lat="49.90301" lon="2.28731">
        <ele>21.9</ele>
        <time>2023-06-03T13:49:53Z</time>
      </trkpt>
      <trkpt lat="49.903" lon="2.28733">
        <ele>21.9</ele>
        <time>2023-06-03T13:49:55Z</time>
      </trkpt>
      <trkpt lat="49.90299" lon="2.28735">
        <ele>21.9</ele>
        <time>2023-06-03T13:49:56Z</time>
      </trkpt>
      <trkpt lat="49.90298" lon="2.28736">
        <ele>21.8</ele>
        <time>2023-06-03T13:49:57Z</time>
      </trkpt>
      <trkpt lat="49.90297" lon="2.28738">
        <ele>21.8</ele>
        <time>2023-06-03T13:49:58Z</time>
      </trkpt>
      <trkpt lat="49.90295" lon="2.28739">
        <ele>21.8</ele>
        <time>2023-06-03T13:49:59Z</time>
      </trkpt>
      <trkpt lat="49.90292" lon="2.28741">
        <ele>21.7</ele>
        <time>2023-06-03T13:50:00Z</time>
      </trkpt>
      <trkpt lat="49.90291" lon="2.28741">
        <ele>21.7</ele>
        <time>2023-06-03T13:50:01Z</time>
      </trkpt>
      <trkpt lat="49.90287" lon="2.28744">
        <ele>21.6</ele>
        <time>2023-06-03T13:50:03Z</time>
      </trkpt>
      <trkpt lat="49.90286" lon="2.28745">
        <ele>21.6</ele>
        <time>2023-06-03T13:50:04Z</time>
      </trkpt>
      <trkpt lat="49.90284" lon="2.28746">
        <ele>21.6</ele>
        <time>2023-06-03T13:50:05Z</time>
      </trkpt>
      <trkpt lat="49.90283" lon="2.28746">
        <ele>21.6</ele>
        <time>2023-06-03T13:50:06Z</time>
      </trkpt>
      <trkpt lat="49.90282" lon="2.28746">
        <ele>21.6</ele>
        <time>2023-06-03T13:50:08Z</time>
      </trkpt>
      <trkpt lat="49.90281" lon="2.28746">
        <ele>21.6</ele>
        <time>2023-06-03T13:50:09Z</time>
      </trkpt>
      <trkpt lat="49.90281" lon="2.28745">
        <ele>21.6</ele>
        <time>2023-06-03T13:50:10Z</time>
      </trkpt>
      <trkpt lat="49.90282" lon="2.28744">
        <ele>21.6</ele>
        <time>2023-06-03T13:50:11Z</time>
      </trkpt>
      <trkpt lat="49.90282" lon="2.28743">
        <ele>21.6</ele>
        <time>2023-06-03T13:50:12Z</time>
      </trkpt>
      <trkpt lat="49.90283" lon="2.28742">
        <ele>21.6</ele>
        <time>2023-06-03T13:50:13Z</time>
      </trkpt>
      <trkpt lat="49.90283" lon="2.28741">
        <ele>21.6</ele>
        <time>2023-06-03T13:50:14Z</time>
      </trkpt>
      <trkpt lat="49.90283" lon="2.2874">
        <ele>21.6</ele>
        <time>2023-06-03T13:50:15Z</time>
      </trkpt>
      <trkpt lat="49.90282" lon="2.2874">
        <ele>21.5</ele>
        <time>2023-06-03T13:50:17Z</time>
      </trkpt>
      <trkpt lat="49.90281" lon="2.28741">
        <ele>21.5</ele>
        <time>2023-06-03T13:50:18Z</time>
      </trkpt>
      <trkpt lat="49.9028" lon="2.28741">
        <ele>21.5</ele>
        <time>2023-06-03T13:50:19Z</time>
      </trkpt>
      <trkpt lat="49.9028" lon="2.28742">
        <ele>21.5</ele>
        <time>2023-06-03T13:50:21Z</time>
      </trkpt>
      <trkpt lat="49.90279" lon="2.28743">
        <ele>21.5</ele>
        <time>2023-06-03T13:50:22Z</time>
      </trkpt>
      <trkpt lat="49.90278" lon="2.28744">
        <ele>21.5</ele>
        <time>2023-06-03T13:50:23Z</time>
      </trkpt>
      <trkpt lat="49.90277" lon="2.28745">
        <ele>21.5</ele>
        <time>2023-06-03T13:50:24Z</time>
      </trkpt>
      <trkpt lat="49.90276" lon="2.28745">
        <ele>21.5</ele>
        <time>2023-06-03T13:50:25Z</time>
      </trkpt>
      <trkpt lat="49.90275" lon="2.28746">
        <ele>21.5</ele>
        <time>2023-06-03T13:50:26Z</time>
      </trkpt>
      <trkpt lat="49.90273" lon="2.28747">
        <ele>21.5</ele>
        <time>2023-06-03T13:50:28Z</time>
      </trkpt>
      <trkpt lat="49.90272" lon="2.28747">
        <ele>21.5</ele>
        <time>2023-06-03T13:50:29Z</time>
      </trkpt>
      <trkpt lat="49.9027" lon="2.28747">
        <ele>21.5</ele>
        <time>2023-06-03T13:50:30Z</time>
      </trkpt>
      <trkpt lat="49.90268" lon="2.28747">
        <ele>21.5</ele>
        <time>2023-06-03T13:50:32Z</time>
      </trkpt>
      <trkpt lat="49.90267" lon="2.28747">
        <ele>21.5</ele>
        <time>2023-06-03T13:50:33Z</time>
      </trkpt>
      <trkpt lat="49.90266" lon="2.28748">
        <ele>21.5</ele>
        <time>2023-06-03T13:50:34Z</time>
      </trkpt>
      <trkpt lat="49.90264" lon="2.28748">
        <ele>21.4</ele>
        <time>2023-06-03T13:50:36Z</time>
      </trkpt>
      <trkpt lat="49.90263" lon="2.28748">
        <ele>21.4</ele>
        <time>2023-06-03T13:50:37Z</time>
      </trkpt>
      <trkpt lat="49.90263" lon="2.28748">
        <ele>21.4</ele>
        <time>2023-06-03T13:50:38Z</time>
      </trkpt>
      <trkpt lat="49.90261" lon="2.28748">
        <ele>21.4</ele>
        <time>2023-06-03T13:50:39Z</time>
      </trkpt>
      <trkpt lat="49.90259" lon="2.28749">
        <ele>21.4</ele>
        <time>2023-06-03T13:50:41Z</time>
      </trkpt>
      <trkpt lat="49.90258" lon="2.28749">
        <ele>21.4</ele>
        <time>2023-06-03T13:50:42Z</time>
      </trkpt>
      <trkpt lat="49.90257" lon="2.28749">
        <ele>21.4</ele>
        <time>2023-06-03T13:50:43Z</time>
      </trkpt>
      <trkpt lat="49.90256" lon="2.2875">
        <ele>21.4</ele>
        <time>2023-06-03T13:50:44Z</time>
      </trkpt>
      <trkpt lat="49.90255" lon="2.2875">
        <ele>21.4</ele>
        <time>2023-06-03T13:50:45Z</time>
      </trkpt>
      <trkpt lat="49.90255" lon="2.2875">
        <ele>21.4</ele>
        <time>2023-06-03T13:50:46Z</time>
      </trkpt>
      <trkpt lat="49.90253" lon="2.28751">
        <ele>21.4</ele>
        <time>2023-06-03T13:50:48Z</time>
      </trkpt>
      <trkpt lat="49.90253" lon="2.28752">
        <ele>21.4</ele>
        <time>2023-06-03T13:50:49Z</time>
      </trkpt>
      <trkpt lat="49.90252" lon="2.28753">
        <ele>21.4</ele>
        <time>2023-06-03T13:50:50Z</time>
      </trkpt>
      <trkpt lat="49.90252" lon="2.28754">
        <ele>21.4</ele>
        <time>2023-06-03T13:50:51Z</time>
      </trkpt>
      <trkpt lat="49.90251" lon="2.28754">
        <ele>21.4</ele>
        <time>2023-06-03T13:50:53Z</time>
      </trkpt>
      <trkpt lat="49.90249" lon="2.28755">
        <ele>21.4</ele>
        <time>2023-06-03T13:50:54Z</time>
      </trkpt>
      <trkpt lat="49.90249" lon="2.28756">
        <ele>21.4</ele>
        <time>2023-06-03T13:50:55Z</time>
      </trkpt>
      <trkpt lat="49.90247" lon="2.28756">
        <ele>21.4</ele>
        <time>2023-06-03T13:50:57Z</time>
      </trkpt>
      <trkpt lat="49.90246" lon="2.28756">
        <ele>21.4</ele>
        <time>2023-06-03T13:50:58Z</time>
      </trkpt>
      <trkpt lat="49.90246" lon="2.28756">
        <ele>21.4</ele>
        <time>2023-06-03T13:50:59Z</time>
      </trkpt>
      <trkpt lat="49.90245" lon="2.28756">
        <ele>21.4</ele>
        <time>2023-06-03T13:51:00Z</time>
      </trkpt>
      <trkpt lat="49.90243" lon="2.28756">
        <ele>21.4</ele>
        <time>2023-06-03T13:51:01Z</time>
      </trkpt>
      <trkpt lat="49.90242" lon="2.28756">
        <ele>21.4</ele>
        <time>2023-06-03T13:51:02Z</time>
      </trkpt>
      <trkpt lat="49.90241" lon="2.28757">
        <ele>21.4</ele>
        <time>2023-06-03T13:51:03Z</time>
      </trkpt>
      <trkpt lat="49.9024" lon="2.28757">
        <ele>21.4</ele>
        <time>2023-06-03T13:51:04Z</time>
      </trkpt>
      <trkpt lat="49.90238" lon="2.28758">
        <ele>21.4</ele>
        <time>2023-06-03T13:51:06Z</time>
      </trkpt>
      <trkpt lat="49.90237" lon="2.28759">
        <ele>21.4</ele>
        <time>2023-06-03T13:51:07Z</time>
      </trkpt>
      <trkpt lat="49.90236" lon="2.2876">
        <ele>21.4</ele>
        <time>2023-06-03T13:51:08Z</time>
      </trkpt>
      <trkpt lat="49.90235" lon="2.28761">
        <ele>21.4</ele>
        <time>2023-06-03T13:51:10Z</time>
      </trkpt>
      <trkpt lat="49.90232" lon="2.28761">
        <ele>21.4</ele>
        <time>2023-06-03T13:51:11Z</time>
      </trkpt>
      <trkpt lat="49.90231" lon="2.28762">
        <ele>21.4</ele>
        <time>2023-06-03T13:51:12Z</time>
      </trkpt>
      <trkpt lat="49.90229" lon="2.28763">
        <ele>21.4</ele>
        <time>2023-06-03T13:51:14Z</time>
      </trkpt>
      <trkpt lat="49.90227" lon="2.28763">
        <ele>21.4</ele>
        <time>2023-06-03T13:51:15Z</time>
      </trkpt>
      <trkpt lat="49.90226" lon="2.28764">
        <ele>21.4</ele>
        <time>2023-06-03T13:51:16Z</time>
      </trkpt>
      <trkpt lat="49.90225" lon="2.28765">
        <ele>21.4</ele>
        <time>2023-06-03T13:51:17Z</time>
      </trkpt>
      <trkpt lat="49.90224" lon="2.28766">
        <ele>21.4</ele>
        <time>2023-06-03T13:51:18Z</time>
      </trkpt>
      <trkpt lat="49.90222" lon="2.28767">
        <ele>21.4</ele>
        <time>2023-06-03T13:51:19Z</time>
      </trkpt>
      <trkpt lat="49.90221" lon="2.28768">
        <ele>21.4</ele>
        <time>2023-06-03T13:51:21Z</time>
      </trkpt>
      <trkpt lat="49.90219" lon="2.28768">
        <ele>21.4</ele>
        <time>2023-06-03T13:51:22Z</time>
      </trkpt>
      <trkpt lat="49.90218" lon="2.28769">
        <ele>21.4</ele>
        <time>2023-06-03T13:51:23Z</time>
      </trkpt>
      <trkpt lat="49.90215" lon="2.2877">
        <ele>21.4</ele>
        <time>2023-06-03T13:51:25Z</time>
      </trkpt>
      <trkpt lat="49.90214" lon="2.2877">
        <ele>21.4</ele>
        <time>2023-06-03T13:51:26Z</time>
      </trkpt>
      <trkpt lat="49.90211" lon="2.28771">
        <ele>21.4</ele>
        <time>2023-06-03T13:51:27Z</time>
      </trkpt>
      <trkpt lat="49.90209" lon="2.28772">
        <ele>21.4</ele>
        <time>2023-06-03T13:51:29Z</time>
      </trkpt>
      <trkpt lat="49.90208" lon="2.28773">
        <ele>21.4</ele>
        <time>2023-06-03T13:51:30Z</time>
      </trkpt>
      <trkpt lat="49.90207" lon="2.28773">
        <ele>21.4</ele>
        <time>2023-06-03T13:51:31Z</time>
      </trkpt>
      <trkpt lat="49.90204" lon="2.28775">
        <ele>21.4</ele>
        <time>2023-06-03T13:51:32Z</time>
      </trkpt>
      <trkpt lat="49.90203" lon="2.28776">
        <ele>21.4</ele>
        <time>2023-06-03T13:51:33Z</time>
      </trkpt>
      <trkpt lat="49.902" lon="2.28777">
        <ele>21.4</ele>
        <time>2023-06-03T13:51:35Z</time>
      </trkpt>
      <trkpt lat="49.90199" lon="2.28778">
        <ele>21.4</ele>
        <time>2023-06-03T13:51:36Z</time>
      </trkpt>
      <trkpt lat="49.90196" lon="2.2878">
        <ele>21.4</ele>
        <time>2023-06-03T13:51:37Z</time>
      </trkpt>
      <trkpt lat="49.90194" lon="2.28781">
        <ele>21.4</ele>
        <time>2023-06-03T13:51:39Z</time>
      </trkpt>
      <trkpt lat="49.90192" lon="2.28782">
        <ele>21.4</ele>
        <time>2023-06-03T13:51:40Z</time>
      </trkpt>
      <trkpt lat="49.90191" lon="2.28784">
        <ele>21.4</ele>
        <time>2023-06-03T13:51:41Z</time>
      </trkpt>
      <trkpt lat="49.90188" lon="2.28786">
        <ele>21.4</ele>
        <time>2023-06-03T13:51:43Z</time>
      </trkpt>
      <trkpt lat="49.90187" lon="2.28786">
        <ele>21.4</ele>
        <time>2023-06-03T13:51:44Z</time>
      </trkpt>
      <trkpt lat="49.90186" lon="2.28787">
        <ele>21.4</ele>
        <time>2023-06-03T13:51:45Z</time>
      </trkpt>
      <trkpt lat="49.90185" lon="2.28788">
        <ele>21.4</ele>
        <time>2023-06-03T13:51:46Z</time>
      </trkpt>
      <trkpt lat="49.90184" lon="2.2879">
        <ele>21.4</ele>
        <time>2023-06-03T13:51:48Z</time>
      </trkpt>
      <trkpt lat="49.90182" lon="2.28791">
        <ele>21.4</ele>
        <time>2023-06-03T13:51:49Z</time>
      </trkpt>
      <trkpt lat="49.90181" lon="2.28793">
        <ele>21.4</ele>
        <time>2023-06-03T13:51:50Z</time>
      </trkpt>
      <trkpt lat="49.9018" lon="2.28794">
        <ele>21.4</ele>
        <time>2023-06-03T13:51:52Z</time>
      </trkpt>
      <trkpt lat="49.90179" lon="2.28796">
        <ele>21.4</ele>
        <time>2023-06-03T13:51:53Z</time>
      </trkpt>
      <trkpt lat="49.90178" lon="2.28797">
        <ele>21.4</ele>
        <time>2023-06-03T13:51:54Z</time>
      </trkpt>
      <trkpt lat="49.90176" lon="2.288">
        <ele>21.4</ele>
        <time>2023-06-03T13:51:55Z</time>
      </trkpt>
      <trkpt lat="49.90175" lon="2.28801">
        <ele>21.4</ele>
        <time>2023-06-03T13:51:56Z</time>
      </trkpt>
      <trkpt lat="49.90174" lon="2.28802">
        <ele>21.4</ele>
        <time>2023-06-03T13:51:57Z</time>
      </trkpt>
      <trkpt lat="49.90173" lon="2.28803">
        <ele>21.4</ele>
        <time>2023-06-03T13:51:59Z</time>
      </trkpt>
      <trkpt lat="49.90172" lon="2.28804">
        <ele>21.4</ele>
        <time>2023-06-03T13:52:00Z</time>
      </trkpt>
      <trkpt lat="49.9017" lon="2.28807">
        <ele>21.4</ele>
        <time>2023-06-03T13:52:01Z</time>
      </trkpt>
      <trkpt lat="49.90169" lon="2.28808">
        <ele>21.4</ele>
        <time>2023-06-03T13:52:03Z</time>
      </trkpt>
      <trkpt lat="49.90168" lon="2.28809">
        <ele>21.4</ele>
        <time>2023-06-03T13:52:04Z</time>
      </trkpt>
      <trkpt lat="49.90167" lon="2.28811">
        <ele>21.4</ele>
        <time>2023-06-03T13:52:05Z</time>
      </trkpt>
      <trkpt lat="49.90166" lon="2.28812">
        <ele>21.4</ele>
        <time>2023-06-03T13:52:07Z</time>
      </trkpt>
      <trkpt lat="49.90166" lon="2.28813">
        <ele>21.4</ele>
        <time>2023-06-03T13:52:08Z</time>
      </trkpt>
      <trkpt lat="49.90165" lon="2.28815">
        <ele>21.4</ele>
        <time>2023-06-03T13:52:09Z</time>
      </trkpt>
      <trkpt lat="49.90164" lon="2.28815">
        <ele>21.4</ele>
        <time>2023-06-03T13:52:10Z</time>
      </trkpt>
      <trkpt lat="49.90163" lon="2.28817">
        <ele>21.4</ele>
        <time>2023-06-03T13:52:11Z</time>
      </trkpt>
      <trkpt lat="49.90163" lon="2.28818">
        <ele>21.4</ele>
        <time>2023-06-03T13:52:12Z</time>
      </trkpt>
      <trkpt lat="49.90161" lon="2.28819">
        <ele>21.4</ele>
        <time>2023-06-03T13:52:14Z</time>
      </trkpt>
      <trkpt lat="49.9016" lon="2.2882">
        <ele>21.4</ele>
        <time>2023-06-03T13:52:15Z</time>
      </trkpt>
      <trkpt lat="49.90159" lon="2.28821">
        <ele>21.4</ele>
        <time>2023-06-03T13:52:16Z</time>
      </trkpt>
      <trkpt lat="49.90158" lon="2.28822">
        <ele>21.4</ele>
        <time>2023-06-03T13:52:18Z</time>
      </trkpt>
      <trkpt lat="49.90156" lon="2.28823">
        <ele>21.4</ele>
        <time>2023-06-03T13:52:19Z</time>
      </trkpt>
      <trkpt lat="49.90155" lon="2.28824">
        <ele>21.4</ele>
        <time>2023-06-03T13:52:20Z</time>
      </trkpt>
      <trkpt lat="49.90154" lon="2.28825">
        <ele>21.4</ele>
        <time>2023-06-03T13:52:21Z</time>
      </trkpt>
      <trkpt lat="49.90152" lon="2.28826">
        <ele>21.4</ele>
        <time>2023-06-03T13:52:22Z</time>
      </trkpt>
      <trkpt lat="49.90151" lon="2.28827">
        <ele>21.4</ele>
        <time>2023-06-03T13:52:23Z</time>
      </trkpt>
      <trkpt lat="49.90149" lon="2.28828">
        <ele>21.4</ele>
        <time>2023-06-03T13:52:24Z</time>
      </trkpt>
      <trkpt lat="49.90148" lon="2.28829">
        <ele>21.4</ele>
        <time>2023-06-03T13:52:25Z</time>
      </trkpt>
      <trkpt lat="49.90146" lon="2.2883">
        <ele>21.4</ele>
        <time>2023-06-03T13:52:27Z</time>
      </trkpt>
      <trkpt lat="49.90144" lon="2.28832">
        <ele>21.4</ele>
        <time>2023-06-03T13:52:28Z</time>
      </trkpt>
      <trkpt lat="49.90143" lon="2.28832">
        <ele>21.4</ele>
        <time>2023-06-03T13:52:29Z</time>
      </trkpt>
      <trkpt lat="49.90142" lon="2.28833">
        <ele>21.4</ele>
        <time>2023-06-03T13:52:30Z</time>
      </trkpt>
      <trkpt lat="49.9014" lon="2.28833">
        <ele>21.4</ele>
        <time>2023-06-03T13:52:31Z</time>
      </trkpt>
      <trkpt lat="49.90138" lon="2.28835">
        <ele>21.4</ele>
        <time>2023-06-03T13:52:33Z</time>
      </trkpt>
      <trkpt lat="49.90137" lon="2.28837">
        <ele>21.4</ele>
        <time>2023-06-03T13:52:34Z</time>
      </trkpt>
      <trkpt lat="49.90136" lon="2.28838">
        <ele>21.4</ele>
        <time>2023-06-03T13:52:36Z</time>
      </trkpt>
      <trkpt lat="49.90135" lon="2.28838">
        <ele>21.4</ele>
        <time>2023-06-03T13:52:37Z</time>
      </trkpt>
      <trkpt lat="49.90134" lon="2.28839">
        <ele>21.4</ele>
        <time>2023-06-03T13:52:38Z</time>
      </trkpt>
      <trkpt lat="49.90133" lon="2.2884">
        <ele>21.4</ele>
        <time>2023-06-03T13:52:39Z</time>
      </trkpt>
      <trkpt lat="49.90133" lon="2.28838">
        <ele>21.4</ele>
        <time>2023-06-03T13:52:40Z</time>
      </trkpt>
      <trkpt lat="49.90132" lon="2.28838">
        <ele>21.4</ele>
        <time>2023-06-03T13:52:41Z</time>
      </trkpt>
      <trkpt lat="49.9013" lon="2.28838">
        <ele>21.4</ele>
        <time>2023-06-03T13:52:43Z</time>
      </trkpt>
      <trkpt lat="49.90129" lon="2.28839">
        <ele>21.4</ele>
        <time>2023-06-03T13:52:44Z</time>
      </trkpt>
      <trkpt lat="49.90128" lon="2.2884">
        <ele>21.4</ele>
        <time>2023-06-03T13:52:45Z</time>
      </trkpt>
      <trkpt lat="49.90125" lon="2.2884">
        <ele>21.4</ele>
        <time>2023-06-03T13:52:47Z</time>
      </trkpt>
      <trkpt lat="49.90124" lon="2.28837">
        <ele>21.3</ele>
        <time>2023-06-03T13:52:48Z</time>
      </trkpt>
      <trkpt lat="49.90123" lon="2.28837">
        <ele>21.3</ele>
        <time>2023-06-03T13:52:49Z</time>
      </trkpt>
      <trkpt lat="49.90121" lon="2.28835">
        <ele>21.3</ele>
        <time>2023-06-03T13:52:50Z</time>
      </trkpt>
      <trkpt lat="49.9012" lon="2.28834">
        <ele>21.3</ele>
        <time>2023-06-03T13:52:52Z</time>
      </trkpt>
      <trkpt lat="49.90118" lon="2.28834">
        <ele>21.3</ele>
        <time>2023-06-03T13:52:53Z</time>
      </trkpt>
      <trkpt lat="49.90117" lon="2.28834">
        <ele>21.3</ele>
        <time>2023-06-03T13:52:54Z</time>
      </trkpt>
      <trkpt lat="49.90116" lon="2.28833">
        <ele>21.3</ele>
        <time>2023-06-03T13:52:55Z</time>
      </trkpt>
      <trkpt lat="49.90114" lon="2.28834">
        <ele>21.3</ele>
        <time>2023-06-03T13:52:56Z</time>
      </trkpt>
      <trkpt lat="49.90113" lon="2.28834">
        <ele>21.3</ele>
        <time>2023-06-03T13:52:57Z</time>
      </trkpt>
      <trkpt lat="49.90112" lon="2.28834">
        <ele>21.3</ele>
        <time>2023-06-03T13:52:58Z</time>
      </trkpt>
      <trkpt lat="49.9011" lon="2.28835">
        <ele>21.3</ele>
        <time>2023-06-03T13:52:59Z</time>
      </trkpt>
      <trkpt lat="49.90109" lon="2.28836">
        <ele>21.3</ele>
        <time>2023-06-03T13:53:00Z</time>
      </trkpt>
      <trkpt lat="49.90107" lon="2.28836">
        <ele>21.3</ele>
        <time>2023-06-03T13:53:01Z</time>
      </trkpt>
      <trkpt lat="49.90104" lon="2.28837">
        <ele>21.3</ele>
        <time>2023-06-03T13:53:03Z</time>
      </trkpt>
      <trkpt lat="49.90101" lon="2.28839">
        <ele>21.3</ele>
        <time>2023-06-03T13:53:04Z</time>
      </trkpt>
      <trkpt lat="49.901" lon="2.28841">
        <ele>21.3</ele>
        <time>2023-06-03T13:53:06Z</time>
      </trkpt>
      <trkpt lat="49.90099" lon="2.28842">
        <ele>21.3</ele>
        <time>2023-06-03T13:53:07Z</time>
      </trkpt>
      <trkpt lat="49.90097" lon="2.28843">
        <ele>21.3</ele>
        <time>2023-06-03T13:53:08Z</time>
      </trkpt>
      <trkpt lat="49.90096" lon="2.28844">
        <ele>21.2</ele>
        <time>2023-06-03T13:53:09Z</time>
      </trkpt>
      <trkpt lat="49.90094" lon="2.28846">
        <ele>21.2</ele>
        <time>2023-06-03T13:53:11Z</time>
      </trkpt>
      <trkpt lat="49.90092" lon="2.28848">
        <ele>21.2</ele>
        <time>2023-06-03T13:53:12Z</time>
      </trkpt>
      <trkpt lat="49.90091" lon="2.28849">
        <ele>21.2</ele>
        <time>2023-06-03T13:53:13Z</time>
      </trkpt>
      <trkpt lat="49.9009" lon="2.2885">
        <ele>21.2</ele>
        <time>2023-06-03T13:53:14Z</time>
      </trkpt>
      <trkpt lat="49.90089" lon="2.28852">
        <ele>21.2</ele>
        <time>2023-06-03T13:53:15Z</time>
      </trkpt>
      <trkpt lat="49.90088" lon="2.28854">
        <ele>21.2</ele>
        <time>2023-06-03T13:53:16Z</time>
      </trkpt>
      <trkpt lat="49.90088" lon="2.28855">
        <ele>21.2</ele>
        <time>2023-06-03T13:53:17Z</time>
      </trkpt>
      <trkpt lat="49.90086" lon="2.28858">
        <ele>21.2</ele>
        <time>2023-06-03T13:53:19Z</time>
      </trkpt>
      <trkpt lat="49.90085" lon="2.2886">
        <ele>21.2</ele>
        <time>2023-06-03T13:53:20Z</time>
      </trkpt>
      <trkpt lat="49.90085" lon="2.28861">
        <ele>21.2</ele>
        <time>2023-06-03T13:53:21Z</time>
      </trkpt>
      <trkpt lat="49.90083" lon="2.28864">
        <ele>21.2</ele>
        <time>2023-06-03T13:53:23Z</time>
      </trkpt>
      <trkpt lat="49.90081" lon="2.28866">
        <ele>21.2</ele>
        <time>2023-06-03T13:53:24Z</time>
      </trkpt>
      <trkpt lat="49.9008" lon="2.28867">
        <ele>21.2</ele>
        <time>2023-06-03T13:53:26Z</time>
      </trkpt>
      <trkpt lat="49.90078" lon="2.28867">
        <ele>21.2</ele>
        <time>2023-06-03T13:53:27Z</time>
      </trkpt>
      <trkpt lat="49.90077" lon="2.28868">
        <ele>21.2</ele>
        <time>2023-06-03T13:53:28Z</time>
      </trkpt>
      <trkpt lat="49.90075" lon="2.28869">
        <ele>21.2</ele>
        <time>2023-06-03T13:53:29Z</time>
      </trkpt>
      <trkpt lat="49.90074" lon="2.2887">
        <ele>21.2</ele>
        <time>2023-06-03T13:53:30Z</time>
      </trkpt>
      <trkpt lat="49.90072" lon="2.28872">
        <ele>21.2</ele>
        <time>2023-06-03T13:53:31Z</time>
      </trkpt>
      <trkpt lat="49.90071" lon="2.28872">
        <ele>21.2</ele>
        <time>2023-06-03T13:53:32Z</time>
      </trkpt>
      <trkpt lat="49.90071" lon="2.28873">
        <ele>21.2</ele>
        <time>2023-06-03T13:53:33Z</time>
      </trkpt>
      <trkpt lat="49.90069" lon="2.28874">
        <ele>21.1</ele>
        <time>2023-06-03T13:53:34Z</time>
      </trkpt>
      <trkpt lat="49.90068" lon="2.28876">
        <ele>21.1</ele>
        <time>2023-06-03T13:53:36Z</time>
      </trkpt>
      <trkpt lat="49.90067" lon="2.28877">
        <ele>21.1</ele>
        <time>2023-06-03T13:53:37Z</time>
      </trkpt>
      <trkpt lat="49.90067" lon="2.28878">
        <ele>21.1</ele>
        <time>2023-06-03T13:53:38Z</time>
      </trkpt>
      <trkpt lat="49.90066" lon="2.28879">
        <ele>21.1</ele>
        <time>2023-06-03T13:53:40Z</time>
      </trkpt>
      <trkpt lat="49.90064" lon="2.28881">
        <ele>21.1</ele>
        <time>2023-06-03T13:53:41Z</time>
      </trkpt>
      <trkpt lat="49.90063" lon="2.28882">
        <ele>21.1</ele>
        <time>2023-06-03T13:53:43Z</time>
      </trkpt>
      <trkpt lat="49.90063" lon="2.28882">
        <ele>21.1</ele>
        <time>2023-06-03T13:53:44Z</time>
      </trkpt>
      <trkpt lat="49.90061" lon="2.28884">
        <ele>21.1</ele>
        <time>2023-06-03T13:53:45Z</time>
      </trkpt>
      <trkpt lat="49.9006" lon="2.28884">
        <ele>21.1</ele>
        <time>2023-06-03T13:53:46Z</time>
      </trkpt>
      <trkpt lat="49.90059" lon="2.28885">
        <ele>21.1</ele>
        <time>2023-06-03T13:53:47Z</time>
      </trkpt>
      <trkpt lat="49.90058" lon="2.28886">
        <ele>21.1</ele>
        <time>2023-06-03T13:53:48Z</time>
      </trkpt>
      <trkpt lat="49.90057" lon="2.28888">
        <ele>21.1</ele>
        <time>2023-06-03T13:53:49Z</time>
      </trkpt>
      <trkpt lat="49.90056" lon="2.28889">
        <ele>21.1</ele>
        <time>2023-06-03T13:53:51Z</time>
      </trkpt>
      <trkpt lat="49.90055" lon="2.2889">
        <ele>21.1</ele>
        <time>2023-06-03T13:53:52Z</time>
      </trkpt>
      <trkpt lat="49.90054" lon="2.28892">
        <ele>21.1</ele>
        <time>2023-06-03T13:53:54Z</time>
      </trkpt>
      <trkpt lat="49.90053" lon="2.28893">
        <ele>21.1</ele>
        <time>2023-06-03T13:53:55Z</time>
      </trkpt>
      <trkpt lat="49.90053" lon="2.28894">
        <ele>21.1</ele>
        <time>2023-06-03T13:53:56Z</time>
      </trkpt>
      <trkpt lat="49.90051" lon="2.28896">
        <ele>21.1</ele>
        <time>2023-06-03T13:53:57Z</time>
      </trkpt>
      <trkpt lat="49.9005" lon="2.28897">
        <ele>21.1</ele>
        <time>2023-06-03T13:53:58Z</time>
      </trkpt>
      <trkpt lat="49.90049" lon="2.28898">
        <ele>21.1</ele>
        <time>2023-06-03T13:53:59Z</time>
      </trkpt>
      <trkpt lat="49.90048" lon="2.28899">
        <ele>21.1</ele>
        <time>2023-06-03T13:54:00Z</time>
      </trkpt>
      <trkpt lat="49.90047" lon="2.28901">
        <ele>21.1</ele>
        <time>2023-06-03T13:54:01Z</time>
      </trkpt>
      <trkpt lat="49.90045" lon="2.28903">
        <ele>21.1</ele>
        <time>2023-06-03T13:54:03Z</time>
      </trkpt>
      <trkpt lat="49.90044" lon="2.28905">
        <ele>21.1</ele>
        <time>2023-06-03T13:54:04Z</time>
      </trkpt>
      <trkpt lat="49.90042" lon="2.28907">
        <ele>21</ele>
        <time>2023-06-03T13:54:05Z</time>
      </trkpt>
      <trkpt lat="49.90039" lon="2.2891">
        <ele>21</ele>
        <time>2023-06-03T13:54:07Z</time>
      </trkpt>
      <trkpt lat="49.90038" lon="2.28911">
        <ele>21</ele>
        <time>2023-06-03T13:54:08Z</time>
      </trkpt>
      <trkpt lat="49.90036" lon="2.28914">
        <ele>21</ele>
        <time>2023-06-03T13:54:09Z</time>
      </trkpt>
      <trkpt lat="49.90034" lon="2.28916">
        <ele>21</ele>
        <time>2023-06-03T13:54:11Z</time>
      </trkpt>
      <trkpt lat="49.90033" lon="2.28917">
        <ele>21</ele>
        <time>2023-06-03T13:54:12Z</time>
      </trkpt>
      <trkpt lat="49.90032" lon="2.28919">
        <ele>21</ele>
        <time>2023-06-03T13:54:13Z</time>
      </trkpt>
      <trkpt lat="49.9003" lon="2.2892">
        <ele>21</ele>
        <time>2023-06-03T13:54:14Z</time>
      </trkpt>
      <trkpt lat="49.9003" lon="2.28921">
        <ele>21</ele>
        <time>2023-06-03T13:54:15Z</time>
      </trkpt>
      <trkpt lat="49.90029" lon="2.28922">
        <ele>21</ele>
        <time>2023-06-03T13:54:16Z</time>
      </trkpt>
      <trkpt lat="49.90029" lon="2.28922">
        <ele>21</ele>
        <time>2023-06-03T13:54:17Z</time>
      </trkpt>
      <trkpt lat="49.9003" lon="2.28922">
        <ele>21</ele>
        <time>2023-06-03T13:54:18Z</time>
      </trkpt>
      <trkpt lat="49.90029" lon="2.28923">
        <ele>21</ele>
        <time>2023-06-03T13:54:20Z</time>
      </trkpt>
      <trkpt lat="49.90028" lon="2.28924">
        <ele>21</ele>
        <time>2023-06-03T13:54:21Z</time>
      </trkpt>
      <trkpt lat="49.90028" lon="2.28925">
        <ele>21</ele>
        <time>2023-06-03T13:54:22Z</time>
      </trkpt>
      <trkpt lat="49.90028" lon="2.28926">
        <ele>21</ele>
        <time>2023-06-03T13:54:23Z</time>
      </trkpt>
      <trkpt lat="49.90027" lon="2.28927">
        <ele>21</ele>
        <time>2023-06-03T13:54:24Z</time>
      </trkpt>
      <trkpt lat="49.90028" lon="2.28929">
        <ele>21</ele>
        <time>2023-06-03T13:54:25Z</time>
      </trkpt>
      <trkpt lat="49.90027" lon="2.2893">
        <ele>21</ele>
        <time>2023-06-03T13:54:27Z</time>
      </trkpt>
      <trkpt lat="49.90026" lon="2.28932">
        <ele>21</ele>
        <time>2023-06-03T13:54:28Z</time>
      </trkpt>
      <trkpt lat="49.90025" lon="2.28934">
        <ele>21</ele>
        <time>2023-06-03T13:54:29Z</time>
      </trkpt>
      <trkpt lat="49.90024" lon="2.28935">
        <ele>21</ele>
        <time>2023-06-03T13:54:30Z</time>
      </trkpt>
      <trkpt lat="49.90023" lon="2.28936">
        <ele>21</ele>
        <time>2023-06-03T13:54:31Z</time>
      </trkpt>
      <trkpt lat="49.90022" lon="2.28938">
        <ele>21</ele>
        <time>2023-06-03T13:54:32Z</time>
      </trkpt>
      <trkpt lat="49.90021" lon="2.28939">
        <ele>21</ele>
        <time>2023-06-03T13:54:33Z</time>
      </trkpt>
      <trkpt lat="49.9002" lon="2.28942">
        <ele>21</ele>
        <time>2023-06-03T13:54:35Z</time>
      </trkpt>
      <trkpt lat="49.90019" lon="2.28944">
        <ele>21</ele>
        <time>2023-06-03T13:54:36Z</time>
      </trkpt>
      <trkpt lat="49.90018" lon="2.28946">
        <ele>21</ele>
        <time>2023-06-03T13:54:37Z</time>
      </trkpt>
      <trkpt lat="49.90017" lon="2.28947">
        <ele>21</ele>
        <time>2023-06-03T13:54:39Z</time>
      </trkpt>
      <trkpt lat="49.90016" lon="2.28949">
        <ele>21</ele>
        <time>2023-06-03T13:54:40Z</time>
      </trkpt>
      <trkpt lat="49.90016" lon="2.2895">
        <ele>21</ele>
        <time>2023-06-03T13:54:41Z</time>
      </trkpt>
      <trkpt lat="49.90015" lon="2.28951">
        <ele>21</ele>
        <time>2023-06-03T13:54:42Z</time>
      </trkpt>
      <trkpt lat="49.90013" lon="2.28953">
        <ele>21</ele>
        <time>2023-06-03T13:54:43Z</time>
      </trkpt>
      <trkpt lat="49.90013" lon="2.28954">
        <ele>21</ele>
        <time>2023-06-03T13:54:44Z</time>
      </trkpt>
      <trkpt lat="49.90012" lon="2.28955">
        <ele>21</ele>
        <time>2023-06-03T13:54:45Z</time>
      </trkpt>
      <trkpt lat="49.90011" lon="2.28957">
        <ele>21</ele>
        <time>2023-06-03T13:54:46Z</time>
      </trkpt>
      <trkpt lat="49.9001" lon="2.28958">
        <ele>21</ele>
        <time>2023-06-03T13:54:48Z</time>
      </trkpt>
      <trkpt lat="49.90009" lon="2.28959">
        <ele>21</ele>
        <time>2023-06-03T13:54:49Z</time>
      </trkpt>
      <trkpt lat="49.90008" lon="2.2896">
        <ele>21</ele>
        <time>2023-06-03T13:54:51Z</time>
      </trkpt>
      <trkpt lat="49.90007" lon="2.28962">
        <ele>21</ele>
        <time>2023-06-03T13:54:52Z</time>
      </trkpt>
      <trkpt lat="49.90006" lon="2.28964">
        <ele>21</ele>
        <time>2023-06-03T13:54:53Z</time>
      </trkpt>
      <trkpt lat="49.90005" lon="2.28965">
        <ele>21</ele>
        <time>2023-06-03T13:54:54Z</time>
      </trkpt>
      <trkpt lat="49.90003" lon="2.28969">
        <ele>21.1</ele>
        <time>2023-06-03T13:54:55Z</time>
      </trkpt>
      <trkpt lat="49.90002" lon="2.2897">
        <ele>21.1</ele>
        <time>2023-06-03T13:54:56Z</time>
      </trkpt>
      <trkpt lat="49.90001" lon="2.28971">
        <ele>21.1</ele>
        <time>2023-06-03T13:54:57Z</time>
      </trkpt>
      <trkpt lat="49.89999" lon="2.28973">
        <ele>21.1</ele>
        <time>2023-06-03T13:54:59Z</time>
      </trkpt>
      <trkpt lat="49.89998" lon="2.28974">
        <ele>21.1</ele>
        <time>2023-06-03T13:55:00Z</time>
      </trkpt>
      <trkpt lat="49.89997" lon="2.28974">
        <ele>21.1</ele>
        <time>2023-06-03T13:55:01Z</time>
      </trkpt>
      <trkpt lat="49.89996" lon="2.28975">
        <ele>21.1</ele>
        <time>2023-06-03T13:55:03Z</time>
      </trkpt>
      <trkpt lat="49.89995" lon="2.28977">
        <ele>21.1</ele>
        <time>2023-06-03T13:55:04Z</time>
      </trkpt>
      <trkpt lat="49.89994" lon="2.28978">
        <ele>21.1</ele>
        <time>2023-06-03T13:55:05Z</time>
      </trkpt>
      <trkpt lat="49.89993" lon="2.2898">
        <ele>21.1</ele>
        <time>2023-06-03T13:55:06Z</time>
      </trkpt>
      <trkpt lat="49.89992" lon="2.28981">
        <ele>21.1</ele>
        <time>2023-06-03T13:55:07Z</time>
      </trkpt>
      <trkpt lat="49.89991" lon="2.28981">
        <ele>21.1</ele>
        <time>2023-06-03T13:55:08Z</time>
      </trkpt>
      <trkpt lat="49.8999" lon="2.28982">
        <ele>21.1</ele>
        <time>2023-06-03T13:55:09Z</time>
      </trkpt>
      <trkpt lat="49.89988" lon="2.28982">
        <ele>21.1</ele>
        <time>2023-06-03T13:55:11Z</time>
      </trkpt>
      <trkpt lat="49.89987" lon="2.28982">
        <ele>21.1</ele>
        <time>2023-06-03T13:55:12Z</time>
      </trkpt>
      <trkpt lat="49.89986" lon="2.28982">
        <ele>21.1</ele>
        <time>2023-06-03T13:55:13Z</time>
      </trkpt>
      <trkpt lat="49.89985" lon="2.28983">
        <ele>21.1</ele>
        <time>2023-06-03T13:55:14Z</time>
      </trkpt>
      <trkpt lat="49.89984" lon="2.28983">
        <ele>21.1</ele>
        <time>2023-06-03T13:55:15Z</time>
      </trkpt>
      <trkpt lat="49.89984" lon="2.28983">
        <ele>21.1</ele>
        <time>2023-06-03T13:55:16Z</time>
      </trkpt>
      <trkpt lat="49.89981" lon="2.28984">
        <ele>21.1</ele>
        <time>2023-06-03T13:55:18Z</time>
      </trkpt>
      <trkpt lat="49.8998" lon="2.28985">
        <ele>21.1</ele>
        <time>2023-06-03T13:55:19Z</time>
      </trkpt>
      <trkpt lat="49.89979" lon="2.28986">
        <ele>21.1</ele>
        <time>2023-06-03T13:55:20Z</time>
      </trkpt>
      <trkpt lat="49.89978" lon="2.28986">
        <ele>21.1</ele>
        <time>2023-06-03T13:55:21Z</time>
      </trkpt>
      <trkpt lat="49.89976" lon="2.28986">
        <ele>21.1</ele>
        <time>2023-06-03T13:55:23Z</time>
      </trkpt>
      <trkpt lat="49.89975" lon="2.28987">
        <ele>21.1</ele>
        <time>2023-06-03T13:55:24Z</time>
      </trkpt>
      <trkpt lat="49.89974" lon="2.28988">
        <ele>21.1</ele>
        <time>2023-06-03T13:55:25Z</time>
      </trkpt>
      <trkpt lat="49.89973" lon="2.28989">
        <ele>21.1</ele>
        <time>2023-06-03T13:55:26Z</time>
      </trkpt>
      <trkpt lat="49.89973" lon="2.2899">
        <ele>21.1</ele>
        <time>2023-06-03T13:55:27Z</time>
      </trkpt>
      <trkpt lat="49.89972" lon="2.28992">
        <ele>21.2</ele>
        <time>2023-06-03T13:55:28Z</time>
      </trkpt>
      <trkpt lat="49.89971" lon="2.28993">
        <ele>21.2</ele>
        <time>2023-06-03T13:55:30Z</time>
      </trkpt>
      <trkpt lat="49.8997" lon="2.28996">
        <ele>21.2</ele>
        <time>2023-06-03T13:55:31Z</time>
      </trkpt>
      <trkpt lat="49.89969" lon="2.28998">
        <ele>21.2</ele>
        <time>2023-06-03T13:55:32Z</time>
      </trkpt>
      <trkpt lat="49.89968" lon="2.29">
        <ele>21.2</ele>
        <time>2023-06-03T13:55:34Z</time>
      </trkpt>
      <trkpt lat="49.89967" lon="2.29002">
        <ele>21.2</ele>
        <time>2023-06-03T13:55:35Z</time>
      </trkpt>
      <trkpt lat="49.89967" lon="2.29004">
        <ele>21.2</ele>
        <time>2023-06-03T13:55:36Z</time>
      </trkpt>
      <trkpt lat="49.89966" lon="2.29007">
        <ele>21.2</ele>
        <time>2023-06-03T13:55:37Z</time>
      </trkpt>
      <trkpt lat="49.89965" lon="2.29008">
        <ele>21.2</ele>
        <time>2023-06-03T13:55:38Z</time>
      </trkpt>
      <trkpt lat="49.89965" lon="2.29009">
        <ele>21.2</ele>
        <time>2023-06-03T13:55:39Z</time>
      </trkpt>
      <trkpt lat="49.89964" lon="2.29012">
        <ele>21.2</ele>
        <time>2023-06-03T13:55:40Z</time>
      </trkpt>
      <trkpt lat="49.89963" lon="2.29013">
        <ele>21.2</ele>
        <time>2023-06-03T13:55:41Z</time>
      </trkpt>
      <trkpt lat="49.89962" lon="2.29014">
        <ele>21.3</ele>
        <time>2023-06-03T13:55:42Z</time>
      </trkpt>
      <trkpt lat="49.89961" lon="2.29016">
        <ele>21.3</ele>
        <time>2023-06-03T13:55:44Z</time>
      </trkpt>
      <trkpt lat="49.8996" lon="2.29019">
        <ele>21.3</ele>
        <time>2023-06-03T13:55:45Z</time>
      </trkpt>
      <trkpt lat="49.89959" lon="2.2902">
        <ele>21.3</ele>
        <time>2023-06-03T13:55:46Z</time>
      </trkpt>
      <trkpt lat="49.89958" lon="2.29021">
        <ele>21.3</ele>
        <time>2023-06-03T13:55:47Z</time>
      </trkpt>
      <trkpt lat="49.89957" lon="2.29022">
        <ele>21.3</ele>
        <time>2023-06-03T13:55:48Z</time>
      </trkpt>
      <trkpt lat="49.89957" lon="2.29024">
        <ele>21.3</ele>
        <time>2023-06-03T13:55:49Z</time>
      </trkpt>
      <trkpt lat="49.89956" lon="2.29026">
        <ele>21.3</ele>
        <time>2023-06-03T13:55:50Z</time>
      </trkpt>
      <trkpt lat="49.89956" lon="2.29028">
        <ele>21.3</ele>
        <time>2023-06-03T13:55:51Z</time>
      </trkpt>
      <trkpt lat="49.89955" lon="2.2903">
        <ele>21.3</ele>
        <time>2023-06-03T13:55:53Z</time>
      </trkpt>
      <trkpt lat="49.89955" lon="2.29032">
        <ele>21.3</ele>
        <time>2023-06-03T13:55:54Z</time>
      </trkpt>
      <trkpt lat="49.89955" lon="2.29034">
        <ele>21.3</ele>
        <time>2023-06-03T13:55:55Z</time>
      </trkpt>
      <trkpt lat="49.89954" lon="2.29037">
        <ele>21.3</ele>
        <time>2023-06-03T13:55:57Z</time>
      </trkpt>
      <trkpt lat="49.89954" lon="2.29039">
        <ele>21.3</ele>
        <time>2023-06-03T13:55:58Z</time>
      </trkpt>
      <trkpt lat="49.89953" lon="2.29042">
        <ele>21.3</ele>
        <time>2023-06-03T13:55:59Z</time>
      </trkpt>
      <trkpt lat="49.89952" lon="2.29044">
        <ele>21.4</ele>
        <time>2023-06-03T13:56:00Z</time>
      </trkpt>
      <trkpt lat="49.89951" lon="2.29049">
        <ele>21.4</ele>
        <time>2023-06-03T13:56:01Z</time>
      </trkpt>
      <trkpt lat="49.89951" lon="2.2905">
        <ele>21.4</ele>
        <time>2023-06-03T13:56:02Z</time>
      </trkpt>
      <trkpt lat="49.8995" lon="2.29053">
        <ele>21.4</ele>
        <time>2023-06-03T13:56:03Z</time>
      </trkpt>
      <trkpt lat="49.8995" lon="2.29057">
        <ele>21.4</ele>
        <time>2023-06-03T13:56:05Z</time>
      </trkpt>
      <trkpt lat="49.8995" lon="2.29059">
        <ele>21.4</ele>
        <time>2023-06-03T13:56:06Z</time>
      </trkpt>
      <trkpt lat="49.89949" lon="2.29062">
        <ele>21.4</ele>
        <time>2023-06-03T13:56:07Z</time>
      </trkpt>
      <trkpt lat="49.89949" lon="2.29064">
        <ele>21.4</ele>
        <time>2023-06-03T13:56:08Z</time>
      </trkpt>
      <trkpt lat="49.89949" lon="2.29066">
        <ele>21.4</ele>
        <time>2023-06-03T13:56:09Z</time>
      </trkpt>
      <trkpt lat="49.89949" lon="2.29071">
        <ele>21.4</ele>
        <time>2023-06-03T13:56:10Z</time>
      </trkpt>
      <trkpt lat="49.89948" lon="2.29073">
        <ele>21.4</ele>
        <time>2023-06-03T13:56:12Z</time>
      </trkpt>
      <trkpt lat="49.89948" lon="2.29075">
        <ele>21.4</ele>
        <time>2023-06-03T13:56:13Z</time>
      </trkpt>
      <trkpt lat="49.89948" lon="2.29077">
        <ele>21.4</ele>
        <time>2023-06-03T13:56:14Z</time>
      </trkpt>
      <trkpt lat="49.89947" lon="2.2908">
        <ele>21.4</ele>
        <time>2023-06-03T13:56:15Z</time>
      </trkpt>
      <trkpt lat="49.89947" lon="2.29082">
        <ele>21.4</ele>
        <time>2023-06-03T13:56:16Z</time>
      </trkpt>
      <trkpt lat="49.89947" lon="2.29084">
        <ele>21.4</ele>
        <time>2023-06-03T13:56:17Z</time>
      </trkpt>
      <trkpt lat="49.89947" lon="2.29086">
        <ele>21.4</ele>
        <time>2023-06-03T13:56:18Z</time>
      </trkpt>
      <trkpt lat="49.89947" lon="2.29088">
        <ele>21.4</ele>
        <time>2023-06-03T13:56:20Z</time>
      </trkpt>
      <trkpt lat="49.89948" lon="2.2909">
        <ele>21.5</ele>
        <time>2023-06-03T13:56:21Z</time>
      </trkpt>
      <trkpt lat="49.89948" lon="2.29091">
        <ele>21.5</ele>
        <time>2023-06-03T13:56:22Z</time>
      </trkpt>
      <trkpt lat="49.89948" lon="2.29093">
        <ele>21.5</ele>
        <time>2023-06-03T13:56:23Z</time>
      </trkpt>
      <trkpt lat="49.89947" lon="2.29096">
        <ele>21.5</ele>
        <time>2023-06-03T13:56:25Z</time>
      </trkpt>
      <trkpt lat="49.89947" lon="2.29098">
        <ele>21.5</ele>
        <time>2023-06-03T13:56:26Z</time>
      </trkpt>
      <trkpt lat="49.89947" lon="2.29099">
        <ele>21.5</ele>
        <time>2023-06-03T13:56:27Z</time>
      </trkpt>
      <trkpt lat="49.89948" lon="2.29101">
        <ele>21.5</ele>
        <time>2023-06-03T13:56:29Z</time>
      </trkpt>
      <trkpt lat="49.89947" lon="2.29103">
        <ele>21.5</ele>
        <time>2023-06-03T13:56:30Z</time>
      </trkpt>
      <trkpt lat="49.89947" lon="2.29104">
        <ele>21.5</ele>
        <time>2023-06-03T13:56:31Z</time>
      </trkpt>
      <trkpt lat="49.89947" lon="2.29106">
        <ele>21.5</ele>
        <time>2023-06-03T13:56:32Z</time>
      </trkpt>
      <trkpt lat="49.89947" lon="2.29108">
        <ele>21.5</ele>
        <time>2023-06-03T13:56:33Z</time>
      </trkpt>
      <trkpt lat="49.89948" lon="2.2911">
        <ele>21.5</ele>
        <time>2023-06-03T13:56:34Z</time>
      </trkpt>
      <trkpt lat="49.89948" lon="2.29113">
        <ele>21.5</ele>
        <time>2023-06-03T13:56:36Z</time>
      </trkpt>
      <trkpt lat="49.89948" lon="2.29115">
        <ele>21.5</ele>
        <time>2023-06-03T13:56:37Z</time>
      </trkpt>
      <trkpt lat="49.89948" lon="2.29118">
        <ele>21.5</ele>
        <time>2023-06-03T13:56:38Z</time>
      </trkpt>
      <trkpt lat="49.89948" lon="2.29119">
        <ele>21.5</ele>
        <time>2023-06-03T13:56:40Z</time>
      </trkpt>
      <trkpt lat="49.89947" lon="2.2912">
        <ele>21.5</ele>
        <time>2023-06-03T13:56:41Z</time>
      </trkpt>
      <trkpt lat="49.89947" lon="2.29124">
        <ele>21.5</ele>
        <time>2023-06-03T13:56:42Z</time>
      </trkpt>
      <trkpt lat="49.89946" lon="2.29126">
        <ele>21.5</ele>
        <time>2023-06-03T13:56:44Z</time>
      </trkpt>
      <trkpt lat="49.89946" lon="2.29128">
        <ele>21.5</ele>
        <time>2023-06-03T13:56:45Z</time>
      </trkpt>
      <trkpt lat="49.89945" lon="2.2913">
        <ele>21.5</ele>
        <time>2023-06-03T13:56:46Z</time>
      </trkpt>
      <trkpt lat="49.89944" lon="2.29133">
        <ele>21.5</ele>
        <time>2023-06-03T13:56:48Z</time>
      </trkpt>
      <trkpt lat="49.89944" lon="2.29135">
        <ele>21.5</ele>
        <time>2023-06-03T13:56:49Z</time>
      </trkpt>
      <trkpt lat="49.89944" lon="2.29136">
        <ele>21.5</ele>
        <time>2023-06-03T13:56:50Z</time>
      </trkpt>
      <trkpt lat="49.89943" lon="2.29138">
        <ele>21.5</ele>
        <time>2023-06-03T13:56:51Z</time>
      </trkpt>
      <trkpt lat="49.89943" lon="2.2914">
        <ele>21.5</ele>
        <time>2023-06-03T13:56:52Z</time>
      </trkpt>
      <trkpt lat="49.89943" lon="2.29141">
        <ele>21.5</ele>
        <time>2023-06-03T13:56:53Z</time>
      </trkpt>
      <trkpt lat="49.89942" lon="2.29143">
        <ele>21.5</ele>
        <time>2023-06-03T13:56:55Z</time>
      </trkpt>
      <trkpt lat="49.89943" lon="2.29144">
        <ele>21.5</ele>
        <time>2023-06-03T13:56:56Z</time>
      </trkpt>
      <trkpt lat="49.89943" lon="2.29146">
        <ele>21.5</ele>
        <time>2023-06-03T13:56:57Z</time>
      </trkpt>
      <trkpt lat="49.89943" lon="2.29147">
        <ele>21.5</ele>
        <time>2023-06-03T13:56:58Z</time>
      </trkpt>
      <trkpt lat="49.89943" lon="2.29151">
        <ele>21.5</ele>
        <time>2023-06-03T13:57:00Z</time>
      </trkpt>
      <trkpt lat="49.89943" lon="2.29153">
        <ele>21.5</ele>
        <time>2023-06-03T13:57:01Z</time>
      </trkpt>
      <trkpt lat="49.89943" lon="2.29156">
        <ele>21.5</ele>
        <time>2023-06-03T13:57:02Z</time>
      </trkpt>
      <trkpt lat="49.89943" lon="2.29158">
        <ele>21.5</ele>
        <time>2023-06-03T13:57:03Z</time>
      </trkpt>
      <trkpt lat="49.89943" lon="2.29162">
        <ele>21.5</ele>
        <time>2023-06-03T13:57:05Z</time>
      </trkpt>
      <trkpt lat="49.89943" lon="2.29163">
        <ele>21.5</ele>
        <time>2023-06-03T13:57:06Z</time>
      </trkpt>
      <trkpt lat="49.89943" lon="2.29166">
        <ele>21.6</ele>
        <time>2023-06-03T13:57:07Z</time>
      </trkpt>
      <trkpt lat="49.89942" lon="2.29169">
        <ele>21.6</ele>
        <time>2023-06-03T13:57:09Z</time>
      </trkpt>
      <trkpt lat="49.89942" lon="2.29171">
        <ele>21.6</ele>
        <time>2023-06-03T13:57:10Z</time>
      </trkpt>
      <trkpt lat="49.89942" lon="2.29173">
        <ele>21.6</ele>
        <time>2023-06-03T13:57:11Z</time>
      </trkpt>
      <trkpt lat="49.89942" lon="2.29174">
        <ele>21.6</ele>
        <time>2023-06-03T13:57:12Z</time>
      </trkpt>
      <trkpt lat="49.89942" lon="2.29176">
        <ele>21.6</ele>
        <time>2023-06-03T13:57:13Z</time>
      </trkpt>
      <trkpt lat="49.89941" lon="2.29178">
        <ele>21.6</ele>
        <time>2023-06-03T13:57:14Z</time>
      </trkpt>
      <trkpt lat="49.89941" lon="2.29181">
        <ele>21.6</ele>
        <time>2023-06-03T13:57:15Z</time>
      </trkpt>
      <trkpt lat="49.89941" lon="2.29183">
        <ele>21.6</ele>
        <time>2023-06-03T13:57:16Z</time>
      </trkpt>
      <trkpt lat="49.8994" lon="2.29184">
        <ele>21.6</ele>
        <time>2023-06-03T13:57:17Z</time>
      </trkpt>
      <trkpt lat="49.8994" lon="2.29186">
        <ele>21.6</ele>
        <time>2023-06-03T13:57:19Z</time>
      </trkpt>
      <trkpt lat="49.89939" lon="2.29191">
        <ele>21.6</ele>
        <time>2023-06-03T13:57:20Z</time>
      </trkpt>
      <trkpt lat="49.89939" lon="2.29194">
        <ele>21.6</ele>
        <time>2023-06-03T13:57:21Z</time>
      </trkpt>
      <trkpt lat="49.89939" lon="2.29195">
        <ele>21.6</ele>
        <time>2023-06-03T13:57:23Z</time>
      </trkpt>
      <trkpt lat="49.89938" lon="2.29196">
        <ele>21.6</ele>
        <time>2023-06-03T13:57:24Z</time>
      </trkpt>
      <trkpt lat="49.89938" lon="2.29199">
        <ele>21.6</ele>
        <time>2023-06-03T13:57:25Z</time>
      </trkpt>
      <trkpt lat="49.89937" lon="2.29201">
        <ele>21.6</ele>
        <time>2023-06-03T13:57:26Z</time>
      </trkpt>
      <trkpt lat="49.89937" lon="2.29202">
        <ele>21.6</ele>
        <time>2023-06-03T13:57:27Z</time>
      </trkpt>
      <trkpt lat="49.89937" lon="2.29204">
        <ele>21.6</ele>
        <time>2023-06-03T13:57:28Z</time>
      </trkpt>
      <trkpt lat="49.89936" lon="2.29205">
        <ele>21.6</ele>
        <time>2023-06-03T13:57:29Z</time>
      </trkpt>
      <trkpt lat="49.89936" lon="2.29208">
        <ele>21.6</ele>
        <time>2023-06-03T13:57:31Z</time>
      </trkpt>
      <trkpt lat="49.89935" lon="2.2921">
        <ele>21.6</ele>
        <time>2023-06-03T13:57:32Z</time>
      </trkpt>
      <trkpt lat="49.89934" lon="2.29214">
        <ele>21.6</ele>
        <time>2023-06-03T13:57:33Z</time>
      </trkpt>
      <trkpt lat="49.89934" lon="2.29216">
        <ele>21.6</ele>
        <time>2023-06-03T13:57:34Z</time>
      </trkpt>
      <trkpt lat="49.89933" lon="2.29222">
        <ele>21.7</ele>
        <time>2023-06-03T13:57:36Z</time>
      </trkpt>
      <trkpt lat="49.89932" lon="2.29224">
        <ele>21.7</ele>
        <time>2023-06-03T13:57:37Z</time>
      </trkpt>
      <trkpt lat="49.89932" lon="2.29226">
        <ele>21.7</ele>
        <time>2023-06-03T13:57:38Z</time>
      </trkpt>
      <trkpt lat="49.89931" lon="2.29229">
        <ele>21.7</ele>
        <time>2023-06-03T13:57:39Z</time>
      </trkpt>
      <trkpt lat="49.89931" lon="2.29231">
        <ele>21.7</ele>
        <time>2023-06-03T13:57:40Z</time>
      </trkpt>
      <trkpt lat="49.8993" lon="2.29232">
        <ele>21.7</ele>
        <time>2023-06-03T13:57:42Z</time>
      </trkpt>
      <trkpt lat="49.8993" lon="2.29233">
        <ele>21.7</ele>
        <time>2023-06-03T13:57:43Z</time>
      </trkpt>
      <trkpt lat="49.8993" lon="2.29235">
        <ele>21.7</ele>
        <time>2023-06-03T13:57:44Z</time>
      </trkpt>
      <trkpt lat="49.89929" lon="2.29236">
        <ele>21.7</ele>
        <time>2023-06-03T13:57:45Z</time>
      </trkpt>
      <trkpt lat="49.89929" lon="2.29238">
        <ele>21.7</ele>
        <time>2023-06-03T13:57:46Z</time>
      </trkpt>
      <trkpt lat="49.89928" lon="2.29241">
        <ele>21.7</ele>
        <time>2023-06-03T13:57:47Z</time>
      </trkpt>
      <trkpt lat="49.89928" lon="2.29242">
        <ele>21.7</ele>
        <time>2023-06-03T13:57:48Z</time>
      </trkpt>
      <trkpt lat="49.89928" lon="2.29244">
        <ele>21.7</ele>
        <time>2023-06-03T13:57:49Z</time>
      </trkpt>
      <trkpt lat="49.89927" lon="2.29245">
        <ele>21.7</ele>
        <time>2023-06-03T13:57:50Z</time>
      </trkpt>
      <trkpt lat="49.89926" lon="2.29249">
        <ele>21.8</ele>
        <time>2023-06-03T13:57:52Z</time>
      </trkpt>
      <trkpt lat="49.89926" lon="2.29251">
        <ele>21.8</ele>
        <time>2023-06-03T13:57:53Z</time>
      </trkpt>
      <trkpt lat="49.89926" lon="2.29253">
        <ele>21.8</ele>
        <time>2023-06-03T13:57:54Z</time>
      </trkpt>
      <trkpt lat="49.89926" lon="2.29254">
        <ele>21.8</ele>
        <time>2023-06-03T13:57:55Z</time>
      </trkpt>
      <trkpt lat="49.89926" lon="2.29258">
        <ele>22.2</ele>
        <time>2023-06-03T13:57:57Z</time>
      </trkpt>
      <trkpt lat="49.89925" lon="2.29259">
        <ele>22.2</ele>
        <time>2023-06-03T13:57:58Z</time>
      </trkpt>
      <trkpt lat="49.89925" lon="2.2926">
        <ele>22.3</ele>
        <time>2023-06-03T13:57:59Z</time>
      </trkpt>
      <trkpt lat="49.89925" lon="2.29261">
        <ele>22.3</ele>
        <time>2023-06-03T13:58:00Z</time>
      </trkpt>
      <trkpt lat="49.89925" lon="2.29263">
        <ele>22.4</ele>
        <time>2023-06-03T13:58:01Z</time>
      </trkpt>
      <trkpt lat="49.89924" lon="2.29265">
        <ele>22.5</ele>
        <time>2023-06-03T13:58:02Z</time>
      </trkpt>
      <trkpt lat="49.89925" lon="2.29266">
        <ele>22.6</ele>
        <time>2023-06-03T13:58:03Z</time>
      </trkpt>
      <trkpt lat="49.89925" lon="2.29268">
        <ele>22.7</ele>
        <time>2023-06-03T13:58:04Z</time>
      </trkpt>
      <trkpt lat="49.89925" lon="2.29269">
        <ele>22.7</ele>
        <time>2023-06-03T13:58:05Z</time>
      </trkpt>
      <trkpt lat="49.89925" lon="2.29273">
        <ele>22.9</ele>
        <time>2023-06-03T13:58:07Z</time>
      </trkpt>
      <trkpt lat="49.89925" lon="2.29274">
        <ele>22.9</ele>
        <time>2023-06-03T13:58:08Z</time>
      </trkpt>
      <trkpt lat="49.89925" lon="2.29275">
        <ele>23</ele>
        <time>2023-06-03T13:58:09Z</time>
      </trkpt>
      <trkpt lat="49.89925" lon="2.29277">
        <ele>23.1</ele>
        <time>2023-06-03T13:58:10Z</time>
      </trkpt>
      <trkpt lat="49.89925" lon="2.29278">
        <ele>23.1</ele>
        <time>2023-06-03T13:58:11Z</time>
      </trkpt>
      <trkpt lat="49.89926" lon="2.2928">
        <ele>23.2</ele>
        <time>2023-06-03T13:58:12Z</time>
      </trkpt>
      <trkpt lat="49.89926" lon="2.29281">
        <ele>23.3</ele>
        <time>2023-06-03T13:58:14Z</time>
      </trkpt>
      <trkpt lat="49.89927" lon="2.29282">
        <ele>23.3</ele>
        <time>2023-06-03T13:58:15Z</time>
      </trkpt>
      <trkpt lat="49.89927" lon="2.29284">
        <ele>23.4</ele>
        <time>2023-06-03T13:58:16Z</time>
      </trkpt>
      <trkpt lat="49.89927" lon="2.29285">
        <ele>23.5</ele>
        <time>2023-06-03T13:58:17Z</time>
      </trkpt>
      <trkpt lat="49.89927" lon="2.29286">
        <ele>23.5</ele>
        <time>2023-06-03T13:58:18Z</time>
      </trkpt>
      <trkpt lat="49.89927" lon="2.29287">
        <ele>23.5</ele>
        <time>2023-06-03T13:58:19Z</time>
      </trkpt>
      <trkpt lat="49.89928" lon="2.29288">
        <ele>23.6</ele>
        <time>2023-06-03T13:58:20Z</time>
      </trkpt>
      <trkpt lat="49.89928" lon="2.29289">
        <ele>23.6</ele>
        <time>2023-06-03T13:58:22Z</time>
      </trkpt>
      <trkpt lat="49.89929" lon="2.29291">
        <ele>23.7</ele>
        <time>2023-06-03T13:58:23Z</time>
      </trkpt>
      <trkpt lat="49.89929" lon="2.29292">
        <ele>23.8</ele>
        <time>2023-06-03T13:58:24Z</time>
      </trkpt>
      <trkpt lat="49.8993" lon="2.29293">
        <ele>23.8</ele>
        <time>2023-06-03T13:58:25Z</time>
      </trkpt>
      <trkpt lat="49.8993" lon="2.29295">
        <ele>23.9</ele>
        <time>2023-06-03T13:58:26Z</time>
      </trkpt>
      <trkpt lat="49.89931" lon="2.29296">
        <ele>23.9</ele>
        <time>2023-06-03T13:58:27Z</time>
      </trkpt>
      <trkpt lat="49.89932" lon="2.29298">
        <ele>24</ele>
        <time>2023-06-03T13:58:28Z</time>
      </trkpt>
      <trkpt lat="49.89933" lon="2.29299">
        <ele>24.1</ele>
        <time>2023-06-03T13:58:30Z</time>
      </trkpt>
      <trkpt lat="49.89934" lon="2.29301">
        <ele>24.1</ele>
        <time>2023-06-03T13:58:31Z</time>
      </trkpt>
      <trkpt lat="49.89935" lon="2.29304">
        <ele>24.3</ele>
        <time>2023-06-03T13:58:32Z</time>
      </trkpt>
      <trkpt lat="49.89935" lon="2.29305">
        <ele>24.3</ele>
        <time>2023-06-03T13:58:33Z</time>
      </trkpt>
      <trkpt lat="49.89936" lon="2.29307">
        <ele>24.3</ele>
        <time>2023-06-03T13:58:34Z</time>
      </trkpt>
      <trkpt lat="49.89937" lon="2.29308">
        <ele>24.4</ele>
        <time>2023-06-03T13:58:35Z</time>
      </trkpt>
      <trkpt lat="49.89937" lon="2.29309">
        <ele>24.4</ele>
        <time>2023-06-03T13:58:36Z</time>
      </trkpt>
      <trkpt lat="49.89938" lon="2.2931">
        <ele>24.4</ele>
        <time>2023-06-03T13:58:38Z</time>
      </trkpt>
      <trkpt lat="49.89939" lon="2.29311">
        <ele>24.4</ele>
        <time>2023-06-03T13:58:39Z</time>
      </trkpt>
      <trkpt lat="49.8994" lon="2.29312">
        <ele>24.4</ele>
        <time>2023-06-03T13:58:40Z</time>
      </trkpt>
      <trkpt lat="49.8994" lon="2.29313">
        <ele>24.5</ele>
        <time>2023-06-03T13:58:41Z</time>
      </trkpt>
      <trkpt lat="49.89941" lon="2.29315">
        <ele>24.5</ele>
        <time>2023-06-03T13:58:42Z</time>
      </trkpt>
      <trkpt lat="49.89941" lon="2.29317">
        <ele>24.5</ele>
        <time>2023-06-03T13:58:43Z</time>
      </trkpt>
      <trkpt lat="49.8994" lon="2.29318">
        <ele>24.5</ele>
        <time>2023-06-03T13:58:45Z</time>
      </trkpt>
      <trkpt lat="49.89939" lon="2.2932">
        <ele>24.5</ele>
        <time>2023-06-03T13:58:46Z</time>
      </trkpt>
      <trkpt lat="49.89937" lon="2.29321">
        <ele>24.6</ele>
        <time>2023-06-03T13:58:47Z</time>
      </trkpt>
      <trkpt lat="49.89936" lon="2.29323">
        <ele>24.6</ele>
        <time>2023-06-03T13:58:48Z</time>
      </trkpt>
      <trkpt lat="49.89934" lon="2.29325">
        <ele>24.6</ele>
        <time>2023-06-03T13:58:49Z</time>
      </trkpt>
      <trkpt lat="49.89934" lon="2.29326">
        <ele>24.6</ele>
        <time>2023-06-03T13:58:50Z</time>
      </trkpt>
      <trkpt lat="49.89933" lon="2.29327">
        <ele>24.6</ele>
        <time>2023-06-03T13:58:51Z</time>
      </trkpt>
      <trkpt lat="49.89932" lon="2.29329">
        <ele>24.6</ele>
        <time>2023-06-03T13:58:52Z</time>
      </trkpt>
      <trkpt lat="49.89931" lon="2.2933">
        <ele>24.6</ele>
        <time>2023-06-03T13:58:53Z</time>
      </trkpt>
      <trkpt lat="49.8993" lon="2.29332">
        <ele>24.5</ele>
        <time>2023-06-03T13:58:55Z</time>
      </trkpt>
      <trkpt lat="49.89928" lon="2.29334">
        <ele>24.5</ele>
        <time>2023-06-03T13:58:56Z</time>
      </trkpt>
      <trkpt lat="49.89927" lon="2.29336">
        <ele>24.5</ele>
        <time>2023-06-03T13:58:57Z</time>
      </trkpt>
      <trkpt lat="49.89926" lon="2.29337">
        <ele>24.4</ele>
        <time>2023-06-03T13:58:59Z</time>
      </trkpt>
      <trkpt lat="49.89925" lon="2.29338">
        <ele>24.4</ele>
        <time>2023-06-03T13:59:00Z</time>
      </trkpt>
      <trkpt lat="49.89925" lon="2.29338">
        <ele>24.4</ele>
        <time>2023-06-03T13:59:01Z</time>
      </trkpt>
      <trkpt lat="49.89923" lon="2.29338">
        <ele>24.3</ele>
        <time>2023-06-03T13:59:02Z</time>
      </trkpt>
      <trkpt lat="49.89922" lon="2.29337">
        <ele>24.3</ele>
        <time>2023-06-03T13:59:03Z</time>
      </trkpt>
      <trkpt lat="49.8992" lon="2.29336">
        <ele>24.2</ele>
        <time>2023-06-03T13:59:04Z</time>
      </trkpt>
      <trkpt lat="49.89917" lon="2.29333">
        <ele>24.1</ele>
        <time>2023-06-03T13:59:05Z</time>
      </trkpt>
      <trkpt lat="49.89916" lon="2.29332">
        <ele>24</ele>
        <time>2023-06-03T13:59:07Z</time>
      </trkpt>
      <trkpt lat="49.89914" lon="2.29331">
        <ele>24</ele>
        <time>2023-06-03T13:59:08Z</time>
      </trkpt>
      <trkpt lat="49.89913" lon="2.2933">
        <ele>23.9</ele>
        <time>2023-06-03T13:59:09Z</time>
      </trkpt>
      <trkpt lat="49.89911" lon="2.2933">
        <ele>23.8</ele>
        <time>2023-06-03T13:59:10Z</time>
      </trkpt>
      <trkpt lat="49.8991" lon="2.2933">
        <ele>23.8</ele>
        <time>2023-06-03T13:59:12Z</time>
      </trkpt>
      <trkpt lat="49.89908" lon="2.2933">
        <ele>23.7</ele>
        <time>2023-06-03T13:59:13Z</time>
      </trkpt>
      <trkpt lat="49.89907" lon="2.2933">
        <ele>23.7</ele>
        <time>2023-06-03T13:59:14Z</time>
      </trkpt>
      <trkpt lat="49.89905" lon="2.2933">
        <ele>23.6</ele>
        <time>2023-06-03T13:59:15Z</time>
      </trkpt>
      <trkpt lat="49.89904" lon="2.29331">
        <ele>23.6</ele>
        <time>2023-06-03T13:59:16Z</time>
      </trkpt>
      <trkpt lat="49.89903" lon="2.29331">
        <ele>23.6</ele>
        <time>2023-06-03T13:59:17Z</time>
      </trkpt>
      <trkpt lat="49.89901" lon="2.29332">
        <ele>23.6</ele>
        <time>2023-06-03T13:59:18Z</time>
      </trkpt>
      <trkpt lat="49.899" lon="2.29332">
        <ele>23.6</ele>
        <time>2023-06-03T13:59:19Z</time>
      </trkpt>
      <trkpt lat="49.89896" lon="2.29333">
        <ele>23.4</ele>
        <time>2023-06-03T13:59:21Z</time>
      </trkpt>
      <trkpt lat="49.89895" lon="2.29334">
        <ele>23.4</ele>
        <time>2023-06-03T13:59:22Z</time>
      </trkpt>
      <trkpt lat="49.89894" lon="2.29335">
        <ele>23.3</ele>
        <time>2023-06-03T13:59:23Z</time>
      </trkpt>
      <trkpt lat="49.89893" lon="2.29336">
        <ele>23.3</ele>
        <time>2023-06-03T13:59:24Z</time>
      </trkpt>
      <trkpt lat="49.8989" lon="2.29339">
        <ele>23.3</ele>
        <time>2023-06-03T13:59:26Z</time>
      </trkpt>
      <trkpt lat="49.89889" lon="2.2934">
        <ele>23.3</ele>
        <time>2023-06-03T13:59:27Z</time>
      </trkpt>
      <trkpt lat="49.89888" lon="2.29342">
        <ele>23.2</ele>
        <time>2023-06-03T13:59:28Z</time>
      </trkpt>
      <trkpt lat="49.89887" lon="2.29344">
        <ele>23.2</ele>
        <time>2023-06-03T13:59:30Z</time>
      </trkpt>
      <trkpt lat="49.89886" lon="2.29345">
        <ele>23.2</ele>
        <time>2023-06-03T13:59:31Z</time>
      </trkpt>
      <trkpt lat="49.89885" lon="2.29347">
        <ele>23.2</ele>
        <time>2023-06-03T13:59:32Z</time>
      </trkpt>
      <trkpt lat="49.89884" lon="2.29349">
        <ele>23.2</ele>
        <time>2023-06-03T13:59:33Z</time>
      </trkpt>
      <trkpt lat="49.89883" lon="2.29351">
        <ele>23.1</ele>
        <time>2023-06-03T13:59:34Z</time>
      </trkpt>
      <trkpt lat="49.89882" lon="2.29352">
        <ele>23.1</ele>
        <time>2023-06-03T13:59:35Z</time>
      </trkpt>
      <trkpt lat="49.89881" lon="2.29354">
        <ele>23.1</ele>
        <time>2023-06-03T13:59:37Z</time>
      </trkpt>
      <trkpt lat="49.8988" lon="2.29356">
        <ele>23.1</ele>
        <time>2023-06-03T13:59:38Z</time>
      </trkpt>
      <trkpt lat="49.89879" lon="2.29358">
        <ele>23.1</ele>
        <time>2023-06-03T13:59:39Z</time>
      </trkpt>
      <trkpt lat="49.89879" lon="2.29359">
        <ele>23.1</ele>
        <time>2023-06-03T13:59:40Z</time>
      </trkpt>
      <trkpt lat="49.89879" lon="2.29361">
        <ele>23.1</ele>
        <time>2023-06-03T13:59:41Z</time>
      </trkpt>
      <trkpt lat="49.89879" lon="2.29364">
        <ele>23.1</ele>
        <time>2023-06-03T13:59:42Z</time>
      </trkpt>
      <trkpt lat="49.89879" lon="2.29366">
        <ele>23.2</ele>
        <time>2023-06-03T13:59:43Z</time>
      </trkpt>
      <trkpt lat="49.89879" lon="2.29367">
        <ele>23.2</ele>
        <time>2023-06-03T13:59:45Z</time>
      </trkpt>
      <trkpt lat="49.89879" lon="2.29369">
        <ele>23.2</ele>
        <time>2023-06-03T13:59:46Z</time>
      </trkpt>
      <trkpt lat="49.89879" lon="2.2937">
        <ele>23.2</ele>
        <time>2023-06-03T13:59:47Z</time>
      </trkpt>
      <trkpt lat="49.89879" lon="2.29371">
        <ele>23.2</ele>
        <time>2023-06-03T13:59:48Z</time>
      </trkpt>
      <trkpt lat="49.89879" lon="2.29375">
        <ele>23.2</ele>
        <time>2023-06-03T13:59:49Z</time>
      </trkpt>
      <trkpt lat="49.89879" lon="2.29376">
        <ele>23.2</ele>
        <time>2023-06-03T13:59:50Z</time>
      </trkpt>
      <trkpt lat="49.89879" lon="2.29378">
        <ele>23.2</ele>
        <time>2023-06-03T13:59:51Z</time>
      </trkpt>
      <trkpt lat="49.89878" lon="2.2938">
        <ele>23.2</ele>
        <time>2023-06-03T13:59:53Z</time>
      </trkpt>
      <trkpt lat="49.89878" lon="2.29382">
        <ele>23.2</ele>
        <time>2023-06-03T13:59:54Z</time>
      </trkpt>
      <trkpt lat="49.89878" lon="2.29384">
        <ele>23.3</ele>
        <time>2023-06-03T13:59:56Z</time>
      </trkpt>
      <trkpt lat="49.89878" lon="2.29386">
        <ele>23.3</ele>
        <time>2023-06-03T13:59:57Z</time>
      </trkpt>
      <trkpt lat="49.89877" lon="2.29389">
        <ele>23.3</ele>
        <time>2023-06-03T13:59:58Z</time>
      </trkpt>
      <trkpt lat="49.89877" lon="2.2939">
        <ele>23.3</ele>
        <time>2023-06-03T13:59:59Z</time>
      </trkpt>
      <trkpt lat="49.89877" lon="2.29392">
        <ele>23.3</ele>
        <time>2023-06-03T14:00:00Z</time>
      </trkpt>
      <trkpt lat="49.89877" lon="2.29394">
        <ele>23.3</ele>
        <time>2023-06-03T14:00:01Z</time>
      </trkpt>
      <trkpt lat="49.89877" lon="2.29396">
        <ele>23.4</ele>
        <time>2023-06-03T14:00:02Z</time>
      </trkpt>
      <trkpt lat="49.89876" lon="2.29399">
        <ele>23.4</ele>
        <time>2023-06-03T14:00:04Z</time>
      </trkpt>
      <trkpt lat="49.89876" lon="2.29401">
        <ele>23.4</ele>
        <time>2023-06-03T14:00:05Z</time>
      </trkpt>
      <trkpt lat="49.89876" lon="2.29403">
        <ele>23.4</ele>
        <time>2023-06-03T14:00:06Z</time>
      </trkpt>
      <trkpt lat="49.89875" lon="2.29406">
        <ele>23.4</ele>
        <time>2023-06-03T14:00:07Z</time>
      </trkpt>
      <trkpt lat="49.89875" lon="2.29408">
        <ele>23.5</ele>
        <time>2023-06-03T14:00:08Z</time>
      </trkpt>
      <trkpt lat="49.89875" lon="2.29409">
        <ele>23.5</ele>
        <time>2023-06-03T14:00:10Z</time>
      </trkpt>
      <trkpt lat="49.89874" lon="2.29411">
        <ele>23.5</ele>
        <time>2023-06-03T14:00:11Z</time>
      </trkpt>
      <trkpt lat="49.89874" lon="2.29412">
        <ele>23.5</ele>
        <time>2023-06-03T14:00:12Z</time>
      </trkpt>
      <trkpt lat="49.89874" lon="2.29415">
        <ele>23.5</ele>
        <time>2023-06-03T14:00:14Z</time>
      </trkpt>
      <trkpt lat="49.89873" lon="2.29417">
        <ele>23.5</ele>
        <time>2023-06-03T14:00:15Z</time>
      </trkpt>
      <trkpt lat="49.89873" lon="2.29419">
        <ele>23.6</ele>
        <time>2023-06-03T14:00:16Z</time>
      </trkpt>
      <trkpt lat="49.89873" lon="2.29422">
        <ele>23.6</ele>
        <time>2023-06-03T14:00:17Z</time>
      </trkpt>
      <trkpt lat="49.89873" lon="2.29424">
        <ele>23.6</ele>
        <time>2023-06-03T14:00:19Z</time>
      </trkpt>
      <trkpt lat="49.89873" lon="2.29426">
        <ele>23.6</ele>
        <time>2023-06-03T14:00:20Z</time>
      </trkpt>
      <trkpt lat="49.89873" lon="2.29427">
        <ele>23.6</ele>
        <time>2023-06-03T14:00:21Z</time>
      </trkpt>
      <trkpt lat="49.89873" lon="2.2943">
        <ele>23.7</ele>
        <time>2023-06-03T14:00:23Z</time>
      </trkpt>
      <trkpt lat="49.89873" lon="2.29432">
        <ele>23.7</ele>
        <time>2023-06-03T14:00:24Z</time>
      </trkpt>
      <trkpt lat="49.89872" lon="2.29433">
        <ele>23.7</ele>
        <time>2023-06-03T14:00:25Z</time>
      </trkpt>
      <trkpt lat="49.89872" lon="2.29435">
        <ele>23.7</ele>
        <time>2023-06-03T14:00:26Z</time>
      </trkpt>
      <trkpt lat="49.89871" lon="2.29437">
        <ele>23.7</ele>
        <time>2023-06-03T14:00:27Z</time>
      </trkpt>
      <trkpt lat="49.8987" lon="2.2944">
        <ele>23.8</ele>
        <time>2023-06-03T14:00:28Z</time>
      </trkpt>
      <trkpt lat="49.8987" lon="2.29441">
        <ele>23.8</ele>
        <time>2023-06-03T14:00:30Z</time>
      </trkpt>
      <trkpt lat="49.8987" lon="2.29442">
        <ele>23.8</ele>
        <time>2023-06-03T14:00:31Z</time>
      </trkpt>
      <trkpt lat="49.89868" lon="2.29446">
        <ele>23.8</ele>
        <time>2023-06-03T14:00:32Z</time>
      </trkpt>
      <trkpt lat="49.89868" lon="2.29447">
        <ele>23.9</ele>
        <time>2023-06-03T14:00:34Z</time>
      </trkpt>
      <trkpt lat="49.89867" lon="2.29448">
        <ele>23.9</ele>
        <time>2023-06-03T14:00:35Z</time>
      </trkpt>
      <trkpt lat="49.89866" lon="2.2945">
        <ele>23.9</ele>
        <time>2023-06-03T14:00:36Z</time>
      </trkpt>
      <trkpt lat="49.89864" lon="2.29454">
        <ele>24</ele>
        <time>2023-06-03T14:00:37Z</time>
      </trkpt>
      <trkpt lat="49.89864" lon="2.29454">
        <ele>24</ele>
        <time>2023-06-03T14:00:38Z</time>
      </trkpt>
      <trkpt lat="49.89864" lon="2.29455">
        <ele>24</ele>
        <time>2023-06-03T14:00:39Z</time>
      </trkpt>
      <trkpt lat="49.89863" lon="2.29458">
        <ele>24</ele>
        <time>2023-06-03T14:00:40Z</time>
      </trkpt>
      <trkpt lat="49.89863" lon="2.29459">
        <ele>24</ele>
        <time>2023-06-03T14:00:41Z</time>
      </trkpt>
      <trkpt lat="49.89863" lon="2.29461">
        <ele>24.1</ele>
        <time>2023-06-03T14:00:42Z</time>
      </trkpt>
      <trkpt lat="49.89862" lon="2.29464">
        <ele>24.1</ele>
        <time>2023-06-03T14:00:44Z</time>
      </trkpt>
      <trkpt lat="49.89862" lon="2.29465">
        <ele>24.1</ele>
        <time>2023-06-03T14:00:45Z</time>
      </trkpt>
      <trkpt lat="49.89861" lon="2.29466">
        <ele>24.1</ele>
        <time>2023-06-03T14:00:46Z</time>
      </trkpt>
      <trkpt lat="49.89861" lon="2.29469">
        <ele>24.2</ele>
        <time>2023-06-03T14:00:47Z</time>
      </trkpt>
      <trkpt lat="49.8986" lon="2.2947">
        <ele>24.2</ele>
        <time>2023-06-03T14:00:48Z</time>
      </trkpt>
      <trkpt lat="49.8986" lon="2.29472">
        <ele>24.2</ele>
        <time>2023-06-03T14:00:49Z</time>
      </trkpt>
      <trkpt lat="49.8986" lon="2.29473">
        <ele>24.2</ele>
        <time>2023-06-03T14:00:51Z</time>
      </trkpt>
      <trkpt lat="49.89859" lon="2.29476">
        <ele>24.3</ele>
        <time>2023-06-03T14:00:52Z</time>
      </trkpt>
      <trkpt lat="49.89859" lon="2.29478">
        <ele>24.3</ele>
        <time>2023-06-03T14:00:53Z</time>
      </trkpt>
      <trkpt lat="49.89859" lon="2.29479">
        <ele>24.3</ele>
        <time>2023-06-03T14:00:54Z</time>
      </trkpt>
      <trkpt lat="49.89858" lon="2.29481">
        <ele>24.4</ele>
        <time>2023-06-03T14:00:55Z</time>
      </trkpt>
      <trkpt lat="49.89858" lon="2.29484">
        <ele>24.4</ele>
        <time>2023-06-03T14:00:56Z</time>
      </trkpt>
      <trkpt lat="49.89858" lon="2.29486">
        <ele>24.4</ele>
        <time>2023-06-03T14:00:57Z</time>
      </trkpt>
      <trkpt lat="49.89858" lon="2.29487">
        <ele>24.5</ele>
        <time>2023-06-03T14:00:59Z</time>
      </trkpt>
      <trkpt lat="49.89858" lon="2.29489">
        <ele>24.5</ele>
        <time>2023-06-03T14:01:00Z</time>
      </trkpt>
      <trkpt lat="49.89858" lon="2.2949">
        <ele>24.5</ele>
        <time>2023-06-03T14:01:01Z</time>
      </trkpt>
      <trkpt lat="49.89858" lon="2.29491">
        <ele>24.5</ele>
        <time>2023-06-03T14:01:02Z</time>
      </trkpt>
      <trkpt lat="49.89858" lon="2.29493">
        <ele>24.6</ele>
        <time>2023-06-03T14:01:03Z</time>
      </trkpt>
      <trkpt lat="49.89858" lon="2.29494">
        <ele>24.6</ele>
        <time>2023-06-03T14:01:04Z</time>
      </trkpt>
      <trkpt lat="49.89858" lon="2.29496">
        <ele>24.6</ele>
        <time>2023-06-03T14:01:05Z</time>
      </trkpt>
      <trkpt lat="49.89859" lon="2.29497">
        <ele>24.6</ele>
        <time>2023-06-03T14:01:07Z</time>
      </trkpt>
      <trkpt lat="49.89859" lon="2.295">
        <ele>24.7</ele>
        <time>2023-06-03T14:01:08Z</time>
      </trkpt>
      <trkpt lat="49.89858" lon="2.29501">
        <ele>24.7</ele>
        <time>2023-06-03T14:01:09Z</time>
      </trkpt>
      <trkpt lat="49.89858" lon="2.29504">
        <ele>24.7</ele>
        <time>2023-06-03T14:01:10Z</time>
      </trkpt>
      <trkpt lat="49.89858" lon="2.29505">
        <ele>24.9</ele>
        <time>2023-06-03T14:01:11Z</time>
      </trkpt>
      <trkpt lat="49.89859" lon="2.29506">
        <ele>24.9</ele>
        <time>2023-06-03T14:01:12Z</time>
      </trkpt>
      <trkpt lat="49.89859" lon="2.29507">
        <ele>24.9</ele>
        <time>2023-06-03T14:01:13Z</time>
      </trkpt>
      <trkpt lat="49.89859" lon="2.29508">
        <ele>24.9</ele>
        <time>2023-06-03T14:01:14Z</time>
      </trkpt>
      <trkpt lat="49.89858" lon="2.2951">
        <ele>24.9</ele>
        <time>2023-06-03T14:01:16Z</time>
      </trkpt>
      <trkpt lat="49.89857" lon="2.29509">
        <ele>24.9</ele>
        <time>2023-06-03T14:01:17Z</time>
      </trkpt>
      <trkpt lat="49.89856" lon="2.29509">
        <ele>24.9</ele>
        <time>2023-06-03T14:01:18Z</time>
      </trkpt>
      <trkpt lat="49.89855" lon="2.29508">
        <ele>24.9</ele>
        <time>2023-06-03T14:01:20Z</time>
      </trkpt>
      <trkpt lat="49.89855" lon="2.29508">
        <ele>24.9</ele>
        <time>2023-06-03T14:01:21Z</time>
      </trkpt>
      <trkpt lat="49.89855" lon="2.29508">
        <ele>24.9</ele>
        <time>2023-06-03T14:01:22Z</time>
      </trkpt>
      <trkpt lat="49.89855" lon="2.29508">
        <ele>24.9</ele>
        <time>2023-06-03T14:01:24Z</time>
      </trkpt>
      <trkpt lat="49.89855" lon="2.29508">
        <ele>24.9</ele>
        <time>2023-06-03T14:01:25Z</time>
      </trkpt>
      <trkpt lat="49.89855" lon="2.29508">
        <ele>24.9</ele>
        <time>2023-06-03T14:01:27Z</time>
      </trkpt>
      <trkpt lat="49.89855" lon="2.29508">
        <ele>24.9</ele>
        <time>2023-06-03T14:01:28Z</time>
      </trkpt>
      <trkpt lat="49.89855" lon="2.29508">
        <ele>24.9</ele>
        <time>2023-06-03T14:01:29Z</time>
      </trkpt>
      <trkpt lat="49.89855" lon="2.29508">
        <ele>24.9</ele>
        <time>2023-06-03T14:01:31Z</time>
      </trkpt>
      <trkpt lat="49.89855" lon="2.29508">
        <ele>24.9</ele>
        <time>2023-06-03T14:01:32Z</time>
      </trkpt>
      <trkpt lat="49.89855" lon="2.29508">
        <ele>24.9</ele>
        <time>2023-06-03T14:01:33Z</time>
      </trkpt>
      <trkpt lat="49.89855" lon="2.29508">
        <ele>24.9</ele>
        <time>2023-06-03T14:01:34Z</time>
      </trkpt>
      <trkpt lat="49.89855" lon="2.29508">
        <ele>24.9</ele>
        <time>2023-06-03T14:01:35Z</time>
      </trkpt>
      <trkpt lat="49.89855" lon="2.29508">
        <ele>24.9</ele>
        <time>2023-06-03T14:01:36Z</time>
      </trkpt>
      <trkpt lat="49.89856" lon="2.29508">
        <ele>24.9</ele>
        <time>2023-06-03T14:01:37Z</time>
      </trkpt>
      <trkpt lat="49.89856" lon="2.29508">
        <ele>24.9</ele>
        <time>2023-06-03T14:01:38Z</time>
      </trkpt>
      <trkpt lat="49.89856" lon="2.29508">
        <ele>24.9</ele>
        <time>2023-06-03T14:01:39Z</time>
      </trkpt>
      <trkpt lat="49.89856" lon="2.29508">
        <ele>24.9</ele>
        <time>2023-06-03T14:01:40Z</time>
      </trkpt>
      <trkpt lat="49.89856" lon="2.29508">
        <ele>24.9</ele>
        <time>2023-06-03T14:01:41Z</time>
      </trkpt>
      <trkpt lat="49.89856" lon="2.29508">
        <ele>24.9</ele>
        <time>2023-06-03T14:01:42Z</time>
      </trkpt>
      <trkpt lat="49.89856" lon="2.29508">
        <ele>24.9</ele>
        <time>2023-06-03T14:01:43Z</time>
      </trkpt>
      <trkpt lat="49.89856" lon="2.29508">
        <ele>24.9</ele>
        <time>2023-06-03T14:01:44Z</time>
      </trkpt>
      <trkpt lat="49.89856" lon="2.29508">
        <ele>24.9</ele>
        <time>2023-06-03T14:01:45Z</time>
      </trkpt>
      <trkpt lat="49.89856" lon="2.29508">
        <ele>24.9</ele>
        <time>2023-06-03T14:01:46Z</time>
      </trkpt>
      <trkpt lat="49.89856" lon="2.29508">
        <ele>24.9</ele>
        <time>2023-06-03T14:01:47Z</time>
      </trkpt>
      <trkpt lat="49.89856" lon="2.29508">
        <ele>24.9</ele>
        <time>2023-06-03T14:01:48Z</time>
      </trkpt>
      <trkpt lat="49.89856" lon="2.29508">
        <ele>24.9</ele>
        <time>2023-06-03T14:01:49Z</time>
      </trkpt>
      <trkpt lat="49.89856" lon="2.29508">
        <ele>24.9</ele>
        <time>2023-06-03T14:01:50Z</time>
      </trkpt>
      <trkpt lat="49.89856" lon="2.29508">
        <ele>24.9</ele>
        <time>2023-06-03T14:01:51Z</time>
      </trkpt>
      <trkpt lat="49.89856" lon="2.29508">
        <ele>24.9</ele>
        <time>2023-06-03T14:01:52Z</time>
      </trkpt>
      <trkpt lat="49.89856" lon="2.29508">
        <ele>24.9</ele>
        <time>2023-06-03T14:01:53Z</time>
      </trkpt>
      <trkpt lat="49.89856" lon="2.29508">
        <ele>24.9</ele>
        <time>2023-06-03T14:01:54Z</time>
      </trkpt>
      <trkpt lat="49.89856" lon="2.29508">
        <ele>24.9</ele>
        <time>2023-06-03T14:01:55Z</time>
      </trkpt>
      <trkpt lat="49.89856" lon="2.29508">
        <ele>24.9</ele>
        <time>2023-06-03T14:01:56Z</time>
      </trkpt>
      <trkpt lat="49.89856" lon="2.29508">
        <ele>24.9</ele>
        <time>2023-06-03T14:01:57Z</time>
      </trkpt>
      <trkpt lat="49.89856" lon="2.29508">
        <ele>24.9</ele>
        <time>2023-06-03T14:01:58Z</time>
      </trkpt>
      <trkpt lat="49.89856" lon="2.29508">
        <ele>24.9</ele>
        <time>2023-06-03T14:01:59Z</time>
      </trkpt>
      <trkpt lat="49.89856" lon="2.29508">
        <ele>24.9</ele>
        <time>2023-06-03T14:02:00Z</time>
      </trkpt>
      <trkpt lat="49.89856" lon="2.29505">
        <ele>24.9</ele>
        <time>2023-06-03T14:02:01Z</time>
      </trkpt>
      <trkpt lat="49.89857" lon="2.29503">
        <ele>24.9</ele>
        <time>2023-06-03T14:02:02Z</time>
      </trkpt>
      <trkpt lat="49.89857" lon="2.29504">
        <ele>24.9</ele>
        <time>2023-06-03T14:02:03Z</time>
      </trkpt>
      <trkpt lat="49.89857" lon="2.29504">
        <ele>24.9</ele>
        <time>2023-06-03T14:02:04Z</time>
      </trkpt>
      <trkpt lat="49.89858" lon="2.29506">
        <ele>25</ele>
        <time>2023-06-03T14:02:05Z</time>
      </trkpt>
      <trkpt lat="49.89858" lon="2.29507">
        <ele>25</ele>
        <time>2023-06-03T14:02:06Z</time>
      </trkpt>
      <trkpt lat="49.89858" lon="2.29509">
        <ele>25</ele>
        <time>2023-06-03T14:02:08Z</time>
      </trkpt>
      <trkpt lat="49.89859" lon="2.2951">
        <ele>25</ele>
        <time>2023-06-03T14:02:09Z</time>
      </trkpt>
      <trkpt lat="49.89859" lon="2.29512">
        <ele>25</ele>
        <time>2023-06-03T14:02:10Z</time>
      </trkpt>
      <trkpt lat="49.89859" lon="2.29513">
        <ele>25</ele>
        <time>2023-06-03T14:02:11Z</time>
      </trkpt>
      <trkpt lat="49.89859" lon="2.29516">
        <ele>25</ele>
        <time>2023-06-03T14:02:12Z</time>
      </trkpt>
      <trkpt lat="49.89858" lon="2.29518">
        <ele>25</ele>
        <time>2023-06-03T14:02:13Z</time>
      </trkpt>
      <trkpt lat="49.89857" lon="2.2952">
        <ele>25</ele>
        <time>2023-06-03T14:02:15Z</time>
      </trkpt>
      <trkpt lat="49.89856" lon="2.29522">
        <ele>25</ele>
        <time>2023-06-03T14:02:16Z</time>
      </trkpt>
      <trkpt lat="49.89855" lon="2.29523">
        <ele>25.1</ele>
        <time>2023-06-03T14:02:17Z</time>
      </trkpt>
      <trkpt lat="49.89854" lon="2.29524">
        <ele>25.1</ele>
        <time>2023-06-03T14:02:18Z</time>
      </trkpt>
      <trkpt lat="49.89854" lon="2.29526">
        <ele>25.1</ele>
        <time>2023-06-03T14:02:19Z</time>
      </trkpt>
      <trkpt lat="49.89853" lon="2.29527">
        <ele>25.1</ele>
        <time>2023-06-03T14:02:20Z</time>
      </trkpt>
      <trkpt lat="49.89852" lon="2.29528">
        <ele>25.2</ele>
        <time>2023-06-03T14:02:21Z</time>
      </trkpt>
      <trkpt lat="49.89851" lon="2.29529">
        <ele>25.2</ele>
        <time>2023-06-03T14:02:23Z</time>
      </trkpt>
      <trkpt lat="49.89849" lon="2.2953">
        <ele>25.2</ele>
        <time>2023-06-03T14:02:24Z</time>
      </trkpt>
      <trkpt lat="49.89848" lon="2.2953">
        <ele>25.2</ele>
        <time>2023-06-03T14:02:25Z</time>
      </trkpt>
      <trkpt lat="49.89847" lon="2.29531">
        <ele>25.3</ele>
        <time>2023-06-03T14:02:26Z</time>
      </trkpt>
      <trkpt lat="49.89847" lon="2.29531">
        <ele>25.3</ele>
        <time>2023-06-03T14:02:27Z</time>
      </trkpt>
      <trkpt lat="49.89845" lon="2.29532">
        <ele>25.4</ele>
        <time>2023-06-03T14:02:28Z</time>
      </trkpt>
      <trkpt lat="49.89844" lon="2.29533">
        <ele>25.4</ele>
        <time>2023-06-03T14:02:29Z</time>
      </trkpt>
      <trkpt lat="49.89843" lon="2.29533">
        <ele>25.4</ele>
        <time>2023-06-03T14:02:30Z</time>
      </trkpt>
      <trkpt lat="49.89842" lon="2.29534">
        <ele>25.4</ele>
        <time>2023-06-03T14:02:32Z</time>
      </trkpt>
      <trkpt lat="49.89841" lon="2.29534">
        <ele>25.4</ele>
        <time>2023-06-03T14:02:33Z</time>
      </trkpt>
      <trkpt lat="49.89839" lon="2.29534">
        <ele>25.4</ele>
        <time>2023-06-03T14:02:34Z</time>
      </trkpt>
      <trkpt lat="49.89838" lon="2.29533">
        <ele>25.4</ele>
        <time>2023-06-03T14:02:35Z</time>
      </trkpt>
      <trkpt lat="49.89837" lon="2.29533">
        <ele>25.4</ele>
        <time>2023-06-03T14:02:36Z</time>
      </trkpt>
      <trkpt lat="49.89836" lon="2.29533">
        <ele>25.4</ele>
        <time>2023-06-03T14:02:37Z</time>
      </trkpt>
      <trkpt lat="49.89835" lon="2.29532">
        <ele>25.4</ele>
        <time>2023-06-03T14:02:39Z</time>
      </trkpt>
      <trkpt lat="49.89835" lon="2.29532">
        <ele>25.4</ele>
        <time>2023-06-03T14:02:40Z</time>
      </trkpt>
      <trkpt lat="49.89834" lon="2.29532">
        <ele>25.4</ele>
        <time>2023-06-03T14:02:41Z</time>
      </trkpt>
      <trkpt lat="49.89832" lon="2.29532">
        <ele>25.4</ele>
        <time>2023-06-03T14:02:42Z</time>
      </trkpt>
      <trkpt lat="49.89831" lon="2.29532">
        <ele>25.4</ele>
        <time>2023-06-03T14:02:43Z</time>
      </trkpt>
      <trkpt lat="49.8983" lon="2.29531">
        <ele>25.4</ele>
        <time>2023-06-03T14:02:44Z</time>
      </trkpt>
      <trkpt lat="49.89828" lon="2.2953">
        <ele>25.4</ele>
        <time>2023-06-03T14:02:45Z</time>
      </trkpt>
      <trkpt lat="49.89827" lon="2.2953">
        <ele>25.4</ele>
        <time>2023-06-03T14:02:47Z</time>
      </trkpt>
      <trkpt lat="49.89826" lon="2.2953">
        <ele>25.4</ele>
        <time>2023-06-03T14:02:48Z</time>
      </trkpt>
      <trkpt lat="49.89824" lon="2.2953">
        <ele>25.4</ele>
        <time>2023-06-03T14:02:49Z</time>
      </trkpt>
      <trkpt lat="49.89823" lon="2.2953">
        <ele>25.4</ele>
        <time>2023-06-03T14:02:50Z</time>
      </trkpt>
      <trkpt lat="49.89822" lon="2.2953">
        <ele>25.4</ele>
        <time>2023-06-03T14:02:51Z</time>
      </trkpt>
      <trkpt lat="49.8982" lon="2.2953">
        <ele>25.4</ele>
        <time>2023-06-03T14:02:52Z</time>
      </trkpt>
      <trkpt lat="49.89819" lon="2.2953">
        <ele>25.4</ele>
        <time>2023-06-03T14:02:54Z</time>
      </trkpt>
      <trkpt lat="49.89818" lon="2.2953">
        <ele>25.4</ele>
        <time>2023-06-03T14:02:55Z</time>
      </trkpt>
      <trkpt lat="49.89816" lon="2.29529">
        <ele>25.4</ele>
        <time>2023-06-03T14:02:56Z</time>
      </trkpt>
      <trkpt lat="49.89815" lon="2.29528">
        <ele>25.4</ele>
        <time>2023-06-03T14:02:57Z</time>
      </trkpt>
      <trkpt lat="49.89815" lon="2.29528">
        <ele>25.4</ele>
        <time>2023-06-03T14:02:58Z</time>
      </trkpt>
      <trkpt lat="49.89813" lon="2.29528">
        <ele>25.4</ele>
        <time>2023-06-03T14:02:59Z</time>
      </trkpt>
      <trkpt lat="49.89812" lon="2.29528">
        <ele>25.4</ele>
        <time>2023-06-03T14:03:00Z</time>
      </trkpt>
      <trkpt lat="49.8981" lon="2.2953">
        <ele>25.4</ele>
        <time>2023-06-03T14:03:01Z</time>
      </trkpt>
      <trkpt lat="49.89809" lon="2.29531">
        <ele>25.3</ele>
        <time>2023-06-03T14:03:03Z</time>
      </trkpt>
      <trkpt lat="49.89808" lon="2.29532">
        <ele>25.3</ele>
        <time>2023-06-03T14:03:04Z</time>
      </trkpt>
      <trkpt lat="49.89807" lon="2.29533">
        <ele>25.3</ele>
        <time>2023-06-03T14:03:05Z</time>
      </trkpt>
      <trkpt lat="49.89806" lon="2.29534">
        <ele>25.3</ele>
        <time>2023-06-03T14:03:06Z</time>
      </trkpt>
      <trkpt lat="49.89805" lon="2.29535">
        <ele>25.3</ele>
        <time>2023-06-03T14:03:07Z</time>
      </trkpt>
      <trkpt lat="49.89804" lon="2.29535">
        <ele>25.3</ele>
        <time>2023-06-03T14:03:08Z</time>
      </trkpt>
      <trkpt lat="49.89803" lon="2.29535">
        <ele>25.3</ele>
        <time>2023-06-03T14:03:09Z</time>
      </trkpt>
      <trkpt lat="49.89802" lon="2.29535">
        <ele>25.3</ele>
        <time>2023-06-03T14:03:10Z</time>
      </trkpt>
      <trkpt lat="49.89801" lon="2.29535">
        <ele>25.3</ele>
        <time>2023-06-03T14:03:11Z</time>
      </trkpt>
      <trkpt lat="49.898" lon="2.29534">
        <ele>25.3</ele>
        <time>2023-06-03T14:03:13Z</time>
      </trkpt>
      <trkpt lat="49.89799" lon="2.29533">
        <ele>25.3</ele>
        <time>2023-06-03T14:03:14Z</time>
      </trkpt>
      <trkpt lat="49.89798" lon="2.29533">
        <ele>25.3</ele>
        <time>2023-06-03T14:03:15Z</time>
      </trkpt>
      <trkpt lat="49.89797" lon="2.29533">
        <ele>25.2</ele>
        <time>2023-06-03T14:03:17Z</time>
      </trkpt>
      <trkpt lat="49.89797" lon="2.29533">
        <ele>25.2</ele>
        <time>2023-06-03T14:03:18Z</time>
      </trkpt>
      <trkpt lat="49.89797" lon="2.29533">
        <ele>25.2</ele>
        <time>2023-06-03T14:03:19Z</time>
      </trkpt>
      <trkpt lat="49.89797" lon="2.29533">
        <ele>25.2</ele>
        <time>2023-06-03T14:03:21Z</time>
      </trkpt>
      <trkpt lat="49.89797" lon="2.29533">
        <ele>25.2</ele>
        <time>2023-06-03T14:03:22Z</time>
      </trkpt>
      <trkpt lat="49.89797" lon="2.29533">
        <ele>25.2</ele>
        <time>2023-06-03T14:03:23Z</time>
      </trkpt>
      <trkpt lat="49.89797" lon="2.29533">
        <ele>25.2</ele>
        <time>2023-06-03T14:03:25Z</time>
      </trkpt>
      <trkpt lat="49.89797" lon="2.29533">
        <ele>25.2</ele>
        <time>2023-06-03T14:03:26Z</time>
      </trkpt>
      <trkpt lat="49.89797" lon="2.29532">
        <ele>25.2</ele>
        <time>2023-06-03T14:03:27Z</time>
      </trkpt>
      <trkpt lat="49.89797" lon="2.29531">
        <ele>25.2</ele>
        <time>2023-06-03T14:03:29Z</time>
      </trkpt>
      <trkpt lat="49.89796" lon="2.2953">
        <ele>25.2</ele>
        <time>2023-06-03T14:03:30Z</time>
      </trkpt>
      <trkpt lat="49.89796" lon="2.29529">
        <ele>25.2</ele>
        <time>2023-06-03T14:03:31Z</time>
      </trkpt>
      <trkpt lat="49.89795" lon="2.29529">
        <ele>25.2</ele>
        <time>2023-06-03T14:03:32Z</time>
      </trkpt>
      <trkpt lat="49.89795" lon="2.29528">
        <ele>25.2</ele>
        <time>2023-06-03T14:03:33Z</time>
      </trkpt>
      <trkpt lat="49.89794" lon="2.29527">
        <ele>25.2</ele>
        <time>2023-06-03T14:03:34Z</time>
      </trkpt>
      <trkpt lat="49.89794" lon="2.29527">
        <ele>25.2</ele>
        <time>2023-06-03T14:03:35Z</time>
      </trkpt>
      <trkpt lat="49.89793" lon="2.29526">
        <ele>25.1</ele>
        <time>2023-06-03T14:03:37Z</time>
      </trkpt>
      <trkpt lat="49.89793" lon="2.29526">
        <ele>25.1</ele>
        <time>2023-06-03T14:03:38Z</time>
      </trkpt>
      <trkpt lat="49.89792" lon="2.29525">
        <ele>25.1</ele>
        <time>2023-06-03T14:03:39Z</time>
      </trkpt>
      <trkpt lat="49.89791" lon="2.29524">
        <ele>25.1</ele>
        <time>2023-06-03T14:03:41Z</time>
      </trkpt>
      <trkpt lat="49.89791" lon="2.29524">
        <ele>25.1</ele>
        <time>2023-06-03T14:03:42Z</time>
      </trkpt>
      <trkpt lat="49.8979" lon="2.29523">
        <ele>25.1</ele>
        <time>2023-06-03T14:03:43Z</time>
      </trkpt>
      <trkpt lat="49.89789" lon="2.29523">
        <ele>25.1</ele>
        <time>2023-06-03T14:03:44Z</time>
      </trkpt>
      <trkpt lat="49.89788" lon="2.29522">
        <ele>25.1</ele>
        <time>2023-06-03T14:03:45Z</time>
      </trkpt>
      <trkpt lat="49.89787" lon="2.29522">
        <ele>25.1</ele>
        <time>2023-06-03T14:03:46Z</time>
      </trkpt>
      <trkpt lat="49.89786" lon="2.29521">
        <ele>25.2</ele>
        <time>2023-06-03T14:03:48Z</time>
      </trkpt>
      <trkpt lat="49.89785" lon="2.2952">
        <ele>25.2</ele>
        <time>2023-06-03T14:03:49Z</time>
      </trkpt>
      <trkpt lat="49.89783" lon="2.29519">
        <ele>25.3</ele>
        <time>2023-06-03T14:03:50Z</time>
      </trkpt>
      <trkpt lat="49.89782" lon="2.29519">
        <ele>25.3</ele>
        <time>2023-06-03T14:03:51Z</time>
      </trkpt>
      <trkpt lat="49.89782" lon="2.29518">
        <ele>25.3</ele>
        <time>2023-06-03T14:03:52Z</time>
      </trkpt>
      <trkpt lat="49.89781" lon="2.29518">
        <ele>25.4</ele>
        <time>2023-06-03T14:03:53Z</time>
      </trkpt>
      <trkpt lat="49.8978" lon="2.29518">
        <ele>25.4</ele>
        <time>2023-06-03T14:03:54Z</time>
      </trkpt>
      <trkpt lat="49.8978" lon="2.29518">
        <ele>25.5</ele>
        <time>2023-06-03T14:03:55Z</time>
      </trkpt>
      <trkpt lat="49.89778" lon="2.29518">
        <ele>25.5</ele>
        <time>2023-06-03T14:03:57Z</time>
      </trkpt>
      <trkpt lat="49.89778" lon="2.29518">
        <ele>25.5</ele>
        <time>2023-06-03T14:03:58Z</time>
      </trkpt>
      <trkpt lat="49.89777" lon="2.29519">
        <ele>25.6</ele>
        <time>2023-06-03T14:03:59Z</time>
      </trkpt>
      <trkpt lat="49.89777" lon="2.29519">
        <ele>25.6</ele>
        <time>2023-06-03T14:04:01Z</time>
      </trkpt>
      <trkpt lat="49.89776" lon="2.2952">
        <ele>25.6</ele>
        <time>2023-06-03T14:04:02Z</time>
      </trkpt>
      <trkpt lat="49.89776" lon="2.29521">
        <ele>25.6</ele>
        <time>2023-06-03T14:04:04Z</time>
      </trkpt>
      <trkpt lat="49.89776" lon="2.29521">
        <ele>25.6</ele>
        <time>2023-06-03T14:04:05Z</time>
      </trkpt>
      <trkpt lat="49.89776" lon="2.29522">
        <ele>25.6</ele>
        <time>2023-06-03T14:04:06Z</time>
      </trkpt>
      <trkpt lat="49.89776" lon="2.29522">
        <ele>25.6</ele>
        <time>2023-06-03T14:04:08Z</time>
      </trkpt>
      <trkpt lat="49.89776" lon="2.29523">
        <ele>25.6</ele>
        <time>2023-06-03T14:04:09Z</time>
      </trkpt>
      <trkpt lat="49.89776" lon="2.29523">
        <ele>25.7</ele>
        <time>2023-06-03T14:04:11Z</time>
      </trkpt>
      <trkpt lat="49.89776" lon="2.29523">
        <ele>25.7</ele>
        <time>2023-06-03T14:04:12Z</time>
      </trkpt>
      <trkpt lat="49.89776" lon="2.29523">
        <ele>25.7</ele>
        <time>2023-06-03T14:04:13Z</time>
      </trkpt>
      <trkpt lat="49.89776" lon="2.29523">
        <ele>25.7</ele>
        <time>2023-06-03T14:04:15Z</time>
      </trkpt>
      <trkpt lat="49.89776" lon="2.29523">
        <ele>25.7</ele>
        <time>2023-06-03T14:04:16Z</time>
      </trkpt>
      <trkpt lat="49.89776" lon="2.29523">
        <ele>25.7</ele>
        <time>2023-06-03T14:04:17Z</time>
      </trkpt>
      <trkpt lat="49.89776" lon="2.29523">
        <ele>25.7</ele>
        <time>2023-06-03T14:04:18Z</time>
      </trkpt>
      <trkpt lat="49.89776" lon="2.29523">
        <ele>25.7</ele>
        <time>2023-06-03T14:04:19Z</time>
      </trkpt>
      <trkpt lat="49.89776" lon="2.29523">
        <ele>25.7</ele>
        <time>2023-06-03T14:04:20Z</time>
      </trkpt>
      <trkpt lat="49.89776" lon="2.29523">
        <ele>25.7</ele>
        <time>2023-06-03T14:04:21Z</time>
      </trkpt>
      <trkpt lat="49.89776" lon="2.29523">
        <ele>25.7</ele>
        <time>2023-06-03T14:04:22Z</time>
      </trkpt>
      <trkpt lat="49.89776" lon="2.29523">
        <ele>25.7</ele>
        <time>2023-06-03T14:04:23Z</time>
      </trkpt>
      <trkpt lat="49.89776" lon="2.29523">
        <ele>25.7</ele>
        <time>2023-06-03T14:04:24Z</time>
      </trkpt>
      <trkpt lat="49.89776" lon="2.29523">
        <ele>25.7</ele>
        <time>2023-06-03T14:04:25Z</time>
      </trkpt>
      <trkpt lat="49.89776" lon="2.29523">
        <ele>25.7</ele>
        <time>2023-06-03T14:04:26Z</time>
      </trkpt>
      <trkpt lat="49.89776" lon="2.29523">
        <ele>25.7</ele>
        <time>2023-06-03T14:04:27Z</time>
      </trkpt>
      <trkpt lat="49.89776" lon="2.29523">
        <ele>25.7</ele>
        <time>2023-06-03T14:04:28Z</time>
      </trkpt>
      <trkpt lat="49.89776" lon="2.29523">
        <ele>25.7</ele>
        <time>2023-06-03T14:04:29Z</time>
      </trkpt>
      <trkpt lat="49.89776" lon="2.29523">
        <ele>25.7</ele>
        <time>2023-06-03T14:04:30Z</time>
      </trkpt>
      <trkpt lat="49.89776" lon="2.29523">
        <ele>25.7</ele>
        <time>2023-06-03T14:04:31Z</time>
      </trkpt>
      <trkpt lat="49.89776" lon="2.29523">
        <ele>25.7</ele>
        <time>2023-06-03T14:04:32Z</time>
      </trkpt>
      <trkpt lat="49.89776" lon="2.29523">
        <ele>25.7</ele>
        <time>2023-06-03T14:04:33Z</time>
      </trkpt>
      <trkpt lat="49.89776" lon="2.29523">
        <ele>25.7</ele>
        <time>2023-06-03T14:04:34Z</time>
      </trkpt>
      <trkpt lat="49.89776" lon="2.29523">
        <ele>25.7</ele>
        <time>2023-06-03T14:04:35Z</time>
      </trkpt>
      <trkpt lat="49.89776" lon="2.29523">
        <ele>25.7</ele>
        <time>2023-06-03T14:04:36Z</time>
      </trkpt>
      <trkpt lat="49.89776" lon="2.29523">
        <ele>25.7</ele>
        <time>2023-06-03T14:04:37Z</time>
      </trkpt>
      <trkpt lat="49.89776" lon="2.29523">
        <ele>25.7</ele>
        <time>2023-06-03T14:04:38Z</time>
      </trkpt>
      <trkpt lat="49.89776" lon="2.29523">
        <ele>25.7</ele>
        <time>2023-06-03T14:04:39Z</time>
      </trkpt>
      <trkpt lat="49.89776" lon="2.29523">
        <ele>25.7</ele>
        <time>2023-06-03T14:04:40Z</time>
      </trkpt>
      <trkpt lat="49.89776" lon="2.29523">
        <ele>25.7</ele>
        <time>2023-06-03T14:04:41Z</time>
      </trkpt>
      <trkpt lat="49.89776" lon="2.29523">
        <ele>25.7</ele>
        <time>2023-06-03T14:04:42Z</time>
      </trkpt>
      <trkpt lat="49.89776" lon="2.29523">
        <ele>25.7</ele>
        <time>2023-06-03T14:04:43Z</time>
      </trkpt>
      <trkpt lat="49.89777" lon="2.29522">
        <ele>25.7</ele>
        <time>2023-06-03T14:04:44Z</time>
      </trkpt>
      <trkpt lat="49.89778" lon="2.29522">
        <ele>25.7</ele>
        <time>2023-06-03T14:04:45Z</time>
      </trkpt>
      <trkpt lat="49.89777" lon="2.29524">
        <ele>25.7</ele>
        <time>2023-06-03T14:04:46Z</time>
      </trkpt>
      <trkpt lat="49.89777" lon="2.29525">
        <ele>25.8</ele>
        <time>2023-06-03T14:04:47Z</time>
      </trkpt>
      <trkpt lat="49.89776" lon="2.29527">
        <ele>25.8</ele>
        <time>2023-06-03T14:04:48Z</time>
      </trkpt>
      <trkpt lat="49.89775" lon="2.29528">
        <ele>25.8</ele>
        <time>2023-06-03T14:04:49Z</time>
      </trkpt>
      <trkpt lat="49.89775" lon="2.29529">
        <ele>25.9</ele>
        <time>2023-06-03T14:04:50Z</time>
      </trkpt>
      <trkpt lat="49.89774" lon="2.29531">
        <ele>25.9</ele>
        <time>2023-06-03T14:04:52Z</time>
      </trkpt>
      <trkpt lat="49.89773" lon="2.29533">
        <ele>25.9</ele>
        <time>2023-06-03T14:04:53Z</time>
      </trkpt>
      <trkpt lat="49.89773" lon="2.29534">
        <ele>26</ele>
        <time>2023-06-03T14:04:54Z</time>
      </trkpt>
      <trkpt lat="49.89772" lon="2.29536">
        <ele>26</ele>
        <time>2023-06-03T14:04:55Z</time>
      </trkpt>
      <trkpt lat="49.89771" lon="2.29538">
        <ele>26</ele>
        <time>2023-06-03T14:04:56Z</time>
      </trkpt>
      <trkpt lat="49.8977" lon="2.2954">
        <ele>26.1</ele>
        <time>2023-06-03T14:04:57Z</time>
      </trkpt>
      <trkpt lat="49.8977" lon="2.29543">
        <ele>26.1</ele>
        <time>2023-06-03T14:04:58Z</time>
      </trkpt>
      <trkpt lat="49.89769" lon="2.29546">
        <ele>26.1</ele>
        <time>2023-06-03T14:05:00Z</time>
      </trkpt>
      <trkpt lat="49.89768" lon="2.29548">
        <ele>26.2</ele>
        <time>2023-06-03T14:05:01Z</time>
      </trkpt>
      <trkpt lat="49.89768" lon="2.2955">
        <ele>26.2</ele>
        <time>2023-06-03T14:05:03Z</time>
      </trkpt>
      <trkpt lat="49.89766" lon="2.29551">
        <ele>26.2</ele>
        <time>2023-06-03T14:05:04Z</time>
      </trkpt>
      <trkpt lat="49.89765" lon="2.2955">
        <ele>26.2</ele>
        <time>2023-06-03T14:05:05Z</time>
      </trkpt>
      <trkpt lat="49.89763" lon="2.2955">
        <ele>26.2</ele>
        <time>2023-06-03T14:05:07Z</time>
      </trkpt>
      <trkpt lat="49.89762" lon="2.2955">
        <ele>26.3</ele>
        <time>2023-06-03T14:05:08Z</time>
      </trkpt>
      <trkpt lat="49.89761" lon="2.29548">
        <ele>26.3</ele>
        <time>2023-06-03T14:05:09Z</time>
      </trkpt>
      <trkpt lat="49.89761" lon="2.29548">
        <ele>26.3</ele>
        <time>2023-06-03T14:05:11Z</time>
      </trkpt>
      <trkpt lat="49.89762" lon="2.29548">
        <ele>26.3</ele>
        <time>2023-06-03T14:05:12Z</time>
      </trkpt>
      <trkpt lat="49.89762" lon="2.29548">
        <ele>26.3</ele>
        <time>2023-06-03T14:05:13Z</time>
      </trkpt>
      <trkpt lat="49.89762" lon="2.29548">
        <ele>26.3</ele>
        <time>2023-06-03T14:05:15Z</time>
      </trkpt>
      <trkpt lat="49.89762" lon="2.29548">
        <ele>26.3</ele>
        <time>2023-06-03T14:05:16Z</time>
      </trkpt>
      <trkpt lat="49.89762" lon="2.29548">
        <ele>26.3</ele>
        <time>2023-06-03T14:05:18Z</time>
      </trkpt>
      <trkpt lat="49.89762" lon="2.29548">
        <ele>26.3</ele>
        <time>2023-06-03T14:05:19Z</time>
      </trkpt>
      <trkpt lat="49.89762" lon="2.29547">
        <ele>26.3</ele>
        <time>2023-06-03T14:05:20Z</time>
      </trkpt>
      <trkpt lat="49.89762" lon="2.29547">
        <ele>26.3</ele>
        <time>2023-06-03T14:05:22Z</time>
      </trkpt>
      <trkpt lat="49.89762" lon="2.29547">
        <ele>26.3</ele>
        <time>2023-06-03T14:05:23Z</time>
      </trkpt>
      <trkpt lat="49.89762" lon="2.29547">
        <ele>26.3</ele>
        <time>2023-06-03T14:05:24Z</time>
      </trkpt>
      <trkpt lat="49.89762" lon="2.29547">
        <ele>26.3</ele>
        <time>2023-06-03T14:05:26Z</time>
      </trkpt>
      <trkpt lat="49.89762" lon="2.29547">
        <ele>26.3</ele>
        <time>2023-06-03T14:05:27Z</time>
      </trkpt>
      <trkpt lat="49.89762" lon="2.29547">
        <ele>26.3</ele>
        <time>2023-06-03T14:05:28Z</time>
      </trkpt>
      <trkpt lat="49.89762" lon="2.29547">
        <ele>26.3</ele>
        <time>2023-06-03T14:05:29Z</time>
      </trkpt>
      <trkpt lat="49.89763" lon="2.29547">
        <ele>26.3</ele>
        <time>2023-06-03T14:05:30Z</time>
      </trkpt>
      <trkpt lat="49.89763" lon="2.29547">
        <ele>26.3</ele>
        <time>2023-06-03T14:05:31Z</time>
      </trkpt>
      <trkpt lat="49.89763" lon="2.29547">
        <ele>26.3</ele>
        <time>2023-06-03T14:05:32Z</time>
      </trkpt>
      <trkpt lat="49.89763" lon="2.29546">
        <ele>26.3</ele>
        <time>2023-06-03T14:05:33Z</time>
      </trkpt>
      <trkpt lat="49.89763" lon="2.29546">
        <ele>26.3</ele>
        <time>2023-06-03T14:05:34Z</time>
      </trkpt>
      <trkpt lat="49.89763" lon="2.29546">
        <ele>26.3</ele>
        <time>2023-06-03T14:05:35Z</time>
      </trkpt>
      <trkpt lat="49.89763" lon="2.29546">
        <ele>26.3</ele>
        <time>2023-06-03T14:05:36Z</time>
      </trkpt>
      <trkpt lat="49.89763" lon="2.29546">
        <ele>26.3</ele>
        <time>2023-06-03T14:05:37Z</time>
      </trkpt>
      <trkpt lat="49.89763" lon="2.29546">
        <ele>26.3</ele>
        <time>2023-06-03T14:05:38Z</time>
      </trkpt>
      <trkpt lat="49.89763" lon="2.29546">
        <ele>26.3</ele>
        <time>2023-06-03T14:05:39Z</time>
      </trkpt>
      <trkpt lat="49.89763" lon="2.29546">
        <ele>26.3</ele>
        <time>2023-06-03T14:05:40Z</time>
      </trkpt>
      <trkpt lat="49.89763" lon="2.29546">
        <ele>26.3</ele>
        <time>2023-06-03T14:05:41Z</time>
      </trkpt>
      <trkpt lat="49.89763" lon="2.29546">
        <ele>26.3</ele>
        <time>2023-06-03T14:05:42Z</time>
      </trkpt>
      <trkpt lat="49.89763" lon="2.29546">
        <ele>26.3</ele>
        <time>2023-06-03T14:05:43Z</time>
      </trkpt>
      <trkpt lat="49.89764" lon="2.29546">
        <ele>26.3</ele>
        <time>2023-06-03T14:05:44Z</time>
      </trkpt>
      <trkpt lat="49.89764" lon="2.29545">
        <ele>26.3</ele>
        <time>2023-06-03T14:05:45Z</time>
      </trkpt>
      <trkpt lat="49.89764" lon="2.29545">
        <ele>26.3</ele>
        <time>2023-06-03T14:05:46Z</time>
      </trkpt>
      <trkpt lat="49.89764" lon="2.29545">
        <ele>26.3</ele>
        <time>2023-06-03T14:05:47Z</time>
      </trkpt>
      <trkpt lat="49.89764" lon="2.29545">
        <ele>26.3</ele>
        <time>2023-06-03T14:05:48Z</time>
      </trkpt>
      <trkpt lat="49.89764" lon="2.29545">
        <ele>26.3</ele>
        <time>2023-06-03T14:05:49Z</time>
      </trkpt>
      <trkpt lat="49.89764" lon="2.29545">
        <ele>26.3</ele>
        <time>2023-06-03T14:05:50Z</time>
      </trkpt>
      <trkpt lat="49.89764" lon="2.29545">
        <ele>26.3</ele>
        <time>2023-06-03T14:05:51Z</time>
      </trkpt>
      <trkpt lat="49.89764" lon="2.29545">
        <ele>26.3</ele>
        <time>2023-06-03T14:05:52Z</time>
      </trkpt>
      <trkpt lat="49.89764" lon="2.29545">
        <ele>26.3</ele>
        <time>2023-06-03T14:05:53Z</time>
      </trkpt>
      <trkpt lat="49.89764" lon="2.29545">
        <ele>26.3</ele>
        <time>2023-06-03T14:05:54Z</time>
      </trkpt>
      <trkpt lat="49.89764" lon="2.29545">
        <ele>26.3</ele>
        <time>2023-06-03T14:05:55Z</time>
      </trkpt>
      <trkpt lat="49.89764" lon="2.29545">
        <ele>26.3</ele>
        <time>2023-06-03T14:05:56Z</time>
      </trkpt>
      <trkpt lat="49.89764" lon="2.29544">
        <ele>26.3</ele>
        <time>2023-06-03T14:05:57Z</time>
      </trkpt>
      <trkpt lat="49.89765" lon="2.29544">
        <ele>26.3</ele>
        <time>2023-06-03T14:05:58Z</time>
      </trkpt>
      <trkpt lat="49.89765" lon="2.29544">
        <ele>26.3</ele>
        <time>2023-06-03T14:05:59Z</time>
      </trkpt>
      <trkpt lat="49.89765" lon="2.29544">
        <ele>26.3</ele>
        <time>2023-06-03T14:06:00Z</time>
      </trkpt>
      <trkpt lat="49.89765" lon="2.29544">
        <ele>26.3</ele>
        <time>2023-06-03T14:06:01Z</time>
      </trkpt>
      <trkpt lat="49.89765" lon="2.29544">
        <ele>26.3</ele>
        <time>2023-06-03T14:06:02Z</time>
      </trkpt>
      <trkpt lat="49.89765" lon="2.29544">
        <ele>26.3</ele>
        <time>2023-06-03T14:06:03Z</time>
      </trkpt>
      <trkpt lat="49.89765" lon="2.29544">
        <ele>26.3</ele>
        <time>2023-06-03T14:06:04Z</time>
      </trkpt>
      <trkpt lat="49.89765" lon="2.29544">
        <ele>26.3</ele>
        <time>2023-06-03T14:06:05Z</time>
      </trkpt>
      <trkpt lat="49.89766" lon="2.29544">
        <ele>26.3</ele>
        <time>2023-06-03T14:06:06Z</time>
      </trkpt>
      <trkpt lat="49.89766" lon="2.29544">
        <ele>26.3</ele>
        <time>2023-06-03T14:06:07Z</time>
      </trkpt>
      <trkpt lat="49.89766" lon="2.29544">
        <ele>26.3</ele>
        <time>2023-06-03T14:06:08Z</time>
      </trkpt>
      <trkpt lat="49.89763" lon="2.29542">
        <ele>26.4</ele>
        <time>2023-06-03T14:06:09Z</time>
      </trkpt>
      <trkpt lat="49.89763" lon="2.29541">
        <ele>26.4</ele>
        <time>2023-06-03T14:06:11Z</time>
      </trkpt>
      <trkpt lat="49.89763" lon="2.29542">
        <ele>26.4</ele>
        <time>2023-06-03T14:06:12Z</time>
      </trkpt>
      <trkpt lat="49.89763" lon="2.29543">
        <ele>26.4</ele>
        <time>2023-06-03T14:06:13Z</time>
      </trkpt>
      <trkpt lat="49.89763" lon="2.29544">
        <ele>26.4</ele>
        <time>2023-06-03T14:06:15Z</time>
      </trkpt>
      <trkpt lat="49.89763" lon="2.29545">
        <ele>26.4</ele>
        <time>2023-06-03T14:06:16Z</time>
      </trkpt>
      <trkpt lat="49.89763" lon="2.29545">
        <ele>26.4</ele>
        <time>2023-06-03T14:06:17Z</time>
      </trkpt>
      <trkpt lat="49.89764" lon="2.29544">
        <ele>26.4</ele>
        <time>2023-06-03T14:06:19Z</time>
      </trkpt>
      <trkpt lat="49.89764" lon="2.29543">
        <ele>26.5</ele>
        <time>2023-06-03T14:06:20Z</time>
      </trkpt>
      <trkpt lat="49.89763" lon="2.2954">
        <ele>26.5</ele>
        <time>2023-06-03T14:06:21Z</time>
      </trkpt>
      <trkpt lat="49.89762" lon="2.29539">
        <ele>26.5</ele>
        <time>2023-06-03T14:06:22Z</time>
      </trkpt>
      <trkpt lat="49.89761" lon="2.29538">
        <ele>26.5</ele>
        <time>2023-06-03T14:06:23Z</time>
      </trkpt>
      <trkpt lat="49.89761" lon="2.29537">
        <ele>26.5</ele>
        <time>2023-06-03T14:06:24Z</time>
      </trkpt>
      <trkpt lat="49.8976" lon="2.29536">
        <ele>26.5</ele>
        <time>2023-06-03T14:06:25Z</time>
      </trkpt>
      <trkpt lat="49.89758" lon="2.29534">
        <ele>26.6</ele>
        <time>2023-06-03T14:06:27Z</time>
      </trkpt>
      <trkpt lat="49.89757" lon="2.29533">
        <ele>26.6</ele>
        <time>2023-06-03T14:06:28Z</time>
      </trkpt>
      <trkpt lat="49.89756" lon="2.29532">
        <ele>26.6</ele>
        <time>2023-06-03T14:06:29Z</time>
      </trkpt>
      <trkpt lat="49.89755" lon="2.29532">
        <ele>26.6</ele>
        <time>2023-06-03T14:06:31Z</time>
      </trkpt>
      <trkpt lat="49.89754" lon="2.29531">
        <ele>26.6</ele>
        <time>2023-06-03T14:06:32Z</time>
      </trkpt>
      <trkpt lat="49.89752" lon="2.2953">
        <ele>26.6</ele>
        <time>2023-06-03T14:06:33Z</time>
      </trkpt>
      <trkpt lat="49.89751" lon="2.29529">
        <ele>26.6</ele>
        <time>2023-06-03T14:06:34Z</time>
      </trkpt>
      <trkpt lat="49.8975" lon="2.29528">
        <ele>26.7</ele>
        <time>2023-06-03T14:06:35Z</time>
      </trkpt>
      <trkpt lat="49.89749" lon="2.29528">
        <ele>26.7</ele>
        <time>2023-06-03T14:06:36Z</time>
      </trkpt>
      <trkpt lat="49.89746" lon="2.29528">
        <ele>26.7</ele>
        <time>2023-06-03T14:06:38Z</time>
      </trkpt>
      <trkpt lat="49.89745" lon="2.29528">
        <ele>26.7</ele>
        <time>2023-06-03T14:06:39Z</time>
      </trkpt>
      <trkpt lat="49.89744" lon="2.29528">
        <ele>26.7</ele>
        <time>2023-06-03T14:06:40Z</time>
      </trkpt>
      <trkpt lat="49.89742" lon="2.29529">
        <ele>26.7</ele>
        <time>2023-06-03T14:06:42Z</time>
      </trkpt>
      <trkpt lat="49.89741" lon="2.29529">
        <ele>26.3</ele>
        <time>2023-06-03T14:06:43Z</time>
      </trkpt>
      <trkpt lat="49.8974" lon="2.2953">
        <ele>26.3</ele>
        <time>2023-06-03T14:06:44Z</time>
      </trkpt>
      <trkpt lat="49.8974" lon="2.2953">
        <ele>26.3</ele>
        <time>2023-06-03T14:06:45Z</time>
      </trkpt>
      <trkpt lat="49.89739" lon="2.2953">
        <ele>26.2</ele>
        <time>2023-06-03T14:06:46Z</time>
      </trkpt>
      <trkpt lat="49.89738" lon="2.29531">
        <ele>26.2</ele>
        <time>2023-06-03T14:06:47Z</time>
      </trkpt>
      <trkpt lat="49.89738" lon="2.2953">
        <ele>26.2</ele>
        <time>2023-06-03T14:06:49Z</time>
      </trkpt>
      <trkpt lat="49.89736" lon="2.29529">
        <ele>26.1</ele>
        <time>2023-06-03T14:06:50Z</time>
      </trkpt>
      <trkpt lat="49.89733" lon="2.2953">
        <ele>26</ele>
        <time>2023-06-03T14:06:51Z</time>
      </trkpt>
      <trkpt lat="49.89732" lon="2.29531">
        <ele>25.9</ele>
        <time>2023-06-03T14:06:52Z</time>
      </trkpt>
      <trkpt lat="49.89729" lon="2.29532">
        <ele>25.8</ele>
        <time>2023-06-03T14:06:53Z</time>
      </trkpt>
      <trkpt lat="49.89726" lon="2.29534">
        <ele>25.7</ele>
        <time>2023-06-03T14:06:54Z</time>
      </trkpt>
      <trkpt lat="49.89725" lon="2.29534">
        <ele>25.6</ele>
        <time>2023-06-03T14:06:55Z</time>
      </trkpt>
      <trkpt lat="49.89723" lon="2.29536">
        <ele>25.5</ele>
        <time>2023-06-03T14:06:57Z</time>
      </trkpt>
      <trkpt lat="49.89722" lon="2.29537">
        <ele>25.6</ele>
        <time>2023-06-03T14:06:58Z</time>
      </trkpt>
      <trkpt lat="49.8972" lon="2.29538">
        <ele>25.6</ele>
        <time>2023-06-03T14:06:59Z</time>
      </trkpt>
      <trkpt lat="49.89719" lon="2.29539">
        <ele>25.6</ele>
        <time>2023-06-03T14:07:00Z</time>
      </trkpt>
      <trkpt lat="49.89719" lon="2.29541">
        <ele>25.6</ele>
        <time>2023-06-03T14:07:01Z</time>
      </trkpt>
      <trkpt lat="49.89717" lon="2.29543">
        <ele>25.6</ele>
        <time>2023-06-03T14:07:02Z</time>
      </trkpt>
      <trkpt lat="49.89714" lon="2.29545">
        <ele>25.6</ele>
        <time>2023-06-03T14:07:03Z</time>
      </trkpt>
      <trkpt lat="49.89714" lon="2.29546">
        <ele>25.6</ele>
        <time>2023-06-03T14:07:04Z</time>
      </trkpt>
      <trkpt lat="49.89712" lon="2.2955">
        <ele>25.7</ele>
        <time>2023-06-03T14:07:06Z</time>
      </trkpt>
      <trkpt lat="49.89712" lon="2.29551">
        <ele>25.7</ele>
        <time>2023-06-03T14:07:07Z</time>
      </trkpt>
      <trkpt lat="49.89711" lon="2.29554">
        <ele>25.7</ele>
        <time>2023-06-03T14:07:08Z</time>
      </trkpt>
      <trkpt lat="49.89711" lon="2.29556">
        <ele>25.7</ele>
        <time>2023-06-03T14:07:09Z</time>
      </trkpt>
      <trkpt lat="49.89711" lon="2.29558">
        <ele>25.7</ele>
        <time>2023-06-03T14:07:10Z</time>
      </trkpt>
      <trkpt lat="49.89711" lon="2.29559">
        <ele>25.7</ele>
        <time>2023-06-03T14:07:11Z</time>
      </trkpt>
      <trkpt lat="49.89711" lon="2.29561">
        <ele>25.7</ele>
        <time>2023-06-03T14:07:12Z</time>
      </trkpt>
      <trkpt lat="49.8971" lon="2.29564">
        <ele>25.7</ele>
        <time>2023-06-03T14:07:14Z</time>
      </trkpt>
      <trkpt lat="49.8971" lon="2.29565">
        <ele>25.7</ele>
        <time>2023-06-03T14:07:15Z</time>
      </trkpt>
      <trkpt lat="49.89709" lon="2.29566">
        <ele>25.7</ele>
        <time>2023-06-03T14:07:16Z</time>
      </trkpt>
      <trkpt lat="49.89709" lon="2.2957">
        <ele>25.7</ele>
        <time>2023-06-03T14:07:17Z</time>
      </trkpt>
      <trkpt lat="49.89708" lon="2.29571">
        <ele>25.7</ele>
        <time>2023-06-03T14:07:18Z</time>
      </trkpt>
      <trkpt lat="49.89708" lon="2.29573">
        <ele>25.7</ele>
        <time>2023-06-03T14:07:19Z</time>
      </trkpt>
      <trkpt lat="49.89708" lon="2.29575">
        <ele>25.7</ele>
        <time>2023-06-03T14:07:20Z</time>
      </trkpt>
      <trkpt lat="49.89707" lon="2.29578">
        <ele>25.7</ele>
        <time>2023-06-03T14:07:22Z</time>
      </trkpt>
      <trkpt lat="49.89707" lon="2.2958">
        <ele>25.7</ele>
        <time>2023-06-03T14:07:23Z</time>
      </trkpt>
      <trkpt lat="49.89706" lon="2.29583">
        <ele>25.7</ele>
        <time>2023-06-03T14:07:24Z</time>
      </trkpt>
      <trkpt lat="49.89706" lon="2.29585">
        <ele>25.7</ele>
        <time>2023-06-03T14:07:25Z</time>
      </trkpt>
      <trkpt lat="49.89705" lon="2.29587">
        <ele>25.7</ele>
        <time>2023-06-03T14:07:26Z</time>
      </trkpt>
      <trkpt lat="49.89704" lon="2.29589">
        <ele>25.7</ele>
        <time>2023-06-03T14:07:27Z</time>
      </trkpt>
      <trkpt lat="49.89704" lon="2.29591">
        <ele>25.7</ele>
        <time>2023-06-03T14:07:28Z</time>
      </trkpt>
      <trkpt lat="49.89703" lon="2.29594">
        <ele>25.7</ele>
        <time>2023-06-03T14:07:30Z</time>
      </trkpt>
      <trkpt lat="49.89702" lon="2.29595">
        <ele>25.7</ele>
        <time>2023-06-03T14:07:31Z</time>
      </trkpt>
      <trkpt lat="49.89701" lon="2.29597">
        <ele>25.7</ele>
        <time>2023-06-03T14:07:32Z</time>
      </trkpt>
      <trkpt lat="49.897" lon="2.29599">
        <ele>25.8</ele>
        <time>2023-06-03T14:07:34Z</time>
      </trkpt>
      <trkpt lat="49.89699" lon="2.29602">
        <ele>25.8</ele>
        <time>2023-06-03T14:07:35Z</time>
      </trkpt>
      <trkpt lat="49.89698" lon="2.29603">
        <ele>25.8</ele>
        <time>2023-06-03T14:07:36Z</time>
      </trkpt>
      <trkpt lat="49.89698" lon="2.29604">
        <ele>25.8</ele>
        <time>2023-06-03T14:07:37Z</time>
      </trkpt>
      <trkpt lat="49.89697" lon="2.29606">
        <ele>25.8</ele>
        <time>2023-06-03T14:07:38Z</time>
      </trkpt>
      <trkpt lat="49.89697" lon="2.29607">
        <ele>25.8</ele>
        <time>2023-06-03T14:07:39Z</time>
      </trkpt>
      <trkpt lat="49.89696" lon="2.29608">
        <ele>25.8</ele>
        <time>2023-06-03T14:07:40Z</time>
      </trkpt>
      <trkpt lat="49.89695" lon="2.29613">
        <ele>25.9</ele>
        <time>2023-06-03T14:07:42Z</time>
      </trkpt>
      <trkpt lat="49.89694" lon="2.29614">
        <ele>25.9</ele>
        <time>2023-06-03T14:07:43Z</time>
      </trkpt>
      <trkpt lat="49.89693" lon="2.29617">
        <ele>25.9</ele>
        <time>2023-06-03T14:07:45Z</time>
      </trkpt>
      <trkpt lat="49.89693" lon="2.29618">
        <ele>26</ele>
        <time>2023-06-03T14:07:46Z</time>
      </trkpt>
      <trkpt lat="49.89693" lon="2.29619">
        <ele>26</ele>
        <time>2023-06-03T14:07:47Z</time>
      </trkpt>
      <trkpt lat="49.89692" lon="2.29621">
        <ele>26</ele>
        <time>2023-06-03T14:07:48Z</time>
      </trkpt>
      <trkpt lat="49.89692" lon="2.29624">
        <ele>26</ele>
        <time>2023-06-03T14:07:49Z</time>
      </trkpt>
      <trkpt lat="49.89691" lon="2.29625">
        <ele>26</ele>
        <time>2023-06-03T14:07:50Z</time>
      </trkpt>
      <trkpt lat="49.89691" lon="2.29627">
        <ele>26.1</ele>
        <time>2023-06-03T14:07:51Z</time>
      </trkpt>
      <trkpt lat="49.8969" lon="2.29629">
        <ele>26.1</ele>
        <time>2023-06-03T14:07:53Z</time>
      </trkpt>
      <trkpt lat="49.8969" lon="2.29631">
        <ele>26.1</ele>
        <time>2023-06-03T14:07:54Z</time>
      </trkpt>
      <trkpt lat="49.8969" lon="2.29632">
        <ele>26.1</ele>
        <time>2023-06-03T14:07:55Z</time>
      </trkpt>
      <trkpt lat="49.89689" lon="2.29633">
        <ele>26.1</ele>
        <time>2023-06-03T14:07:56Z</time>
      </trkpt>
      <trkpt lat="49.89689" lon="2.29635">
        <ele>26.2</ele>
        <time>2023-06-03T14:07:58Z</time>
      </trkpt>
      <trkpt lat="49.89688" lon="2.29638">
        <ele>26.2</ele>
        <time>2023-06-03T14:07:59Z</time>
      </trkpt>
      <trkpt lat="49.89687" lon="2.29639">
        <ele>26.2</ele>
        <time>2023-06-03T14:08:00Z</time>
      </trkpt>
      <trkpt lat="49.89687" lon="2.29642">
        <ele>26.2</ele>
        <time>2023-06-03T14:08:01Z</time>
      </trkpt>
      <trkpt lat="49.89686" lon="2.29644">
        <ele>26.2</ele>
        <time>2023-06-03T14:08:02Z</time>
      </trkpt>
      <trkpt lat="49.89686" lon="2.29645">
        <ele>26.3</ele>
        <time>2023-06-03T14:08:03Z</time>
      </trkpt>
      <trkpt lat="49.89685" lon="2.29647">
        <ele>26.3</ele>
        <time>2023-06-03T14:08:05Z</time>
      </trkpt>
      <trkpt lat="49.89685" lon="2.29649">
        <ele>26.3</ele>
        <time>2023-06-03T14:08:06Z</time>
      </trkpt>
      <trkpt lat="49.89684" lon="2.29652">
        <ele>26.3</ele>
        <time>2023-06-03T14:08:07Z</time>
      </trkpt>
      <trkpt lat="49.89684" lon="2.29653">
        <ele>26.3</ele>
        <time>2023-06-03T14:08:08Z</time>
      </trkpt>
      <trkpt lat="49.89683" lon="2.29655">
        <ele>26.3</ele>
        <time>2023-06-03T14:08:09Z</time>
      </trkpt>
      <trkpt lat="49.89683" lon="2.29656">
        <ele>26.3</ele>
        <time>2023-06-03T14:08:10Z</time>
      </trkpt>
      <trkpt lat="49.89683" lon="2.29658">
        <ele>26.3</ele>
        <time>2023-06-03T14:08:11Z</time>
      </trkpt>
      <trkpt lat="49.89683" lon="2.29661">
        <ele>26.3</ele>
        <time>2023-06-03T14:08:13Z</time>
      </trkpt>
      <trkpt lat="49.89683" lon="2.29663">
        <ele>26.3</ele>
        <time>2023-06-03T14:08:14Z</time>
      </trkpt>
      <trkpt lat="49.89683" lon="2.29663">
        <ele>26.3</ele>
        <time>2023-06-03T14:08:15Z</time>
      </trkpt>
      <trkpt lat="49.89684" lon="2.29664">
        <ele>26.3</ele>
        <time>2023-06-03T14:08:17Z</time>
      </trkpt>
      <trkpt lat="49.89684" lon="2.29665">
        <ele>26.3</ele>
        <time>2023-06-03T14:08:18Z</time>
      </trkpt>
      <trkpt lat="49.89685" lon="2.29668">
        <ele>26.3</ele>
        <time>2023-06-03T14:08:19Z</time>
      </trkpt>
      <trkpt lat="49.89685" lon="2.2967">
        <ele>26.3</ele>
        <time>2023-06-03T14:08:20Z</time>
      </trkpt>
      <trkpt lat="49.89685" lon="2.29672">
        <ele>26.3</ele>
        <time>2023-06-03T14:08:21Z</time>
      </trkpt>
      <trkpt lat="49.89684" lon="2.29673">
        <ele>26.3</ele>
        <time>2023-06-03T14:08:22Z</time>
      </trkpt>
      <trkpt lat="49.89684" lon="2.29675">
        <ele>26.3</ele>
        <time>2023-06-03T14:08:23Z</time>
      </trkpt>
      <trkpt lat="49.89684" lon="2.29678">
        <ele>26.3</ele>
        <time>2023-06-03T14:08:25Z</time>
      </trkpt>
      <trkpt lat="49.89683" lon="2.29681">
        <ele>26.3</ele>
        <time>2023-06-03T14:08:26Z</time>
      </trkpt>
      <trkpt lat="49.89683" lon="2.29683">
        <ele>26.3</ele>
        <time>2023-06-03T14:08:28Z</time>
      </trkpt>
      <trkpt lat="49.89683" lon="2.29685">
        <ele>26.3</ele>
        <time>2023-06-03T14:08:29Z</time>
      </trkpt>
      <trkpt lat="49.89682" lon="2.29688">
        <ele>26.3</ele>
        <time>2023-06-03T14:08:30Z</time>
      </trkpt>
      <trkpt lat="49.89682" lon="2.29689">
        <ele>26.3</ele>
        <time>2023-06-03T14:08:31Z</time>
      </trkpt>
      <trkpt lat="49.89681" lon="2.29691">
        <ele>26.3</ele>
        <time>2023-06-03T14:08:33Z</time>
      </trkpt>
      <trkpt lat="49.89681" lon="2.29693">
        <ele>26.3</ele>
        <time>2023-06-03T14:08:34Z</time>
      </trkpt>
      <trkpt lat="49.8968" lon="2.29695">
        <ele>26.3</ele>
        <time>2023-06-03T14:08:35Z</time>
      </trkpt>
      <trkpt lat="49.8968" lon="2.29698">
        <ele>26.3</ele>
        <time>2023-06-03T14:08:36Z</time>
      </trkpt>
      <trkpt lat="49.89679" lon="2.297">
        <ele>26.4</ele>
        <time>2023-06-03T14:08:37Z</time>
      </trkpt>
      <trkpt lat="49.89678" lon="2.29701">
        <ele>26.4</ele>
        <time>2023-06-03T14:08:38Z</time>
      </trkpt>
      <trkpt lat="49.89678" lon="2.29702">
        <ele>26.4</ele>
        <time>2023-06-03T14:08:39Z</time>
      </trkpt>
      <trkpt lat="49.89677" lon="2.29703">
        <ele>26.4</ele>
        <time>2023-06-03T14:08:40Z</time>
      </trkpt>
      <trkpt lat="49.89676" lon="2.29704">
        <ele>26.5</ele>
        <time>2023-06-03T14:08:41Z</time>
      </trkpt>
      <trkpt lat="49.89675" lon="2.29706">
        <ele>26.5</ele>
        <time>2023-06-03T14:08:42Z</time>
      </trkpt>
      <trkpt lat="49.89675" lon="2.29707">
        <ele>26.6</ele>
        <time>2023-06-03T14:08:44Z</time>
      </trkpt>
      <trkpt lat="49.89674" lon="2.29709">
        <ele>26.6</ele>
        <time>2023-06-03T14:08:45Z</time>
      </trkpt>
      <trkpt lat="49.89673" lon="2.29712">
        <ele>26.6</ele>
        <time>2023-06-03T14:08:46Z</time>
      </trkpt>
      <trkpt lat="49.89673" lon="2.29712">
        <ele>26.7</ele>
        <time>2023-06-03T14:08:47Z</time>
      </trkpt>
      <trkpt lat="49.89672" lon="2.29714">
        <ele>26.7</ele>
        <time>2023-06-03T14:08:48Z</time>
      </trkpt>
      <trkpt lat="49.89672" lon="2.29716">
        <ele>27.2</ele>
        <time>2023-06-03T14:08:49Z</time>
      </trkpt>
      <trkpt lat="49.89671" lon="2.29719">
        <ele>27.2</ele>
        <time>2023-06-03T14:08:50Z</time>
      </trkpt>
      <trkpt lat="49.8967" lon="2.2972">
        <ele>27.2</ele>
        <time>2023-06-03T14:08:52Z</time>
      </trkpt>
      <trkpt lat="49.89669" lon="2.29721">
        <ele>27.2</ele>
        <time>2023-06-03T14:08:53Z</time>
      </trkpt>
      <trkpt lat="49.89668" lon="2.29722">
        <ele>27.3</ele>
        <time>2023-06-03T14:08:54Z</time>
      </trkpt>
      <trkpt lat="49.89667" lon="2.29724">
        <ele>27.5</ele>
        <time>2023-06-03T14:08:55Z</time>
      </trkpt>
      <trkpt lat="49.89666" lon="2.29725">
        <ele>27.5</ele>
        <time>2023-06-03T14:08:56Z</time>
      </trkpt>
      <trkpt lat="49.89665" lon="2.29727">
        <ele>27.6</ele>
        <time>2023-06-03T14:08:57Z</time>
      </trkpt>
      <trkpt lat="49.89664" lon="2.29729">
        <ele>27.6</ele>
        <time>2023-06-03T14:08:58Z</time>
      </trkpt>
      <trkpt lat="49.89663" lon="2.29732">
        <ele>27.7</ele>
        <time>2023-06-03T14:09:00Z</time>
      </trkpt>
      <trkpt lat="49.89662" lon="2.29734">
        <ele>27.8</ele>
        <time>2023-06-03T14:09:01Z</time>
      </trkpt>
      <trkpt lat="49.89662" lon="2.29736">
        <ele>27.8</ele>
        <time>2023-06-03T14:09:02Z</time>
      </trkpt>
      <trkpt lat="49.89661" lon="2.29738">
        <ele>27.9</ele>
        <time>2023-06-03T14:09:03Z</time>
      </trkpt>
      <trkpt lat="49.89661" lon="2.29741">
        <ele>27.9</ele>
        <time>2023-06-03T14:09:05Z</time>
      </trkpt>
      <trkpt lat="49.89661" lon="2.29744">
        <ele>28</ele>
        <time>2023-06-03T14:09:06Z</time>
      </trkpt>
      <trkpt lat="49.89661" lon="2.29746">
        <ele>27.9</ele>
        <time>2023-06-03T14:09:07Z</time>
      </trkpt>
      <trkpt lat="49.89661" lon="2.2975">
        <ele>27.9</ele>
        <time>2023-06-03T14:09:08Z</time>
      </trkpt>
      <trkpt lat="49.89661" lon="2.29751">
        <ele>27.8</ele>
        <time>2023-06-03T14:09:10Z</time>
      </trkpt>
      <trkpt lat="49.89661" lon="2.29753">
        <ele>27.8</ele>
        <time>2023-06-03T14:09:11Z</time>
      </trkpt>
      <trkpt lat="49.89661" lon="2.29755">
        <ele>27.8</ele>
        <time>2023-06-03T14:09:12Z</time>
      </trkpt>
      <trkpt lat="49.89661" lon="2.29756">
        <ele>27.8</ele>
        <time>2023-06-03T14:09:13Z</time>
      </trkpt>
      <trkpt lat="49.8966" lon="2.29758">
        <ele>27.7</ele>
        <time>2023-06-03T14:09:14Z</time>
      </trkpt>
      <trkpt lat="49.8966" lon="2.29762">
        <ele>27.7</ele>
        <time>2023-06-03T14:09:15Z</time>
      </trkpt>
      <trkpt lat="49.8966" lon="2.29763">
        <ele>27.7</ele>
        <time>2023-06-03T14:09:16Z</time>
      </trkpt>
      <trkpt lat="49.8966" lon="2.29765">
        <ele>27.7</ele>
        <time>2023-06-03T14:09:18Z</time>
      </trkpt>
      <trkpt lat="49.8966" lon="2.29766">
        <ele>27.6</ele>
        <time>2023-06-03T14:09:19Z</time>
      </trkpt>
      <trkpt lat="49.8966" lon="2.29768">
        <ele>27.6</ele>
        <time>2023-06-03T14:09:20Z</time>
      </trkpt>
      <trkpt lat="49.8966" lon="2.29769">
        <ele>27.6</ele>
        <time>2023-06-03T14:09:21Z</time>
      </trkpt>
      <trkpt lat="49.8966" lon="2.29771">
        <ele>27.6</ele>
        <time>2023-06-03T14:09:22Z</time>
      </trkpt>
      <trkpt lat="49.89661" lon="2.29772">
        <ele>27.6</ele>
        <time>2023-06-03T14:09:23Z</time>
      </trkpt>
      <trkpt lat="49.89661" lon="2.29774">
        <ele>27.6</ele>
        <time>2023-06-03T14:09:25Z</time>
      </trkpt>
      <trkpt lat="49.89662" lon="2.29777">
        <ele>27.5</ele>
        <time>2023-06-03T14:09:26Z</time>
      </trkpt>
      <trkpt lat="49.89663" lon="2.29778">
        <ele>27.5</ele>
        <time>2023-06-03T14:09:27Z</time>
      </trkpt>
      <trkpt lat="49.89664" lon="2.29779">
        <ele>27.5</ele>
        <time>2023-06-03T14:09:28Z</time>
      </trkpt>
      <trkpt lat="49.89665" lon="2.2978">
        <ele>27.5</ele>
        <time>2023-06-03T14:09:29Z</time>
      </trkpt>
      <trkpt lat="49.89666" lon="2.2978">
        <ele>27.5</ele>
        <time>2023-06-03T14:09:30Z</time>
      </trkpt>
      <trkpt lat="49.89668" lon="2.29779">
        <ele>27.4</ele>
        <time>2023-06-03T14:09:31Z</time>
      </trkpt>
      <trkpt lat="49.89669" lon="2.29779">
        <ele>27.4</ele>
        <time>2023-06-03T14:09:33Z</time>
      </trkpt>
      <trkpt lat="49.89669" lon="2.29778">
        <ele>27.4</ele>
        <time>2023-06-03T14:09:34Z</time>
      </trkpt>
      <trkpt lat="49.89671" lon="2.29778">
        <ele>27.4</ele>
        <time>2023-06-03T14:09:35Z</time>
      </trkpt>
      <trkpt lat="49.89672" lon="2.29777">
        <ele>27.4</ele>
        <time>2023-06-03T14:09:36Z</time>
      </trkpt>
      <trkpt lat="49.89674" lon="2.29778">
        <ele>27.4</ele>
        <time>2023-06-03T14:09:37Z</time>
      </trkpt>
      <trkpt lat="49.89674" lon="2.29779">
        <ele>27.4</ele>
        <time>2023-06-03T14:09:38Z</time>
      </trkpt>
      <trkpt lat="49.89675" lon="2.2978">
        <ele>27.4</ele>
        <time>2023-06-03T14:09:39Z</time>
      </trkpt>
      <trkpt lat="49.89676" lon="2.29781">
        <ele>27.4</ele>
        <time>2023-06-03T14:09:41Z</time>
      </trkpt>
      <trkpt lat="49.89676" lon="2.29782">
        <ele>27.3</ele>
        <time>2023-06-03T14:09:42Z</time>
      </trkpt>
      <trkpt lat="49.89677" lon="2.29784">
        <ele>27.3</ele>
        <time>2023-06-03T14:09:43Z</time>
      </trkpt>
      <trkpt lat="49.89677" lon="2.29786">
        <ele>27.3</ele>
        <time>2023-06-03T14:09:44Z</time>
      </trkpt>
      <trkpt lat="49.89676" lon="2.29788">
        <ele>27.3</ele>
        <time>2023-06-03T14:09:45Z</time>
      </trkpt>
      <trkpt lat="49.89675" lon="2.2979">
        <ele>27.3</ele>
        <time>2023-06-03T14:09:47Z</time>
      </trkpt>
      <trkpt lat="49.89675" lon="2.29792">
        <ele>27.4</ele>
        <time>2023-06-03T14:09:48Z</time>
      </trkpt>
      <trkpt lat="49.89674" lon="2.29795">
        <ele>27.4</ele>
        <time>2023-06-03T14:09:49Z</time>
      </trkpt>
      <trkpt lat="49.89674" lon="2.29796">
        <ele>27.4</ele>
        <time>2023-06-03T14:09:50Z</time>
      </trkpt>
      <trkpt lat="49.89674" lon="2.29797">
        <ele>27.4</ele>
        <time>2023-06-03T14:09:51Z</time>
      </trkpt>
      <trkpt lat="49.89674" lon="2.29799">
        <ele>27.4</ele>
        <time>2023-06-03T14:09:52Z</time>
      </trkpt>
      <trkpt lat="49.89673" lon="2.29799">
        <ele>27.4</ele>
        <time>2023-06-03T14:09:53Z</time>
      </trkpt>
      <trkpt lat="49.89673" lon="2.298">
        <ele>27.4</ele>
        <time>2023-06-03T14:09:55Z</time>
      </trkpt>
      <trkpt lat="49.89673" lon="2.29801">
        <ele>27.4</ele>
        <time>2023-06-03T14:09:56Z</time>
      </trkpt>
      <trkpt lat="49.89673" lon="2.29803">
        <ele>27.4</ele>
        <time>2023-06-03T14:09:57Z</time>
      </trkpt>
      <trkpt lat="49.89672" lon="2.29805">
        <ele>27.4</ele>
        <time>2023-06-03T14:09:58Z</time>
      </trkpt>
      <trkpt lat="49.89672" lon="2.29807">
        <ele>27.4</ele>
        <time>2023-06-03T14:09:59Z</time>
      </trkpt>
      <trkpt lat="49.89671" lon="2.2981">
        <ele>27.5</ele>
        <time>2023-06-03T14:10:00Z</time>
      </trkpt>
      <trkpt lat="49.8967" lon="2.29812">
        <ele>27.5</ele>
        <time>2023-06-03T14:10:01Z</time>
      </trkpt>
      <trkpt lat="49.89669" lon="2.29814">
        <ele>27.5</ele>
        <time>2023-06-03T14:10:03Z</time>
      </trkpt>
      <trkpt lat="49.89668" lon="2.29816">
        <ele>27.5</ele>
        <time>2023-06-03T14:10:04Z</time>
      </trkpt>
      <trkpt lat="49.89667" lon="2.29818">
        <ele>27.6</ele>
        <time>2023-06-03T14:10:05Z</time>
      </trkpt>
      <trkpt lat="49.89666" lon="2.2982">
        <ele>27.6</ele>
        <time>2023-06-03T14:10:06Z</time>
      </trkpt>
      <trkpt lat="49.89664" lon="2.29823">
        <ele>27.7</ele>
        <time>2023-06-03T14:10:07Z</time>
      </trkpt>
      <trkpt lat="49.89664" lon="2.29825">
        <ele>27.7</ele>
        <time>2023-06-03T14:10:08Z</time>
      </trkpt>
      <trkpt lat="49.89663" lon="2.29826">
        <ele>27.7</ele>
        <time>2023-06-03T14:10:09Z</time>
      </trkpt>
      <trkpt lat="49.89663" lon="2.29828">
        <ele>27.8</ele>
        <time>2023-06-03T14:10:10Z</time>
      </trkpt>
      <trkpt lat="49.89662" lon="2.29831">
        <ele>27.8</ele>
        <time>2023-06-03T14:10:12Z</time>
      </trkpt>
      <trkpt lat="49.89661" lon="2.29833">
        <ele>27.9</ele>
        <time>2023-06-03T14:10:13Z</time>
      </trkpt>
      <trkpt lat="49.89661" lon="2.29835">
        <ele>27.9</ele>
        <time>2023-06-03T14:10:14Z</time>
      </trkpt>
      <trkpt lat="49.8966" lon="2.29837">
        <ele>27.9</ele>
        <time>2023-06-03T14:10:16Z</time>
      </trkpt>
      <trkpt lat="49.89659" lon="2.29839">
        <ele>28</ele>
        <time>2023-06-03T14:10:17Z</time>
      </trkpt>
      <trkpt lat="49.89659" lon="2.2984">
        <ele>28</ele>
        <time>2023-06-03T14:10:18Z</time>
      </trkpt>
      <trkpt lat="49.89658" lon="2.29842">
        <ele>28</ele>
        <time>2023-06-03T14:10:19Z</time>
      </trkpt>
      <trkpt lat="49.89658" lon="2.29844">
        <ele>28.1</ele>
        <time>2023-06-03T14:10:20Z</time>
      </trkpt>
      <trkpt lat="49.89657" lon="2.29845">
        <ele>28.1</ele>
        <time>2023-06-03T14:10:21Z</time>
      </trkpt>
      <trkpt lat="49.89656" lon="2.29847">
        <ele>28.1</ele>
        <time>2023-06-03T14:10:22Z</time>
      </trkpt>
      <trkpt lat="49.89655" lon="2.2985">
        <ele>28.2</ele>
        <time>2023-06-03T14:10:24Z</time>
      </trkpt>
      <trkpt lat="49.89654" lon="2.29852">
        <ele>28.2</ele>
        <time>2023-06-03T14:10:25Z</time>
      </trkpt>
      <trkpt lat="49.89653" lon="2.29853">
        <ele>28.3</ele>
        <time>2023-06-03T14:10:27Z</time>
      </trkpt>
      <trkpt lat="49.89652" lon="2.29854">
        <ele>28.3</ele>
        <time>2023-06-03T14:10:28Z</time>
      </trkpt>
      <trkpt lat="49.89652" lon="2.29856">
        <ele>28.3</ele>
        <time>2023-06-03T14:10:29Z</time>
      </trkpt>
      <trkpt lat="49.89651" lon="2.29857">
        <ele>28.3</ele>
        <time>2023-06-03T14:10:30Z</time>
      </trkpt>
      <trkpt lat="49.8965" lon="2.29858">
        <ele>28.4</ele>
        <time>2023-06-03T14:10:31Z</time>
      </trkpt>
      <trkpt lat="49.89649" lon="2.29858">
        <ele>28.4</ele>
        <time>2023-06-03T14:10:32Z</time>
      </trkpt>
      <trkpt lat="49.89648" lon="2.29858">
        <ele>28.4</ele>
        <time>2023-06-03T14:10:33Z</time>
      </trkpt>
      <trkpt lat="49.89648" lon="2.29858">
        <ele>28.4</ele>
        <time>2023-06-03T14:10:35Z</time>
      </trkpt>
      <trkpt lat="49.89647" lon="2.29859">
        <ele>28.4</ele>
        <time>2023-06-03T14:10:36Z</time>
      </trkpt>
      <trkpt lat="49.89646" lon="2.29861">
        <ele>28.4</ele>
        <time>2023-06-03T14:10:37Z</time>
      </trkpt>
      <trkpt lat="49.89646" lon="2.29861">
        <ele>28.4</ele>
        <time>2023-06-03T14:10:39Z</time>
      </trkpt>
      <trkpt lat="49.89645" lon="2.29862">
        <ele>28.4</ele>
        <time>2023-06-03T14:10:40Z</time>
      </trkpt>
      <trkpt lat="49.89644" lon="2.29863">
        <ele>28.5</ele>
        <time>2023-06-03T14:10:41Z</time>
      </trkpt>
      <trkpt lat="49.89643" lon="2.29865">
        <ele>28.5</ele>
        <time>2023-06-03T14:10:42Z</time>
      </trkpt>
      <trkpt lat="49.89643" lon="2.29866">
        <ele>28.5</ele>
        <time>2023-06-03T14:10:43Z</time>
      </trkpt>
      <trkpt lat="49.89642" lon="2.29867">
        <ele>28.5</ele>
        <time>2023-06-03T14:10:44Z</time>
      </trkpt>
      <trkpt lat="49.89641" lon="2.29869">
        <ele>28.5</ele>
        <time>2023-06-03T14:10:45Z</time>
      </trkpt>
      <trkpt lat="49.89641" lon="2.2987">
        <ele>28.5</ele>
        <time>2023-06-03T14:10:46Z</time>
      </trkpt>
      <trkpt lat="49.89641" lon="2.29871">
        <ele>28.5</ele>
        <time>2023-06-03T14:10:48Z</time>
      </trkpt>
      <trkpt lat="49.8964" lon="2.29872">
        <ele>28.6</ele>
        <time>2023-06-03T14:10:49Z</time>
      </trkpt>
      <trkpt lat="49.8964" lon="2.29873">
        <ele>28.6</ele>
        <time>2023-06-03T14:10:50Z</time>
      </trkpt>
      <trkpt lat="49.8964" lon="2.29874">
        <ele>28.6</ele>
        <time>2023-06-03T14:10:51Z</time>
      </trkpt>
      <trkpt lat="49.89639" lon="2.29875">
        <ele>28.6</ele>
        <time>2023-06-03T14:10:52Z</time>
      </trkpt>
      <trkpt lat="49.89639" lon="2.29876">
        <ele>28.6</ele>
        <time>2023-06-03T14:10:53Z</time>
      </trkpt>
      <trkpt lat="49.8964" lon="2.29877">
        <ele>28.6</ele>
        <time>2023-06-03T14:10:54Z</time>
      </trkpt>
      <trkpt lat="49.8964" lon="2.29879">
        <ele>28.6</ele>
        <time>2023-06-03T14:10:55Z</time>
      </trkpt>
      <trkpt lat="49.89639" lon="2.29881">
        <ele>28.7</ele>
        <time>2023-06-03T14:10:57Z</time>
      </trkpt>
      <trkpt lat="49.89639" lon="2.29882">
        <ele>28.7</ele>
        <time>2023-06-03T14:10:58Z</time>
      </trkpt>
      <trkpt lat="49.89639" lon="2.29884">
        <ele>28.7</ele>
        <time>2023-06-03T14:10:59Z</time>
      </trkpt>
      <trkpt lat="49.89639" lon="2.29885">
        <ele>28.8</ele>
        <time>2023-06-03T14:11:01Z</time>
      </trkpt>
      <trkpt lat="49.89639" lon="2.29887">
        <ele>28.8</ele>
        <time>2023-06-03T14:11:02Z</time>
      </trkpt>
      <trkpt lat="49.89639" lon="2.29889">
        <ele>28.8</ele>
        <time>2023-06-03T14:11:03Z</time>
      </trkpt>
      <trkpt lat="49.89638" lon="2.2989">
        <ele>28.8</ele>
        <time>2023-06-03T14:11:04Z</time>
      </trkpt>
      <trkpt lat="49.89638" lon="2.29892">
        <ele>28.9</ele>
        <time>2023-06-03T14:11:05Z</time>
      </trkpt>
      <trkpt lat="49.89637" lon="2.29894">
        <ele>28.9</ele>
        <time>2023-06-03T14:11:06Z</time>
      </trkpt>
      <trkpt lat="49.89637" lon="2.29895">
        <ele>28.9</ele>
        <time>2023-06-03T14:11:07Z</time>
      </trkpt>
      <trkpt lat="49.89635" lon="2.29899">
        <ele>29</ele>
        <time>2023-06-03T14:11:09Z</time>
      </trkpt>
      <trkpt lat="49.89635" lon="2.299">
        <ele>29</ele>
        <time>2023-06-03T14:11:10Z</time>
      </trkpt>
      <trkpt lat="49.89635" lon="2.29902">
        <ele>29.1</ele>
        <time>2023-06-03T14:11:12Z</time>
      </trkpt>
      <trkpt lat="49.89634" lon="2.29904">
        <ele>29.1</ele>
        <time>2023-06-03T14:11:13Z</time>
      </trkpt>
      <trkpt lat="49.89633" lon="2.29906">
        <ele>29.1</ele>
        <time>2023-06-03T14:11:14Z</time>
      </trkpt>
      <trkpt lat="49.89633" lon="2.29908">
        <ele>29.1</ele>
        <time>2023-06-03T14:11:15Z</time>
      </trkpt>
      <trkpt lat="49.89632" lon="2.29911">
        <ele>29.1</ele>
        <time>2023-06-03T14:11:16Z</time>
      </trkpt>
      <trkpt lat="49.89632" lon="2.29912">
        <ele>29.1</ele>
        <time>2023-06-03T14:11:17Z</time>
      </trkpt>
      <trkpt lat="49.89631" lon="2.29913">
        <ele>29.1</ele>
        <time>2023-06-03T14:11:18Z</time>
      </trkpt>
      <trkpt lat="49.8963" lon="2.29916">
        <ele>29.2</ele>
        <time>2023-06-03T14:11:19Z</time>
      </trkpt>
      <trkpt lat="49.8963" lon="2.29917">
        <ele>29.2</ele>
        <time>2023-06-03T14:11:20Z</time>
      </trkpt>
      <trkpt lat="49.89629" lon="2.2992">
        <ele>29.2</ele>
        <time>2023-06-03T14:11:21Z</time>
      </trkpt>
      <trkpt lat="49.89629" lon="2.29921">
        <ele>29.2</ele>
        <time>2023-06-03T14:11:23Z</time>
      </trkpt>
      <trkpt lat="49.89628" lon="2.29922">
        <ele>29.2</ele>
        <time>2023-06-03T14:11:24Z</time>
      </trkpt>
      <trkpt lat="49.89627" lon="2.29925">
        <ele>29.1</ele>
        <time>2023-06-03T14:11:25Z</time>
      </trkpt>
      <trkpt lat="49.89626" lon="2.29926">
        <ele>29.1</ele>
        <time>2023-06-03T14:11:26Z</time>
      </trkpt>
      <trkpt lat="49.89626" lon="2.29927">
        <ele>29.1</ele>
        <time>2023-06-03T14:11:27Z</time>
      </trkpt>
      <trkpt lat="49.89625" lon="2.29928">
        <ele>29.1</ele>
        <time>2023-06-03T14:11:28Z</time>
      </trkpt>
      <trkpt lat="49.89623" lon="2.29932">
        <ele>29.1</ele>
        <time>2023-06-03T14:11:30Z</time>
      </trkpt>
      <trkpt lat="49.89622" lon="2.29933">
        <ele>29.1</ele>
        <time>2023-06-03T14:11:31Z</time>
      </trkpt>
      <trkpt lat="49.89622" lon="2.29934">
        <ele>29.1</ele>
        <time>2023-06-03T14:11:32Z</time>
      </trkpt>
      <trkpt lat="49.8962" lon="2.29937">
        <ele>29.1</ele>
        <time>2023-06-03T14:11:34Z</time>
      </trkpt>
      <trkpt lat="49.89619" lon="2.29939">
        <ele>29.1</ele>
        <time>2023-06-03T14:11:35Z</time>
      </trkpt>
      <trkpt lat="49.89618" lon="2.2994">
        <ele>29.1</ele>
        <time>2023-06-03T14:11:36Z</time>
      </trkpt>
      <trkpt lat="49.89617" lon="2.29943">
        <ele>29.1</ele>
        <time>2023-06-03T14:11:38Z</time>
      </trkpt>
      <trkpt lat="49.89616" lon="2.29944">
        <ele>29.1</ele>
        <time>2023-06-03T14:11:39Z</time>
      </trkpt>
      <trkpt lat="49.89615" lon="2.29945">
        <ele>29.1</ele>
        <time>2023-06-03T14:11:40Z</time>
      </trkpt>
      <trkpt lat="49.89615" lon="2.29947">
        <ele>29.1</ele>
        <time>2023-06-03T14:11:41Z</time>
      </trkpt>
      <trkpt lat="49.89614" lon="2.29948">
        <ele>29.1</ele>
        <time>2023-06-03T14:11:42Z</time>
      </trkpt>
      <trkpt lat="49.89614" lon="2.29949">
        <ele>29.1</ele>
        <time>2023-06-03T14:11:43Z</time>
      </trkpt>
      <trkpt lat="49.89613" lon="2.2995">
        <ele>29.1</ele>
        <time>2023-06-03T14:11:44Z</time>
      </trkpt>
      <trkpt lat="49.89612" lon="2.29952">
        <ele>29.1</ele>
        <time>2023-06-03T14:11:46Z</time>
      </trkpt>
      <trkpt lat="49.89611" lon="2.29953">
        <ele>29.1</ele>
        <time>2023-06-03T14:11:47Z</time>
      </trkpt>
      <trkpt lat="49.89611" lon="2.29955">
        <ele>29.1</ele>
        <time>2023-06-03T14:11:48Z</time>
      </trkpt>
      <trkpt lat="49.89611" lon="2.29956">
        <ele>29.1</ele>
        <time>2023-06-03T14:11:50Z</time>
      </trkpt>
      <trkpt lat="49.89612" lon="2.29959">
        <ele>29.1</ele>
        <time>2023-06-03T14:11:51Z</time>
      </trkpt>
      <trkpt lat="49.89612" lon="2.29963">
        <ele>29.1</ele>
        <time>2023-06-03T14:11:52Z</time>
      </trkpt>
      <trkpt lat="49.89611" lon="2.29964">
        <ele>29.2</ele>
        <time>2023-06-03T14:11:53Z</time>
      </trkpt>
      <trkpt lat="49.89611" lon="2.29965">
        <ele>29.2</ele>
        <time>2023-06-03T14:11:54Z</time>
      </trkpt>
      <trkpt lat="49.89611" lon="2.29968">
        <ele>29.2</ele>
        <time>2023-06-03T14:11:55Z</time>
      </trkpt>
      <trkpt lat="49.89612" lon="2.2997">
        <ele>29.2</ele>
        <time>2023-06-03T14:11:56Z</time>
      </trkpt>
      <trkpt lat="49.89612" lon="2.29972">
        <ele>29.2</ele>
        <time>2023-06-03T14:11:57Z</time>
      </trkpt>
      <trkpt lat="49.89612" lon="2.29974">
        <ele>29.2</ele>
        <time>2023-06-03T14:11:59Z</time>
      </trkpt>
      <trkpt lat="49.89611" lon="2.29978">
        <ele>29.2</ele>
        <time>2023-06-03T14:12:00Z</time>
      </trkpt>
      <trkpt lat="49.89611" lon="2.29979">
        <ele>29.2</ele>
        <time>2023-06-03T14:12:01Z</time>
      </trkpt>
      <trkpt lat="49.89611" lon="2.29981">
        <ele>29.3</ele>
        <time>2023-06-03T14:12:02Z</time>
      </trkpt>
      <trkpt lat="49.89611" lon="2.29982">
        <ele>29.3</ele>
        <time>2023-06-03T14:12:03Z</time>
      </trkpt>
      <trkpt lat="49.89611" lon="2.29984">
        <ele>29.3</ele>
        <time>2023-06-03T14:12:04Z</time>
      </trkpt>
      <trkpt lat="49.89611" lon="2.29986">
        <ele>29.3</ele>
        <time>2023-06-03T14:12:05Z</time>
      </trkpt>
      <trkpt lat="49.89611" lon="2.29989">
        <ele>29.3</ele>
        <time>2023-06-03T14:12:07Z</time>
      </trkpt>
      <trkpt lat="49.8961" lon="2.29991">
        <ele>29.2</ele>
        <time>2023-06-03T14:12:08Z</time>
      </trkpt>
      <trkpt lat="49.8961" lon="2.29992">
        <ele>29.1</ele>
        <time>2023-06-03T14:12:09Z</time>
      </trkpt>
      <trkpt lat="49.8961" lon="2.29995">
        <ele>29.1</ele>
        <time>2023-06-03T14:12:11Z</time>
      </trkpt>
      <trkpt lat="49.89609" lon="2.29999">
        <ele>28.9</ele>
        <time>2023-06-03T14:12:12Z</time>
      </trkpt>
      <trkpt lat="49.89609" lon="2.30001">
        <ele>28.9</ele>
        <time>2023-06-03T14:12:13Z</time>
      </trkpt>
      <trkpt lat="49.89608" lon="2.30006">
        <ele>28.9</ele>
        <time>2023-06-03T14:12:14Z</time>
      </trkpt>
      <trkpt lat="49.89608" lon="2.30008">
        <ele>28.9</ele>
        <time>2023-06-03T14:12:15Z</time>
      </trkpt>
      <trkpt lat="49.89608" lon="2.30011">
        <ele>28.9</ele>
        <time>2023-06-03T14:12:16Z</time>
      </trkpt>
      <trkpt lat="49.89609" lon="2.30015">
        <ele>28.7</ele>
        <time>2023-06-03T14:12:18Z</time>
      </trkpt>
      <trkpt lat="49.89609" lon="2.30019">
        <ele>28.7</ele>
        <time>2023-06-03T14:12:19Z</time>
      </trkpt>
      <trkpt lat="49.89609" lon="2.30021">
        <ele>28.7</ele>
        <time>2023-06-03T14:12:20Z</time>
      </trkpt>
      <trkpt lat="49.89611" lon="2.30025">
        <ele>28.7</ele>
        <time>2023-06-03T14:12:21Z</time>
      </trkpt>
      <trkpt lat="49.89611" lon="2.30027">
        <ele>28.7</ele>
        <time>2023-06-03T14:12:23Z</time>
      </trkpt>
      <trkpt lat="49.89611" lon="2.30029">
        <ele>28.8</ele>
        <time>2023-06-03T14:12:24Z</time>
      </trkpt>
      <trkpt lat="49.89611" lon="2.30031">
        <ele>28.8</ele>
        <time>2023-06-03T14:12:25Z</time>
      </trkpt>
      <trkpt lat="49.89612" lon="2.30033">
        <ele>28.8</ele>
        <time>2023-06-03T14:12:26Z</time>
      </trkpt>
      <trkpt lat="49.89612" lon="2.30034">
        <ele>28.8</ele>
        <time>2023-06-03T14:12:27Z</time>
      </trkpt>
      <trkpt lat="49.89612" lon="2.30035">
        <ele>28.8</ele>
        <time>2023-06-03T14:12:28Z</time>
      </trkpt>
      <trkpt lat="49.89611" lon="2.30037">
        <ele>28.8</ele>
        <time>2023-06-03T14:12:29Z</time>
      </trkpt>
      <trkpt lat="49.89611" lon="2.3004">
        <ele>28.8</ele>
        <time>2023-06-03T14:12:31Z</time>
      </trkpt>
      <trkpt lat="49.89611" lon="2.30042">
        <ele>28.8</ele>
        <time>2023-06-03T14:12:32Z</time>
      </trkpt>
      <trkpt lat="49.89611" lon="2.30043">
        <ele>28.8</ele>
        <time>2023-06-03T14:12:33Z</time>
      </trkpt>
      <trkpt lat="49.89611" lon="2.30045">
        <ele>28.8</ele>
        <time>2023-06-03T14:12:35Z</time>
      </trkpt>
      <trkpt lat="49.89611" lon="2.30047">
        <ele>28.7</ele>
        <time>2023-06-03T14:12:36Z</time>
      </trkpt>
      <trkpt lat="49.8961" lon="2.3005">
        <ele>28.7</ele>
        <time>2023-06-03T14:12:37Z</time>
      </trkpt>
      <trkpt lat="49.8961" lon="2.30052">
        <ele>28.7</ele>
        <time>2023-06-03T14:12:39Z</time>
      </trkpt>
      <trkpt lat="49.8961" lon="2.30053">
        <ele>28.7</ele>
        <time>2023-06-03T14:12:40Z</time>
      </trkpt>
      <trkpt lat="49.8961" lon="2.30055">
        <ele>28.7</ele>
        <time>2023-06-03T14:12:41Z</time>
      </trkpt>
      <trkpt lat="49.8961" lon="2.30058">
        <ele>28.7</ele>
        <time>2023-06-03T14:12:42Z</time>
      </trkpt>
      <trkpt lat="49.89609" lon="2.3006">
        <ele>28.7</ele>
        <time>2023-06-03T14:12:43Z</time>
      </trkpt>
      <trkpt lat="49.89609" lon="2.30062">
        <ele>28.6</ele>
        <time>2023-06-03T14:12:44Z</time>
      </trkpt>
      <trkpt lat="49.89609" lon="2.30064">
        <ele>28.6</ele>
        <time>2023-06-03T14:12:46Z</time>
      </trkpt>
      <trkpt lat="49.89608" lon="2.30066">
        <ele>28.6</ele>
        <time>2023-06-03T14:12:47Z</time>
      </trkpt>
      <trkpt lat="49.89608" lon="2.30067">
        <ele>28.6</ele>
        <time>2023-06-03T14:12:48Z</time>
      </trkpt>
      <trkpt lat="49.89607" lon="2.3007">
        <ele>28.5</ele>
        <time>2023-06-03T14:12:50Z</time>
      </trkpt>
      <trkpt lat="49.89606" lon="2.30071">
        <ele>28.5</ele>
        <time>2023-06-03T14:12:51Z</time>
      </trkpt>
      <trkpt lat="49.89606" lon="2.30072">
        <ele>28.5</ele>
        <time>2023-06-03T14:12:52Z</time>
      </trkpt>
      <trkpt lat="49.89605" lon="2.30073">
        <ele>28.5</ele>
        <time>2023-06-03T14:12:53Z</time>
      </trkpt>
      <trkpt lat="49.89604" lon="2.30073">
        <ele>28.5</ele>
        <time>2023-06-03T14:12:54Z</time>
      </trkpt>
      <trkpt lat="49.89604" lon="2.30075">
        <ele>28.5</ele>
        <time>2023-06-03T14:12:55Z</time>
      </trkpt>
      <trkpt lat="49.89602" lon="2.30078">
        <ele>28.4</ele>
        <time>2023-06-03T14:12:56Z</time>
      </trkpt>
      <trkpt lat="49.89602" lon="2.30079">
        <ele>28.4</ele>
        <time>2023-06-03T14:12:58Z</time>
      </trkpt>
      <trkpt lat="49.89601" lon="2.3008">
        <ele>28.4</ele>
        <time>2023-06-03T14:12:59Z</time>
      </trkpt>
      <trkpt lat="49.89598" lon="2.30083">
        <ele>28.3</ele>
        <time>2023-06-03T14:13:00Z</time>
      </trkpt>
      <trkpt lat="49.89598" lon="2.30083">
        <ele>28.3</ele>
        <time>2023-06-03T14:13:01Z</time>
      </trkpt>
      <trkpt lat="49.89597" lon="2.30085">
        <ele>28.3</ele>
        <time>2023-06-03T14:13:02Z</time>
      </trkpt>
      <trkpt lat="49.89595" lon="2.30087">
        <ele>28.3</ele>
        <time>2023-06-03T14:13:03Z</time>
      </trkpt>
      <trkpt lat="49.89593" lon="2.30091">
        <ele>28.2</ele>
        <time>2023-06-03T14:13:05Z</time>
      </trkpt>
      <trkpt lat="49.89593" lon="2.30092">
        <ele>28.2</ele>
        <time>2023-06-03T14:13:06Z</time>
      </trkpt>
      <trkpt lat="49.89592" lon="2.30094">
        <ele>28.2</ele>
        <time>2023-06-03T14:13:07Z</time>
      </trkpt>
      <trkpt lat="49.89591" lon="2.30098">
        <ele>28.2</ele>
        <time>2023-06-03T14:13:09Z</time>
      </trkpt>
      <trkpt lat="49.89591" lon="2.301">
        <ele>28.2</ele>
        <time>2023-06-03T14:13:10Z</time>
      </trkpt>
      <trkpt lat="49.8959" lon="2.30102">
        <ele>28.2</ele>
        <time>2023-06-03T14:13:11Z</time>
      </trkpt>
      <trkpt lat="49.89589" lon="2.30103">
        <ele>28.2</ele>
        <time>2023-06-03T14:13:12Z</time>
      </trkpt>
      <trkpt lat="49.89589" lon="2.30105">
        <ele>28.2</ele>
        <time>2023-06-03T14:13:14Z</time>
      </trkpt>
      <trkpt lat="49.89588" lon="2.30106">
        <ele>28.2</ele>
        <time>2023-06-03T14:13:15Z</time>
      </trkpt>
      <trkpt lat="49.89587" lon="2.30107">
        <ele>28.2</ele>
        <time>2023-06-03T14:13:16Z</time>
      </trkpt>
      <trkpt lat="49.89586" lon="2.30108">
        <ele>28.2</ele>
        <time>2023-06-03T14:13:17Z</time>
      </trkpt>
      <trkpt lat="49.89586" lon="2.30109">
        <ele>28.1</ele>
        <time>2023-06-03T14:13:18Z</time>
      </trkpt>
      <trkpt lat="49.89585" lon="2.3011">
        <ele>28.1</ele>
        <time>2023-06-03T14:13:19Z</time>
      </trkpt>
      <trkpt lat="49.89585" lon="2.30111">
        <ele>28.1</ele>
        <time>2023-06-03T14:13:20Z</time>
      </trkpt>
      <trkpt lat="49.89584" lon="2.30112">
        <ele>28.1</ele>
        <time>2023-06-03T14:13:21Z</time>
      </trkpt>
      <trkpt lat="49.89583" lon="2.30113">
        <ele>28.1</ele>
        <time>2023-06-03T14:13:23Z</time>
      </trkpt>
      <trkpt lat="49.89583" lon="2.30116">
        <ele>28.1</ele>
        <time>2023-06-03T14:13:24Z</time>
      </trkpt>
      <trkpt lat="49.89582" lon="2.30118">
        <ele>28.2</ele>
        <time>2023-06-03T14:13:25Z</time>
      </trkpt>
      <trkpt lat="49.89583" lon="2.30121">
        <ele>28.2</ele>
        <time>2023-06-03T14:13:27Z</time>
      </trkpt>
      <trkpt lat="49.89583" lon="2.30122">
        <ele>28.2</ele>
        <time>2023-06-03T14:13:28Z</time>
      </trkpt>
      <trkpt lat="49.89583" lon="2.30124">
        <ele>28.2</ele>
        <time>2023-06-03T14:13:29Z</time>
      </trkpt>
      <trkpt lat="49.89583" lon="2.30125">
        <ele>28.2</ele>
        <time>2023-06-03T14:13:30Z</time>
      </trkpt>
      <trkpt lat="49.89583" lon="2.30126">
        <ele>28.2</ele>
        <time>2023-06-03T14:13:31Z</time>
      </trkpt>
      <trkpt lat="49.89583" lon="2.30129">
        <ele>28.2</ele>
        <time>2023-06-03T14:13:32Z</time>
      </trkpt>
      <trkpt lat="49.89583" lon="2.30131">
        <ele>28.2</ele>
        <time>2023-06-03T14:13:33Z</time>
      </trkpt>
      <trkpt lat="49.89583" lon="2.30133">
        <ele>28.3</ele>
        <time>2023-06-03T14:13:34Z</time>
      </trkpt>
      <trkpt lat="49.89583" lon="2.30136">
        <ele>28.3</ele>
        <time>2023-06-03T14:13:36Z</time>
      </trkpt>
      <trkpt lat="49.89583" lon="2.30139">
        <ele>28.3</ele>
        <time>2023-06-03T14:13:37Z</time>
      </trkpt>
      <trkpt lat="49.89584" lon="2.30143">
        <ele>28.2</ele>
        <time>2023-06-03T14:13:39Z</time>
      </trkpt>
      <trkpt lat="49.89585" lon="2.30148">
        <ele>28.2</ele>
        <time>2023-06-03T14:13:40Z</time>
      </trkpt>
      <trkpt lat="49.89585" lon="2.3015">
        <ele>28.2</ele>
        <time>2023-06-03T14:13:41Z</time>
      </trkpt>
      <trkpt lat="49.89586" lon="2.30154">
        <ele>28.1</ele>
        <time>2023-06-03T14:13:42Z</time>
      </trkpt>
      <trkpt lat="49.89586" lon="2.30158">
        <ele>28.1</ele>
        <time>2023-06-03T14:13:43Z</time>
      </trkpt>
      <trkpt lat="49.89586" lon="2.3016">
        <ele>28.1</ele>
        <time>2023-06-03T14:13:44Z</time>
      </trkpt>
      <trkpt lat="49.89587" lon="2.30162">
        <ele>28</ele>
        <time>2023-06-03T14:13:45Z</time>
      </trkpt>
      <trkpt lat="49.89587" lon="2.30164">
        <ele>28</ele>
        <time>2023-06-03T14:13:47Z</time>
      </trkpt>
      <trkpt lat="49.89588" lon="2.30168">
        <ele>28</ele>
        <time>2023-06-03T14:13:48Z</time>
      </trkpt>
      <trkpt lat="49.89588" lon="2.3017">
        <ele>28</ele>
        <time>2023-06-03T14:13:49Z</time>
      </trkpt>
      <trkpt lat="49.89589" lon="2.30172">
        <ele>28</ele>
        <time>2023-06-03T14:13:51Z</time>
      </trkpt>
      <trkpt lat="49.89589" lon="2.30175">
        <ele>27.9</ele>
        <time>2023-06-03T14:13:52Z</time>
      </trkpt>
      <trkpt lat="49.8959" lon="2.30178">
        <ele>27.9</ele>
        <time>2023-06-03T14:13:53Z</time>
      </trkpt>
      <trkpt lat="49.8959" lon="2.3018">
        <ele>27.9</ele>
        <time>2023-06-03T14:13:54Z</time>
      </trkpt>
      <trkpt lat="49.89591" lon="2.30183">
        <ele>27.9</ele>
        <time>2023-06-03T14:13:55Z</time>
      </trkpt>
      <trkpt lat="49.89591" lon="2.30186">
        <ele>27.9</ele>
        <time>2023-06-03T14:13:57Z</time>
      </trkpt>
      <trkpt lat="49.89591" lon="2.3019">
        <ele>27.9</ele>
        <time>2023-06-03T14:13:58Z</time>
      </trkpt>
      <trkpt lat="49.89591" lon="2.30191">
        <ele>27.9</ele>
        <time>2023-06-03T14:13:59Z</time>
      </trkpt>
      <trkpt lat="49.89591" lon="2.30192">
        <ele>27.9</ele>
        <time>2023-06-03T14:14:00Z</time>
      </trkpt>
      <trkpt lat="49.89592" lon="2.30195">
        <ele>27.9</ele>
        <time>2023-06-03T14:14:02Z</time>
      </trkpt>
      <trkpt lat="49.89592" lon="2.30197">
        <ele>27.9</ele>
        <time>2023-06-03T14:14:03Z</time>
      </trkpt>
      <trkpt lat="49.89592" lon="2.30199">
        <ele>27.9</ele>
        <time>2023-06-03T14:14:04Z</time>
      </trkpt>
      <trkpt lat="49.89591" lon="2.30202">
        <ele>27.9</ele>
        <time>2023-06-03T14:14:06Z</time>
      </trkpt>
      <trkpt lat="49.89591" lon="2.30204">
        <ele>27.9</ele>
        <time>2023-06-03T14:14:07Z</time>
      </trkpt>
      <trkpt lat="49.89591" lon="2.30206">
        <ele>27.8</ele>
        <time>2023-06-03T14:14:08Z</time>
      </trkpt>
      <trkpt lat="49.89591" lon="2.30208">
        <ele>27.8</ele>
        <time>2023-06-03T14:14:09Z</time>
      </trkpt>
      <trkpt lat="49.89591" lon="2.3021">
        <ele>27.8</ele>
        <time>2023-06-03T14:14:10Z</time>
      </trkpt>
      <trkpt lat="49.89591" lon="2.30212">
        <ele>27.8</ele>
        <time>2023-06-03T14:14:11Z</time>
      </trkpt>
      <trkpt lat="49.89591" lon="2.30214">
        <ele>27.8</ele>
        <time>2023-06-03T14:14:12Z</time>
      </trkpt>
      <trkpt lat="49.8959" lon="2.30215">
        <ele>27.8</ele>
        <time>2023-06-03T14:14:13Z</time>
      </trkpt>
      <trkpt lat="49.8959" lon="2.30217">
        <ele>27.8</ele>
        <time>2023-06-03T14:14:15Z</time>
      </trkpt>
      <trkpt lat="49.89589" lon="2.3022">
        <ele>27.8</ele>
        <time>2023-06-03T14:14:16Z</time>
      </trkpt>
      <trkpt lat="49.89589" lon="2.30221">
        <ele>27.8</ele>
        <time>2023-06-03T14:14:17Z</time>
      </trkpt>
      <trkpt lat="49.89589" lon="2.30223">
        <ele>27.8</ele>
        <time>2023-06-03T14:14:18Z</time>
      </trkpt>
      <trkpt lat="49.89588" lon="2.30224">
        <ele>27.8</ele>
        <time>2023-06-03T14:14:19Z</time>
      </trkpt>
      <trkpt lat="49.89588" lon="2.30226">
        <ele>27.8</ele>
        <time>2023-06-03T14:14:20Z</time>
      </trkpt>
      <trkpt lat="49.89587" lon="2.30227">
        <ele>27.8</ele>
        <time>2023-06-03T14:14:21Z</time>
      </trkpt>
      <trkpt lat="49.89587" lon="2.30229">
        <ele>27.8</ele>
        <time>2023-06-03T14:14:22Z</time>
      </trkpt>
      <trkpt lat="49.89586" lon="2.30231">
        <ele>27.8</ele>
        <time>2023-06-03T14:14:24Z</time>
      </trkpt>
      <trkpt lat="49.89585" lon="2.30234">
        <ele>27.8</ele>
        <time>2023-06-03T14:14:25Z</time>
      </trkpt>
      <trkpt lat="49.89584" lon="2.30237">
        <ele>27.8</ele>
        <time>2023-06-03T14:14:26Z</time>
      </trkpt>
      <trkpt lat="49.89583" lon="2.30239">
        <ele>27.8</ele>
        <time>2023-06-03T14:14:27Z</time>
      </trkpt>
      <trkpt lat="49.89582" lon="2.30241">
        <ele>27.8</ele>
        <time>2023-06-03T14:14:29Z</time>
      </trkpt>
      <trkpt lat="49.89581" lon="2.30243">
        <ele>27.8</ele>
        <time>2023-06-03T14:14:30Z</time>
      </trkpt>
      <trkpt lat="49.8958" lon="2.30245">
        <ele>27.8</ele>
        <time>2023-06-03T14:14:31Z</time>
      </trkpt>
      <trkpt lat="49.89579" lon="2.30246">
        <ele>27.8</ele>
        <time>2023-06-03T14:14:32Z</time>
      </trkpt>
      <trkpt lat="49.89579" lon="2.30248">
        <ele>27.8</ele>
        <time>2023-06-03T14:14:33Z</time>
      </trkpt>
      <trkpt lat="49.89578" lon="2.30249">
        <ele>27.8</ele>
        <time>2023-06-03T14:14:35Z</time>
      </trkpt>
      <trkpt lat="49.89577" lon="2.30251">
        <ele>27.8</ele>
        <time>2023-06-03T14:14:36Z</time>
      </trkpt>
      <trkpt lat="49.89577" lon="2.30252">
        <ele>27.8</ele>
        <time>2023-06-03T14:14:37Z</time>
      </trkpt>
      <trkpt lat="49.89577" lon="2.30254">
        <ele>27.8</ele>
        <time>2023-06-03T14:14:38Z</time>
      </trkpt>
      <trkpt lat="49.89577" lon="2.30256">
        <ele>27.8</ele>
        <time>2023-06-03T14:14:39Z</time>
      </trkpt>
      <trkpt lat="49.89576" lon="2.30257">
        <ele>27.8</ele>
        <time>2023-06-03T14:14:40Z</time>
      </trkpt>
      <trkpt lat="49.89576" lon="2.30259">
        <ele>27.8</ele>
        <time>2023-06-03T14:14:41Z</time>
      </trkpt>
      <trkpt lat="49.89575" lon="2.30262">
        <ele>27.8</ele>
        <time>2023-06-03T14:14:42Z</time>
      </trkpt>
      <trkpt lat="49.89575" lon="2.30263">
        <ele>27.8</ele>
        <time>2023-06-03T14:14:43Z</time>
      </trkpt>
      <trkpt lat="49.89575" lon="2.30265">
        <ele>27.8</ele>
        <time>2023-06-03T14:14:45Z</time>
      </trkpt>
      <trkpt lat="49.89575" lon="2.30266">
        <ele>27.8</ele>
        <time>2023-06-03T14:14:46Z</time>
      </trkpt>
      <trkpt lat="49.89574" lon="2.30268">
        <ele>27.8</ele>
        <time>2023-06-03T14:14:47Z</time>
      </trkpt>
      <trkpt lat="49.89574" lon="2.30269">
        <ele>27.8</ele>
        <time>2023-06-03T14:14:48Z</time>
      </trkpt>
      <trkpt lat="49.89574" lon="2.3027">
        <ele>27.8</ele>
        <time>2023-06-03T14:14:49Z</time>
      </trkpt>
      <trkpt lat="49.89574" lon="2.30272">
        <ele>27.8</ele>
        <time>2023-06-03T14:14:50Z</time>
      </trkpt>
      <trkpt lat="49.89573" lon="2.30273">
        <ele>27.8</ele>
        <time>2023-06-03T14:14:51Z</time>
      </trkpt>
      <trkpt lat="49.89573" lon="2.30276">
        <ele>27.7</ele>
        <time>2023-06-03T14:14:53Z</time>
      </trkpt>
      <trkpt lat="49.89572" lon="2.30279">
        <ele>27.7</ele>
        <time>2023-06-03T14:14:54Z</time>
      </trkpt>
      <trkpt lat="49.89572" lon="2.3028">
        <ele>27.7</ele>
        <time>2023-06-03T14:14:55Z</time>
      </trkpt>
      <trkpt lat="49.89572" lon="2.30282">
        <ele>27.7</ele>
        <time>2023-06-03T14:14:57Z</time>
      </trkpt>
      <trkpt lat="49.89572" lon="2.30283">
        <ele>27.7</ele>
        <time>2023-06-03T14:14:58Z</time>
      </trkpt>
      <trkpt lat="49.89572" lon="2.30284">
        <ele>27.7</ele>
        <time>2023-06-03T14:14:59Z</time>
      </trkpt>
      <trkpt lat="49.89572" lon="2.30286">
        <ele>27.7</ele>
        <time>2023-06-03T14:15:00Z</time>
      </trkpt>
      <trkpt lat="49.89573" lon="2.30288">
        <ele>27.7</ele>
        <time>2023-06-03T14:15:01Z</time>
      </trkpt>
      <trkpt lat="49.89573" lon="2.3029">
        <ele>27.7</ele>
        <time>2023-06-03T14:15:02Z</time>
      </trkpt>
      <trkpt lat="49.89573" lon="2.30292">
        <ele>27.7</ele>
        <time>2023-06-03T14:15:03Z</time>
      </trkpt>
      <trkpt lat="49.89573" lon="2.30294">
        <ele>27.7</ele>
        <time>2023-06-03T14:15:05Z</time>
      </trkpt>
      <trkpt lat="49.89573" lon="2.30296">
        <ele>27.6</ele>
        <time>2023-06-03T14:15:06Z</time>
      </trkpt>
      <trkpt lat="49.89573" lon="2.30297">
        <ele>27.6</ele>
        <time>2023-06-03T14:15:07Z</time>
      </trkpt>
      <trkpt lat="49.89573" lon="2.30299">
        <ele>27.6</ele>
        <time>2023-06-03T14:15:09Z</time>
      </trkpt>
      <trkpt lat="49.89573" lon="2.30301">
        <ele>27.6</ele>
        <time>2023-06-03T14:15:10Z</time>
      </trkpt>
      <trkpt lat="49.89573" lon="2.30303">
        <ele>27.6</ele>
        <time>2023-06-03T14:15:11Z</time>
      </trkpt>
      <trkpt lat="49.89573" lon="2.30304">
        <ele>27.6</ele>
        <time>2023-06-03T14:15:12Z</time>
      </trkpt>
      <trkpt lat="49.89572" lon="2.30307">
        <ele>27.6</ele>
        <time>2023-06-03T14:15:13Z</time>
      </trkpt>
      <trkpt lat="49.89572" lon="2.30308">
        <ele>27.6</ele>
        <time>2023-06-03T14:15:14Z</time>
      </trkpt>
      <trkpt lat="49.89572" lon="2.30309">
        <ele>27.6</ele>
        <time>2023-06-03T14:15:15Z</time>
      </trkpt>
      <trkpt lat="49.89571" lon="2.30312">
        <ele>27.6</ele>
        <time>2023-06-03T14:15:17Z</time>
      </trkpt>
      <trkpt lat="49.89571" lon="2.30314">
        <ele>27.6</ele>
        <time>2023-06-03T14:15:18Z</time>
      </trkpt>
      <trkpt lat="49.89571" lon="2.30317">
        <ele>27.5</ele>
        <time>2023-06-03T14:15:20Z</time>
      </trkpt>
      <trkpt lat="49.89571" lon="2.30319">
        <ele>27.5</ele>
        <time>2023-06-03T14:15:21Z</time>
      </trkpt>
      <trkpt lat="49.89571" lon="2.3032">
        <ele>27.5</ele>
        <time>2023-06-03T14:15:22Z</time>
      </trkpt>
      <trkpt lat="49.8957" lon="2.30322">
        <ele>27.5</ele>
        <time>2023-06-03T14:15:23Z</time>
      </trkpt>
      <trkpt lat="49.8957" lon="2.30324">
        <ele>27.5</ele>
        <time>2023-06-03T14:15:24Z</time>
      </trkpt>
      <trkpt lat="49.89569" lon="2.30325">
        <ele>27.5</ele>
        <time>2023-06-03T14:15:25Z</time>
      </trkpt>
      <trkpt lat="49.89569" lon="2.30327">
        <ele>27.5</ele>
        <time>2023-06-03T14:15:26Z</time>
      </trkpt>
      <trkpt lat="49.89569" lon="2.30329">
        <ele>27.5</ele>
        <time>2023-06-03T14:15:27Z</time>
      </trkpt>
      <trkpt lat="49.89569" lon="2.30332">
        <ele>27.5</ele>
        <time>2023-06-03T14:15:29Z</time>
      </trkpt>
      <trkpt lat="49.8957" lon="2.30336">
        <ele>27.5</ele>
        <time>2023-06-03T14:15:30Z</time>
      </trkpt>
      <trkpt lat="49.8957" lon="2.30337">
        <ele>27.5</ele>
        <time>2023-06-03T14:15:31Z</time>
      </trkpt>
      <trkpt lat="49.8957" lon="2.3034">
        <ele>27.5</ele>
        <time>2023-06-03T14:15:33Z</time>
      </trkpt>
      <trkpt lat="49.89571" lon="2.30342">
        <ele>27.5</ele>
        <time>2023-06-03T14:15:34Z</time>
      </trkpt>
      <trkpt lat="49.89571" lon="2.30344">
        <ele>27.5</ele>
        <time>2023-06-03T14:15:35Z</time>
      </trkpt>
      <trkpt lat="49.89571" lon="2.30345">
        <ele>27.5</ele>
        <time>2023-06-03T14:15:36Z</time>
      </trkpt>
      <trkpt lat="49.89571" lon="2.30347">
        <ele>27.5</ele>
        <time>2023-06-03T14:15:37Z</time>
      </trkpt>
      <trkpt lat="49.8957" lon="2.3035">
        <ele>27.5</ele>
        <time>2023-06-03T14:15:38Z</time>
      </trkpt>
      <trkpt lat="49.89569" lon="2.30351">
        <ele>27.6</ele>
        <time>2023-06-03T14:15:39Z</time>
      </trkpt>
      <trkpt lat="49.89568" lon="2.30352">
        <ele>27.6</ele>
        <time>2023-06-03T14:15:40Z</time>
      </trkpt>
      <trkpt lat="49.89566" lon="2.30355">
        <ele>27.6</ele>
        <time>2023-06-03T14:15:42Z</time>
      </trkpt>
      <trkpt lat="49.89565" lon="2.30355">
        <ele>27.6</ele>
        <time>2023-06-03T14:15:43Z</time>
      </trkpt>
      <trkpt lat="49.89564" lon="2.30356">
        <ele>27.6</ele>
        <time>2023-06-03T14:15:44Z</time>
      </trkpt>
      <trkpt lat="49.89563" lon="2.30357">
        <ele>27.6</ele>
        <time>2023-06-03T14:15:45Z</time>
      </trkpt>
      <trkpt lat="49.89561" lon="2.30357">
        <ele>27.6</ele>
        <time>2023-06-03T14:15:47Z</time>
      </trkpt>
      <trkpt lat="49.8956" lon="2.30357">
        <ele>27.7</ele>
        <time>2023-06-03T14:15:48Z</time>
      </trkpt>
      <trkpt lat="49.89558" lon="2.30358">
        <ele>27.7</ele>
        <time>2023-06-03T14:15:49Z</time>
      </trkpt>
      <trkpt lat="49.89557" lon="2.30358">
        <ele>27.7</ele>
        <time>2023-06-03T14:15:50Z</time>
      </trkpt>
      <trkpt lat="49.89556" lon="2.30358">
        <ele>27.8</ele>
        <time>2023-06-03T14:15:51Z</time>
      </trkpt>
      <trkpt lat="49.89555" lon="2.30357">
        <ele>27.8</ele>
        <time>2023-06-03T14:15:52Z</time>
      </trkpt>
      <trkpt lat="49.89554" lon="2.30356">
        <ele>27.8</ele>
        <time>2023-06-03T14:15:53Z</time>
      </trkpt>
      <trkpt lat="49.89554" lon="2.30356">
        <ele>27.8</ele>
        <time>2023-06-03T14:15:54Z</time>
      </trkpt>
      <trkpt lat="49.89552" lon="2.30354">
        <ele>27.9</ele>
        <time>2023-06-03T14:15:55Z</time>
      </trkpt>
      <trkpt lat="49.89552" lon="2.30353">
        <ele>27.9</ele>
        <time>2023-06-03T14:15:57Z</time>
      </trkpt>
      <trkpt lat="49.89551" lon="2.30352">
        <ele>27.9</ele>
        <time>2023-06-03T14:15:58Z</time>
      </trkpt>
      <trkpt lat="49.8955" lon="2.3035">
        <ele>27.9</ele>
        <time>2023-06-03T14:15:59Z</time>
      </trkpt>
      <trkpt lat="49.89549" lon="2.3035">
        <ele>28</ele>
        <time>2023-06-03T14:16:01Z</time>
      </trkpt>
      <trkpt lat="49.89548" lon="2.30349">
        <ele>28</ele>
        <time>2023-06-03T14:16:02Z</time>
      </trkpt>
      <trkpt lat="49.89547" lon="2.30349">
        <ele>28</ele>
        <time>2023-06-03T14:16:03Z</time>
      </trkpt>
      <trkpt lat="49.89547" lon="2.30348">
        <ele>28</ele>
        <time>2023-06-03T14:16:04Z</time>
      </trkpt>
      <trkpt lat="49.89546" lon="2.30348">
        <ele>28</ele>
        <time>2023-06-03T14:16:05Z</time>
      </trkpt>
      <trkpt lat="49.89545" lon="2.30347">
        <ele>28</ele>
        <time>2023-06-03T14:16:06Z</time>
      </trkpt>
      <trkpt lat="49.89544" lon="2.30347">
        <ele>28</ele>
        <time>2023-06-03T14:16:07Z</time>
      </trkpt>
      <trkpt lat="49.89543" lon="2.30348">
        <ele>28.1</ele>
        <time>2023-06-03T14:16:08Z</time>
      </trkpt>
      <trkpt lat="49.89542" lon="2.30349">
        <ele>29.9</ele>
        <time>2023-06-03T14:16:10Z</time>
      </trkpt>
      <trkpt lat="49.89541" lon="2.30351">
        <ele>30</ele>
        <time>2023-06-03T14:16:11Z</time>
      </trkpt>
      <trkpt lat="49.89541" lon="2.30353">
        <ele>30.2</ele>
        <time>2023-06-03T14:16:12Z</time>
      </trkpt>
      <trkpt lat="49.89541" lon="2.30354">
        <ele>30.2</ele>
        <time>2023-06-03T14:16:14Z</time>
      </trkpt>
      <trkpt lat="49.8954" lon="2.30354">
        <ele>30.3</ele>
        <time>2023-06-03T14:16:15Z</time>
      </trkpt>
      <trkpt lat="49.8954" lon="2.30355">
        <ele>30.3</ele>
        <time>2023-06-03T14:16:16Z</time>
      </trkpt>
      <trkpt lat="49.89539" lon="2.30355">
        <ele>30.4</ele>
        <time>2023-06-03T14:16:18Z</time>
      </trkpt>
      <trkpt lat="49.89539" lon="2.30355">
        <ele>30.4</ele>
        <time>2023-06-03T14:16:19Z</time>
      </trkpt>
      <trkpt lat="49.89539" lon="2.30356">
        <ele>30.5</ele>
        <time>2023-06-03T14:16:20Z</time>
      </trkpt>
      <trkpt lat="49.89538" lon="2.30356">
        <ele>30.5</ele>
        <time>2023-06-03T14:16:22Z</time>
      </trkpt>
      <trkpt lat="49.89538" lon="2.30356">
        <ele>30.6</ele>
        <time>2023-06-03T14:16:23Z</time>
      </trkpt>
      <trkpt lat="49.89536" lon="2.30355">
        <ele>30.8</ele>
        <time>2023-06-03T14:16:24Z</time>
      </trkpt>
      <trkpt lat="49.89535" lon="2.30354">
        <ele>31</ele>
        <time>2023-06-03T14:16:25Z</time>
      </trkpt>
      <trkpt lat="49.89534" lon="2.30353">
        <ele>31.2</ele>
        <time>2023-06-03T14:16:26Z</time>
      </trkpt>
      <trkpt lat="49.89532" lon="2.30352">
        <ele>31.5</ele>
        <time>2023-06-03T14:16:27Z</time>
      </trkpt>
      <trkpt lat="49.8953" lon="2.30352">
        <ele>31.6</ele>
        <time>2023-06-03T14:16:28Z</time>
      </trkpt>
      <trkpt lat="49.89529" lon="2.30352">
        <ele>31.8</ele>
        <time>2023-06-03T14:16:30Z</time>
      </trkpt>
      <trkpt lat="49.89528" lon="2.30351">
        <ele>31.9</ele>
        <time>2023-06-03T14:16:31Z</time>
      </trkpt>
      <trkpt lat="49.89528" lon="2.30351">
        <ele>31.9</ele>
        <time>2023-06-03T14:16:32Z</time>
      </trkpt>
      <trkpt lat="49.89527" lon="2.30351">
        <ele>32.1</ele>
        <time>2023-06-03T14:16:34Z</time>
      </trkpt>
      <trkpt lat="49.89526" lon="2.3035">
        <ele>32.1</ele>
        <time>2023-06-03T14:16:35Z</time>
      </trkpt>
      <trkpt lat="49.89526" lon="2.3035">
        <ele>32.2</ele>
        <time>2023-06-03T14:16:36Z</time>
      </trkpt>
      <trkpt lat="49.89525" lon="2.30348">
        <ele>32.3</ele>
        <time>2023-06-03T14:16:38Z</time>
      </trkpt>
      <trkpt lat="49.89525" lon="2.30348">
        <ele>32.4</ele>
        <time>2023-06-03T14:16:39Z</time>
      </trkpt>
      <trkpt lat="49.89524" lon="2.30347">
        <ele>32.5</ele>
        <time>2023-06-03T14:16:40Z</time>
      </trkpt>
      <trkpt lat="49.89523" lon="2.30347">
        <ele>32.5</ele>
        <time>2023-06-03T14:16:41Z</time>
      </trkpt>
      <trkpt lat="49.89522" lon="2.30347">
        <ele>32.6</ele>
        <time>2023-06-03T14:16:42Z</time>
      </trkpt>
      <trkpt lat="49.89521" lon="2.30348">
        <ele>32.7</ele>
        <time>2023-06-03T14:16:44Z</time>
      </trkpt>
      <trkpt lat="49.8952" lon="2.30348">
        <ele>32.8</ele>
        <time>2023-06-03T14:16:45Z</time>
      </trkpt>
      <trkpt lat="49.8952" lon="2.30349">
        <ele>32.8</ele>
        <time>2023-06-03T14:16:46Z</time>
      </trkpt>
      <trkpt lat="49.8952" lon="2.30349">
        <ele>32.8</ele>
        <time>2023-06-03T14:16:47Z</time>
      </trkpt>
      <trkpt lat="49.8952" lon="2.30348">
        <ele>32.8</ele>
        <time>2023-06-03T14:16:48Z</time>
      </trkpt>
      <trkpt lat="49.89521" lon="2.30348">
        <ele>32.9</ele>
        <time>2023-06-03T14:16:50Z</time>
      </trkpt>
      <trkpt lat="49.89521" lon="2.30348">
        <ele>32.9</ele>
        <time>2023-06-03T14:16:51Z</time>
      </trkpt>
      <trkpt lat="49.89521" lon="2.30348">
        <ele>32.9</ele>
        <time>2023-06-03T14:16:52Z</time>
      </trkpt>
      <trkpt lat="49.89522" lon="2.30348">
        <ele>32.9</ele>
        <time>2023-06-03T14:16:53Z</time>
      </trkpt>
      <trkpt lat="49.89522" lon="2.30348">
        <ele>32.9</ele>
        <time>2023-06-03T14:16:54Z</time>
      </trkpt>
      <trkpt lat="49.89522" lon="2.30348">
        <ele>32.9</ele>
        <time>2023-06-03T14:16:55Z</time>
      </trkpt>
      <trkpt lat="49.89522" lon="2.30348">
        <ele>32.9</ele>
        <time>2023-06-03T14:16:56Z</time>
      </trkpt>
      <trkpt lat="49.89521" lon="2.30347">
        <ele>33</ele>
        <time>2023-06-03T14:16:58Z</time>
      </trkpt>
      <trkpt lat="49.8952" lon="2.30345">
        <ele>33</ele>
        <time>2023-06-03T14:16:59Z</time>
      </trkpt>
      <trkpt lat="49.8952" lon="2.30345">
        <ele>33</ele>
        <time>2023-06-03T14:17:00Z</time>
      </trkpt>
      <trkpt lat="49.8952" lon="2.30345">
        <ele>33</ele>
        <time>2023-06-03T14:17:02Z</time>
      </trkpt>
      <trkpt lat="49.89519" lon="2.30344">
        <ele>33.1</ele>
        <time>2023-06-03T14:17:03Z</time>
      </trkpt>
      <trkpt lat="49.89519" lon="2.30345">
        <ele>33.1</ele>
        <time>2023-06-03T14:17:04Z</time>
      </trkpt>
      <trkpt lat="49.8952" lon="2.30345">
        <ele>33.1</ele>
        <time>2023-06-03T14:17:06Z</time>
      </trkpt>
      <trkpt lat="49.89519" lon="2.30346">
        <ele>33.1</ele>
        <time>2023-06-03T14:17:07Z</time>
      </trkpt>
      <trkpt lat="49.89518" lon="2.30346">
        <ele>33.1</ele>
        <time>2023-06-03T14:17:08Z</time>
      </trkpt>
      <trkpt lat="49.89518" lon="2.30347">
        <ele>33.1</ele>
        <time>2023-06-03T14:17:09Z</time>
      </trkpt>
      <trkpt lat="49.89517" lon="2.30347">
        <ele>33.2</ele>
        <time>2023-06-03T14:17:10Z</time>
      </trkpt>
      <trkpt lat="49.89515" lon="2.30347">
        <ele>33.2</ele>
        <time>2023-06-03T14:17:11Z</time>
      </trkpt>
      <trkpt lat="49.89514" lon="2.30347">
        <ele>33.3</ele>
        <time>2023-06-03T14:17:13Z</time>
      </trkpt>
      <trkpt lat="49.89513" lon="2.30347">
        <ele>33.3</ele>
        <time>2023-06-03T14:17:14Z</time>
      </trkpt>
      <trkpt lat="49.89511" lon="2.30348">
        <ele>33.4</ele>
        <time>2023-06-03T14:17:15Z</time>
      </trkpt>
      <trkpt lat="49.89509" lon="2.30348">
        <ele>33.4</ele>
        <time>2023-06-03T14:17:17Z</time>
      </trkpt>
      <trkpt lat="49.89508" lon="2.30349">
        <ele>33.5</ele>
        <time>2023-06-03T14:17:18Z</time>
      </trkpt>
      <trkpt lat="49.89506" lon="2.30349">
        <ele>33.6</ele>
        <time>2023-06-03T14:17:19Z</time>
      </trkpt>
      <trkpt lat="49.89504" lon="2.30349">
        <ele>33.6</ele>
        <time>2023-06-03T14:17:20Z</time>
      </trkpt>
      <trkpt lat="49.89503" lon="2.30349">
        <ele>33.7</ele>
        <time>2023-06-03T14:17:22Z</time>
      </trkpt>
      <trkpt lat="49.89501" lon="2.3035">
        <ele>33.8</ele>
        <time>2023-06-03T14:17:23Z</time>
      </trkpt>
      <trkpt lat="49.895" lon="2.30351">
        <ele>33.8</ele>
        <time>2023-06-03T14:17:24Z</time>
      </trkpt>
      <trkpt lat="49.89498" lon="2.30351">
        <ele>33.9</ele>
        <time>2023-06-03T14:17:25Z</time>
      </trkpt>
      <trkpt lat="49.89497" lon="2.30352">
        <ele>34</ele>
        <time>2023-06-03T14:17:26Z</time>
      </trkpt>
      <trkpt lat="49.89496" lon="2.30352">
        <ele>34.1</ele>
        <time>2023-06-03T14:17:27Z</time>
      </trkpt>
      <trkpt lat="49.89494" lon="2.30352">
        <ele>34.1</ele>
        <time>2023-06-03T14:17:28Z</time>
      </trkpt>
      <trkpt lat="49.89491" lon="2.30353">
        <ele>34.3</ele>
        <time>2023-06-03T14:17:30Z</time>
      </trkpt>
      <trkpt lat="49.8949" lon="2.30353">
        <ele>34.4</ele>
        <time>2023-06-03T14:17:31Z</time>
      </trkpt>
      <trkpt lat="49.89488" lon="2.30354">
        <ele>34.5</ele>
        <time>2023-06-03T14:17:32Z</time>
      </trkpt>
      <trkpt lat="49.89487" lon="2.30354">
        <ele>34.5</ele>
        <time>2023-06-03T14:17:33Z</time>
      </trkpt>
      <trkpt lat="49.89486" lon="2.30354">
        <ele>34.6</ele>
        <time>2023-06-03T14:17:34Z</time>
      </trkpt>
      <trkpt lat="49.89484" lon="2.30354">
        <ele>34.7</ele>
        <time>2023-06-03T14:17:35Z</time>
      </trkpt>
      <trkpt lat="49.89483" lon="2.30355">
        <ele>34.8</ele>
        <time>2023-06-03T14:17:36Z</time>
      </trkpt>
      <trkpt lat="49.89482" lon="2.30355">
        <ele>34.8</ele>
        <time>2023-06-03T14:17:37Z</time>
      </trkpt>
      <trkpt lat="49.89481" lon="2.30355">
        <ele>34.9</ele>
        <time>2023-06-03T14:17:39Z</time>
      </trkpt>
      <trkpt lat="49.89479" lon="2.30355">
        <ele>35.3</ele>
        <time>2023-06-03T14:17:40Z</time>
      </trkpt>
      <trkpt lat="49.89478" lon="2.30356">
        <ele>35.3</ele>
        <time>2023-06-03T14:17:41Z</time>
      </trkpt>
      <trkpt lat="49.89476" lon="2.30356">
        <ele>35.3</ele>
        <time>2023-06-03T14:17:42Z</time>
      </trkpt>
      <trkpt lat="49.89475" lon="2.30356">
        <ele>35.4</ele>
        <time>2023-06-03T14:17:43Z</time>
      </trkpt>
      <trkpt lat="49.89472" lon="2.30357">
        <ele>35.4</ele>
        <time>2023-06-03T14:17:44Z</time>
      </trkpt>
      <trkpt lat="49.89471" lon="2.30357">
        <ele>35.4</ele>
        <time>2023-06-03T14:17:46Z</time>
      </trkpt>
      <trkpt lat="49.8947" lon="2.30357">
        <ele>35.4</ele>
        <time>2023-06-03T14:17:47Z</time>
      </trkpt>
      <trkpt lat="49.89469" lon="2.30357">
        <ele>35.5</ele>
        <time>2023-06-03T14:17:48Z</time>
      </trkpt>
      <trkpt lat="49.89468" lon="2.30357">
        <ele>35.5</ele>
        <time>2023-06-03T14:17:49Z</time>
      </trkpt>
      <trkpt lat="49.89466" lon="2.30358">
        <ele>35.5</ele>
        <time>2023-06-03T14:17:50Z</time>
      </trkpt>
      <trkpt lat="49.89465" lon="2.30358">
        <ele>35.5</ele>
        <time>2023-06-03T14:17:51Z</time>
      </trkpt>
      <trkpt lat="49.89464" lon="2.30358">
        <ele>35.5</ele>
        <time>2023-06-03T14:17:52Z</time>
      </trkpt>
      <trkpt lat="49.89463" lon="2.30357">
        <ele>35.5</ele>
        <time>2023-06-03T14:17:54Z</time>
      </trkpt>
      <trkpt lat="49.89462" lon="2.30357">
        <ele>35.6</ele>
        <time>2023-06-03T14:17:55Z</time>
      </trkpt>
      <trkpt lat="49.89461" lon="2.30358">
        <ele>35.6</ele>
        <time>2023-06-03T14:17:57Z</time>
      </trkpt>
      <trkpt lat="49.8946" lon="2.30358">
        <ele>35.6</ele>
        <time>2023-06-03T14:17:58Z</time>
      </trkpt>
      <trkpt lat="49.89459" lon="2.30358">
        <ele>35.6</ele>
        <time>2023-06-03T14:17:59Z</time>
      </trkpt>
      <trkpt lat="49.89457" lon="2.30359">
        <ele>35.6</ele>
        <time>2023-06-03T14:18:00Z</time>
      </trkpt>
      <trkpt lat="49.89456" lon="2.30359">
        <ele>35.6</ele>
        <time>2023-06-03T14:18:01Z</time>
      </trkpt>
      <trkpt lat="49.89455" lon="2.3036">
        <ele>35.6</ele>
        <time>2023-06-03T14:18:02Z</time>
      </trkpt>
      <trkpt lat="49.89453" lon="2.3036">
        <ele>35.6</ele>
        <time>2023-06-03T14:18:03Z</time>
      </trkpt>
      <trkpt lat="49.89452" lon="2.30361">
        <ele>35.6</ele>
        <time>2023-06-03T14:18:05Z</time>
      </trkpt>
      <trkpt lat="49.89452" lon="2.30361">
        <ele>35.7</ele>
        <time>2023-06-03T14:18:06Z</time>
      </trkpt>
      <trkpt lat="49.8945" lon="2.30362">
        <ele>35.7</ele>
        <time>2023-06-03T14:18:07Z</time>
      </trkpt>
      <trkpt lat="49.89449" lon="2.30362">
        <ele>35.7</ele>
        <time>2023-06-03T14:18:09Z</time>
      </trkpt>
      <trkpt lat="49.89448" lon="2.30362">
        <ele>35.7</ele>
        <time>2023-06-03T14:18:10Z</time>
      </trkpt>
      <trkpt lat="49.89447" lon="2.30362">
        <ele>35.7</ele>
        <time>2023-06-03T14:18:11Z</time>
      </trkpt>
      <trkpt lat="49.89446" lon="2.30362">
        <ele>35.7</ele>
        <time>2023-06-03T14:18:12Z</time>
      </trkpt>
      <trkpt lat="49.89445" lon="2.30362">
        <ele>35.7</ele>
        <time>2023-06-03T14:18:13Z</time>
      </trkpt>
      <trkpt lat="49.89444" lon="2.30362">
        <ele>35.7</ele>
        <time>2023-06-03T14:18:14Z</time>
      </trkpt>
      <trkpt lat="49.89444" lon="2.30361">
        <ele>35.7</ele>
        <time>2023-06-03T14:18:15Z</time>
      </trkpt>
      <trkpt lat="49.89443" lon="2.30361">
        <ele>35.7</ele>
        <time>2023-06-03T14:18:17Z</time>
      </trkpt>
      <trkpt lat="49.89442" lon="2.3036">
        <ele>35.7</ele>
        <time>2023-06-03T14:18:18Z</time>
      </trkpt>
      <trkpt lat="49.8944" lon="2.30359">
        <ele>35.7</ele>
        <time>2023-06-03T14:18:19Z</time>
      </trkpt>
      <trkpt lat="49.89439" lon="2.30359">
        <ele>35.7</ele>
        <time>2023-06-03T14:18:20Z</time>
      </trkpt>
      <trkpt lat="49.89438" lon="2.30358">
        <ele>35.7</ele>
        <time>2023-06-03T14:18:21Z</time>
      </trkpt>
      <trkpt lat="49.89436" lon="2.30357">
        <ele>35.8</ele>
        <time>2023-06-03T14:18:22Z</time>
      </trkpt>
      <trkpt lat="49.89435" lon="2.30357">
        <ele>35.8</ele>
        <time>2023-06-03T14:18:23Z</time>
      </trkpt>
      <trkpt lat="49.89434" lon="2.30357">
        <ele>35.8</ele>
        <time>2023-06-03T14:18:24Z</time>
      </trkpt>
      <trkpt lat="49.89431" lon="2.30356">
        <ele>35.9</ele>
        <time>2023-06-03T14:18:25Z</time>
      </trkpt>
      <trkpt lat="49.8943" lon="2.30356">
        <ele>35.9</ele>
        <time>2023-06-03T14:18:27Z</time>
      </trkpt>
      <trkpt lat="49.89429" lon="2.30355">
        <ele>35.9</ele>
        <time>2023-06-03T14:18:28Z</time>
      </trkpt>
      <trkpt lat="49.89428" lon="2.30355">
        <ele>35.9</ele>
        <time>2023-06-03T14:18:29Z</time>
      </trkpt>
      <trkpt lat="49.89426" lon="2.30355">
        <ele>36</ele>
        <time>2023-06-03T14:18:31Z</time>
      </trkpt>
      <trkpt lat="49.89425" lon="2.30354">
        <ele>36</ele>
        <time>2023-06-03T14:18:32Z</time>
      </trkpt>
      <trkpt lat="49.89423" lon="2.30353">
        <ele>36</ele>
        <time>2023-06-03T14:18:33Z</time>
      </trkpt>
      <trkpt lat="49.89422" lon="2.30352">
        <ele>36.1</ele>
        <time>2023-06-03T14:18:34Z</time>
      </trkpt>
      <trkpt lat="49.89421" lon="2.30352">
        <ele>36.1</ele>
        <time>2023-06-03T14:18:35Z</time>
      </trkpt>
      <trkpt lat="49.8942" lon="2.30351">
        <ele>36.1</ele>
        <time>2023-06-03T14:18:36Z</time>
      </trkpt>
      <trkpt lat="49.89419" lon="2.30351">
        <ele>36.1</ele>
        <time>2023-06-03T14:18:37Z</time>
      </trkpt>
      <trkpt lat="49.89418" lon="2.3035">
        <ele>36.1</ele>
        <time>2023-06-03T14:18:39Z</time>
      </trkpt>
      <trkpt lat="49.89417" lon="2.3035">
        <ele>36.2</ele>
        <time>2023-06-03T14:18:40Z</time>
      </trkpt>
      <trkpt lat="49.89415" lon="2.30349">
        <ele>36.2</ele>
        <time>2023-06-03T14:18:41Z</time>
      </trkpt>
      <trkpt lat="49.89415" lon="2.30348">
        <ele>36.2</ele>
        <time>2023-06-03T14:18:42Z</time>
      </trkpt>
      <trkpt lat="49.89414" lon="2.30347">
        <ele>36.2</ele>
        <time>2023-06-03T14:18:43Z</time>
      </trkpt>
      <trkpt lat="49.89413" lon="2.30346">
        <ele>36.2</ele>
        <time>2023-06-03T14:18:44Z</time>
      </trkpt>
      <trkpt lat="49.89412" lon="2.30345">
        <ele>36.2</ele>
        <time>2023-06-03T14:18:45Z</time>
      </trkpt>
      <trkpt lat="49.89412" lon="2.30345">
        <ele>36.2</ele>
        <time>2023-06-03T14:18:46Z</time>
      </trkpt>
      <trkpt lat="49.89411" lon="2.30343">
        <ele>36.3</ele>
        <time>2023-06-03T14:18:48Z</time>
      </trkpt>
      <trkpt lat="49.8941" lon="2.30342">
        <ele>36.3</ele>
        <time>2023-06-03T14:18:49Z</time>
      </trkpt>
      <trkpt lat="49.8941" lon="2.30342">
        <ele>36.3</ele>
        <time>2023-06-03T14:18:50Z</time>
      </trkpt>
      <trkpt lat="49.89408" lon="2.3034">
        <ele>36.3</ele>
        <time>2023-06-03T14:18:51Z</time>
      </trkpt>
      <trkpt lat="49.89408" lon="2.30338">
        <ele>36.3</ele>
        <time>2023-06-03T14:18:52Z</time>
      </trkpt>
      <trkpt lat="49.89408" lon="2.30336">
        <ele>36.4</ele>
        <time>2023-06-03T14:18:53Z</time>
      </trkpt>
      <trkpt lat="49.89409" lon="2.30335">
        <ele>36.4</ele>
        <time>2023-06-03T14:18:54Z</time>
      </trkpt>
      <trkpt lat="49.89411" lon="2.30332">
        <ele>36.5</ele>
        <time>2023-06-03T14:18:56Z</time>
      </trkpt>
      <trkpt lat="49.89412" lon="2.3033">
        <ele>36.5</ele>
        <time>2023-06-03T14:18:57Z</time>
      </trkpt>
      <trkpt lat="49.89413" lon="2.30327">
        <ele>36.5</ele>
        <time>2023-06-03T14:18:58Z</time>
      </trkpt>
      <trkpt lat="49.89413" lon="2.30325">
        <ele>36.6</ele>
        <time>2023-06-03T14:19:00Z</time>
      </trkpt>
      <trkpt lat="49.89413" lon="2.30322">
        <ele>36.6</ele>
        <time>2023-06-03T14:19:01Z</time>
      </trkpt>
      <trkpt lat="49.89414" lon="2.30321">
        <ele>36.6</ele>
        <time>2023-06-03T14:19:02Z</time>
      </trkpt>
      <trkpt lat="49.89414" lon="2.30319">
        <ele>36.6</ele>
        <time>2023-06-03T14:19:03Z</time>
      </trkpt>
      <trkpt lat="49.89415" lon="2.30318">
        <ele>36.6</ele>
        <time>2023-06-03T14:19:04Z</time>
      </trkpt>
      <trkpt lat="49.89416" lon="2.30315">
        <ele>36.7</ele>
        <time>2023-06-03T14:19:05Z</time>
      </trkpt>
      <trkpt lat="49.89416" lon="2.30314">
        <ele>36.7</ele>
        <time>2023-06-03T14:19:06Z</time>
      </trkpt>
      <trkpt lat="49.89416" lon="2.30313">
        <ele>36.7</ele>
        <time>2023-06-03T14:19:08Z</time>
      </trkpt>
      <trkpt lat="49.89416" lon="2.30311">
        <ele>36.7</ele>
        <time>2023-06-03T14:19:09Z</time>
      </trkpt>
      <trkpt lat="49.89416" lon="2.3031">
        <ele>36.7</ele>
        <time>2023-06-03T14:19:10Z</time>
      </trkpt>
      <trkpt lat="49.89415" lon="2.30308">
        <ele>36.7</ele>
        <time>2023-06-03T14:19:11Z</time>
      </trkpt>
      <trkpt lat="49.89415" lon="2.30306">
        <ele>36.7</ele>
        <time>2023-06-03T14:19:12Z</time>
      </trkpt>
      <trkpt lat="49.89414" lon="2.30304">
        <ele>36.7</ele>
        <time>2023-06-03T14:19:13Z</time>
      </trkpt>
      <trkpt lat="49.89414" lon="2.30303">
        <ele>36.8</ele>
        <time>2023-06-03T14:19:14Z</time>
      </trkpt>
      <trkpt lat="49.89413" lon="2.30301">
        <ele>36.8</ele>
        <time>2023-06-03T14:19:15Z</time>
      </trkpt>
      <trkpt lat="49.89412" lon="2.30299">
        <ele>36.8</ele>
        <time>2023-06-03T14:19:16Z</time>
      </trkpt>
      <trkpt lat="49.89412" lon="2.30298">
        <ele>36.8</ele>
        <time>2023-06-03T14:19:18Z</time>
      </trkpt>
      <trkpt lat="49.89411" lon="2.30296">
        <ele>36.8</ele>
        <time>2023-06-03T14:19:19Z</time>
      </trkpt>
      <trkpt lat="49.8941" lon="2.30295">
        <ele>36.8</ele>
        <time>2023-06-03T14:19:20Z</time>
      </trkpt>
      <trkpt lat="49.8941" lon="2.30293">
        <ele>36.8</ele>
        <time>2023-06-03T14:19:21Z</time>
      </trkpt>
      <trkpt lat="49.89409" lon="2.30292">
        <ele>36.9</ele>
        <time>2023-06-03T14:19:22Z</time>
      </trkpt>
      <trkpt lat="49.89408" lon="2.3029">
        <ele>36.9</ele>
        <time>2023-06-03T14:19:23Z</time>
      </trkpt>
      <trkpt lat="49.89408" lon="2.30289">
        <ele>36.9</ele>
        <time>2023-06-03T14:19:24Z</time>
      </trkpt>
      <trkpt lat="49.89408" lon="2.30288">
        <ele>36.9</ele>
        <time>2023-06-03T14:19:25Z</time>
      </trkpt>
      <trkpt lat="49.89407" lon="2.30286">
        <ele>36.9</ele>
        <time>2023-06-03T14:19:27Z</time>
      </trkpt>
      <trkpt lat="49.89406" lon="2.30283">
        <ele>36.9</ele>
        <time>2023-06-03T14:19:28Z</time>
      </trkpt>
      <trkpt lat="49.89406" lon="2.30281">
        <ele>36.9</ele>
        <time>2023-06-03T14:19:29Z</time>
      </trkpt>
      <trkpt lat="49.89405" lon="2.30279">
        <ele>36.9</ele>
        <time>2023-06-03T14:19:30Z</time>
      </trkpt>
      <trkpt lat="49.89405" lon="2.30277">
        <ele>36.9</ele>
        <time>2023-06-03T14:19:31Z</time>
      </trkpt>
      <trkpt lat="49.89404" lon="2.30276">
        <ele>36.9</ele>
        <time>2023-06-03T14:19:32Z</time>
      </trkpt>
      <trkpt lat="49.89404" lon="2.30275">
        <ele>36.9</ele>
        <time>2023-06-03T14:19:33Z</time>
      </trkpt>
      <trkpt lat="49.89403" lon="2.30273">
        <ele>37</ele>
        <time>2023-06-03T14:19:34Z</time>
      </trkpt>
      <trkpt lat="49.89402" lon="2.3027">
        <ele>37</ele>
        <time>2023-06-03T14:19:36Z</time>
      </trkpt>
      <trkpt lat="49.89402" lon="2.30268">
        <ele>37.1</ele>
        <time>2023-06-03T14:19:37Z</time>
      </trkpt>
      <trkpt lat="49.894" lon="2.30266">
        <ele>37.1</ele>
        <time>2023-06-03T14:19:38Z</time>
      </trkpt>
      <trkpt lat="49.894" lon="2.30264">
        <ele>37.1</ele>
        <time>2023-06-03T14:19:40Z</time>
      </trkpt>
      <trkpt lat="49.894" lon="2.30263">
        <ele>37.1</ele>
        <time>2023-06-03T14:19:41Z</time>
      </trkpt>
      <trkpt lat="49.89399" lon="2.30261">
        <ele>37.1</ele>
        <time>2023-06-03T14:19:42Z</time>
      </trkpt>
      <trkpt lat="49.89398" lon="2.30259">
        <ele>37.1</ele>
        <time>2023-06-03T14:19:43Z</time>
      </trkpt>
      <trkpt lat="49.89398" lon="2.30257">
        <ele>37.1</ele>
        <time>2023-06-03T14:19:44Z</time>
      </trkpt>
      <trkpt lat="49.89398" lon="2.30256">
        <ele>37.1</ele>
        <time>2023-06-03T14:19:45Z</time>
      </trkpt>
      <trkpt lat="49.89399" lon="2.30254">
        <ele>37.1</ele>
        <time>2023-06-03T14:19:46Z</time>
      </trkpt>
      <trkpt lat="49.89399" lon="2.30253">
        <ele>37.1</ele>
        <time>2023-06-03T14:19:48Z</time>
      </trkpt>
      <trkpt lat="49.89399" lon="2.30252">
        <ele>37.1</ele>
        <time>2023-06-03T14:19:49Z</time>
      </trkpt>
      <trkpt lat="49.894" lon="2.30251">
        <ele>37.1</ele>
        <time>2023-06-03T14:19:50Z</time>
      </trkpt>
      <trkpt lat="49.894" lon="2.30249">
        <ele>37.1</ele>
        <time>2023-06-03T14:19:51Z</time>
      </trkpt>
      <trkpt lat="49.89401" lon="2.30248">
        <ele>37.1</ele>
        <time>2023-06-03T14:19:52Z</time>
      </trkpt>
      <trkpt lat="49.89401" lon="2.30247">
        <ele>37.1</ele>
        <time>2023-06-03T14:19:53Z</time>
      </trkpt>
      <trkpt lat="49.89402" lon="2.30246">
        <ele>37.1</ele>
        <time>2023-06-03T14:19:54Z</time>
      </trkpt>
      <trkpt lat="49.89403" lon="2.30244">
        <ele>37.1</ele>
        <time>2023-06-03T14:19:55Z</time>
      </trkpt>
      <trkpt lat="49.89403" lon="2.30243">
        <ele>37.1</ele>
        <time>2023-06-03T14:19:56Z</time>
      </trkpt>
      <trkpt lat="49.89403" lon="2.30242">
        <ele>37.1</ele>
        <time>2023-06-03T14:19:58Z</time>
      </trkpt>
      <trkpt lat="49.89404" lon="2.3024">
        <ele>37.1</ele>
        <time>2023-06-03T14:19:59Z</time>
      </trkpt>
      <trkpt lat="49.89405" lon="2.30238">
        <ele>37.1</ele>
        <time>2023-06-03T14:20:00Z</time>
      </trkpt>
      <trkpt lat="49.89406" lon="2.30237">
        <ele>37.1</ele>
        <time>2023-06-03T14:20:01Z</time>
      </trkpt>
      <trkpt lat="49.89407" lon="2.30236">
        <ele>37.1</ele>
        <time>2023-06-03T14:20:02Z</time>
      </trkpt>
      <trkpt lat="49.89408" lon="2.30235">
        <ele>37.1</ele>
        <time>2023-06-03T14:20:03Z</time>
      </trkpt>
      <trkpt lat="49.89408" lon="2.30233">
        <ele>37.1</ele>
        <time>2023-06-03T14:20:05Z</time>
      </trkpt>
      <trkpt lat="49.89409" lon="2.30231">
        <ele>37.1</ele>
        <time>2023-06-03T14:20:06Z</time>
      </trkpt>
      <trkpt lat="49.8941" lon="2.30231">
        <ele>37.1</ele>
        <time>2023-06-03T14:20:07Z</time>
      </trkpt>
      <trkpt lat="49.89411" lon="2.3023">
        <ele>37.1</ele>
        <time>2023-06-03T14:20:08Z</time>
      </trkpt>
      <trkpt lat="49.89412" lon="2.30229">
        <ele>37.1</ele>
        <time>2023-06-03T14:20:09Z</time>
      </trkpt>
      <trkpt lat="49.89414" lon="2.30227">
        <ele>37</ele>
        <time>2023-06-03T14:20:10Z</time>
      </trkpt>
      <trkpt lat="49.89415" lon="2.30226">
        <ele>37</ele>
        <time>2023-06-03T14:20:11Z</time>
      </trkpt>
      <trkpt lat="49.89416" lon="2.30224">
        <ele>37</ele>
        <time>2023-06-03T14:20:12Z</time>
      </trkpt>
      <trkpt lat="49.8942" lon="2.3022">
        <ele>37</ele>
        <time>2023-06-03T14:20:14Z</time>
      </trkpt>
      <trkpt lat="49.89422" lon="2.30218">
        <ele>37</ele>
        <time>2023-06-03T14:20:15Z</time>
      </trkpt>
      <trkpt lat="49.89423" lon="2.30217">
        <ele>37</ele>
        <time>2023-06-03T14:20:16Z</time>
      </trkpt>
      <trkpt lat="49.89425" lon="2.30213">
        <ele>37</ele>
        <time>2023-06-03T14:20:18Z</time>
      </trkpt>
      <trkpt lat="49.89426" lon="2.30212">
        <ele>37</ele>
        <time>2023-06-03T14:20:19Z</time>
      </trkpt>
      <trkpt lat="49.89427" lon="2.30208">
        <ele>37</ele>
        <time>2023-06-03T14:20:20Z</time>
      </trkpt>
      <trkpt lat="49.89427" lon="2.30207">
        <ele>37</ele>
        <time>2023-06-03T14:20:21Z</time>
      </trkpt>
      <trkpt lat="49.89428" lon="2.30204">
        <ele>37</ele>
        <time>2023-06-03T14:20:22Z</time>
      </trkpt>
      <trkpt lat="49.89428" lon="2.30202">
        <ele>37</ele>
        <time>2023-06-03T14:20:23Z</time>
      </trkpt>
      <trkpt lat="49.89429" lon="2.302">
        <ele>37</ele>
        <time>2023-06-03T14:20:24Z</time>
      </trkpt>
      <trkpt lat="49.89429" lon="2.30198">
        <ele>37</ele>
        <time>2023-06-03T14:20:26Z</time>
      </trkpt>
      <trkpt lat="49.8943" lon="2.30195">
        <ele>37</ele>
        <time>2023-06-03T14:20:27Z</time>
      </trkpt>
      <trkpt lat="49.8943" lon="2.30193">
        <ele>37</ele>
        <time>2023-06-03T14:20:29Z</time>
      </trkpt>
      <trkpt lat="49.89431" lon="2.30191">
        <ele>37</ele>
        <time>2023-06-03T14:20:30Z</time>
      </trkpt>
      <trkpt lat="49.8943" lon="2.30189">
        <ele>37</ele>
        <time>2023-06-03T14:20:31Z</time>
      </trkpt>
      <trkpt lat="49.8943" lon="2.30188">
        <ele>37</ele>
        <time>2023-06-03T14:20:32Z</time>
      </trkpt>
      <trkpt lat="49.8943" lon="2.30186">
        <ele>37</ele>
        <time>2023-06-03T14:20:33Z</time>
      </trkpt>
      <trkpt lat="49.8943" lon="2.30184">
        <ele>37</ele>
        <time>2023-06-03T14:20:34Z</time>
      </trkpt>
      <trkpt lat="49.8943" lon="2.30182">
        <ele>37</ele>
        <time>2023-06-03T14:20:35Z</time>
      </trkpt>
      <trkpt lat="49.8943" lon="2.30179">
        <ele>37</ele>
        <time>2023-06-03T14:20:36Z</time>
      </trkpt>
      <trkpt lat="49.89429" lon="2.30178">
        <ele>37</ele>
        <time>2023-06-03T14:20:38Z</time>
      </trkpt>
      <trkpt lat="49.89428" lon="2.30177">
        <ele>37</ele>
        <time>2023-06-03T14:20:39Z</time>
      </trkpt>
      <trkpt lat="49.89427" lon="2.30175">
        <ele>37</ele>
        <time>2023-06-03T14:20:40Z</time>
      </trkpt>
      <trkpt lat="49.89426" lon="2.30174">
        <ele>37</ele>
        <time>2023-06-03T14:20:41Z</time>
      </trkpt>
      <trkpt lat="49.89423" lon="2.30171">
        <ele>37.2</ele>
        <time>2023-06-03T14:20:42Z</time>
      </trkpt>
      <trkpt lat="49.89422" lon="2.3017">
        <ele>37.2</ele>
        <time>2023-06-03T14:20:43Z</time>
      </trkpt>
      <trkpt lat="49.89421" lon="2.30169">
        <ele>37.2</ele>
        <time>2023-06-03T14:20:44Z</time>
      </trkpt>
      <trkpt lat="49.8942" lon="2.30168">
        <ele>37.2</ele>
        <time>2023-06-03T14:20:45Z</time>
      </trkpt>
      <trkpt lat="49.89418" lon="2.30165">
        <ele>37.3</ele>
        <time>2023-06-03T14:20:47Z</time>
      </trkpt>
      <trkpt lat="49.89417" lon="2.30165">
        <ele>37.3</ele>
        <time>2023-06-03T14:20:48Z</time>
      </trkpt>
      <trkpt lat="49.89415" lon="2.30163">
        <ele>37.3</ele>
        <time>2023-06-03T14:20:49Z</time>
      </trkpt>
      <trkpt lat="49.89414" lon="2.30163">
        <ele>37.4</ele>
        <time>2023-06-03T14:20:50Z</time>
      </trkpt>
      <trkpt lat="49.89413" lon="2.30162">
        <ele>37.4</ele>
        <time>2023-06-03T14:20:51Z</time>
      </trkpt>
      <trkpt lat="49.89412" lon="2.30161">
        <ele>37.4</ele>
        <time>2023-06-03T14:20:52Z</time>
      </trkpt>
      <trkpt lat="49.89411" lon="2.3016">
        <ele>37.4</ele>
        <time>2023-06-03T14:20:54Z</time>
      </trkpt>
      <trkpt lat="49.89409" lon="2.30159">
        <ele>37.4</ele>
        <time>2023-06-03T14:20:55Z</time>
      </trkpt>
      <trkpt lat="49.89407" lon="2.30159">
        <ele>37.5</ele>
        <time>2023-06-03T14:20:57Z</time>
      </trkpt>
      <trkpt lat="49.89406" lon="2.3016">
        <ele>37.5</ele>
        <time>2023-06-03T14:20:58Z</time>
      </trkpt>
      <trkpt lat="49.89406" lon="2.3016">
        <ele>37.5</ele>
        <time>2023-06-03T14:20:59Z</time>
      </trkpt>
      <trkpt lat="49.89405" lon="2.30161">
        <ele>37.5</ele>
        <time>2023-06-03T14:21:01Z</time>
      </trkpt>
      <trkpt lat="49.89404" lon="2.30161">
        <ele>37.5</ele>
        <time>2023-06-03T14:21:02Z</time>
      </trkpt>
      <trkpt lat="49.89404" lon="2.30161">
        <ele>37.5</ele>
        <time>2023-06-03T14:21:03Z</time>
      </trkpt>
      <trkpt lat="49.89403" lon="2.30161">
        <ele>37.5</ele>
        <time>2023-06-03T14:21:05Z</time>
      </trkpt>
      <trkpt lat="49.89402" lon="2.30161">
        <ele>37.5</ele>
        <time>2023-06-03T14:21:06Z</time>
      </trkpt>
      <trkpt lat="49.89402" lon="2.30161">
        <ele>37.5</ele>
        <time>2023-06-03T14:21:07Z</time>
      </trkpt>
      <trkpt lat="49.89402" lon="2.30161">
        <ele>37.5</ele>
        <time>2023-06-03T14:21:09Z</time>
      </trkpt>
      <trkpt lat="49.89401" lon="2.30161">
        <ele>37.5</ele>
        <time>2023-06-03T14:21:10Z</time>
      </trkpt>
      <trkpt lat="49.89401" lon="2.3016">
        <ele>37.5</ele>
        <time>2023-06-03T14:21:11Z</time>
      </trkpt>
      <trkpt lat="49.894" lon="2.3016">
        <ele>37.6</ele>
        <time>2023-06-03T14:21:12Z</time>
      </trkpt>
      <trkpt lat="49.89399" lon="2.30159">
        <ele>37.6</ele>
        <time>2023-06-03T14:21:13Z</time>
      </trkpt>
      <trkpt lat="49.89398" lon="2.30159">
        <ele>37.6</ele>
        <time>2023-06-03T14:21:14Z</time>
      </trkpt>
      <trkpt lat="49.89397" lon="2.30158">
        <ele>37.6</ele>
        <time>2023-06-03T14:21:16Z</time>
      </trkpt>
      <trkpt lat="49.89396" lon="2.30157">
        <ele>37.6</ele>
        <time>2023-06-03T14:21:17Z</time>
      </trkpt>
      <trkpt lat="49.89395" lon="2.30156">
        <ele>37.6</ele>
        <time>2023-06-03T14:21:18Z</time>
      </trkpt>
      <trkpt lat="49.89394" lon="2.30156">
        <ele>37.6</ele>
        <time>2023-06-03T14:21:20Z</time>
      </trkpt>
      <trkpt lat="49.89393" lon="2.30156">
        <ele>37.7</ele>
        <time>2023-06-03T14:21:21Z</time>
      </trkpt>
      <trkpt lat="49.89391" lon="2.30155">
        <ele>37.7</ele>
        <time>2023-06-03T14:21:22Z</time>
      </trkpt>
      <trkpt lat="49.8939" lon="2.30154">
        <ele>37.7</ele>
        <time>2023-06-03T14:21:23Z</time>
      </trkpt>
      <trkpt lat="49.89389" lon="2.30154">
        <ele>37.7</ele>
        <time>2023-06-03T14:21:24Z</time>
      </trkpt>
      <trkpt lat="49.89388" lon="2.30153">
        <ele>37.7</ele>
        <time>2023-06-03T14:21:25Z</time>
      </trkpt>
      <trkpt lat="49.89386" lon="2.30151">
        <ele>37.8</ele>
        <time>2023-06-03T14:21:27Z</time>
      </trkpt>
      <trkpt lat="49.89385" lon="2.3015">
        <ele>37.8</ele>
        <time>2023-06-03T14:21:28Z</time>
      </trkpt>
      <trkpt lat="49.89384" lon="2.30149">
        <ele>37.8</ele>
        <time>2023-06-03T14:21:29Z</time>
      </trkpt>
      <trkpt lat="49.89383" lon="2.30148">
        <ele>37.8</ele>
        <time>2023-06-03T14:21:30Z</time>
      </trkpt>
      <trkpt lat="49.89382" lon="2.30148">
        <ele>37.8</ele>
        <time>2023-06-03T14:21:31Z</time>
      </trkpt>
      <trkpt lat="49.89381" lon="2.30148">
        <ele>37.8</ele>
        <time>2023-06-03T14:21:32Z</time>
      </trkpt>
      <trkpt lat="49.8938" lon="2.30147">
        <ele>37.9</ele>
        <time>2023-06-03T14:21:33Z</time>
      </trkpt>
      <trkpt lat="49.89378" lon="2.30147">
        <ele>37.9</ele>
        <time>2023-06-03T14:21:35Z</time>
      </trkpt>
      <trkpt lat="49.89377" lon="2.30148">
        <ele>37.9</ele>
        <time>2023-06-03T14:21:36Z</time>
      </trkpt>
      <trkpt lat="49.89376" lon="2.30148">
        <ele>37.9</ele>
        <time>2023-06-03T14:21:37Z</time>
      </trkpt>
      <trkpt lat="49.89375" lon="2.30148">
        <ele>37.9</ele>
        <time>2023-06-03T14:21:38Z</time>
      </trkpt>
      <trkpt lat="49.89373" lon="2.30148">
        <ele>38</ele>
        <time>2023-06-03T14:21:39Z</time>
      </trkpt>
      <trkpt lat="49.89372" lon="2.30149">
        <ele>38</ele>
        <time>2023-06-03T14:21:40Z</time>
      </trkpt>
      <trkpt lat="49.89371" lon="2.30149">
        <ele>38</ele>
        <time>2023-06-03T14:21:41Z</time>
      </trkpt>
      <trkpt lat="49.89368" lon="2.30149">
        <ele>38</ele>
        <time>2023-06-03T14:21:43Z</time>
      </trkpt>
      <trkpt lat="49.89367" lon="2.30149">
        <ele>38.1</ele>
        <time>2023-06-03T14:21:44Z</time>
      </trkpt>
      <trkpt lat="49.89366" lon="2.30149">
        <ele>38.1</ele>
        <time>2023-06-03T14:21:45Z</time>
      </trkpt>
      <trkpt lat="49.89365" lon="2.30149">
        <ele>38.1</ele>
        <time>2023-06-03T14:21:46Z</time>
      </trkpt>
      <trkpt lat="49.89364" lon="2.30149">
        <ele>38.1</ele>
        <time>2023-06-03T14:21:47Z</time>
      </trkpt>
      <trkpt lat="49.89363" lon="2.30149">
        <ele>38.1</ele>
        <time>2023-06-03T14:21:48Z</time>
      </trkpt>
      <trkpt lat="49.89362" lon="2.30148">
        <ele>38.1</ele>
        <time>2023-06-03T14:21:50Z</time>
      </trkpt>
      <trkpt lat="49.89361" lon="2.30148">
        <ele>38.1</ele>
        <time>2023-06-03T14:21:51Z</time>
      </trkpt>
      <trkpt lat="49.8936" lon="2.30147">
        <ele>38.2</ele>
        <time>2023-06-03T14:21:52Z</time>
      </trkpt>
      <trkpt lat="49.89359" lon="2.30147">
        <ele>38.2</ele>
        <time>2023-06-03T14:21:53Z</time>
      </trkpt>
      <trkpt lat="49.89358" lon="2.30147">
        <ele>38.2</ele>
        <time>2023-06-03T14:21:54Z</time>
      </trkpt>
      <trkpt lat="49.89357" lon="2.30146">
        <ele>38.2</ele>
        <time>2023-06-03T14:21:55Z</time>
      </trkpt>
      <trkpt lat="49.89355" lon="2.30146">
        <ele>38.2</ele>
        <time>2023-06-03T14:21:56Z</time>
      </trkpt>
      <trkpt lat="49.89354" lon="2.30146">
        <ele>38.2</ele>
        <time>2023-06-03T14:21:58Z</time>
      </trkpt>
      <trkpt lat="49.89353" lon="2.30146">
        <ele>38.2</ele>
        <time>2023-06-03T14:21:59Z</time>
      </trkpt>
      <trkpt lat="49.89352" lon="2.30146">
        <ele>38.2</ele>
        <time>2023-06-03T14:22:00Z</time>
      </trkpt>
      <trkpt lat="49.89351" lon="2.30146">
        <ele>38.3</ele>
        <time>2023-06-03T14:22:01Z</time>
      </trkpt>
      <trkpt lat="49.8935" lon="2.30145">
        <ele>38.3</ele>
        <time>2023-06-03T14:22:02Z</time>
      </trkpt>
      <trkpt lat="49.89349" lon="2.30145">
        <ele>38.3</ele>
        <time>2023-06-03T14:22:03Z</time>
      </trkpt>
      <trkpt lat="49.89348" lon="2.30144">
        <ele>38.3</ele>
        <time>2023-06-03T14:22:04Z</time>
      </trkpt>
      <trkpt lat="49.89347" lon="2.30143">
        <ele>38.3</ele>
        <time>2023-06-03T14:22:05Z</time>
      </trkpt>
      <trkpt lat="49.89345" lon="2.30142">
        <ele>38.3</ele>
        <time>2023-06-03T14:22:07Z</time>
      </trkpt>
      <trkpt lat="49.89344" lon="2.30142">
        <ele>38.3</ele>
        <time>2023-06-03T14:22:08Z</time>
      </trkpt>
      <trkpt lat="49.89342" lon="2.30141">
        <ele>38.4</ele>
        <time>2023-06-03T14:22:09Z</time>
      </trkpt>
      <trkpt lat="49.89341" lon="2.3014">
        <ele>38.4</ele>
        <time>2023-06-03T14:22:10Z</time>
      </trkpt>
      <trkpt lat="49.89339" lon="2.30137">
        <ele>38.4</ele>
        <time>2023-06-03T14:22:11Z</time>
      </trkpt>
      <trkpt lat="49.89338" lon="2.30136">
        <ele>38.4</ele>
        <time>2023-06-03T14:22:12Z</time>
      </trkpt>
      <trkpt lat="49.89335" lon="2.30133">
        <ele>38.5</ele>
        <time>2023-06-03T14:22:14Z</time>
      </trkpt>
      <trkpt lat="49.89334" lon="2.30132">
        <ele>38.5</ele>
        <time>2023-06-03T14:22:15Z</time>
      </trkpt>
      <trkpt lat="49.89332" lon="2.30129">
        <ele>38.5</ele>
        <time>2023-06-03T14:22:16Z</time>
      </trkpt>
      <trkpt lat="49.89331" lon="2.30128">
        <ele>38.5</ele>
        <time>2023-06-03T14:22:18Z</time>
      </trkpt>
      <trkpt lat="49.8933" lon="2.30127">
        <ele>38.5</ele>
        <time>2023-06-03T14:22:19Z</time>
      </trkpt>
      <trkpt lat="49.89329" lon="2.30125">
        <ele>38.5</ele>
        <time>2023-06-03T14:22:20Z</time>
      </trkpt>
      <trkpt lat="49.89329" lon="2.30124">
        <ele>38.5</ele>
        <time>2023-06-03T14:22:21Z</time>
      </trkpt>
      <trkpt lat="49.89327" lon="2.30124">
        <ele>38.5</ele>
        <time>2023-06-03T14:22:22Z</time>
      </trkpt>
      <trkpt lat="49.89326" lon="2.30123">
        <ele>38.6</ele>
        <time>2023-06-03T14:22:23Z</time>
      </trkpt>
      <trkpt lat="49.89325" lon="2.30122">
        <ele>38.6</ele>
        <time>2023-06-03T14:22:24Z</time>
      </trkpt>
      <trkpt lat="49.89324" lon="2.3012">
        <ele>38.9</ele>
        <time>2023-06-03T14:22:25Z</time>
      </trkpt>
      <trkpt lat="49.89323" lon="2.30118">
        <ele>38.9</ele>
        <time>2023-06-03T14:22:27Z</time>
      </trkpt>
      <trkpt lat="49.89322" lon="2.30116">
        <ele>38.9</ele>
        <time>2023-06-03T14:22:28Z</time>
      </trkpt>
      <trkpt lat="49.89323" lon="2.30113">
        <ele>38.9</ele>
        <time>2023-06-03T14:22:29Z</time>
      </trkpt>
      <trkpt lat="49.89323" lon="2.30111">
        <ele>38.9</ele>
        <time>2023-06-03T14:22:30Z</time>
      </trkpt>
      <trkpt lat="49.89324" lon="2.30109">
        <ele>39</ele>
        <time>2023-06-03T14:22:31Z</time>
      </trkpt>
      <trkpt lat="49.89325" lon="2.30106">
        <ele>39</ele>
        <time>2023-06-03T14:22:32Z</time>
      </trkpt>
      <trkpt lat="49.89327" lon="2.30104">
        <ele>39.2</ele>
        <time>2023-06-03T14:22:33Z</time>
      </trkpt>
      <trkpt lat="49.89328" lon="2.30101">
        <ele>39.2</ele>
        <time>2023-06-03T14:22:35Z</time>
      </trkpt>
      <trkpt lat="49.89328" lon="2.30099">
        <ele>39.2</ele>
        <time>2023-06-03T14:22:36Z</time>
      </trkpt>
      <trkpt lat="49.89329" lon="2.30097">
        <ele>39.2</ele>
        <time>2023-06-03T14:22:38Z</time>
      </trkpt>
      <trkpt lat="49.89329" lon="2.30096">
        <ele>39.2</ele>
        <time>2023-06-03T14:22:39Z</time>
      </trkpt>
      <trkpt lat="49.89329" lon="2.30095">
        <ele>39.2</ele>
        <time>2023-06-03T14:22:40Z</time>
      </trkpt>
      <trkpt lat="49.8933" lon="2.30093">
        <ele>39.2</ele>
        <time>2023-06-03T14:22:42Z</time>
      </trkpt>
      <trkpt lat="49.8933" lon="2.30092">
        <ele>39.2</ele>
        <time>2023-06-03T14:22:43Z</time>
      </trkpt>
      <trkpt lat="49.8933" lon="2.3009">
        <ele>38.9</ele>
        <time>2023-06-03T14:22:44Z</time>
      </trkpt>
      <trkpt lat="49.8933" lon="2.30087">
        <ele>38.9</ele>
        <time>2023-06-03T14:22:45Z</time>
      </trkpt>
      <trkpt lat="49.89329" lon="2.30086">
        <ele>38.9</ele>
        <time>2023-06-03T14:22:46Z</time>
      </trkpt>
      <trkpt lat="49.89328" lon="2.30085">
        <ele>39</ele>
        <time>2023-06-03T14:22:47Z</time>
      </trkpt>
      <trkpt lat="49.89327" lon="2.30083">
        <ele>39</ele>
        <time>2023-06-03T14:22:48Z</time>
      </trkpt>
      <trkpt lat="49.89326" lon="2.30082">
        <ele>39</ele>
        <time>2023-06-03T14:22:50Z</time>
      </trkpt>
      <trkpt lat="49.89326" lon="2.30082">
        <ele>39</ele>
        <time>2023-06-03T14:22:51Z</time>
      </trkpt>
      <trkpt lat="49.89325" lon="2.30081">
        <ele>39</ele>
        <time>2023-06-03T14:22:52Z</time>
      </trkpt>
      <trkpt lat="49.89324" lon="2.3008">
        <ele>39</ele>
        <time>2023-06-03T14:22:53Z</time>
      </trkpt>
      <trkpt lat="49.89324" lon="2.30079">
        <ele>39</ele>
        <time>2023-06-03T14:22:54Z</time>
      </trkpt>
      <trkpt lat="49.89323" lon="2.30078">
        <ele>39</ele>
        <time>2023-06-03T14:22:55Z</time>
      </trkpt>
      <trkpt lat="49.89322" lon="2.30077">
        <ele>39</ele>
        <time>2023-06-03T14:22:57Z</time>
      </trkpt>
      <trkpt lat="49.89321" lon="2.30075">
        <ele>39</ele>
        <time>2023-06-03T14:22:58Z</time>
      </trkpt>
      <trkpt lat="49.89321" lon="2.30074">
        <ele>39.1</ele>
        <time>2023-06-03T14:22:59Z</time>
      </trkpt>
      <trkpt lat="49.8932" lon="2.30073">
        <ele>39.1</ele>
        <time>2023-06-03T14:23:00Z</time>
      </trkpt>
      <trkpt lat="49.89319" lon="2.30072">
        <ele>39.1</ele>
        <time>2023-06-03T14:23:01Z</time>
      </trkpt>
      <trkpt lat="49.89318" lon="2.30071">
        <ele>39.1</ele>
        <time>2023-06-03T14:23:02Z</time>
      </trkpt>
      <trkpt lat="49.89318" lon="2.30071">
        <ele>39.1</ele>
        <time>2023-06-03T14:23:03Z</time>
      </trkpt>
      <trkpt lat="49.89317" lon="2.3007">
        <ele>39.1</ele>
        <time>2023-06-03T14:23:05Z</time>
      </trkpt>
      <trkpt lat="49.89317" lon="2.3007">
        <ele>39.1</ele>
        <time>2023-06-03T14:23:06Z</time>
      </trkpt>
      <trkpt lat="49.89316" lon="2.3007">
        <ele>39.1</ele>
        <time>2023-06-03T14:23:07Z</time>
      </trkpt>
      <trkpt lat="49.89315" lon="2.3007">
        <ele>39.1</ele>
        <time>2023-06-03T14:23:09Z</time>
      </trkpt>
      <trkpt lat="49.89313" lon="2.30069">
        <ele>39.1</ele>
        <time>2023-06-03T14:23:10Z</time>
      </trkpt>
      <trkpt lat="49.89312" lon="2.30068">
        <ele>39.1</ele>
        <time>2023-06-03T14:23:11Z</time>
      </trkpt>
      <trkpt lat="49.89311" lon="2.30068">
        <ele>39.2</ele>
        <time>2023-06-03T14:23:12Z</time>
      </trkpt>
      <trkpt lat="49.8931" lon="2.30067">
        <ele>39.2</ele>
        <time>2023-06-03T14:23:14Z</time>
      </trkpt>
      <trkpt lat="49.8931" lon="2.30067">
        <ele>39.2</ele>
        <time>2023-06-03T14:23:15Z</time>
      </trkpt>
      <trkpt lat="49.89309" lon="2.30066">
        <ele>39.2</ele>
        <time>2023-06-03T14:23:16Z</time>
      </trkpt>
      <trkpt lat="49.89308" lon="2.30066">
        <ele>39.2</ele>
        <time>2023-06-03T14:23:17Z</time>
      </trkpt>
      <trkpt lat="49.89307" lon="2.30065">
        <ele>39.2</ele>
        <time>2023-06-03T14:23:18Z</time>
      </trkpt>
      <trkpt lat="49.89306" lon="2.30063">
        <ele>39.2</ele>
        <time>2023-06-03T14:23:19Z</time>
      </trkpt>
      <trkpt lat="49.89305" lon="2.30062">
        <ele>39.2</ele>
        <time>2023-06-03T14:23:20Z</time>
      </trkpt>
      <trkpt lat="49.89305" lon="2.30061">
        <ele>39.2</ele>
        <time>2023-06-03T14:23:22Z</time>
      </trkpt>
      <trkpt lat="49.89304" lon="2.3006">
        <ele>39.3</ele>
        <time>2023-06-03T14:23:23Z</time>
      </trkpt>
      <trkpt lat="49.89304" lon="2.30059">
        <ele>39.3</ele>
        <time>2023-06-03T14:23:24Z</time>
      </trkpt>
      <trkpt lat="49.89305" lon="2.30057">
        <ele>39.3</ele>
        <time>2023-06-03T14:23:25Z</time>
      </trkpt>
      <trkpt lat="49.89305" lon="2.30055">
        <ele>39.3</ele>
        <time>2023-06-03T14:23:26Z</time>
      </trkpt>
      <trkpt lat="49.89305" lon="2.30054">
        <ele>39.3</ele>
        <time>2023-06-03T14:23:27Z</time>
      </trkpt>
      <trkpt lat="49.89306" lon="2.30052">
        <ele>39.1</ele>
        <time>2023-06-03T14:23:28Z</time>
      </trkpt>
      <trkpt lat="49.89307" lon="2.3005">
        <ele>39.1</ele>
        <time>2023-06-03T14:23:29Z</time>
      </trkpt>
      <trkpt lat="49.89308" lon="2.30045">
        <ele>39.1</ele>
        <time>2023-06-03T14:23:31Z</time>
      </trkpt>
      <trkpt lat="49.89308" lon="2.30043">
        <ele>39.1</ele>
        <time>2023-06-03T14:23:32Z</time>
      </trkpt>
      <trkpt lat="49.89309" lon="2.3004">
        <ele>39</ele>
        <time>2023-06-03T14:23:33Z</time>
      </trkpt>
      <trkpt lat="49.89309" lon="2.30034">
        <ele>38.3</ele>
        <time>2023-06-03T14:23:35Z</time>
      </trkpt>
      <trkpt lat="49.89309" lon="2.30032">
        <ele>38.3</ele>
        <time>2023-06-03T14:23:36Z</time>
      </trkpt>
      <trkpt lat="49.89308" lon="2.30029">
        <ele>38.2</ele>
        <time>2023-06-03T14:23:37Z</time>
      </trkpt>
      <trkpt lat="49.89307" lon="2.30027">
        <ele>38.2</ele>
        <time>2023-06-03T14:23:38Z</time>
      </trkpt>
      <trkpt lat="49.89306" lon="2.30025">
        <ele>38.2</ele>
        <time>2023-06-03T14:23:39Z</time>
      </trkpt>
      <trkpt lat="49.89305" lon="2.30023">
        <ele>38.2</ele>
        <time>2023-06-03T14:23:40Z</time>
      </trkpt>
      <trkpt lat="49.89303" lon="2.30022">
        <ele>38.3</ele>
        <time>2023-06-03T14:23:41Z</time>
      </trkpt>
      <trkpt lat="49.89301" lon="2.3002">
        <ele>38.3</ele>
        <time>2023-06-03T14:23:43Z</time>
      </trkpt>
      <trkpt lat="49.89299" lon="2.30019">
        <ele>38.3</ele>
        <time>2023-06-03T14:23:44Z</time>
      </trkpt>
      <trkpt lat="49.89298" lon="2.30018">
        <ele>38.4</ele>
        <time>2023-06-03T14:23:45Z</time>
      </trkpt>
      <trkpt lat="49.89295" lon="2.30017">
        <ele>38.4</ele>
        <time>2023-06-03T14:23:46Z</time>
      </trkpt>
      <trkpt lat="49.89295" lon="2.30017">
        <ele>38.4</ele>
        <time>2023-06-03T14:23:47Z</time>
      </trkpt>
      <trkpt lat="49.89294" lon="2.30016">
        <ele>38.4</ele>
        <time>2023-06-03T14:23:48Z</time>
      </trkpt>
      <trkpt lat="49.89293" lon="2.30016">
        <ele>38.4</ele>
        <time>2023-06-03T14:23:49Z</time>
      </trkpt>
      <trkpt lat="49.89292" lon="2.30016">
        <ele>38.5</ele>
        <time>2023-06-03T14:23:50Z</time>
      </trkpt>
      <trkpt lat="49.8929" lon="2.30015">
        <ele>38.5</ele>
        <time>2023-06-03T14:23:52Z</time>
      </trkpt>
      <trkpt lat="49.89289" lon="2.30015">
        <ele>38.5</ele>
        <time>2023-06-03T14:23:53Z</time>
      </trkpt>
      <trkpt lat="49.89288" lon="2.30015">
        <ele>38.5</ele>
        <time>2023-06-03T14:23:54Z</time>
      </trkpt>
      <trkpt lat="49.89287" lon="2.30014">
        <ele>38.5</ele>
        <time>2023-06-03T14:23:55Z</time>
      </trkpt>
      <trkpt lat="49.89286" lon="2.30014">
        <ele>38.5</ele>
        <time>2023-06-03T14:23:56Z</time>
      </trkpt>
      <trkpt lat="49.89285" lon="2.30015">
        <ele>38.5</ele>
        <time>2023-06-03T14:23:57Z</time>
      </trkpt>
      <trkpt lat="49.89284" lon="2.30015">
        <ele>38.5</ele>
        <time>2023-06-03T14:23:59Z</time>
      </trkpt>
      <trkpt lat="49.89283" lon="2.30015">
        <ele>38.6</ele>
        <time>2023-06-03T14:24:00Z</time>
      </trkpt>
      <trkpt lat="49.89282" lon="2.30016">
        <ele>38.6</ele>
        <time>2023-06-03T14:24:01Z</time>
      </trkpt>
      <trkpt lat="49.89281" lon="2.30016">
        <ele>38.6</ele>
        <time>2023-06-03T14:24:02Z</time>
      </trkpt>
      <trkpt lat="49.89279" lon="2.30016">
        <ele>38.6</ele>
        <time>2023-06-03T14:24:04Z</time>
      </trkpt>
      <trkpt lat="49.89278" lon="2.30016">
        <ele>38.6</ele>
        <time>2023-06-03T14:24:05Z</time>
      </trkpt>
      <trkpt lat="49.89276" lon="2.30016">
        <ele>38.7</ele>
        <time>2023-06-03T14:24:06Z</time>
      </trkpt>
      <trkpt lat="49.89275" lon="2.30014">
        <ele>38.7</ele>
        <time>2023-06-03T14:24:08Z</time>
      </trkpt>
      <trkpt lat="49.89274" lon="2.30013">
        <ele>38.8</ele>
        <time>2023-06-03T14:24:09Z</time>
      </trkpt>
      <trkpt lat="49.89273" lon="2.30011">
        <ele>38.8</ele>
        <time>2023-06-03T14:24:10Z</time>
      </trkpt>
      <trkpt lat="49.89272" lon="2.30009">
        <ele>38.9</ele>
        <time>2023-06-03T14:24:11Z</time>
      </trkpt>
      <trkpt lat="49.89272" lon="2.30007">
        <ele>38.9</ele>
        <time>2023-06-03T14:24:13Z</time>
      </trkpt>
      <trkpt lat="49.89273" lon="2.30005">
        <ele>39</ele>
        <time>2023-06-03T14:24:14Z</time>
      </trkpt>
      <trkpt lat="49.89273" lon="2.30002">
        <ele>39</ele>
        <time>2023-06-03T14:24:15Z</time>
      </trkpt>
      <trkpt lat="49.89275" lon="2.3">
        <ele>39.1</ele>
        <time>2023-06-03T14:24:16Z</time>
      </trkpt>
      <trkpt lat="49.89275" lon="2.29999">
        <ele>39.1</ele>
        <time>2023-06-03T14:24:17Z</time>
      </trkpt>
      <trkpt lat="49.89276" lon="2.29998">
        <ele>39.2</ele>
        <time>2023-06-03T14:24:18Z</time>
      </trkpt>
      <trkpt lat="49.89276" lon="2.29997">
        <ele>39.2</ele>
        <time>2023-06-03T14:24:19Z</time>
      </trkpt>
      <trkpt lat="49.89277" lon="2.29995">
        <ele>39.2</ele>
        <time>2023-06-03T14:24:20Z</time>
      </trkpt>
      <trkpt lat="49.89277" lon="2.29994">
        <ele>39.2</ele>
        <time>2023-06-03T14:24:21Z</time>
      </trkpt>
      <trkpt lat="49.89277" lon="2.29992">
        <ele>39.3</ele>
        <time>2023-06-03T14:24:23Z</time>
      </trkpt>
      <trkpt lat="49.89277" lon="2.2999">
        <ele>39.3</ele>
        <time>2023-06-03T14:24:24Z</time>
      </trkpt>
      <trkpt lat="49.89277" lon="2.29988">
        <ele>39.4</ele>
        <time>2023-06-03T14:24:25Z</time>
      </trkpt>
      <trkpt lat="49.89276" lon="2.29987">
        <ele>39.4</ele>
        <time>2023-06-03T14:24:26Z</time>
      </trkpt>
      <trkpt lat="49.89275" lon="2.29986">
        <ele>39.4</ele>
        <time>2023-06-03T14:24:27Z</time>
      </trkpt>
      <trkpt lat="49.89274" lon="2.29986">
        <ele>39.5</ele>
        <time>2023-06-03T14:24:28Z</time>
      </trkpt>
      <trkpt lat="49.89273" lon="2.29985">
        <ele>39.5</ele>
        <time>2023-06-03T14:24:29Z</time>
      </trkpt>
      <trkpt lat="49.89271" lon="2.29984">
        <ele>39.5</ele>
        <time>2023-06-03T14:24:31Z</time>
      </trkpt>
      <trkpt lat="49.8927" lon="2.29983">
        <ele>39.6</ele>
        <time>2023-06-03T14:24:32Z</time>
      </trkpt>
      <trkpt lat="49.89269" lon="2.29981">
        <ele>39.6</ele>
        <time>2023-06-03T14:24:33Z</time>
      </trkpt>
      <trkpt lat="49.89268" lon="2.29981">
        <ele>39.6</ele>
        <time>2023-06-03T14:24:35Z</time>
      </trkpt>
      <trkpt lat="49.89266" lon="2.29979">
        <ele>39.7</ele>
        <time>2023-06-03T14:24:36Z</time>
      </trkpt>
      <trkpt lat="49.89265" lon="2.29979">
        <ele>39.7</ele>
        <time>2023-06-03T14:24:37Z</time>
      </trkpt>
      <trkpt lat="49.89264" lon="2.29978">
        <ele>39.7</ele>
        <time>2023-06-03T14:24:39Z</time>
      </trkpt>
      <trkpt lat="49.89263" lon="2.29978">
        <ele>39.8</ele>
        <time>2023-06-03T14:24:40Z</time>
      </trkpt>
      <trkpt lat="49.89262" lon="2.29977">
        <ele>39.8</ele>
        <time>2023-06-03T14:24:41Z</time>
      </trkpt>
      <trkpt lat="49.89262" lon="2.29977">
        <ele>39.7</ele>
        <time>2023-06-03T14:24:43Z</time>
      </trkpt>
      <trkpt lat="49.89261" lon="2.29976">
        <ele>39.6</ele>
        <time>2023-06-03T14:24:44Z</time>
      </trkpt>
      <trkpt lat="49.89261" lon="2.29976">
        <ele>39.5</ele>
        <time>2023-06-03T14:24:45Z</time>
      </trkpt>
      <trkpt lat="49.89261" lon="2.29976">
        <ele>39.4</ele>
        <time>2023-06-03T14:24:46Z</time>
      </trkpt>
      <trkpt lat="49.8926" lon="2.29975">
        <ele>39.3</ele>
        <time>2023-06-03T14:24:47Z</time>
      </trkpt>
      <trkpt lat="49.89259" lon="2.29974">
        <ele>39</ele>
        <time>2023-06-03T14:24:48Z</time>
      </trkpt>
      <trkpt lat="49.89258" lon="2.29973">
        <ele>38.8</ele>
        <time>2023-06-03T14:24:49Z</time>
      </trkpt>
      <trkpt lat="49.89257" lon="2.29972">
        <ele>38.5</ele>
        <time>2023-06-03T14:24:51Z</time>
      </trkpt>
      <trkpt lat="49.89256" lon="2.29971">
        <ele>38.2</ele>
        <time>2023-06-03T14:24:52Z</time>
      </trkpt>
      <trkpt lat="49.89254" lon="2.2997">
        <ele>37.8</ele>
        <time>2023-06-03T14:24:53Z</time>
      </trkpt>
      <trkpt lat="49.89253" lon="2.29969">
        <ele>37.7</ele>
        <time>2023-06-03T14:24:54Z</time>
      </trkpt>
      <trkpt lat="49.89251" lon="2.29968">
        <ele>37.7</ele>
        <time>2023-06-03T14:24:55Z</time>
      </trkpt>
      <trkpt lat="49.89251" lon="2.29968">
        <ele>37.7</ele>
        <time>2023-06-03T14:24:56Z</time>
      </trkpt>
      <trkpt lat="49.8925" lon="2.29968">
        <ele>37.7</ele>
        <time>2023-06-03T14:24:57Z</time>
      </trkpt>
      <trkpt lat="49.89248" lon="2.29969">
        <ele>37.7</ele>
        <time>2023-06-03T14:24:58Z</time>
      </trkpt>
      <trkpt lat="49.89247" lon="2.2997">
        <ele>37.6</ele>
        <time>2023-06-03T14:25:00Z</time>
      </trkpt>
      <trkpt lat="49.89246" lon="2.29971">
        <ele>37.6</ele>
        <time>2023-06-03T14:25:01Z</time>
      </trkpt>
      <trkpt lat="49.89245" lon="2.29973">
        <ele>37.6</ele>
        <time>2023-06-03T14:25:02Z</time>
      </trkpt>
      <trkpt lat="49.89244" lon="2.29973">
        <ele>37.6</ele>
        <time>2023-06-03T14:25:04Z</time>
      </trkpt>
      <trkpt lat="49.89243" lon="2.29974">
        <ele>37.6</ele>
        <time>2023-06-03T14:25:05Z</time>
      </trkpt>
      <trkpt lat="49.89242" lon="2.29975">
        <ele>37.6</ele>
        <time>2023-06-03T14:25:06Z</time>
      </trkpt>
      <trkpt lat="49.89241" lon="2.29976">
        <ele>37.6</ele>
        <time>2023-06-03T14:25:07Z</time>
      </trkpt>
      <trkpt lat="49.89241" lon="2.29977">
        <ele>37.6</ele>
        <time>2023-06-03T14:25:08Z</time>
      </trkpt>
      <trkpt lat="49.89239" lon="2.29979">
        <ele>37.6</ele>
        <time>2023-06-03T14:25:09Z</time>
      </trkpt>
      <trkpt lat="49.89239" lon="2.2998">
        <ele>37.6</ele>
        <time>2023-06-03T14:25:10Z</time>
      </trkpt>
      <trkpt lat="49.89238" lon="2.29981">
        <ele>37.6</ele>
        <time>2023-06-03T14:25:12Z</time>
      </trkpt>
      <trkpt lat="49.89237" lon="2.29983">
        <ele>37.7</ele>
        <time>2023-06-03T14:25:13Z</time>
      </trkpt>
      <trkpt lat="49.89235" lon="2.29984">
        <ele>37.7</ele>
        <time>2023-06-03T14:25:14Z</time>
      </trkpt>
      <trkpt lat="49.89234" lon="2.29985">
        <ele>37.7</ele>
        <time>2023-06-03T14:25:15Z</time>
      </trkpt>
      <trkpt lat="49.89233" lon="2.29986">
        <ele>37.7</ele>
        <time>2023-06-03T14:25:16Z</time>
      </trkpt>
      <trkpt lat="49.89233" lon="2.29986">
        <ele>37.7</ele>
        <time>2023-06-03T14:25:17Z</time>
      </trkpt>
      <trkpt lat="49.89232" lon="2.29987">
        <ele>37.7</ele>
        <time>2023-06-03T14:25:19Z</time>
      </trkpt>
      <trkpt lat="49.89231" lon="2.29988">
        <ele>37.7</ele>
        <time>2023-06-03T14:25:20Z</time>
      </trkpt>
      <trkpt lat="49.89231" lon="2.29988">
        <ele>37.7</ele>
        <time>2023-06-03T14:25:21Z</time>
      </trkpt>
      <trkpt lat="49.8923" lon="2.29989">
        <ele>37.7</ele>
        <time>2023-06-03T14:25:23Z</time>
      </trkpt>
      <trkpt lat="49.89229" lon="2.2999">
        <ele>37.7</ele>
        <time>2023-06-03T14:25:24Z</time>
      </trkpt>
      <trkpt lat="49.89228" lon="2.2999">
        <ele>37.7</ele>
        <time>2023-06-03T14:25:25Z</time>
      </trkpt>
      <trkpt lat="49.89227" lon="2.2999">
        <ele>37.7</ele>
        <time>2023-06-03T14:25:27Z</time>
      </trkpt>
      <trkpt lat="49.89226" lon="2.2999">
        <ele>37.7</ele>
        <time>2023-06-03T14:25:28Z</time>
      </trkpt>
      <trkpt lat="49.89225" lon="2.29989">
        <ele>37.7</ele>
        <time>2023-06-03T14:25:30Z</time>
      </trkpt>
      <trkpt lat="49.89224" lon="2.29989">
        <ele>37.7</ele>
        <time>2023-06-03T14:25:31Z</time>
      </trkpt>
      <trkpt lat="49.89224" lon="2.29988">
        <ele>37.7</ele>
        <time>2023-06-03T14:25:32Z</time>
      </trkpt>
      <trkpt lat="49.89225" lon="2.29988">
        <ele>37.7</ele>
        <time>2023-06-03T14:25:34Z</time>
      </trkpt>
      <trkpt lat="49.89225" lon="2.29988">
        <ele>37.7</ele>
        <time>2023-06-03T14:25:35Z</time>
      </trkpt>
      <trkpt lat="49.89225" lon="2.29988">
        <ele>37.7</ele>
        <time>2023-06-03T14:25:36Z</time>
      </trkpt>
      <trkpt lat="49.89225" lon="2.29988">
        <ele>37.7</ele>
        <time>2023-06-03T14:25:38Z</time>
      </trkpt>
      <trkpt lat="49.89225" lon="2.29988">
        <ele>37.7</ele>
        <time>2023-06-03T14:25:39Z</time>
      </trkpt>
      <trkpt lat="49.89225" lon="2.29987">
        <ele>37.7</ele>
        <time>2023-06-03T14:25:40Z</time>
      </trkpt>
      <trkpt lat="49.89225" lon="2.29987">
        <ele>37.7</ele>
        <time>2023-06-03T14:25:41Z</time>
      </trkpt>
      <trkpt lat="49.89225" lon="2.29987">
        <ele>37.7</ele>
        <time>2023-06-03T14:25:42Z</time>
      </trkpt>
      <trkpt lat="49.89225" lon="2.29987">
        <ele>37.7</ele>
        <time>2023-06-03T14:25:43Z</time>
      </trkpt>
      <trkpt lat="49.89225" lon="2.29987">
        <ele>37.7</ele>
        <time>2023-06-03T14:25:44Z</time>
      </trkpt>
      <trkpt lat="49.89227" lon="2.29985">
        <ele>37.7</ele>
        <time>2023-06-03T14:25:45Z</time>
      </trkpt>
      <trkpt lat="49.89228" lon="2.29985">
        <ele>37.7</ele>
        <time>2023-06-03T14:25:46Z</time>
      </trkpt>
      <trkpt lat="49.89228" lon="2.29985">
        <ele>37.7</ele>
        <time>2023-06-03T14:25:47Z</time>
      </trkpt>
      <trkpt lat="49.89228" lon="2.29985">
        <ele>37.7</ele>
        <time>2023-06-03T14:25:48Z</time>
      </trkpt>
      <trkpt lat="49.89228" lon="2.29985">
        <ele>37.7</ele>
        <time>2023-06-03T14:25:49Z</time>
      </trkpt>
      <trkpt lat="49.89228" lon="2.29985">
        <ele>37.7</ele>
        <time>2023-06-03T14:25:50Z</time>
      </trkpt>
      <trkpt lat="49.89228" lon="2.29985">
        <ele>37.7</ele>
        <time>2023-06-03T14:25:51Z</time>
      </trkpt>
      <trkpt lat="49.89228" lon="2.29985">
        <ele>37.7</ele>
        <time>2023-06-03T14:25:52Z</time>
      </trkpt>
      <trkpt lat="49.89228" lon="2.29986">
        <ele>37.7</ele>
        <time>2023-06-03T14:25:53Z</time>
      </trkpt>
      <trkpt lat="49.89228" lon="2.29986">
        <ele>37.7</ele>
        <time>2023-06-03T14:25:54Z</time>
      </trkpt>
      <trkpt lat="49.89228" lon="2.29986">
        <ele>37.7</ele>
        <time>2023-06-03T14:25:55Z</time>
      </trkpt>
      <trkpt lat="49.89228" lon="2.29986">
        <ele>37.7</ele>
        <time>2023-06-03T14:25:56Z</time>
      </trkpt>
      <trkpt lat="49.89228" lon="2.29986">
        <ele>37.7</ele>
        <time>2023-06-03T14:25:57Z</time>
      </trkpt>
      <trkpt lat="49.89228" lon="2.29986">
        <ele>37.7</ele>
        <time>2023-06-03T14:25:58Z</time>
      </trkpt>
      <trkpt lat="49.89228" lon="2.29986">
        <ele>37.7</ele>
        <time>2023-06-03T14:25:59Z</time>
      </trkpt>
      <trkpt lat="49.89228" lon="2.29986">
        <ele>37.7</ele>
        <time>2023-06-03T14:26:00Z</time>
      </trkpt>
      <trkpt lat="49.89228" lon="2.29986">
        <ele>37.7</ele>
        <time>2023-06-03T14:26:01Z</time>
      </trkpt>
      <trkpt lat="49.89228" lon="2.29986">
        <ele>37.7</ele>
        <time>2023-06-03T14:26:02Z</time>
      </trkpt>
      <trkpt lat="49.89228" lon="2.29986">
        <ele>37.7</ele>
        <time>2023-06-03T14:26:03Z</time>
      </trkpt>
      <trkpt lat="49.89228" lon="2.29986">
        <ele>37.7</ele>
        <time>2023-06-03T14:26:04Z</time>
      </trkpt>
      <trkpt lat="49.89228" lon="2.29986">
        <ele>37.7</ele>
        <time>2023-06-03T14:26:05Z</time>
      </trkpt>
      <trkpt lat="49.89228" lon="2.29986">
        <ele>37.7</ele>
        <time>2023-06-03T14:26:06Z</time>
      </trkpt>
      <trkpt lat="49.89228" lon="2.29986">
        <ele>37.7</ele>
        <time>2023-06-03T14:26:07Z</time>
      </trkpt>
      <trkpt lat="49.89228" lon="2.29986">
        <ele>37.7</ele>
        <time>2023-06-03T14:26:08Z</time>
      </trkpt>
      <trkpt lat="49.89228" lon="2.29986">
        <ele>37.7</ele>
        <time>2023-06-03T14:26:09Z</time>
      </trkpt>
      <trkpt lat="49.89228" lon="2.29986">
        <ele>37.7</ele>
        <time>2023-06-03T14:26:10Z</time>
      </trkpt>
      <trkpt lat="49.89228" lon="2.29986">
        <ele>37.7</ele>
        <time>2023-06-03T14:26:11Z</time>
      </trkpt>
      <trkpt lat="49.89228" lon="2.29986">
        <ele>37.7</ele>
        <time>2023-06-03T14:26:12Z</time>
      </trkpt>
      <trkpt lat="49.89228" lon="2.29986">
        <ele>37.7</ele>
        <time>2023-06-03T14:26:13Z</time>
      </trkpt>
      <trkpt lat="49.89228" lon="2.29986">
        <ele>37.7</ele>
        <time>2023-06-03T14:26:14Z</time>
      </trkpt>
      <trkpt lat="49.89228" lon="2.29986">
        <ele>37.7</ele>
        <time>2023-06-03T14:26:15Z</time>
      </trkpt>
      <trkpt lat="49.89228" lon="2.29986">
        <ele>37.7</ele>
        <time>2023-06-03T14:26:16Z</time>
      </trkpt>
      <trkpt lat="49.89228" lon="2.29986">
        <ele>37.7</ele>
        <time>2023-06-03T14:26:17Z</time>
      </trkpt>
      <trkpt lat="49.89228" lon="2.29986">
        <ele>37.7</ele>
        <time>2023-06-03T14:26:18Z</time>
      </trkpt>
      <trkpt lat="49.89228" lon="2.29986">
        <ele>37.7</ele>
        <time>2023-06-03T14:26:19Z</time>
      </trkpt>
      <trkpt lat="49.89228" lon="2.29986">
        <ele>37.7</ele>
        <time>2023-06-03T14:26:20Z</time>
      </trkpt>
      <trkpt lat="49.89228" lon="2.29986">
        <ele>37.7</ele>
        <time>2023-06-03T14:26:21Z</time>
      </trkpt>
      <trkpt lat="49.89228" lon="2.29986">
        <ele>37.7</ele>
        <time>2023-06-03T14:26:22Z</time>
      </trkpt>
      <trkpt lat="49.89228" lon="2.29986">
        <ele>37.7</ele>
        <time>2023-06-03T14:26:23Z</time>
      </trkpt>
      <trkpt lat="49.89228" lon="2.29986">
        <ele>37.7</ele>
        <time>2023-06-03T14:26:24Z</time>
      </trkpt>
      <trkpt lat="49.89228" lon="2.29986">
        <ele>37.7</ele>
        <time>2023-06-03T14:26:25Z</time>
      </trkpt>
      <trkpt lat="49.89228" lon="2.29986">
        <ele>37.7</ele>
        <time>2023-06-03T14:26:26Z</time>
      </trkpt>
      <trkpt lat="49.89228" lon="2.29986">
        <ele>37.7</ele>
        <time>2023-06-03T14:26:27Z</time>
      </trkpt>
      <trkpt lat="49.89228" lon="2.29986">
        <ele>37.7</ele>
        <time>2023-06-03T14:26:28Z</time>
      </trkpt>
      <trkpt lat="49.89228" lon="2.29986">
        <ele>37.7</ele>
        <time>2023-06-03T14:26:29Z</time>
      </trkpt>
      <trkpt lat="49.89228" lon="2.29986">
        <ele>37.7</ele>
        <time>2023-06-03T14:26:30Z</time>
      </trkpt>
      <trkpt lat="49.89228" lon="2.29986">
        <ele>37.7</ele>
        <time>2023-06-03T14:26:31Z</time>
      </trkpt>
      <trkpt lat="49.89228" lon="2.29986">
        <ele>37.7</ele>
        <time>2023-06-03T14:26:32Z</time>
      </trkpt>
      <trkpt lat="49.89228" lon="2.29986">
        <ele>37.7</ele>
        <time>2023-06-03T14:26:33Z</time>
      </trkpt>
      <trkpt lat="49.89228" lon="2.29986">
        <ele>37.7</ele>
        <time>2023-06-03T14:26:34Z</time>
      </trkpt>
      <trkpt lat="49.89228" lon="2.29986">
        <ele>37.7</ele>
        <time>2023-06-03T14:26:35Z</time>
      </trkpt>
      <trkpt lat="49.89228" lon="2.29986">
        <ele>37.7</ele>
        <time>2023-06-03T14:26:36Z</time>
      </trkpt>
      <trkpt lat="49.89228" lon="2.29986">
        <ele>37.7</ele>
        <time>2023-06-03T14:26:37Z</time>
      </trkpt>
      <trkpt lat="49.89228" lon="2.29986">
        <ele>37.7</ele>
        <time>2023-06-03T14:26:38Z</time>
      </trkpt>
      <trkpt lat="49.89228" lon="2.29986">
        <ele>37.7</ele>
        <time>2023-06-03T14:26:39Z</time>
      </trkpt>
      <trkpt lat="49.89228" lon="2.29986">
        <ele>37.7</ele>
        <time>2023-06-03T14:26:40Z</time>
      </trkpt>
      <trkpt lat="49.8923" lon="2.29983">
        <ele>37.7</ele>
        <time>2023-06-03T14:26:41Z</time>
      </trkpt>
      <trkpt lat="49.89232" lon="2.29981">
        <ele>37.7</ele>
        <time>2023-06-03T14:26:42Z</time>
      </trkpt>
      <trkpt lat="49.89233" lon="2.2998">
        <ele>37.7</ele>
        <time>2023-06-03T14:26:43Z</time>
      </trkpt>
      <trkpt lat="49.89234" lon="2.29981">
        <ele>37.7</ele>
        <time>2023-06-03T14:26:45Z</time>
      </trkpt>
      <trkpt lat="49.89235" lon="2.29981">
        <ele>37.7</ele>
        <time>2023-06-03T14:26:46Z</time>
      </trkpt>
      <trkpt lat="49.89235" lon="2.29981">
        <ele>37.7</ele>
        <time>2023-06-03T14:26:47Z</time>
      </trkpt>
      <trkpt lat="49.89235" lon="2.29981">
        <ele>37.7</ele>
        <time>2023-06-03T14:26:48Z</time>
      </trkpt>
      <trkpt lat="49.89235" lon="2.29981">
        <ele>37.7</ele>
        <time>2023-06-03T14:26:50Z</time>
      </trkpt>
      <trkpt lat="49.89235" lon="2.29981">
        <ele>37.7</ele>
        <time>2023-06-03T14:26:51Z</time>
      </trkpt>
      <trkpt lat="49.89235" lon="2.29981">
        <ele>37.7</ele>
        <time>2023-06-03T14:26:52Z</time>
      </trkpt>
      <trkpt lat="49.89235" lon="2.29981">
        <ele>37.7</ele>
        <time>2023-06-03T14:26:54Z</time>
      </trkpt>
      <trkpt lat="49.89235" lon="2.29981">
        <ele>37.7</ele>
        <time>2023-06-03T14:26:55Z</time>
      </trkpt>
      <trkpt lat="49.89235" lon="2.29981">
        <ele>37.7</ele>
        <time>2023-06-03T14:26:56Z</time>
      </trkpt>
      <trkpt lat="49.89235" lon="2.29981">
        <ele>37.7</ele>
        <time>2023-06-03T14:26:57Z</time>
      </trkpt>
      <trkpt lat="49.89235" lon="2.29981">
        <ele>37.7</ele>
        <time>2023-06-03T14:26:58Z</time>
      </trkpt>
      <trkpt lat="49.89235" lon="2.29981">
        <ele>37.7</ele>
        <time>2023-06-03T14:26:59Z</time>
      </trkpt>
      <trkpt lat="49.89235" lon="2.29981">
        <ele>37.7</ele>
        <time>2023-06-03T14:27:00Z</time>
      </trkpt>
      <trkpt lat="49.89235" lon="2.29981">
        <ele>37.7</ele>
        <time>2023-06-03T14:27:01Z</time>
      </trkpt>
    </trkseg>
  </trk>
</gpx>